<?xml version='1.0' encoding='UTF-8'?><gpx version="1.1" creator="JPX - https://github.com/jenetics/jpx" xmlns="http://www.topografix.com/GPX/1/1"><trk><trkseg><trkpt lat="38.1129266" lon="15.6600297"><ele>94.0</ele><time>2026-04-20T12:59:05.877Z</time></trkpt><trkpt lat="38.1128583" lon="15.6599033"><ele>94.0</ele><time>2026-04-20T12:59:08.803Z</time></trkpt><trkpt lat="38.1129417" lon="15.65998"><ele>94.0</ele><time>2026-04-20T13:00:50.804Z</time></trkpt><trkpt lat="38.1129833" lon="15.660095"><ele>94.0</ele><time>2026-04-20T13:00:53.804Z</time></trkpt><trkpt lat="38.1130383" lon="15.6602067"><ele>94.0</ele><time>2026-04-20T13:00:55.806Z</time></trkpt><trkpt lat="38.113075" lon="15.6602733"><ele>94.4</ele><time>2026-04-20T13:00:56.805Z</time></trkpt><trkpt lat="38.1131117" lon="15.66034"><ele>94.80000000000001</ele><time>2026-04-20T13:00:57.804Z</time></trkpt><trkpt lat="38.1131683" lon="15.660465"><ele>95.19999999999999</ele><time>2026-04-20T13:00:59.806Z</time></trkpt><trkpt lat="38.113215" lon="15.6605767"><ele>95.6</ele><time>2026-04-20T13:01:01.804Z</time></trkpt><trkpt lat="38.113285" lon="15.6606583"><ele>96.0</ele><time>2026-04-20T13:01:03.805Z</time></trkpt><trkpt lat="38.1133867" lon="15.6606283"><ele>94.66666666666667</ele><time>2026-04-20T13:01:05.804Z</time></trkpt><trkpt lat="38.1134533" lon="15.6605267"><ele>93.33333333333333</ele><time>2026-04-20T13:01:07.804Z</time></trkpt><trkpt lat="38.1134833" lon="15.660425"><ele>92.0</ele><time>2026-04-20T13:01:09.805Z</time></trkpt><trkpt lat="38.11347" lon="15.6603417"><ele>90.66666666666666</ele><time>2026-04-20T13:01:12.805Z</time></trkpt><trkpt lat="38.1134183" lon="15.66028"><ele>89.33333333333333</ele><time>2026-04-20T13:01:16.804Z</time></trkpt><trkpt lat="38.1134117" lon="15.6601983"><ele>88.0</ele><time>2026-04-20T13:01:20.806Z</time></trkpt><trkpt lat="38.1135117" lon="15.6601083"><ele>87.60000000000001</ele><time>2026-04-20T13:01:24.804Z</time></trkpt><trkpt lat="38.1135833" lon="15.660045"><ele>87.2</ele><time>2026-04-20T13:01:25.806Z</time></trkpt><trkpt lat="38.1136667" lon="15.6599667"><ele>86.8</ele><time>2026-04-20T13:01:26.806Z</time></trkpt><trkpt lat="38.1137517" lon="15.6598867"><ele>86.4</ele><time>2026-04-20T13:01:27.807Z</time></trkpt><trkpt lat="38.1138317" lon="15.659815"><ele>86.0</ele><time>2026-04-20T13:01:28.807Z</time></trkpt><trkpt lat="38.1139" lon="15.6597583"><ele>86.0</ele><time>2026-04-20T13:01:29.805Z</time></trkpt><trkpt lat="38.113965" lon="15.6597217"><ele>86.0</ele><time>2026-04-20T13:01:30.805Z</time></trkpt><trkpt lat="38.1140633" lon="15.6597067"><ele>86.0</ele><time>2026-04-20T13:01:32.806Z</time></trkpt><trkpt lat="38.1141717" lon="15.6597033"><ele>86.0</ele><time>2026-04-20T13:01:34.805Z</time></trkpt><trkpt lat="38.1142633" lon="15.6596767"><ele>86.0</ele><time>2026-04-20T13:01:36.808Z</time></trkpt><trkpt lat="38.1143433" lon="15.6596433"><ele>85.16666666666667</ele><time>2026-04-20T13:01:38.807Z</time></trkpt><trkpt lat="38.1144383" lon="15.659615"><ele>84.33333333333334</ele><time>2026-04-20T13:01:40.807Z</time></trkpt><trkpt lat="38.1145017" lon="15.6595917"><ele>83.5</ele><time>2026-04-20T13:01:41.807Z</time></trkpt><trkpt lat="38.114565" lon="15.6595583"><ele>82.66666666666667</ele><time>2026-04-20T13:01:42.807Z</time></trkpt><trkpt lat="38.114625" lon="15.6595217"><ele>81.83333333333333</ele><time>2026-04-20T13:01:43.806Z</time></trkpt><trkpt lat="38.1147267" lon="15.6594533"><ele>81.0</ele><time>2026-04-20T13:01:45.809Z</time></trkpt><trkpt lat="38.1148267" lon="15.6594033"><ele>81.0</ele><time>2026-04-20T13:01:47.808Z</time></trkpt><trkpt lat="38.114895" lon="15.6593817"><ele>81.0</ele><time>2026-04-20T13:01:48.808Z</time></trkpt><trkpt lat="38.1149783" lon="15.6593567"><ele>81.0</ele><time>2026-04-20T13:01:49.807Z</time></trkpt><trkpt lat="38.11508" lon="15.6593183"><ele>81.0</ele><time>2026-04-20T13:01:50.806Z</time></trkpt><trkpt lat="38.1151967" lon="15.659255"><ele>81.0</ele><time>2026-04-20T13:01:51.807Z</time></trkpt><trkpt lat="38.1153167" lon="15.6591733"><ele>80.0</ele><time>2026-04-20T13:01:52.805Z</time></trkpt><trkpt lat="38.1154417" lon="15.6590767"><ele>79.0</ele><time>2026-04-20T13:01:53.807Z</time></trkpt><trkpt lat="38.11556" lon="15.6589733"><ele>78.0</ele><time>2026-04-20T13:01:54.805Z</time></trkpt><trkpt lat="38.1156667" lon="15.6588617"><ele>77.0</ele><time>2026-04-20T13:01:55.806Z</time></trkpt><trkpt lat="38.11577" lon="15.6587517"><ele>76.2</ele><time>2026-04-20T13:01:56.806Z</time></trkpt><trkpt lat="38.1158683" lon="15.6586417"><ele>75.4</ele><time>2026-04-20T13:01:57.807Z</time></trkpt><trkpt lat="38.11595" lon="15.6585367"><ele>74.6</ele><time>2026-04-20T13:01:58.807Z</time></trkpt><trkpt lat="38.11601" lon="15.658435"><ele>73.8</ele><time>2026-04-20T13:01:59.807Z</time></trkpt><trkpt lat="38.1160683" lon="15.65836"><ele>73.0</ele><time>2026-04-20T13:02:00.807Z</time></trkpt><trkpt lat="38.1161133" lon="15.6582983"><ele>73.0</ele><time>2026-04-20T13:02:01.805Z</time></trkpt><trkpt lat="38.1161717" lon="15.6582233"><ele>73.0</ele><time>2026-04-20T13:02:03.805Z</time></trkpt><trkpt lat="38.11623" lon="15.658165"><ele>73.0</ele><time>2026-04-20T13:02:06.807Z</time></trkpt><trkpt lat="38.1162283" lon="15.658245"><ele>73.0</ele><time>2026-04-20T13:02:09.807Z</time></trkpt><trkpt lat="38.1162133" lon="15.6583517"><ele>73.0</ele><time>2026-04-20T13:05:22.805Z</time></trkpt><trkpt lat="38.1162967" lon="15.6583133"><ele>73.0</ele><time>2026-04-20T13:05:25.806Z</time></trkpt><trkpt lat="38.1163417" lon="15.6581917"><ele>73.0</ele><time>2026-04-20T13:05:27.805Z</time></trkpt><trkpt lat="38.11638" lon="15.6581033"><ele>73.0</ele><time>2026-04-20T13:05:28.805Z</time></trkpt><trkpt lat="38.1164283" lon="15.6580083"><ele>73.0</ele><time>2026-04-20T13:05:29.807Z</time></trkpt><trkpt lat="38.1164783" lon="15.65792"><ele>73.0</ele><time>2026-04-20T13:05:30.806Z</time></trkpt><trkpt lat="38.1165283" lon="15.6578383"><ele>73.0</ele><time>2026-04-20T13:05:31.807Z</time></trkpt><trkpt lat="38.11657" lon="15.657755"><ele>73.0</ele><time>2026-04-20T13:05:32.806Z</time></trkpt><trkpt lat="38.11661" lon="15.6576717"><ele>70.0</ele><time>2026-04-20T13:05:33.806Z</time></trkpt><trkpt lat="38.1166533" lon="15.657585"><ele>67.0</ele><time>2026-04-20T13:05:34.806Z</time></trkpt><trkpt lat="38.1166983" lon="15.6574917"><ele>64.0</ele><time>2026-04-20T13:05:35.806Z</time></trkpt><trkpt lat="38.1167467" lon="15.6573933"><ele>61.0</ele><time>2026-04-20T13:05:36.805Z</time></trkpt><trkpt lat="38.116795" lon="15.657295"><ele>57.99999999999999</ele><time>2026-04-20T13:05:37.806Z</time></trkpt><trkpt lat="38.1168417" lon="15.6571983"><ele>55.0</ele><time>2026-04-20T13:05:38.806Z</time></trkpt><trkpt lat="38.116895" lon="15.6570917"><ele>55.0</ele><time>2026-04-20T13:05:39.806Z</time></trkpt><trkpt lat="38.1169633" lon="15.6569683"><ele>55.0</ele><time>2026-04-20T13:05:40.804Z</time></trkpt><trkpt lat="38.1170383" lon="15.6568317"><ele>55.0</ele><time>2026-04-20T13:05:41.806Z</time></trkpt><trkpt lat="38.11711" lon="15.656695"><ele>55.0</ele><time>2026-04-20T13:05:42.806Z</time></trkpt><trkpt lat="38.1171717" lon="15.65657"><ele>54.25</ele><time>2026-04-20T13:05:43.805Z</time></trkpt><trkpt lat="38.1172233" lon="15.6564533"><ele>53.5</ele><time>2026-04-20T13:05:44.807Z</time></trkpt><trkpt lat="38.1172767" lon="15.6563317"><ele>52.75</ele><time>2026-04-20T13:05:45.804Z</time></trkpt><trkpt lat="38.1173483" lon="15.6561967"><ele>52.0</ele><time>2026-04-20T13:05:46.806Z</time></trkpt><trkpt lat="38.11741" lon="15.656055"><ele>50.0</ele><time>2026-04-20T13:05:47.805Z</time></trkpt><trkpt lat="38.1174717" lon="15.6559333"><ele>48.0</ele><time>2026-04-20T13:05:48.807Z</time></trkpt><trkpt lat="38.1175217" lon="15.6558433"><ele>46.0</ele><time>2026-04-20T13:05:49.807Z</time></trkpt><trkpt lat="38.117575" lon="15.6557267"><ele>44.0</ele><time>2026-04-20T13:05:51.806Z</time></trkpt><trkpt lat="38.117545" lon="15.65563"><ele>42.0</ele><time>2026-04-20T13:05:53.804Z</time></trkpt><trkpt lat="38.1174917" lon="15.655565"><ele>42.0</ele><time>2026-04-20T13:05:54.811Z</time></trkpt><trkpt lat="38.1174233" lon="15.655485"><ele>42.0</ele><time>2026-04-20T13:05:55.805Z</time></trkpt><trkpt lat="38.1173417" lon="15.6553867"><ele>42.0</ele><time>2026-04-20T13:05:56.807Z</time></trkpt><trkpt lat="38.1172417" lon="15.6552683"><ele>42.0</ele><time>2026-04-20T13:05:57.804Z</time></trkpt><trkpt lat="38.1171267" lon="15.655135"><ele>41.75</ele><time>2026-04-20T13:05:58.806Z</time></trkpt><trkpt lat="38.11701" lon="15.6550083"><ele>41.5</ele><time>2026-04-20T13:05:59.807Z</time></trkpt><trkpt lat="38.1169117" lon="15.654895"><ele>41.25</ele><time>2026-04-20T13:06:00.805Z</time></trkpt><trkpt lat="38.1168333" lon="15.6547917"><ele>41.0</ele><time>2026-04-20T13:06:01.804Z</time></trkpt><trkpt lat="38.116755" lon="15.6546917"><ele>41.0</ele><time>2026-04-20T13:06:02.806Z</time></trkpt><trkpt lat="38.1166667" lon="15.6545933"><ele>41.0</ele><time>2026-04-20T13:06:03.805Z</time></trkpt><trkpt lat="38.1165767" lon="15.6544917"><ele>41.0</ele><time>2026-04-20T13:06:04.806Z</time></trkpt><trkpt lat="38.1164983" lon="15.6544017"><ele>41.0</ele><time>2026-04-20T13:06:05.806Z</time></trkpt><trkpt lat="38.11641" lon="15.654305"><ele>40.25</ele><time>2026-04-20T13:06:06.806Z</time></trkpt><trkpt lat="38.116325" lon="15.65419"><ele>39.5</ele><time>2026-04-20T13:06:07.804Z</time></trkpt><trkpt lat="38.1162383" lon="15.654085"><ele>38.75</ele><time>2026-04-20T13:06:08.806Z</time></trkpt><trkpt lat="38.11617" lon="15.6539983"><ele>38.0</ele><time>2026-04-20T13:06:09.805Z</time></trkpt><trkpt lat="38.11608" lon="15.6539"><ele>38.0</ele><time>2026-04-20T13:06:10.804Z</time></trkpt><trkpt lat="38.1159833" lon="15.6537933"><ele>38.0</ele><time>2026-04-20T13:06:11.806Z</time></trkpt><trkpt lat="38.1158883" lon="15.6536833"><ele>38.0</ele><time>2026-04-20T13:06:12.806Z</time></trkpt><trkpt lat="38.11578" lon="15.6535633"><ele>38.0</ele><time>2026-04-20T13:06:13.806Z</time></trkpt><trkpt lat="38.1156667" lon="15.653435"><ele>38.25</ele><time>2026-04-20T13:06:14.806Z</time></trkpt><trkpt lat="38.1155667" lon="15.6533133"><ele>38.5</ele><time>2026-04-20T13:06:15.805Z</time></trkpt><trkpt lat="38.1154633" lon="15.6532"><ele>38.75</ele><time>2026-04-20T13:06:16.805Z</time></trkpt><trkpt lat="38.1153533" lon="15.6530733"><ele>39.0</ele><time>2026-04-20T13:06:17.806Z</time></trkpt><trkpt lat="38.115235" lon="15.6529283"><ele>39.0</ele><time>2026-04-20T13:06:18.806Z</time></trkpt><trkpt lat="38.1151233" lon="15.6527917"><ele>39.0</ele><time>2026-04-20T13:06:19.805Z</time></trkpt><trkpt lat="38.11501" lon="15.6526633"><ele>39.0</ele><time>2026-04-20T13:06:20.806Z</time></trkpt><trkpt lat="38.1149133" lon="15.6525467"><ele>39.0</ele><time>2026-04-20T13:06:21.806Z</time></trkpt><trkpt lat="38.1148267" lon="15.6524533"><ele>37.2</ele><time>2026-04-20T13:06:22.805Z</time></trkpt><trkpt lat="38.1147483" lon="15.65237"><ele>35.4</ele><time>2026-04-20T13:06:23.805Z</time></trkpt><trkpt lat="38.1146767" lon="15.652295"><ele>33.6</ele><time>2026-04-20T13:06:24.806Z</time></trkpt><trkpt lat="38.1146017" lon="15.6522117"><ele>31.8</ele><time>2026-04-20T13:06:25.806Z</time></trkpt><trkpt lat="38.11452" lon="15.65214"><ele>30.0</ele><time>2026-04-20T13:06:26.804Z</time></trkpt><trkpt lat="38.1144567" lon="15.65208"><ele>30.0</ele><time>2026-04-20T13:06:27.806Z</time></trkpt><trkpt lat="38.114375" lon="15.6519917"><ele>30.0</ele><time>2026-04-20T13:06:29.804Z</time></trkpt><trkpt lat="38.114375" lon="15.6518833"><ele>30.0</ele><time>2026-04-20T13:06:31.804Z</time></trkpt><trkpt lat="38.1144283" lon="15.6518117"><ele>30.0</ele><time>2026-04-20T13:06:32.804Z</time></trkpt><trkpt lat="38.114485" lon="15.6517467"><ele>30.0</ele><time>2026-04-20T13:06:33.805Z</time></trkpt><trkpt lat="38.114535" lon="15.6516933"><ele>30.0</ele><time>2026-04-20T13:06:34.803Z</time></trkpt><trkpt lat="38.1146283" lon="15.65162"><ele>29.0</ele><time>2026-04-20T13:06:36.805Z</time></trkpt><trkpt lat="38.1147617" lon="15.65164"><ele>28.0</ele><time>2026-04-20T13:06:38.806Z</time></trkpt><trkpt lat="38.1148283" lon="15.651665"><ele>27.0</ele><time>2026-04-20T13:06:39.804Z</time></trkpt><trkpt lat="38.1148767" lon="15.6517317"><ele>26.0</ele><time>2026-04-20T13:16:17.803Z</time></trkpt><trkpt lat="38.114895" lon="15.6518483"><ele>25.0</ele><time>2026-04-20T13:16:19.805Z</time></trkpt><trkpt lat="38.1149483" lon="15.6519467"><ele>25.8</ele><time>2026-04-20T13:16:21.805Z</time></trkpt><trkpt lat="38.115025" lon="15.6520383"><ele>26.6</ele><time>2026-04-20T13:16:23.805Z</time></trkpt><trkpt lat="38.1151067" lon="15.6521417"><ele>27.4</ele><time>2026-04-20T13:16:25.805Z</time></trkpt><trkpt lat="38.115185" lon="15.6522367"><ele>28.2</ele><time>2026-04-20T13:16:27.805Z</time></trkpt><trkpt lat="38.1152483" lon="15.6523017"><ele>29.0</ele><time>2026-04-20T13:16:29.805Z</time></trkpt><trkpt lat="38.115325" lon="15.6523917"><ele>29.0</ele><time>2026-04-20T13:16:31.805Z</time></trkpt><trkpt lat="38.1154117" lon="15.6524833"><ele>29.0</ele><time>2026-04-20T13:16:33.804Z</time></trkpt><trkpt lat="38.1154967" lon="15.6525883"><ele>29.0</ele><time>2026-04-20T13:16:35.805Z</time></trkpt><trkpt lat="38.1155883" lon="15.6526917"><ele>29.0</ele><time>2026-04-20T13:16:37.805Z</time></trkpt><trkpt lat="38.115675" lon="15.6527983"><ele>29.571428571428577</ele><time>2026-04-20T13:16:39.805Z</time></trkpt><trkpt lat="38.1157233" lon="15.6528567"><ele>30.142857142857146</ele><time>2026-04-20T13:16:40.805Z</time></trkpt><trkpt lat="38.1157733" lon="15.6529183"><ele>30.714285714285715</ele><time>2026-04-20T13:16:41.804Z</time></trkpt><trkpt lat="38.1158233" lon="15.6529783"><ele>31.28571428571429</ele><time>2026-04-20T13:16:42.805Z</time></trkpt><trkpt lat="38.1158733" lon="15.65304"><ele>31.85714285714286</ele><time>2026-04-20T13:16:43.806Z</time></trkpt><trkpt lat="38.115925" lon="15.6531083"><ele>32.42857142857143</ele><time>2026-04-20T13:16:44.807Z</time></trkpt><trkpt lat="38.11598" lon="15.6531767"><ele>33.0</ele><time>2026-04-20T13:16:45.807Z</time></trkpt><trkpt lat="38.1160533" lon="15.6532383"><ele>33.0</ele><time>2026-04-20T13:16:46.805Z</time></trkpt><trkpt lat="38.1161117" lon="15.65332"><ele>33.0</ele><time>2026-04-20T13:16:47.805Z</time></trkpt><trkpt lat="38.116185" lon="15.6534117"><ele>33.0</ele><time>2026-04-20T13:16:48.804Z</time></trkpt><trkpt lat="38.1162633" lon="15.6535"><ele>33.0</ele><time>2026-04-20T13:16:49.805Z</time></trkpt><trkpt lat="38.1163433" lon="15.6535983"><ele>33.0</ele><time>2026-04-20T13:16:50.807Z</time></trkpt><trkpt lat="38.1164267" lon="15.653695"><ele>33.0</ele><time>2026-04-20T13:16:51.806Z</time></trkpt><trkpt lat="38.116515" lon="15.653795"><ele>33.0</ele><time>2026-04-20T13:16:52.804Z</time></trkpt><trkpt lat="38.1165983" lon="15.6539033"><ele>33.0</ele><time>2026-04-20T13:16:53.807Z</time></trkpt><trkpt lat="38.1166833" lon="15.6540033"><ele>33.0</ele><time>2026-04-20T13:16:54.806Z</time></trkpt><trkpt lat="38.1167567" lon="15.6541"><ele>33.0</ele><time>2026-04-20T13:16:55.807Z</time></trkpt><trkpt lat="38.1168267" lon="15.654185"><ele>33.0</ele><time>2026-04-20T13:16:56.805Z</time></trkpt><trkpt lat="38.1168917" lon="15.6542683"><ele>33.0</ele><time>2026-04-20T13:16:57.805Z</time></trkpt><trkpt lat="38.1169567" lon="15.6543467"><ele>33.0</ele><time>2026-04-20T13:16:58.806Z</time></trkpt><trkpt lat="38.1170217" lon="15.654425"><ele>33.0</ele><time>2026-04-20T13:16:59.805Z</time></trkpt><trkpt lat="38.117085" lon="15.6545067"><ele>33.5</ele><time>2026-04-20T13:17:00.807Z</time></trkpt><trkpt lat="38.1171467" lon="15.6545833"><ele>34.0</ele><time>2026-04-20T13:17:01.805Z</time></trkpt><trkpt lat="38.1172067" lon="15.6546567"><ele>34.5</ele><time>2026-04-20T13:17:02.805Z</time></trkpt><trkpt lat="38.1172667" lon="15.6547333"><ele>35.0</ele><time>2026-04-20T13:17:03.805Z</time></trkpt><trkpt lat="38.1173283" lon="15.6548067"><ele>35.5</ele><time>2026-04-20T13:17:04.804Z</time></trkpt><trkpt lat="38.117385" lon="15.6548783"><ele>36.0</ele><time>2026-04-20T13:17:05.804Z</time></trkpt><trkpt lat="38.11744" lon="15.6549467"><ele>36.0</ele><time>2026-04-20T13:17:06.805Z</time></trkpt><trkpt lat="38.1174933" lon="15.6550133"><ele>36.0</ele><time>2026-04-20T13:17:07.805Z</time></trkpt><trkpt lat="38.117545" lon="15.65508"><ele>36.0</ele><time>2026-04-20T13:17:08.805Z</time></trkpt><trkpt lat="38.117595" lon="15.65514"><ele>36.0</ele><time>2026-04-20T13:17:09.805Z</time></trkpt><trkpt lat="38.1176383" lon="15.6552"><ele>36.0</ele><time>2026-04-20T13:17:10.804Z</time></trkpt><trkpt lat="38.1177133" lon="15.65529"><ele>36.0</ele><time>2026-04-20T13:17:12.804Z</time></trkpt><trkpt lat="38.1177217" lon="15.65541"><ele>37.0</ele><time>2026-04-20T13:17:14.806Z</time></trkpt><trkpt lat="38.11769" lon="15.65549"><ele>38.0</ele><time>2026-04-20T13:17:15.804Z</time></trkpt><trkpt lat="38.1176417" lon="15.655625"><ele>39.0</ele><time>2026-04-20T13:17:17.806Z</time></trkpt><trkpt lat="38.1175717" lon="15.6557267"><ele>40.0</ele><time>2026-04-20T13:17:19.807Z</time></trkpt><trkpt lat="38.1175317" lon="15.6557917"><ele>41.0</ele><time>2026-04-20T13:17:20.807Z</time></trkpt><trkpt lat="38.1174883" lon="15.65587"><ele>42.0</ele><time>2026-04-20T13:17:21.805Z</time></trkpt><trkpt lat="38.11744" lon="15.655965"><ele>43.6</ele><time>2026-04-20T13:17:22.805Z</time></trkpt><trkpt lat="38.1173967" lon="15.6560733"><ele>45.2</ele><time>2026-04-20T13:17:23.807Z</time></trkpt><trkpt lat="38.1173483" lon="15.6561717"><ele>46.8</ele><time>2026-04-20T13:17:24.806Z</time></trkpt><trkpt lat="38.1172983" lon="15.6562683"><ele>48.4</ele><time>2026-04-20T13:17:25.805Z</time></trkpt><trkpt lat="38.1172467" lon="15.6563667"><ele>50.0</ele><time>2026-04-20T13:17:26.806Z</time></trkpt><trkpt lat="38.1171967" lon="15.6564667"><ele>50.4</ele><time>2026-04-20T13:17:27.805Z</time></trkpt><trkpt lat="38.1171567" lon="15.6565567"><ele>50.8</ele><time>2026-04-20T13:17:28.803Z</time></trkpt><trkpt lat="38.11712" lon="15.6566333"><ele>51.2</ele><time>2026-04-20T13:17:29.803Z</time></trkpt><trkpt lat="38.1170567" lon="15.6567533"><ele>51.6</ele><time>2026-04-20T13:17:31.805Z</time></trkpt><trkpt lat="38.1170167" lon="15.6568567"><ele>52.0</ele><time>2026-04-20T13:17:33.804Z</time></trkpt><trkpt lat="38.1169617" lon="15.6569583"><ele>52.49999999999999</ele><time>2026-04-20T13:17:35.805Z</time></trkpt><trkpt lat="38.1168967" lon="15.6570933"><ele>53.0</ele><time>2026-04-20T13:17:37.807Z</time></trkpt><trkpt lat="38.1168567" lon="15.6571667"><ele>53.5</ele><time>2026-04-20T13:17:38.807Z</time></trkpt><trkpt lat="38.1168133" lon="15.6572467"><ele>54.0</ele><time>2026-04-20T13:17:39.807Z</time></trkpt><trkpt lat="38.116765" lon="15.6573267"><ele>54.49999999999999</ele><time>2026-04-20T13:17:40.807Z</time></trkpt><trkpt lat="38.1167133" lon="15.657405"><ele>55.0</ele><time>2026-04-20T13:17:41.806Z</time></trkpt><trkpt lat="38.116665" lon="15.6574817"><ele>54.99999999999999</ele><time>2026-04-20T13:17:42.806Z</time></trkpt><trkpt lat="38.1166183" lon="15.657555"><ele>55.0</ele><time>2026-04-20T13:17:43.807Z</time></trkpt><trkpt lat="38.1165767" lon="15.657625"><ele>55.0</ele><time>2026-04-20T13:17:44.807Z</time></trkpt><trkpt lat="38.1165317" lon="15.6576917"><ele>55.0</ele><time>2026-04-20T13:17:45.804Z</time></trkpt><trkpt lat="38.1164867" lon="15.6577617"><ele>55.0</ele><time>2026-04-20T13:17:46.805Z</time></trkpt><trkpt lat="38.1164417" lon="15.6578333"><ele>54.99999999999999</ele><time>2026-04-20T13:17:47.805Z</time></trkpt><trkpt lat="38.1164" lon="15.65791"><ele>55.0</ele><time>2026-04-20T13:17:48.805Z</time></trkpt><trkpt lat="38.11635" lon="15.6579733"><ele>58.6</ele><time>2026-04-20T13:17:49.803Z</time></trkpt><trkpt lat="38.116305" lon="15.6580317"><ele>62.2</ele><time>2026-04-20T13:17:50.806Z</time></trkpt><trkpt lat="38.1162267" lon="15.658145"><ele>65.8</ele><time>2026-04-20T13:17:52.805Z</time></trkpt><trkpt lat="38.11616" lon="15.6582533"><ele>69.4</ele><time>2026-04-20T13:17:54.808Z</time></trkpt><trkpt lat="38.1160917" lon="15.658355"><ele>73.0</ele><time>2026-04-20T13:17:56.807Z</time></trkpt><trkpt lat="38.1160233" lon="15.65847"><ele>73.0</ele><time>2026-04-20T13:17:58.807Z</time></trkpt><trkpt lat="38.1159433" lon="15.6585783"><ele>73.0</ele><time>2026-04-20T13:18:00.807Z</time></trkpt><trkpt lat="38.11586" lon="15.6586817"><ele>73.0</ele><time>2026-04-20T13:18:02.807Z</time></trkpt><trkpt lat="38.1157733" lon="15.65878"><ele>73.0</ele><time>2026-04-20T13:18:04.807Z</time></trkpt><trkpt lat="38.11567" lon="15.6588717"><ele>73.8</ele><time>2026-04-20T13:18:06.804Z</time></trkpt><trkpt lat="38.1155717" lon="15.6589667"><ele>74.6</ele><time>2026-04-20T13:18:08.805Z</time></trkpt><trkpt lat="38.115515" lon="15.6590117"><ele>75.4</ele><time>2026-04-20T13:18:09.805Z</time></trkpt><trkpt lat="38.1154533" lon="15.6590483"><ele>76.2</ele><time>2026-04-20T13:18:10.805Z</time></trkpt><trkpt lat="38.1153933" lon="15.659085"><ele>77.0</ele><time>2026-04-20T13:18:11.805Z</time></trkpt><trkpt lat="38.1152783" lon="15.6591567"><ele>77.0</ele><time>2026-04-20T13:18:13.806Z</time></trkpt><trkpt lat="38.115225" lon="15.6592083"><ele>77.0</ele><time>2026-04-20T13:18:14.806Z</time></trkpt><trkpt lat="38.1151667" lon="15.659245"><ele>77.0</ele><time>2026-04-20T13:18:15.805Z</time></trkpt><trkpt lat="38.115065" lon="15.6592867"><ele>77.0</ele><time>2026-04-20T13:18:17.807Z</time></trkpt><trkpt lat="38.11499" lon="15.6593"><ele>77.0</ele><time>2026-04-20T13:18:19.805Z</time></trkpt><trkpt lat="38.1148983" lon="15.6593017"><ele>77.0</ele><time>2026-04-20T13:18:21.806Z</time></trkpt><trkpt lat="38.1147967" lon="15.6593467"><ele>77.33333333333334</ele><time>2026-04-20T13:18:23.806Z</time></trkpt><trkpt lat="38.1147017" lon="15.6594017"><ele>77.66666666666667</ele><time>2026-04-20T13:18:25.804Z</time></trkpt><trkpt lat="38.1146267" lon="15.6594517"><ele>78.0</ele><time>2026-04-20T13:18:27.807Z</time></trkpt><trkpt lat="38.1145633" lon="15.6594983"><ele>78.33333333333333</ele><time>2026-04-20T13:18:29.806Z</time></trkpt><trkpt lat="38.1145017" lon="15.6595333"><ele>78.66666666666666</ele><time>2026-04-20T13:18:31.806Z</time></trkpt><trkpt lat="38.1144317" lon="15.6595817"><ele>79.0</ele><time>2026-04-20T13:18:33.806Z</time></trkpt><trkpt lat="38.1143467" lon="15.6596333"><ele>79.0</ele><time>2026-04-20T13:18:35.807Z</time></trkpt><trkpt lat="38.114255" lon="15.6596817"><ele>79.0</ele><time>2026-04-20T13:18:37.806Z</time></trkpt><trkpt lat="38.1141583" lon="15.6597317"><ele>79.0</ele><time>2026-04-20T13:18:39.804Z</time></trkpt><trkpt lat="38.1140683" lon="15.6597983"><ele>79.0</ele><time>2026-04-20T13:18:41.805Z</time></trkpt><trkpt lat="38.113975" lon="15.6598617"><ele>79.0</ele><time>2026-04-20T13:18:43.805Z</time></trkpt><trkpt lat="38.1138883" lon="15.6599417"><ele>80.16666666666666</ele><time>2026-04-20T13:18:45.807Z</time></trkpt><trkpt lat="38.1138" lon="15.6600383"><ele>81.33333333333333</ele><time>2026-04-20T13:18:47.806Z</time></trkpt><trkpt lat="38.1137567" lon="15.6601117"><ele>82.5</ele><time>2026-04-20T13:18:48.806Z</time></trkpt><trkpt lat="38.1137083" lon="15.6601917"><ele>83.66666666666667</ele><time>2026-04-20T13:18:49.806Z</time></trkpt><trkpt lat="38.113665" lon="15.6602867"><ele>84.83333333333334</ele><time>2026-04-20T13:18:50.807Z</time></trkpt><trkpt lat="38.11362" lon="15.66039"><ele>86.0</ele><time>2026-04-20T13:18:51.806Z</time></trkpt><trkpt lat="38.1135733" lon="15.6604933"><ele>86.4</ele><time>2026-04-20T13:18:52.806Z</time></trkpt><trkpt lat="38.11352" lon="15.660595"><ele>86.8</ele><time>2026-04-20T13:18:53.807Z</time></trkpt><trkpt lat="38.1134633" lon="15.6607"><ele>87.2</ele><time>2026-04-20T13:18:54.806Z</time></trkpt><trkpt lat="38.1134" lon="15.6608017"><ele>87.60000000000001</ele><time>2026-04-20T13:18:55.808Z</time></trkpt><trkpt lat="38.1133267" lon="15.6609"><ele>88.0</ele><time>2026-04-20T13:18:56.807Z</time></trkpt><trkpt lat="38.113245" lon="15.6609917"><ele>90.0</ele><time>2026-04-20T13:18:57.807Z</time></trkpt><trkpt lat="38.11316" lon="15.6610833"><ele>92.0</ele><time>2026-04-20T13:18:58.806Z</time></trkpt><trkpt lat="38.1130733" lon="15.6611767"><ele>94.0</ele><time>2026-04-20T13:18:59.807Z</time></trkpt><trkpt lat="38.112985" lon="15.6612717"><ele>96.0</ele><time>2026-04-20T13:19:00.807Z</time></trkpt><trkpt lat="38.1128967" lon="15.6613667"><ele>96.4</ele><time>2026-04-20T13:19:01.805Z</time></trkpt><trkpt lat="38.1128133" lon="15.6614567"><ele>96.8</ele><time>2026-04-20T13:19:02.806Z</time></trkpt><trkpt lat="38.1127333" lon="15.6615417"><ele>97.2</ele><time>2026-04-20T13:19:03.805Z</time></trkpt><trkpt lat="38.11265" lon="15.661605"><ele>97.60000000000001</ele><time>2026-04-20T13:19:04.805Z</time></trkpt><trkpt lat="38.1125583" lon="15.6616417"><ele>98.0</ele><time>2026-04-20T13:19:05.805Z</time></trkpt><trkpt lat="38.1124667" lon="15.6616617"><ele>99.4</ele><time>2026-04-20T13:19:06.805Z</time></trkpt><trkpt lat="38.1123767" lon="15.6616767"><ele>100.80000000000001</ele><time>2026-04-20T13:19:07.805Z</time></trkpt><trkpt lat="38.112285" lon="15.661675"><ele>102.2</ele><time>2026-04-20T13:19:08.806Z</time></trkpt><trkpt lat="38.1121967" lon="15.6616583"><ele>103.6</ele><time>2026-04-20T13:19:09.805Z</time></trkpt><trkpt lat="38.1121017" lon="15.661635"><ele>105.0</ele><time>2026-04-20T13:19:10.805Z</time></trkpt><trkpt lat="38.1119967" lon="15.66161"><ele>105.0</ele><time>2026-04-20T13:19:11.806Z</time></trkpt><trkpt lat="38.1118833" lon="15.6615867"><ele>105.0</ele><time>2026-04-20T13:19:12.805Z</time></trkpt><trkpt lat="38.1117617" lon="15.6615567"><ele>105.0</ele><time>2026-04-20T13:19:13.804Z</time></trkpt><trkpt lat="38.111635" lon="15.6615167"><ele>105.0</ele><time>2026-04-20T13:19:14.805Z</time></trkpt><trkpt lat="38.1115017" lon="15.661475"><ele>106.25</ele><time>2026-04-20T13:19:15.806Z</time></trkpt><trkpt lat="38.1113617" lon="15.6614433"><ele>107.5</ele><time>2026-04-20T13:19:16.804Z</time></trkpt><trkpt lat="38.1112167" lon="15.6614133"><ele>108.75</ele><time>2026-04-20T13:19:17.805Z</time></trkpt><trkpt lat="38.1110783" lon="15.6613783"><ele>110.0</ele><time>2026-04-20T13:19:18.805Z</time></trkpt><trkpt lat="38.1109483" lon="15.6613283"><ele>110.0</ele><time>2026-04-20T13:19:19.804Z</time></trkpt><trkpt lat="38.1108133" lon="15.6612867"><ele>110.0</ele><time>2026-04-20T13:19:20.805Z</time></trkpt><trkpt lat="38.1106783" lon="15.661245"><ele>110.0</ele><time>2026-04-20T13:19:21.804Z</time></trkpt><trkpt lat="38.11054" lon="15.6612"><ele>110.0</ele><time>2026-04-20T13:19:22.805Z</time></trkpt><trkpt lat="38.1104017" lon="15.6611583"><ele>110.5</ele><time>2026-04-20T13:19:23.805Z</time></trkpt><trkpt lat="38.11026" lon="15.6611183"><ele>111.0</ele><time>2026-04-20T13:19:24.805Z</time></trkpt><trkpt lat="38.1101167" lon="15.6610733"><ele>111.5</ele><time>2026-04-20T13:19:25.805Z</time></trkpt><trkpt lat="38.1099717" lon="15.66103"><ele>112.0</ele><time>2026-04-20T13:19:26.804Z</time></trkpt><trkpt lat="38.1098217" lon="15.6609867"><ele>112.0</ele><time>2026-04-20T13:19:27.806Z</time></trkpt><trkpt lat="38.1096717" lon="15.6609433"><ele>112.0</ele><time>2026-04-20T13:19:28.807Z</time></trkpt><trkpt lat="38.1095167" lon="15.660895"><ele>112.0</ele><time>2026-04-20T13:19:29.807Z</time></trkpt><trkpt lat="38.10936" lon="15.6608483"><ele>112.0</ele><time>2026-04-20T13:19:30.807Z</time></trkpt><trkpt lat="38.1092033" lon="15.6607983"><ele>112.0</ele><time>2026-04-20T13:19:31.806Z</time></trkpt><trkpt lat="38.1090483" lon="15.66074"><ele>112.0</ele><time>2026-04-20T13:19:32.809Z</time></trkpt><trkpt lat="38.1088883" lon="15.6606783"><ele>85.0</ele><time>2026-04-20T13:19:33.807Z</time></trkpt><trkpt lat="38.105555" lon="15.6597033"><ele>85.0</ele><time>2026-04-20T13:19:50.806Z</time></trkpt><trkpt lat="38.1053217" lon="15.6596717"><ele>85.0</ele><time>2026-04-20T13:19:51.806Z</time></trkpt><trkpt lat="38.105105" lon="15.6596467"><ele>81.33333333333333</ele><time>2026-04-20T13:19:52.806Z</time></trkpt><trkpt lat="38.104895" lon="15.65963"><ele>77.66666666666667</ele><time>2026-04-20T13:19:53.805Z</time></trkpt><trkpt lat="38.1046917" lon="15.65962"><ele>74.0</ele><time>2026-04-20T13:19:54.804Z</time></trkpt><trkpt lat="38.104495" lon="15.6596167"><ele>74.0</ele><time>2026-04-20T13:19:55.805Z</time></trkpt><trkpt lat="38.104295" lon="15.6596167"><ele>74.0</ele><time>2026-04-20T13:19:56.805Z</time></trkpt><trkpt lat="38.1040917" lon="15.6596183"><ele>74.0</ele><time>2026-04-20T13:19:57.807Z</time></trkpt><trkpt lat="38.1038867" lon="15.6596183"><ele>71.33333333333334</ele><time>2026-04-20T13:19:58.804Z</time></trkpt><trkpt lat="38.1036783" lon="15.6596183"><ele>68.66666666666667</ele><time>2026-04-20T13:19:59.805Z</time></trkpt><trkpt lat="38.1034683" lon="15.6596167"><ele>66.0</ele><time>2026-04-20T13:20:00.805Z</time></trkpt><trkpt lat="38.103255" lon="15.6596183"><ele>65.0</ele><time>2026-04-20T13:20:01.805Z</time></trkpt><trkpt lat="38.1030417" lon="15.6596183"><ele>64.0</ele><time>2026-04-20T13:20:02.806Z</time></trkpt><trkpt lat="38.1028233" lon="15.6596167"><ele>63.0</ele><time>2026-04-20T13:20:03.805Z</time></trkpt><trkpt lat="38.1025967" lon="15.6596167"><ele>64.0</ele><time>2026-04-20T13:20:04.806Z</time></trkpt><trkpt lat="38.1023683" lon="15.659615"><ele>65.0</ele><time>2026-04-20T13:20:05.805Z</time></trkpt><trkpt lat="38.10214" lon="15.65961"><ele>65.0</ele><time>2026-04-20T13:20:06.805Z</time></trkpt><trkpt lat="38.10191" lon="15.6596083"><ele>65.0</ele><time>2026-04-20T13:20:07.806Z</time></trkpt><trkpt lat="38.10168" lon="15.6596067"><ele>65.5</ele><time>2026-04-20T13:20:08.805Z</time></trkpt><trkpt lat="38.1014467" lon="15.6596033"><ele>66.0</ele><time>2026-04-20T13:20:09.806Z</time></trkpt><trkpt lat="38.101215" lon="15.6596017"><ele>66.0</ele><time>2026-04-20T13:20:10.806Z</time></trkpt><trkpt lat="38.1009833" lon="15.6595983"><ele>66.0</ele><time>2026-04-20T13:20:11.805Z</time></trkpt><trkpt lat="38.1007517" lon="15.6595967"><ele>68.0</ele><time>2026-04-20T13:20:12.804Z</time></trkpt><trkpt lat="38.1005233" lon="15.6595967"><ele>70.0</ele><time>2026-04-20T13:20:13.804Z</time></trkpt><trkpt lat="38.1003" lon="15.659595"><ele>70.0</ele><time>2026-04-20T13:20:14.804Z</time></trkpt><trkpt lat="38.1000733" lon="15.6595933"><ele>70.0</ele><time>2026-04-20T13:20:15.804Z</time></trkpt><trkpt lat="38.0998483" lon="15.6595917"><ele>73.33333333333333</ele><time>2026-04-20T13:20:16.805Z</time></trkpt><trkpt lat="38.099625" lon="15.65959"><ele>76.66666666666667</ele><time>2026-04-20T13:20:17.806Z</time></trkpt><trkpt lat="38.0994033" lon="15.6595867"><ele>80.0</ele><time>2026-04-20T13:20:18.804Z</time></trkpt><trkpt lat="38.099185" lon="15.6595817"><ele>82.33333333333334</ele><time>2026-04-20T13:20:19.804Z</time></trkpt><trkpt lat="38.0989667" lon="15.6595767"><ele>84.66666666666667</ele><time>2026-04-20T13:20:20.804Z</time></trkpt><trkpt lat="38.09875" lon="15.6595683"><ele>87.0</ele><time>2026-04-20T13:20:21.804Z</time></trkpt><trkpt lat="38.098535" lon="15.6595517"><ele>87.0</ele><time>2026-04-20T13:20:22.803Z</time></trkpt><trkpt lat="38.0983183" lon="15.6595267"><ele>87.0</ele><time>2026-04-20T13:20:23.804Z</time></trkpt><trkpt lat="38.0981033" lon="15.6594967"><ele>87.0</ele><time>2026-04-20T13:20:24.804Z</time></trkpt><trkpt lat="38.0978883" lon="15.6594667"><ele>87.0</ele><time>2026-04-20T13:20:25.804Z</time></trkpt><trkpt lat="38.0976833" lon="15.6594233"><ele>87.0</ele><time>2026-04-20T13:20:26.806Z</time></trkpt><trkpt lat="38.0974817" lon="15.6593683"><ele>87.0</ele><time>2026-04-20T13:20:27.803Z</time></trkpt><trkpt lat="38.0972833" lon="15.65931"><ele>90.0</ele><time>2026-04-20T13:20:28.803Z</time></trkpt><trkpt lat="38.0970817" lon="15.6592583"><ele>93.0</ele><time>2026-04-20T13:20:29.805Z</time></trkpt><trkpt lat="38.09688" lon="15.6592067"><ele>96.0</ele><time>2026-04-20T13:20:30.804Z</time></trkpt><trkpt lat="38.0966817" lon="15.6591617"><ele>97.0</ele><time>2026-04-20T13:20:31.804Z</time></trkpt><trkpt lat="38.09648" lon="15.6591133"><ele>98.0</ele><time>2026-04-20T13:20:32.805Z</time></trkpt><trkpt lat="38.096275" lon="15.6590667"><ele>99.0</ele><time>2026-04-20T13:20:33.804Z</time></trkpt><trkpt lat="38.0960683" lon="15.6590167"><ele>99.0</ele><time>2026-04-20T13:20:34.804Z</time></trkpt><trkpt lat="38.0958633" lon="15.6589667"><ele>99.0</ele><time>2026-04-20T13:20:35.804Z</time></trkpt><trkpt lat="38.0956567" lon="15.658935"><ele>99.0</ele><time>2026-04-20T13:20:36.804Z</time></trkpt><trkpt lat="38.0954467" lon="15.6589217"><ele>99.33333333333334</ele><time>2026-04-20T13:20:37.805Z</time></trkpt><trkpt lat="38.095235" lon="15.6589183"><ele>99.66666666666667</ele><time>2026-04-20T13:20:38.804Z</time></trkpt><trkpt lat="38.0950233" lon="15.658925"><ele>100.0</ele><time>2026-04-20T13:20:39.803Z</time></trkpt><trkpt lat="38.09481" lon="15.6589483"><ele>100.0</ele><time>2026-04-20T13:20:40.804Z</time></trkpt><trkpt lat="38.094595" lon="15.6589783"><ele>100.0</ele><time>2026-04-20T13:20:41.805Z</time></trkpt><trkpt lat="38.09438" lon="15.6590267"><ele>100.0</ele><time>2026-04-20T13:20:42.804Z</time></trkpt><trkpt lat="38.0941633" lon="15.6590817"><ele>99.66666666666667</ele><time>2026-04-20T13:20:43.804Z</time></trkpt><trkpt lat="38.09395" lon="15.6591533"><ele>99.33333333333334</ele><time>2026-04-20T13:20:44.804Z</time></trkpt><trkpt lat="38.093735" lon="15.659225"><ele>99.0</ele><time>2026-04-20T13:20:45.804Z</time></trkpt><trkpt lat="38.093515" lon="15.6592983"><ele>99.0</ele><time>2026-04-20T13:20:46.804Z</time></trkpt><trkpt lat="38.0932933" lon="15.659375"><ele>99.0</ele><time>2026-04-20T13:20:47.805Z</time></trkpt><trkpt lat="38.0930683" lon="15.6594517"><ele>98.5</ele><time>2026-04-20T13:20:48.804Z</time></trkpt><trkpt lat="38.0928467" lon="15.6595283"><ele>98.0</ele><time>2026-04-20T13:20:49.803Z</time></trkpt><trkpt lat="38.0926183" lon="15.6595967"><ele>96.5</ele><time>2026-04-20T13:20:50.805Z</time></trkpt><trkpt lat="38.0923917" lon="15.659675"><ele>95.0</ele><time>2026-04-20T13:20:51.805Z</time></trkpt><trkpt lat="38.0921633" lon="15.659765"><ele>95.0</ele><time>2026-04-20T13:20:52.804Z</time></trkpt><trkpt lat="38.0919317" lon="15.6598683"><ele>95.0</ele><time>2026-04-20T13:20:53.803Z</time></trkpt><trkpt lat="38.0917017" lon="15.6599833"><ele>89.0</ele><time>2026-04-20T13:20:54.803Z</time></trkpt><trkpt lat="38.0914767" lon="15.6601067"><ele>83.0</ele><time>2026-04-20T13:20:55.804Z</time></trkpt><trkpt lat="38.0912517" lon="15.66023"><ele>83.0</ele><time>2026-04-20T13:20:56.804Z</time></trkpt><trkpt lat="38.09103" lon="15.66036"><ele>83.0</ele><time>2026-04-20T13:20:57.804Z</time></trkpt><trkpt lat="38.0908117" lon="15.6605"><ele>80.5</ele><time>2026-04-20T13:20:58.805Z</time></trkpt><trkpt lat="38.0905917" lon="15.6606417"><ele>78.0</ele><time>2026-04-20T13:20:59.804Z</time></trkpt><trkpt lat="38.0903717" lon="15.66079"><ele>78.0</ele><time>2026-04-20T13:21:00.804Z</time></trkpt><trkpt lat="38.09015" lon="15.660935"><ele>78.0</ele><time>2026-04-20T13:21:01.804Z</time></trkpt><trkpt lat="38.0899233" lon="15.6610767"><ele>78.0</ele><time>2026-04-20T13:21:02.806Z</time></trkpt><trkpt lat="38.089695" lon="15.6612183"><ele>78.0</ele><time>2026-04-20T13:21:03.806Z</time></trkpt><trkpt lat="38.0894633" lon="15.66136"><ele>78.0</ele><time>2026-04-20T13:21:04.805Z</time></trkpt><trkpt lat="38.08923" lon="15.6615"><ele>78.0</ele><time>2026-04-20T13:21:05.803Z</time></trkpt><trkpt lat="38.0889983" lon="15.6616433"><ele>75.0</ele><time>2026-04-20T13:21:06.803Z</time></trkpt><trkpt lat="38.0887683" lon="15.6617917"><ele>72.0</ele><time>2026-04-20T13:21:07.803Z</time></trkpt><trkpt lat="38.088545" lon="15.6619417"><ele>72.0</ele><time>2026-04-20T13:21:08.804Z</time></trkpt><trkpt lat="38.0883217" lon="15.6620867"><ele>72.0</ele><time>2026-04-20T13:21:09.808Z</time></trkpt><trkpt lat="38.088095" lon="15.6622317"><ele>70.0</ele><time>2026-04-20T13:21:10.821Z</time></trkpt><trkpt lat="38.0876483" lon="15.6625233"><ele>70.5</ele><time>2026-04-20T13:21:12.803Z</time></trkpt><trkpt lat="38.0874183" lon="15.6626667"><ele>71.0</ele><time>2026-04-20T13:21:13.804Z</time></trkpt><trkpt lat="38.08719" lon="15.6628083"><ele>71.0</ele><time>2026-04-20T13:21:14.803Z</time></trkpt><trkpt lat="38.0869633" lon="15.6629533"><ele>71.0</ele><time>2026-04-20T13:21:15.806Z</time></trkpt><trkpt lat="38.0867383" lon="15.6630967"><ele>72.0</ele><time>2026-04-20T13:21:16.803Z</time></trkpt><trkpt lat="38.08628" lon="15.6633867"><ele>72.0</ele><time>2026-04-20T13:21:18.803Z</time></trkpt><trkpt lat="38.0860483" lon="15.6635283"><ele>72.0</ele><time>2026-04-20T13:21:19.802Z</time></trkpt><trkpt lat="38.0858133" lon="15.6636717"><ele>76.5</ele><time>2026-04-20T13:21:20.803Z</time></trkpt><trkpt lat="38.0855783" lon="15.6638033"><ele>81.0</ele><time>2026-04-20T13:21:21.805Z</time></trkpt><trkpt lat="38.08534" lon="15.6639167"><ele>81.0</ele><time>2026-04-20T13:21:22.803Z</time></trkpt><trkpt lat="38.0850983" lon="15.6640117"><ele>81.0</ele><time>2026-04-20T13:21:23.807Z</time></trkpt><trkpt lat="38.084855" lon="15.6640883"><ele>79.5</ele><time>2026-04-20T13:21:24.805Z</time></trkpt><trkpt lat="38.0846083" lon="15.6641533"><ele>78.0</ele><time>2026-04-20T13:21:25.803Z</time></trkpt><trkpt lat="38.0843633" lon="15.6642067"><ele>78.0</ele><time>2026-04-20T13:21:26.804Z</time></trkpt><trkpt lat="38.0841183" lon="15.6642383"><ele>78.0</ele><time>2026-04-20T13:21:27.802Z</time></trkpt><trkpt lat="38.083875" lon="15.66426"><ele>76.5</ele><time>2026-04-20T13:21:28.804Z</time></trkpt><trkpt lat="38.08363" lon="15.66427"><ele>75.0</ele><time>2026-04-20T13:21:29.803Z</time></trkpt><trkpt lat="38.0833833" lon="15.6642767"><ele>73.0</ele><time>2026-04-20T13:21:30.802Z</time></trkpt><trkpt lat="38.08314" lon="15.66428"><ele>71.0</ele><time>2026-04-20T13:21:31.803Z</time></trkpt><trkpt lat="38.0828967" lon="15.6642867"><ele>71.0</ele><time>2026-04-20T13:21:32.804Z</time></trkpt><trkpt lat="38.082655" lon="15.6642983"><ele>71.0</ele><time>2026-04-20T13:21:33.804Z</time></trkpt><trkpt lat="38.0824133" lon="15.6643067"><ele>70.5</ele><time>2026-04-20T13:21:34.804Z</time></trkpt><trkpt lat="38.0821717" lon="15.66432"><ele>70.0</ele><time>2026-04-20T13:21:35.803Z</time></trkpt><trkpt lat="38.0819317" lon="15.6643333"><ele>70.0</ele><time>2026-04-20T13:21:36.804Z</time></trkpt><trkpt lat="38.0816883" lon="15.6643417"><ele>70.0</ele><time>2026-04-20T13:21:37.803Z</time></trkpt><trkpt lat="38.0814433" lon="15.6643583"><ele>69.5</ele><time>2026-04-20T13:21:38.804Z</time></trkpt><trkpt lat="38.0811967" lon="15.6643583"><ele>69.0</ele><time>2026-04-20T13:21:39.802Z</time></trkpt><trkpt lat="38.0809483" lon="15.6643617"><ele>67.0</ele><time>2026-04-20T13:21:40.803Z</time></trkpt><trkpt lat="38.0807" lon="15.66437"><ele>65.0</ele><time>2026-04-20T13:21:41.803Z</time></trkpt><trkpt lat="38.0804517" lon="15.6643783"><ele>65.0</ele><time>2026-04-20T13:21:42.802Z</time></trkpt><trkpt lat="38.0802017" lon="15.66439"><ele>65.0</ele><time>2026-04-20T13:21:43.803Z</time></trkpt><trkpt lat="38.0799517" lon="15.6644067"><ele>62.5</ele><time>2026-04-20T13:21:44.802Z</time></trkpt><trkpt lat="38.0797" lon="15.66442"><ele>60.0</ele><time>2026-04-20T13:21:45.802Z</time></trkpt><trkpt lat="38.0794517" lon="15.6644283"><ele>60.0</ele><time>2026-04-20T13:21:46.805Z</time></trkpt><trkpt lat="38.0792017" lon="15.6644317"><ele>60.0</ele><time>2026-04-20T13:21:47.803Z</time></trkpt><trkpt lat="38.0789517" lon="15.6644367"><ele>58.0</ele><time>2026-04-20T13:21:48.802Z</time></trkpt><trkpt lat="38.0787" lon="15.66444"><ele>56.0</ele><time>2026-04-20T13:21:49.806Z</time></trkpt><trkpt lat="38.078445" lon="15.664445"><ele>57.5</ele><time>2026-04-20T13:21:50.803Z</time></trkpt><trkpt lat="38.07819" lon="15.66445"><ele>59.0</ele><time>2026-04-20T13:21:51.805Z</time></trkpt><trkpt lat="38.07794" lon="15.6644633"><ele>59.0</ele><time>2026-04-20T13:21:52.803Z</time></trkpt><trkpt lat="38.0776917" lon="15.6644817"><ele>59.0</ele><time>2026-04-20T13:21:53.803Z</time></trkpt><trkpt lat="38.077445" lon="15.66449"><ele>54.5</ele><time>2026-04-20T13:21:54.804Z</time></trkpt><trkpt lat="38.0772017" lon="15.6644883"><ele>50.0</ele><time>2026-04-20T13:21:55.804Z</time></trkpt><trkpt lat="38.0769533" lon="15.6644767"><ele>50.0</ele><time>2026-04-20T13:21:56.805Z</time></trkpt><trkpt lat="38.0767083" lon="15.66446"><ele>50.0</ele><time>2026-04-20T13:21:57.803Z</time></trkpt><trkpt lat="38.0764633" lon="15.6644417"><ele>51.0</ele><time>2026-04-20T13:21:58.802Z</time></trkpt><trkpt lat="38.0762167" lon="15.6644133"><ele>52.0</ele><time>2026-04-20T13:21:59.803Z</time></trkpt><trkpt lat="38.0759767" lon="15.664365"><ele>47.0</ele><time>2026-04-20T13:22:00.804Z</time></trkpt><trkpt lat="38.0757367" lon="15.66431"><ele>42.0</ele><time>2026-04-20T13:22:01.803Z</time></trkpt><trkpt lat="38.0755017" lon="15.6642517"><ele>42.0</ele><time>2026-04-20T13:22:02.806Z</time></trkpt><trkpt lat="38.0752767" lon="15.664185"><ele>42.0</ele><time>2026-04-20T13:22:03.804Z</time></trkpt><trkpt lat="38.07506" lon="15.6641167"><ele>40.0</ele><time>2026-04-20T13:22:04.804Z</time></trkpt><trkpt lat="38.0748517" lon="15.6640467"><ele>38.0</ele><time>2026-04-20T13:22:05.807Z</time></trkpt><trkpt lat="38.0746433" lon="15.663975"><ele>36.0</ele><time>2026-04-20T13:22:06.804Z</time></trkpt><trkpt lat="38.074435" lon="15.6638983"><ele>36.0</ele><time>2026-04-20T13:22:07.804Z</time></trkpt><trkpt lat="38.0742267" lon="15.6638217"><ele>36.0</ele><time>2026-04-20T13:22:08.804Z</time></trkpt><trkpt lat="38.074015" lon="15.66375"><ele>36.0</ele><time>2026-04-20T13:22:09.802Z</time></trkpt><trkpt lat="38.0738033" lon="15.6636783"><ele>35.0</ele><time>2026-04-20T13:22:10.802Z</time></trkpt><trkpt lat="38.0735983" lon="15.663605"><ele>34.0</ele><time>2026-04-20T13:22:11.805Z</time></trkpt><trkpt lat="38.0733933" lon="15.6635367"><ele>33.0</ele><time>2026-04-20T13:22:12.805Z</time></trkpt><trkpt lat="38.0731867" lon="15.66347"><ele>33.0</ele><time>2026-04-20T13:22:13.803Z</time></trkpt><trkpt lat="38.07298" lon="15.6634033"><ele>33.0</ele><time>2026-04-20T13:22:14.805Z</time></trkpt><trkpt lat="38.0727767" lon="15.663335"><ele>33.0</ele><time>2026-04-20T13:22:15.803Z</time></trkpt><trkpt lat="38.0725667" lon="15.6632967"><ele>33.0</ele><time>2026-04-20T13:22:16.804Z</time></trkpt><trkpt lat="38.0723567" lon="15.6632683"><ele>33.0</ele><time>2026-04-20T13:22:17.803Z</time></trkpt><trkpt lat="38.07214" lon="15.663235"><ele>33.0</ele><time>2026-04-20T13:22:18.805Z</time></trkpt><trkpt lat="38.0719183" lon="15.6632183"><ele>33.0</ele><time>2026-04-20T13:22:19.803Z</time></trkpt><trkpt lat="38.0716917" lon="15.6632133"><ele>33.0</ele><time>2026-04-20T13:22:20.803Z</time></trkpt><trkpt lat="38.0714617" lon="15.66321"><ele>34.5</ele><time>2026-04-20T13:22:21.802Z</time></trkpt><trkpt lat="38.0712283" lon="15.66321"><ele>36.0</ele><time>2026-04-20T13:22:22.802Z</time></trkpt><trkpt lat="38.0709933" lon="15.6632133"><ele>36.0</ele><time>2026-04-20T13:22:23.804Z</time></trkpt><trkpt lat="38.0707567" lon="15.6632133"><ele>36.0</ele><time>2026-04-20T13:22:24.804Z</time></trkpt><trkpt lat="38.0705233" lon="15.6632167"><ele>36.0</ele><time>2026-04-20T13:22:25.808Z</time></trkpt><trkpt lat="38.0702917" lon="15.66322"><ele>36.0</ele><time>2026-04-20T13:22:26.804Z</time></trkpt><trkpt lat="38.0700633" lon="15.6632217"><ele>36.333333333333336</ele><time>2026-04-20T13:22:27.805Z</time></trkpt><trkpt lat="38.0698467" lon="15.663215"><ele>36.66666666666667</ele><time>2026-04-20T13:22:28.804Z</time></trkpt><trkpt lat="38.0696367" lon="15.663205"><ele>37.0</ele><time>2026-04-20T13:22:29.803Z</time></trkpt><trkpt lat="38.0694367" lon="15.6631883"><ele>37.0</ele><time>2026-04-20T13:22:30.804Z</time></trkpt><trkpt lat="38.069245" lon="15.6631717"><ele>37.0</ele><time>2026-04-20T13:22:31.805Z</time></trkpt><trkpt lat="38.0690583" lon="15.6631483"><ele>37.0</ele><time>2026-04-20T13:22:32.805Z</time></trkpt><trkpt lat="38.0688733" lon="15.66313"><ele>37.333333333333336</ele><time>2026-04-20T13:22:33.804Z</time></trkpt><trkpt lat="38.0686817" lon="15.663115"><ele>37.666666666666664</ele><time>2026-04-20T13:22:34.804Z</time></trkpt><trkpt lat="38.0684833" lon="15.6630967"><ele>38.0</ele><time>2026-04-20T13:22:35.804Z</time></trkpt><trkpt lat="38.06828" lon="15.663075"><ele>39.0</ele><time>2026-04-20T13:22:36.804Z</time></trkpt><trkpt lat="38.0680683" lon="15.6630383"><ele>40.0</ele><time>2026-04-20T13:22:37.804Z</time></trkpt><trkpt lat="38.067855" lon="15.6630067"><ele>41.0</ele><time>2026-04-20T13:22:38.804Z</time></trkpt><trkpt lat="38.06764" lon="15.6629783"><ele>41.33333333333333</ele><time>2026-04-20T13:22:39.804Z</time></trkpt><trkpt lat="38.0674183" lon="15.6629517"><ele>41.666666666666664</ele><time>2026-04-20T13:22:40.804Z</time></trkpt><trkpt lat="38.0671967" lon="15.6629217"><ele>42.0</ele><time>2026-04-20T13:22:41.804Z</time></trkpt><trkpt lat="38.06697" lon="15.6628933"><ele>42.0</ele><time>2026-04-20T13:22:42.804Z</time></trkpt><trkpt lat="38.06674" lon="15.6628683"><ele>42.0</ele><time>2026-04-20T13:22:43.803Z</time></trkpt><trkpt lat="38.0665033" lon="15.6628367"><ele>42.5</ele><time>2026-04-20T13:22:44.804Z</time></trkpt><trkpt lat="38.0662667" lon="15.662805"><ele>43.0</ele><time>2026-04-20T13:22:45.804Z</time></trkpt><trkpt lat="38.0660283" lon="15.662775"><ele>42.0</ele><time>2026-04-20T13:22:46.804Z</time></trkpt><trkpt lat="38.06579" lon="15.66275"><ele>41.0</ele><time>2026-04-20T13:22:47.803Z</time></trkpt><trkpt lat="38.0655533" lon="15.6627217"><ele>40.5</ele><time>2026-04-20T13:22:48.803Z</time></trkpt><trkpt lat="38.065315" lon="15.6626917"><ele>40.0</ele><time>2026-04-20T13:22:49.803Z</time></trkpt><trkpt lat="38.06508" lon="15.662655"><ele>40.5</ele><time>2026-04-20T13:22:50.805Z</time></trkpt><trkpt lat="38.0648467" lon="15.662625"><ele>41.0</ele><time>2026-04-20T13:22:51.804Z</time></trkpt><trkpt lat="38.064615" lon="15.6625967"><ele>41.0</ele><time>2026-04-20T13:22:52.803Z</time></trkpt><trkpt lat="38.0643867" lon="15.66257"><ele>41.0</ele><time>2026-04-20T13:22:53.803Z</time></trkpt><trkpt lat="38.0641583" lon="15.6625433"><ele>39.5</ele><time>2026-04-20T13:22:54.804Z</time></trkpt><trkpt lat="38.0639333" lon="15.6625133"><ele>38.0</ele><time>2026-04-20T13:22:55.805Z</time></trkpt><trkpt lat="38.063705" lon="15.6624817"><ele>38.0</ele><time>2026-04-20T13:22:56.804Z</time></trkpt><trkpt lat="38.0634783" lon="15.6624533"><ele>38.0</ele><time>2026-04-20T13:22:57.803Z</time></trkpt><trkpt lat="38.0632533" lon="15.6624317"><ele>40.0</ele><time>2026-04-20T13:22:58.805Z</time></trkpt><trkpt lat="38.0630283" lon="15.66241"><ele>42.0</ele><time>2026-04-20T13:22:59.806Z</time></trkpt><trkpt lat="38.0628033" lon="15.6623817"><ele>42.0</ele><time>2026-04-20T13:23:00.804Z</time></trkpt><trkpt lat="38.0625783" lon="15.6623517"><ele>42.0</ele><time>2026-04-20T13:23:01.805Z</time></trkpt><trkpt lat="38.0623517" lon="15.662315"><ele>43.0</ele><time>2026-04-20T13:23:02.807Z</time></trkpt><trkpt lat="38.0621233" lon="15.66227"><ele>44.0</ele><time>2026-04-20T13:23:03.804Z</time></trkpt><trkpt lat="38.0618967" lon="15.6622133"><ele>44.0</ele><time>2026-04-20T13:23:04.804Z</time></trkpt><trkpt lat="38.0616667" lon="15.662145"><ele>44.0</ele><time>2026-04-20T13:23:05.802Z</time></trkpt><trkpt lat="38.06144" lon="15.66206"><ele>46.5</ele><time>2026-04-20T13:23:06.804Z</time></trkpt><trkpt lat="38.0612117" lon="15.6619667"><ele>49.0</ele><time>2026-04-20T13:23:07.803Z</time></trkpt><trkpt lat="38.060985" lon="15.661865"><ele>46.0</ele><time>2026-04-20T13:23:08.804Z</time></trkpt><trkpt lat="38.060755" lon="15.661765"><ele>43.0</ele><time>2026-04-20T13:23:09.802Z</time></trkpt><trkpt lat="38.0605183" lon="15.6616683"><ele>43.0</ele><time>2026-04-20T13:23:10.803Z</time></trkpt><trkpt lat="38.060285" lon="15.661565"><ele>43.0</ele><time>2026-04-20T13:23:11.803Z</time></trkpt><trkpt lat="38.0600517" lon="15.661465"><ele>43.0</ele><time>2026-04-20T13:23:12.804Z</time></trkpt><trkpt lat="38.0598183" lon="15.6613633"><ele>43.0</ele><time>2026-04-20T13:23:13.804Z</time></trkpt><trkpt lat="38.05935" lon="15.66117"><ele>39.5</ele><time>2026-04-20T13:23:15.805Z</time></trkpt><trkpt lat="38.0591167" lon="15.66106"><ele>36.0</ele><time>2026-04-20T13:23:16.804Z</time></trkpt><trkpt lat="38.0588917" lon="15.6609667"><ele>36.0</ele><time>2026-04-20T13:23:17.805Z</time></trkpt><trkpt lat="38.05867" lon="15.660875"><ele>36.0</ele><time>2026-04-20T13:23:18.804Z</time></trkpt><trkpt lat="38.0584533" lon="15.6607817"><ele>37.0</ele><time>2026-04-20T13:23:19.803Z</time></trkpt><trkpt lat="38.0582317" lon="15.6606717"><ele>38.0</ele><time>2026-04-20T13:23:20.803Z</time></trkpt><trkpt lat="38.0580117" lon="15.6605567"><ele>38.0</ele><time>2026-04-20T13:23:21.803Z</time></trkpt><trkpt lat="38.0564667" lon="15.659645"><ele>38.0</ele><time>2026-04-20T13:23:28.804Z</time></trkpt><trkpt lat="38.0562433" lon="15.659525"><ele>38.0</ele><time>2026-04-20T13:23:29.804Z</time></trkpt><trkpt lat="38.056025" lon="15.6593983"><ele>36.0</ele><time>2026-04-20T13:23:30.804Z</time></trkpt><trkpt lat="38.055805" lon="15.6592783"><ele>34.0</ele><time>2026-04-20T13:23:31.804Z</time></trkpt><trkpt lat="38.0555883" lon="15.6591617"><ele>34.0</ele><time>2026-04-20T13:23:32.806Z</time></trkpt><trkpt lat="38.0553767" lon="15.65904"><ele>34.0</ele><time>2026-04-20T13:23:33.804Z</time></trkpt><trkpt lat="38.0551583" lon="15.6589183"><ele>35.5</ele><time>2026-04-20T13:23:34.806Z</time></trkpt><trkpt lat="38.0549417" lon="15.6588"><ele>37.0</ele><time>2026-04-20T13:23:35.806Z</time></trkpt><trkpt lat="38.05473" lon="15.6586733"><ele>36.0</ele><time>2026-04-20T13:23:36.804Z</time></trkpt><trkpt lat="38.05452" lon="15.658545"><ele>35.0</ele><time>2026-04-20T13:23:37.804Z</time></trkpt><trkpt lat="38.0543117" lon="15.6584167"><ele>34.666666666666664</ele><time>2026-04-20T13:23:38.805Z</time></trkpt><trkpt lat="38.0541083" lon="15.65829"><ele>34.333333333333336</ele><time>2026-04-20T13:23:39.805Z</time></trkpt><trkpt lat="38.0539117" lon="15.658175"><ele>34.0</ele><time>2026-04-20T13:23:40.805Z</time></trkpt><trkpt lat="38.05371" lon="15.6580567"><ele>34.0</ele><time>2026-04-20T13:23:41.806Z</time></trkpt><trkpt lat="38.0534883" lon="15.6579167"><ele>34.0</ele><time>2026-04-20T13:23:42.806Z</time></trkpt><trkpt lat="38.05328" lon="15.657785"><ele>32.5</ele><time>2026-04-20T13:23:43.803Z</time></trkpt><trkpt lat="38.0530717" lon="15.6576583"><ele>31.0</ele><time>2026-04-20T13:23:44.804Z</time></trkpt><trkpt lat="38.0528667" lon="15.6575317"><ele>31.0</ele><time>2026-04-20T13:23:45.804Z</time></trkpt><trkpt lat="38.0526583" lon="15.6574133"><ele>31.0</ele><time>2026-04-20T13:23:46.805Z</time></trkpt><trkpt lat="38.0524483" lon="15.6572917"><ele>31.5</ele><time>2026-04-20T13:23:47.803Z</time></trkpt><trkpt lat="38.0522417" lon="15.657165"><ele>32.0</ele><time>2026-04-20T13:23:48.804Z</time></trkpt><trkpt lat="38.05204" lon="15.6570367"><ele>31.0</ele><time>2026-04-20T13:23:49.803Z</time></trkpt><trkpt lat="38.051845" lon="15.6568967"><ele>30.0</ele><time>2026-04-20T13:23:50.805Z</time></trkpt><trkpt lat="38.0516517" lon="15.656755"><ele>29.0</ele><time>2026-04-20T13:23:51.803Z</time></trkpt><trkpt lat="38.0514567" lon="15.6566117"><ele>29.0</ele><time>2026-04-20T13:23:52.805Z</time></trkpt><trkpt lat="38.0512617" lon="15.656475"><ele>29.0</ele><time>2026-04-20T13:23:53.804Z</time></trkpt><trkpt lat="38.0510617" lon="15.6563433"><ele>29.0</ele><time>2026-04-20T13:23:54.805Z</time></trkpt><trkpt lat="38.0508583" lon="15.65622"><ele>27.666666666666664</ele><time>2026-04-20T13:23:55.805Z</time></trkpt><trkpt lat="38.0506517" lon="15.6561067"><ele>26.333333333333336</ele><time>2026-04-20T13:23:56.805Z</time></trkpt><trkpt lat="38.05044" lon="15.6560133"><ele>25.0</ele><time>2026-04-20T13:23:57.804Z</time></trkpt><trkpt lat="38.0502233" lon="15.65593"><ele>25.0</ele><time>2026-04-20T13:23:58.804Z</time></trkpt><trkpt lat="38.0500083" lon="15.655855"><ele>25.0</ele><time>2026-04-20T13:23:59.804Z</time></trkpt><trkpt lat="38.0497867" lon="15.6557833"><ele>23.5</ele><time>2026-04-20T13:24:00.804Z</time></trkpt><trkpt lat="38.0495617" lon="15.6557233"><ele>22.0</ele><time>2026-04-20T13:24:01.804Z</time></trkpt><trkpt lat="38.0493367" lon="15.65568"><ele>20.5</ele><time>2026-04-20T13:24:02.804Z</time></trkpt><trkpt lat="38.0491083" lon="15.655645"><ele>19.0</ele><time>2026-04-20T13:24:03.803Z</time></trkpt><trkpt lat="38.0488817" lon="15.65563"><ele>19.0</ele><time>2026-04-20T13:24:04.804Z</time></trkpt><trkpt lat="38.048655" lon="15.655615"><ele>19.0</ele><time>2026-04-20T13:24:05.805Z</time></trkpt><trkpt lat="38.0484267" lon="15.6556167"><ele>18.5</ele><time>2026-04-20T13:24:06.805Z</time></trkpt><trkpt lat="38.0482017" lon="15.6556383"><ele>18.0</ele><time>2026-04-20T13:24:07.806Z</time></trkpt><trkpt lat="38.0479783" lon="15.655685"><ele>18.0</ele><time>2026-04-20T13:24:08.804Z</time></trkpt><trkpt lat="38.04776" lon="15.6557367"><ele>18.0</ele><time>2026-04-20T13:24:09.804Z</time></trkpt><trkpt lat="38.04754" lon="15.6557833"><ele>18.0</ele><time>2026-04-20T13:24:10.804Z</time></trkpt><trkpt lat="38.0473183" lon="15.6558317"><ele>17.333333333333332</ele><time>2026-04-20T13:24:11.804Z</time></trkpt><trkpt lat="38.0470983" lon="15.6558817"><ele>16.666666666666664</ele><time>2026-04-20T13:24:12.804Z</time></trkpt><trkpt lat="38.0468783" lon="15.6559283"><ele>16.0</ele><time>2026-04-20T13:24:13.803Z</time></trkpt><trkpt lat="38.046655" lon="15.6559783"><ele>16.0</ele><time>2026-04-20T13:24:14.803Z</time></trkpt><trkpt lat="38.046435" lon="15.6560217"><ele>16.0</ele><time>2026-04-20T13:24:15.803Z</time></trkpt><trkpt lat="38.0462133" lon="15.6560683"><ele>16.0</ele><time>2026-04-20T13:24:16.803Z</time></trkpt><trkpt lat="38.045995" lon="15.6561267"><ele>15.0</ele><time>2026-04-20T13:24:17.803Z</time></trkpt><trkpt lat="38.045775" lon="15.6561817"><ele>14.0</ele><time>2026-04-20T13:24:18.804Z</time></trkpt><trkpt lat="38.0455533" lon="15.6562433"><ele>14.0</ele><time>2026-04-20T13:24:19.808Z</time></trkpt><trkpt lat="38.0453383" lon="15.65632"><ele>14.0</ele><time>2026-04-20T13:24:20.804Z</time></trkpt><trkpt lat="38.0451317" lon="15.6564183"><ele>14.0</ele><time>2026-04-20T13:24:21.803Z</time></trkpt><trkpt lat="38.0449283" lon="15.6565283"><ele>13.333333333333334</ele><time>2026-04-20T13:24:22.806Z</time></trkpt><trkpt lat="38.044725" lon="15.6566417"><ele>12.666666666666668</ele><time>2026-04-20T13:24:23.807Z</time></trkpt><trkpt lat="38.04452" lon="15.6567533"><ele>12.0</ele><time>2026-04-20T13:24:24.807Z</time></trkpt><trkpt lat="38.044315" lon="15.6568633"><ele>12.333333333333332</ele><time>2026-04-20T13:24:25.804Z</time></trkpt><trkpt lat="38.0441067" lon="15.6569683"><ele>12.666666666666666</ele><time>2026-04-20T13:24:26.807Z</time></trkpt><trkpt lat="38.0439017" lon="15.6570783"><ele>13.0</ele><time>2026-04-20T13:24:27.805Z</time></trkpt><trkpt lat="38.0436967" lon="15.6571883"><ele>13.0</ele><time>2026-04-20T13:24:28.805Z</time></trkpt><trkpt lat="38.043495" lon="15.6573017"><ele>13.0</ele><time>2026-04-20T13:24:29.804Z</time></trkpt><trkpt lat="38.0432933" lon="15.6574167"><ele>13.0</ele><time>2026-04-20T13:24:30.807Z</time></trkpt><trkpt lat="38.0430883" lon="15.6575317"><ele>11.0</ele><time>2026-04-20T13:24:31.804Z</time></trkpt><trkpt lat="38.04288" lon="15.65764"><ele>9.0</ele><time>2026-04-20T13:24:32.805Z</time></trkpt><trkpt lat="38.04267" lon="15.6577467"><ele>9.666666666666666</ele><time>2026-04-20T13:24:33.804Z</time></trkpt><trkpt lat="38.042465" lon="15.6578633"><ele>10.333333333333332</ele><time>2026-04-20T13:24:34.804Z</time></trkpt><trkpt lat="38.0422617" lon="15.6579817"><ele>11.0</ele><time>2026-04-20T13:24:35.803Z</time></trkpt><trkpt lat="38.0420517" lon="15.658095"><ele>11.0</ele><time>2026-04-20T13:24:36.804Z</time></trkpt><trkpt lat="38.0418417" lon="15.6582033"><ele>11.0</ele><time>2026-04-20T13:24:37.803Z</time></trkpt><trkpt lat="38.0416317" lon="15.6583117"><ele>10.333333333333332</ele><time>2026-04-20T13:24:38.805Z</time></trkpt><trkpt lat="38.0414267" lon="15.6584283"><ele>9.666666666666666</ele><time>2026-04-20T13:24:39.804Z</time></trkpt><trkpt lat="38.04122" lon="15.6585383"><ele>9.0</ele><time>2026-04-20T13:24:40.804Z</time></trkpt><trkpt lat="38.0410117" lon="15.6586483"><ele>11.5</ele><time>2026-04-20T13:24:41.804Z</time></trkpt><trkpt lat="38.0408033" lon="15.6587617"><ele>14.0</ele><time>2026-04-20T13:24:42.805Z</time></trkpt><trkpt lat="38.0405967" lon="15.6588733"><ele>14.0</ele><time>2026-04-20T13:24:43.805Z</time></trkpt><trkpt lat="38.0403917" lon="15.658985"><ele>14.0</ele><time>2026-04-20T13:24:44.804Z</time></trkpt><trkpt lat="38.040185" lon="15.659095"><ele>14.0</ele><time>2026-04-20T13:24:45.804Z</time></trkpt><trkpt lat="38.0399817" lon="15.6592067"><ele>13.0</ele><time>2026-04-20T13:24:46.806Z</time></trkpt><trkpt lat="38.0397767" lon="15.65932"><ele>12.0</ele><time>2026-04-20T13:24:47.803Z</time></trkpt><trkpt lat="38.03957" lon="15.6594283"><ele>11.0</ele><time>2026-04-20T13:24:48.804Z</time></trkpt><trkpt lat="38.0393583" lon="15.6595133"><ele>14.5</ele><time>2026-04-20T13:24:49.804Z</time></trkpt><trkpt lat="38.0391383" lon="15.6595733"><ele>18.0</ele><time>2026-04-20T13:24:50.804Z</time></trkpt><trkpt lat="38.038915" lon="15.65962"><ele>18.0</ele><time>2026-04-20T13:24:51.804Z</time></trkpt><trkpt lat="38.03869" lon="15.6596633"><ele>18.0</ele><time>2026-04-20T13:24:52.805Z</time></trkpt><trkpt lat="38.0384617" lon="15.65968"><ele>16.5</ele><time>2026-04-20T13:24:53.804Z</time></trkpt><trkpt lat="38.038235" lon="15.6596767"><ele>15.0</ele><time>2026-04-20T13:24:54.804Z</time></trkpt><trkpt lat="38.0380117" lon="15.6596633"><ele>15.0</ele><time>2026-04-20T13:24:55.804Z</time></trkpt><trkpt lat="38.03779" lon="15.6596267"><ele>15.0</ele><time>2026-04-20T13:24:56.804Z</time></trkpt><trkpt lat="38.03757" lon="15.6595733"><ele>15.0</ele><time>2026-04-20T13:24:57.804Z</time></trkpt><trkpt lat="38.0373533" lon="15.6595"><ele>13.666666666666666</ele><time>2026-04-20T13:24:58.806Z</time></trkpt><trkpt lat="38.03714" lon="15.6594117"><ele>12.333333333333332</ele><time>2026-04-20T13:24:59.804Z</time></trkpt><trkpt lat="38.0369317" lon="15.6593217"><ele>11.0</ele><time>2026-04-20T13:25:00.805Z</time></trkpt><trkpt lat="38.0367167" lon="15.6592433"><ele>11.0</ele><time>2026-04-20T13:25:01.804Z</time></trkpt><trkpt lat="38.0365033" lon="15.6591583"><ele>11.0</ele><time>2026-04-20T13:25:02.804Z</time></trkpt><trkpt lat="38.0362917" lon="15.65907"><ele>11.0</ele><time>2026-04-20T13:25:03.804Z</time></trkpt><trkpt lat="38.0360833" lon="15.65898"><ele>11.0</ele><time>2026-04-20T13:25:04.805Z</time></trkpt><trkpt lat="38.035875" lon="15.658895"><ele>11.0</ele><time>2026-04-20T13:25:05.806Z</time></trkpt><trkpt lat="38.0356667" lon="15.6588083"><ele>11.0</ele><time>2026-04-20T13:25:06.804Z</time></trkpt><trkpt lat="38.0354617" lon="15.6587233"><ele>11.333333333333332</ele><time>2026-04-20T13:25:07.805Z</time></trkpt><trkpt lat="38.0352567" lon="15.65864"><ele>11.666666666666666</ele><time>2026-04-20T13:25:08.804Z</time></trkpt><trkpt lat="38.0350517" lon="15.6585567"><ele>12.0</ele><time>2026-04-20T13:25:09.804Z</time></trkpt><trkpt lat="38.034845" lon="15.6584783"><ele>12.0</ele><time>2026-04-20T13:25:10.804Z</time></trkpt><trkpt lat="38.0346383" lon="15.6583983"><ele>12.0</ele><time>2026-04-20T13:25:11.804Z</time></trkpt><trkpt lat="38.034435" lon="15.658315"><ele>12.0</ele><time>2026-04-20T13:25:12.806Z</time></trkpt><trkpt lat="38.0342283" lon="15.658235"><ele>11.666666666666666</ele><time>2026-04-20T13:25:13.804Z</time></trkpt><trkpt lat="38.0340217" lon="15.6581567"><ele>11.333333333333332</ele><time>2026-04-20T13:25:14.804Z</time></trkpt><trkpt lat="38.033815" lon="15.6580767"><ele>11.0</ele><time>2026-04-20T13:25:15.804Z</time></trkpt><trkpt lat="38.03361" lon="15.657995"><ele>11.0</ele><time>2026-04-20T13:25:16.806Z</time></trkpt><trkpt lat="38.0334067" lon="15.657915"><ele>11.0</ele><time>2026-04-20T13:25:17.805Z</time></trkpt><trkpt lat="38.0332033" lon="15.6578333"><ele>11.0</ele><time>2026-04-20T13:25:18.803Z</time></trkpt><trkpt lat="38.033" lon="15.65775"><ele>11.666666666666666</ele><time>2026-04-20T13:25:19.804Z</time></trkpt><trkpt lat="38.032795" lon="15.6576717"><ele>12.333333333333332</ele><time>2026-04-20T13:25:20.805Z</time></trkpt><trkpt lat="38.03259" lon="15.6575867"><ele>13.0</ele><time>2026-04-20T13:25:21.804Z</time></trkpt><trkpt lat="38.0323833" lon="15.657505"><ele>13.333333333333332</ele><time>2026-04-20T13:25:22.803Z</time></trkpt><trkpt lat="38.032175" lon="15.65742"><ele>13.666666666666668</ele><time>2026-04-20T13:25:23.804Z</time></trkpt><trkpt lat="38.0319667" lon="15.6573467"><ele>14.0</ele><time>2026-04-20T13:25:24.804Z</time></trkpt><trkpt lat="38.0317683" lon="15.657275"><ele>14.333333333333334</ele><time>2026-04-20T13:25:25.804Z</time></trkpt><trkpt lat="38.0315833" lon="15.6572017"><ele>14.666666666666668</ele><time>2026-04-20T13:25:26.804Z</time></trkpt><trkpt lat="38.03141" lon="15.657135"><ele>15.0</ele><time>2026-04-20T13:25:27.804Z</time></trkpt><trkpt lat="38.0312467" lon="15.6570667"><ele>15.0</ele><time>2026-04-20T13:25:28.804Z</time></trkpt><trkpt lat="38.03109" lon="15.657"><ele>15.0</ele><time>2026-04-20T13:25:29.804Z</time></trkpt><trkpt lat="38.030935" lon="15.6569417"><ele>15.0</ele><time>2026-04-20T13:25:30.804Z</time></trkpt><trkpt lat="38.03078" lon="15.6568867"><ele>13.666666666666666</ele><time>2026-04-20T13:25:31.804Z</time></trkpt><trkpt lat="38.0306267" lon="15.656825"><ele>12.333333333333332</ele><time>2026-04-20T13:25:32.807Z</time></trkpt><trkpt lat="38.03047" lon="15.6567633"><ele>11.0</ele><time>2026-04-20T13:25:33.804Z</time></trkpt><trkpt lat="38.03031" lon="15.6567033"><ele>11.0</ele><time>2026-04-20T13:25:34.804Z</time></trkpt><trkpt lat="38.0301517" lon="15.6566383"><ele>11.0</ele><time>2026-04-20T13:25:35.804Z</time></trkpt><trkpt lat="38.029995" lon="15.6565767"><ele>11.0</ele><time>2026-04-20T13:25:36.804Z</time></trkpt><trkpt lat="38.0298367" lon="15.6565067"><ele>12.0</ele><time>2026-04-20T13:25:37.804Z</time></trkpt><trkpt lat="38.02968" lon="15.6564483"><ele>13.0</ele><time>2026-04-20T13:25:38.805Z</time></trkpt><trkpt lat="38.0295233" lon="15.65638"><ele>14.0</ele><time>2026-04-20T13:25:39.805Z</time></trkpt><trkpt lat="38.029365" lon="15.6563183"><ele>14.0</ele><time>2026-04-20T13:25:40.805Z</time></trkpt><trkpt lat="38.0292083" lon="15.6562567"><ele>14.0</ele><time>2026-04-20T13:25:41.804Z</time></trkpt><trkpt lat="38.0290517" lon="15.6561983"><ele>14.0</ele><time>2026-04-20T13:25:42.804Z</time></trkpt><trkpt lat="38.0288933" lon="15.6561383"><ele>13.666666666666668</ele><time>2026-04-20T13:25:43.805Z</time></trkpt><trkpt lat="38.0287383" lon="15.6560717"><ele>13.333333333333332</ele><time>2026-04-20T13:25:44.804Z</time></trkpt><trkpt lat="38.0285833" lon="15.6560067"><ele>13.0</ele><time>2026-04-20T13:25:45.804Z</time></trkpt><trkpt lat="38.0284267" lon="15.655945"><ele>13.666666666666666</ele><time>2026-04-20T13:25:46.803Z</time></trkpt><trkpt lat="38.0282667" lon="15.65589"><ele>14.333333333333332</ele><time>2026-04-20T13:25:47.804Z</time></trkpt><trkpt lat="38.0281133" lon="15.6558283"><ele>15.0</ele><time>2026-04-20T13:25:48.804Z</time></trkpt><trkpt lat="38.0279583" lon="15.6557683"><ele>15.0</ele><time>2026-04-20T13:25:49.804Z</time></trkpt><trkpt lat="38.0277983" lon="15.6557083"><ele>15.0</ele><time>2026-04-20T13:25:50.806Z</time></trkpt><trkpt lat="38.0276383" lon="15.6556483"><ele>15.0</ele><time>2026-04-20T13:25:51.803Z</time></trkpt><trkpt lat="38.0274783" lon="15.65559"><ele>15.333333333333332</ele><time>2026-04-20T13:25:52.804Z</time></trkpt><trkpt lat="38.02732" lon="15.6555267"><ele>15.666666666666666</ele><time>2026-04-20T13:25:53.804Z</time></trkpt><trkpt lat="38.0271617" lon="15.6554633"><ele>16.0</ele><time>2026-04-20T13:25:54.804Z</time></trkpt><trkpt lat="38.0270017" lon="15.6554067"><ele>16.0</ele><time>2026-04-20T13:25:55.804Z</time></trkpt><trkpt lat="38.026845" lon="15.6553517"><ele>16.0</ele><time>2026-04-20T13:25:56.805Z</time></trkpt><trkpt lat="38.026695" lon="15.6552933"><ele>16.0</ele><time>2026-04-20T13:25:57.803Z</time></trkpt><trkpt lat="38.026545" lon="15.6552417"><ele>15.25</ele><time>2026-04-20T13:25:58.806Z</time></trkpt><trkpt lat="38.0264017" lon="15.6551917"><ele>14.5</ele><time>2026-04-20T13:25:59.804Z</time></trkpt><trkpt lat="38.0262683" lon="15.6551433"><ele>13.75</ele><time>2026-04-20T13:26:00.804Z</time></trkpt><trkpt lat="38.0261433" lon="15.6551"><ele>13.0</ele><time>2026-04-20T13:26:01.804Z</time></trkpt><trkpt lat="38.026025" lon="15.6550567"><ele>13.0</ele><time>2026-04-20T13:26:02.804Z</time></trkpt><trkpt lat="38.0259067" lon="15.65502"><ele>13.0</ele><time>2026-04-20T13:26:03.804Z</time></trkpt><trkpt lat="38.0257917" lon="15.6549783"><ele>13.0</ele><time>2026-04-20T13:26:04.806Z</time></trkpt><trkpt lat="38.0256767" lon="15.6549383"><ele>13.0</ele><time>2026-04-20T13:26:05.804Z</time></trkpt><trkpt lat="38.0255567" lon="15.6549033"><ele>13.0</ele><time>2026-04-20T13:26:06.805Z</time></trkpt><trkpt lat="38.025445" lon="15.6548633"><ele>13.0</ele><time>2026-04-20T13:26:07.804Z</time></trkpt><trkpt lat="38.0253367" lon="15.65482"><ele>13.0</ele><time>2026-04-20T13:26:08.805Z</time></trkpt><trkpt lat="38.0252317" lon="15.65478"><ele>13.0</ele><time>2026-04-20T13:26:09.804Z</time></trkpt><trkpt lat="38.0251267" lon="15.6547367"><ele>13.0</ele><time>2026-04-20T13:26:10.803Z</time></trkpt><trkpt lat="38.0250267" lon="15.6546933"><ele>13.0</ele><time>2026-04-20T13:26:11.803Z</time></trkpt><trkpt lat="38.024925" lon="15.6546617"><ele>13.0</ele><time>2026-04-20T13:26:12.803Z</time></trkpt><trkpt lat="38.024835" lon="15.6546267"><ele>13.0</ele><time>2026-04-20T13:26:13.803Z</time></trkpt><trkpt lat="38.0247567" lon="15.65458"><ele>13.0</ele><time>2026-04-20T13:26:14.803Z</time></trkpt><trkpt lat="38.0246783" lon="15.6545267"><ele>13.2</ele><time>2026-04-20T13:26:15.803Z</time></trkpt><trkpt lat="38.0245967" lon="15.6544767"><ele>13.4</ele><time>2026-04-20T13:26:16.803Z</time></trkpt><trkpt lat="38.0245217" lon="15.6544167"><ele>13.599999999999998</ele><time>2026-04-20T13:26:17.802Z</time></trkpt><trkpt lat="38.0244467" lon="15.6543567"><ele>13.799999999999999</ele><time>2026-04-20T13:26:18.803Z</time></trkpt><trkpt lat="38.0243717" lon="15.6542883"><ele>14.0</ele><time>2026-04-20T13:26:19.802Z</time></trkpt><trkpt lat="38.0243033" lon="15.6542067"><ele>14.0</ele><time>2026-04-20T13:26:20.803Z</time></trkpt><trkpt lat="38.02423" lon="15.6541217"><ele>14.0</ele><time>2026-04-20T13:26:21.803Z</time></trkpt><trkpt lat="38.024145" lon="15.6540417"><ele>14.0</ele><time>2026-04-20T13:26:22.803Z</time></trkpt><trkpt lat="38.0240633" lon="15.6539383"><ele>14.0</ele><time>2026-04-20T13:26:23.803Z</time></trkpt><trkpt lat="38.023965" lon="15.65383"><ele>14.5</ele><time>2026-04-20T13:26:24.803Z</time></trkpt><trkpt lat="38.0238633" lon="15.6537033"><ele>15.0</ele><time>2026-04-20T13:26:25.804Z</time></trkpt><trkpt lat="38.02376" lon="15.6535683"><ele>15.5</ele><time>2026-04-20T13:26:26.803Z</time></trkpt><trkpt lat="38.0236583" lon="15.65342"><ele>16.0</ele><time>2026-04-20T13:26:27.804Z</time></trkpt><trkpt lat="38.0235533" lon="15.6532683"><ele>16.0</ele><time>2026-04-20T13:26:28.804Z</time></trkpt><trkpt lat="38.0234517" lon="15.6531133"><ele>16.0</ele><time>2026-04-20T13:26:29.803Z</time></trkpt><trkpt lat="38.02335" lon="15.65296"><ele>16.0</ele><time>2026-04-20T13:26:30.803Z</time></trkpt><trkpt lat="38.0232517" lon="15.6528033"><ele>17.0</ele><time>2026-04-20T13:26:31.803Z</time></trkpt><trkpt lat="38.0231567" lon="15.6526517"><ele>18.0</ele><time>2026-04-20T13:26:32.803Z</time></trkpt><trkpt lat="38.0230617" lon="15.6525033"><ele>19.0</ele><time>2026-04-20T13:26:33.802Z</time></trkpt><trkpt lat="38.0229667" lon="15.6523583"><ele>19.0</ele><time>2026-04-20T13:26:34.807Z</time></trkpt><trkpt lat="38.0228683" lon="15.6522133"><ele>19.0</ele><time>2026-04-20T13:26:35.804Z</time></trkpt><trkpt lat="38.02277" lon="15.65206"><ele>19.0</ele><time>2026-04-20T13:26:36.804Z</time></trkpt><trkpt lat="38.0226733" lon="15.6519"><ele>18.5</ele><time>2026-04-20T13:26:37.804Z</time></trkpt><trkpt lat="38.022575" lon="15.651745"><ele>18.0</ele><time>2026-04-20T13:26:38.804Z</time></trkpt><trkpt lat="38.0224817" lon="15.6515967"><ele>17.5</ele><time>2026-04-20T13:26:39.804Z</time></trkpt><trkpt lat="38.022395" lon="15.6514567"><ele>17.0</ele><time>2026-04-20T13:26:40.804Z</time></trkpt><trkpt lat="38.022315" lon="15.6513283"><ele>19.0</ele><time>2026-04-20T13:26:41.804Z</time></trkpt><trkpt lat="38.0222367" lon="15.6512067"><ele>21.0</ele><time>2026-04-20T13:26:42.804Z</time></trkpt><trkpt lat="38.0221583" lon="15.6510933"><ele>23.0</ele><time>2026-04-20T13:26:43.803Z</time></trkpt><trkpt lat="38.02209" lon="15.65098"><ele>25.0</ele><time>2026-04-20T13:26:44.805Z</time></trkpt><trkpt lat="38.02202" lon="15.65087"><ele>25.0</ele><time>2026-04-20T13:26:45.802Z</time></trkpt><trkpt lat="38.0219533" lon="15.6507633"><ele>25.0</ele><time>2026-04-20T13:26:46.802Z</time></trkpt><trkpt lat="38.0218883" lon="15.6506567"><ele>25.0</ele><time>2026-04-20T13:26:47.802Z</time></trkpt><trkpt lat="38.0218233" lon="15.6505517"><ele>25.0</ele><time>2026-04-20T13:26:48.803Z</time></trkpt><trkpt lat="38.0217583" lon="15.650445"><ele>25.0</ele><time>2026-04-20T13:26:49.803Z</time></trkpt><trkpt lat="38.0216933" lon="15.65034"><ele>24.4</ele><time>2026-04-20T13:26:50.807Z</time></trkpt><trkpt lat="38.0216233" lon="15.65024"><ele>23.8</ele><time>2026-04-20T13:26:51.807Z</time></trkpt><trkpt lat="38.02156" lon="15.6501367"><ele>23.200000000000003</ele><time>2026-04-20T13:26:52.804Z</time></trkpt><trkpt lat="38.0215" lon="15.6500367"><ele>22.6</ele><time>2026-04-20T13:26:53.804Z</time></trkpt><trkpt lat="38.0214417" lon="15.6499433"><ele>22.0</ele><time>2026-04-20T13:26:54.804Z</time></trkpt><trkpt lat="38.0213917" lon="15.649855"><ele>22.0</ele><time>2026-04-20T13:26:55.803Z</time></trkpt><trkpt lat="38.02135" lon="15.6497783"><ele>22.0</ele><time>2026-04-20T13:26:56.804Z</time></trkpt><trkpt lat="38.0212917" lon="15.6496467"><ele>22.0</ele><time>2026-04-20T13:26:58.804Z</time></trkpt><trkpt lat="38.0213033" lon="15.649505"><ele>22.0</ele><time>2026-04-20T13:27:00.804Z</time></trkpt><trkpt lat="38.02132" lon="15.6494267"><ele>22.0</ele><time>2026-04-20T13:27:01.804Z</time></trkpt><trkpt lat="38.0213" lon="15.6492767"><ele>21.857142857142858</ele><time>2026-04-20T13:27:03.804Z</time></trkpt><trkpt lat="38.0212533" lon="15.6492217"><ele>21.714285714285715</ele><time>2026-04-20T13:27:04.802Z</time></trkpt><trkpt lat="38.02119" lon="15.649185"><ele>21.57142857142857</ele><time>2026-04-20T13:27:05.803Z</time></trkpt><trkpt lat="38.021125" lon="15.649165"><ele>21.42857142857143</ele><time>2026-04-20T13:27:06.805Z</time></trkpt><trkpt lat="38.02106" lon="15.6491533"><ele>21.285714285714285</ele><time>2026-04-20T13:27:07.804Z</time></trkpt><trkpt lat="38.0209883" lon="15.6491317"><ele>21.142857142857142</ele><time>2026-04-20T13:27:08.804Z</time></trkpt><trkpt lat="38.020915" lon="15.649075"><ele>21.0</ele><time>2026-04-20T13:27:09.803Z</time></trkpt><trkpt lat="38.02084" lon="15.6489917"><ele>21.666666666666668</ele><time>2026-04-20T13:27:10.802Z</time></trkpt><trkpt lat="38.020755" lon="15.6488767"><ele>22.333333333333336</ele><time>2026-04-20T13:27:11.803Z</time></trkpt><trkpt lat="38.0206533" lon="15.64872"><ele>23.0</ele><time>2026-04-20T13:27:12.804Z</time></trkpt><trkpt lat="38.0205467" lon="15.6485533"><ele>21.666666666666668</ele><time>2026-04-20T13:27:13.802Z</time></trkpt><trkpt lat="38.0204467" lon="15.6483983"><ele>20.333333333333332</ele><time>2026-04-20T13:27:14.803Z</time></trkpt><trkpt lat="38.0203533" lon="15.6482517"><ele>19.0</ele><time>2026-04-20T13:27:15.803Z</time></trkpt><trkpt lat="38.0202617" lon="15.648105"><ele>19.0</ele><time>2026-04-20T13:27:16.805Z</time></trkpt><trkpt lat="38.020165" lon="15.6479583"><ele>19.0</ele><time>2026-04-20T13:27:17.802Z</time></trkpt><trkpt lat="38.020065" lon="15.64781"><ele>19.0</ele><time>2026-04-20T13:27:18.804Z</time></trkpt><trkpt lat="38.01997" lon="15.6476567"><ele>18.666666666666664</ele><time>2026-04-20T13:27:19.804Z</time></trkpt><trkpt lat="38.019875" lon="15.647505"><ele>18.333333333333332</ele><time>2026-04-20T13:27:20.806Z</time></trkpt><trkpt lat="38.01978" lon="15.6473533"><ele>18.0</ele><time>2026-04-20T13:27:21.803Z</time></trkpt><trkpt lat="38.0196867" lon="15.647205"><ele>18.0</ele><time>2026-04-20T13:27:22.805Z</time></trkpt><trkpt lat="38.0195867" lon="15.6470567"><ele>18.0</ele><time>2026-04-20T13:27:23.804Z</time></trkpt><trkpt lat="38.0194883" lon="15.6469033"><ele>18.0</ele><time>2026-04-20T13:27:24.807Z</time></trkpt><trkpt lat="38.0193867" lon="15.646745"><ele>17.666666666666668</ele><time>2026-04-20T13:27:25.805Z</time></trkpt><trkpt lat="38.0192867" lon="15.6465817"><ele>17.333333333333336</ele><time>2026-04-20T13:27:26.804Z</time></trkpt><trkpt lat="38.019185" lon="15.646425"><ele>17.0</ele><time>2026-04-20T13:27:27.804Z</time></trkpt><trkpt lat="38.019085" lon="15.646275"><ele>18.0</ele><time>2026-04-20T13:27:28.804Z</time></trkpt><trkpt lat="38.0189983" lon="15.64612"><ele>19.0</ele><time>2026-04-20T13:27:29.802Z</time></trkpt><trkpt lat="38.0189183" lon="15.6459683"><ele>20.0</ele><time>2026-04-20T13:27:30.803Z</time></trkpt><trkpt lat="38.0188333" lon="15.6458233"><ele>21.0</ele><time>2026-04-20T13:27:31.803Z</time></trkpt><trkpt lat="38.0187417" lon="15.6456783"><ele>21.0</ele><time>2026-04-20T13:27:32.804Z</time></trkpt><trkpt lat="38.0186767" lon="15.6455067"><ele>21.0</ele><time>2026-04-20T13:27:33.803Z</time></trkpt><trkpt lat="38.0186133" lon="15.645335"><ele>21.0</ele><time>2026-04-20T13:27:34.803Z</time></trkpt><trkpt lat="38.0185433" lon="15.6451617"><ele>21.333333333333332</ele><time>2026-04-20T13:27:35.803Z</time></trkpt><trkpt lat="38.01848" lon="15.6449833"><ele>21.666666666666664</ele><time>2026-04-20T13:27:36.804Z</time></trkpt><trkpt lat="38.0184183" lon="15.6448083"><ele>22.0</ele><time>2026-04-20T13:27:37.803Z</time></trkpt><trkpt lat="38.0183533" lon="15.6446333"><ele>21.75</ele><time>2026-04-20T13:27:38.804Z</time></trkpt><trkpt lat="38.01829" lon="15.644465"><ele>21.5</ele><time>2026-04-20T13:27:39.804Z</time></trkpt><trkpt lat="38.0182283" lon="15.6442917"><ele>21.25</ele><time>2026-04-20T13:27:40.804Z</time></trkpt><trkpt lat="38.0181633" lon="15.6441167"><ele>21.0</ele><time>2026-04-20T13:27:41.802Z</time></trkpt><trkpt lat="38.0180883" lon="15.6439383"><ele>21.0</ele><time>2026-04-20T13:27:42.803Z</time></trkpt><trkpt lat="38.0180183" lon="15.6437417"><ele>21.0</ele><time>2026-04-20T13:27:43.804Z</time></trkpt><trkpt lat="38.0179433" lon="15.643535"><ele>21.0</ele><time>2026-04-20T13:27:44.804Z</time></trkpt><trkpt lat="38.0178617" lon="15.6433233"><ele>19.0</ele><time>2026-04-20T13:27:45.803Z</time></trkpt><trkpt lat="38.017795" lon="15.6431"><ele>17.0</ele><time>2026-04-20T13:27:46.804Z</time></trkpt><trkpt lat="38.0177267" lon="15.64287"><ele>15.0</ele><time>2026-04-20T13:27:47.803Z</time></trkpt><trkpt lat="38.01765" lon="15.6426367"><ele>15.666666666666668</ele><time>2026-04-20T13:27:48.806Z</time></trkpt><trkpt lat="38.0175733" lon="15.642405"><ele>16.333333333333336</ele><time>2026-04-20T13:27:49.804Z</time></trkpt><trkpt lat="38.0174933" lon="15.6421783"><ele>17.0</ele><time>2026-04-20T13:27:50.804Z</time></trkpt><trkpt lat="38.0174167" lon="15.6419533"><ele>17.0</ele><time>2026-04-20T13:27:51.804Z</time></trkpt><trkpt lat="38.0173433" lon="15.6417217"><ele>17.0</ele><time>2026-04-20T13:27:52.805Z</time></trkpt><trkpt lat="38.01727" lon="15.6414917"><ele>17.0</ele><time>2026-04-20T13:27:53.806Z</time></trkpt><trkpt lat="38.0171817" lon="15.6412567"><ele>16.333333333333336</ele><time>2026-04-20T13:27:54.805Z</time></trkpt><trkpt lat="38.0170967" lon="15.6410217"><ele>15.666666666666668</ele><time>2026-04-20T13:27:55.804Z</time></trkpt><trkpt lat="38.017015" lon="15.6407817"><ele>15.0</ele><time>2026-04-20T13:27:56.805Z</time></trkpt><trkpt lat="38.0169333" lon="15.64054"><ele>13.0</ele><time>2026-04-20T13:27:57.804Z</time></trkpt><trkpt lat="38.0168467" lon="15.6402983"><ele>11.0</ele><time>2026-04-20T13:27:58.806Z</time></trkpt><trkpt lat="38.01676" lon="15.6400583"><ele>9.0</ele><time>2026-04-20T13:27:59.803Z</time></trkpt><trkpt lat="38.0166683" lon="15.6398217"><ele>12.0</ele><time>2026-04-20T13:28:00.804Z</time></trkpt><trkpt lat="38.0165683" lon="15.63959"><ele>15.0</ele><time>2026-04-20T13:28:01.804Z</time></trkpt><trkpt lat="38.0164533" lon="15.6393733"><ele>18.0</ele><time>2026-04-20T13:28:02.805Z</time></trkpt><trkpt lat="38.016325" lon="15.6391767"><ele>18.0</ele><time>2026-04-20T13:28:03.804Z</time></trkpt><trkpt lat="38.0161917" lon="15.6390033"><ele>18.0</ele><time>2026-04-20T13:28:04.803Z</time></trkpt><trkpt lat="38.01606" lon="15.6388483"><ele>18.0</ele><time>2026-04-20T13:28:05.802Z</time></trkpt><trkpt lat="38.0159267" lon="15.63872"><ele>17.75</ele><time>2026-04-20T13:28:06.802Z</time></trkpt><trkpt lat="38.0157933" lon="15.6386167"><ele>17.5</ele><time>2026-04-20T13:28:07.804Z</time></trkpt><trkpt lat="38.0156733" lon="15.63852"><ele>17.25</ele><time>2026-04-20T13:28:08.805Z</time></trkpt><trkpt lat="38.01557" lon="15.6384267"><ele>17.0</ele><time>2026-04-20T13:28:09.804Z</time></trkpt><trkpt lat="38.0154783" lon="15.6383383"><ele>17.0</ele><time>2026-04-20T13:28:10.803Z</time></trkpt><trkpt lat="38.0154" lon="15.6382417"><ele>17.0</ele><time>2026-04-20T13:28:11.804Z</time></trkpt><trkpt lat="38.015345" lon="15.6381217"><ele>17.0</ele><time>2026-04-20T13:28:12.803Z</time></trkpt><trkpt lat="38.0152767" lon="15.6380533"><ele>17.0</ele><time>2026-04-20T13:28:13.803Z</time></trkpt><trkpt lat="38.0152017" lon="15.6380283"><ele>17.0</ele><time>2026-04-20T13:28:14.803Z</time></trkpt><trkpt lat="38.01512" lon="15.6380567"><ele>17.0</ele><time>2026-04-20T13:28:15.803Z</time></trkpt><trkpt lat="38.015045" lon="15.6381267"><ele>17.0</ele><time>2026-04-20T13:28:16.803Z</time></trkpt><trkpt lat="38.0149617" lon="15.63819"><ele>17.0</ele><time>2026-04-20T13:28:17.803Z</time></trkpt><trkpt lat="38.0148533" lon="15.6382167"><ele>17.0</ele><time>2026-04-20T13:28:18.803Z</time></trkpt><trkpt lat="38.0147367" lon="15.6382633"><ele>17.0</ele><time>2026-04-20T13:28:19.804Z</time></trkpt><trkpt lat="38.0146067" lon="15.6382967"><ele>16.75</ele><time>2026-04-20T13:28:20.808Z</time></trkpt><trkpt lat="38.0144667" lon="15.6383283"><ele>16.5</ele><time>2026-04-20T13:28:21.805Z</time></trkpt><trkpt lat="38.01432" lon="15.6383617"><ele>16.25</ele><time>2026-04-20T13:28:22.803Z</time></trkpt><trkpt lat="38.0141683" lon="15.638405"><ele>16.0</ele><time>2026-04-20T13:28:23.805Z</time></trkpt><trkpt lat="38.0140067" lon="15.6384483"><ele>16.0</ele><time>2026-04-20T13:28:24.803Z</time></trkpt><trkpt lat="38.0138467" lon="15.6384983"><ele>16.0</ele><time>2026-04-20T13:28:25.803Z</time></trkpt><trkpt lat="38.0136817" lon="15.63855"><ele>16.0</ele><time>2026-04-20T13:28:26.803Z</time></trkpt><trkpt lat="38.0135167" lon="15.6386067"><ele>16.0</ele><time>2026-04-20T13:28:27.803Z</time></trkpt><trkpt lat="38.013345" lon="15.638665"><ele>16.0</ele><time>2026-04-20T13:28:28.804Z</time></trkpt><trkpt lat="38.0131683" lon="15.6387233"><ele>16.0</ele><time>2026-04-20T13:28:29.804Z</time></trkpt><trkpt lat="38.0129883" lon="15.6387883"><ele>16.0</ele><time>2026-04-20T13:28:30.804Z</time></trkpt><trkpt lat="38.012805" lon="15.638855"><ele>16.0</ele><time>2026-04-20T13:28:31.804Z</time></trkpt><trkpt lat="38.012615" lon="15.6389217"><ele>16.0</ele><time>2026-04-20T13:28:32.806Z</time></trkpt><trkpt lat="38.01242" lon="15.6389867"><ele>16.666666666666664</ele><time>2026-04-20T13:28:33.806Z</time></trkpt><trkpt lat="38.0122217" lon="15.6390533"><ele>17.333333333333332</ele><time>2026-04-20T13:28:34.804Z</time></trkpt><trkpt lat="38.0120267" lon="15.6391183"><ele>18.0</ele><time>2026-04-20T13:28:35.804Z</time></trkpt><trkpt lat="38.0118317" lon="15.6391833"><ele>18.333333333333332</ele><time>2026-04-20T13:28:36.803Z</time></trkpt><trkpt lat="38.0116333" lon="15.639245"><ele>18.666666666666664</ele><time>2026-04-20T13:28:37.804Z</time></trkpt><trkpt lat="38.0114383" lon="15.6393133"><ele>19.0</ele><time>2026-04-20T13:28:38.805Z</time></trkpt><trkpt lat="38.0112433" lon="15.639385"><ele>19.0</ele><time>2026-04-20T13:28:39.804Z</time></trkpt><trkpt lat="38.0110467" lon="15.6394517"><ele>19.0</ele><time>2026-04-20T13:28:40.804Z</time></trkpt><trkpt lat="38.0108483" lon="15.6395183"><ele>19.0</ele><time>2026-04-20T13:28:41.804Z</time></trkpt><trkpt lat="38.0106483" lon="15.6395867"><ele>22.0</ele><time>2026-04-20T13:28:42.804Z</time></trkpt><trkpt lat="38.0104483" lon="15.6396617"><ele>25.0</ele><time>2026-04-20T13:28:43.803Z</time></trkpt><trkpt lat="38.0102467" lon="15.6397317"><ele>28.0</ele><time>2026-04-20T13:28:44.804Z</time></trkpt><trkpt lat="38.0100417" lon="15.6397983"><ele>26.666666666666668</ele><time>2026-04-20T13:28:45.804Z</time></trkpt><trkpt lat="38.009835" lon="15.6398667"><ele>25.333333333333336</ele><time>2026-04-20T13:28:46.805Z</time></trkpt><trkpt lat="38.0096267" lon="15.6399367"><ele>24.0</ele><time>2026-04-20T13:28:47.804Z</time></trkpt><trkpt lat="38.00942" lon="15.6400117"><ele>24.0</ele><time>2026-04-20T13:28:48.804Z</time></trkpt><trkpt lat="38.00921" lon="15.6400867"><ele>24.0</ele><time>2026-04-20T13:28:49.804Z</time></trkpt><trkpt lat="38.009" lon="15.6401567"><ele>24.0</ele><time>2026-04-20T13:28:50.804Z</time></trkpt><trkpt lat="38.0087917" lon="15.6402317"><ele>24.0</ele><time>2026-04-20T13:28:51.803Z</time></trkpt><trkpt lat="38.00858" lon="15.640305"><ele>24.0</ele><time>2026-04-20T13:28:52.804Z</time></trkpt><trkpt lat="38.0083683" lon="15.64038"><ele>24.0</ele><time>2026-04-20T13:28:53.804Z</time></trkpt><trkpt lat="38.008155" lon="15.6404517"><ele>24.0</ele><time>2026-04-20T13:28:54.805Z</time></trkpt><trkpt lat="38.007945" lon="15.64052"><ele>24.0</ele><time>2026-04-20T13:28:55.803Z</time></trkpt><trkpt lat="38.007735" lon="15.6405867"><ele>24.0</ele><time>2026-04-20T13:28:56.804Z</time></trkpt><trkpt lat="38.00753" lon="15.6406567"><ele>23.0</ele><time>2026-04-20T13:28:57.805Z</time></trkpt><trkpt lat="38.007325" lon="15.6407333"><ele>22.0</ele><time>2026-04-20T13:28:58.804Z</time></trkpt><trkpt lat="38.0071183" lon="15.640805"><ele>21.0</ele><time>2026-04-20T13:28:59.805Z</time></trkpt><trkpt lat="38.0069117" lon="15.640875"><ele>21.0</ele><time>2026-04-20T13:29:00.805Z</time></trkpt><trkpt lat="38.006705" lon="15.6409417"><ele>21.0</ele><time>2026-04-20T13:29:01.804Z</time></trkpt><trkpt lat="38.0065" lon="15.6410133"><ele>21.0</ele><time>2026-04-20T13:29:02.805Z</time></trkpt><trkpt lat="38.006295" lon="15.6410867"><ele>22.666666666666664</ele><time>2026-04-20T13:29:03.804Z</time></trkpt><trkpt lat="38.0060883" lon="15.6411567"><ele>24.333333333333332</ele><time>2026-04-20T13:29:04.803Z</time></trkpt><trkpt lat="38.0058833" lon="15.6412317"><ele>26.0</ele><time>2026-04-20T13:29:05.807Z</time></trkpt><trkpt lat="38.005675" lon="15.6413033"><ele>26.0</ele><time>2026-04-20T13:29:06.803Z</time></trkpt><trkpt lat="38.005465" lon="15.641375"><ele>26.0</ele><time>2026-04-20T13:29:07.804Z</time></trkpt><trkpt lat="38.0052567" lon="15.6414483"><ele>26.0</ele><time>2026-04-20T13:29:08.804Z</time></trkpt><trkpt lat="38.0050483" lon="15.6415183"><ele>26.0</ele><time>2026-04-20T13:29:09.804Z</time></trkpt><trkpt lat="38.0048383" lon="15.6415883"><ele>26.0</ele><time>2026-04-20T13:29:10.805Z</time></trkpt><trkpt lat="38.0046317" lon="15.64166"><ele>26.0</ele><time>2026-04-20T13:29:11.803Z</time></trkpt><trkpt lat="38.0044217" lon="15.6417333"><ele>26.0</ele><time>2026-04-20T13:29:12.806Z</time></trkpt><trkpt lat="38.0042117" lon="15.6418033"><ele>26.0</ele><time>2026-04-20T13:29:13.803Z</time></trkpt><trkpt lat="38.0039983" lon="15.6418717"><ele>26.0</ele><time>2026-04-20T13:29:14.804Z</time></trkpt><trkpt lat="38.0037883" lon="15.64194"><ele>25.333333333333332</ele><time>2026-04-20T13:29:15.803Z</time></trkpt><trkpt lat="38.00358" lon="15.6420133"><ele>24.666666666666664</ele><time>2026-04-20T13:29:16.803Z</time></trkpt><trkpt lat="38.00337" lon="15.6420833"><ele>24.0</ele><time>2026-04-20T13:29:17.805Z</time></trkpt><trkpt lat="38.0031617" lon="15.64216"><ele>24.0</ele><time>2026-04-20T13:29:18.804Z</time></trkpt><trkpt lat="38.0029533" lon="15.64223"><ele>24.0</ele><time>2026-04-20T13:29:19.803Z</time></trkpt><trkpt lat="38.002745" lon="15.6423033"><ele>24.0</ele><time>2026-04-20T13:29:20.804Z</time></trkpt><trkpt lat="38.002535" lon="15.6423767"><ele>22.666666666666668</ele><time>2026-04-20T13:29:21.802Z</time></trkpt><trkpt lat="38.002325" lon="15.6424517"><ele>21.333333333333336</ele><time>2026-04-20T13:29:22.803Z</time></trkpt><trkpt lat="38.002115" lon="15.6425233"><ele>20.0</ele><time>2026-04-20T13:29:23.804Z</time></trkpt><trkpt lat="38.0019033" lon="15.6425883"><ele>20.0</ele><time>2026-04-20T13:29:24.804Z</time></trkpt><trkpt lat="38.0016933" lon="15.6426533"><ele>20.0</ele><time>2026-04-20T13:29:25.804Z</time></trkpt><trkpt lat="38.001485" lon="15.6427267"><ele>20.0</ele><time>2026-04-20T13:29:26.806Z</time></trkpt><trkpt lat="38.0012783" lon="15.6427983"><ele>20.333333333333336</ele><time>2026-04-20T13:29:27.804Z</time></trkpt><trkpt lat="38.00107" lon="15.6428617"><ele>20.666666666666668</ele><time>2026-04-20T13:29:28.804Z</time></trkpt><trkpt lat="38.0008617" lon="15.6429333"><ele>21.0</ele><time>2026-04-20T13:29:29.805Z</time></trkpt><trkpt lat="38.0006567" lon="15.6430083"><ele>20.333333333333332</ele><time>2026-04-20T13:29:30.805Z</time></trkpt><trkpt lat="38.0004467" lon="15.643075"><ele>19.666666666666664</ele><time>2026-04-20T13:29:31.805Z</time></trkpt><trkpt lat="38.0002367" lon="15.6431433"><ele>19.0</ele><time>2026-04-20T13:29:32.805Z</time></trkpt><trkpt lat="38.0000317" lon="15.643225"><ele>19.0</ele><time>2026-04-20T13:29:33.804Z</time></trkpt><trkpt lat="37.9998267" lon="15.6433117"><ele>19.0</ele><time>2026-04-20T13:29:34.804Z</time></trkpt><trkpt lat="37.9996283" lon="15.6434133"><ele>19.0</ele><time>2026-04-20T13:29:35.805Z</time></trkpt><trkpt lat="37.9994317" lon="15.6435183"><ele>19.0</ele><time>2026-04-20T13:29:36.804Z</time></trkpt><trkpt lat="37.9992367" lon="15.64363"><ele>19.0</ele><time>2026-04-20T13:29:37.803Z</time></trkpt><trkpt lat="37.9990383" lon="15.6437433"><ele>19.0</ele><time>2026-04-20T13:29:38.807Z</time></trkpt><trkpt lat="37.9988467" lon="15.6438667"><ele>18.0</ele><time>2026-04-20T13:29:39.804Z</time></trkpt><trkpt lat="37.9986617" lon="15.6440083"><ele>17.0</ele><time>2026-04-20T13:29:40.804Z</time></trkpt><trkpt lat="37.9984717" lon="15.6441367"><ele>16.0</ele><time>2026-04-20T13:29:41.803Z</time></trkpt><trkpt lat="37.998285" lon="15.6442683"><ele>16.0</ele><time>2026-04-20T13:29:42.804Z</time></trkpt><trkpt lat="37.9980983" lon="15.644405"><ele>16.0</ele><time>2026-04-20T13:29:43.805Z</time></trkpt><trkpt lat="37.99791" lon="15.644535"><ele>16.0</ele><time>2026-04-20T13:29:44.804Z</time></trkpt><trkpt lat="37.9977167" lon="15.6446583"><ele>17.0</ele><time>2026-04-20T13:29:45.804Z</time></trkpt><trkpt lat="37.99753" lon="15.6447917"><ele>18.0</ele><time>2026-04-20T13:29:46.804Z</time></trkpt><trkpt lat="37.997345" lon="15.6449283"><ele>19.0</ele><time>2026-04-20T13:29:47.804Z</time></trkpt><trkpt lat="37.99716" lon="15.6450717"><ele>19.0</ele><time>2026-04-20T13:29:48.804Z</time></trkpt><trkpt lat="37.99697" lon="15.6452017"><ele>19.0</ele><time>2026-04-20T13:29:49.804Z</time></trkpt><trkpt lat="37.9967783" lon="15.64533"><ele>19.0</ele><time>2026-04-20T13:29:50.804Z</time></trkpt><trkpt lat="37.9965833" lon="15.6454517"><ele>19.0</ele><time>2026-04-20T13:29:51.804Z</time></trkpt><trkpt lat="37.99639" lon="15.64558"><ele>19.0</ele><time>2026-04-20T13:29:52.804Z</time></trkpt><trkpt lat="37.9962" lon="15.6457167"><ele>19.0</ele><time>2026-04-20T13:29:53.803Z</time></trkpt><trkpt lat="37.9960117" lon="15.64585"><ele>19.333333333333332</ele><time>2026-04-20T13:29:54.804Z</time></trkpt><trkpt lat="37.99582" lon="15.645975"><ele>19.666666666666668</ele><time>2026-04-20T13:29:55.803Z</time></trkpt><trkpt lat="37.9956333" lon="15.646105"><ele>20.0</ele><time>2026-04-20T13:29:56.805Z</time></trkpt><trkpt lat="37.9954483" lon="15.6462367"><ele>20.0</ele><time>2026-04-20T13:29:57.804Z</time></trkpt><trkpt lat="37.99526" lon="15.6463683"><ele>20.0</ele><time>2026-04-20T13:29:58.805Z</time></trkpt><trkpt lat="37.9950733" lon="15.6465"><ele>20.0</ele><time>2026-04-20T13:29:59.805Z</time></trkpt><trkpt lat="37.9948833" lon="15.64663"><ele>19.0</ele><time>2026-04-20T13:30:00.804Z</time></trkpt><trkpt lat="37.9946967" lon="15.6467583"><ele>18.0</ele><time>2026-04-20T13:30:01.804Z</time></trkpt><trkpt lat="37.9945083" lon="15.64689"><ele>17.0</ele><time>2026-04-20T13:30:02.805Z</time></trkpt><trkpt lat="37.9943217" lon="15.6470267"><ele>18.666666666666668</ele><time>2026-04-20T13:30:03.803Z</time></trkpt><trkpt lat="37.994135" lon="15.6471617"><ele>20.333333333333332</ele><time>2026-04-20T13:30:04.805Z</time></trkpt><trkpt lat="37.993945" lon="15.6472917"><ele>22.0</ele><time>2026-04-20T13:30:05.804Z</time></trkpt><trkpt lat="37.9937567" lon="15.6474233"><ele>22.0</ele><time>2026-04-20T13:30:06.804Z</time></trkpt><trkpt lat="37.993565" lon="15.6475467"><ele>22.0</ele><time>2026-04-20T13:30:07.804Z</time></trkpt><trkpt lat="37.9933767" lon="15.6476783"><ele>22.0</ele><time>2026-04-20T13:30:08.806Z</time></trkpt><trkpt lat="37.9931883" lon="15.64781"><ele>23.666666666666664</ele><time>2026-04-20T13:30:09.804Z</time></trkpt><trkpt lat="37.9929983" lon="15.6479417"><ele>25.333333333333332</ele><time>2026-04-20T13:30:10.807Z</time></trkpt><trkpt lat="37.9928067" lon="15.6480733"><ele>27.0</ele><time>2026-04-20T13:30:11.805Z</time></trkpt><trkpt lat="37.992615" lon="15.6482017"><ele>26.0</ele><time>2026-04-20T13:30:12.804Z</time></trkpt><trkpt lat="37.9924233" lon="15.6483283"><ele>25.0</ele><time>2026-04-20T13:30:13.803Z</time></trkpt><trkpt lat="37.9922333" lon="15.6484617"><ele>24.0</ele><time>2026-04-20T13:30:14.813Z</time></trkpt><trkpt lat="37.992045" lon="15.648595"><ele>24.666666666666664</ele><time>2026-04-20T13:30:15.805Z</time></trkpt><trkpt lat="37.9918567" lon="15.64873"><ele>25.333333333333332</ele><time>2026-04-20T13:30:16.805Z</time></trkpt><trkpt lat="37.99167" lon="15.6488633"><ele>26.0</ele><time>2026-04-20T13:30:17.804Z</time></trkpt><trkpt lat="37.9914833" lon="15.648995"><ele>26.0</ele><time>2026-04-20T13:30:18.805Z</time></trkpt><trkpt lat="37.9912967" lon="15.6491267"><ele>26.0</ele><time>2026-04-20T13:30:19.803Z</time></trkpt><trkpt lat="37.9911083" lon="15.6492583"><ele>26.0</ele><time>2026-04-20T13:30:20.805Z</time></trkpt><trkpt lat="37.9909217" lon="15.64939"><ele>26.0</ele><time>2026-04-20T13:30:21.804Z</time></trkpt><trkpt lat="37.9907283" lon="15.6495167"><ele>26.0</ele><time>2026-04-20T13:30:22.804Z</time></trkpt><trkpt lat="37.9905383" lon="15.6496433"><ele>26.0</ele><time>2026-04-20T13:30:23.804Z</time></trkpt><trkpt lat="37.9903467" lon="15.6497683"><ele>26.0</ele><time>2026-04-20T13:30:24.805Z</time></trkpt><trkpt lat="37.990155" lon="15.649895"><ele>26.0</ele><time>2026-04-20T13:30:25.803Z</time></trkpt><trkpt lat="37.9899683" lon="15.6500267"><ele>26.0</ele><time>2026-04-20T13:30:26.805Z</time></trkpt><trkpt lat="37.9897767" lon="15.6501567"><ele>24.666666666666664</ele><time>2026-04-20T13:30:27.804Z</time></trkpt><trkpt lat="37.9895883" lon="15.6502883"><ele>23.333333333333332</ele><time>2026-04-20T13:30:28.805Z</time></trkpt><trkpt lat="37.9893983" lon="15.6504183"><ele>22.0</ele><time>2026-04-20T13:30:29.804Z</time></trkpt><trkpt lat="37.98921" lon="15.6505483"><ele>20.333333333333332</ele><time>2026-04-20T13:30:30.803Z</time></trkpt><trkpt lat="37.98902" lon="15.6506783"><ele>18.666666666666668</ele><time>2026-04-20T13:30:31.804Z</time></trkpt><trkpt lat="37.98883" lon="15.6508083"><ele>17.0</ele><time>2026-04-20T13:30:32.806Z</time></trkpt><trkpt lat="37.9886433" lon="15.6509367"><ele>17.0</ele><time>2026-04-20T13:30:33.805Z</time></trkpt><trkpt lat="37.9884617" lon="15.6510667"><ele>17.0</ele><time>2026-04-20T13:30:34.804Z</time></trkpt><trkpt lat="37.98828" lon="15.651195"><ele>17.0</ele><time>2026-04-20T13:30:35.804Z</time></trkpt><trkpt lat="37.9880967" lon="15.6513217"><ele>18.0</ele><time>2026-04-20T13:30:36.805Z</time></trkpt><trkpt lat="37.9879133" lon="15.6514483"><ele>19.0</ele><time>2026-04-20T13:30:37.804Z</time></trkpt><trkpt lat="37.9877333" lon="15.6515733"><ele>20.0</ele><time>2026-04-20T13:30:38.806Z</time></trkpt><trkpt lat="37.9875533" lon="15.6516967"><ele>19.333333333333336</ele><time>2026-04-20T13:30:39.804Z</time></trkpt><trkpt lat="37.9873733" lon="15.6518167"><ele>18.666666666666668</ele><time>2026-04-20T13:30:40.806Z</time></trkpt><trkpt lat="37.9871967" lon="15.6519417"><ele>18.0</ele><time>2026-04-20T13:30:41.803Z</time></trkpt><trkpt lat="37.98702" lon="15.6520667"><ele>18.0</ele><time>2026-04-20T13:30:42.805Z</time></trkpt><trkpt lat="37.98684" lon="15.6521883"><ele>18.0</ele><time>2026-04-20T13:30:43.804Z</time></trkpt><trkpt lat="37.986665" lon="15.6523217"><ele>18.0</ele><time>2026-04-20T13:30:44.803Z</time></trkpt><trkpt lat="37.986495" lon="15.652465"><ele>18.666666666666668</ele><time>2026-04-20T13:30:45.804Z</time></trkpt><trkpt lat="37.9863267" lon="15.6526133"><ele>19.333333333333336</ele><time>2026-04-20T13:30:46.806Z</time></trkpt><trkpt lat="37.98616" lon="15.652765"><ele>20.0</ele><time>2026-04-20T13:30:47.804Z</time></trkpt><trkpt lat="37.985995" lon="15.6529183"><ele>18.0</ele><time>2026-04-20T13:30:48.804Z</time></trkpt><trkpt lat="37.9858333" lon="15.6530767"><ele>16.0</ele><time>2026-04-20T13:30:49.804Z</time></trkpt><trkpt lat="37.9856667" lon="15.6532333"><ele>14.0</ele><time>2026-04-20T13:30:50.803Z</time></trkpt><trkpt lat="37.9855033" lon="15.65339"><ele>14.0</ele><time>2026-04-20T13:30:51.806Z</time></trkpt><trkpt lat="37.9853417" lon="15.6535517"><ele>14.0</ele><time>2026-04-20T13:30:52.804Z</time></trkpt><trkpt lat="37.9851767" lon="15.6537117"><ele>14.0</ele><time>2026-04-20T13:30:53.804Z</time></trkpt><trkpt lat="37.9850117" lon="15.6538683"><ele>14.0</ele><time>2026-04-20T13:30:54.804Z</time></trkpt><trkpt lat="37.98484" lon="15.6540167"><ele>14.0</ele><time>2026-04-20T13:30:55.804Z</time></trkpt><trkpt lat="37.9846533" lon="15.6541367"><ele>14.0</ele><time>2026-04-20T13:30:56.808Z</time></trkpt><trkpt lat="37.9844717" lon="15.6542583"><ele>14.0</ele><time>2026-04-20T13:30:57.803Z</time></trkpt><trkpt lat="37.9842933" lon="15.6543783"><ele>14.0</ele><time>2026-04-20T13:30:58.806Z</time></trkpt><trkpt lat="37.98411" lon="15.6544983"><ele>14.0</ele><time>2026-04-20T13:30:59.804Z</time></trkpt><trkpt lat="37.98393" lon="15.654615"><ele>15.0</ele><time>2026-04-20T13:31:00.804Z</time></trkpt><trkpt lat="37.983755" lon="15.65473"><ele>16.0</ele><time>2026-04-20T13:31:01.804Z</time></trkpt><trkpt lat="37.9835933" lon="15.6548467"><ele>17.0</ele><time>2026-04-20T13:31:02.805Z</time></trkpt><trkpt lat="37.9834483" lon="15.6549667"><ele>16.666666666666668</ele><time>2026-04-20T13:31:03.804Z</time></trkpt><trkpt lat="37.98331" lon="15.6550867"><ele>16.333333333333332</ele><time>2026-04-20T13:31:04.804Z</time></trkpt><trkpt lat="37.9831833" lon="15.6552067"><ele>16.0</ele><time>2026-04-20T13:31:05.803Z</time></trkpt><trkpt lat="37.98307" lon="15.6553267"><ele>16.0</ele><time>2026-04-20T13:31:06.805Z</time></trkpt><trkpt lat="37.982965" lon="15.655435"><ele>16.0</ele><time>2026-04-20T13:31:07.805Z</time></trkpt><trkpt lat="37.98287" lon="15.6555367"><ele>16.0</ele><time>2026-04-20T13:31:08.805Z</time></trkpt><trkpt lat="37.982775" lon="15.65563"><ele>16.0</ele><time>2026-04-20T13:31:09.807Z</time></trkpt><trkpt lat="37.9826833" lon="15.6557183"><ele>16.0</ele><time>2026-04-20T13:31:10.804Z</time></trkpt><trkpt lat="37.9825967" lon="15.6558083"><ele>16.0</ele><time>2026-04-20T13:31:11.804Z</time></trkpt><trkpt lat="37.9825133" lon="15.6558933"><ele>16.0</ele><time>2026-04-20T13:31:12.804Z</time></trkpt><trkpt lat="37.9824333" lon="15.6559717"><ele>16.0</ele><time>2026-04-20T13:31:13.804Z</time></trkpt><trkpt lat="37.9823533" lon="15.65603"><ele>16.0</ele><time>2026-04-20T13:31:14.806Z</time></trkpt><trkpt lat="37.9822667" lon="15.6560617"><ele>16.0</ele><time>2026-04-20T13:31:15.804Z</time></trkpt><trkpt lat="37.98219" lon="15.6561083"><ele>16.0</ele><time>2026-04-20T13:31:16.807Z</time></trkpt><trkpt lat="37.9821333" lon="15.6561967"><ele>16.0</ele><time>2026-04-20T13:31:17.803Z</time></trkpt><trkpt lat="37.9820733" lon="15.6563067"><ele>16.0</ele><time>2026-04-20T13:31:18.804Z</time></trkpt><trkpt lat="37.982" lon="15.656425"><ele>16.0</ele><time>2026-04-20T13:31:19.803Z</time></trkpt><trkpt lat="37.98191" lon="15.6565483"><ele>16.0</ele><time>2026-04-20T13:31:20.804Z</time></trkpt><trkpt lat="37.9818" lon="15.65667"><ele>16.0</ele><time>2026-04-20T13:31:21.804Z</time></trkpt><trkpt lat="37.9816783" lon="15.6567883"><ele>16.0</ele><time>2026-04-20T13:31:22.804Z</time></trkpt><trkpt lat="37.9815533" lon="15.6569117"><ele>15.666666666666666</ele><time>2026-04-20T13:31:23.804Z</time></trkpt><trkpt lat="37.9814283" lon="15.6570433"><ele>15.333333333333332</ele><time>2026-04-20T13:31:24.806Z</time></trkpt><trkpt lat="37.9812967" lon="15.6571783"><ele>15.0</ele><time>2026-04-20T13:31:25.804Z</time></trkpt><trkpt lat="37.9811633" lon="15.6573183"><ele>15.0</ele><time>2026-04-20T13:31:26.804Z</time></trkpt><trkpt lat="37.981025" lon="15.6574633"><ele>15.0</ele><time>2026-04-20T13:31:27.804Z</time></trkpt><trkpt lat="37.980885" lon="15.6576083"><ele>15.0</ele><time>2026-04-20T13:31:28.806Z</time></trkpt><trkpt lat="37.9807383" lon="15.6577533"><ele>14.666666666666668</ele><time>2026-04-20T13:31:29.805Z</time></trkpt><trkpt lat="37.9805967" lon="15.6579117"><ele>14.333333333333334</ele><time>2026-04-20T13:31:30.806Z</time></trkpt><trkpt lat="37.980455" lon="15.6580783"><ele>14.0</ele><time>2026-04-20T13:31:31.805Z</time></trkpt><trkpt lat="37.9803233" lon="15.6582583"><ele>14.0</ele><time>2026-04-20T13:31:32.805Z</time></trkpt><trkpt lat="37.980195" lon="15.6584467"><ele>14.0</ele><time>2026-04-20T13:31:33.803Z</time></trkpt><trkpt lat="37.98007" lon="15.65864"><ele>14.0</ele><time>2026-04-20T13:31:34.807Z</time></trkpt><trkpt lat="37.979945" lon="15.6588333"><ele>12.666666666666668</ele><time>2026-04-20T13:31:35.805Z</time></trkpt><trkpt lat="37.9798233" lon="15.6590283"><ele>11.333333333333334</ele><time>2026-04-20T13:31:36.805Z</time></trkpt><trkpt lat="37.979705" lon="15.6592267"><ele>10.0</ele><time>2026-04-20T13:31:37.805Z</time></trkpt><trkpt lat="37.9795833" lon="15.659425"><ele>10.666666666666668</ele><time>2026-04-20T13:31:38.806Z</time></trkpt><trkpt lat="37.9794567" lon="15.65961"><ele>11.333333333333334</ele><time>2026-04-20T13:31:39.805Z</time></trkpt><trkpt lat="37.9793167" lon="15.6597783"><ele>12.0</ele><time>2026-04-20T13:31:40.805Z</time></trkpt><trkpt lat="37.9791683" lon="15.6599317"><ele>12.333333333333332</ele><time>2026-04-20T13:31:41.806Z</time></trkpt><trkpt lat="37.9790183" lon="15.6600817"><ele>12.666666666666666</ele><time>2026-04-20T13:31:42.804Z</time></trkpt><trkpt lat="37.9788617" lon="15.66022"><ele>13.0</ele><time>2026-04-20T13:31:43.804Z</time></trkpt><trkpt lat="37.97869" lon="15.6603367"><ele>13.0</ele><time>2026-04-20T13:31:44.804Z</time></trkpt><trkpt lat="37.978515" lon="15.66045"><ele>13.0</ele><time>2026-04-20T13:31:45.804Z</time></trkpt><trkpt lat="37.97834" lon="15.660565"><ele>13.0</ele><time>2026-04-20T13:31:46.806Z</time></trkpt><trkpt lat="37.9781617" lon="15.6606783"><ele>13.0</ele><time>2026-04-20T13:31:47.805Z</time></trkpt><trkpt lat="37.9779917" lon="15.6607883"><ele>13.0</ele><time>2026-04-20T13:31:48.805Z</time></trkpt><trkpt lat="37.97783" lon="15.6608883"><ele>13.0</ele><time>2026-04-20T13:31:49.804Z</time></trkpt><trkpt lat="37.9776783" lon="15.6609867"><ele>13.0</ele><time>2026-04-20T13:31:50.805Z</time></trkpt><trkpt lat="37.97753" lon="15.66108"><ele>13.0</ele><time>2026-04-20T13:31:51.803Z</time></trkpt><trkpt lat="37.9773917" lon="15.6611717"><ele>13.0</ele><time>2026-04-20T13:31:52.805Z</time></trkpt><trkpt lat="37.97726" lon="15.6612583"><ele>13.25</ele><time>2026-04-20T13:31:53.807Z</time></trkpt><trkpt lat="37.9771317" lon="15.6613433"><ele>13.5</ele><time>2026-04-20T13:31:54.805Z</time></trkpt><trkpt lat="37.977005" lon="15.6614283"><ele>13.75</ele><time>2026-04-20T13:31:55.803Z</time></trkpt><trkpt lat="37.9768817" lon="15.66152"><ele>14.0</ele><time>2026-04-20T13:31:56.803Z</time></trkpt><trkpt lat="37.9767517" lon="15.661605"><ele>14.0</ele><time>2026-04-20T13:31:57.803Z</time></trkpt><trkpt lat="37.9766183" lon="15.661685"><ele>14.0</ele><time>2026-04-20T13:31:58.802Z</time></trkpt><trkpt lat="37.9764867" lon="15.661765"><ele>14.0</ele><time>2026-04-20T13:31:59.803Z</time></trkpt><trkpt lat="37.9763633" lon="15.6618467"><ele>14.0</ele><time>2026-04-20T13:32:00.805Z</time></trkpt><trkpt lat="37.9762433" lon="15.661925"><ele>14.25</ele><time>2026-04-20T13:32:01.804Z</time></trkpt><trkpt lat="37.9761333" lon="15.6620017"><ele>14.5</ele><time>2026-04-20T13:32:02.804Z</time></trkpt><trkpt lat="37.97602" lon="15.6620633"><ele>14.75</ele><time>2026-04-20T13:32:03.807Z</time></trkpt><trkpt lat="37.97591" lon="15.662125"><ele>15.0</ele><time>2026-04-20T13:32:04.805Z</time></trkpt><trkpt lat="37.9758067" lon="15.6621733"><ele>15.0</ele><time>2026-04-20T13:32:05.812Z</time></trkpt><trkpt lat="37.9757083" lon="15.6622067"><ele>15.0</ele><time>2026-04-20T13:32:06.804Z</time></trkpt><trkpt lat="37.9755267" lon="15.6622083"><ele>15.0</ele><time>2026-04-20T13:32:08.805Z</time></trkpt><trkpt lat="37.975445" lon="15.66216"><ele>15.0</ele><time>2026-04-20T13:32:09.804Z</time></trkpt><trkpt lat="37.97536" lon="15.6621317"><ele>15.0</ele><time>2026-04-20T13:32:10.804Z</time></trkpt><trkpt lat="37.9752717" lon="15.662125"><ele>15.0</ele><time>2026-04-20T13:32:11.804Z</time></trkpt><trkpt lat="37.975185" lon="15.6621633"><ele>15.0</ele><time>2026-04-20T13:32:12.803Z</time></trkpt><trkpt lat="37.9751117" lon="15.6622467"><ele>15.0</ele><time>2026-04-20T13:32:13.803Z</time></trkpt><trkpt lat="37.97503" lon="15.6623133"><ele>15.0</ele><time>2026-04-20T13:32:14.804Z</time></trkpt><trkpt lat="37.9748133" lon="15.6623817"><ele>15.0</ele><time>2026-04-20T13:32:16.803Z</time></trkpt><trkpt lat="37.9746933" lon="15.6623933"><ele>15.0</ele><time>2026-04-20T13:32:17.803Z</time></trkpt><trkpt lat="37.97457" lon="15.66241"><ele>15.0</ele><time>2026-04-20T13:32:18.803Z</time></trkpt><trkpt lat="37.9744483" lon="15.6624417"><ele>15.0</ele><time>2026-04-20T13:32:19.803Z</time></trkpt><trkpt lat="37.9743217" lon="15.6624683"><ele>15.0</ele><time>2026-04-20T13:32:20.805Z</time></trkpt><trkpt lat="37.97419" lon="15.6624967"><ele>15.0</ele><time>2026-04-20T13:32:21.807Z</time></trkpt><trkpt lat="37.9740583" lon="15.6625367"><ele>15.0</ele><time>2026-04-20T13:32:22.804Z</time></trkpt><trkpt lat="37.9739317" lon="15.6625917"><ele>15.0</ele><time>2026-04-20T13:32:23.804Z</time></trkpt><trkpt lat="37.9738017" lon="15.662655"><ele>14.75</ele><time>2026-04-20T13:32:24.804Z</time></trkpt><trkpt lat="37.9736767" lon="15.662725"><ele>14.5</ele><time>2026-04-20T13:32:25.804Z</time></trkpt><trkpt lat="37.9735567" lon="15.6628017"><ele>14.25</ele><time>2026-04-20T13:32:26.804Z</time></trkpt><trkpt lat="37.97344" lon="15.6628867"><ele>14.0</ele><time>2026-04-20T13:32:27.811Z</time></trkpt><trkpt lat="37.973325" lon="15.6629783"><ele>14.0</ele><time>2026-04-20T13:32:28.803Z</time></trkpt><trkpt lat="37.9732117" lon="15.6630783"><ele>14.0</ele><time>2026-04-20T13:32:29.803Z</time></trkpt><trkpt lat="37.9731017" lon="15.6631833"><ele>14.0</ele><time>2026-04-20T13:32:30.805Z</time></trkpt><trkpt lat="37.9729933" lon="15.6632967"><ele>14.0</ele><time>2026-04-20T13:32:31.804Z</time></trkpt><trkpt lat="37.9728833" lon="15.6634133"><ele>14.0</ele><time>2026-04-20T13:32:32.804Z</time></trkpt><trkpt lat="37.972775" lon="15.6635317"><ele>14.0</ele><time>2026-04-20T13:32:33.804Z</time></trkpt><trkpt lat="37.9726667" lon="15.6636533"><ele>14.0</ele><time>2026-04-20T13:32:34.802Z</time></trkpt><trkpt lat="37.97256" lon="15.6637733"><ele>14.0</ele><time>2026-04-20T13:32:35.803Z</time></trkpt><trkpt lat="37.9724517" lon="15.6638867"><ele>13.25</ele><time>2026-04-20T13:32:36.803Z</time></trkpt><trkpt lat="37.9723467" lon="15.664005"><ele>12.5</ele><time>2026-04-20T13:32:37.803Z</time></trkpt><trkpt lat="37.9722383" lon="15.6641283"><ele>11.75</ele><time>2026-04-20T13:32:38.804Z</time></trkpt><trkpt lat="37.9721267" lon="15.66425"><ele>11.0</ele><time>2026-04-20T13:32:39.803Z</time></trkpt><trkpt lat="37.9720167" lon="15.664375"><ele>12.0</ele><time>2026-04-20T13:32:40.804Z</time></trkpt><trkpt lat="37.9719" lon="15.6645"><ele>13.0</ele><time>2026-04-20T13:32:41.803Z</time></trkpt><trkpt lat="37.97179" lon="15.66463"><ele>14.0</ele><time>2026-04-20T13:32:42.803Z</time></trkpt><trkpt lat="37.971675" lon="15.6647567"><ele>14.0</ele><time>2026-04-20T13:32:43.803Z</time></trkpt><trkpt lat="37.9715567" lon="15.664885"><ele>14.0</ele><time>2026-04-20T13:32:44.803Z</time></trkpt><trkpt lat="37.9714383" lon="15.6650133"><ele>14.0</ele><time>2026-04-20T13:32:45.803Z</time></trkpt><trkpt lat="37.9713167" lon="15.6651467"><ele>15.666666666666668</ele><time>2026-04-20T13:32:46.804Z</time></trkpt><trkpt lat="37.971195" lon="15.665285"><ele>17.333333333333332</ele><time>2026-04-20T13:32:47.803Z</time></trkpt><trkpt lat="37.9710733" lon="15.6654233"><ele>19.0</ele><time>2026-04-20T13:32:48.804Z</time></trkpt><trkpt lat="37.9709517" lon="15.6655617"><ele>17.333333333333332</ele><time>2026-04-20T13:32:49.805Z</time></trkpt><trkpt lat="37.97083" lon="15.6657"><ele>15.666666666666668</ele><time>2026-04-20T13:32:50.804Z</time></trkpt><trkpt lat="37.9707067" lon="15.6658367"><ele>14.0</ele><time>2026-04-20T13:32:51.803Z</time></trkpt><trkpt lat="37.970585" lon="15.6659733"><ele>14.0</ele><time>2026-04-20T13:32:52.803Z</time></trkpt><trkpt lat="37.9704667" lon="15.6661067"><ele>14.0</ele><time>2026-04-20T13:32:53.804Z</time></trkpt><trkpt lat="37.9703483" lon="15.66624"><ele>14.0</ele><time>2026-04-20T13:32:54.803Z</time></trkpt><trkpt lat="37.9702317" lon="15.6663733"><ele>13.333333333333334</ele><time>2026-04-20T13:32:55.803Z</time></trkpt><trkpt lat="37.9701167" lon="15.6665067"><ele>12.666666666666668</ele><time>2026-04-20T13:32:56.805Z</time></trkpt><trkpt lat="37.9700033" lon="15.66664"><ele>12.0</ele><time>2026-04-20T13:32:57.805Z</time></trkpt><trkpt lat="37.96989" lon="15.6667717"><ele>12.0</ele><time>2026-04-20T13:32:58.802Z</time></trkpt><trkpt lat="37.9697767" lon="15.6669017"><ele>12.0</ele><time>2026-04-20T13:32:59.803Z</time></trkpt><trkpt lat="37.96966" lon="15.66703"><ele>12.0</ele><time>2026-04-20T13:33:00.802Z</time></trkpt><trkpt lat="37.9695467" lon="15.667165"><ele>13.0</ele><time>2026-04-20T13:33:01.802Z</time></trkpt><trkpt lat="37.9694333" lon="15.6673017"><ele>14.0</ele><time>2026-04-20T13:33:02.804Z</time></trkpt><trkpt lat="37.9693133" lon="15.6674333"><ele>15.0</ele><time>2026-04-20T13:33:03.803Z</time></trkpt><trkpt lat="37.969195" lon="15.6675633"><ele>14.333333333333332</ele><time>2026-04-20T13:33:04.803Z</time></trkpt><trkpt lat="37.96908" lon="15.667695"><ele>13.666666666666666</ele><time>2026-04-20T13:33:05.804Z</time></trkpt><trkpt lat="37.9689633" lon="15.667825"><ele>13.0</ele><time>2026-04-20T13:33:06.803Z</time></trkpt><trkpt lat="37.9688517" lon="15.66796"><ele>14.666666666666666</ele><time>2026-04-20T13:33:07.803Z</time></trkpt><trkpt lat="37.9687383" lon="15.668095"><ele>16.333333333333332</ele><time>2026-04-20T13:33:08.805Z</time></trkpt><trkpt lat="37.9686217" lon="15.6682283"><ele>18.0</ele><time>2026-04-20T13:33:09.803Z</time></trkpt><trkpt lat="37.9685067" lon="15.668365"><ele>18.0</ele><time>2026-04-20T13:33:10.806Z</time></trkpt><trkpt lat="37.9683917" lon="15.6684983"><ele>18.0</ele><time>2026-04-20T13:33:11.803Z</time></trkpt><trkpt lat="37.9682733" lon="15.6686267"><ele>18.0</ele><time>2026-04-20T13:33:12.803Z</time></trkpt><trkpt lat="37.968155" lon="15.6687517"><ele>18.0</ele><time>2026-04-20T13:33:13.805Z</time></trkpt><trkpt lat="37.9680367" lon="15.6688817"><ele>18.0</ele><time>2026-04-20T13:33:14.805Z</time></trkpt><trkpt lat="37.9679183" lon="15.669005"><ele>18.0</ele><time>2026-04-20T13:33:15.802Z</time></trkpt><trkpt lat="37.9677983" lon="15.669125"><ele>18.0</ele><time>2026-04-20T13:33:16.804Z</time></trkpt><trkpt lat="37.9676767" lon="15.66924"><ele>18.0</ele><time>2026-04-20T13:33:17.802Z</time></trkpt><trkpt lat="37.9675517" lon="15.66935"><ele>18.0</ele><time>2026-04-20T13:33:18.805Z</time></trkpt><trkpt lat="37.9674233" lon="15.6694583"><ele>18.25</ele><time>2026-04-20T13:33:19.806Z</time></trkpt><trkpt lat="37.9672983" lon="15.669555"><ele>18.5</ele><time>2026-04-20T13:33:20.804Z</time></trkpt><trkpt lat="37.967175" lon="15.669645"><ele>18.75</ele><time>2026-04-20T13:33:21.805Z</time></trkpt><trkpt lat="37.96705" lon="15.6697333"><ele>19.0</ele><time>2026-04-20T13:33:22.804Z</time></trkpt><trkpt lat="37.96693" lon="15.66982"><ele>19.0</ele><time>2026-04-20T13:33:23.803Z</time></trkpt><trkpt lat="37.96681" lon="15.6699017"><ele>19.0</ele><time>2026-04-20T13:33:24.803Z</time></trkpt><trkpt lat="37.9666917" lon="15.6699833"><ele>19.0</ele><time>2026-04-20T13:33:25.803Z</time></trkpt><trkpt lat="37.966575" lon="15.6700617"><ele>19.0</ele><time>2026-04-20T13:33:26.809Z</time></trkpt><trkpt lat="37.9664617" lon="15.6701383"><ele>18.25</ele><time>2026-04-20T13:33:27.804Z</time></trkpt><trkpt lat="37.9663533" lon="15.6702183"><ele>17.5</ele><time>2026-04-20T13:33:28.805Z</time></trkpt><trkpt lat="37.966245" lon="15.6703"><ele>16.75</ele><time>2026-04-20T13:33:29.804Z</time></trkpt><trkpt lat="37.966135" lon="15.670375"><ele>16.0</ele><time>2026-04-20T13:33:30.804Z</time></trkpt><trkpt lat="37.9660217" lon="15.670455"><ele>16.0</ele><time>2026-04-20T13:33:31.804Z</time></trkpt><trkpt lat="37.9659083" lon="15.6705283"><ele>16.0</ele><time>2026-04-20T13:33:32.804Z</time></trkpt><trkpt lat="37.9657967" lon="15.6706083"><ele>16.0</ele><time>2026-04-20T13:33:33.803Z</time></trkpt><trkpt lat="37.9656833" lon="15.6706817"><ele>16.0</ele><time>2026-04-20T13:33:34.804Z</time></trkpt><trkpt lat="37.9655767" lon="15.6707617"><ele>15.0</ele><time>2026-04-20T13:33:35.803Z</time></trkpt><trkpt lat="37.9654683" lon="15.6708417"><ele>14.0</ele><time>2026-04-20T13:33:36.804Z</time></trkpt><trkpt lat="37.96536" lon="15.6709183"><ele>13.0</ele><time>2026-04-20T13:33:37.803Z</time></trkpt><trkpt lat="37.965255" lon="15.6709967"><ele>12.0</ele><time>2026-04-20T13:33:38.804Z</time></trkpt><trkpt lat="37.9651483" lon="15.6710733"><ele>12.75</ele><time>2026-04-20T13:33:39.804Z</time></trkpt><trkpt lat="37.96504" lon="15.6711483"><ele>13.5</ele><time>2026-04-20T13:33:40.804Z</time></trkpt><trkpt lat="37.9649267" lon="15.671225"><ele>14.25</ele><time>2026-04-20T13:33:41.803Z</time></trkpt><trkpt lat="37.9648133" lon="15.671305"><ele>15.0</ele><time>2026-04-20T13:33:42.804Z</time></trkpt><trkpt lat="37.9646983" lon="15.6713833"><ele>15.0</ele><time>2026-04-20T13:33:43.804Z</time></trkpt><trkpt lat="37.9645817" lon="15.6714633"><ele>15.0</ele><time>2026-04-20T13:33:44.805Z</time></trkpt><trkpt lat="37.964465" lon="15.671545"><ele>15.0</ele><time>2026-04-20T13:33:45.803Z</time></trkpt><trkpt lat="37.9643467" lon="15.67163"><ele>15.0</ele><time>2026-04-20T13:33:46.804Z</time></trkpt><trkpt lat="37.9642267" lon="15.671715"><ele>14.75</ele><time>2026-04-20T13:33:47.804Z</time></trkpt><trkpt lat="37.964105" lon="15.6718017"><ele>14.5</ele><time>2026-04-20T13:33:48.804Z</time></trkpt><trkpt lat="37.9639817" lon="15.6718833"><ele>14.25</ele><time>2026-04-20T13:33:49.803Z</time></trkpt><trkpt lat="37.9638567" lon="15.6719633"><ele>14.0</ele><time>2026-04-20T13:33:50.804Z</time></trkpt><trkpt lat="37.9637317" lon="15.6720433"><ele>14.0</ele><time>2026-04-20T13:33:51.802Z</time></trkpt><trkpt lat="37.963605" lon="15.6721233"><ele>14.0</ele><time>2026-04-20T13:33:52.803Z</time></trkpt><trkpt lat="37.9634783" lon="15.672205"><ele>14.0</ele><time>2026-04-20T13:33:53.804Z</time></trkpt><trkpt lat="37.96336" lon="15.6722933"><ele>14.0</ele><time>2026-04-20T13:33:54.803Z</time></trkpt><trkpt lat="37.9632383" lon="15.67238"><ele>13.75</ele><time>2026-04-20T13:33:55.803Z</time></trkpt><trkpt lat="37.9631117" lon="15.672465"><ele>13.5</ele><time>2026-04-20T13:33:56.804Z</time></trkpt><trkpt lat="37.9629867" lon="15.67255"><ele>13.25</ele><time>2026-04-20T13:33:57.803Z</time></trkpt><trkpt lat="37.9628617" lon="15.6726317"><ele>13.0</ele><time>2026-04-20T13:33:58.804Z</time></trkpt><trkpt lat="37.9627433" lon="15.6727133"><ele>13.5</ele><time>2026-04-20T13:33:59.804Z</time></trkpt><trkpt lat="37.962625" lon="15.6727933"><ele>14.0</ele><time>2026-04-20T13:34:00.805Z</time></trkpt><trkpt lat="37.9625017" lon="15.6728683"><ele>14.5</ele><time>2026-04-20T13:34:01.806Z</time></trkpt><trkpt lat="37.9623733" lon="15.6729367"><ele>15.0</ele><time>2026-04-20T13:34:02.805Z</time></trkpt><trkpt lat="37.9622483" lon="15.6730117"><ele>15.0</ele><time>2026-04-20T13:34:03.804Z</time></trkpt><trkpt lat="37.9621233" lon="15.6730883"><ele>15.0</ele><time>2026-04-20T13:34:04.804Z</time></trkpt><trkpt lat="37.9619983" lon="15.673165"><ele>15.0</ele><time>2026-04-20T13:34:05.804Z</time></trkpt><trkpt lat="37.9618717" lon="15.6732433"><ele>15.0</ele><time>2026-04-20T13:34:06.805Z</time></trkpt><trkpt lat="37.961745" lon="15.673325"><ele>15.0</ele><time>2026-04-20T13:34:07.804Z</time></trkpt><trkpt lat="37.9616167" lon="15.6734"><ele>15.0</ele><time>2026-04-20T13:34:08.805Z</time></trkpt><trkpt lat="37.9614883" lon="15.6734717"><ele>15.0</ele><time>2026-04-20T13:34:09.805Z</time></trkpt><trkpt lat="37.9613633" lon="15.6735433"><ele>15.0</ele><time>2026-04-20T13:34:10.804Z</time></trkpt><trkpt lat="37.9612383" lon="15.6736267"><ele>15.5</ele><time>2026-04-20T13:34:11.805Z</time></trkpt><trkpt lat="37.96111" lon="15.6737067"><ele>16.0</ele><time>2026-04-20T13:34:12.803Z</time></trkpt><trkpt lat="37.9609817" lon="15.6737833"><ele>16.5</ele><time>2026-04-20T13:34:13.803Z</time></trkpt><trkpt lat="37.96085" lon="15.6738567"><ele>17.0</ele><time>2026-04-20T13:34:14.804Z</time></trkpt><trkpt lat="37.9607183" lon="15.6739317"><ele>17.0</ele><time>2026-04-20T13:34:15.804Z</time></trkpt><trkpt lat="37.96059" lon="15.6740133"><ele>17.0</ele><time>2026-04-20T13:34:16.806Z</time></trkpt><trkpt lat="37.9604583" lon="15.6740933"><ele>17.0</ele><time>2026-04-20T13:34:17.804Z</time></trkpt><trkpt lat="37.96032" lon="15.6741683"><ele>17.0</ele><time>2026-04-20T13:34:18.802Z</time></trkpt><trkpt lat="37.9601867" lon="15.67425"><ele>17.0</ele><time>2026-04-20T13:34:19.803Z</time></trkpt><trkpt lat="37.9600483" lon="15.6743383"><ele>17.0</ele><time>2026-04-20T13:34:20.804Z</time></trkpt><trkpt lat="37.9599067" lon="15.67443"><ele>17.0</ele><time>2026-04-20T13:34:21.804Z</time></trkpt><trkpt lat="37.9597633" lon="15.6745317"><ele>18.333333333333336</ele><time>2026-04-20T13:34:22.805Z</time></trkpt><trkpt lat="37.959615" lon="15.6746233"><ele>19.666666666666668</ele><time>2026-04-20T13:34:23.803Z</time></trkpt><trkpt lat="37.9594683" lon="15.67473"><ele>21.0</ele><time>2026-04-20T13:34:24.806Z</time></trkpt><trkpt lat="37.9593183" lon="15.6748383"><ele>19.0</ele><time>2026-04-20T13:34:25.803Z</time></trkpt><trkpt lat="37.9591717" lon="15.674945"><ele>17.0</ele><time>2026-04-20T13:34:26.807Z</time></trkpt><trkpt lat="37.95903" lon="15.6750567"><ele>15.0</ele><time>2026-04-20T13:34:27.804Z</time></trkpt><trkpt lat="37.95889" lon="15.6751717"><ele>18.0</ele><time>2026-04-20T13:34:28.804Z</time></trkpt><trkpt lat="37.9587467" lon="15.6752883"><ele>21.0</ele><time>2026-04-20T13:34:29.802Z</time></trkpt><trkpt lat="37.9586033" lon="15.675405"><ele>24.0</ele><time>2026-04-20T13:34:30.804Z</time></trkpt><trkpt lat="37.9584617" lon="15.6755217"><ele>22.0</ele><time>2026-04-20T13:34:31.804Z</time></trkpt><trkpt lat="37.958315" lon="15.67563"><ele>20.0</ele><time>2026-04-20T13:34:32.804Z</time></trkpt><trkpt lat="37.958175" lon="15.67575"><ele>18.0</ele><time>2026-04-20T13:34:33.804Z</time></trkpt><trkpt lat="37.95803" lon="15.67586"><ele>18.0</ele><time>2026-04-20T13:34:34.803Z</time></trkpt><trkpt lat="37.9578917" lon="15.6759733"><ele>18.0</ele><time>2026-04-20T13:34:35.804Z</time></trkpt><trkpt lat="37.9577517" lon="15.6760867"><ele>18.0</ele><time>2026-04-20T13:34:36.804Z</time></trkpt><trkpt lat="37.9576133" lon="15.6762067"><ele>18.666666666666668</ele><time>2026-04-20T13:34:37.806Z</time></trkpt><trkpt lat="37.957475" lon="15.6763233"><ele>19.333333333333336</ele><time>2026-04-20T13:34:38.804Z</time></trkpt><trkpt lat="37.9573317" lon="15.6764383"><ele>20.0</ele><time>2026-04-20T13:34:39.804Z</time></trkpt><trkpt lat="37.95719" lon="15.6765533"><ele>20.0</ele><time>2026-04-20T13:34:40.805Z</time></trkpt><trkpt lat="37.9570517" lon="15.67667"><ele>20.0</ele><time>2026-04-20T13:34:41.803Z</time></trkpt><trkpt lat="37.9569133" lon="15.67679"><ele>20.0</ele><time>2026-04-20T13:34:42.807Z</time></trkpt><trkpt lat="37.956775" lon="15.6769067"><ele>22.333333333333336</ele><time>2026-04-20T13:34:43.803Z</time></trkpt><trkpt lat="37.9566333" lon="15.67702"><ele>24.666666666666668</ele><time>2026-04-20T13:34:44.804Z</time></trkpt><trkpt lat="37.956495" lon="15.6771333"><ele>27.0</ele><time>2026-04-20T13:34:45.804Z</time></trkpt><trkpt lat="37.9563567" lon="15.6772483"><ele>27.0</ele><time>2026-04-20T13:34:46.804Z</time></trkpt><trkpt lat="37.9562117" lon="15.6773517"><ele>27.0</ele><time>2026-04-20T13:34:47.805Z</time></trkpt><trkpt lat="37.9560617" lon="15.6774417"><ele>27.0</ele><time>2026-04-20T13:34:48.804Z</time></trkpt><trkpt lat="37.9559133" lon="15.6775333"><ele>27.0</ele><time>2026-04-20T13:34:49.803Z</time></trkpt><trkpt lat="37.9557633" lon="15.6776217"><ele>27.0</ele><time>2026-04-20T13:34:50.804Z</time></trkpt><trkpt lat="37.95561" lon="15.6776733"><ele>27.0</ele><time>2026-04-20T13:34:51.804Z</time></trkpt><trkpt lat="37.9554483" lon="15.6776817"><ele>27.0</ele><time>2026-04-20T13:34:52.803Z</time></trkpt><trkpt lat="37.9552883" lon="15.677685"><ele>27.0</ele><time>2026-04-20T13:34:53.804Z</time></trkpt><trkpt lat="37.9551283" lon="15.6777167"><ele>27.0</ele><time>2026-04-20T13:34:54.804Z</time></trkpt><trkpt lat="37.95497" lon="15.6777733"><ele>33.666666666666664</ele><time>2026-04-20T13:34:55.805Z</time></trkpt><trkpt lat="37.954825" lon="15.6778733"><ele>40.33333333333333</ele><time>2026-04-20T13:34:56.804Z</time></trkpt><trkpt lat="37.9546983" lon="15.6780167"><ele>47.0</ele><time>2026-04-20T13:34:57.803Z</time></trkpt><trkpt lat="37.9545767" lon="15.6781583"><ele>47.0</ele><time>2026-04-20T13:34:58.804Z</time></trkpt><trkpt lat="37.9544517" lon="15.6782967"><ele>47.0</ele><time>2026-04-20T13:34:59.804Z</time></trkpt><trkpt lat="37.9543233" lon="15.6784283"><ele>47.0</ele><time>2026-04-20T13:35:00.803Z</time></trkpt><trkpt lat="37.9542067" lon="15.6785733"><ele>47.33333333333333</ele><time>2026-04-20T13:35:01.804Z</time></trkpt><trkpt lat="37.9541083" lon="15.67874"><ele>47.666666666666664</ele><time>2026-04-20T13:35:02.805Z</time></trkpt><trkpt lat="37.9540283" lon="15.678925"><ele>48.0</ele><time>2026-04-20T13:35:03.803Z</time></trkpt><trkpt lat="37.9539567" lon="15.6791233"><ele>48.0</ele><time>2026-04-20T13:35:04.804Z</time></trkpt><trkpt lat="37.9538833" lon="15.67932"><ele>48.0</ele><time>2026-04-20T13:35:05.804Z</time></trkpt><trkpt lat="37.9538067" lon="15.679515"><ele>48.0</ele><time>2026-04-20T13:35:06.804Z</time></trkpt><trkpt lat="37.9537333" lon="15.6797117"><ele>54.33333333333333</ele><time>2026-04-20T13:35:07.803Z</time></trkpt><trkpt lat="37.9536633" lon="15.6799017"><ele>60.666666666666664</ele><time>2026-04-20T13:35:08.803Z</time></trkpt><trkpt lat="37.9536183" lon="15.6800967"><ele>67.0</ele><time>2026-04-20T13:35:09.803Z</time></trkpt><trkpt lat="37.9535867" lon="15.6802967"><ele>67.66666666666666</ele><time>2026-04-20T13:35:10.804Z</time></trkpt><trkpt lat="37.9535533" lon="15.6804917"><ele>68.33333333333333</ele><time>2026-04-20T13:35:11.804Z</time></trkpt><trkpt lat="37.953535" lon="15.6806867"><ele>69.0</ele><time>2026-04-20T13:35:12.803Z</time></trkpt><trkpt lat="37.9535433" lon="15.6808817"><ele>69.0</ele><time>2026-04-20T13:35:13.804Z</time></trkpt><trkpt lat="37.9535867" lon="15.6810783"><ele>69.0</ele><time>2026-04-20T13:35:14.804Z</time></trkpt><trkpt lat="37.95362" lon="15.6812717"><ele>69.0</ele><time>2026-04-20T13:35:15.804Z</time></trkpt><trkpt lat="37.9536" lon="15.68146"><ele>67.33333333333333</ele><time>2026-04-20T13:35:16.804Z</time></trkpt><trkpt lat="37.95355" lon="15.68165"><ele>65.66666666666666</ele><time>2026-04-20T13:35:17.803Z</time></trkpt><trkpt lat="37.9534617" lon="15.6818217"><ele>64.0</ele><time>2026-04-20T13:35:18.804Z</time></trkpt><trkpt lat="37.9533683" lon="15.6819967"><ele>55.666666666666664</ele><time>2026-04-20T13:35:19.804Z</time></trkpt><trkpt lat="37.9532783" lon="15.682185"><ele>47.33333333333333</ele><time>2026-04-20T13:35:20.803Z</time></trkpt><trkpt lat="37.9531883" lon="15.6823733"><ele>39.0</ele><time>2026-04-20T13:35:21.804Z</time></trkpt><trkpt lat="37.9530933" lon="15.6825567"><ele>39.0</ele><time>2026-04-20T13:35:22.805Z</time></trkpt><trkpt lat="37.953" lon="15.682745"><ele>39.0</ele><time>2026-04-20T13:35:23.804Z</time></trkpt><trkpt lat="37.9529067" lon="15.6829383"><ele>39.0</ele><time>2026-04-20T13:35:24.804Z</time></trkpt><trkpt lat="37.9528133" lon="15.6831317"><ele>36.666666666666664</ele><time>2026-04-20T13:35:25.804Z</time></trkpt><trkpt lat="37.95272" lon="15.6833217"><ele>34.33333333333333</ele><time>2026-04-20T13:35:26.805Z</time></trkpt><trkpt lat="37.9526267" lon="15.6835133"><ele>32.0</ele><time>2026-04-20T13:35:27.803Z</time></trkpt><trkpt lat="37.952535" lon="15.6837017"><ele>32.0</ele><time>2026-04-20T13:35:28.804Z</time></trkpt><trkpt lat="37.9524417" lon="15.68389"><ele>32.0</ele><time>2026-04-20T13:35:29.803Z</time></trkpt><trkpt lat="37.9523717" lon="15.6840917"><ele>32.0</ele><time>2026-04-20T13:35:30.804Z</time></trkpt><trkpt lat="37.9523133" lon="15.6843"><ele>32.0</ele><time>2026-04-20T13:35:31.803Z</time></trkpt><trkpt lat="37.9522717" lon="15.684515"><ele>32.0</ele><time>2026-04-20T13:35:32.805Z</time></trkpt><trkpt lat="37.9522383" lon="15.684735"><ele>32.0</ele><time>2026-04-20T13:35:33.803Z</time></trkpt><trkpt lat="37.9522183" lon="15.6861133"><ele>32.0</ele><time>2026-04-20T13:35:39.804Z</time></trkpt><trkpt lat="37.952255" lon="15.68636"><ele>32.0</ele><time>2026-04-20T13:35:40.803Z</time></trkpt><trkpt lat="37.95228" lon="15.6866067"><ele>32.0</ele><time>2026-04-20T13:35:41.804Z</time></trkpt><trkpt lat="37.9523067" lon="15.68685"><ele>28.666666666666664</ele><time>2026-04-20T13:35:42.804Z</time></trkpt><trkpt lat="37.952325" lon="15.6870933"><ele>25.333333333333332</ele><time>2026-04-20T13:35:43.803Z</time></trkpt><trkpt lat="37.9523417" lon="15.68734"><ele>22.0</ele><time>2026-04-20T13:35:44.806Z</time></trkpt><trkpt lat="37.9523533" lon="15.6875817"><ele>21.0</ele><time>2026-04-20T13:35:45.804Z</time></trkpt><trkpt lat="37.9523683" lon="15.6878267"><ele>20.0</ele><time>2026-04-20T13:35:46.804Z</time></trkpt><trkpt lat="37.952385" lon="15.6880733"><ele>19.0</ele><time>2026-04-20T13:35:47.804Z</time></trkpt><trkpt lat="37.9523983" lon="15.6883167"><ele>19.0</ele><time>2026-04-20T13:35:48.804Z</time></trkpt><trkpt lat="37.9524117" lon="15.6885633"><ele>19.0</ele><time>2026-04-20T13:35:49.804Z</time></trkpt><trkpt lat="37.9524217" lon="15.6888117"><ele>19.0</ele><time>2026-04-20T13:35:50.805Z</time></trkpt><trkpt lat="37.9524183" lon="15.6890583"><ele>17.0</ele><time>2026-04-20T13:35:51.804Z</time></trkpt><trkpt lat="37.9524183" lon="15.689305"><ele>15.0</ele><time>2026-04-20T13:35:52.803Z</time></trkpt><trkpt lat="37.9523983" lon="15.6895483"><ele>13.0</ele><time>2026-04-20T13:35:53.804Z</time></trkpt><trkpt lat="37.952365" lon="15.6897883"><ele>12.333333333333332</ele><time>2026-04-20T13:35:54.804Z</time></trkpt><trkpt lat="37.952315" lon="15.69002"><ele>11.666666666666666</ele><time>2026-04-20T13:35:55.804Z</time></trkpt><trkpt lat="37.9522567" lon="15.6902483"><ele>11.0</ele><time>2026-04-20T13:35:56.806Z</time></trkpt><trkpt lat="37.9521883" lon="15.69047"><ele>11.0</ele><time>2026-04-20T13:35:57.804Z</time></trkpt><trkpt lat="37.952115" lon="15.690685"><ele>11.0</ele><time>2026-04-20T13:35:58.805Z</time></trkpt><trkpt lat="37.9520383" lon="15.6909017"><ele>11.0</ele><time>2026-04-20T13:35:59.804Z</time></trkpt><trkpt lat="37.9519617" lon="15.69112"><ele>12.666666666666666</ele><time>2026-04-20T13:36:00.805Z</time></trkpt><trkpt lat="37.9518867" lon="15.6913433"><ele>14.333333333333332</ele><time>2026-04-20T13:36:01.804Z</time></trkpt><trkpt lat="37.951815" lon="15.69157"><ele>16.0</ele><time>2026-04-20T13:36:02.805Z</time></trkpt><trkpt lat="37.951745" lon="15.6918017"><ele>14.333333333333332</ele><time>2026-04-20T13:36:03.804Z</time></trkpt><trkpt lat="37.9516633" lon="15.69203"><ele>12.666666666666666</ele><time>2026-04-20T13:36:04.803Z</time></trkpt><trkpt lat="37.9515917" lon="15.6922633"><ele>11.0</ele><time>2026-04-20T13:36:05.805Z</time></trkpt><trkpt lat="37.9515167" lon="15.6925"><ele>11.0</ele><time>2026-04-20T13:36:06.804Z</time></trkpt><trkpt lat="37.95144" lon="15.6927367"><ele>11.0</ele><time>2026-04-20T13:36:07.805Z</time></trkpt><trkpt lat="37.95136" lon="15.6929733"><ele>11.0</ele><time>2026-04-20T13:36:08.808Z</time></trkpt><trkpt lat="37.95128" lon="15.6932067"><ele>10.333333333333332</ele><time>2026-04-20T13:36:09.805Z</time></trkpt><trkpt lat="37.9512067" lon="15.6934417"><ele>9.666666666666666</ele><time>2026-04-20T13:36:10.805Z</time></trkpt><trkpt lat="37.9511267" lon="15.693675"><ele>9.0</ele><time>2026-04-20T13:36:11.804Z</time></trkpt><trkpt lat="37.9510517" lon="15.6939067"><ele>8.666666666666666</ele><time>2026-04-20T13:36:12.804Z</time></trkpt><trkpt lat="37.9509783" lon="15.6941367"><ele>8.333333333333332</ele><time>2026-04-20T13:36:13.804Z</time></trkpt><trkpt lat="37.9509017" lon="15.6943617"><ele>8.0</ele><time>2026-04-20T13:36:14.805Z</time></trkpt><trkpt lat="37.950825" lon="15.6945867"><ele>7.666666666666666</ele><time>2026-04-20T13:36:15.805Z</time></trkpt><trkpt lat="37.95075" lon="15.6948083"><ele>7.333333333333334</ele><time>2026-04-20T13:36:16.804Z</time></trkpt><trkpt lat="37.9506815" lon="15.6950344"><ele>7.0</ele><time>2026-04-20T13:36:17.804Z</time></trkpt><trkpt lat="37.9506071" lon="15.695257"><ele>8.0</ele><time>2026-04-20T13:36:18.805Z</time></trkpt><trkpt lat="37.9505284" lon="15.6954759"><ele>9.0</ele><time>2026-04-20T13:36:19.804Z</time></trkpt><trkpt lat="37.950446" lon="15.6956925"><ele>10.0</ele><time>2026-04-20T13:36:20.804Z</time></trkpt><trkpt lat="37.950354" lon="15.6959032"><ele>9.666666666666668</ele><time>2026-04-20T13:36:21.804Z</time></trkpt><trkpt lat="37.9502508" lon="15.6961057"><ele>9.333333333333334</ele><time>2026-04-20T13:36:22.806Z</time></trkpt><trkpt lat="37.9501458" lon="15.6963072"><ele>9.0</ele><time>2026-04-20T13:36:23.803Z</time></trkpt><trkpt lat="37.9500372" lon="15.696507"><ele>9.0</ele><time>2026-04-20T13:36:24.803Z</time></trkpt><trkpt lat="37.9499141" lon="15.6966966"><ele>9.0</ele><time>2026-04-20T13:36:25.803Z</time></trkpt><trkpt lat="37.949783" lon="15.6968779"><ele>9.0</ele><time>2026-04-20T13:36:26.805Z</time></trkpt><trkpt lat="37.949646" lon="15.6970527"><ele>9.0</ele><time>2026-04-20T13:36:27.804Z</time></trkpt><trkpt lat="37.9495025" lon="15.6972195"><ele>9.0</ele><time>2026-04-20T13:36:28.804Z</time></trkpt><trkpt lat="37.9493608" lon="15.6973866"><ele>9.0</ele><time>2026-04-20T13:36:29.804Z</time></trkpt><trkpt lat="37.9492265" lon="15.6975638"><ele>9.0</ele><time>2026-04-20T13:36:30.804Z</time></trkpt><trkpt lat="37.949089" lon="15.6977359"><ele>9.0</ele><time>2026-04-20T13:36:31.804Z</time></trkpt><trkpt lat="37.9489517" lon="15.6979045"><ele>9.0</ele><time>2026-04-20T13:36:32.805Z</time></trkpt><trkpt lat="37.9488157" lon="15.6980719"><ele>9.0</ele><time>2026-04-20T13:36:33.804Z</time></trkpt><trkpt lat="37.9486817" lon="15.6982406"><ele>9.0</ele><time>2026-04-20T13:36:34.803Z</time></trkpt><trkpt lat="37.9485483" lon="15.6984078"><ele>9.0</ele><time>2026-04-20T13:36:35.804Z</time></trkpt><trkpt lat="37.9484158" lon="15.6985762"><ele>8.333333333333334</ele><time>2026-04-20T13:36:36.804Z</time></trkpt><trkpt lat="37.9482844" lon="15.6987429"><ele>7.666666666666667</ele><time>2026-04-20T13:36:37.804Z</time></trkpt><trkpt lat="37.9481552" lon="15.6989082"><ele>7.0</ele><time>2026-04-20T13:36:38.804Z</time></trkpt><trkpt lat="37.9480249" lon="15.6990713"><ele>7.0</ele><time>2026-04-20T13:36:39.804Z</time></trkpt><trkpt lat="37.9478925" lon="15.6992334"><ele>7.0</ele><time>2026-04-20T13:36:40.805Z</time></trkpt><trkpt lat="37.9477597" lon="15.699395"><ele>7.0</ele><time>2026-04-20T13:36:41.804Z</time></trkpt><trkpt lat="37.9476305" lon="15.6995604"><ele>7.666666666666667</ele><time>2026-04-20T13:36:42.806Z</time></trkpt><trkpt lat="37.9475015" lon="15.6997264"><ele>8.333333333333334</ele><time>2026-04-20T13:36:43.804Z</time></trkpt><trkpt lat="37.947372" lon="15.6998939"><ele>9.0</ele><time>2026-04-20T13:36:44.806Z</time></trkpt><trkpt lat="37.9472425" lon="15.7000596"><ele>9.0</ele><time>2026-04-20T13:36:45.803Z</time></trkpt><trkpt lat="37.9471143" lon="15.7002289"><ele>9.0</ele><time>2026-04-20T13:36:46.804Z</time></trkpt><trkpt lat="37.9469862" lon="15.7003976"><ele>9.0</ele><time>2026-04-20T13:36:47.803Z</time></trkpt><trkpt lat="37.9468578" lon="15.7005649"><ele>9.666666666666666</ele><time>2026-04-20T13:36:48.805Z</time></trkpt><trkpt lat="37.9467276" lon="15.7007327"><ele>10.333333333333332</ele><time>2026-04-20T13:36:49.803Z</time></trkpt><trkpt lat="37.9465979" lon="15.7009027"><ele>11.0</ele><time>2026-04-20T13:36:50.803Z</time></trkpt><trkpt lat="37.946468" lon="15.7010729"><ele>12.333333333333332</ele><time>2026-04-20T13:36:51.805Z</time></trkpt><trkpt lat="37.9463388" lon="15.7012441"><ele>13.666666666666666</ele><time>2026-04-20T13:36:52.803Z</time></trkpt><trkpt lat="37.9462088" lon="15.7014154"><ele>15.0</ele><time>2026-04-20T13:36:53.803Z</time></trkpt><trkpt lat="37.9460812" lon="15.7015884"><ele>15.0</ele><time>2026-04-20T13:36:54.804Z</time></trkpt><trkpt lat="37.9459487" lon="15.7017633"><ele>15.0</ele><time>2026-04-20T13:36:55.804Z</time></trkpt><trkpt lat="37.9458148" lon="15.7019351"><ele>15.0</ele><time>2026-04-20T13:36:56.804Z</time></trkpt><trkpt lat="37.9456853" lon="15.7021076"><ele>15.333333333333332</ele><time>2026-04-20T13:36:57.803Z</time></trkpt><trkpt lat="37.9455566" lon="15.702277"><ele>15.666666666666666</ele><time>2026-04-20T13:36:58.803Z</time></trkpt><trkpt lat="37.9454289" lon="15.7024474"><ele>16.0</ele><time>2026-04-20T13:36:59.807Z</time></trkpt><trkpt lat="37.945303" lon="15.7026128"><ele>16.0</ele><time>2026-04-20T13:37:00.804Z</time></trkpt><trkpt lat="37.9451825" lon="15.702775"><ele>16.0</ele><time>2026-04-20T13:37:01.804Z</time></trkpt><trkpt lat="37.9450673" lon="15.7029301"><ele>16.0</ele><time>2026-04-20T13:37:02.804Z</time></trkpt><trkpt lat="37.9449543" lon="15.7030782"><ele>16.0</ele><time>2026-04-20T13:37:03.802Z</time></trkpt><trkpt lat="37.9448459" lon="15.703223"><ele>16.0</ele><time>2026-04-20T13:37:04.804Z</time></trkpt><trkpt lat="37.9447361" lon="15.7033623"><ele>16.0</ele><time>2026-04-20T13:37:05.803Z</time></trkpt><trkpt lat="37.944621" lon="15.7034909"><ele>17.666666666666664</ele><time>2026-04-20T13:37:06.805Z</time></trkpt><trkpt lat="37.9445025" lon="15.7036123"><ele>19.333333333333332</ele><time>2026-04-20T13:37:07.804Z</time></trkpt><trkpt lat="37.9443822" lon="15.7037361"><ele>21.0</ele><time>2026-04-20T13:37:08.806Z</time></trkpt><trkpt lat="37.9442777" lon="15.7038804"><ele>19.333333333333332</ele><time>2026-04-20T13:37:09.803Z</time></trkpt><trkpt lat="37.9441883" lon="15.704043"><ele>17.666666666666664</ele><time>2026-04-20T13:37:10.804Z</time></trkpt><trkpt lat="37.9441096" lon="15.7042144"><ele>16.0</ele><time>2026-04-20T13:37:11.804Z</time></trkpt><trkpt lat="37.9440154" lon="15.704369"><ele>15.333333333333332</ele><time>2026-04-20T13:37:12.803Z</time></trkpt><trkpt lat="37.9439001" lon="15.7045093"><ele>14.666666666666668</ele><time>2026-04-20T13:37:13.802Z</time></trkpt><trkpt lat="37.9437834" lon="15.7046511"><ele>14.0</ele><time>2026-04-20T13:37:14.804Z</time></trkpt><trkpt lat="37.9436648" lon="15.7047959"><ele>14.0</ele><time>2026-04-20T13:37:15.802Z</time></trkpt><trkpt lat="37.9435437" lon="15.7049423"><ele>14.0</ele><time>2026-04-20T13:37:16.803Z</time></trkpt><trkpt lat="37.9434223" lon="15.7050889"><ele>14.0</ele><time>2026-04-20T13:37:17.803Z</time></trkpt><trkpt lat="37.9433046" lon="15.7052382"><ele>13.0</ele><time>2026-04-20T13:37:18.803Z</time></trkpt><trkpt lat="37.9431815" lon="15.7053849"><ele>12.0</ele><time>2026-04-20T13:37:19.803Z</time></trkpt><trkpt lat="37.9430589" lon="15.7055383"><ele>11.0</ele><time>2026-04-20T13:37:20.805Z</time></trkpt><trkpt lat="37.9429354" lon="15.7056933"><ele>11.0</ele><time>2026-04-20T13:37:21.803Z</time></trkpt><trkpt lat="37.9428052" lon="15.7058467"><ele>11.0</ele><time>2026-04-20T13:37:22.803Z</time></trkpt><trkpt lat="37.9426734" lon="15.7060028"><ele>11.0</ele><time>2026-04-20T13:37:23.803Z</time></trkpt><trkpt lat="37.9425453" lon="15.7061633"><ele>11.333333333333332</ele><time>2026-04-20T13:37:24.803Z</time></trkpt><trkpt lat="37.9424144" lon="15.7063251"><ele>11.666666666666666</ele><time>2026-04-20T13:37:25.803Z</time></trkpt><trkpt lat="37.9422838" lon="15.7064857"><ele>12.0</ele><time>2026-04-20T13:37:26.803Z</time></trkpt><trkpt lat="37.942152" lon="15.7066456"><ele>12.0</ele><time>2026-04-20T13:37:27.802Z</time></trkpt><trkpt lat="37.9420214" lon="15.7068067"><ele>12.0</ele><time>2026-04-20T13:37:28.803Z</time></trkpt><trkpt lat="37.9418914" lon="15.7069671"><ele>12.0</ele><time>2026-04-20T13:37:29.802Z</time></trkpt><trkpt lat="37.9417627" lon="15.7071298"><ele>12.0</ele><time>2026-04-20T13:37:30.803Z</time></trkpt><trkpt lat="37.9416319" lon="15.7072905"><ele>12.0</ele><time>2026-04-20T13:37:31.802Z</time></trkpt><trkpt lat="37.9415019" lon="15.7074534"><ele>12.0</ele><time>2026-04-20T13:37:32.803Z</time></trkpt><trkpt lat="37.9413732" lon="15.7076167"><ele>11.666666666666666</ele><time>2026-04-20T13:37:33.804Z</time></trkpt><trkpt lat="37.9412462" lon="15.7077785"><ele>11.333333333333332</ele><time>2026-04-20T13:37:34.804Z</time></trkpt><trkpt lat="37.9411173" lon="15.7079388"><ele>11.0</ele><time>2026-04-20T13:37:35.803Z</time></trkpt><trkpt lat="37.9409876" lon="15.7080991"><ele>10.666666666666666</ele><time>2026-04-20T13:37:36.803Z</time></trkpt><trkpt lat="37.9408583" lon="15.70826"><ele>10.333333333333334</ele><time>2026-04-20T13:37:37.803Z</time></trkpt><trkpt lat="37.9407318" lon="15.7084279"><ele>10.0</ele><time>2026-04-20T13:37:38.804Z</time></trkpt><trkpt lat="37.9406128" lon="15.7086026"><ele>10.0</ele><time>2026-04-20T13:37:39.803Z</time></trkpt><trkpt lat="37.9405028" lon="15.7087854"><ele>10.0</ele><time>2026-04-20T13:37:40.803Z</time></trkpt><trkpt lat="37.9404024" lon="15.7089751"><ele>10.0</ele><time>2026-04-20T13:37:41.802Z</time></trkpt><trkpt lat="37.940312" lon="15.7091741"><ele>10.0</ele><time>2026-04-20T13:37:42.803Z</time></trkpt><trkpt lat="37.9402317" lon="15.7093778"><ele>10.0</ele><time>2026-04-20T13:37:43.804Z</time></trkpt><trkpt lat="37.9401633" lon="15.7095882"><ele>10.0</ele><time>2026-04-20T13:37:44.804Z</time></trkpt><trkpt lat="37.9401005" lon="15.7098002"><ele>10.666666666666668</ele><time>2026-04-20T13:37:45.803Z</time></trkpt><trkpt lat="37.9400353" lon="15.7100111"><ele>11.333333333333334</ele><time>2026-04-20T13:37:46.803Z</time></trkpt><trkpt lat="37.9399704" lon="15.7102215"><ele>12.0</ele><time>2026-04-20T13:37:47.804Z</time></trkpt><trkpt lat="37.939909" lon="15.7104355"><ele>12.0</ele><time>2026-04-20T13:37:48.804Z</time></trkpt><trkpt lat="37.9398473" lon="15.7106505"><ele>12.0</ele><time>2026-04-20T13:37:49.803Z</time></trkpt><trkpt lat="37.9397817" lon="15.7108648"><ele>12.0</ele><time>2026-04-20T13:37:50.803Z</time></trkpt><trkpt lat="37.9397136" lon="15.7110786"><ele>12.333333333333332</ele><time>2026-04-20T13:37:51.804Z</time></trkpt><trkpt lat="37.939647" lon="15.7112936"><ele>12.666666666666666</ele><time>2026-04-20T13:37:52.805Z</time></trkpt><trkpt lat="37.9395806" lon="15.7115086"><ele>13.0</ele><time>2026-04-20T13:37:53.803Z</time></trkpt><trkpt lat="37.9395155" lon="15.7117277"><ele>14.333333333333332</ele><time>2026-04-20T13:37:54.803Z</time></trkpt><trkpt lat="37.9394462" lon="15.7119483"><ele>15.666666666666668</ele><time>2026-04-20T13:37:55.804Z</time></trkpt><trkpt lat="37.9393797" lon="15.7121727"><ele>17.0</ele><time>2026-04-20T13:37:56.803Z</time></trkpt><trkpt lat="37.9393117" lon="15.7123979"><ele>17.0</ele><time>2026-04-20T13:37:57.802Z</time></trkpt><trkpt lat="37.9392421" lon="15.7126237"><ele>17.0</ele><time>2026-04-20T13:37:58.804Z</time></trkpt><trkpt lat="37.9391718" lon="15.7128544"><ele>17.0</ele><time>2026-04-20T13:37:59.804Z</time></trkpt><trkpt lat="37.9390973" lon="15.7130862"><ele>16.333333333333336</ele><time>2026-04-20T13:38:00.804Z</time></trkpt><trkpt lat="37.9390234" lon="15.7133185"><ele>15.666666666666668</ele><time>2026-04-20T13:38:01.804Z</time></trkpt><trkpt lat="37.9389515" lon="15.713553"><ele>15.0</ele><time>2026-04-20T13:38:02.804Z</time></trkpt><trkpt lat="37.9388783" lon="15.7137867"><ele>14.333333333333332</ele><time>2026-04-20T13:38:03.804Z</time></trkpt><trkpt lat="37.9388057" lon="15.7140173"><ele>13.666666666666666</ele><time>2026-04-20T13:38:04.803Z</time></trkpt><trkpt lat="37.938734" lon="15.7142471"><ele>13.0</ele><time>2026-04-20T13:38:05.804Z</time></trkpt><trkpt lat="37.9386659" lon="15.7144768"><ele>12.333333333333332</ele><time>2026-04-20T13:38:06.804Z</time></trkpt><trkpt lat="37.9385913" lon="15.7147027"><ele>11.666666666666666</ele><time>2026-04-20T13:38:07.803Z</time></trkpt><trkpt lat="37.9385181" lon="15.7149291"><ele>11.0</ele><time>2026-04-20T13:38:08.803Z</time></trkpt><trkpt lat="37.9384484" lon="15.7151541"><ele>10.666666666666666</ele><time>2026-04-20T13:38:09.804Z</time></trkpt><trkpt lat="37.9383758" lon="15.7153777"><ele>10.333333333333334</ele><time>2026-04-20T13:38:10.803Z</time></trkpt><trkpt lat="37.9383043" lon="15.7156009"><ele>10.0</ele><time>2026-04-20T13:38:11.802Z</time></trkpt><trkpt lat="37.9382307" lon="15.7158242"><ele>10.0</ele><time>2026-04-20T13:38:12.802Z</time></trkpt><trkpt lat="37.9381618" lon="15.7160506"><ele>10.0</ele><time>2026-04-20T13:38:13.804Z</time></trkpt><trkpt lat="37.9381088" lon="15.7162829"><ele>10.0</ele><time>2026-04-20T13:38:14.804Z</time></trkpt><trkpt lat="37.9380689" lon="15.7165208"><ele>9.666666666666668</ele><time>2026-04-20T13:38:15.802Z</time></trkpt><trkpt lat="37.9380324" lon="15.7167623"><ele>9.333333333333334</ele><time>2026-04-20T13:38:16.803Z</time></trkpt><trkpt lat="37.9380008" lon="15.7170045"><ele>9.0</ele><time>2026-04-20T13:38:17.803Z</time></trkpt><trkpt lat="37.9379686" lon="15.717248"><ele>8.0</ele><time>2026-04-20T13:38:18.803Z</time></trkpt><trkpt lat="37.9379359" lon="15.7174929"><ele>7.0</ele><time>2026-04-20T13:38:19.804Z</time></trkpt><trkpt lat="37.9379082" lon="15.717738"><ele>6.0</ele><time>2026-04-20T13:38:20.804Z</time></trkpt><trkpt lat="37.9378803" lon="15.7179816"><ele>5.666666666666667</ele><time>2026-04-20T13:38:21.804Z</time></trkpt><trkpt lat="37.9378522" lon="15.7182219"><ele>5.333333333333334</ele><time>2026-04-20T13:38:22.804Z</time></trkpt><trkpt lat="37.9378228" lon="15.7184604"><ele>5.0</ele><time>2026-04-20T13:38:23.803Z</time></trkpt><trkpt lat="37.9377942" lon="15.7186973"><ele>5.666666666666667</ele><time>2026-04-20T13:38:24.804Z</time></trkpt><trkpt lat="37.9377682" lon="15.7189309"><ele>6.333333333333334</ele><time>2026-04-20T13:38:25.805Z</time></trkpt><trkpt lat="37.9377407" lon="15.719161"><ele>7.0</ele><time>2026-04-20T13:38:26.805Z</time></trkpt><trkpt lat="37.9377137" lon="15.7193893"><ele>7.0</ele><time>2026-04-20T13:38:27.803Z</time></trkpt><trkpt lat="37.937683" lon="15.7196146"><ele>7.0</ele><time>2026-04-20T13:38:28.803Z</time></trkpt><trkpt lat="37.9376533" lon="15.7198407"><ele>7.0</ele><time>2026-04-20T13:38:29.803Z</time></trkpt><trkpt lat="37.9376247" lon="15.7200658"><ele>6.666666666666667</ele><time>2026-04-20T13:38:30.803Z</time></trkpt><trkpt lat="37.9375975" lon="15.7202909"><ele>6.333333333333334</ele><time>2026-04-20T13:38:31.806Z</time></trkpt><trkpt lat="37.9375708" lon="15.7205169"><ele>6.0</ele><time>2026-04-20T13:38:32.804Z</time></trkpt><trkpt lat="37.9375482" lon="15.7207447"><ele>6.0</ele><time>2026-04-20T13:38:33.803Z</time></trkpt><trkpt lat="37.9375247" lon="15.7209719"><ele>6.0</ele><time>2026-04-20T13:38:34.804Z</time></trkpt><trkpt lat="37.9374982" lon="15.7211985"><ele>6.0</ele><time>2026-04-20T13:38:35.803Z</time></trkpt><trkpt lat="37.9374696" lon="15.7214265"><ele>6.333333333333334</ele><time>2026-04-20T13:38:36.804Z</time></trkpt><trkpt lat="37.9374419" lon="15.7216521"><ele>6.666666666666667</ele><time>2026-04-20T13:38:37.804Z</time></trkpt><trkpt lat="37.9374214" lon="15.7218784"><ele>7.0</ele><time>2026-04-20T13:38:38.804Z</time></trkpt><trkpt lat="37.9373989" lon="15.7221037"><ele>7.0</ele><time>2026-04-20T13:38:39.803Z</time></trkpt><trkpt lat="37.9373744" lon="15.7223287"><ele>7.0</ele><time>2026-04-20T13:38:40.804Z</time></trkpt><trkpt lat="37.9373476" lon="15.7225549"><ele>7.0</ele><time>2026-04-20T13:38:41.806Z</time></trkpt><trkpt lat="37.9373105" lon="15.7227783"><ele>7.666666666666667</ele><time>2026-04-20T13:38:42.804Z</time></trkpt><trkpt lat="37.9372611" lon="15.7230014"><ele>8.333333333333334</ele><time>2026-04-20T13:38:43.803Z</time></trkpt><trkpt lat="37.9372013" lon="15.7232245"><ele>9.0</ele><time>2026-04-20T13:38:44.803Z</time></trkpt><trkpt lat="37.9371277" lon="15.7234437"><ele>9.666666666666666</ele><time>2026-04-20T13:38:45.803Z</time></trkpt><trkpt lat="37.937045" lon="15.7236592"><ele>10.333333333333332</ele><time>2026-04-20T13:38:46.803Z</time></trkpt><trkpt lat="37.9369527" lon="15.7238728"><ele>11.0</ele><time>2026-04-20T13:38:47.803Z</time></trkpt><trkpt lat="37.9368561" lon="15.7240878"><ele>11.0</ele><time>2026-04-20T13:38:48.804Z</time></trkpt><trkpt lat="37.9367619" lon="15.7243059"><ele>11.0</ele><time>2026-04-20T13:38:49.803Z</time></trkpt><trkpt lat="37.9366706" lon="15.7245295"><ele>11.0</ele><time>2026-04-20T13:38:50.804Z</time></trkpt><trkpt lat="37.9365753" lon="15.724752"><ele>10.666666666666666</ele><time>2026-04-20T13:38:51.803Z</time></trkpt><trkpt lat="37.9364777" lon="15.7249757"><ele>10.333333333333334</ele><time>2026-04-20T13:38:52.802Z</time></trkpt><trkpt lat="37.9363804" lon="15.7252006"><ele>10.0</ele><time>2026-04-20T13:38:53.802Z</time></trkpt><trkpt lat="37.9362821" lon="15.7254231"><ele>10.333333333333334</ele><time>2026-04-20T13:38:54.803Z</time></trkpt><trkpt lat="37.9361878" lon="15.7256474"><ele>10.666666666666666</ele><time>2026-04-20T13:38:55.803Z</time></trkpt><trkpt lat="37.9360953" lon="15.725872"><ele>11.0</ele><time>2026-04-20T13:38:56.803Z</time></trkpt><trkpt lat="37.9359984" lon="15.7260931"><ele>11.0</ele><time>2026-04-20T13:38:57.803Z</time></trkpt><trkpt lat="37.9359066" lon="15.7263155"><ele>11.0</ele><time>2026-04-20T13:38:58.805Z</time></trkpt><trkpt lat="37.9358151" lon="15.7265329"><ele>11.0</ele><time>2026-04-20T13:38:59.804Z</time></trkpt><trkpt lat="37.9357254" lon="15.7267425"><ele>12.0</ele><time>2026-04-20T13:39:00.804Z</time></trkpt><trkpt lat="37.9356385" lon="15.7269432"><ele>13.0</ele><time>2026-04-20T13:39:01.803Z</time></trkpt><trkpt lat="37.9355615" lon="15.7271285"><ele>14.0</ele><time>2026-04-20T13:39:02.803Z</time></trkpt><trkpt lat="37.9354995" lon="15.7272896"><ele>14.0</ele><time>2026-04-20T13:39:03.803Z</time></trkpt><trkpt lat="37.9354474" lon="15.7274303"><ele>14.0</ele><time>2026-04-20T13:39:04.804Z</time></trkpt><trkpt lat="37.9353949" lon="15.7275576"><ele>14.0</ele><time>2026-04-20T13:39:05.804Z</time></trkpt><trkpt lat="37.9353397" lon="15.7276816"><ele>14.0</ele><time>2026-04-20T13:39:06.804Z</time></trkpt><trkpt lat="37.9352769" lon="15.7278012"><ele>14.5</ele><time>2026-04-20T13:39:07.804Z</time></trkpt><trkpt lat="37.9352173" lon="15.727927"><ele>15.0</ele><time>2026-04-20T13:39:08.804Z</time></trkpt><trkpt lat="37.9351625" lon="15.7280618"><ele>15.5</ele><time>2026-04-20T13:39:09.804Z</time></trkpt><trkpt lat="37.935106" lon="15.7282054"><ele>16.0</ele><time>2026-04-20T13:39:10.803Z</time></trkpt><trkpt lat="37.9350438" lon="15.7283557"><ele>16.25</ele><time>2026-04-20T13:39:11.803Z</time></trkpt><trkpt lat="37.9349766" lon="15.7285124"><ele>16.5</ele><time>2026-04-20T13:39:12.806Z</time></trkpt><trkpt lat="37.9349083" lon="15.7286755"><ele>16.75</ele><time>2026-04-20T13:39:13.803Z</time></trkpt><trkpt lat="37.9348408" lon="15.7288442"><ele>17.0</ele><time>2026-04-20T13:39:14.807Z</time></trkpt><trkpt lat="37.9347699" lon="15.7290159"><ele>17.0</ele><time>2026-04-20T13:39:15.804Z</time></trkpt><trkpt lat="37.9346999" lon="15.7291957"><ele>17.0</ele><time>2026-04-20T13:39:16.806Z</time></trkpt><trkpt lat="37.9346326" lon="15.7293821"><ele>17.0</ele><time>2026-04-20T13:39:17.804Z</time></trkpt><trkpt lat="37.934571" lon="15.729574"><ele>17.666666666666668</ele><time>2026-04-20T13:39:18.804Z</time></trkpt><trkpt lat="37.9345116" lon="15.729769"><ele>18.333333333333332</ele><time>2026-04-20T13:39:19.804Z</time></trkpt><trkpt lat="37.934454" lon="15.7299617"><ele>19.0</ele><time>2026-04-20T13:39:20.806Z</time></trkpt><trkpt lat="37.9344018" lon="15.7301522"><ele>20.333333333333332</ele><time>2026-04-20T13:39:21.803Z</time></trkpt><trkpt lat="37.9343506" lon="15.7303453"><ele>21.666666666666668</ele><time>2026-04-20T13:39:22.804Z</time></trkpt><trkpt lat="37.9343032" lon="15.7305443"><ele>23.0</ele><time>2026-04-20T13:39:23.803Z</time></trkpt><trkpt lat="37.934258" lon="15.7307474"><ele>23.333333333333336</ele><time>2026-04-20T13:39:24.804Z</time></trkpt><trkpt lat="37.9342117" lon="15.7309526"><ele>23.666666666666668</ele><time>2026-04-20T13:39:25.804Z</time></trkpt><trkpt lat="37.9341627" lon="15.7311583"><ele>24.0</ele><time>2026-04-20T13:39:26.805Z</time></trkpt><trkpt lat="37.9341129" lon="15.7313664"><ele>24.0</ele><time>2026-04-20T13:39:27.804Z</time></trkpt><trkpt lat="37.9340658" lon="15.7315751"><ele>24.0</ele><time>2026-04-20T13:39:28.804Z</time></trkpt><trkpt lat="37.9340184" lon="15.7317848"><ele>24.0</ele><time>2026-04-20T13:39:29.804Z</time></trkpt><trkpt lat="37.9339703" lon="15.7319936"><ele>25.0</ele><time>2026-04-20T13:39:30.805Z</time></trkpt><trkpt lat="37.9339221" lon="15.7322019"><ele>26.0</ele><time>2026-04-20T13:39:31.804Z</time></trkpt><trkpt lat="37.9338713" lon="15.7324091"><ele>27.0</ele><time>2026-04-20T13:39:32.803Z</time></trkpt><trkpt lat="37.9338213" lon="15.7326172"><ele>28.0</ele><time>2026-04-20T13:39:33.805Z</time></trkpt><trkpt lat="37.9337778" lon="15.7328253"><ele>29.0</ele><time>2026-04-20T13:39:34.803Z</time></trkpt><trkpt lat="37.9337335" lon="15.7330319"><ele>30.0</ele><time>2026-04-20T13:39:35.804Z</time></trkpt><trkpt lat="37.9336876" lon="15.733234"><ele>30.0</ele><time>2026-04-20T13:39:36.804Z</time></trkpt><trkpt lat="37.9336421" lon="15.7334309"><ele>30.0</ele><time>2026-04-20T13:39:37.803Z</time></trkpt><trkpt lat="37.9335971" lon="15.73362"><ele>30.0</ele><time>2026-04-20T13:39:38.804Z</time></trkpt><trkpt lat="37.9335521" lon="15.7338005"><ele>32.0</ele><time>2026-04-20T13:39:39.804Z</time></trkpt><trkpt lat="37.9335105" lon="15.7339738"><ele>34.0</ele><time>2026-04-20T13:39:40.803Z</time></trkpt><trkpt lat="37.9334735" lon="15.7341374"><ele>36.0</ele><time>2026-04-20T13:39:41.804Z</time></trkpt><trkpt lat="37.9334358" lon="15.7342894"><ele>38.0</ele><time>2026-04-20T13:39:42.803Z</time></trkpt><trkpt lat="37.9334" lon="15.7344331"><ele>36.25</ele><time>2026-04-20T13:39:43.807Z</time></trkpt><trkpt lat="37.9333613" lon="15.7345751"><ele>34.5</ele><time>2026-04-20T13:39:44.803Z</time></trkpt><trkpt lat="37.9333295" lon="15.7347206"><ele>32.75</ele><time>2026-04-20T13:39:45.804Z</time></trkpt><trkpt lat="37.9332979" lon="15.734871"><ele>31.0</ele><time>2026-04-20T13:39:46.804Z</time></trkpt><trkpt lat="37.9332623" lon="15.7350245"><ele>31.0</ele><time>2026-04-20T13:39:47.804Z</time></trkpt><trkpt lat="37.9332241" lon="15.735187"><ele>31.0</ele><time>2026-04-20T13:39:48.804Z</time></trkpt><trkpt lat="37.9331841" lon="15.735358"><ele>31.0</ele><time>2026-04-20T13:39:49.804Z</time></trkpt><trkpt lat="37.9331421" lon="15.7355333"><ele>31.0</ele><time>2026-04-20T13:39:50.805Z</time></trkpt><trkpt lat="37.9331012" lon="15.735709"><ele>31.5</ele><time>2026-04-20T13:39:51.804Z</time></trkpt><trkpt lat="37.9330612" lon="15.7358787"><ele>32.0</ele><time>2026-04-20T13:39:52.804Z</time></trkpt><trkpt lat="37.9330215" lon="15.7360401"><ele>32.5</ele><time>2026-04-20T13:39:53.804Z</time></trkpt><trkpt lat="37.9329818" lon="15.7361952"><ele>33.0</ele><time>2026-04-20T13:39:54.805Z</time></trkpt><trkpt lat="37.9329435" lon="15.7363439"><ele>34.5</ele><time>2026-04-20T13:39:55.804Z</time></trkpt><trkpt lat="37.9329052" lon="15.7364872"><ele>36.0</ele><time>2026-04-20T13:39:56.806Z</time></trkpt><trkpt lat="37.9328667" lon="15.7366251"><ele>37.5</ele><time>2026-04-20T13:39:57.804Z</time></trkpt><trkpt lat="37.9328258" lon="15.7367569"><ele>39.0</ele><time>2026-04-20T13:39:58.805Z</time></trkpt><trkpt lat="37.9327867" lon="15.7368863"><ele>39.25</ele><time>2026-04-20T13:39:59.806Z</time></trkpt><trkpt lat="37.932745" lon="15.7370167"><ele>39.5</ele><time>2026-04-20T13:40:00.805Z</time></trkpt><trkpt lat="37.9326983" lon="15.7371517"><ele>39.75</ele><time>2026-04-20T13:40:01.805Z</time></trkpt><trkpt lat="37.932645" lon="15.737285"><ele>40.0</ele><time>2026-04-20T13:40:02.804Z</time></trkpt><trkpt lat="37.93259" lon="15.7374233"><ele>37.25</ele><time>2026-04-20T13:40:03.803Z</time></trkpt><trkpt lat="37.932535" lon="15.737565"><ele>34.5</ele><time>2026-04-20T13:40:04.804Z</time></trkpt><trkpt lat="37.93248" lon="15.7377067"><ele>31.75</ele><time>2026-04-20T13:40:05.803Z</time></trkpt><trkpt lat="37.9324217" lon="15.737845"><ele>29.0</ele><time>2026-04-20T13:40:06.804Z</time></trkpt><trkpt lat="37.9323617" lon="15.737985"><ele>29.0</ele><time>2026-04-20T13:40:07.804Z</time></trkpt><trkpt lat="37.9323033" lon="15.7381267"><ele>29.0</ele><time>2026-04-20T13:40:08.804Z</time></trkpt><trkpt lat="37.93224" lon="15.7382683"><ele>29.0</ele><time>2026-04-20T13:40:09.803Z</time></trkpt><trkpt lat="37.93218" lon="15.7384067"><ele>29.0</ele><time>2026-04-20T13:40:10.805Z</time></trkpt><trkpt lat="37.9321267" lon="15.73854"><ele>29.4</ele><time>2026-04-20T13:40:11.803Z</time></trkpt><trkpt lat="37.9320667" lon="15.7386667"><ele>29.799999999999997</ele><time>2026-04-20T13:40:12.805Z</time></trkpt><trkpt lat="37.932" lon="15.7387833"><ele>30.200000000000003</ele><time>2026-04-20T13:40:13.802Z</time></trkpt><trkpt lat="37.93195" lon="15.7389083"><ele>30.6</ele><time>2026-04-20T13:40:14.803Z</time></trkpt><trkpt lat="37.9318767" lon="15.7389967"><ele>31.0</ele><time>2026-04-20T13:40:15.802Z</time></trkpt><trkpt lat="37.93179" lon="15.7390517"><ele>31.000000000000004</ele><time>2026-04-20T13:40:16.804Z</time></trkpt><trkpt lat="37.93171" lon="15.7390933"><ele>31.0</ele><time>2026-04-20T13:40:17.804Z</time></trkpt><trkpt lat="37.93166" lon="15.7391467"><ele>31.0</ele><time>2026-04-20T13:40:18.804Z</time></trkpt><trkpt lat="37.9316633" lon="15.739245"><ele>31.0</ele><time>2026-04-20T13:40:20.805Z</time></trkpt><trkpt lat="37.9317717" lon="15.7392883"><ele>31.000000000000004</ele><time>2026-04-20T13:40:22.805Z</time></trkpt><trkpt lat="37.9318433" lon="15.7393117"><ele>31.0</ele><time>2026-04-20T13:40:23.804Z</time></trkpt><trkpt lat="37.9319117" lon="15.7393483"><ele>31.000000000000004</ele><time>2026-04-20T13:40:24.805Z</time></trkpt><trkpt lat="37.93198" lon="15.7393833"><ele>31.0</ele><time>2026-04-20T13:40:25.803Z</time></trkpt><trkpt lat="37.932045" lon="15.7394117"><ele>31.0</ele><time>2026-04-20T13:40:26.804Z</time></trkpt><trkpt lat="37.9321033" lon="15.7394433"><ele>31.0</ele><time>2026-04-20T13:40:27.803Z</time></trkpt><trkpt lat="37.9322067" lon="15.7394817"><ele>31.000000000000004</ele><time>2026-04-20T13:40:29.804Z</time></trkpt><trkpt lat="37.932285" lon="15.7395133"><ele>31.0</ele><time>2026-04-20T13:40:31.804Z</time></trkpt><trkpt lat="37.9323483" lon="15.7395467"><ele>31.000000000000004</ele><time>2026-04-20T13:40:33.803Z</time></trkpt><trkpt lat="37.9323583" lon="15.7394617"><ele>31.0</ele><time>2026-04-20T13:40:37.804Z</time></trkpt><trkpt lat="37.9322867" lon="15.7394317"><ele>31.0</ele><time>2026-04-20T13:40:40.805Z</time></trkpt><trkpt lat="37.932215" lon="15.7394217"><ele>31.0</ele><time>2026-04-20T13:40:42.804Z</time></trkpt><trkpt lat="37.9321283" lon="15.7393767"><ele>31.000000000000004</ele><time>2026-04-20T13:40:44.805Z</time></trkpt><trkpt lat="37.9320317" lon="15.739355"><ele>31.0</ele><time>2026-04-20T13:40:46.805Z</time></trkpt><trkpt lat="37.9319367" lon="15.7393267"><ele>31.000000000000004</ele><time>2026-04-20T13:40:48.806Z</time></trkpt><trkpt lat="37.93185" lon="15.7392917"><ele>31.0</ele><time>2026-04-20T13:40:50.804Z</time></trkpt><trkpt lat="37.9317683" lon="15.7392717"><ele>31.0</ele><time>2026-04-20T13:40:52.803Z</time></trkpt><trkpt lat="37.9317" lon="15.7392233"><ele>31.0</ele><time>2026-04-20T13:40:55.806Z</time></trkpt><trkpt lat="37.9317433" lon="15.739295"><ele>31.000000000000004</ele><time>2026-04-20T13:41:07.806Z</time></trkpt><trkpt lat="37.931815" lon="15.7393083"><ele>31.0</ele><time>2026-04-20T13:41:10.804Z</time></trkpt><trkpt lat="37.9319017" lon="15.73935"><ele>31.000000000000004</ele><time>2026-04-20T13:41:13.803Z</time></trkpt><trkpt lat="37.9319767" lon="15.7393917"><ele>31.0</ele><time>2026-04-20T13:41:15.804Z</time></trkpt><trkpt lat="37.9320667" lon="15.739415"><ele>31.0</ele><time>2026-04-20T13:41:17.803Z</time></trkpt><trkpt lat="37.9321567" lon="15.73945"><ele>31.0</ele><time>2026-04-20T13:41:19.804Z</time></trkpt><trkpt lat="37.9322583" lon="15.7394933"><ele>31.000000000000004</ele><time>2026-04-20T13:41:21.803Z</time></trkpt><trkpt lat="37.9323233" lon="15.7395133"><ele>31.0</ele><time>2026-04-20T13:41:22.806Z</time></trkpt><trkpt lat="37.9324" lon="15.73953"><ele>31.000000000000004</ele><time>2026-04-20T13:41:23.805Z</time></trkpt><trkpt lat="37.9324733" lon="15.739555"><ele>31.0</ele><time>2026-04-20T13:41:24.805Z</time></trkpt><trkpt lat="37.9325467" lon="15.7395883"><ele>31.0</ele><time>2026-04-20T13:41:25.804Z</time></trkpt><trkpt lat="37.9326167" lon="15.7396333"><ele>31.0</ele><time>2026-04-20T13:41:26.803Z</time></trkpt><trkpt lat="37.932675" lon="15.73969"><ele>31.000000000000004</ele><time>2026-04-20T13:41:27.803Z</time></trkpt><trkpt lat="37.93272" lon="15.739765"><ele>31.0</ele><time>2026-04-20T13:41:28.804Z</time></trkpt><trkpt lat="37.93274" lon="15.7398567"><ele>31.166666666666668</ele><time>2026-04-20T13:41:29.807Z</time></trkpt><trkpt lat="37.9327417" lon="15.7399533"><ele>31.333333333333336</ele><time>2026-04-20T13:41:30.805Z</time></trkpt><trkpt lat="37.9327283" lon="15.7400433"><ele>31.5</ele><time>2026-04-20T13:41:31.804Z</time></trkpt><trkpt lat="37.93269" lon="15.74012"><ele>31.666666666666664</ele><time>2026-04-20T13:41:32.805Z</time></trkpt><trkpt lat="37.9326433" lon="15.740175"><ele>31.833333333333332</ele><time>2026-04-20T13:41:33.804Z</time></trkpt><trkpt lat="37.9325333" lon="15.740245"><ele>32.0</ele><time>2026-04-20T13:41:35.804Z</time></trkpt><trkpt lat="37.93247" lon="15.7402683"><ele>31.999999999999996</ele><time>2026-04-20T13:41:36.803Z</time></trkpt><trkpt lat="37.93241" lon="15.7403083"><ele>32.0</ele><time>2026-04-20T13:41:37.804Z</time></trkpt><trkpt lat="37.9323567" lon="15.7403617"><ele>32.0</ele><time>2026-04-20T13:41:38.803Z</time></trkpt><trkpt lat="37.9323067" lon="15.740495"><ele>32.0</ele><time>2026-04-20T13:41:40.804Z</time></trkpt><trkpt lat="37.9323717" lon="15.7406033"><ele>31.999999999999996</ele><time>2026-04-20T13:41:42.804Z</time></trkpt><trkpt lat="37.9324433" lon="15.7406333"><ele>32.0</ele><time>2026-04-20T13:41:43.804Z</time></trkpt><trkpt lat="37.9325117" lon="15.7406583"><ele>33.8</ele><time>2026-04-20T13:41:44.804Z</time></trkpt><trkpt lat="37.932575" lon="15.740725"><ele>35.6</ele><time>2026-04-20T13:41:45.804Z</time></trkpt><trkpt lat="37.9326433" lon="15.7407983"><ele>37.4</ele><time>2026-04-20T13:41:46.803Z</time></trkpt><trkpt lat="37.932745" lon="15.7407983"><ele>39.199999999999996</ele><time>2026-04-20T13:41:47.804Z</time></trkpt><trkpt lat="37.9328333" lon="15.7408383"><ele>41.0</ele><time>2026-04-20T13:41:48.804Z</time></trkpt><trkpt lat="37.9329317" lon="15.7408433"><ele>41.0</ele><time>2026-04-20T13:41:49.804Z</time></trkpt><trkpt lat="37.9330367" lon="15.740775"><ele>41.0</ele><time>2026-04-20T13:41:50.803Z</time></trkpt><trkpt lat="37.9331333" lon="15.7407083"><ele>41.0</ele><time>2026-04-20T13:41:51.803Z</time></trkpt><trkpt lat="37.933235" lon="15.7406533"><ele>41.0</ele><time>2026-04-20T13:41:52.804Z</time></trkpt><trkpt lat="37.933335" lon="15.740595"><ele>41.0</ele><time>2026-04-20T13:41:53.802Z</time></trkpt><trkpt lat="37.93343" lon="15.7405367"><ele>43.599999999999994</ele><time>2026-04-20T13:41:54.802Z</time></trkpt><trkpt lat="37.9335217" lon="15.7404817"><ele>46.2</ele><time>2026-04-20T13:41:55.803Z</time></trkpt><trkpt lat="37.9336117" lon="15.7404283"><ele>48.800000000000004</ele><time>2026-04-20T13:41:56.803Z</time></trkpt><trkpt lat="37.933705" lon="15.7403833"><ele>51.400000000000006</ele><time>2026-04-20T13:41:57.803Z</time></trkpt><trkpt lat="37.9338033" lon="15.7403583"><ele>54.0</ele><time>2026-04-20T13:41:58.804Z</time></trkpt><trkpt lat="37.9339067" lon="15.740355"><ele>54.0</ele><time>2026-04-20T13:41:59.803Z</time></trkpt><trkpt lat="37.9340117" lon="15.740375"><ele>54.00000000000001</ele><time>2026-04-20T13:42:00.802Z</time></trkpt><trkpt lat="37.9341167" lon="15.7403933"><ele>54.00000000000001</ele><time>2026-04-20T13:42:01.802Z</time></trkpt><trkpt lat="37.9342167" lon="15.7404383"><ele>54.0</ele><time>2026-04-20T13:42:02.803Z</time></trkpt><trkpt lat="37.934315" lon="15.7405067"><ele>54.0</ele><time>2026-04-20T13:42:03.803Z</time></trkpt><trkpt lat="37.9344117" lon="15.740585"><ele>56.75</ele><time>2026-04-20T13:42:04.803Z</time></trkpt><trkpt lat="37.934515" lon="15.7406533"><ele>59.5</ele><time>2026-04-20T13:42:05.803Z</time></trkpt><trkpt lat="37.9346283" lon="15.7407133"><ele>62.25</ele><time>2026-04-20T13:42:06.804Z</time></trkpt><trkpt lat="37.9347467" lon="15.740745"><ele>65.0</ele><time>2026-04-20T13:42:07.806Z</time></trkpt><trkpt lat="37.9348683" lon="15.74075"><ele>65.0</ele><time>2026-04-20T13:42:08.803Z</time></trkpt><trkpt lat="37.9349817" lon="15.7407083"><ele>65.0</ele><time>2026-04-20T13:42:09.804Z</time></trkpt><trkpt lat="37.9350817" lon="15.740635"><ele>65.0</ele><time>2026-04-20T13:42:10.803Z</time></trkpt><trkpt lat="37.9351633" lon="15.7405283"><ele>65.0</ele><time>2026-04-20T13:42:11.804Z</time></trkpt><trkpt lat="37.9352133" lon="15.7403917"><ele>68.0</ele><time>2026-04-20T13:42:12.803Z</time></trkpt><trkpt lat="37.9352367" lon="15.7402467"><ele>71.0</ele><time>2026-04-20T13:42:13.803Z</time></trkpt><trkpt lat="37.9352633" lon="15.7401033"><ele>74.0</ele><time>2026-04-20T13:42:14.805Z</time></trkpt><trkpt lat="37.93529" lon="15.73996"><ele>77.0</ele><time>2026-04-20T13:42:15.803Z</time></trkpt><trkpt lat="37.9353083" lon="15.7398183"><ele>77.0</ele><time>2026-04-20T13:42:16.802Z</time></trkpt><trkpt lat="37.9353317" lon="15.7396817"><ele>77.0</ele><time>2026-04-20T13:42:17.803Z</time></trkpt><trkpt lat="37.9353567" lon="15.7395483"><ele>77.0</ele><time>2026-04-20T13:42:18.804Z</time></trkpt><trkpt lat="37.9353833" lon="15.7394167"><ele>77.0</ele><time>2026-04-20T13:42:19.803Z</time></trkpt><trkpt lat="37.9354067" lon="15.7392967"><ele>77.0</ele><time>2026-04-20T13:42:20.804Z</time></trkpt><trkpt lat="37.9354283" lon="15.739195"><ele>76.2</ele><time>2026-04-20T13:42:21.803Z</time></trkpt><trkpt lat="37.9354433" lon="15.7391033"><ele>75.4</ele><time>2026-04-20T13:42:22.802Z</time></trkpt><trkpt lat="37.935495" lon="15.73899"><ele>74.6</ele><time>2026-04-20T13:42:24.804Z</time></trkpt><trkpt lat="37.93561" lon="15.7389667"><ele>73.8</ele><time>2026-04-20T13:42:26.803Z</time></trkpt><trkpt lat="37.9356783" lon="15.73896"><ele>73.0</ele><time>2026-04-20T13:42:27.803Z</time></trkpt><trkpt lat="37.93577" lon="15.7389717"><ele>73.0</ele><time>2026-04-20T13:42:28.805Z</time></trkpt><trkpt lat="37.9358683" lon="15.7389983"><ele>73.0</ele><time>2026-04-20T13:42:29.803Z</time></trkpt><trkpt lat="37.9359567" lon="15.7389983"><ele>73.0</ele><time>2026-04-20T13:42:30.804Z</time></trkpt><trkpt lat="37.9360333" lon="15.7389617"><ele>73.0</ele><time>2026-04-20T13:42:31.802Z</time></trkpt><trkpt lat="37.9360967" lon="15.7388817"><ele>73.0</ele><time>2026-04-20T13:42:32.803Z</time></trkpt><trkpt lat="37.9361267" lon="15.73877"><ele>75.0</ele><time>2026-04-20T13:42:33.802Z</time></trkpt><trkpt lat="37.9361283" lon="15.7386433"><ele>77.0</ele><time>2026-04-20T13:42:34.803Z</time></trkpt><trkpt lat="37.936125" lon="15.7385167"><ele>79.0</ele><time>2026-04-20T13:42:35.803Z</time></trkpt><trkpt lat="37.9361283" lon="15.7383867"><ele>81.0</ele><time>2026-04-20T13:42:36.805Z</time></trkpt><trkpt lat="37.9361467" lon="15.73826"><ele>83.0</ele><time>2026-04-20T13:42:37.803Z</time></trkpt><trkpt lat="37.9361867" lon="15.73814"><ele>83.0</ele><time>2026-04-20T13:42:38.804Z</time></trkpt><trkpt lat="37.9362417" lon="15.738025"><ele>83.0</ele><time>2026-04-20T13:42:39.803Z</time></trkpt><trkpt lat="37.9363183" lon="15.7379283"><ele>83.0</ele><time>2026-04-20T13:42:40.803Z</time></trkpt><trkpt lat="37.9364067" lon="15.7378383"><ele>83.0</ele><time>2026-04-20T13:42:41.803Z</time></trkpt><trkpt lat="37.9364833" lon="15.7377333"><ele>83.0</ele><time>2026-04-20T13:42:42.806Z</time></trkpt><trkpt lat="37.9365617" lon="15.7376267"><ele>82.80000000000001</ele><time>2026-04-20T13:42:43.803Z</time></trkpt><trkpt lat="37.93665" lon="15.7375317"><ele>82.6</ele><time>2026-04-20T13:42:44.805Z</time></trkpt><trkpt lat="37.9367067" lon="15.737415"><ele>82.4</ele><time>2026-04-20T13:42:45.804Z</time></trkpt><trkpt lat="37.9367383" lon="15.7372817"><ele>82.19999999999999</ele><time>2026-04-20T13:42:46.802Z</time></trkpt><trkpt lat="37.9367417" lon="15.73714"><ele>82.0</ele><time>2026-04-20T13:42:47.803Z</time></trkpt><trkpt lat="37.9367333" lon="15.7369933"><ele>84.75</ele><time>2026-04-20T13:42:48.803Z</time></trkpt><trkpt lat="37.9367417" lon="15.7368483"><ele>87.5</ele><time>2026-04-20T13:42:49.804Z</time></trkpt><trkpt lat="37.936755" lon="15.736705"><ele>90.25</ele><time>2026-04-20T13:42:50.804Z</time></trkpt><trkpt lat="37.9367667" lon="15.7365633"><ele>93.0</ele><time>2026-04-20T13:42:51.806Z</time></trkpt><trkpt lat="37.93677" lon="15.736425"><ele>93.0</ele><time>2026-04-20T13:42:52.804Z</time></trkpt><trkpt lat="37.93677" lon="15.7362917"><ele>93.0</ele><time>2026-04-20T13:42:53.803Z</time></trkpt><trkpt lat="37.93678" lon="15.7361633"><ele>93.0</ele><time>2026-04-20T13:42:54.803Z</time></trkpt><trkpt lat="37.9368033" lon="15.7360383"><ele>93.0</ele><time>2026-04-20T13:42:55.803Z</time></trkpt><trkpt lat="37.93686" lon="15.7359383"><ele>93.0</ele><time>2026-04-20T13:42:56.804Z</time></trkpt><trkpt lat="37.9369383" lon="15.73588"><ele>93.0</ele><time>2026-04-20T13:42:57.803Z</time></trkpt><trkpt lat="37.93702" lon="15.73585"><ele>93.0</ele><time>2026-04-20T13:42:58.805Z</time></trkpt><trkpt lat="37.9371017" lon="15.735845"><ele>93.0</ele><time>2026-04-20T13:42:59.803Z</time></trkpt><trkpt lat="37.9371833" lon="15.7359033"><ele>93.0</ele><time>2026-04-20T13:43:00.803Z</time></trkpt><trkpt lat="37.9372533" lon="15.7359967"><ele>93.0</ele><time>2026-04-20T13:43:01.802Z</time></trkpt><trkpt lat="37.93729" lon="15.7361133"><ele>93.0</ele><time>2026-04-20T13:43:02.804Z</time></trkpt><trkpt lat="37.937315" lon="15.7362483"><ele>93.0</ele><time>2026-04-20T13:43:03.802Z</time></trkpt><trkpt lat="37.9373417" lon="15.736385"><ele>93.0</ele><time>2026-04-20T13:43:04.803Z</time></trkpt><trkpt lat="37.93737" lon="15.7365283"><ele>93.0</ele><time>2026-04-20T13:43:05.805Z</time></trkpt><trkpt lat="37.9374117" lon="15.73667"><ele>93.0</ele><time>2026-04-20T13:43:06.803Z</time></trkpt><trkpt lat="37.9374683" lon="15.7368083"><ele>93.0</ele><time>2026-04-20T13:43:07.803Z</time></trkpt><trkpt lat="37.93754" lon="15.7369367"><ele>93.0</ele><time>2026-04-20T13:43:08.804Z</time></trkpt><trkpt lat="37.9376367" lon="15.7370417"><ele>93.0</ele><time>2026-04-20T13:43:09.804Z</time></trkpt><trkpt lat="37.937705" lon="15.737175"><ele>94.25</ele><time>2026-04-20T13:43:10.803Z</time></trkpt><trkpt lat="37.9377717" lon="15.7373033"><ele>95.5</ele><time>2026-04-20T13:43:11.803Z</time></trkpt><trkpt lat="37.937845" lon="15.73742"><ele>96.75</ele><time>2026-04-20T13:43:12.804Z</time></trkpt><trkpt lat="37.9379383" lon="15.7375033"><ele>98.0</ele><time>2026-04-20T13:43:13.804Z</time></trkpt><trkpt lat="37.9380483" lon="15.737545"><ele>98.0</ele><time>2026-04-20T13:43:14.802Z</time></trkpt><trkpt lat="37.9381583" lon="15.7375817"><ele>98.0</ele><time>2026-04-20T13:43:15.803Z</time></trkpt><trkpt lat="37.9382633" lon="15.7376183"><ele>98.0</ele><time>2026-04-20T13:43:16.803Z</time></trkpt><trkpt lat="37.938365" lon="15.737655"><ele>98.0</ele><time>2026-04-20T13:43:17.803Z</time></trkpt><trkpt lat="37.9384667" lon="15.7376883"><ele>98.0</ele><time>2026-04-20T13:43:18.804Z</time></trkpt><trkpt lat="37.9385583" lon="15.737745"><ele>103.0</ele><time>2026-04-20T13:43:19.804Z</time></trkpt><trkpt lat="37.9386133" lon="15.73785"><ele>108.0</ele><time>2026-04-20T13:43:20.806Z</time></trkpt><trkpt lat="37.93866" lon="15.73797"><ele>113.00000000000001</ele><time>2026-04-20T13:43:21.803Z</time></trkpt><trkpt lat="37.9386667" lon="15.7381117"><ele>118.0</ele><time>2026-04-20T13:43:22.803Z</time></trkpt><trkpt lat="37.9386517" lon="15.738255"><ele>123.0</ele><time>2026-04-20T13:43:23.802Z</time></trkpt><trkpt lat="37.93862" lon="15.738395"><ele>123.0</ele><time>2026-04-20T13:43:24.804Z</time></trkpt><trkpt lat="37.9385883" lon="15.7385317"><ele>123.0</ele><time>2026-04-20T13:43:25.803Z</time></trkpt><trkpt lat="37.938555" lon="15.73867"><ele>123.0</ele><time>2026-04-20T13:43:26.803Z</time></trkpt><trkpt lat="37.9385217" lon="15.73881"><ele>123.0</ele><time>2026-04-20T13:43:27.803Z</time></trkpt><trkpt lat="37.9384883" lon="15.73895"><ele>123.25</ele><time>2026-04-20T13:43:28.803Z</time></trkpt><trkpt lat="37.9384567" lon="15.7390933"><ele>123.5</ele><time>2026-04-20T13:43:29.803Z</time></trkpt><trkpt lat="37.9384217" lon="15.73923"><ele>123.75</ele><time>2026-04-20T13:43:30.803Z</time></trkpt><trkpt lat="37.9383833" lon="15.739365"><ele>124.0</ele><time>2026-04-20T13:43:31.802Z</time></trkpt><trkpt lat="37.9383383" lon="15.7394967"><ele>120.6</ele><time>2026-04-20T13:43:32.802Z</time></trkpt><trkpt lat="37.9382867" lon="15.7396167"><ele>117.2</ele><time>2026-04-20T13:43:33.804Z</time></trkpt><trkpt lat="37.93824" lon="15.739735"><ele>113.79999999999998</ele><time>2026-04-20T13:43:34.803Z</time></trkpt><trkpt lat="37.9382017" lon="15.73985"><ele>110.39999999999999</ele><time>2026-04-20T13:43:35.803Z</time></trkpt><trkpt lat="37.938205" lon="15.7399667"><ele>107.0</ele><time>2026-04-20T13:43:36.804Z</time></trkpt><trkpt lat="37.9382483" lon="15.7400683"><ele>107.0</ele><time>2026-04-20T13:43:37.803Z</time></trkpt><trkpt lat="37.938325" lon="15.7401367"><ele>106.99999999999999</ele><time>2026-04-20T13:43:38.804Z</time></trkpt><trkpt lat="37.9384083" lon="15.74018"><ele>106.99999999999999</ele><time>2026-04-20T13:43:39.804Z</time></trkpt><trkpt lat="37.9384933" lon="15.7401733"><ele>107.0</ele><time>2026-04-20T13:43:40.805Z</time></trkpt><trkpt lat="37.938575" lon="15.7400917"><ele>107.0</ele><time>2026-04-20T13:43:41.804Z</time></trkpt><trkpt lat="37.9386517" lon="15.740025"><ele>110.0</ele><time>2026-04-20T13:43:42.804Z</time></trkpt><trkpt lat="37.938735" lon="15.739975"><ele>112.99999999999999</ele><time>2026-04-20T13:43:43.802Z</time></trkpt><trkpt lat="37.9388233" lon="15.739915"><ele>115.99999999999999</ele><time>2026-04-20T13:43:44.804Z</time></trkpt><trkpt lat="37.9389133" lon="15.7398633"><ele>119.0</ele><time>2026-04-20T13:43:45.802Z</time></trkpt><trkpt lat="37.9390067" lon="15.739825"><ele>122.0</ele><time>2026-04-20T13:43:46.804Z</time></trkpt><trkpt lat="37.9391033" lon="15.7397917"><ele>121.99999999999999</ele><time>2026-04-20T13:43:47.805Z</time></trkpt><trkpt lat="37.9391967" lon="15.73979"><ele>122.0</ele><time>2026-04-20T13:43:48.802Z</time></trkpt><trkpt lat="37.9392783" lon="15.739825"><ele>122.0</ele><time>2026-04-20T13:43:49.803Z</time></trkpt><trkpt lat="37.9393433" lon="15.7398867"><ele>122.0</ele><time>2026-04-20T13:43:50.807Z</time></trkpt><trkpt lat="37.939395" lon="15.7399667"><ele>121.99999999999999</ele><time>2026-04-20T13:43:51.803Z</time></trkpt><trkpt lat="37.93943" lon="15.7400683"><ele>122.0</ele><time>2026-04-20T13:43:52.802Z</time></trkpt><trkpt lat="37.9394517" lon="15.7401833"><ele>124.6</ele><time>2026-04-20T13:43:53.804Z</time></trkpt><trkpt lat="37.9394817" lon="15.7403"><ele>127.19999999999999</ele><time>2026-04-20T13:43:54.805Z</time></trkpt><trkpt lat="37.9395217" lon="15.740415"><ele>129.8</ele><time>2026-04-20T13:43:55.802Z</time></trkpt><trkpt lat="37.939525" lon="15.7405333"><ele>132.4</ele><time>2026-04-20T13:43:56.804Z</time></trkpt><trkpt lat="37.9395117" lon="15.7406533"><ele>135.0</ele><time>2026-04-20T13:43:57.803Z</time></trkpt><trkpt lat="37.93947" lon="15.7407633"><ele>135.0</ele><time>2026-04-20T13:43:58.804Z</time></trkpt><trkpt lat="37.9394083" lon="15.74086"><ele>135.0</ele><time>2026-04-20T13:43:59.804Z</time></trkpt><trkpt lat="37.93934" lon="15.74095"><ele>135.0</ele><time>2026-04-20T13:44:00.803Z</time></trkpt><trkpt lat="37.9392717" lon="15.7410533"><ele>135.0</ele><time>2026-04-20T13:44:01.803Z</time></trkpt><trkpt lat="37.9391917" lon="15.7411467"><ele>135.0</ele><time>2026-04-20T13:44:02.804Z</time></trkpt><trkpt lat="37.9391267" lon="15.7412717"><ele>134.75</ele><time>2026-04-20T13:44:03.803Z</time></trkpt><trkpt lat="37.9390367" lon="15.74136"><ele>134.5</ele><time>2026-04-20T13:44:04.804Z</time></trkpt><trkpt lat="37.9389583" lon="15.74147"><ele>134.25</ele><time>2026-04-20T13:44:05.804Z</time></trkpt><trkpt lat="37.9388833" lon="15.7415817"><ele>134.0</ele><time>2026-04-20T13:44:06.804Z</time></trkpt><trkpt lat="37.9388233" lon="15.7416983"><ele>134.0</ele><time>2026-04-20T13:44:07.803Z</time></trkpt><trkpt lat="37.9387717" lon="15.741825"><ele>134.0</ele><time>2026-04-20T13:44:08.805Z</time></trkpt><trkpt lat="37.9387383" lon="15.7419717"><ele>134.0</ele><time>2026-04-20T13:44:09.803Z</time></trkpt><trkpt lat="37.93872" lon="15.7421317"><ele>134.0</ele><time>2026-04-20T13:44:10.803Z</time></trkpt><trkpt lat="37.93869" lon="15.7422917"><ele>137.0</ele><time>2026-04-20T13:44:11.804Z</time></trkpt><trkpt lat="37.9386617" lon="15.742445"><ele>140.0</ele><time>2026-04-20T13:44:12.805Z</time></trkpt><trkpt lat="37.9386383" lon="15.74259"><ele>143.0</ele><time>2026-04-20T13:44:13.804Z</time></trkpt><trkpt lat="37.9386083" lon="15.7427267"><ele>146.0</ele><time>2026-04-20T13:44:14.805Z</time></trkpt><trkpt lat="37.9385867" lon="15.74286"><ele>146.4</ele><time>2026-04-20T13:44:15.803Z</time></trkpt><trkpt lat="37.9386217" lon="15.7429833"><ele>146.8</ele><time>2026-04-20T13:44:16.804Z</time></trkpt><trkpt lat="37.9387" lon="15.7430817"><ele>147.20000000000002</ele><time>2026-04-20T13:44:17.804Z</time></trkpt><trkpt lat="37.9388" lon="15.7431617"><ele>147.6</ele><time>2026-04-20T13:44:18.805Z</time></trkpt><trkpt lat="37.93888" lon="15.7432617"><ele>148.0</ele><time>2026-04-20T13:44:19.803Z</time></trkpt><trkpt lat="37.93896" lon="15.7433617"><ele>148.0</ele><time>2026-04-20T13:44:20.805Z</time></trkpt><trkpt lat="37.939015" lon="15.7434817"><ele>148.0</ele><time>2026-04-20T13:44:21.803Z</time></trkpt><trkpt lat="37.939055" lon="15.7436167"><ele>148.0</ele><time>2026-04-20T13:44:22.803Z</time></trkpt><trkpt lat="37.93909" lon="15.74375"><ele>148.0</ele><time>2026-04-20T13:44:23.804Z</time></trkpt><trkpt lat="37.9391217" lon="15.7438867"><ele>148.0</ele><time>2026-04-20T13:44:24.804Z</time></trkpt><trkpt lat="37.9391517" lon="15.744025"><ele>149.0</ele><time>2026-04-20T13:44:25.803Z</time></trkpt><trkpt lat="37.9391783" lon="15.7441767"><ele>150.0</ele><time>2026-04-20T13:44:26.805Z</time></trkpt><trkpt lat="37.9392317" lon="15.7443133"><ele>151.0</ele><time>2026-04-20T13:44:27.804Z</time></trkpt><trkpt lat="37.9393183" lon="15.7444283"><ele>152.0</ele><time>2026-04-20T13:44:28.804Z</time></trkpt><trkpt lat="37.9394167" lon="15.744535"><ele>152.0</ele><time>2026-04-20T13:44:29.804Z</time></trkpt><trkpt lat="37.939505" lon="15.7446533"><ele>152.0</ele><time>2026-04-20T13:44:30.803Z</time></trkpt><trkpt lat="37.9395933" lon="15.7447783"><ele>152.0</ele><time>2026-04-20T13:44:31.804Z</time></trkpt><trkpt lat="37.9396883" lon="15.74489"><ele>152.0</ele><time>2026-04-20T13:44:32.804Z</time></trkpt><trkpt lat="37.9397883" lon="15.7450017"><ele>152.0</ele><time>2026-04-20T13:44:33.804Z</time></trkpt><trkpt lat="37.9398867" lon="15.74512"><ele>152.0</ele><time>2026-04-20T13:44:34.804Z</time></trkpt><trkpt lat="37.9399817" lon="15.7452383"><ele>152.0</ele><time>2026-04-20T13:44:35.804Z</time></trkpt><trkpt lat="37.9400783" lon="15.7453517"><ele>152.0</ele><time>2026-04-20T13:44:36.803Z</time></trkpt><trkpt lat="37.940175" lon="15.7454583"><ele>152.75</ele><time>2026-04-20T13:44:37.802Z</time></trkpt><trkpt lat="37.940265" lon="15.7455667"><ele>153.5</ele><time>2026-04-20T13:44:38.804Z</time></trkpt><trkpt lat="37.94035" lon="15.7456783"><ele>154.25</ele><time>2026-04-20T13:44:39.804Z</time></trkpt><trkpt lat="37.9404383" lon="15.74578"><ele>155.0</ele><time>2026-04-20T13:44:40.804Z</time></trkpt><trkpt lat="37.9405467" lon="15.7458483"><ele>155.0</ele><time>2026-04-20T13:44:41.803Z</time></trkpt><trkpt lat="37.940665" lon="15.7458983"><ele>155.0</ele><time>2026-04-20T13:44:42.804Z</time></trkpt><trkpt lat="37.940785" lon="15.7459383"><ele>155.0</ele><time>2026-04-20T13:44:43.804Z</time></trkpt><trkpt lat="37.9409067" lon="15.74598"><ele>155.0</ele><time>2026-04-20T13:44:44.805Z</time></trkpt><trkpt lat="37.9410317" lon="15.74601"><ele>156.75</ele><time>2026-04-20T13:44:45.804Z</time></trkpt><trkpt lat="37.9411617" lon="15.7460167"><ele>158.5</ele><time>2026-04-20T13:44:46.805Z</time></trkpt><trkpt lat="37.9412917" lon="15.7460033"><ele>160.25</ele><time>2026-04-20T13:44:47.805Z</time></trkpt><trkpt lat="37.941425" lon="15.7459867"><ele>162.0</ele><time>2026-04-20T13:44:48.803Z</time></trkpt><trkpt lat="37.9415583" lon="15.7459717"><ele>162.0</ele><time>2026-04-20T13:44:49.804Z</time></trkpt><trkpt lat="37.9416933" lon="15.7459583"><ele>162.0</ele><time>2026-04-20T13:44:50.804Z</time></trkpt><trkpt lat="37.9418267" lon="15.745945"><ele>162.0</ele><time>2026-04-20T13:44:51.803Z</time></trkpt><trkpt lat="37.9419617" lon="15.7459317"><ele>162.0</ele><time>2026-04-20T13:44:52.804Z</time></trkpt><trkpt lat="37.9421017" lon="15.7459133"><ele>163.0</ele><time>2026-04-20T13:44:53.803Z</time></trkpt><trkpt lat="37.9422383" lon="15.745895"><ele>164.0</ele><time>2026-04-20T13:44:54.803Z</time></trkpt><trkpt lat="37.9423767" lon="15.745875"><ele>165.0</ele><time>2026-04-20T13:44:55.808Z</time></trkpt><trkpt lat="37.942515" lon="15.74586"><ele>166.0</ele><time>2026-04-20T13:44:56.806Z</time></trkpt><trkpt lat="37.94265" lon="15.7458617"><ele>167.25</ele><time>2026-04-20T13:44:57.805Z</time></trkpt><trkpt lat="37.9427833" lon="15.7458483"><ele>168.5</ele><time>2026-04-20T13:44:58.805Z</time></trkpt><trkpt lat="37.942915" lon="15.745815"><ele>169.75</ele><time>2026-04-20T13:44:59.802Z</time></trkpt><trkpt lat="37.9430483" lon="15.74579"><ele>171.0</ele><time>2026-04-20T13:45:00.805Z</time></trkpt><trkpt lat="37.943185" lon="15.7457667"><ele>171.0</ele><time>2026-04-20T13:45:01.803Z</time></trkpt><trkpt lat="37.9433217" lon="15.7457533"><ele>171.0</ele><time>2026-04-20T13:45:02.805Z</time></trkpt><trkpt lat="37.9434517" lon="15.7457717"><ele>171.0</ele><time>2026-04-20T13:45:03.803Z</time></trkpt><trkpt lat="37.9435767" lon="15.745825"><ele>171.0</ele><time>2026-04-20T13:45:04.804Z</time></trkpt><trkpt lat="37.9436883" lon="15.7459333"><ele>170.25</ele><time>2026-04-20T13:45:05.804Z</time></trkpt><trkpt lat="37.9438" lon="15.7460133"><ele>169.5</ele><time>2026-04-20T13:45:06.804Z</time></trkpt><trkpt lat="37.94392" lon="15.7460533"><ele>168.75</ele><time>2026-04-20T13:45:07.804Z</time></trkpt><trkpt lat="37.944045" lon="15.7460367"><ele>168.0</ele><time>2026-04-20T13:45:08.804Z</time></trkpt><trkpt lat="37.9441767" lon="15.74596"><ele>170.75</ele><time>2026-04-20T13:45:09.804Z</time></trkpt><trkpt lat="37.94431" lon="15.7458767"><ele>173.5</ele><time>2026-04-20T13:45:10.805Z</time></trkpt><trkpt lat="37.9444517" lon="15.745825"><ele>176.25</ele><time>2026-04-20T13:45:11.803Z</time></trkpt><trkpt lat="37.944595" lon="15.74579"><ele>179.0</ele><time>2026-04-20T13:45:12.803Z</time></trkpt><trkpt lat="37.94474" lon="15.7457783"><ele>179.0</ele><time>2026-04-20T13:45:13.804Z</time></trkpt><trkpt lat="37.9448833" lon="15.745795"><ele>179.0</ele><time>2026-04-20T13:45:14.805Z</time></trkpt><trkpt lat="37.9450317" lon="15.7458267"><ele>179.0</ele><time>2026-04-20T13:45:15.803Z</time></trkpt><trkpt lat="37.9451767" lon="15.7458667"><ele>179.0</ele><time>2026-04-20T13:45:16.804Z</time></trkpt><trkpt lat="37.9453067" lon="15.7458967"><ele>180.6</ele><time>2026-04-20T13:45:17.804Z</time></trkpt><trkpt lat="37.9454167" lon="15.745925"><ele>182.2</ele><time>2026-04-20T13:45:18.804Z</time></trkpt><trkpt lat="37.9455133" lon="15.7459583"><ele>183.79999999999998</ele><time>2026-04-20T13:45:19.804Z</time></trkpt><trkpt lat="37.945575" lon="15.74604"><ele>185.39999999999998</ele><time>2026-04-20T13:45:20.806Z</time></trkpt><trkpt lat="37.9455917" lon="15.7461667"><ele>187.0</ele><time>2026-04-20T13:45:21.804Z</time></trkpt><trkpt lat="37.945565" lon="15.746305"><ele>188.0</ele><time>2026-04-20T13:45:22.804Z</time></trkpt><trkpt lat="37.9455133" lon="15.7464533"><ele>189.0</ele><time>2026-04-20T13:45:23.803Z</time></trkpt><trkpt lat="37.945445" lon="15.746635"><ele>190.0</ele><time>2026-04-20T13:45:24.804Z</time></trkpt><trkpt lat="37.9453733" lon="15.746835"><ele>189.66666666666669</ele><time>2026-04-20T13:45:25.804Z</time></trkpt><trkpt lat="37.9453183" lon="15.7470317"><ele>189.33333333333334</ele><time>2026-04-20T13:45:26.805Z</time></trkpt><trkpt lat="37.945285" lon="15.7472167"><ele>189.0</ele><time>2026-04-20T13:45:27.804Z</time></trkpt><trkpt lat="37.94528" lon="15.7473933"><ele>189.0</ele><time>2026-04-20T13:45:28.804Z</time></trkpt><trkpt lat="37.9452967" lon="15.7475633"><ele>189.0</ele><time>2026-04-20T13:45:29.804Z</time></trkpt><trkpt lat="37.9453183" lon="15.7477317"><ele>189.0</ele><time>2026-04-20T13:45:30.803Z</time></trkpt><trkpt lat="37.9453433" lon="15.7478967"><ele>189.0</ele><time>2026-04-20T13:45:31.803Z</time></trkpt><trkpt lat="37.9453683" lon="15.7480617"><ele>189.0</ele><time>2026-04-20T13:45:32.804Z</time></trkpt><trkpt lat="37.945395" lon="15.7482217"><ele>189.0</ele><time>2026-04-20T13:45:33.804Z</time></trkpt><trkpt lat="37.9454217" lon="15.74838"><ele>189.0</ele><time>2026-04-20T13:45:34.803Z</time></trkpt><trkpt lat="37.9454433" lon="15.7485383"><ele>189.0</ele><time>2026-04-20T13:45:35.803Z</time></trkpt><trkpt lat="37.945465" lon="15.7486983"><ele>188.25</ele><time>2026-04-20T13:45:36.804Z</time></trkpt><trkpt lat="37.9454917" lon="15.74886"><ele>187.5</ele><time>2026-04-20T13:45:37.804Z</time></trkpt><trkpt lat="37.9455167" lon="15.7490233"><ele>186.75</ele><time>2026-04-20T13:45:38.804Z</time></trkpt><trkpt lat="37.94554" lon="15.7491867"><ele>186.0</ele><time>2026-04-20T13:45:39.804Z</time></trkpt><trkpt lat="37.9455667" lon="15.74935"><ele>186.5</ele><time>2026-04-20T13:45:40.805Z</time></trkpt><trkpt lat="37.94559" lon="15.7495117"><ele>187.0</ele><time>2026-04-20T13:45:41.804Z</time></trkpt><trkpt lat="37.9456033" lon="15.7496733"><ele>187.5</ele><time>2026-04-20T13:45:42.804Z</time></trkpt><trkpt lat="37.9456033" lon="15.7498383"><ele>188.0</ele><time>2026-04-20T13:45:43.804Z</time></trkpt><trkpt lat="37.9456067" lon="15.7500033"><ele>188.0</ele><time>2026-04-20T13:45:44.805Z</time></trkpt><trkpt lat="37.94563" lon="15.7501633"><ele>188.0</ele><time>2026-04-20T13:45:45.804Z</time></trkpt><trkpt lat="37.9456633" lon="15.7503217"><ele>188.0</ele><time>2026-04-20T13:45:46.804Z</time></trkpt><trkpt lat="37.9456983" lon="15.7504783"><ele>188.0</ele><time>2026-04-20T13:45:47.803Z</time></trkpt><trkpt lat="37.94575" lon="15.7506283"><ele>187.5</ele><time>2026-04-20T13:45:48.804Z</time></trkpt><trkpt lat="37.9457983" lon="15.7507767"><ele>187.0</ele><time>2026-04-20T13:45:49.804Z</time></trkpt><trkpt lat="37.945865" lon="15.7508967"><ele>186.5</ele><time>2026-04-20T13:45:50.804Z</time></trkpt><trkpt lat="37.9459533" lon="15.7509767"><ele>186.0</ele><time>2026-04-20T13:45:51.804Z</time></trkpt><trkpt lat="37.9460567" lon="15.7509933"><ele>187.60000000000002</ele><time>2026-04-20T13:45:52.805Z</time></trkpt><trkpt lat="37.9461633" lon="15.75095"><ele>189.2</ele><time>2026-04-20T13:45:53.804Z</time></trkpt><trkpt lat="37.946265" lon="15.75089"><ele>190.8</ele><time>2026-04-20T13:45:54.803Z</time></trkpt><trkpt lat="37.9463617" lon="15.7508183"><ele>192.39999999999998</ele><time>2026-04-20T13:45:55.803Z</time></trkpt><trkpt lat="37.9464517" lon="15.75076"><ele>194.0</ele><time>2026-04-20T13:45:56.803Z</time></trkpt><trkpt lat="37.946545" lon="15.75075"><ele>194.0</ele><time>2026-04-20T13:45:57.805Z</time></trkpt><trkpt lat="37.946635" lon="15.7507967"><ele>194.0</ele><time>2026-04-20T13:45:58.804Z</time></trkpt><trkpt lat="37.94671" lon="15.7509"><ele>194.0</ele><time>2026-04-20T13:45:59.803Z</time></trkpt><trkpt lat="37.9467933" lon="15.7509967"><ele>194.0</ele><time>2026-04-20T13:46:00.805Z</time></trkpt><trkpt lat="37.9468817" lon="15.7511017"><ele>194.0</ele><time>2026-04-20T13:46:01.804Z</time></trkpt><trkpt lat="37.9469617" lon="15.7512267"><ele>194.75</ele><time>2026-04-20T13:46:02.805Z</time></trkpt><trkpt lat="37.947045" lon="15.751345"><ele>195.5</ele><time>2026-04-20T13:46:03.804Z</time></trkpt><trkpt lat="37.9471433" lon="15.75146"><ele>196.25</ele><time>2026-04-20T13:46:04.805Z</time></trkpt><trkpt lat="37.9472533" lon="15.7515683"><ele>197.0</ele><time>2026-04-20T13:46:05.804Z</time></trkpt><trkpt lat="37.947365" lon="15.751675"><ele>197.0</ele><time>2026-04-20T13:46:06.804Z</time></trkpt><trkpt lat="37.9474783" lon="15.7517883"><ele>197.0</ele><time>2026-04-20T13:46:07.803Z</time></trkpt><trkpt lat="37.947595" lon="15.7518933"><ele>197.0</ele><time>2026-04-20T13:46:08.803Z</time></trkpt><trkpt lat="37.9477167" lon="15.7519817"><ele>197.0</ele><time>2026-04-20T13:46:09.804Z</time></trkpt><trkpt lat="37.9478417" lon="15.75206"><ele>198.5</ele><time>2026-04-20T13:46:10.803Z</time></trkpt><trkpt lat="37.9479733" lon="15.7521233"><ele>200.0</ele><time>2026-04-20T13:46:11.803Z</time></trkpt><trkpt lat="37.9481" lon="15.75219"><ele>201.5</ele><time>2026-04-20T13:46:12.804Z</time></trkpt><trkpt lat="37.9482267" lon="15.7522583"><ele>203.0</ele><time>2026-04-20T13:46:13.804Z</time></trkpt><trkpt lat="37.94835" lon="15.7523267"><ele>202.75</ele><time>2026-04-20T13:46:14.805Z</time></trkpt><trkpt lat="37.9484567" lon="15.75241"><ele>202.5</ele><time>2026-04-20T13:46:15.803Z</time></trkpt><trkpt lat="37.948545" lon="15.752515"><ele>202.25</ele><time>2026-04-20T13:46:16.806Z</time></trkpt><trkpt lat="37.94859" lon="15.7526567"><ele>202.0</ele><time>2026-04-20T13:46:17.804Z</time></trkpt><trkpt lat="37.948605" lon="15.7528167"><ele>202.0</ele><time>2026-04-20T13:46:18.805Z</time></trkpt><trkpt lat="37.9486417" lon="15.75297"><ele>202.0</ele><time>2026-04-20T13:46:19.804Z</time></trkpt><trkpt lat="37.9487067" lon="15.753095"><ele>202.0</ele><time>2026-04-20T13:46:20.803Z</time></trkpt><trkpt lat="37.9487967" lon="15.7531867"><ele>202.0</ele><time>2026-04-20T13:46:21.804Z</time></trkpt><trkpt lat="37.948905" lon="15.75323"><ele>202.0</ele><time>2026-04-20T13:46:22.806Z</time></trkpt><trkpt lat="37.949025" lon="15.753235"><ele>202.0</ele><time>2026-04-20T13:46:23.804Z</time></trkpt><trkpt lat="37.94915" lon="15.7532417"><ele>202.0</ele><time>2026-04-20T13:46:24.804Z</time></trkpt><trkpt lat="37.9492767" lon="15.7532517"><ele>202.0</ele><time>2026-04-20T13:46:25.803Z</time></trkpt><trkpt lat="37.9493917" lon="15.753225"><ele>201.25</ele><time>2026-04-20T13:46:26.804Z</time></trkpt><trkpt lat="37.94949" lon="15.7531383"><ele>200.5</ele><time>2026-04-20T13:46:27.804Z</time></trkpt><trkpt lat="37.9495683" lon="15.7530167"><ele>199.75</ele><time>2026-04-20T13:46:28.805Z</time></trkpt><trkpt lat="37.94962" lon="15.7528633"><ele>199.0</ele><time>2026-04-20T13:46:29.804Z</time></trkpt><trkpt lat="37.9496483" lon="15.75269"><ele>201.75</ele><time>2026-04-20T13:46:30.806Z</time></trkpt><trkpt lat="37.949695" lon="15.7525283"><ele>204.5</ele><time>2026-04-20T13:46:31.804Z</time></trkpt><trkpt lat="37.9497383" lon="15.7523667"><ele>207.25</ele><time>2026-04-20T13:46:32.805Z</time></trkpt><trkpt lat="37.9497867" lon="15.75221"><ele>210.0</ele><time>2026-04-20T13:46:33.804Z</time></trkpt><trkpt lat="37.94984" lon="15.75206"><ele>210.0</ele><time>2026-04-20T13:46:34.804Z</time></trkpt><trkpt lat="37.9498883" lon="15.7519183"><ele>210.0</ele><time>2026-04-20T13:46:35.804Z</time></trkpt><trkpt lat="37.9499467" lon="15.751785"><ele>210.0</ele><time>2026-04-20T13:46:36.803Z</time></trkpt><trkpt lat="37.9500133" lon="15.751675"><ele>210.0</ele><time>2026-04-20T13:46:37.804Z</time></trkpt><trkpt lat="37.9500883" lon="15.7516117"><ele>210.0</ele><time>2026-04-20T13:46:38.805Z</time></trkpt><trkpt lat="37.9501683" lon="15.7516117"><ele>214.0</ele><time>2026-04-20T13:46:39.805Z</time></trkpt><trkpt lat="37.9502433" lon="15.75166"><ele>218.0</ele><time>2026-04-20T13:46:40.804Z</time></trkpt><trkpt lat="37.9503067" lon="15.7517917"><ele>222.0</ele><time>2026-04-20T13:46:41.803Z</time></trkpt><trkpt lat="37.9503483" lon="15.7519367"><ele>226.0</ele><time>2026-04-20T13:46:42.804Z</time></trkpt><trkpt lat="37.9504067" lon="15.75208"><ele>226.0</ele><time>2026-04-20T13:46:43.802Z</time></trkpt><trkpt lat="37.9504517" lon="15.75225"><ele>226.0</ele><time>2026-04-20T13:46:44.804Z</time></trkpt><trkpt lat="37.9505133" lon="15.7524117"><ele>226.0</ele><time>2026-04-20T13:46:45.802Z</time></trkpt><trkpt lat="37.9506033" lon="15.7525533"><ele>226.0</ele><time>2026-04-20T13:46:46.803Z</time></trkpt><trkpt lat="37.9507133" lon="15.7526733"><ele>226.25</ele><time>2026-04-20T13:46:47.803Z</time></trkpt><trkpt lat="37.95083" lon="15.75278"><ele>226.5</ele><time>2026-04-20T13:46:48.805Z</time></trkpt><trkpt lat="37.9509317" lon="15.7528883"><ele>226.75</ele><time>2026-04-20T13:46:49.803Z</time></trkpt><trkpt lat="37.9510283" lon="15.75299"><ele>227.0</ele><time>2026-04-20T13:46:50.802Z</time></trkpt><trkpt lat="37.951125" lon="15.7530783"><ele>227.0</ele><time>2026-04-20T13:46:51.803Z</time></trkpt><trkpt lat="37.9512333" lon="15.7531217"><ele>227.0</ele><time>2026-04-20T13:46:52.802Z</time></trkpt><trkpt lat="37.951355" lon="15.7531267"><ele>227.0</ele><time>2026-04-20T13:46:53.803Z</time></trkpt><trkpt lat="37.951475" lon="15.753165"><ele>227.0</ele><time>2026-04-20T13:46:54.803Z</time></trkpt><trkpt lat="37.9515967" lon="15.7532317"><ele>231.0</ele><time>2026-04-20T13:46:55.802Z</time></trkpt><trkpt lat="37.9517167" lon="15.7533317"><ele>235.0</ele><time>2026-04-20T13:46:56.807Z</time></trkpt><trkpt lat="37.951855" lon="15.753385"><ele>239.0</ele><time>2026-04-20T13:46:57.803Z</time></trkpt><trkpt lat="37.9520033" lon="15.75342"><ele>243.0</ele><time>2026-04-20T13:46:58.802Z</time></trkpt><trkpt lat="37.952135" lon="15.7534967"><ele>239.25</ele><time>2026-04-20T13:46:59.803Z</time></trkpt><trkpt lat="37.9522483" lon="15.7535917"><ele>235.5</ele><time>2026-04-20T13:47:00.803Z</time></trkpt><trkpt lat="37.9523433" lon="15.753695"><ele>231.75</ele><time>2026-04-20T13:47:01.803Z</time></trkpt><trkpt lat="37.9524467" lon="15.7537583"><ele>228.0</ele><time>2026-04-20T13:47:02.802Z</time></trkpt><trkpt lat="37.95254" lon="15.7538133"><ele>228.0</ele><time>2026-04-20T13:47:03.804Z</time></trkpt><trkpt lat="37.9526283" lon="15.7538617"><ele>228.0</ele><time>2026-04-20T13:47:04.803Z</time></trkpt><trkpt lat="37.9527117" lon="15.7539033"><ele>228.0</ele><time>2026-04-20T13:47:05.802Z</time></trkpt><trkpt lat="37.95279" lon="15.75394"><ele>228.0</ele><time>2026-04-20T13:47:06.803Z</time></trkpt><trkpt lat="37.9528633" lon="15.7539767"><ele>228.0</ele><time>2026-04-20T13:47:07.802Z</time></trkpt><trkpt lat="37.952935" lon="15.754"><ele>228.0</ele><time>2026-04-20T13:47:08.803Z</time></trkpt><trkpt lat="37.9529983" lon="15.7540133"><ele>228.0</ele><time>2026-04-20T13:47:09.803Z</time></trkpt><trkpt lat="37.9530317" lon="15.7540817"><ele>228.0</ele><time>2026-04-20T13:47:14.805Z</time></trkpt><trkpt lat="37.9529633" lon="15.7541067"><ele>228.0</ele><time>2026-04-20T13:47:19.803Z</time></trkpt><trkpt lat="37.9529283" lon="15.7540033"><ele>228.0</ele><time>2026-04-20T13:47:36.802Z</time></trkpt><trkpt lat="37.9528267" lon="15.7539067"><ele>228.0</ele><time>2026-04-20T13:47:38.803Z</time></trkpt><trkpt lat="37.9527517" lon="15.7538583"><ele>228.0</ele><time>2026-04-20T13:47:39.804Z</time></trkpt><trkpt lat="37.95267" lon="15.7538183"><ele>228.0</ele><time>2026-04-20T13:47:40.803Z</time></trkpt><trkpt lat="37.9525967" lon="15.753795"><ele>228.0</ele><time>2026-04-20T13:47:41.803Z</time></trkpt><trkpt lat="37.9525067" lon="15.7537533"><ele>228.0</ele><time>2026-04-20T13:47:43.804Z</time></trkpt><trkpt lat="37.9524883" lon="15.7538483"><ele>228.0</ele><time>2026-04-20T13:47:46.803Z</time></trkpt><trkpt lat="37.952575" lon="15.753965"><ele>228.0</ele><time>2026-04-20T13:47:48.804Z</time></trkpt><trkpt lat="37.9526133" lon="15.7540317"><ele>228.0</ele><time>2026-04-20T13:47:49.803Z</time></trkpt><trkpt lat="37.95263" lon="15.7541667"><ele>228.0</ele><time>2026-04-20T13:47:51.804Z</time></trkpt><trkpt lat="37.952595" lon="15.7542917"><ele>228.0</ele><time>2026-04-20T13:47:53.803Z</time></trkpt><trkpt lat="37.952545" lon="15.7543817"><ele>228.0</ele><time>2026-04-20T13:47:55.802Z</time></trkpt><trkpt lat="37.952485" lon="15.7544367"><ele>228.0</ele><time>2026-04-20T13:47:58.803Z</time></trkpt><trkpt lat="37.952545" lon="15.7544017"><ele>228.0</ele><time>2026-04-20T13:48:04.803Z</time></trkpt><trkpt lat="37.9525883" lon="15.7542717"><ele>228.0</ele><time>2026-04-20T13:48:06.803Z</time></trkpt><trkpt lat="37.9526317" lon="15.75421"><ele>228.0</ele><time>2026-04-20T13:48:08.803Z</time></trkpt><trkpt lat="37.9527133" lon="15.7542667"><ele>228.0</ele><time>2026-04-20T13:48:11.804Z</time></trkpt><trkpt lat="37.95278" lon="15.7543167"><ele>228.0</ele><time>2026-04-20T13:48:13.802Z</time></trkpt><trkpt lat="37.9528417" lon="15.7543983"><ele>228.0</ele><time>2026-04-20T13:48:16.804Z</time></trkpt><trkpt lat="37.9528867" lon="15.7544783"><ele>228.0</ele><time>2026-04-20T13:48:18.805Z</time></trkpt><trkpt lat="37.952945" lon="15.754575"><ele>228.0</ele><time>2026-04-20T13:48:20.804Z</time></trkpt><trkpt lat="37.9530067" lon="15.7546617"><ele>224.5</ele><time>2026-04-20T13:48:22.803Z</time></trkpt><trkpt lat="37.95308" lon="15.7547567"><ele>221.0</ele><time>2026-04-20T13:48:24.807Z</time></trkpt><trkpt lat="37.9531217" lon="15.7548433"><ele>217.5</ele><time>2026-04-20T13:48:26.804Z</time></trkpt><trkpt lat="37.953155" lon="15.7549283"><ele>214.0</ele><time>2026-04-20T13:48:28.802Z</time></trkpt><trkpt lat="37.9531833" lon="15.755015"><ele>210.5</ele><time>2026-04-20T13:48:30.804Z</time></trkpt><trkpt lat="37.953215" lon="15.7550883"><ele>207.0</ele><time>2026-04-20T13:48:32.804Z</time></trkpt><trkpt lat="37.9532433" lon="15.7551667"><ele>205.5</ele><time>2026-04-20T13:48:34.803Z</time></trkpt><trkpt lat="37.9532617" lon="15.7552517"><ele>204.0</ele><time>2026-04-20T13:48:36.804Z</time></trkpt><trkpt lat="37.9532817" lon="15.7553467"><ele>202.5</ele><time>2026-04-20T13:48:38.804Z</time></trkpt><trkpt lat="37.9532917" lon="15.75544"><ele>201.0</ele><time>2026-04-20T13:48:40.803Z</time></trkpt><trkpt lat="37.9532833" lon="15.7555317"><ele>199.5</ele><time>2026-04-20T13:48:43.802Z</time></trkpt><trkpt lat="37.95326" lon="15.7556233"><ele>198.0</ele><time>2026-04-20T13:48:45.803Z</time></trkpt><trkpt lat="37.9532267" lon="15.755755"><ele>198.0</ele><time>2026-04-20T13:48:47.803Z</time></trkpt><trkpt lat="37.9532" lon="15.7558467"><ele>198.0</ele><time>2026-04-20T13:48:49.803Z</time></trkpt><trkpt lat="37.9531667" lon="15.755915"><ele>198.0</ele><time>2026-04-20T13:48:51.803Z</time></trkpt><trkpt lat="37.9531133" lon="15.756"><ele>198.0</ele><time>2026-04-20T13:48:53.803Z</time></trkpt><trkpt lat="37.95308" lon="15.7560733"><ele>198.0</ele><time>2026-04-20T13:48:54.804Z</time></trkpt><trkpt lat="37.95305" lon="15.75615"><ele>198.0</ele><time>2026-04-20T13:48:55.803Z</time></trkpt><trkpt lat="37.9530167" lon="15.7562717"><ele>196.0</ele><time>2026-04-20T13:48:57.805Z</time></trkpt><trkpt lat="37.9529883" lon="15.7563533"><ele>194.0</ele><time>2026-04-20T13:48:59.803Z</time></trkpt><trkpt lat="37.952915" lon="15.7564083"><ele>192.0</ele><time>2026-04-20T13:49:03.803Z</time></trkpt><trkpt lat="37.9528317" lon="15.7564267"><ele>190.0</ele><time>2026-04-20T13:49:05.805Z</time></trkpt><trkpt lat="37.9527733" lon="15.7564833"><ele>188.0</ele><time>2026-04-20T13:49:07.803Z</time></trkpt><trkpt lat="37.9527533" lon="15.7564033"><ele>186.0</ele><time>2026-04-20T13:49:13.804Z</time></trkpt><trkpt lat="37.9528367" lon="15.7564083"><ele>186.0</ele><time>2026-04-20T13:49:16.805Z</time></trkpt><trkpt lat="37.952915" lon="15.7563817"><ele>186.0</ele><time>2026-04-20T13:49:18.804Z</time></trkpt><trkpt lat="37.9529867" lon="15.75633"><ele>186.0</ele><time>2026-04-20T13:49:21.806Z</time></trkpt><trkpt lat="37.953035" lon="15.75622"><ele>186.0</ele><time>2026-04-20T13:49:24.805Z</time></trkpt><trkpt lat="37.9530883" lon="15.7560667"><ele>186.0</ele><time>2026-04-20T13:49:26.803Z</time></trkpt><trkpt lat="37.9531267" lon="15.7559833"><ele>188.0</ele><time>2026-04-20T13:49:27.804Z</time></trkpt><trkpt lat="37.9531617" lon="15.7559133"><ele>190.0</ele><time>2026-04-20T13:49:28.804Z</time></trkpt><trkpt lat="37.9532183" lon="15.755785"><ele>192.0</ele><time>2026-04-20T13:49:30.802Z</time></trkpt><trkpt lat="37.9532367" lon="15.7557067"><ele>194.0</ele><time>2026-04-20T13:49:31.804Z</time></trkpt><trkpt lat="37.9532583" lon="15.7556233"><ele>196.0</ele><time>2026-04-20T13:49:32.805Z</time></trkpt><trkpt lat="37.95328" lon="15.75547"><ele>198.0</ele><time>2026-04-20T13:49:34.803Z</time></trkpt><trkpt lat="37.9532733" lon="15.7553833"><ele>198.0</ele><time>2026-04-20T13:49:35.803Z</time></trkpt><trkpt lat="37.9532617" lon="15.755295"><ele>198.0</ele><time>2026-04-20T13:49:36.804Z</time></trkpt><trkpt lat="37.9532417" lon="15.7552033"><ele>198.0</ele><time>2026-04-20T13:49:37.804Z</time></trkpt><trkpt lat="37.9532067" lon="15.755105"><ele>198.0</ele><time>2026-04-20T13:49:38.805Z</time></trkpt><trkpt lat="37.9531717" lon="15.7550083"><ele>198.0</ele><time>2026-04-20T13:49:39.802Z</time></trkpt><trkpt lat="37.953135" lon="15.754915"><ele>198.0</ele><time>2026-04-20T13:49:40.804Z</time></trkpt><trkpt lat="37.9531" lon="15.7548333"><ele>199.5</ele><time>2026-04-20T13:49:41.804Z</time></trkpt><trkpt lat="37.9530267" lon="15.75469"><ele>201.0</ele><time>2026-04-20T13:49:43.803Z</time></trkpt><trkpt lat="37.9529717" lon="15.7546"><ele>202.5</ele><time>2026-04-20T13:49:44.804Z</time></trkpt><trkpt lat="37.9529267" lon="15.754525"><ele>204.0</ele><time>2026-04-20T13:49:45.804Z</time></trkpt><trkpt lat="37.9528833" lon="15.75445"><ele>205.5</ele><time>2026-04-20T13:49:46.804Z</time></trkpt><trkpt lat="37.9528367" lon="15.7543783"><ele>207.0</ele><time>2026-04-20T13:49:47.804Z</time></trkpt><trkpt lat="37.952795" lon="15.7543183"><ele>211.2</ele><time>2026-04-20T13:49:48.803Z</time></trkpt><trkpt lat="37.9527183" lon="15.7542283"><ele>215.39999999999998</ele><time>2026-04-20T13:49:50.804Z</time></trkpt><trkpt lat="37.9526333" lon="15.7541917"><ele>219.60000000000002</ele><time>2026-04-20T13:49:52.804Z</time></trkpt><trkpt lat="37.952605" lon="15.7540717"><ele>223.8</ele><time>2026-04-20T13:49:54.804Z</time></trkpt><trkpt lat="37.952585" lon="15.75393"><ele>228.0</ele><time>2026-04-20T13:49:56.805Z</time></trkpt><trkpt lat="37.9525433" lon="15.75387"><ele>228.0</ele><time>2026-04-20T13:49:57.804Z</time></trkpt><trkpt lat="37.9524833" lon="15.7538183"><ele>228.0</ele><time>2026-04-20T13:49:59.804Z</time></trkpt><trkpt lat="37.952565" lon="15.75382"><ele>228.0</ele><time>2026-04-20T13:50:05.804Z</time></trkpt><trkpt lat="37.95267" lon="15.7538917"><ele>228.0</ele><time>2026-04-20T13:50:07.803Z</time></trkpt><trkpt lat="37.9527317" lon="15.75392"><ele>228.0</ele><time>2026-04-20T13:50:08.804Z</time></trkpt><trkpt lat="37.9528467" lon="15.7539633"><ele>228.0</ele><time>2026-04-20T13:50:10.804Z</time></trkpt><trkpt lat="37.9529383" lon="15.7540183"><ele>228.0</ele><time>2026-04-20T13:50:12.804Z</time></trkpt><trkpt lat="37.953025" lon="15.7540083"><ele>228.0</ele><time>2026-04-20T14:04:59.804Z</time></trkpt><trkpt lat="37.9530983" lon="15.75403"><ele>228.0</ele><time>2026-04-20T14:05:01.804Z</time></trkpt><trkpt lat="37.9531633" lon="15.754065"><ele>228.0</ele><time>2026-04-20T14:05:03.802Z</time></trkpt><trkpt lat="37.9532433" lon="15.7540983"><ele>228.0</ele><time>2026-04-20T14:05:05.803Z</time></trkpt><trkpt lat="37.9533367" lon="15.75413"><ele>227.16666666666666</ele><time>2026-04-20T14:05:07.804Z</time></trkpt><trkpt lat="37.9534467" lon="15.75415"><ele>226.33333333333331</ele><time>2026-04-20T14:05:09.803Z</time></trkpt><trkpt lat="37.953575" lon="15.75415"><ele>225.5</ele><time>2026-04-20T14:05:11.803Z</time></trkpt><trkpt lat="37.9536433" lon="15.7541383"><ele>224.66666666666666</ele><time>2026-04-20T14:05:12.804Z</time></trkpt><trkpt lat="37.9537083" lon="15.754115"><ele>223.83333333333331</ele><time>2026-04-20T14:05:13.804Z</time></trkpt><trkpt lat="37.9537767" lon="15.7540933"><ele>223.0</ele><time>2026-04-20T14:05:14.806Z</time></trkpt><trkpt lat="37.95385" lon="15.754065"><ele>223.0</ele><time>2026-04-20T14:05:15.807Z</time></trkpt><trkpt lat="37.9539183" lon="15.754035"><ele>223.0</ele><time>2026-04-20T14:05:16.805Z</time></trkpt><trkpt lat="37.9539867" lon="15.7540017"><ele>223.0</ele><time>2026-04-20T14:05:17.808Z</time></trkpt><trkpt lat="37.9540533" lon="15.7539567"><ele>223.0</ele><time>2026-04-20T14:05:18.805Z</time></trkpt><trkpt lat="37.9541167" lon="15.7539117"><ele>223.0</ele><time>2026-04-20T14:05:19.803Z</time></trkpt><trkpt lat="37.9541767" lon="15.7538617"><ele>223.0</ele><time>2026-04-20T14:05:20.804Z</time></trkpt><trkpt lat="37.9542217" lon="15.7537867"><ele>223.0</ele><time>2026-04-20T14:05:21.803Z</time></trkpt><trkpt lat="37.954265" lon="15.7537033"><ele>223.99999999999997</ele><time>2026-04-20T14:05:22.804Z</time></trkpt><trkpt lat="37.9543117" lon="15.75362"><ele>225.0</ele><time>2026-04-20T14:05:23.803Z</time></trkpt><trkpt lat="37.9543633" lon="15.7535417"><ele>226.0</ele><time>2026-04-20T14:05:24.803Z</time></trkpt><trkpt lat="37.9544217" lon="15.75347"><ele>227.0</ele><time>2026-04-20T14:05:25.805Z</time></trkpt><trkpt lat="37.9544933" lon="15.7534183"><ele>227.99999999999997</ele><time>2026-04-20T14:05:26.804Z</time></trkpt><trkpt lat="37.95457" lon="15.75339"><ele>229.0</ele><time>2026-04-20T14:05:27.804Z</time></trkpt><trkpt lat="37.9546433" lon="15.753385"><ele>229.0</ele><time>2026-04-20T14:05:28.803Z</time></trkpt><trkpt lat="37.9547167" lon="15.7533983"><ele>229.0</ele><time>2026-04-20T14:05:29.805Z</time></trkpt><trkpt lat="37.954785" lon="15.75341"><ele>229.0</ele><time>2026-04-20T14:05:30.804Z</time></trkpt><trkpt lat="37.9548517" lon="15.7534183"><ele>229.0</ele><time>2026-04-20T14:05:31.804Z</time></trkpt><trkpt lat="37.954915" lon="15.753435"><ele>229.0</ele><time>2026-04-20T14:05:32.804Z</time></trkpt><trkpt lat="37.9549783" lon="15.75346"><ele>229.0</ele><time>2026-04-20T14:05:33.804Z</time></trkpt><trkpt lat="37.9550467" lon="15.7534967"><ele>229.0</ele><time>2026-04-20T14:05:34.804Z</time></trkpt><trkpt lat="37.9551167" lon="15.7535233"><ele>226.99999999999997</ele><time>2026-04-20T14:05:35.803Z</time></trkpt><trkpt lat="37.9551783" lon="15.7535767"><ele>225.0</ele><time>2026-04-20T14:05:36.804Z</time></trkpt><trkpt lat="37.9552383" lon="15.7536217"><ele>223.0</ele><time>2026-04-20T14:05:37.805Z</time></trkpt><trkpt lat="37.9552917" lon="15.75368"><ele>221.0</ele><time>2026-04-20T14:05:38.804Z</time></trkpt><trkpt lat="37.95535" lon="15.7537433"><ele>218.99999999999997</ele><time>2026-04-20T14:05:39.803Z</time></trkpt><trkpt lat="37.9554133" lon="15.753805"><ele>217.0</ele><time>2026-04-20T14:05:40.803Z</time></trkpt><trkpt lat="37.955485" lon="15.7538583"><ele>217.0</ele><time>2026-04-20T14:05:41.803Z</time></trkpt><trkpt lat="37.9555583" lon="15.7539033"><ele>217.0</ele><time>2026-04-20T14:05:42.804Z</time></trkpt><trkpt lat="37.9556367" lon="15.7539167"><ele>217.0</ele><time>2026-04-20T14:05:43.804Z</time></trkpt><trkpt lat="37.9557117" lon="15.7539067"><ele>217.0</ele><time>2026-04-20T14:05:44.804Z</time></trkpt><trkpt lat="37.9557783" lon="15.7538733"><ele>217.0</ele><time>2026-04-20T14:05:45.804Z</time></trkpt><trkpt lat="37.95584" lon="15.753825"><ele>217.0</ele><time>2026-04-20T14:05:46.804Z</time></trkpt><trkpt lat="37.9558933" lon="15.7537767"><ele>217.0</ele><time>2026-04-20T14:05:47.804Z</time></trkpt><trkpt lat="37.95595" lon="15.7537183"><ele>217.66666666666666</ele><time>2026-04-20T14:05:48.804Z</time></trkpt><trkpt lat="37.9560033" lon="15.75365"><ele>218.33333333333331</ele><time>2026-04-20T14:05:49.804Z</time></trkpt><trkpt lat="37.956055" lon="15.7535717"><ele>219.0</ele><time>2026-04-20T14:05:50.804Z</time></trkpt><trkpt lat="37.9561067" lon="15.7534983"><ele>219.66666666666669</ele><time>2026-04-20T14:05:51.804Z</time></trkpt><trkpt lat="37.95616" lon="15.7534233"><ele>220.33333333333334</ele><time>2026-04-20T14:05:52.803Z</time></trkpt><trkpt lat="37.956215" lon="15.7533517"><ele>221.0</ele><time>2026-04-20T14:05:53.804Z</time></trkpt><trkpt lat="37.9562667" lon="15.7532767"><ele>221.71428571428572</ele><time>2026-04-20T14:05:54.804Z</time></trkpt><trkpt lat="37.9563267" lon="15.7532167"><ele>222.42857142857144</ele><time>2026-04-20T14:05:55.804Z</time></trkpt><trkpt lat="37.95639" lon="15.7531817"><ele>223.14285714285717</ele><time>2026-04-20T14:05:56.806Z</time></trkpt><trkpt lat="37.95646" lon="15.753175"><ele>223.85714285714286</ele><time>2026-04-20T14:05:57.805Z</time></trkpt><trkpt lat="37.956525" lon="15.75321"><ele>224.57142857142856</ele><time>2026-04-20T14:05:58.804Z</time></trkpt><trkpt lat="37.9565717" lon="15.75328"><ele>225.2857142857143</ele><time>2026-04-20T14:05:59.806Z</time></trkpt><trkpt lat="37.95661" lon="15.753375"><ele>226.0</ele><time>2026-04-20T14:06:00.803Z</time></trkpt><trkpt lat="37.9566317" lon="15.7534817"><ele>225.16666666666666</ele><time>2026-04-20T14:06:01.805Z</time></trkpt><trkpt lat="37.9566517" lon="15.7535917"><ele>224.33333333333331</ele><time>2026-04-20T14:06:02.804Z</time></trkpt><trkpt lat="37.9566867" lon="15.753695"><ele>223.5</ele><time>2026-04-20T14:06:03.804Z</time></trkpt><trkpt lat="37.956745" lon="15.75378"><ele>222.66666666666669</ele><time>2026-04-20T14:06:04.803Z</time></trkpt><trkpt lat="37.9568133" lon="15.7538383"><ele>221.83333333333334</ele><time>2026-04-20T14:06:05.802Z</time></trkpt><trkpt lat="37.9568917" lon="15.753875"><ele>221.0</ele><time>2026-04-20T14:06:06.804Z</time></trkpt><trkpt lat="37.9569783" lon="15.7538767"><ele>220.8</ele><time>2026-04-20T14:06:07.804Z</time></trkpt><trkpt lat="37.9570667" lon="15.7538367"><ele>220.60000000000002</ele><time>2026-04-20T14:06:08.804Z</time></trkpt><trkpt lat="37.95715" lon="15.7537583"><ele>220.4</ele><time>2026-04-20T14:06:09.804Z</time></trkpt><trkpt lat="37.9572383" lon="15.7536717"><ele>220.2</ele><time>2026-04-20T14:06:10.804Z</time></trkpt><trkpt lat="37.9573283" lon="15.7535883"><ele>220.0</ele><time>2026-04-20T14:06:11.804Z</time></trkpt><trkpt lat="37.9574283" lon="15.7535117"><ele>220.0</ele><time>2026-04-20T14:06:12.803Z</time></trkpt><trkpt lat="37.95753" lon="15.7534317"><ele>220.0</ele><time>2026-04-20T14:06:13.804Z</time></trkpt><trkpt lat="37.9576267" lon="15.7533533"><ele>220.0</ele><time>2026-04-20T14:06:14.804Z</time></trkpt><trkpt lat="37.9577267" lon="15.75328"><ele>220.0</ele><time>2026-04-20T14:06:15.804Z</time></trkpt><trkpt lat="37.9578333" lon="15.753225"><ele>217.75</ele><time>2026-04-20T14:06:16.805Z</time></trkpt><trkpt lat="37.9579433" lon="15.7531817"><ele>215.5</ele><time>2026-04-20T14:06:17.803Z</time></trkpt><trkpt lat="37.9580517" lon="15.7531367"><ele>213.25</ele><time>2026-04-20T14:06:18.806Z</time></trkpt><trkpt lat="37.95816" lon="15.7531017"><ele>211.0</ele><time>2026-04-20T14:06:19.804Z</time></trkpt><trkpt lat="37.95826" lon="15.7530467"><ele>211.0</ele><time>2026-04-20T14:06:20.805Z</time></trkpt><trkpt lat="37.9583617" lon="15.7530033"><ele>211.0</ele><time>2026-04-20T14:06:21.804Z</time></trkpt><trkpt lat="37.9584633" lon="15.7529617"><ele>211.0</ele><time>2026-04-20T14:06:22.806Z</time></trkpt><trkpt lat="37.9585717" lon="15.752945"><ele>211.0</ele><time>2026-04-20T14:06:23.804Z</time></trkpt><trkpt lat="37.958685" lon="15.7529517"><ele>211.0</ele><time>2026-04-20T14:06:24.804Z</time></trkpt><trkpt lat="37.9587917" lon="15.7529433"><ele>212.20000000000002</ele><time>2026-04-20T14:06:25.804Z</time></trkpt><trkpt lat="37.9588917" lon="15.7529167"><ele>213.4</ele><time>2026-04-20T14:06:26.804Z</time></trkpt><trkpt lat="37.9589767" lon="15.75286"><ele>214.6</ele><time>2026-04-20T14:06:27.884Z</time></trkpt><trkpt lat="37.95905" lon="15.7527817"><ele>215.8</ele><time>2026-04-20T14:06:28.803Z</time></trkpt><trkpt lat="37.9591" lon="15.75268"><ele>217.0</ele><time>2026-04-20T14:06:29.804Z</time></trkpt><trkpt lat="37.959115" lon="15.7525633"><ele>216.99999999999997</ele><time>2026-04-20T14:06:30.803Z</time></trkpt><trkpt lat="37.95911" lon="15.7524483"><ele>217.0</ele><time>2026-04-20T14:06:31.804Z</time></trkpt><trkpt lat="37.9591133" lon="15.7523367"><ele>217.0</ele><time>2026-04-20T14:06:32.805Z</time></trkpt><trkpt lat="37.9591017" lon="15.7522183"><ele>217.0</ele><time>2026-04-20T14:06:33.804Z</time></trkpt><trkpt lat="37.9590967" lon="15.7521067"><ele>216.99999999999997</ele><time>2026-04-20T14:06:34.804Z</time></trkpt><trkpt lat="37.9591267" lon="15.752015"><ele>217.0</ele><time>2026-04-20T14:06:35.804Z</time></trkpt><trkpt lat="37.9591783" lon="15.7519517"><ele>219.49999999999997</ele><time>2026-04-20T14:06:36.804Z</time></trkpt><trkpt lat="37.9592517" lon="15.7519417"><ele>222.0</ele><time>2026-04-20T14:06:37.805Z</time></trkpt><trkpt lat="37.95937" lon="15.7519967"><ele>224.5</ele><time>2026-04-20T14:06:39.806Z</time></trkpt><trkpt lat="37.95943" lon="15.752045"><ele>227.0</ele><time>2026-04-20T14:06:40.803Z</time></trkpt><trkpt lat="37.9594967" lon="15.7520883"><ele>229.49999999999997</ele><time>2026-04-20T14:06:41.804Z</time></trkpt><trkpt lat="37.9595567" lon="15.7521417"><ele>232.0</ele><time>2026-04-20T14:06:42.803Z</time></trkpt><trkpt lat="37.9596183" lon="15.752205"><ele>231.99999999999997</ele><time>2026-04-20T14:06:43.808Z</time></trkpt><trkpt lat="37.95967" lon="15.7522767"><ele>232.0</ele><time>2026-04-20T14:06:44.805Z</time></trkpt><trkpt lat="37.9597117" lon="15.7523683"><ele>232.0</ele><time>2026-04-20T14:06:45.804Z</time></trkpt><trkpt lat="37.95975" lon="15.7524667"><ele>232.0</ele><time>2026-04-20T14:06:46.805Z</time></trkpt><trkpt lat="37.9597917" lon="15.752565"><ele>231.99999999999997</ele><time>2026-04-20T14:06:47.803Z</time></trkpt><trkpt lat="37.9598333" lon="15.752665"><ele>232.0</ele><time>2026-04-20T14:06:48.804Z</time></trkpt><trkpt lat="37.9598617" lon="15.7527717"><ele>231.83333333333331</ele><time>2026-04-20T14:06:49.805Z</time></trkpt><trkpt lat="37.9598817" lon="15.7528783"><ele>231.66666666666666</ele><time>2026-04-20T14:06:50.804Z</time></trkpt><trkpt lat="37.9598783" lon="15.752985"><ele>231.5</ele><time>2026-04-20T14:06:51.804Z</time></trkpt><trkpt lat="37.9598583" lon="15.7530917"><ele>231.33333333333331</ele><time>2026-04-20T14:06:52.804Z</time></trkpt><trkpt lat="37.95985" lon="15.7532033"><ele>231.16666666666666</ele><time>2026-04-20T14:06:53.806Z</time></trkpt><trkpt lat="37.95984" lon="15.7533183"><ele>231.0</ele><time>2026-04-20T14:06:54.805Z</time></trkpt><trkpt lat="37.9598" lon="15.7534183"><ele>231.0</ele><time>2026-04-20T14:06:55.805Z</time></trkpt><trkpt lat="37.9597433" lon="15.7535083"><ele>231.00000000000003</ele><time>2026-04-20T14:06:56.804Z</time></trkpt><trkpt lat="37.95967" lon="15.7535767"><ele>231.00000000000003</ele><time>2026-04-20T14:06:57.804Z</time></trkpt><trkpt lat="37.959595" lon="15.7536417"><ele>231.0</ele><time>2026-04-20T14:06:58.805Z</time></trkpt><trkpt lat="37.9595067" lon="15.7536917"><ele>231.0</ele><time>2026-04-20T14:06:59.804Z</time></trkpt><trkpt lat="37.959415" lon="15.7536867"><ele>230.16666666666666</ele><time>2026-04-20T14:07:00.803Z</time></trkpt><trkpt lat="37.95933" lon="15.75364"><ele>229.33333333333331</ele><time>2026-04-20T14:07:01.805Z</time></trkpt><trkpt lat="37.9592533" lon="15.7535633"><ele>228.5</ele><time>2026-04-20T14:07:02.805Z</time></trkpt><trkpt lat="37.95918" lon="15.7535083"><ele>227.66666666666666</ele><time>2026-04-20T14:07:03.805Z</time></trkpt><trkpt lat="37.95911" lon="15.7535067"><ele>226.83333333333331</ele><time>2026-04-20T14:07:04.805Z</time></trkpt><trkpt lat="37.95904" lon="15.7536017"><ele>226.0</ele><time>2026-04-20T14:07:06.804Z</time></trkpt><trkpt lat="37.95906" lon="15.7536783"><ele>226.0</ele><time>2026-04-20T14:07:07.804Z</time></trkpt><trkpt lat="37.9591" lon="15.75375"><ele>226.0</ele><time>2026-04-20T14:07:08.804Z</time></trkpt><trkpt lat="37.9591433" lon="15.7538117"><ele>226.0</ele><time>2026-04-20T14:07:09.804Z</time></trkpt><trkpt lat="37.9591933" lon="15.7538717"><ele>226.0</ele><time>2026-04-20T14:07:10.804Z</time></trkpt><trkpt lat="37.9592567" lon="15.7539333"><ele>226.0</ele><time>2026-04-20T14:07:11.804Z</time></trkpt><trkpt lat="37.9593183" lon="15.7539917"><ele>226.0</ele><time>2026-04-20T14:07:12.803Z</time></trkpt><trkpt lat="37.9593833" lon="15.75405"><ele>226.0</ele><time>2026-04-20T14:07:13.804Z</time></trkpt><trkpt lat="37.9594667" lon="15.7540917"><ele>228.66666666666666</ele><time>2026-04-20T14:07:14.805Z</time></trkpt><trkpt lat="37.9595483" lon="15.7541017"><ele>231.33333333333331</ele><time>2026-04-20T14:07:15.806Z</time></trkpt><trkpt lat="37.959625" lon="15.7541033"><ele>234.0</ele><time>2026-04-20T14:07:16.804Z</time></trkpt><trkpt lat="37.959695" lon="15.7540817"><ele>236.66666666666669</ele><time>2026-04-20T14:07:17.804Z</time></trkpt><trkpt lat="37.95976" lon="15.754055"><ele>239.33333333333334</ele><time>2026-04-20T14:07:18.804Z</time></trkpt><trkpt lat="37.9598883" lon="15.754055"><ele>242.0</ele><time>2026-04-20T14:07:20.803Z</time></trkpt><trkpt lat="37.959955" lon="15.7540667"><ele>242.0</ele><time>2026-04-20T14:07:21.804Z</time></trkpt><trkpt lat="37.960025" lon="15.7540833"><ele>241.99999999999997</ele><time>2026-04-20T14:07:22.806Z</time></trkpt><trkpt lat="37.9600917" lon="15.7541083"><ele>242.0</ele><time>2026-04-20T14:07:23.804Z</time></trkpt><trkpt lat="37.9601633" lon="15.7541317"><ele>242.0</ele><time>2026-04-20T14:07:24.803Z</time></trkpt><trkpt lat="37.96023" lon="15.7541433"><ele>241.99999999999997</ele><time>2026-04-20T14:07:25.805Z</time></trkpt><trkpt lat="37.9602983" lon="15.7541433"><ele>242.0</ele><time>2026-04-20T14:07:26.806Z</time></trkpt><trkpt lat="37.9603667" lon="15.7541267"><ele>242.0</ele><time>2026-04-20T14:07:27.805Z</time></trkpt><trkpt lat="37.9604367" lon="15.754105"><ele>243.33333333333334</ele><time>2026-04-20T14:07:28.804Z</time></trkpt><trkpt lat="37.96051" lon="15.754085"><ele>244.66666666666669</ele><time>2026-04-20T14:07:29.805Z</time></trkpt><trkpt lat="37.96058" lon="15.7540567"><ele>246.0</ele><time>2026-04-20T14:07:30.804Z</time></trkpt><trkpt lat="37.96065" lon="15.7540267"><ele>247.33333333333331</ele><time>2026-04-20T14:07:31.804Z</time></trkpt><trkpt lat="37.960715" lon="15.7540183"><ele>248.66666666666666</ele><time>2026-04-20T14:07:32.805Z</time></trkpt><trkpt lat="37.9607933" lon="15.7541117"><ele>250.0</ele><time>2026-04-20T14:07:34.805Z</time></trkpt><trkpt lat="37.9607867" lon="15.7542"><ele>249.99999999999997</ele><time>2026-04-20T14:07:35.806Z</time></trkpt><trkpt lat="37.9607567" lon="15.754285"><ele>250.0</ele><time>2026-04-20T14:07:36.804Z</time></trkpt><trkpt lat="37.960725" lon="15.7543683"><ele>250.0</ele><time>2026-04-20T14:07:37.804Z</time></trkpt><trkpt lat="37.9606967" lon="15.75445"><ele>250.0</ele><time>2026-04-20T14:07:38.805Z</time></trkpt><trkpt lat="37.960645" lon="15.7545233"><ele>249.99999999999997</ele><time>2026-04-20T14:07:39.806Z</time></trkpt><trkpt lat="37.9605783" lon="15.75458"><ele>250.0</ele><time>2026-04-20T14:07:40.804Z</time></trkpt><trkpt lat="37.9604933" lon="15.7546217"><ele>250.8</ele><time>2026-04-20T14:07:41.806Z</time></trkpt><trkpt lat="37.9603967" lon="15.75465"><ele>251.6</ele><time>2026-04-20T14:07:42.805Z</time></trkpt><trkpt lat="37.9602933" lon="15.7546667"><ele>252.39999999999998</ele><time>2026-04-20T14:07:43.806Z</time></trkpt><trkpt lat="37.960185" lon="15.7546683"><ele>253.2</ele><time>2026-04-20T14:07:44.804Z</time></trkpt><trkpt lat="37.9600783" lon="15.7546433"><ele>254.0</ele><time>2026-04-20T14:07:45.804Z</time></trkpt><trkpt lat="37.9599767" lon="15.754605"><ele>254.00000000000003</ele><time>2026-04-20T14:07:46.804Z</time></trkpt><trkpt lat="37.9598867" lon="15.7545717"><ele>254.0</ele><time>2026-04-20T14:07:47.803Z</time></trkpt><trkpt lat="37.959805" lon="15.7545633"><ele>254.0</ele><time>2026-04-20T14:07:48.803Z</time></trkpt><trkpt lat="37.9597433" lon="15.7546067"><ele>254.0</ele><time>2026-04-20T14:07:49.802Z</time></trkpt><trkpt lat="37.959715" lon="15.7546817"><ele>254.00000000000003</ele><time>2026-04-20T14:07:50.805Z</time></trkpt><trkpt lat="37.95976" lon="15.754775"><ele>254.0</ele><time>2026-04-20T14:07:51.807Z</time></trkpt><trkpt lat="37.9598217" lon="15.7548417"><ele>254.00000000000003</ele><time>2026-04-20T14:07:52.803Z</time></trkpt><trkpt lat="37.95988" lon="15.7548983"><ele>254.0</ele><time>2026-04-20T14:07:53.802Z</time></trkpt><trkpt lat="37.95996" lon="15.75494"><ele>254.0</ele><time>2026-04-20T14:07:54.803Z</time></trkpt><trkpt lat="37.9600433" lon="15.7549767"><ele>254.0</ele><time>2026-04-20T14:07:55.803Z</time></trkpt><trkpt lat="37.9601233" lon="15.7550233"><ele>254.00000000000003</ele><time>2026-04-20T14:07:56.804Z</time></trkpt><trkpt lat="37.9601983" lon="15.7550683"><ele>254.0</ele><time>2026-04-20T14:07:57.803Z</time></trkpt><trkpt lat="37.960275" lon="15.7551"><ele>254.83333333333334</ele><time>2026-04-20T14:07:58.803Z</time></trkpt><trkpt lat="37.9603583" lon="15.7551367"><ele>255.66666666666669</ele><time>2026-04-20T14:07:59.802Z</time></trkpt><trkpt lat="37.9604417" lon="15.7551667"><ele>256.5</ele><time>2026-04-20T14:08:00.802Z</time></trkpt><trkpt lat="37.96053" lon="15.755195"><ele>257.3333333333333</ele><time>2026-04-20T14:08:01.803Z</time></trkpt><trkpt lat="37.9606167" lon="15.7552267"><ele>258.16666666666663</ele><time>2026-04-20T14:08:02.803Z</time></trkpt><trkpt lat="37.9607067" lon="15.75525"><ele>259.0</ele><time>2026-04-20T14:08:03.803Z</time></trkpt><trkpt lat="37.9607967" lon="15.755265"><ele>262.2</ele><time>2026-04-20T14:08:04.805Z</time></trkpt><trkpt lat="37.9608867" lon="15.75528"><ele>265.4</ele><time>2026-04-20T14:08:05.802Z</time></trkpt><trkpt lat="37.9609817" lon="15.7552933"><ele>268.6</ele><time>2026-04-20T14:08:06.803Z</time></trkpt><trkpt lat="37.961075" lon="15.7553033"><ele>271.8</ele><time>2026-04-20T14:08:07.804Z</time></trkpt><trkpt lat="37.9611683" lon="15.7553"><ele>275.0</ele><time>2026-04-20T14:08:08.803Z</time></trkpt><trkpt lat="37.961265" lon="15.7552833"><ele>275.0</ele><time>2026-04-20T14:08:09.804Z</time></trkpt><trkpt lat="37.9613567" lon="15.7552667"><ele>275.0</ele><time>2026-04-20T14:08:10.802Z</time></trkpt><trkpt lat="37.9614483" lon="15.7552667"><ele>275.0</ele><time>2026-04-20T14:08:11.805Z</time></trkpt><trkpt lat="37.9615283" lon="15.7553083"><ele>275.0</ele><time>2026-04-20T14:08:12.802Z</time></trkpt><trkpt lat="37.9615917" lon="15.755375"><ele>275.0</ele><time>2026-04-20T14:08:13.802Z</time></trkpt><trkpt lat="37.96163" lon="15.7554883"><ele>275.0</ele><time>2026-04-20T14:08:14.802Z</time></trkpt><trkpt lat="37.961695" lon="15.7555683"><ele>275.0</ele><time>2026-04-20T14:08:15.802Z</time></trkpt><trkpt lat="37.961735" lon="15.755675"><ele>275.0</ele><time>2026-04-20T14:08:16.804Z</time></trkpt><trkpt lat="37.96178" lon="15.7557783"><ele>275.0</ele><time>2026-04-20T14:08:17.803Z</time></trkpt><trkpt lat="37.9618283" lon="15.75588"><ele>275.0</ele><time>2026-04-20T14:08:18.803Z</time></trkpt><trkpt lat="37.9618783" lon="15.7559817"><ele>276.8</ele><time>2026-04-20T14:08:19.815Z</time></trkpt><trkpt lat="37.9619283" lon="15.7560867"><ele>278.6</ele><time>2026-04-20T14:08:20.803Z</time></trkpt><trkpt lat="37.9619883" lon="15.756185"><ele>280.4</ele><time>2026-04-20T14:08:21.802Z</time></trkpt><trkpt lat="37.96204" lon="15.7562717"><ele>282.2</ele><time>2026-04-20T14:08:22.803Z</time></trkpt><trkpt lat="37.9621133" lon="15.7563417"><ele>284.0</ele><time>2026-04-20T14:08:23.805Z</time></trkpt><trkpt lat="37.9621917" lon="15.7563967"><ele>284.0</ele><time>2026-04-20T14:08:24.804Z</time></trkpt><trkpt lat="37.9622733" lon="15.7564417"><ele>284.0</ele><time>2026-04-20T14:08:25.805Z</time></trkpt><trkpt lat="37.9623633" lon="15.7564267"><ele>284.0</ele><time>2026-04-20T14:08:26.804Z</time></trkpt><trkpt lat="37.96246" lon="15.756425"><ele>284.0</ele><time>2026-04-20T14:08:27.803Z</time></trkpt><trkpt lat="37.9625567" lon="15.756405"><ele>284.0</ele><time>2026-04-20T14:08:28.803Z</time></trkpt><trkpt lat="37.96265" lon="15.756385"><ele>285.4</ele><time>2026-04-20T14:08:29.804Z</time></trkpt><trkpt lat="37.9627433" lon="15.756365"><ele>286.79999999999995</ele><time>2026-04-20T14:08:30.804Z</time></trkpt><trkpt lat="37.9628283" lon="15.7563317"><ele>288.20000000000005</ele><time>2026-04-20T14:08:31.803Z</time></trkpt><trkpt lat="37.962915" lon="15.756305"><ele>289.6</ele><time>2026-04-20T14:08:32.803Z</time></trkpt><trkpt lat="37.963005" lon="15.7562817"><ele>291.0</ele><time>2026-04-20T14:08:33.803Z</time></trkpt><trkpt lat="37.963095" lon="15.7562483"><ele>291.0</ele><time>2026-04-20T14:08:34.804Z</time></trkpt><trkpt lat="37.9631867" lon="15.7562033"><ele>291.0</ele><time>2026-04-20T14:08:35.803Z</time></trkpt><trkpt lat="37.9632733" lon="15.7561467"><ele>291.0</ele><time>2026-04-20T14:08:36.804Z</time></trkpt><trkpt lat="37.9633533" lon="15.756105"><ele>291.0</ele><time>2026-04-20T14:08:37.804Z</time></trkpt><trkpt lat="37.9634317" lon="15.75606"><ele>291.0</ele><time>2026-04-20T14:08:38.804Z</time></trkpt><trkpt lat="37.96351" lon="15.75602"><ele>291.3333333333333</ele><time>2026-04-20T14:08:39.804Z</time></trkpt><trkpt lat="37.9635833" lon="15.75599"><ele>291.6666666666667</ele><time>2026-04-20T14:08:40.803Z</time></trkpt><trkpt lat="37.9636567" lon="15.7559833"><ele>292.0</ele><time>2026-04-20T14:08:41.804Z</time></trkpt><trkpt lat="37.96373" lon="15.755975"><ele>292.33333333333337</ele><time>2026-04-20T14:08:42.806Z</time></trkpt><trkpt lat="37.9637967" lon="15.7559533"><ele>292.6666666666667</ele><time>2026-04-20T14:08:43.803Z</time></trkpt><trkpt lat="37.9638567" lon="15.75592"><ele>293.0</ele><time>2026-04-20T14:08:44.804Z</time></trkpt><trkpt lat="37.9639483" lon="15.7558167"><ele>292.99999999999994</ele><time>2026-04-20T14:08:46.803Z</time></trkpt><trkpt lat="37.9639883" lon="15.755745"><ele>293.0</ele><time>2026-04-20T14:08:47.804Z</time></trkpt><trkpt lat="37.9640233" lon="15.75567"><ele>293.0</ele><time>2026-04-20T14:08:48.804Z</time></trkpt><trkpt lat="37.9640617" lon="15.7555967"><ele>293.0</ele><time>2026-04-20T14:08:49.804Z</time></trkpt><trkpt lat="37.9640883" lon="15.7555133"><ele>293.0</ele><time>2026-04-20T14:08:50.805Z</time></trkpt><trkpt lat="37.964125" lon="15.7554467"><ele>292.99999999999994</ele><time>2026-04-20T14:08:51.805Z</time></trkpt><trkpt lat="37.96418" lon="15.7553917"><ele>293.0</ele><time>2026-04-20T14:08:52.803Z</time></trkpt><trkpt lat="37.9642367" lon="15.7553283"><ele>292.57142857142856</ele><time>2026-04-20T14:08:53.804Z</time></trkpt><trkpt lat="37.9642933" lon="15.7552683"><ele>292.1428571428571</ele><time>2026-04-20T14:08:54.803Z</time></trkpt><trkpt lat="37.964355" lon="15.755215"><ele>291.7142857142857</ele><time>2026-04-20T14:08:55.804Z</time></trkpt><trkpt lat="37.964425" lon="15.755185"><ele>291.2857142857143</ele><time>2026-04-20T14:08:56.803Z</time></trkpt><trkpt lat="37.9644933" lon="15.7551483"><ele>290.8571428571429</ele><time>2026-04-20T14:08:57.804Z</time></trkpt><trkpt lat="37.9645617" lon="15.755115"><ele>290.42857142857144</ele><time>2026-04-20T14:08:58.805Z</time></trkpt><trkpt lat="37.964625" lon="15.7550783"><ele>290.0</ele><time>2026-04-20T14:08:59.805Z</time></trkpt><trkpt lat="37.96469" lon="15.7550417"><ele>290.0</ele><time>2026-04-20T14:09:00.803Z</time></trkpt><trkpt lat="37.9647633" lon="15.75502"><ele>290.0</ele><time>2026-04-20T14:09:01.803Z</time></trkpt><trkpt lat="37.9648333" lon="15.75503"><ele>290.0</ele><time>2026-04-20T14:09:02.804Z</time></trkpt><trkpt lat="37.9648967" lon="15.7550783"><ele>290.0</ele><time>2026-04-20T14:09:03.804Z</time></trkpt><trkpt lat="37.9649567" lon="15.7551517"><ele>290.0</ele><time>2026-04-20T14:09:04.803Z</time></trkpt><trkpt lat="37.965015" lon="15.7552267"><ele>290.0</ele><time>2026-04-20T14:09:05.804Z</time></trkpt><trkpt lat="37.96507" lon="15.7553067"><ele>291.6</ele><time>2026-04-20T14:09:06.802Z</time></trkpt><trkpt lat="37.9651267" lon="15.755385"><ele>293.2</ele><time>2026-04-20T14:09:07.802Z</time></trkpt><trkpt lat="37.9651883" lon="15.7554617"><ele>294.8</ele><time>2026-04-20T14:09:08.803Z</time></trkpt><trkpt lat="37.9652633" lon="15.7555283"><ele>296.4</ele><time>2026-04-20T14:09:09.803Z</time></trkpt><trkpt lat="37.96536" lon="15.75556"><ele>298.0</ele><time>2026-04-20T14:09:10.804Z</time></trkpt><trkpt lat="37.965465" lon="15.7555633"><ele>298.0</ele><time>2026-04-20T14:09:11.803Z</time></trkpt><trkpt lat="37.9655683" lon="15.7555567"><ele>298.0</ele><time>2026-04-20T14:09:12.804Z</time></trkpt><trkpt lat="37.9656617" lon="15.7555683"><ele>298.0</ele><time>2026-04-20T14:09:13.803Z</time></trkpt><trkpt lat="37.9657433" lon="15.7556033"><ele>298.0</ele><time>2026-04-20T14:09:14.803Z</time></trkpt><trkpt lat="37.9658183" lon="15.75564"><ele>298.0</ele><time>2026-04-20T14:09:15.802Z</time></trkpt><trkpt lat="37.9658783" lon="15.7556983"><ele>298.0</ele><time>2026-04-20T14:09:16.803Z</time></trkpt><trkpt lat="37.9659267" lon="15.7557717"><ele>298.16666666666663</ele><time>2026-04-20T14:09:17.804Z</time></trkpt><trkpt lat="37.9659733" lon="15.7558417"><ele>298.3333333333333</ele><time>2026-04-20T14:09:18.804Z</time></trkpt><trkpt lat="37.9660017" lon="15.7559333"><ele>298.5</ele><time>2026-04-20T14:09:19.804Z</time></trkpt><trkpt lat="37.96601" lon="15.7560283"><ele>298.6666666666667</ele><time>2026-04-20T14:09:20.804Z</time></trkpt><trkpt lat="37.966025" lon="15.75612"><ele>298.83333333333337</ele><time>2026-04-20T14:09:21.803Z</time></trkpt><trkpt lat="37.9660367" lon="15.7562117"><ele>299.0</ele><time>2026-04-20T14:09:22.806Z</time></trkpt><trkpt lat="37.966035" lon="15.7563167"><ele>299.0</ele><time>2026-04-20T14:09:23.804Z</time></trkpt><trkpt lat="37.966045" lon="15.75641"><ele>299.0</ele><time>2026-04-20T14:09:24.805Z</time></trkpt><trkpt lat="37.9660617" lon="15.75649"><ele>299.0</ele><time>2026-04-20T14:09:25.804Z</time></trkpt><trkpt lat="37.9660917" lon="15.75657"><ele>299.0</ele><time>2026-04-20T14:09:26.803Z</time></trkpt><trkpt lat="37.9661183" lon="15.7566467"><ele>299.0</ele><time>2026-04-20T14:09:27.803Z</time></trkpt><trkpt lat="37.9661967" lon="15.7567267"><ele>299.0</ele><time>2026-04-20T14:09:29.803Z</time></trkpt><trkpt lat="37.9663083" lon="15.7567433"><ele>299.0</ele><time>2026-04-20T14:09:31.804Z</time></trkpt><trkpt lat="37.966375" lon="15.7567233"><ele>299.0</ele><time>2026-04-20T14:09:32.804Z</time></trkpt><trkpt lat="37.9664517" lon="15.7567017"><ele>299.0</ele><time>2026-04-20T14:09:33.804Z</time></trkpt><trkpt lat="37.96654" lon="15.7566967"><ele>299.0</ele><time>2026-04-20T14:09:34.802Z</time></trkpt><trkpt lat="37.96663" lon="15.7567233"><ele>299.0</ele><time>2026-04-20T14:09:35.802Z</time></trkpt><trkpt lat="37.966725" lon="15.756765"><ele>299.0</ele><time>2026-04-20T14:09:36.804Z</time></trkpt><trkpt lat="37.9668133" lon="15.75686"><ele>296.25</ele><time>2026-04-20T14:09:37.804Z</time></trkpt><trkpt lat="37.9668917" lon="15.7569883"><ele>293.5</ele><time>2026-04-20T14:09:38.804Z</time></trkpt><trkpt lat="37.966985" lon="15.7571233"><ele>290.75</ele><time>2026-04-20T14:09:39.803Z</time></trkpt><trkpt lat="37.9670767" lon="15.757245"><ele>288.0</ele><time>2026-04-20T14:09:40.803Z</time></trkpt><trkpt lat="37.967165" lon="15.7573233"><ele>288.0</ele><time>2026-04-20T14:09:41.805Z</time></trkpt><trkpt lat="37.9672483" lon="15.757355"><ele>288.0</ele><time>2026-04-20T14:09:42.807Z</time></trkpt><trkpt lat="37.9673183" lon="15.7573483"><ele>288.0</ele><time>2026-04-20T14:09:43.806Z</time></trkpt><trkpt lat="37.967385" lon="15.75732"><ele>288.0</ele><time>2026-04-20T14:09:44.804Z</time></trkpt><trkpt lat="37.96745" lon="15.757255"><ele>288.0</ele><time>2026-04-20T14:09:45.804Z</time></trkpt><trkpt lat="37.967515" lon="15.7571917"><ele>288.0</ele><time>2026-04-20T14:09:46.806Z</time></trkpt><trkpt lat="37.9675783" lon="15.757105"><ele>289.2</ele><time>2026-04-20T14:09:47.803Z</time></trkpt><trkpt lat="37.96766" lon="15.7570533"><ele>290.4</ele><time>2026-04-20T14:09:48.804Z</time></trkpt><trkpt lat="37.9677467" lon="15.7570167"><ele>291.59999999999997</ele><time>2026-04-20T14:09:49.804Z</time></trkpt><trkpt lat="37.9678367" lon="15.7570067"><ele>292.8</ele><time>2026-04-20T14:09:50.804Z</time></trkpt><trkpt lat="37.9679267" lon="15.7570067"><ele>294.0</ele><time>2026-04-20T14:09:51.803Z</time></trkpt><trkpt lat="37.9680167" lon="15.75701"><ele>294.0</ele><time>2026-04-20T14:09:52.804Z</time></trkpt><trkpt lat="37.968105" lon="15.7570133"><ele>294.0</ele><time>2026-04-20T14:09:53.804Z</time></trkpt><trkpt lat="37.9681867" lon="15.7570117"><ele>294.0</ele><time>2026-04-20T14:09:54.803Z</time></trkpt><trkpt lat="37.9682633" lon="15.757"><ele>294.0</ele><time>2026-04-20T14:09:55.804Z</time></trkpt><trkpt lat="37.9683367" lon="15.756975"><ele>294.0</ele><time>2026-04-20T14:09:56.804Z</time></trkpt><trkpt lat="37.9684017" lon="15.7569367"><ele>294.0</ele><time>2026-04-20T14:09:57.803Z</time></trkpt><trkpt lat="37.9684667" lon="15.756895"><ele>293.85714285714283</ele><time>2026-04-20T14:09:58.804Z</time></trkpt><trkpt lat="37.9685383" lon="15.7568567"><ele>293.7142857142857</ele><time>2026-04-20T14:09:59.803Z</time></trkpt><trkpt lat="37.9686167" lon="15.7568467"><ele>293.57142857142856</ele><time>2026-04-20T14:10:00.805Z</time></trkpt><trkpt lat="37.9686867" lon="15.7568233"><ele>293.42857142857144</ele><time>2026-04-20T14:10:01.803Z</time></trkpt><trkpt lat="37.9687433" lon="15.7567833"><ele>293.2857142857143</ele><time>2026-04-20T14:10:02.804Z</time></trkpt><trkpt lat="37.96877" lon="15.7567033"><ele>293.1428571428571</ele><time>2026-04-20T14:10:03.804Z</time></trkpt><trkpt lat="37.9688" lon="15.7566217"><ele>293.0</ele><time>2026-04-20T14:10:04.803Z</time></trkpt><trkpt lat="37.968845" lon="15.756555"><ele>293.0</ele><time>2026-04-20T14:10:05.805Z</time></trkpt><trkpt lat="37.9689117" lon="15.756505"><ele>293.0</ele><time>2026-04-20T14:10:06.804Z</time></trkpt><trkpt lat="37.9689683" lon="15.75645"><ele>293.0</ele><time>2026-04-20T14:10:07.803Z</time></trkpt><trkpt lat="37.9690283" lon="15.75649"><ele>293.0</ele><time>2026-04-20T14:10:08.803Z</time></trkpt><trkpt lat="37.9690817" lon="15.7565633"><ele>293.0</ele><time>2026-04-20T14:10:09.803Z</time></trkpt><trkpt lat="37.9691167" lon="15.756655"><ele>293.0</ele><time>2026-04-20T14:10:10.804Z</time></trkpt><trkpt lat="37.9691583" lon="15.7567433"><ele>293.33333333333337</ele><time>2026-04-20T14:10:11.804Z</time></trkpt><trkpt lat="37.96922" lon="15.7568"><ele>293.6666666666667</ele><time>2026-04-20T14:10:12.804Z</time></trkpt><trkpt lat="37.9692917" lon="15.75683"><ele>294.0</ele><time>2026-04-20T14:10:13.804Z</time></trkpt><trkpt lat="37.9693717" lon="15.756815"><ele>294.3333333333333</ele><time>2026-04-20T14:10:14.804Z</time></trkpt><trkpt lat="37.9694583" lon="15.7567617"><ele>294.66666666666663</ele><time>2026-04-20T14:10:15.803Z</time></trkpt><trkpt lat="37.96955" lon="15.756685"><ele>295.0</ele><time>2026-04-20T14:10:16.804Z</time></trkpt><trkpt lat="37.969645" lon="15.7566483"><ele>295.0</ele><time>2026-04-20T14:10:17.803Z</time></trkpt><trkpt lat="37.969735" lon="15.75666"><ele>295.0</ele><time>2026-04-20T14:10:18.804Z</time></trkpt><trkpt lat="37.96982" lon="15.75668"><ele>295.0</ele><time>2026-04-20T14:10:19.803Z</time></trkpt><trkpt lat="37.9698783" lon="15.7567467"><ele>295.0</ele><time>2026-04-20T14:10:20.804Z</time></trkpt><trkpt lat="37.9699083" lon="15.7568383"><ele>295.0</ele><time>2026-04-20T14:10:21.803Z</time></trkpt><trkpt lat="37.9699183" lon="15.7569433"><ele>295.0</ele><time>2026-04-20T14:10:22.804Z</time></trkpt><trkpt lat="37.9699383" lon="15.7570617"><ele>295.2</ele><time>2026-04-20T14:10:23.805Z</time></trkpt><trkpt lat="37.969955" lon="15.7571983"><ele>295.4</ele><time>2026-04-20T14:10:24.804Z</time></trkpt><trkpt lat="37.9699733" lon="15.757335"><ele>295.6</ele><time>2026-04-20T14:10:25.804Z</time></trkpt><trkpt lat="37.9699917" lon="15.7574733"><ele>295.8</ele><time>2026-04-20T14:10:26.804Z</time></trkpt><trkpt lat="37.9700217" lon="15.7576117"><ele>296.0</ele><time>2026-04-20T14:10:27.804Z</time></trkpt><trkpt lat="37.9700517" lon="15.75775"><ele>297.6</ele><time>2026-04-20T14:10:28.804Z</time></trkpt><trkpt lat="37.97005" lon="15.7578883"><ele>299.20000000000005</ele><time>2026-04-20T14:10:29.89Z</time></trkpt><trkpt lat="37.9700367" lon="15.7580267"><ele>300.79999999999995</ele><time>2026-04-20T14:10:30.804Z</time></trkpt><trkpt lat="37.9700367" lon="15.75816"><ele>302.4</ele><time>2026-04-20T14:10:31.804Z</time></trkpt><trkpt lat="37.9700217" lon="15.7582967"><ele>304.0</ele><time>2026-04-20T14:10:32.803Z</time></trkpt><trkpt lat="37.9700033" lon="15.7584283"><ele>296.0</ele><time>2026-04-20T14:10:33.81Z</time></trkpt><trkpt lat="37.97002" lon="15.7585433"><ele>288.0</ele><time>2026-04-20T14:10:34.809Z</time></trkpt><trkpt lat="37.9700733" lon="15.7586267"><ele>280.0</ele><time>2026-04-20T14:10:35.804Z</time></trkpt><trkpt lat="37.9701483" lon="15.75868"><ele>272.0</ele><time>2026-04-20T14:10:36.804Z</time></trkpt><trkpt lat="37.970235" lon="15.7587133"><ele>264.0</ele><time>2026-04-20T14:10:37.803Z</time></trkpt><trkpt lat="37.9703383" lon="15.7587083"><ele>264.0</ele><time>2026-04-20T14:10:38.804Z</time></trkpt><trkpt lat="37.97044" lon="15.7587117"><ele>264.0</ele><time>2026-04-20T14:10:39.803Z</time></trkpt><trkpt lat="37.970545" lon="15.75872"><ele>264.0</ele><time>2026-04-20T14:10:40.804Z</time></trkpt><trkpt lat="37.97065" lon="15.7587333"><ele>264.0</ele><time>2026-04-20T14:10:41.804Z</time></trkpt><trkpt lat="37.97075" lon="15.758765"><ele>264.0</ele><time>2026-04-20T14:10:42.806Z</time></trkpt><trkpt lat="37.9708483" lon="15.7587867"><ele>264.4</ele><time>2026-04-20T14:10:43.804Z</time></trkpt><trkpt lat="37.9709333" lon="15.7587433"><ele>264.79999999999995</ele><time>2026-04-20T14:10:44.804Z</time></trkpt><trkpt lat="37.9710083" lon="15.7586583"><ele>265.20000000000005</ele><time>2026-04-20T14:10:45.805Z</time></trkpt><trkpt lat="37.9710767" lon="15.758565"><ele>265.6</ele><time>2026-04-20T14:10:46.805Z</time></trkpt><trkpt lat="37.9711483" lon="15.758475"><ele>266.0</ele><time>2026-04-20T14:10:47.805Z</time></trkpt><trkpt lat="37.971235" lon="15.7584067"><ele>267.8</ele><time>2026-04-20T14:10:48.803Z</time></trkpt><trkpt lat="37.97133" lon="15.7583467"><ele>269.6</ele><time>2026-04-20T14:10:49.802Z</time></trkpt><trkpt lat="37.97143" lon="15.7583"><ele>271.4</ele><time>2026-04-20T14:10:50.804Z</time></trkpt><trkpt lat="37.971535" lon="15.758265"><ele>273.2</ele><time>2026-04-20T14:10:51.805Z</time></trkpt><trkpt lat="37.97164" lon="15.758235"><ele>275.0</ele><time>2026-04-20T14:10:52.804Z</time></trkpt><trkpt lat="37.97172" lon="15.7581583"><ele>275.0</ele><time>2026-04-20T14:10:53.804Z</time></trkpt><trkpt lat="37.9717767" lon="15.7580483"><ele>275.0</ele><time>2026-04-20T14:10:54.804Z</time></trkpt><trkpt lat="37.9718233" lon="15.75794"><ele>275.0</ele><time>2026-04-20T14:10:55.808Z</time></trkpt><trkpt lat="37.97189" lon="15.757885"><ele>275.0</ele><time>2026-04-20T14:10:56.804Z</time></trkpt><trkpt lat="37.9719667" lon="15.75788"><ele>275.0</ele><time>2026-04-20T14:10:57.804Z</time></trkpt><trkpt lat="37.972045" lon="15.7579333"><ele>275.0</ele><time>2026-04-20T14:10:58.803Z</time></trkpt><trkpt lat="37.9721233" lon="15.7579917"><ele>275.0</ele><time>2026-04-20T14:10:59.804Z</time></trkpt><trkpt lat="37.972205" lon="15.7580333"><ele>275.0</ele><time>2026-04-20T14:11:00.804Z</time></trkpt><trkpt lat="37.97229" lon="15.7580933"><ele>275.0</ele><time>2026-04-20T14:11:01.805Z</time></trkpt><trkpt lat="37.9723833" lon="15.758115"><ele>275.0</ele><time>2026-04-20T14:11:02.804Z</time></trkpt><trkpt lat="37.9724783" lon="15.7580917"><ele>275.0</ele><time>2026-04-20T14:11:03.804Z</time></trkpt><trkpt lat="37.9725683" lon="15.7580317"><ele>277.0</ele><time>2026-04-20T14:11:04.804Z</time></trkpt><trkpt lat="37.9726533" lon="15.7579467"><ele>279.0</ele><time>2026-04-20T14:11:05.805Z</time></trkpt><trkpt lat="37.9727217" lon="15.7578367"><ele>281.0</ele><time>2026-04-20T14:11:06.803Z</time></trkpt><trkpt lat="37.9727717" lon="15.7577017"><ele>283.0</ele><time>2026-04-20T14:11:07.802Z</time></trkpt><trkpt lat="37.9728217" lon="15.7575833"><ele>285.0</ele><time>2026-04-20T14:11:08.807Z</time></trkpt><trkpt lat="37.97289" lon="15.75749"><ele>286.8</ele><time>2026-04-20T14:11:09.804Z</time></trkpt><trkpt lat="37.9729917" lon="15.757455"><ele>288.6</ele><time>2026-04-20T14:11:10.804Z</time></trkpt><trkpt lat="37.9730867" lon="15.7574067"><ele>290.4</ele><time>2026-04-20T14:11:11.804Z</time></trkpt><trkpt lat="37.973185" lon="15.7574033"><ele>292.2</ele><time>2026-04-20T14:11:12.804Z</time></trkpt><trkpt lat="37.97329" lon="15.7574317"><ele>294.0</ele><time>2026-04-20T14:11:13.805Z</time></trkpt><trkpt lat="37.9733833" lon="15.7574033"><ele>296.3333333333333</ele><time>2026-04-20T14:11:14.804Z</time></trkpt><trkpt lat="37.97347" lon="15.7573633"><ele>298.6666666666667</ele><time>2026-04-20T14:11:15.803Z</time></trkpt><trkpt lat="37.973555" lon="15.7573117"><ele>301.0</ele><time>2026-04-20T14:11:16.804Z</time></trkpt><trkpt lat="37.9736367" lon="15.7572617"><ele>303.33333333333337</ele><time>2026-04-20T14:11:17.803Z</time></trkpt><trkpt lat="37.9737117" lon="15.7572217"><ele>305.6666666666667</ele><time>2026-04-20T14:11:18.804Z</time></trkpt><trkpt lat="37.97378" lon="15.7571883"><ele>308.0</ele><time>2026-04-20T14:11:19.804Z</time></trkpt><trkpt lat="37.9738433" lon="15.7571717"><ele>308.0</ele><time>2026-04-20T14:11:20.804Z</time></trkpt><trkpt lat="37.973955" lon="15.7572333"><ele>308.0</ele><time>2026-04-20T14:11:22.804Z</time></trkpt><trkpt lat="37.97398" lon="15.7573183"><ele>308.0</ele><time>2026-04-20T14:11:23.804Z</time></trkpt><trkpt lat="37.9739833" lon="15.757415"><ele>308.0</ele><time>2026-04-20T14:11:24.804Z</time></trkpt><trkpt lat="37.9739317" lon="15.757495"><ele>308.0</ele><time>2026-04-20T14:11:25.804Z</time></trkpt><trkpt lat="37.9738583" lon="15.75757"><ele>308.0</ele><time>2026-04-20T14:11:26.803Z</time></trkpt><trkpt lat="37.9737967" lon="15.75765"><ele>308.8</ele><time>2026-04-20T14:11:27.804Z</time></trkpt><trkpt lat="37.9737183" lon="15.7577217"><ele>309.6</ele><time>2026-04-20T14:11:28.804Z</time></trkpt><trkpt lat="37.9736383" lon="15.7577933"><ele>310.4</ele><time>2026-04-20T14:11:29.81Z</time></trkpt><trkpt lat="37.9735617" lon="15.7578783"><ele>311.2</ele><time>2026-04-20T14:11:30.804Z</time></trkpt><trkpt lat="37.9734933" lon="15.7579617"><ele>312.0</ele><time>2026-04-20T14:11:31.804Z</time></trkpt><trkpt lat="37.97343" lon="15.75804"><ele>312.0</ele><time>2026-04-20T14:11:32.804Z</time></trkpt><trkpt lat="37.97339" lon="15.7581217"><ele>312.0</ele><time>2026-04-20T14:11:33.804Z</time></trkpt><trkpt lat="37.9733967" lon="15.758225"><ele>312.0</ele><time>2026-04-20T14:11:34.806Z</time></trkpt><trkpt lat="37.973425" lon="15.75833"><ele>312.0</ele><time>2026-04-20T14:11:35.805Z</time></trkpt><trkpt lat="37.9734767" lon="15.7584367"><ele>312.0</ele><time>2026-04-20T14:11:36.804Z</time></trkpt><trkpt lat="37.9735383" lon="15.7585283"><ele>312.0</ele><time>2026-04-20T14:11:37.804Z</time></trkpt><trkpt lat="37.9736167" lon="15.75861"><ele>307.2</ele><time>2026-04-20T14:11:38.804Z</time></trkpt><trkpt lat="37.9737" lon="15.7586917"><ele>302.4</ele><time>2026-04-20T14:11:39.803Z</time></trkpt><trkpt lat="37.97379" lon="15.7587783"><ele>297.6</ele><time>2026-04-20T14:11:40.804Z</time></trkpt><trkpt lat="37.9738767" lon="15.75887"><ele>292.8</ele><time>2026-04-20T14:11:41.803Z</time></trkpt><trkpt lat="37.97396" lon="15.7589717"><ele>288.0</ele><time>2026-04-20T14:11:42.804Z</time></trkpt><trkpt lat="37.9740533" lon="15.7590233"><ele>288.0</ele><time>2026-04-20T14:11:43.805Z</time></trkpt><trkpt lat="37.97414" lon="15.7590217"><ele>288.0</ele><time>2026-04-20T14:11:44.803Z</time></trkpt><trkpt lat="37.9742017" lon="15.7589517"><ele>288.0</ele><time>2026-04-20T14:11:45.803Z</time></trkpt><trkpt lat="37.97424" lon="15.758835"><ele>288.0</ele><time>2026-04-20T14:11:46.804Z</time></trkpt><trkpt lat="37.97428" lon="15.7587067"><ele>288.0</ele><time>2026-04-20T14:11:47.804Z</time></trkpt><trkpt lat="37.9743517" lon="15.7586317"><ele>291.6</ele><time>2026-04-20T14:11:48.805Z</time></trkpt><trkpt lat="37.9744317" lon="15.7585783"><ele>295.20000000000005</ele><time>2026-04-20T14:11:49.804Z</time></trkpt><trkpt lat="37.9745217" lon="15.7586133"><ele>298.8</ele><time>2026-04-20T14:11:50.803Z</time></trkpt><trkpt lat="37.9745983" lon="15.7586933"><ele>302.40000000000003</ele><time>2026-04-20T14:11:51.804Z</time></trkpt><trkpt lat="37.974655" lon="15.7588"><ele>306.0</ele><time>2026-04-20T14:11:52.805Z</time></trkpt><trkpt lat="37.97471" lon="15.758895"><ele>306.0</ele><time>2026-04-20T14:11:53.81Z</time></trkpt><trkpt lat="37.97478" lon="15.7589733"><ele>306.0</ele><time>2026-04-20T14:11:54.804Z</time></trkpt><trkpt lat="37.9748533" lon="15.75905"><ele>306.0</ele><time>2026-04-20T14:11:55.803Z</time></trkpt><trkpt lat="37.974945" lon="15.7591"><ele>306.0</ele><time>2026-04-20T14:11:56.804Z</time></trkpt><trkpt lat="37.9750267" lon="15.7591717"><ele>306.0</ele><time>2026-04-20T14:11:57.803Z</time></trkpt><trkpt lat="37.9751167" lon="15.7592067"><ele>306.0</ele><time>2026-04-20T14:11:58.804Z</time></trkpt><trkpt lat="37.9752117" lon="15.7592117"><ele>306.0</ele><time>2026-04-20T14:11:59.804Z</time></trkpt><trkpt lat="37.975305" lon="15.7592133"><ele>306.0</ele><time>2026-04-20T14:12:00.803Z</time></trkpt><trkpt lat="37.9753967" lon="15.7592283"><ele>306.0</ele><time>2026-04-20T14:12:01.804Z</time></trkpt><trkpt lat="37.9754883" lon="15.7592233"><ele>306.0</ele><time>2026-04-20T14:12:02.806Z</time></trkpt><trkpt lat="37.9755617" lon="15.75916"><ele>306.0</ele><time>2026-04-20T14:12:03.804Z</time></trkpt><trkpt lat="37.9756033" lon="15.75905"><ele>306.0</ele><time>2026-04-20T14:12:04.804Z</time></trkpt><trkpt lat="37.9756333" lon="15.7589283"><ele>306.0</ele><time>2026-04-20T14:12:05.804Z</time></trkpt><trkpt lat="37.9756717" lon="15.758815"><ele>306.0</ele><time>2026-04-20T14:12:06.804Z</time></trkpt><trkpt lat="37.9757067" lon="15.7587017"><ele>306.0</ele><time>2026-04-20T14:12:07.805Z</time></trkpt><trkpt lat="37.975755" lon="15.7586083"><ele>306.0</ele><time>2026-04-20T14:12:08.805Z</time></trkpt><trkpt lat="37.975825" lon="15.7585383"><ele>306.0</ele><time>2026-04-20T14:12:09.804Z</time></trkpt><trkpt lat="37.9758983" lon="15.7584833"><ele>306.0</ele><time>2026-04-20T14:12:10.803Z</time></trkpt><trkpt lat="37.97599" lon="15.758495"><ele>306.0</ele><time>2026-04-20T14:12:11.803Z</time></trkpt><trkpt lat="37.9760733" lon="15.7585933"><ele>306.0</ele><time>2026-04-20T14:12:12.803Z</time></trkpt><trkpt lat="37.9761417" lon="15.7586933"><ele>310.20000000000005</ele><time>2026-04-20T14:12:13.803Z</time></trkpt><trkpt lat="37.976225" lon="15.7587583"><ele>314.40000000000003</ele><time>2026-04-20T14:12:14.805Z</time></trkpt><trkpt lat="37.9763067" lon="15.7588633"><ele>318.6</ele><time>2026-04-20T14:12:15.803Z</time></trkpt><trkpt lat="37.9763867" lon="15.7589633"><ele>322.8</ele><time>2026-04-20T14:12:16.803Z</time></trkpt><trkpt lat="37.976465" lon="15.7590633"><ele>327.0</ele><time>2026-04-20T14:12:17.803Z</time></trkpt><trkpt lat="37.97655" lon="15.7591483"><ele>327.0</ele><time>2026-04-20T14:12:18.802Z</time></trkpt><trkpt lat="37.97663" lon="15.7592367"><ele>327.0</ele><time>2026-04-20T14:12:19.802Z</time></trkpt><trkpt lat="37.9767033" lon="15.7593317"><ele>327.0</ele><time>2026-04-20T14:12:20.804Z</time></trkpt><trkpt lat="37.9767617" lon="15.759445"><ele>327.0</ele><time>2026-04-20T14:12:21.803Z</time></trkpt><trkpt lat="37.9768183" lon="15.7595617"><ele>327.0</ele><time>2026-04-20T14:12:22.803Z</time></trkpt><trkpt lat="37.9768717" lon="15.75968"><ele>327.8</ele><time>2026-04-20T14:12:23.803Z</time></trkpt><trkpt lat="37.976925" lon="15.7598017"><ele>328.6</ele><time>2026-04-20T14:12:24.802Z</time></trkpt><trkpt lat="37.9769667" lon="15.7599267"><ele>329.40000000000003</ele><time>2026-04-20T14:12:25.804Z</time></trkpt><trkpt lat="37.977015" lon="15.7600467"><ele>330.20000000000005</ele><time>2026-04-20T14:12:26.804Z</time></trkpt><trkpt lat="37.9770683" lon="15.7601617"><ele>331.0</ele><time>2026-04-20T14:12:27.804Z</time></trkpt><trkpt lat="37.97713" lon="15.76026"><ele>324.2</ele><time>2026-04-20T14:12:28.803Z</time></trkpt><trkpt lat="37.977215" lon="15.7603117"><ele>317.40000000000003</ele><time>2026-04-20T14:12:29.803Z</time></trkpt><trkpt lat="37.9773217" lon="15.7602983"><ele>310.6</ele><time>2026-04-20T14:12:30.805Z</time></trkpt><trkpt lat="37.9774267" lon="15.7602683"><ele>303.8</ele><time>2026-04-20T14:12:31.802Z</time></trkpt><trkpt lat="37.97753" lon="15.7602533"><ele>297.0</ele><time>2026-04-20T14:12:32.804Z</time></trkpt><trkpt lat="37.977635" lon="15.7602417"><ele>297.0</ele><time>2026-04-20T14:12:33.803Z</time></trkpt><trkpt lat="37.9777367" lon="15.7602167"><ele>297.0</ele><time>2026-04-20T14:12:34.803Z</time></trkpt><trkpt lat="37.9778317" lon="15.7601717"><ele>297.0</ele><time>2026-04-20T14:12:35.802Z</time></trkpt><trkpt lat="37.9779267" lon="15.7601133"><ele>297.0</ele><time>2026-04-20T14:12:36.803Z</time></trkpt><trkpt lat="37.97801" lon="15.760035"><ele>297.0</ele><time>2026-04-20T14:12:37.803Z</time></trkpt><trkpt lat="37.97808" lon="15.7599267"><ele>299.0</ele><time>2026-04-20T14:12:38.804Z</time></trkpt><trkpt lat="37.9781467" lon="15.7598167"><ele>301.0</ele><time>2026-04-20T14:12:39.802Z</time></trkpt><trkpt lat="37.9782133" lon="15.7597017"><ele>303.0</ele><time>2026-04-20T14:12:40.802Z</time></trkpt><trkpt lat="37.9782783" lon="15.7595867"><ele>305.0</ele><time>2026-04-20T14:12:41.804Z</time></trkpt><trkpt lat="37.9783133" lon="15.7594533"><ele>307.0</ele><time>2026-04-20T14:12:42.803Z</time></trkpt><trkpt lat="37.978365" lon="15.7593483"><ele>307.6</ele><time>2026-04-20T14:12:43.804Z</time></trkpt><trkpt lat="37.97843" lon="15.759255"><ele>308.2</ele><time>2026-04-20T14:12:44.804Z</time></trkpt><trkpt lat="37.97849" lon="15.7591467"><ele>308.8</ele><time>2026-04-20T14:12:45.804Z</time></trkpt><trkpt lat="37.978575" lon="15.7590717"><ele>309.4</ele><time>2026-04-20T14:12:46.803Z</time></trkpt><trkpt lat="37.9786933" lon="15.7590567"><ele>310.0</ele><time>2026-04-20T14:12:47.803Z</time></trkpt><trkpt lat="37.9788017" lon="15.7590167"><ele>310.0</ele><time>2026-04-20T14:12:48.803Z</time></trkpt><trkpt lat="37.978895" lon="15.7589467"><ele>310.0</ele><time>2026-04-20T14:12:49.804Z</time></trkpt><trkpt lat="37.97898" lon="15.7588583"><ele>310.0</ele><time>2026-04-20T14:12:50.803Z</time></trkpt><trkpt lat="37.9790667" lon="15.758775"><ele>310.0</ele><time>2026-04-20T14:12:51.804Z</time></trkpt><trkpt lat="37.97913" lon="15.75866"><ele>310.0</ele><time>2026-04-20T14:12:52.803Z</time></trkpt><trkpt lat="37.9791683" lon="15.758515"><ele>316.75</ele><time>2026-04-20T14:12:53.805Z</time></trkpt><trkpt lat="37.9792167" lon="15.75838"><ele>323.5</ele><time>2026-04-20T14:12:54.803Z</time></trkpt><trkpt lat="37.9792717" lon="15.7582433"><ele>330.25</ele><time>2026-04-20T14:12:55.804Z</time></trkpt><trkpt lat="37.9792933" lon="15.7580933"><ele>337.0</ele><time>2026-04-20T14:12:56.804Z</time></trkpt><trkpt lat="37.97933" lon="15.75795"><ele>337.0</ele><time>2026-04-20T14:12:57.803Z</time></trkpt><trkpt lat="37.9793983" lon="15.75782"><ele>337.0</ele><time>2026-04-20T14:12:58.805Z</time></trkpt><trkpt lat="37.979455" lon="15.75769"><ele>337.0</ele><time>2026-04-20T14:12:59.805Z</time></trkpt><trkpt lat="37.9794967" lon="15.7575533"><ele>337.0</ele><time>2026-04-20T14:13:00.804Z</time></trkpt><trkpt lat="37.979545" lon="15.75742"><ele>338.0</ele><time>2026-04-20T14:13:01.803Z</time></trkpt><trkpt lat="37.9795917" lon="15.7572833"><ele>339.0</ele><time>2026-04-20T14:13:02.804Z</time></trkpt><trkpt lat="37.979605" lon="15.7571433"><ele>340.0</ele><time>2026-04-20T14:13:03.807Z</time></trkpt><trkpt lat="37.9796117" lon="15.7570017"><ele>341.0</ele><time>2026-04-20T14:13:04.804Z</time></trkpt><trkpt lat="37.9796633" lon="15.7569"><ele>342.0</ele><time>2026-04-20T14:13:05.803Z</time></trkpt><trkpt lat="37.979735" lon="15.7568317"><ele>342.0</ele><time>2026-04-20T14:13:06.805Z</time></trkpt><trkpt lat="37.979815" lon="15.7567883"><ele>342.0</ele><time>2026-04-20T14:13:07.804Z</time></trkpt><trkpt lat="37.9799033" lon="15.75678"><ele>342.0</ele><time>2026-04-20T14:13:08.806Z</time></trkpt><trkpt lat="37.9800017" lon="15.7568367"><ele>342.0</ele><time>2026-04-20T14:13:09.802Z</time></trkpt><trkpt lat="37.9800967" lon="15.7568767"><ele>342.0</ele><time>2026-04-20T14:13:10.804Z</time></trkpt><trkpt lat="37.9802" lon="15.7569067"><ele>343.20000000000005</ele><time>2026-04-20T14:13:11.803Z</time></trkpt><trkpt lat="37.9802967" lon="15.7569517"><ele>344.4</ele><time>2026-04-20T14:13:12.804Z</time></trkpt><trkpt lat="37.98039" lon="15.75701"><ele>345.6</ele><time>2026-04-20T14:13:13.803Z</time></trkpt><trkpt lat="37.9804733" lon="15.7570767"><ele>346.79999999999995</ele><time>2026-04-20T14:13:14.804Z</time></trkpt><trkpt lat="37.980545" lon="15.7571467"><ele>348.0</ele><time>2026-04-20T14:13:15.804Z</time></trkpt><trkpt lat="37.9806183" lon="15.7571617"><ele>348.0</ele><time>2026-04-20T14:13:16.803Z</time></trkpt><trkpt lat="37.980685" lon="15.7571333"><ele>348.0</ele><time>2026-04-20T14:13:17.804Z</time></trkpt><trkpt lat="37.9807217" lon="15.7570483"><ele>348.0</ele><time>2026-04-20T14:13:18.803Z</time></trkpt><trkpt lat="37.9807333" lon="15.7569183"><ele>348.0</ele><time>2026-04-20T14:13:19.804Z</time></trkpt><trkpt lat="37.9807667" lon="15.75683"><ele>348.0</ele><time>2026-04-20T14:13:20.803Z</time></trkpt><trkpt lat="37.980825" lon="15.7567733"><ele>348.0</ele><time>2026-04-20T14:13:21.803Z</time></trkpt><trkpt lat="37.9809067" lon="15.7567733"><ele>349.4</ele><time>2026-04-20T14:13:22.803Z</time></trkpt><trkpt lat="37.98099" lon="15.7567983"><ele>350.79999999999995</ele><time>2026-04-20T14:13:23.804Z</time></trkpt><trkpt lat="37.9810783" lon="15.75685"><ele>352.2</ele><time>2026-04-20T14:13:24.803Z</time></trkpt><trkpt lat="37.9811717" lon="15.7569117"><ele>353.6</ele><time>2026-04-20T14:13:25.803Z</time></trkpt><trkpt lat="37.9812667" lon="15.757005"><ele>355.0</ele><time>2026-04-20T14:13:26.804Z</time></trkpt><trkpt lat="37.9813633" lon="15.7570867"><ele>355.0</ele><time>2026-04-20T14:13:27.803Z</time></trkpt><trkpt lat="37.9814717" lon="15.7571433"><ele>355.0</ele><time>2026-04-20T14:13:28.804Z</time></trkpt><trkpt lat="37.9815867" lon="15.7571883"><ele>355.0</ele><time>2026-04-20T14:13:29.804Z</time></trkpt><trkpt lat="37.981705" lon="15.7572217"><ele>355.0</ele><time>2026-04-20T14:13:30.803Z</time></trkpt><trkpt lat="37.9818183" lon="15.7572617"><ele>358.0</ele><time>2026-04-20T14:13:31.803Z</time></trkpt><trkpt lat="37.9819317" lon="15.7573083"><ele>361.0</ele><time>2026-04-20T14:13:32.804Z</time></trkpt><trkpt lat="37.98204" lon="15.7573433"><ele>364.0</ele><time>2026-04-20T14:13:33.803Z</time></trkpt><trkpt lat="37.9821467" lon="15.75734"><ele>367.0</ele><time>2026-04-20T14:13:34.803Z</time></trkpt><trkpt lat="37.9822467" lon="15.7573017"><ele>370.0</ele><time>2026-04-20T14:13:35.804Z</time></trkpt><trkpt lat="37.9823433" lon="15.7572433"><ele>370.0</ele><time>2026-04-20T14:13:36.804Z</time></trkpt><trkpt lat="37.98244" lon="15.7571783"><ele>370.0</ele><time>2026-04-20T14:13:37.802Z</time></trkpt><trkpt lat="37.9825167" lon="15.7570783"><ele>370.0</ele><time>2026-04-20T14:13:38.805Z</time></trkpt><trkpt lat="37.98257" lon="15.7569617"><ele>370.0</ele><time>2026-04-20T14:13:39.802Z</time></trkpt><trkpt lat="37.9826183" lon="15.7568433"><ele>370.0</ele><time>2026-04-20T14:13:40.802Z</time></trkpt><trkpt lat="37.9826467" lon="15.7567283"><ele>369.0</ele><time>2026-04-20T14:13:41.804Z</time></trkpt><trkpt lat="37.9826517" lon="15.75662"><ele>368.0</ele><time>2026-04-20T14:13:42.802Z</time></trkpt><trkpt lat="37.9826633" lon="15.7565267"><ele>367.0</ele><time>2026-04-20T14:13:43.805Z</time></trkpt><trkpt lat="37.9827617" lon="15.7564767"><ele>366.0</ele><time>2026-04-20T14:13:45.804Z</time></trkpt><trkpt lat="37.9827733" lon="15.7566233"><ele>365.0</ele><time>2026-04-20T14:13:47.804Z</time></trkpt><trkpt lat="37.9827467" lon="15.7567017"><ele>364.0</ele><time>2026-04-20T14:13:48.804Z</time></trkpt><trkpt lat="37.9827167" lon="15.7567783"><ele>364.0</ele><time>2026-04-20T14:13:49.806Z</time></trkpt><trkpt lat="37.9826967" lon="15.7568667"><ele>364.0</ele><time>2026-04-20T14:13:50.804Z</time></trkpt><trkpt lat="37.98267" lon="15.7569517"><ele>364.0</ele><time>2026-04-20T14:13:51.803Z</time></trkpt><trkpt lat="37.9826417" lon="15.7570383"><ele>364.0</ele><time>2026-04-20T14:13:52.804Z</time></trkpt><trkpt lat="37.982615" lon="15.7571283"><ele>364.0</ele><time>2026-04-20T14:13:53.804Z</time></trkpt><trkpt lat="37.98257" lon="15.7572"><ele>364.0</ele><time>2026-04-20T14:13:54.803Z</time></trkpt><trkpt lat="37.9825" lon="15.7572517"><ele>364.0</ele><time>2026-04-20T14:13:55.804Z</time></trkpt><trkpt lat="37.98243" lon="15.7573083"><ele>365.0</ele><time>2026-04-20T14:13:56.804Z</time></trkpt><trkpt lat="37.98236" lon="15.7573733"><ele>366.0</ele><time>2026-04-20T14:13:57.804Z</time></trkpt><trkpt lat="37.9822933" lon="15.7574517"><ele>367.0</ele><time>2026-04-20T14:13:58.805Z</time></trkpt><trkpt lat="37.982235" lon="15.7575367"><ele>368.0</ele><time>2026-04-20T14:13:59.804Z</time></trkpt><trkpt lat="37.9821733" lon="15.75762"><ele>369.0</ele><time>2026-04-20T14:14:00.803Z</time></trkpt><trkpt lat="37.9820917" lon="15.7576667"><ele>370.0</ele><time>2026-04-20T14:14:01.803Z</time></trkpt><trkpt lat="37.9820033" lon="15.7577033"><ele>372.0</ele><time>2026-04-20T14:14:02.803Z</time></trkpt><trkpt lat="37.9819183" lon="15.7577417"><ele>374.0</ele><time>2026-04-20T14:14:03.803Z</time></trkpt><trkpt lat="37.981835" lon="15.7577833"><ele>376.0</ele><time>2026-04-20T14:14:04.804Z</time></trkpt><trkpt lat="37.9817583" lon="15.7578417"><ele>378.0</ele><time>2026-04-20T14:14:05.804Z</time></trkpt><trkpt lat="37.9816817" lon="15.757895"><ele>380.0</ele><time>2026-04-20T14:14:06.803Z</time></trkpt><trkpt lat="37.9816067" lon="15.75795"><ele>382.0</ele><time>2026-04-20T14:14:07.803Z</time></trkpt><trkpt lat="37.9815317" lon="15.757985"><ele>382.0</ele><time>2026-04-20T14:14:08.803Z</time></trkpt><trkpt lat="37.9814567" lon="15.75801"><ele>382.0</ele><time>2026-04-20T14:14:09.803Z</time></trkpt><trkpt lat="37.9813867" lon="15.7580133"><ele>382.0</ele><time>2026-04-20T14:14:10.805Z</time></trkpt><trkpt lat="37.981315" lon="15.75801"><ele>382.0</ele><time>2026-04-20T14:14:11.805Z</time></trkpt><trkpt lat="37.981245" lon="15.7580183"><ele>382.0</ele><time>2026-04-20T14:14:12.804Z</time></trkpt><trkpt lat="37.9811733" lon="15.7580417"><ele>382.0</ele><time>2026-04-20T14:14:13.803Z</time></trkpt><trkpt lat="37.9810983" lon="15.7580583"><ele>382.0</ele><time>2026-04-20T14:14:14.804Z</time></trkpt><trkpt lat="37.981025" lon="15.7580617"><ele>382.0</ele><time>2026-04-20T14:14:15.803Z</time></trkpt><trkpt lat="37.98096" lon="15.7580917"><ele>382.0</ele><time>2026-04-20T14:14:16.805Z</time></trkpt><trkpt lat="37.9808917" lon="15.7581117"><ele>382.0</ele><time>2026-04-20T14:14:17.803Z</time></trkpt><trkpt lat="37.980825" lon="15.7581417"><ele>382.0</ele><time>2026-04-20T14:14:18.803Z</time></trkpt><trkpt lat="37.9807567" lon="15.7581867"><ele>382.0</ele><time>2026-04-20T14:14:19.803Z</time></trkpt><trkpt lat="37.9806833" lon="15.7582233"><ele>382.0</ele><time>2026-04-20T14:14:20.805Z</time></trkpt><trkpt lat="37.98061" lon="15.7582633"><ele>382.0</ele><time>2026-04-20T14:14:21.803Z</time></trkpt><trkpt lat="37.9805417" lon="15.758305"><ele>380.8333333333333</ele><time>2026-04-20T14:14:22.804Z</time></trkpt><trkpt lat="37.980475" lon="15.7583517"><ele>379.66666666666663</ele><time>2026-04-20T14:14:23.804Z</time></trkpt><trkpt lat="37.9804533" lon="15.7584483"><ele>378.5</ele><time>2026-04-20T14:14:24.803Z</time></trkpt><trkpt lat="37.98044" lon="15.758545"><ele>377.3333333333333</ele><time>2026-04-20T14:14:25.804Z</time></trkpt><trkpt lat="37.9804667" lon="15.7586567"><ele>376.1666666666667</ele><time>2026-04-20T14:14:26.803Z</time></trkpt><trkpt lat="37.9804817" lon="15.7587667"><ele>375.0</ele><time>2026-04-20T14:14:27.804Z</time></trkpt><trkpt lat="37.9805" lon="15.758885"><ele>375.0</ele><time>2026-04-20T14:14:28.805Z</time></trkpt><trkpt lat="37.9805167" lon="15.7589967"><ele>375.0</ele><time>2026-04-20T14:14:29.803Z</time></trkpt><trkpt lat="37.9805383" lon="15.7591"><ele>375.0</ele><time>2026-04-20T14:14:30.803Z</time></trkpt><trkpt lat="37.980585" lon="15.7591667"><ele>375.0</ele><time>2026-04-20T14:14:31.804Z</time></trkpt><trkpt lat="37.9806433" lon="15.7592083"><ele>375.0</ele><time>2026-04-20T14:14:32.804Z</time></trkpt><trkpt lat="37.9807117" lon="15.7592167"><ele>375.0</ele><time>2026-04-20T14:14:33.803Z</time></trkpt><trkpt lat="37.98078" lon="15.7591633"><ele>375.0</ele><time>2026-04-20T14:14:34.803Z</time></trkpt><trkpt lat="37.980815" lon="15.7590667"><ele>375.0</ele><time>2026-04-20T14:14:35.804Z</time></trkpt><trkpt lat="37.9808383" lon="15.7589667"><ele>375.0</ele><time>2026-04-20T14:14:36.804Z</time></trkpt><trkpt lat="37.980875" lon="15.7588867"><ele>375.0</ele><time>2026-04-20T14:14:37.804Z</time></trkpt><trkpt lat="37.9809317" lon="15.758845"><ele>375.0</ele><time>2026-04-20T14:14:38.805Z</time></trkpt><trkpt lat="37.98101" lon="15.7589267"><ele>375.0</ele><time>2026-04-20T14:14:40.807Z</time></trkpt><trkpt lat="37.9810017" lon="15.7590967"><ele>378.3333333333333</ele><time>2026-04-20T14:14:42.803Z</time></trkpt><trkpt lat="37.98098" lon="15.7591783"><ele>381.66666666666663</ele><time>2026-04-20T14:14:43.804Z</time></trkpt><trkpt lat="37.9809983" lon="15.7592983"><ele>385.0</ele><time>2026-04-20T14:14:45.803Z</time></trkpt><trkpt lat="37.98106" lon="15.7592783"><ele>388.3333333333333</ele><time>2026-04-20T14:14:47.803Z</time></trkpt><trkpt lat="37.9811" lon="15.759145"><ele>391.66666666666663</ele><time>2026-04-20T14:14:49.804Z</time></trkpt><trkpt lat="37.981115" lon="15.75901"><ele>395.0</ele><time>2026-04-20T14:14:51.804Z</time></trkpt><trkpt lat="37.9811767" lon="15.7589883"><ele>394.99999999999994</ele><time>2026-04-20T14:14:53.806Z</time></trkpt><trkpt lat="37.9811867" lon="15.759085"><ele>395.0</ele><time>2026-04-20T14:14:55.804Z</time></trkpt><trkpt lat="37.9811667" lon="15.759175"><ele>395.0</ele><time>2026-04-20T14:14:56.804Z</time></trkpt><trkpt lat="37.9811333" lon="15.75928"><ele>395.0</ele><time>2026-04-20T14:14:57.804Z</time></trkpt><trkpt lat="37.9811167" lon="15.7593717"><ele>394.99999999999994</ele><time>2026-04-20T14:14:58.804Z</time></trkpt><trkpt lat="37.9811283" lon="15.75946"><ele>395.0</ele><time>2026-04-20T14:14:59.805Z</time></trkpt><trkpt lat="37.9811983" lon="15.759565"><ele>394.99999999999994</ele><time>2026-04-20T14:15:01.804Z</time></trkpt><trkpt lat="37.9813017" lon="15.7595367"><ele>395.0</ele><time>2026-04-20T14:15:03.804Z</time></trkpt><trkpt lat="37.9813533" lon="15.759485"><ele>395.0</ele><time>2026-04-20T14:15:04.804Z</time></trkpt><trkpt lat="37.98141" lon="15.7594383"><ele>395.0</ele><time>2026-04-20T14:15:05.803Z</time></trkpt><trkpt lat="37.981465" lon="15.759395"><ele>394.99999999999994</ele><time>2026-04-20T14:15:06.804Z</time></trkpt><trkpt lat="37.981565" lon="15.7593133"><ele>395.0</ele><time>2026-04-20T14:15:08.805Z</time></trkpt><trkpt lat="37.9816633" lon="15.759255"><ele>395.16666666666663</ele><time>2026-04-20T14:15:10.806Z</time></trkpt><trkpt lat="37.98177" lon="15.7592383"><ele>395.3333333333333</ele><time>2026-04-20T14:15:12.805Z</time></trkpt><trkpt lat="37.981835" lon="15.7592583"><ele>395.5</ele><time>2026-04-20T14:15:13.805Z</time></trkpt><trkpt lat="37.9819017" lon="15.7592517"><ele>395.66666666666663</ele><time>2026-04-20T14:15:14.805Z</time></trkpt><trkpt lat="37.9819717" lon="15.7592367"><ele>395.8333333333333</ele><time>2026-04-20T14:15:15.803Z</time></trkpt><trkpt lat="37.9820417" lon="15.7592033"><ele>396.0</ele><time>2026-04-20T14:15:16.803Z</time></trkpt><trkpt lat="37.9821133" lon="15.7591617"><ele>396.0</ele><time>2026-04-20T14:15:17.804Z</time></trkpt><trkpt lat="37.982185" lon="15.7591167"><ele>396.0</ele><time>2026-04-20T14:15:18.803Z</time></trkpt><trkpt lat="37.9822617" lon="15.7590767"><ele>396.0</ele><time>2026-04-20T14:15:19.804Z</time></trkpt><trkpt lat="37.98234" lon="15.759065"><ele>396.0</ele><time>2026-04-20T14:15:20.805Z</time></trkpt><trkpt lat="37.982415" lon="15.7590667"><ele>396.0</ele><time>2026-04-20T14:15:21.805Z</time></trkpt><trkpt lat="37.982485" lon="15.7590783"><ele>396.0</ele><time>2026-04-20T14:15:22.804Z</time></trkpt><trkpt lat="37.9825567" lon="15.7591017"><ele>397.8333333333333</ele><time>2026-04-20T14:15:23.804Z</time></trkpt><trkpt lat="37.982635" lon="15.75913"><ele>399.66666666666663</ele><time>2026-04-20T14:15:24.803Z</time></trkpt><trkpt lat="37.9827167" lon="15.7591733"><ele>401.5</ele><time>2026-04-20T14:15:25.804Z</time></trkpt><trkpt lat="37.982805" lon="15.7592"><ele>403.3333333333333</ele><time>2026-04-20T14:15:26.805Z</time></trkpt><trkpt lat="37.982895" lon="15.75922"><ele>405.16666666666663</ele><time>2026-04-20T14:15:27.804Z</time></trkpt><trkpt lat="37.9829867" lon="15.7591983"><ele>407.0</ele><time>2026-04-20T14:15:28.803Z</time></trkpt><trkpt lat="37.9830633" lon="15.7592317"><ele>406.99999999999994</ele><time>2026-04-20T14:15:29.804Z</time></trkpt><trkpt lat="37.98313" lon="15.7592983"><ele>407.0</ele><time>2026-04-20T14:15:30.804Z</time></trkpt><trkpt lat="37.9831933" lon="15.7593733"><ele>407.0</ele><time>2026-04-20T14:15:31.804Z</time></trkpt><trkpt lat="37.9832617" lon="15.7594217"><ele>407.0</ele><time>2026-04-20T14:15:32.804Z</time></trkpt><trkpt lat="37.9833383" lon="15.75944"><ele>406.99999999999994</ele><time>2026-04-20T14:15:33.804Z</time></trkpt><trkpt lat="37.98342" lon="15.7594333"><ele>407.0</ele><time>2026-04-20T14:15:34.803Z</time></trkpt><trkpt lat="37.9835067" lon="15.7594333"><ele>404.6</ele><time>2026-04-20T14:15:35.804Z</time></trkpt><trkpt lat="37.983595" lon="15.7594017"><ele>402.20000000000005</ele><time>2026-04-20T14:15:36.805Z</time></trkpt><trkpt lat="37.9836733" lon="15.7593417"><ele>399.8</ele><time>2026-04-20T14:15:37.804Z</time></trkpt><trkpt lat="37.9837517" lon="15.759285"><ele>397.4</ele><time>2026-04-20T14:15:38.804Z</time></trkpt><trkpt lat="37.983825" lon="15.7592233"><ele>395.0</ele><time>2026-04-20T14:15:39.805Z</time></trkpt><trkpt lat="37.9838917" lon="15.75915"><ele>394.99999999999994</ele><time>2026-04-20T14:15:40.803Z</time></trkpt><trkpt lat="37.9839617" lon="15.759085"><ele>395.0</ele><time>2026-04-20T14:15:41.804Z</time></trkpt><trkpt lat="37.9840317" lon="15.7590183"><ele>395.0</ele><time>2026-04-20T14:15:42.804Z</time></trkpt><trkpt lat="37.9841017" lon="15.7589533"><ele>395.0</ele><time>2026-04-20T14:15:43.804Z</time></trkpt><trkpt lat="37.984175" lon="15.7588917"><ele>394.99999999999994</ele><time>2026-04-20T14:15:44.804Z</time></trkpt><trkpt lat="37.9842533" lon="15.758835"><ele>395.0</ele><time>2026-04-20T14:15:45.803Z</time></trkpt><trkpt lat="37.9843383" lon="15.7587917"><ele>392.99999999999994</ele><time>2026-04-20T14:15:46.805Z</time></trkpt><trkpt lat="37.9844283" lon="15.7587633"><ele>391.0</ele><time>2026-04-20T14:15:47.804Z</time></trkpt><trkpt lat="37.9845167" lon="15.75873"><ele>389.0</ele><time>2026-04-20T14:15:48.803Z</time></trkpt><trkpt lat="37.984605" lon="15.7586967"><ele>387.0</ele><time>2026-04-20T14:15:49.804Z</time></trkpt><trkpt lat="37.98469" lon="15.7586817"><ele>385.0</ele><time>2026-04-20T14:15:50.804Z</time></trkpt><trkpt lat="37.98477" lon="15.7586933"><ele>383.0</ele><time>2026-04-20T14:15:51.803Z</time></trkpt><trkpt lat="37.9848483" lon="15.75872"><ele>383.0</ele><time>2026-04-20T14:15:52.804Z</time></trkpt><trkpt lat="37.9849317" lon="15.75875"><ele>383.0</ele><time>2026-04-20T14:15:53.803Z</time></trkpt><trkpt lat="37.9850233" lon="15.758795"><ele>383.0</ele><time>2026-04-20T14:15:54.803Z</time></trkpt><trkpt lat="37.985115" lon="15.7588417"><ele>383.0</ele><time>2026-04-20T14:15:55.805Z</time></trkpt><trkpt lat="37.985215" lon="15.7588917"><ele>383.0</ele><time>2026-04-20T14:15:56.804Z</time></trkpt><trkpt lat="37.9853183" lon="15.7589367"><ele>391.2</ele><time>2026-04-20T14:15:57.804Z</time></trkpt><trkpt lat="37.9854233" lon="15.75898"><ele>399.4</ele><time>2026-04-20T14:15:58.805Z</time></trkpt><trkpt lat="37.9855267" lon="15.759015"><ele>407.59999999999997</ele><time>2026-04-20T14:15:59.805Z</time></trkpt><trkpt lat="37.9856183" lon="15.7590733"><ele>415.79999999999995</ele><time>2026-04-20T14:16:00.802Z</time></trkpt><trkpt lat="37.9856883" lon="15.75919"><ele>424.0</ele><time>2026-04-20T14:16:01.803Z</time></trkpt><trkpt lat="37.9857633" lon="15.75931"><ele>424.4</ele><time>2026-04-20T14:16:02.81Z</time></trkpt><trkpt lat="37.98585" lon="15.7594033"><ele>424.79999999999995</ele><time>2026-04-20T14:16:03.803Z</time></trkpt><trkpt lat="37.9859467" lon="15.7594667"><ele>425.20000000000005</ele><time>2026-04-20T14:16:04.804Z</time></trkpt><trkpt lat="37.9860583" lon="15.7594967"><ele>425.6</ele><time>2026-04-20T14:16:05.804Z</time></trkpt><trkpt lat="37.9861667" lon="15.759535"><ele>426.0</ele><time>2026-04-20T14:16:06.803Z</time></trkpt><trkpt lat="37.9862667" lon="15.7595967"><ele>426.0</ele><time>2026-04-20T14:16:07.804Z</time></trkpt><trkpt lat="37.9863567" lon="15.75969"><ele>426.0</ele><time>2026-04-20T14:16:08.803Z</time></trkpt><trkpt lat="37.9864217" lon="15.7598317"><ele>426.0</ele><time>2026-04-20T14:16:09.802Z</time></trkpt><trkpt lat="37.9864933" lon="15.7599517"><ele>426.0</ele><time>2026-04-20T14:16:10.804Z</time></trkpt><trkpt lat="37.9865717" lon="15.760065"><ele>426.0</ele><time>2026-04-20T14:16:11.804Z</time></trkpt><trkpt lat="37.98664" lon="15.7601883"><ele>426.0</ele><time>2026-04-20T14:16:12.804Z</time></trkpt><trkpt lat="37.9866817" lon="15.76033"><ele>426.0</ele><time>2026-04-20T14:16:13.804Z</time></trkpt><trkpt lat="37.986715" lon="15.7604817"><ele>426.0</ele><time>2026-04-20T14:16:14.804Z</time></trkpt><trkpt lat="37.986735" lon="15.76064"><ele>423.20000000000005</ele><time>2026-04-20T14:16:15.804Z</time></trkpt><trkpt lat="37.9867533" lon="15.7607817"><ele>420.40000000000003</ele><time>2026-04-20T14:16:16.804Z</time></trkpt><trkpt lat="37.98677" lon="15.7609017"><ele>417.6</ele><time>2026-04-20T14:16:17.804Z</time></trkpt><trkpt lat="37.986835" lon="15.7609683"><ele>414.8</ele><time>2026-04-20T14:16:18.803Z</time></trkpt><trkpt lat="37.98694" lon="15.7609683"><ele>412.0</ele><time>2026-04-20T14:16:19.806Z</time></trkpt><trkpt lat="37.98705" lon="15.7609267"><ele>412.0</ele><time>2026-04-20T14:16:20.806Z</time></trkpt><trkpt lat="37.9871467" lon="15.7608983"><ele>412.0</ele><time>2026-04-20T14:16:21.804Z</time></trkpt><trkpt lat="37.9872367" lon="15.76082"><ele>412.0</ele><time>2026-04-20T14:16:22.804Z</time></trkpt><trkpt lat="37.98728" lon="15.7606967"><ele>412.0</ele><time>2026-04-20T14:16:23.804Z</time></trkpt><trkpt lat="37.9872733" lon="15.7605417"><ele>412.0</ele><time>2026-04-20T14:16:24.804Z</time></trkpt><trkpt lat="37.987265" lon="15.76038"><ele>421.33333333333337</ele><time>2026-04-20T14:16:25.805Z</time></trkpt><trkpt lat="37.9872733" lon="15.7600333"><ele>430.66666666666663</ele><time>2026-04-20T14:16:27.803Z</time></trkpt><trkpt lat="37.98728" lon="15.75989"><ele>440.0</ele><time>2026-04-20T14:16:28.804Z</time></trkpt><trkpt lat="37.9873133" lon="15.7597783"><ele>440.0</ele><time>2026-04-20T14:16:29.803Z</time></trkpt><trkpt lat="37.9873917" lon="15.7597267"><ele>440.0</ele><time>2026-04-20T14:16:30.804Z</time></trkpt><trkpt lat="37.9874883" lon="15.7597517"><ele>440.0</ele><time>2026-04-20T14:16:31.804Z</time></trkpt><trkpt lat="37.9875933" lon="15.7598767"><ele>440.0</ele><time>2026-04-20T14:16:32.804Z</time></trkpt><trkpt lat="37.98771" lon="15.7599933"><ele>445.66666666666663</ele><time>2026-04-20T14:16:33.805Z</time></trkpt><trkpt lat="37.9878567" lon="15.76007"><ele>451.33333333333337</ele><time>2026-04-20T14:16:34.804Z</time></trkpt><trkpt lat="37.9880267" lon="15.7601317"><ele>457.0</ele><time>2026-04-20T14:16:35.804Z</time></trkpt><trkpt lat="37.9881817" lon="15.76023"><ele>445.25</ele><time>2026-04-20T14:16:36.804Z</time></trkpt><trkpt lat="37.9883233" lon="15.7603083"><ele>433.5</ele><time>2026-04-20T14:16:37.804Z</time></trkpt><trkpt lat="37.9884633" lon="15.7603267"><ele>421.75</ele><time>2026-04-20T14:16:38.805Z</time></trkpt><trkpt lat="37.9886167" lon="15.7603083"><ele>410.0</ele><time>2026-04-20T14:16:39.805Z</time></trkpt><trkpt lat="37.98877" lon="15.760315"><ele>409.75</ele><time>2026-04-20T14:16:40.803Z</time></trkpt><trkpt lat="37.9889117" lon="15.7602433"><ele>409.5</ele><time>2026-04-20T14:16:41.804Z</time></trkpt><trkpt lat="37.9890417" lon="15.7601517"><ele>409.25</ele><time>2026-04-20T14:16:42.804Z</time></trkpt><trkpt lat="37.9891733" lon="15.760155"><ele>409.0</ele><time>2026-04-20T14:16:43.805Z</time></trkpt><trkpt lat="37.989315" lon="15.76012"><ele>419.25</ele><time>2026-04-20T14:16:44.804Z</time></trkpt><trkpt lat="37.9894633" lon="15.7600967"><ele>429.5</ele><time>2026-04-20T14:16:45.804Z</time></trkpt><trkpt lat="37.9896067" lon="15.7600867"><ele>439.75</ele><time>2026-04-20T14:16:46.803Z</time></trkpt><trkpt lat="37.9897383" lon="15.760065"><ele>450.0</ele><time>2026-04-20T14:16:47.803Z</time></trkpt><trkpt lat="37.98985" lon="15.7599833"><ele>450.0</ele><time>2026-04-20T14:16:48.804Z</time></trkpt><trkpt lat="37.989945" lon="15.7599033"><ele>450.0</ele><time>2026-04-20T14:16:49.804Z</time></trkpt><trkpt lat="37.99002" lon="15.7598217"><ele>450.0</ele><time>2026-04-20T14:16:50.806Z</time></trkpt><trkpt lat="37.9900733" lon="15.7597083"><ele>450.0</ele><time>2026-04-20T14:16:51.805Z</time></trkpt><trkpt lat="37.9901117" lon="15.759585"><ele>450.0</ele><time>2026-04-20T14:16:52.805Z</time></trkpt><trkpt lat="37.9901733" lon="15.7594983"><ele>454.3333333333333</ele><time>2026-04-20T14:16:53.803Z</time></trkpt><trkpt lat="37.9902517" lon="15.7594667"><ele>458.66666666666663</ele><time>2026-04-20T14:16:54.804Z</time></trkpt><trkpt lat="37.9903367" lon="15.7594583"><ele>463.0</ele><time>2026-04-20T14:16:55.803Z</time></trkpt><trkpt lat="37.9904233" lon="15.7594867"><ele>467.3333333333333</ele><time>2026-04-20T14:16:56.804Z</time></trkpt><trkpt lat="37.990495" lon="15.7595717"><ele>471.66666666666663</ele><time>2026-04-20T14:16:57.804Z</time></trkpt><trkpt lat="37.9905517" lon="15.759665"><ele>476.0</ele><time>2026-04-20T14:16:58.804Z</time></trkpt><trkpt lat="37.9906067" lon="15.7597533"><ele>475.99999999999994</ele><time>2026-04-20T14:16:59.803Z</time></trkpt><trkpt lat="37.9906617" lon="15.7598467"><ele>476.0</ele><time>2026-04-20T14:17:00.804Z</time></trkpt><trkpt lat="37.9906883" lon="15.7599533"><ele>476.0</ele><time>2026-04-20T14:17:01.805Z</time></trkpt><trkpt lat="37.9906933" lon="15.7600683"><ele>476.0</ele><time>2026-04-20T14:17:02.804Z</time></trkpt><trkpt lat="37.9906933" lon="15.7601767"><ele>475.99999999999994</ele><time>2026-04-20T14:17:03.803Z</time></trkpt><trkpt lat="37.9906833" lon="15.76029"><ele>476.0</ele><time>2026-04-20T14:17:04.805Z</time></trkpt><trkpt lat="37.990665" lon="15.7604083"><ele>473.99999999999994</ele><time>2026-04-20T14:17:05.803Z</time></trkpt><trkpt lat="37.99064" lon="15.760525"><ele>472.0</ele><time>2026-04-20T14:17:06.804Z</time></trkpt><trkpt lat="37.99062" lon="15.7606383"><ele>470.0</ele><time>2026-04-20T14:17:07.804Z</time></trkpt><trkpt lat="37.9906467" lon="15.7607367"><ele>468.0</ele><time>2026-04-20T14:17:08.804Z</time></trkpt><trkpt lat="37.990705" lon="15.76081"><ele>465.99999999999994</ele><time>2026-04-20T14:17:09.804Z</time></trkpt><trkpt lat="37.9907917" lon="15.7608283"><ele>464.0</ele><time>2026-04-20T14:17:10.805Z</time></trkpt><trkpt lat="37.990895" lon="15.7607883"><ele>464.0</ele><time>2026-04-20T14:17:11.804Z</time></trkpt><trkpt lat="37.9909883" lon="15.7607667"><ele>464.0</ele><time>2026-04-20T14:17:12.804Z</time></trkpt><trkpt lat="37.9910917" lon="15.7607367"><ele>464.0</ele><time>2026-04-20T14:17:13.804Z</time></trkpt><trkpt lat="37.9912017" lon="15.7607"><ele>464.0</ele><time>2026-04-20T14:17:14.804Z</time></trkpt><trkpt lat="37.9913117" lon="15.7606667"><ele>464.0</ele><time>2026-04-20T14:17:15.804Z</time></trkpt><trkpt lat="37.9914167" lon="15.76064"><ele>464.0</ele><time>2026-04-20T14:17:16.804Z</time></trkpt><trkpt lat="37.99151" lon="15.7606867"><ele>464.0</ele><time>2026-04-20T14:17:17.805Z</time></trkpt><trkpt lat="37.9915983" lon="15.76077"><ele>464.0</ele><time>2026-04-20T14:17:18.804Z</time></trkpt><trkpt lat="37.99169" lon="15.760855"><ele>464.0</ele><time>2026-04-20T14:17:19.804Z</time></trkpt><trkpt lat="37.9917883" lon="15.760945"><ele>464.0</ele><time>2026-04-20T14:17:20.805Z</time></trkpt><trkpt lat="37.9918983" lon="15.7609917"><ele>462.0</ele><time>2026-04-20T14:17:21.804Z</time></trkpt><trkpt lat="37.9920117" lon="15.7609883"><ele>460.0</ele><time>2026-04-20T14:17:22.804Z</time></trkpt><trkpt lat="37.992115" lon="15.760935"><ele>458.0</ele><time>2026-04-20T14:17:23.803Z</time></trkpt><trkpt lat="37.9922" lon="15.7608417"><ele>456.0</ele><time>2026-04-20T14:17:24.804Z</time></trkpt><trkpt lat="37.9922417" lon="15.7607"><ele>456.0</ele><time>2026-04-20T14:17:25.804Z</time></trkpt><trkpt lat="37.9922633" lon="15.76054"><ele>456.0</ele><time>2026-04-20T14:17:26.805Z</time></trkpt><trkpt lat="37.9923033" lon="15.7603917"><ele>456.0</ele><time>2026-04-20T14:17:27.804Z</time></trkpt><trkpt lat="37.9923633" lon="15.7602567"><ele>456.0</ele><time>2026-04-20T14:17:28.81Z</time></trkpt><trkpt lat="37.9924383" lon="15.7601383"><ele>458.5</ele><time>2026-04-20T14:17:29.804Z</time></trkpt><trkpt lat="37.9925283" lon="15.760045"><ele>461.0</ele><time>2026-04-20T14:17:30.804Z</time></trkpt><trkpt lat="37.9926417" lon="15.7599733"><ele>463.5</ele><time>2026-04-20T14:17:31.804Z</time></trkpt><trkpt lat="37.9926867" lon="15.7598467"><ele>466.0</ele><time>2026-04-20T14:17:32.803Z</time></trkpt><trkpt lat="37.9927767" lon="15.7597333"><ele>466.0</ele><time>2026-04-20T14:17:33.803Z</time></trkpt><trkpt lat="37.9928883" lon="15.759695"><ele>466.0</ele><time>2026-04-20T14:17:34.804Z</time></trkpt><trkpt lat="37.992985" lon="15.75963"><ele>466.0</ele><time>2026-04-20T14:17:35.804Z</time></trkpt><trkpt lat="37.9931033" lon="15.7596167"><ele>466.0</ele><time>2026-04-20T14:17:36.804Z</time></trkpt><trkpt lat="37.9932267" lon="15.7596183"><ele>470.0</ele><time>2026-04-20T14:17:37.803Z</time></trkpt><trkpt lat="37.9933533" lon="15.7596367"><ele>474.0</ele><time>2026-04-20T14:17:38.805Z</time></trkpt><trkpt lat="37.9934733" lon="15.7596267"><ele>478.0</ele><time>2026-04-20T14:17:39.804Z</time></trkpt><trkpt lat="37.9935833" lon="15.7596217"><ele>482.0</ele><time>2026-04-20T14:17:40.803Z</time></trkpt><trkpt lat="37.99369" lon="15.75962"><ele>482.0</ele><time>2026-04-20T14:17:41.804Z</time></trkpt><trkpt lat="37.9937883" lon="15.7596517"><ele>482.00000000000006</ele><time>2026-04-20T14:17:42.805Z</time></trkpt><trkpt lat="37.9938817" lon="15.7597133"><ele>482.00000000000006</ele><time>2026-04-20T14:17:43.803Z</time></trkpt><trkpt lat="37.9939733" lon="15.7597817"><ele>482.0</ele><time>2026-04-20T14:17:44.803Z</time></trkpt><trkpt lat="37.99407" lon="15.759845"><ele>482.0</ele><time>2026-04-20T14:17:45.803Z</time></trkpt><trkpt lat="37.994155" lon="15.7599283"><ele>481.8</ele><time>2026-04-20T14:17:46.803Z</time></trkpt><trkpt lat="37.9942333" lon="15.760025"><ele>481.6</ele><time>2026-04-20T14:17:47.804Z</time></trkpt><trkpt lat="37.9942967" lon="15.760135"><ele>481.40000000000003</ele><time>2026-04-20T14:17:48.803Z</time></trkpt><trkpt lat="37.9943283" lon="15.76026"><ele>481.20000000000005</ele><time>2026-04-20T14:17:49.803Z</time></trkpt><trkpt lat="37.9943533" lon="15.76038"><ele>481.0</ele><time>2026-04-20T14:17:50.804Z</time></trkpt><trkpt lat="37.9943783" lon="15.7605033"><ele>478.0</ele><time>2026-04-20T14:17:51.803Z</time></trkpt><trkpt lat="37.9944" lon="15.7606317"><ele>475.0</ele><time>2026-04-20T14:17:52.805Z</time></trkpt><trkpt lat="37.994415" lon="15.76076"><ele>472.0</ele><time>2026-04-20T14:17:53.803Z</time></trkpt><trkpt lat="37.9944733" lon="15.7608467"><ele>469.0</ele><time>2026-04-20T14:17:54.804Z</time></trkpt><trkpt lat="37.9945483" lon="15.7609067"><ele>466.0</ele><time>2026-04-20T14:17:55.803Z</time></trkpt><trkpt lat="37.9946367" lon="15.7609217"><ele>466.0</ele><time>2026-04-20T14:17:56.802Z</time></trkpt><trkpt lat="37.99473" lon="15.76089"><ele>466.0</ele><time>2026-04-20T14:17:57.804Z</time></trkpt><trkpt lat="37.99482" lon="15.7608283"><ele>466.0</ele><time>2026-04-20T14:17:58.804Z</time></trkpt><trkpt lat="37.99488" lon="15.7607233"><ele>466.0</ele><time>2026-04-20T14:17:59.804Z</time></trkpt><trkpt lat="37.9948867" lon="15.760585"><ele>466.0</ele><time>2026-04-20T14:18:00.804Z</time></trkpt><trkpt lat="37.9948917" lon="15.760445"><ele>466.0</ele><time>2026-04-20T14:18:01.802Z</time></trkpt><trkpt lat="37.9949233" lon="15.7603"><ele>466.0</ele><time>2026-04-20T14:18:02.807Z</time></trkpt><trkpt lat="37.9949633" lon="15.76016"><ele>466.0</ele><time>2026-04-20T14:18:03.805Z</time></trkpt><trkpt lat="37.9949883" lon="15.7600233"><ele>466.0</ele><time>2026-04-20T14:18:04.804Z</time></trkpt><trkpt lat="37.9950167" lon="15.7598933"><ele>467.8</ele><time>2026-04-20T14:18:05.803Z</time></trkpt><trkpt lat="37.995045" lon="15.7597667"><ele>469.6</ele><time>2026-04-20T14:18:06.803Z</time></trkpt><trkpt lat="37.995085" lon="15.7596417"><ele>471.4</ele><time>2026-04-20T14:18:07.804Z</time></trkpt><trkpt lat="37.9951117" lon="15.7595167"><ele>473.2</ele><time>2026-04-20T14:18:08.805Z</time></trkpt><trkpt lat="37.99514" lon="15.759395"><ele>475.0</ele><time>2026-04-20T14:18:09.803Z</time></trkpt><trkpt lat="37.995165" lon="15.7592767"><ele>478.6666666666667</ele><time>2026-04-20T14:18:10.804Z</time></trkpt><trkpt lat="37.9951817" lon="15.7591617"><ele>482.33333333333337</ele><time>2026-04-20T14:18:11.802Z</time></trkpt><trkpt lat="37.9952283" lon="15.7590717"><ele>486.0</ele><time>2026-04-20T14:18:12.803Z</time></trkpt><trkpt lat="37.99529" lon="15.75901"><ele>489.66666666666663</ele><time>2026-04-20T14:18:13.803Z</time></trkpt><trkpt lat="37.9953567" lon="15.7589567"><ele>493.3333333333333</ele><time>2026-04-20T14:18:14.805Z</time></trkpt><trkpt lat="37.9954417" lon="15.7589483"><ele>497.0</ele><time>2026-04-20T14:18:15.802Z</time></trkpt><trkpt lat="37.9955333" lon="15.7589683"><ele>497.0</ele><time>2026-04-20T14:18:16.804Z</time></trkpt><trkpt lat="37.99563" lon="15.7590133"><ele>497.00000000000006</ele><time>2026-04-20T14:18:17.804Z</time></trkpt><trkpt lat="37.9957283" lon="15.7590617"><ele>497.00000000000006</ele><time>2026-04-20T14:18:18.803Z</time></trkpt><trkpt lat="37.99582" lon="15.75915"><ele>497.0</ele><time>2026-04-20T14:18:19.804Z</time></trkpt><trkpt lat="37.9958917" lon="15.7592583"><ele>497.0</ele><time>2026-04-20T14:18:20.804Z</time></trkpt><trkpt lat="37.99595" lon="15.7593933"><ele>498.0</ele><time>2026-04-20T14:18:21.802Z</time></trkpt><trkpt lat="37.9960117" lon="15.7595183"><ele>499.0</ele><time>2026-04-20T14:18:22.804Z</time></trkpt><trkpt lat="37.9960933" lon="15.7596417"><ele>500.0</ele><time>2026-04-20T14:18:23.807Z</time></trkpt><trkpt lat="37.99618" lon="15.7597733"><ele>501.0</ele><time>2026-04-20T14:18:24.803Z</time></trkpt><trkpt lat="37.9962583" lon="15.759905"><ele>501.0</ele><time>2026-04-20T14:18:25.803Z</time></trkpt><trkpt lat="37.9963367" lon="15.7600367"><ele>501.0</ele><time>2026-04-20T14:18:26.803Z</time></trkpt><trkpt lat="37.9964117" lon="15.76016"><ele>501.0</ele><time>2026-04-20T14:18:27.803Z</time></trkpt><trkpt lat="37.9964817" lon="15.7602817"><ele>501.0</ele><time>2026-04-20T14:18:28.802Z</time></trkpt><trkpt lat="37.9965433" lon="15.760395"><ele>496.0</ele><time>2026-04-20T14:18:29.803Z</time></trkpt><trkpt lat="37.996605" lon="15.760515"><ele>491.0</ele><time>2026-04-20T14:18:30.802Z</time></trkpt><trkpt lat="37.9966983" lon="15.760575"><ele>486.0</ele><time>2026-04-20T14:18:31.804Z</time></trkpt><trkpt lat="37.99681" lon="15.7606033"><ele>481.0</ele><time>2026-04-20T14:18:32.804Z</time></trkpt><trkpt lat="37.9969317" lon="15.76061"><ele>481.0</ele><time>2026-04-20T14:18:33.802Z</time></trkpt><trkpt lat="37.9970417" lon="15.7606433"><ele>481.0</ele><time>2026-04-20T14:18:34.804Z</time></trkpt><trkpt lat="37.9971417" lon="15.7607267"><ele>481.0</ele><time>2026-04-20T14:18:35.806Z</time></trkpt><trkpt lat="37.997235" lon="15.7607083"><ele>481.0</ele><time>2026-04-20T14:18:36.804Z</time></trkpt><trkpt lat="37.99733" lon="15.7606433"><ele>481.0</ele><time>2026-04-20T14:18:37.804Z</time></trkpt><trkpt lat="37.9974117" lon="15.7605233"><ele>481.0</ele><time>2026-04-20T14:18:38.805Z</time></trkpt><trkpt lat="37.99748" lon="15.7603733"><ele>481.0</ele><time>2026-04-20T14:18:39.803Z</time></trkpt><trkpt lat="37.9975717" lon="15.7602417"><ele>481.0</ele><time>2026-04-20T14:18:40.804Z</time></trkpt><trkpt lat="37.99765" lon="15.7600867"><ele>481.0</ele><time>2026-04-20T14:18:41.803Z</time></trkpt><trkpt lat="37.9977033" lon="15.75992"><ele>480.0</ele><time>2026-04-20T14:18:42.803Z</time></trkpt><trkpt lat="37.99774" lon="15.7597533"><ele>479.0</ele><time>2026-04-20T14:18:43.804Z</time></trkpt><trkpt lat="37.9977717" lon="15.7595967"><ele>478.0</ele><time>2026-04-20T14:18:44.805Z</time></trkpt><trkpt lat="37.997805" lon="15.75945"><ele>477.0</ele><time>2026-04-20T14:18:45.803Z</time></trkpt><trkpt lat="37.9978517" lon="15.7593233"><ele>479.40000000000003</ele><time>2026-04-20T14:18:46.804Z</time></trkpt><trkpt lat="37.9979283" lon="15.7592417"><ele>481.80000000000007</ele><time>2026-04-20T14:18:47.804Z</time></trkpt><trkpt lat="37.9980283" lon="15.7592067"><ele>484.2</ele><time>2026-04-20T14:18:48.803Z</time></trkpt><trkpt lat="37.9981417" lon="15.759195"><ele>486.6</ele><time>2026-04-20T14:18:49.804Z</time></trkpt><trkpt lat="37.9982517" lon="15.7591733"><ele>489.0</ele><time>2026-04-20T14:18:50.805Z</time></trkpt><trkpt lat="37.9983683" lon="15.7591533"><ele>493.0</ele><time>2026-04-20T14:18:51.803Z</time></trkpt><trkpt lat="37.99849" lon="15.75913"><ele>497.0</ele><time>2026-04-20T14:18:52.803Z</time></trkpt><trkpt lat="37.9986167" lon="15.7591017"><ele>501.0</ele><time>2026-04-20T14:18:53.803Z</time></trkpt><trkpt lat="37.9987483" lon="15.7590683"><ele>505.0</ele><time>2026-04-20T14:18:54.803Z</time></trkpt><trkpt lat="37.99887" lon="15.7590833"><ele>505.0</ele><time>2026-04-20T14:18:55.804Z</time></trkpt><trkpt lat="37.9989717" lon="15.7591717"><ele>505.0</ele><time>2026-04-20T14:18:56.804Z</time></trkpt><trkpt lat="37.999055" lon="15.7593067"><ele>505.0</ele><time>2026-04-20T14:18:57.803Z</time></trkpt><trkpt lat="37.9991483" lon="15.7594317"><ele>505.0</ele><time>2026-04-20T14:18:58.803Z</time></trkpt><trkpt lat="37.9992617" lon="15.759515"><ele>506.0</ele><time>2026-04-20T14:18:59.804Z</time></trkpt><trkpt lat="37.99938" lon="15.7595967"><ele>507.0</ele><time>2026-04-20T14:19:00.804Z</time></trkpt><trkpt lat="37.9994583" lon="15.7597017"><ele>508.0</ele><time>2026-04-20T14:19:01.803Z</time></trkpt><trkpt lat="37.9995233" lon="15.7598217"><ele>509.0</ele><time>2026-04-20T14:19:02.806Z</time></trkpt><trkpt lat="37.999585" lon="15.7599417"><ele>509.0</ele><time>2026-04-20T14:19:03.802Z</time></trkpt><trkpt lat="37.9996483" lon="15.760065"><ele>509.0</ele><time>2026-04-20T14:19:04.802Z</time></trkpt><trkpt lat="37.9997" lon="15.760195"><ele>509.0</ele><time>2026-04-20T14:19:05.804Z</time></trkpt><trkpt lat="37.9997433" lon="15.76033"><ele>509.0</ele><time>2026-04-20T14:19:06.804Z</time></trkpt><trkpt lat="37.9997867" lon="15.760465"><ele>506.6</ele><time>2026-04-20T14:19:07.803Z</time></trkpt><trkpt lat="37.9998267" lon="15.7605917"><ele>504.2</ele><time>2026-04-20T14:19:08.804Z</time></trkpt><trkpt lat="37.9998517" lon="15.7607167"><ele>501.80000000000007</ele><time>2026-04-20T14:19:09.802Z</time></trkpt><trkpt lat="37.999885" lon="15.76083"><ele>499.40000000000003</ele><time>2026-04-20T14:19:10.802Z</time></trkpt><trkpt lat="37.99995" lon="15.7608917"><ele>497.0</ele><time>2026-04-20T14:19:11.804Z</time></trkpt><trkpt lat="38.0000333" lon="15.7609017"><ele>497.0</ele><time>2026-04-20T14:19:12.804Z</time></trkpt><trkpt lat="38.00012" lon="15.760875"><ele>497.00000000000006</ele><time>2026-04-20T14:19:13.804Z</time></trkpt><trkpt lat="38.000185" lon="15.7608083"><ele>497.00000000000006</ele><time>2026-04-20T14:19:14.804Z</time></trkpt><trkpt lat="38.00022" lon="15.7606933"><ele>497.0</ele><time>2026-04-20T14:19:15.803Z</time></trkpt><trkpt lat="38.00026" lon="15.7605883"><ele>497.0</ele><time>2026-04-20T14:19:16.803Z</time></trkpt><trkpt lat="38.0002783" lon="15.7604667"><ele>497.0</ele><time>2026-04-20T14:19:17.803Z</time></trkpt><trkpt lat="38.0002867" lon="15.76033"><ele>497.00000000000006</ele><time>2026-04-20T14:19:18.804Z</time></trkpt><trkpt lat="38.000305" lon="15.7601933"><ele>497.00000000000006</ele><time>2026-04-20T14:19:19.804Z</time></trkpt><trkpt lat="38.000355" lon="15.7600633"><ele>497.0</ele><time>2026-04-20T14:19:20.804Z</time></trkpt><trkpt lat="38.0004133" lon="15.7599417"><ele>497.0</ele><time>2026-04-20T14:19:21.805Z</time></trkpt><trkpt lat="38.00047" lon="15.7598317"><ele>497.0</ele><time>2026-04-20T14:19:22.804Z</time></trkpt><trkpt lat="38.0005417" lon="15.7597483"><ele>497.00000000000006</ele><time>2026-04-20T14:19:23.804Z</time></trkpt><trkpt lat="38.0006267" lon="15.75969"><ele>497.00000000000006</ele><time>2026-04-20T14:19:24.805Z</time></trkpt><trkpt lat="38.00073" lon="15.75966"><ele>497.0</ele><time>2026-04-20T14:19:25.805Z</time></trkpt><trkpt lat="38.0008367" lon="15.759625"><ele>497.0</ele><time>2026-04-20T14:19:26.804Z</time></trkpt><trkpt lat="38.00095" lon="15.7595933"><ele>497.0</ele><time>2026-04-20T14:19:27.803Z</time></trkpt><trkpt lat="38.001065" lon="15.75956"><ele>497.00000000000006</ele><time>2026-04-20T14:19:28.804Z</time></trkpt><trkpt lat="38.0011733" lon="15.7595283"><ele>497.00000000000006</ele><time>2026-04-20T14:19:29.804Z</time></trkpt><trkpt lat="38.0012633" lon="15.7595067"><ele>497.0</ele><time>2026-04-20T14:19:30.803Z</time></trkpt><trkpt lat="38.0013417" lon="15.7594833"><ele>497.0</ele><time>2026-04-20T14:19:31.804Z</time></trkpt><trkpt lat="38.0014117" lon="15.7594983"><ele>496.99999999999994</ele><time>2026-04-20T14:19:32.804Z</time></trkpt><trkpt lat="38.0014733" lon="15.75954"><ele>497.0</ele><time>2026-04-20T14:19:33.803Z</time></trkpt><trkpt lat="38.0015267" lon="15.7596017"><ele>497.0</ele><time>2026-04-20T14:19:34.803Z</time></trkpt><trkpt lat="38.0015817" lon="15.75968"><ele>497.0</ele><time>2026-04-20T14:19:35.802Z</time></trkpt><trkpt lat="38.001645" lon="15.7597733"><ele>496.99999999999994</ele><time>2026-04-20T14:19:36.804Z</time></trkpt><trkpt lat="38.001715" lon="15.7598867"><ele>497.0</ele><time>2026-04-20T14:19:37.804Z</time></trkpt><trkpt lat="38.0017867" lon="15.760005"><ele>498.0</ele><time>2026-04-20T14:19:38.804Z</time></trkpt><trkpt lat="38.0018617" lon="15.7601217"><ele>499.0</ele><time>2026-04-20T14:19:39.803Z</time></trkpt><trkpt lat="38.0019433" lon="15.7602233"><ele>500.0</ele><time>2026-04-20T14:19:40.804Z</time></trkpt><trkpt lat="38.0020283" lon="15.760325"><ele>501.0</ele><time>2026-04-20T14:19:41.803Z</time></trkpt><trkpt lat="38.00211" lon="15.7604267"><ele>499.8</ele><time>2026-04-20T14:19:42.803Z</time></trkpt><trkpt lat="38.0021983" lon="15.76051"><ele>498.6</ele><time>2026-04-20T14:19:43.803Z</time></trkpt><trkpt lat="38.00229" lon="15.760575"><ele>497.4</ele><time>2026-04-20T14:19:44.804Z</time></trkpt><trkpt lat="38.002385" lon="15.7606183"><ele>496.2</ele><time>2026-04-20T14:19:45.802Z</time></trkpt><trkpt lat="38.002485" lon="15.7606217"><ele>495.0</ele><time>2026-04-20T14:19:46.803Z</time></trkpt><trkpt lat="38.00258" lon="15.7605933"><ele>495.0</ele><time>2026-04-20T14:19:47.803Z</time></trkpt><trkpt lat="38.00267" lon="15.760535"><ele>495.0</ele><time>2026-04-20T14:19:48.802Z</time></trkpt><trkpt lat="38.00276" lon="15.76046"><ele>495.0</ele><time>2026-04-20T14:19:49.802Z</time></trkpt><trkpt lat="38.002855" lon="15.7603933"><ele>495.0</ele><time>2026-04-20T14:19:50.804Z</time></trkpt><trkpt lat="38.0029583" lon="15.760345"><ele>495.0</ele><time>2026-04-20T14:19:51.803Z</time></trkpt><trkpt lat="38.003065" lon="15.7602933"><ele>495.0</ele><time>2026-04-20T14:19:52.804Z</time></trkpt><trkpt lat="38.0031733" lon="15.760275"><ele>495.0</ele><time>2026-04-20T14:19:53.802Z</time></trkpt><trkpt lat="38.003285" lon="15.7602917"><ele>495.0</ele><time>2026-04-20T14:19:54.803Z</time></trkpt><trkpt lat="38.0034017" lon="15.76033"><ele>495.0</ele><time>2026-04-20T14:19:55.804Z</time></trkpt><trkpt lat="38.0035217" lon="15.760365"><ele>495.0</ele><time>2026-04-20T14:19:56.803Z</time></trkpt><trkpt lat="38.0036417" lon="15.76041"><ele>495.0</ele><time>2026-04-20T14:19:57.803Z</time></trkpt><trkpt lat="38.0037617" lon="15.7604433"><ele>495.0</ele><time>2026-04-20T14:19:58.803Z</time></trkpt><trkpt lat="38.00388" lon="15.7604667"><ele>495.0</ele><time>2026-04-20T14:19:59.802Z</time></trkpt><trkpt lat="38.0039967" lon="15.7604867"><ele>495.0</ele><time>2026-04-20T14:20:00.804Z</time></trkpt><trkpt lat="38.0041033" lon="15.7605"><ele>495.0</ele><time>2026-04-20T14:20:01.804Z</time></trkpt><trkpt lat="38.004205" lon="15.7605067"><ele>495.0</ele><time>2026-04-20T14:20:02.806Z</time></trkpt><trkpt lat="38.0042983" lon="15.7605367"><ele>495.0</ele><time>2026-04-20T14:20:03.803Z</time></trkpt><trkpt lat="38.0043817" lon="15.760495"><ele>495.0</ele><time>2026-04-20T14:20:04.804Z</time></trkpt><trkpt lat="38.0044533" lon="15.7604133"><ele>495.25</ele><time>2026-04-20T14:20:05.805Z</time></trkpt><trkpt lat="38.004515" lon="15.760305"><ele>495.5</ele><time>2026-04-20T14:20:06.805Z</time></trkpt><trkpt lat="38.0045633" lon="15.760175"><ele>495.75</ele><time>2026-04-20T14:20:07.805Z</time></trkpt><trkpt lat="38.0046117" lon="15.7600367"><ele>496.0</ele><time>2026-04-20T14:20:08.804Z</time></trkpt><trkpt lat="38.00467" lon="15.7599"><ele>501.0</ele><time>2026-04-20T14:20:09.804Z</time></trkpt><trkpt lat="38.004725" lon="15.7597517"><ele>506.0</ele><time>2026-04-20T14:20:10.803Z</time></trkpt><trkpt lat="38.004785" lon="15.7596083"><ele>511.0</ele><time>2026-04-20T14:20:11.804Z</time></trkpt><trkpt lat="38.004845" lon="15.7594683"><ele>516.0</ele><time>2026-04-20T14:20:12.804Z</time></trkpt><trkpt lat="38.0049017" lon="15.7593317"><ele>515.25</ele><time>2026-04-20T14:20:13.804Z</time></trkpt><trkpt lat="38.00497" lon="15.759205"><ele>514.5</ele><time>2026-04-20T14:20:14.806Z</time></trkpt><trkpt lat="38.0050417" lon="15.7590833"><ele>513.75</ele><time>2026-04-20T14:20:15.804Z</time></trkpt><trkpt lat="38.0051167" lon="15.7589667"><ele>513.0</ele><time>2026-04-20T14:20:16.803Z</time></trkpt><trkpt lat="38.0051733" lon="15.7588333"><ele>513.0</ele><time>2026-04-20T14:20:17.803Z</time></trkpt><trkpt lat="38.0052417" lon="15.758725"><ele>513.0</ele><time>2026-04-20T14:20:18.804Z</time></trkpt><trkpt lat="38.005315" lon="15.7586383"><ele>513.0</ele><time>2026-04-20T14:20:19.804Z</time></trkpt><trkpt lat="38.0053933" lon="15.75858"><ele>513.0</ele><time>2026-04-20T14:20:20.804Z</time></trkpt><trkpt lat="38.0054733" lon="15.758555"><ele>513.0</ele><time>2026-04-20T14:20:21.803Z</time></trkpt><trkpt lat="38.0055583" lon="15.758575"><ele>513.0</ele><time>2026-04-20T14:20:22.803Z</time></trkpt><trkpt lat="38.0056417" lon="15.7586367"><ele>513.0</ele><time>2026-04-20T14:20:23.804Z</time></trkpt><trkpt lat="38.0057167" lon="15.7587167"><ele>513.0</ele><time>2026-04-20T14:20:24.803Z</time></trkpt><trkpt lat="38.0058" lon="15.7588133"><ele>513.0</ele><time>2026-04-20T14:20:25.805Z</time></trkpt><trkpt lat="38.0058933" lon="15.7589067"><ele>513.0</ele><time>2026-04-20T14:20:26.805Z</time></trkpt><trkpt lat="38.0059917" lon="15.7590133"><ele>511.25</ele><time>2026-04-20T14:20:27.804Z</time></trkpt><trkpt lat="38.0061" lon="15.7591167"><ele>509.5</ele><time>2026-04-20T14:20:28.805Z</time></trkpt><trkpt lat="38.0062033" lon="15.7592367"><ele>507.75</ele><time>2026-04-20T14:20:29.805Z</time></trkpt><trkpt lat="38.0062967" lon="15.7593483"><ele>506.0</ele><time>2026-04-20T14:20:30.804Z</time></trkpt><trkpt lat="38.0063883" lon="15.7594433"><ele>505.75</ele><time>2026-04-20T14:20:31.803Z</time></trkpt><trkpt lat="38.0064867" lon="15.7595133"><ele>505.5</ele><time>2026-04-20T14:20:32.804Z</time></trkpt><trkpt lat="38.0065983" lon="15.7595467"><ele>505.25</ele><time>2026-04-20T14:20:33.804Z</time></trkpt><trkpt lat="38.006725" lon="15.759535"><ele>505.0</ele><time>2026-04-20T14:20:34.804Z</time></trkpt><trkpt lat="38.0068567" lon="15.7595167"><ele>505.0</ele><time>2026-04-20T14:20:35.805Z</time></trkpt><trkpt lat="38.0069883" lon="15.7595033"><ele>505.0</ele><time>2026-04-20T14:20:36.804Z</time></trkpt><trkpt lat="38.0071133" lon="15.7594833"><ele>505.0</ele><time>2026-04-20T14:20:37.804Z</time></trkpt><trkpt lat="38.0072283" lon="15.759465"><ele>505.0</ele><time>2026-04-20T14:20:38.805Z</time></trkpt><trkpt lat="38.00733" lon="15.7594433"><ele>505.00000000000006</ele><time>2026-04-20T14:20:39.804Z</time></trkpt><trkpt lat="38.0074183" lon="15.759435"><ele>505.0</ele><time>2026-04-20T14:20:40.804Z</time></trkpt><trkpt lat="38.0074983" lon="15.7594533"><ele>505.0</ele><time>2026-04-20T14:20:41.803Z</time></trkpt><trkpt lat="38.0075717" lon="15.7594867"><ele>505.0</ele><time>2026-04-20T14:20:42.807Z</time></trkpt><trkpt lat="38.00764" lon="15.7595433"><ele>505.00000000000006</ele><time>2026-04-20T14:20:43.802Z</time></trkpt><trkpt lat="38.0077033" lon="15.7596183"><ele>505.0</ele><time>2026-04-20T14:20:44.804Z</time></trkpt><trkpt lat="38.0077633" lon="15.7597217"><ele>507.0</ele><time>2026-04-20T14:20:45.803Z</time></trkpt><trkpt lat="38.0078233" lon="15.75984"><ele>509.0</ele><time>2026-04-20T14:20:46.803Z</time></trkpt><trkpt lat="38.0079067" lon="15.759945"><ele>511.0</ele><time>2026-04-20T14:20:47.802Z</time></trkpt><trkpt lat="38.0079917" lon="15.7600383"><ele>513.0</ele><time>2026-04-20T14:20:48.804Z</time></trkpt><trkpt lat="38.0080733" lon="15.7601117"><ele>515.0</ele><time>2026-04-20T14:20:49.804Z</time></trkpt><trkpt lat="38.0081467" lon="15.7601783"><ele>515.1666666666666</ele><time>2026-04-20T14:20:50.804Z</time></trkpt><trkpt lat="38.0081883" lon="15.7602567"><ele>515.3333333333333</ele><time>2026-04-20T14:20:51.804Z</time></trkpt><trkpt lat="38.0081767" lon="15.760355"><ele>515.5</ele><time>2026-04-20T14:20:52.802Z</time></trkpt><trkpt lat="38.0081233" lon="15.7604517"><ele>515.6666666666666</ele><time>2026-04-20T14:20:53.803Z</time></trkpt><trkpt lat="38.008045" lon="15.7605467"><ele>515.8333333333334</ele><time>2026-04-20T14:20:54.802Z</time></trkpt><trkpt lat="38.0080317" lon="15.7606417"><ele>516.0</ele><time>2026-04-20T14:20:55.804Z</time></trkpt><trkpt lat="38.0079517" lon="15.7607683"><ele>516.0</ele><time>2026-04-20T14:20:56.804Z</time></trkpt><trkpt lat="38.0079133" lon="15.760915"><ele>516.0</ele><time>2026-04-20T14:20:57.804Z</time></trkpt><trkpt lat="38.007955" lon="15.761055"><ele>516.0</ele><time>2026-04-20T14:20:58.804Z</time></trkpt><trkpt lat="38.0080183" lon="15.7611867"><ele>516.0</ele><time>2026-04-20T14:20:59.804Z</time></trkpt><trkpt lat="38.0080617" lon="15.7613367"><ele>514.75</ele><time>2026-04-20T14:21:00.804Z</time></trkpt><trkpt lat="38.0081717" lon="15.7614283"><ele>513.5</ele><time>2026-04-20T14:21:01.804Z</time></trkpt><trkpt lat="38.008265" lon="15.76156"><ele>512.25</ele><time>2026-04-20T14:21:02.803Z</time></trkpt><trkpt lat="38.0083883" lon="15.7616817"><ele>511.0</ele><time>2026-04-20T14:21:03.803Z</time></trkpt><trkpt lat="38.00851" lon="15.761815"><ele>513.5</ele><time>2026-04-20T14:21:04.803Z</time></trkpt><trkpt lat="38.0086233" lon="15.7619483"><ele>516.0</ele><time>2026-04-20T14:21:05.804Z</time></trkpt><trkpt lat="38.0087217" lon="15.7620683"><ele>518.5</ele><time>2026-04-20T14:21:06.805Z</time></trkpt><trkpt lat="38.0088317" lon="15.76212"><ele>521.0</ele><time>2026-04-20T14:21:07.803Z</time></trkpt><trkpt lat="38.0089517" lon="15.7620883"><ele>521.0</ele><time>2026-04-20T14:21:08.804Z</time></trkpt><trkpt lat="38.009065" lon="15.762035"><ele>521.0</ele><time>2026-04-20T14:21:09.804Z</time></trkpt><trkpt lat="38.0091617" lon="15.7620733"><ele>521.0</ele><time>2026-04-20T14:21:10.804Z</time></trkpt><trkpt lat="38.0092533" lon="15.7621317"><ele>521.0</ele><time>2026-04-20T14:21:11.803Z</time></trkpt><trkpt lat="38.009345" lon="15.76221"><ele>521.0</ele><time>2026-04-20T14:21:12.805Z</time></trkpt><trkpt lat="38.009445" lon="15.7622867"><ele>525.0</ele><time>2026-04-20T14:21:13.804Z</time></trkpt><trkpt lat="38.0095367" lon="15.762375"><ele>529.0</ele><time>2026-04-20T14:21:14.805Z</time></trkpt><trkpt lat="38.0096267" lon="15.7624667"><ele>533.0</ele><time>2026-04-20T14:21:15.804Z</time></trkpt><trkpt lat="38.0097133" lon="15.7625583"><ele>537.0</ele><time>2026-04-20T14:21:16.803Z</time></trkpt><trkpt lat="38.0098117" lon="15.76262"><ele>537.0</ele><time>2026-04-20T14:21:17.803Z</time></trkpt><trkpt lat="38.0099167" lon="15.7626583"><ele>537.0</ele><time>2026-04-20T14:21:18.803Z</time></trkpt><trkpt lat="38.0100167" lon="15.762675"><ele>537.0</ele><time>2026-04-20T14:21:19.804Z</time></trkpt><trkpt lat="38.010105" lon="15.7627"><ele>537.0</ele><time>2026-04-20T14:21:20.802Z</time></trkpt><trkpt lat="38.0101733" lon="15.76275"><ele>537.0</ele><time>2026-04-20T14:21:21.803Z</time></trkpt><trkpt lat="38.0102117" lon="15.7628417"><ele>539.1666666666666</ele><time>2026-04-20T14:21:22.804Z</time></trkpt><trkpt lat="38.010235" lon="15.7629467"><ele>541.3333333333334</ele><time>2026-04-20T14:21:23.803Z</time></trkpt><trkpt lat="38.01023" lon="15.76304"><ele>543.5</ele><time>2026-04-20T14:21:24.803Z</time></trkpt><trkpt lat="38.0102317" lon="15.7631467"><ele>545.6666666666667</ele><time>2026-04-20T14:21:25.809Z</time></trkpt><trkpt lat="38.0102433" lon="15.7632417"><ele>547.8333333333334</ele><time>2026-04-20T14:21:26.804Z</time></trkpt><trkpt lat="38.01028" lon="15.7633483"><ele>550.0</ele><time>2026-04-20T14:21:27.803Z</time></trkpt><trkpt lat="38.0103367" lon="15.7634517"><ele>550.0</ele><time>2026-04-20T14:21:28.803Z</time></trkpt><trkpt lat="38.0104083" lon="15.7635283"><ele>550.0</ele><time>2026-04-20T14:21:29.802Z</time></trkpt><trkpt lat="38.0104917" lon="15.7635767"><ele>550.0</ele><time>2026-04-20T14:21:30.803Z</time></trkpt><trkpt lat="38.0105817" lon="15.763595"><ele>550.0</ele><time>2026-04-20T14:21:31.806Z</time></trkpt><trkpt lat="38.0106683" lon="15.763595"><ele>550.0</ele><time>2026-04-20T14:21:32.805Z</time></trkpt><trkpt lat="38.0107567" lon="15.7635933"><ele>550.1666666666667</ele><time>2026-04-20T14:21:33.804Z</time></trkpt><trkpt lat="38.01084" lon="15.7635517"><ele>550.3333333333334</ele><time>2026-04-20T14:21:34.805Z</time></trkpt><trkpt lat="38.0109117" lon="15.763485"><ele>550.5</ele><time>2026-04-20T14:21:35.803Z</time></trkpt><trkpt lat="38.0109667" lon="15.76339"><ele>550.6666666666666</ele><time>2026-04-20T14:21:36.804Z</time></trkpt><trkpt lat="38.0110183" lon="15.763305"><ele>550.8333333333333</ele><time>2026-04-20T14:21:37.802Z</time></trkpt><trkpt lat="38.01107" lon="15.7632483"><ele>551.0</ele><time>2026-04-20T14:21:38.804Z</time></trkpt><trkpt lat="38.0111817" lon="15.7632433"><ele>551.0</ele><time>2026-04-20T14:21:40.802Z</time></trkpt><trkpt lat="38.0112217" lon="15.7633067"><ele>551.0</ele><time>2026-04-20T14:21:41.803Z</time></trkpt><trkpt lat="38.0112467" lon="15.76339"><ele>551.0</ele><time>2026-04-20T14:21:42.804Z</time></trkpt><trkpt lat="38.0112683" lon="15.76347"><ele>551.0</ele><time>2026-04-20T14:21:43.802Z</time></trkpt><trkpt lat="38.0113" lon="15.763605"><ele>551.0</ele><time>2026-04-20T14:21:45.803Z</time></trkpt><trkpt lat="38.0113067" lon="15.7636967"><ele>551.0</ele><time>2026-04-20T14:21:47.803Z</time></trkpt><trkpt lat="38.0113317" lon="15.7637883"><ele>551.0</ele><time>2026-04-20T14:21:50.804Z</time></trkpt><trkpt lat="38.01137" lon="15.7638633"><ele>551.0</ele><time>2026-04-20T14:21:52.804Z</time></trkpt><trkpt lat="38.011445" lon="15.7639783"><ele>551.0</ele><time>2026-04-20T14:21:54.803Z</time></trkpt><trkpt lat="38.0115033" lon="15.76404"><ele>551.0</ele><time>2026-04-20T14:21:55.804Z</time></trkpt><trkpt lat="38.011565" lon="15.7640967"><ele>551.0</ele><time>2026-04-20T14:21:56.803Z</time></trkpt><trkpt lat="38.0116233" lon="15.76415"><ele>551.0</ele><time>2026-04-20T14:21:57.804Z</time></trkpt><trkpt lat="38.0116717" lon="15.764205"><ele>552.5</ele><time>2026-04-20T14:21:58.804Z</time></trkpt><trkpt lat="38.011745" lon="15.7643133"><ele>554.0</ele><time>2026-04-20T14:22:00.804Z</time></trkpt><trkpt lat="38.0117983" lon="15.7644333"><ele>555.5</ele><time>2026-04-20T14:22:02.805Z</time></trkpt><trkpt lat="38.011855" lon="15.764555"><ele>557.0</ele><time>2026-04-20T14:22:04.803Z</time></trkpt><trkpt lat="38.0119683" lon="15.7646167"><ele>557.0</ele><time>2026-04-20T14:22:06.803Z</time></trkpt><trkpt lat="38.01203" lon="15.7646533"><ele>557.0</ele><time>2026-04-20T14:22:07.804Z</time></trkpt><trkpt lat="38.0120933" lon="15.7647033"><ele>557.0</ele><time>2026-04-20T14:22:08.806Z</time></trkpt><trkpt lat="38.0121617" lon="15.7647533"><ele>557.0</ele><time>2026-04-20T14:22:09.803Z</time></trkpt><trkpt lat="38.0122317" lon="15.7648067"><ele>557.0</ele><time>2026-04-20T14:22:10.804Z</time></trkpt><trkpt lat="38.0123017" lon="15.764865"><ele>557.0</ele><time>2026-04-20T14:22:11.804Z</time></trkpt><trkpt lat="38.0123817" lon="15.76489"><ele>557.0</ele><time>2026-04-20T14:22:12.804Z</time></trkpt><trkpt lat="38.012465" lon="15.7649233"><ele>557.0</ele><time>2026-04-20T14:22:13.804Z</time></trkpt><trkpt lat="38.0125383" lon="15.764945"><ele>557.0</ele><time>2026-04-20T14:22:14.806Z</time></trkpt><trkpt lat="38.0126183" lon="15.7649883"><ele>557.0</ele><time>2026-04-20T14:22:15.804Z</time></trkpt><trkpt lat="38.0127083" lon="15.7649917"><ele>557.0</ele><time>2026-04-20T14:22:16.803Z</time></trkpt><trkpt lat="38.01279" lon="15.7649883"><ele>557.0</ele><time>2026-04-20T14:22:17.804Z</time></trkpt><trkpt lat="38.012875" lon="15.765"><ele>559.3333333333333</ele><time>2026-04-20T14:22:18.804Z</time></trkpt><trkpt lat="38.0129633" lon="15.7650167"><ele>561.6666666666666</ele><time>2026-04-20T14:22:19.805Z</time></trkpt><trkpt lat="38.013045" lon="15.7650267"><ele>564.0</ele><time>2026-04-20T14:22:20.804Z</time></trkpt><trkpt lat="38.01312" lon="15.7650117"><ele>566.3333333333334</ele><time>2026-04-20T14:22:21.804Z</time></trkpt><trkpt lat="38.0131883" lon="15.7649983"><ele>568.6666666666667</ele><time>2026-04-20T14:22:22.804Z</time></trkpt><trkpt lat="38.0132567" lon="15.764995"><ele>571.0</ele><time>2026-04-20T14:22:23.805Z</time></trkpt><trkpt lat="38.0133283" lon="15.7649833"><ele>574.0</ele><time>2026-04-20T14:22:24.803Z</time></trkpt><trkpt lat="38.0134017" lon="15.764965"><ele>577.0</ele><time>2026-04-20T14:22:25.803Z</time></trkpt><trkpt lat="38.0134733" lon="15.764945"><ele>580.0</ele><time>2026-04-20T14:22:26.804Z</time></trkpt><trkpt lat="38.013535" lon="15.7649183"><ele>583.0</ele><time>2026-04-20T14:22:27.804Z</time></trkpt><trkpt lat="38.013635" lon="15.7648867"><ele>586.0</ele><time>2026-04-20T14:22:29.804Z</time></trkpt><trkpt lat="38.0137317" lon="15.764855"><ele>589.0</ele><time>2026-04-20T14:22:31.804Z</time></trkpt><trkpt lat="38.0138167" lon="15.7648217"><ele>589.0</ele><time>2026-04-20T14:22:33.805Z</time></trkpt><trkpt lat="38.0138967" lon="15.7647733"><ele>589.0</ele><time>2026-04-20T14:22:35.804Z</time></trkpt><trkpt lat="38.0139733" lon="15.76472"><ele>589.0</ele><time>2026-04-20T14:22:38.805Z</time></trkpt><trkpt lat="38.0139267" lon="15.7646583"><ele>589.0</ele><time>2026-04-20T14:22:41.804Z</time></trkpt><trkpt lat="38.0138917" lon="15.7647333"><ele>589.0</ele><time>2026-04-20T14:22:52.803Z</time></trkpt><trkpt lat="38.0138833" lon="15.76464"><ele>589.0</ele><time>2026-04-20T14:22:58.804Z</time></trkpt><trkpt lat="38.0139417" lon="15.7645983"><ele>589.0</ele><time>2026-04-20T14:33:53.803Z</time></trkpt><trkpt lat="38.0140117" lon="15.7646567"><ele>589.0</ele><time>2026-04-20T14:34:33.805Z</time></trkpt><trkpt lat="38.0140583" lon="15.7647817"><ele>589.0</ele><time>2026-04-20T14:34:35.804Z</time></trkpt><trkpt lat="38.0140783" lon="15.7648667"><ele>589.0</ele><time>2026-04-20T14:34:36.804Z</time></trkpt><trkpt lat="38.0140883" lon="15.764965"><ele>589.0</ele><time>2026-04-20T14:34:37.805Z</time></trkpt><trkpt lat="38.01407" lon="15.7650717"><ele>589.0</ele><time>2026-04-20T14:34:38.805Z</time></trkpt><trkpt lat="38.0140417" lon="15.765185"><ele>588.8333333333334</ele><time>2026-04-20T14:34:39.805Z</time></trkpt><trkpt lat="38.014005" lon="15.7653"><ele>588.6666666666667</ele><time>2026-04-20T14:34:40.806Z</time></trkpt><trkpt lat="38.0139717" lon="15.7654067"><ele>588.5</ele><time>2026-04-20T14:34:41.804Z</time></trkpt><trkpt lat="38.0139433" lon="15.7655033"><ele>588.3333333333334</ele><time>2026-04-20T14:34:42.805Z</time></trkpt><trkpt lat="38.01392" lon="15.7655883"><ele>588.1666666666666</ele><time>2026-04-20T14:34:43.805Z</time></trkpt><trkpt lat="38.0138983" lon="15.76567"><ele>588.0</ele><time>2026-04-20T14:34:44.804Z</time></trkpt><trkpt lat="38.0138933" lon="15.76575"><ele>588.0</ele><time>2026-04-20T14:34:45.804Z</time></trkpt><trkpt lat="38.0139117" lon="15.7658283"><ele>588.0</ele><time>2026-04-20T14:34:46.804Z</time></trkpt><trkpt lat="38.01395" lon="15.7658967"><ele>588.0</ele><time>2026-04-20T14:34:47.804Z</time></trkpt><trkpt lat="38.0140533" lon="15.765995"><ele>588.0</ele><time>2026-04-20T14:34:49.803Z</time></trkpt><trkpt lat="38.0141217" lon="15.7660167"><ele>588.0</ele><time>2026-04-20T14:34:50.803Z</time></trkpt><trkpt lat="38.0141883" lon="15.7660433"><ele>588.0</ele><time>2026-04-20T14:34:51.803Z</time></trkpt><trkpt lat="38.0142717" lon="15.7660583"><ele>589.6</ele><time>2026-04-20T14:34:52.804Z</time></trkpt><trkpt lat="38.01436" lon="15.766065"><ele>591.1999999999999</ele><time>2026-04-20T14:34:53.803Z</time></trkpt><trkpt lat="38.014455" lon="15.7660783"><ele>592.8</ele><time>2026-04-20T14:34:54.805Z</time></trkpt><trkpt lat="38.014545" lon="15.7661017"><ele>594.4</ele><time>2026-04-20T14:34:55.803Z</time></trkpt><trkpt lat="38.014635" lon="15.766115"><ele>596.0</ele><time>2026-04-20T14:34:56.804Z</time></trkpt><trkpt lat="38.0147233" lon="15.766115"><ele>596.0</ele><time>2026-04-20T14:34:57.803Z</time></trkpt><trkpt lat="38.014805" lon="15.7661167"><ele>596.0</ele><time>2026-04-20T14:34:58.804Z</time></trkpt><trkpt lat="38.0148783" lon="15.7661333"><ele>596.0</ele><time>2026-04-20T14:34:59.806Z</time></trkpt><trkpt lat="38.0149367" lon="15.766185"><ele>596.0</ele><time>2026-04-20T14:35:00.804Z</time></trkpt><trkpt lat="38.0149783" lon="15.7662683"><ele>596.0</ele><time>2026-04-20T14:35:01.805Z</time></trkpt><trkpt lat="38.0149983" lon="15.7663733"><ele>596.0</ele><time>2026-04-20T14:35:02.805Z</time></trkpt><trkpt lat="38.0150017" lon="15.766485"><ele>596.0</ele><time>2026-04-20T14:35:03.803Z</time></trkpt><trkpt lat="38.014995" lon="15.7666067"><ele>596.0</ele><time>2026-04-20T14:35:04.804Z</time></trkpt><trkpt lat="38.014985" lon="15.76673"><ele>596.0</ele><time>2026-04-20T14:35:05.804Z</time></trkpt><trkpt lat="38.0149683" lon="15.766855"><ele>596.0</ele><time>2026-04-20T14:35:06.804Z</time></trkpt><trkpt lat="38.0149467" lon="15.766975"><ele>596.0</ele><time>2026-04-20T14:35:07.804Z</time></trkpt><trkpt lat="38.0149317" lon="15.7670883"><ele>595.4</ele><time>2026-04-20T14:35:08.805Z</time></trkpt><trkpt lat="38.0149317" lon="15.7671933"><ele>594.8</ele><time>2026-04-20T14:35:09.803Z</time></trkpt><trkpt lat="38.014945" lon="15.76728"><ele>594.1999999999999</ele><time>2026-04-20T14:35:10.805Z</time></trkpt><trkpt lat="38.0150433" lon="15.767325"><ele>593.6</ele><time>2026-04-20T14:35:12.804Z</time></trkpt><trkpt lat="38.0151217" lon="15.7672433"><ele>593.0</ele><time>2026-04-20T14:35:14.804Z</time></trkpt><trkpt lat="38.0151633" lon="15.76711"><ele>598.25</ele><time>2026-04-20T14:35:16.805Z</time></trkpt><trkpt lat="38.015165" lon="15.7669617"><ele>603.5</ele><time>2026-04-20T14:35:18.804Z</time></trkpt><trkpt lat="38.015155" lon="15.76682"><ele>608.75</ele><time>2026-04-20T14:35:20.805Z</time></trkpt><trkpt lat="38.0151417" lon="15.76669"><ele>614.0</ele><time>2026-04-20T14:35:22.804Z</time></trkpt><trkpt lat="38.0151183" lon="15.76654"><ele>615.4285714285713</ele><time>2026-04-20T14:35:24.804Z</time></trkpt><trkpt lat="38.0151167" lon="15.766455"><ele>616.8571428571429</ele><time>2026-04-20T14:35:25.803Z</time></trkpt><trkpt lat="38.015125" lon="15.766365"><ele>618.2857142857142</ele><time>2026-04-20T14:35:26.804Z</time></trkpt><trkpt lat="38.015145" lon="15.7662767"><ele>619.7142857142857</ele><time>2026-04-20T14:35:27.803Z</time></trkpt><trkpt lat="38.0151783" lon="15.7661933"><ele>621.1428571428571</ele><time>2026-04-20T14:35:28.804Z</time></trkpt><trkpt lat="38.0152083" lon="15.7661117"><ele>622.5714285714286</ele><time>2026-04-20T14:35:29.804Z</time></trkpt><trkpt lat="38.0152333" lon="15.7660367"><ele>624.0</ele><time>2026-04-20T14:35:30.804Z</time></trkpt><trkpt lat="38.0152333" lon="15.7658833"><ele>625.8333333333334</ele><time>2026-04-20T14:35:32.805Z</time></trkpt><trkpt lat="38.01517" lon="15.7657383"><ele>627.6666666666666</ele><time>2026-04-20T14:35:34.804Z</time></trkpt><trkpt lat="38.01513" lon="15.765665"><ele>629.5</ele><time>2026-04-20T14:35:35.804Z</time></trkpt><trkpt lat="38.0150917" lon="15.7655883"><ele>631.3333333333333</ele><time>2026-04-20T14:35:36.803Z</time></trkpt><trkpt lat="38.0150667" lon="15.7655017"><ele>633.1666666666666</ele><time>2026-04-20T14:35:37.803Z</time></trkpt><trkpt lat="38.0150617" lon="15.7654083"><ele>635.0</ele><time>2026-04-20T14:35:38.806Z</time></trkpt><trkpt lat="38.0150767" lon="15.7653133"><ele>635.0</ele><time>2026-04-20T14:35:39.804Z</time></trkpt><trkpt lat="38.01513" lon="15.7652233"><ele>635.0</ele><time>2026-04-20T14:35:40.804Z</time></trkpt><trkpt lat="38.0152017" lon="15.7651383"><ele>635.0</ele><time>2026-04-20T14:35:41.805Z</time></trkpt><trkpt lat="38.0152883" lon="15.7650617"><ele>635.0</ele><time>2026-04-20T14:35:42.803Z</time></trkpt><trkpt lat="38.0153683" lon="15.76498"><ele>635.0</ele><time>2026-04-20T14:35:43.805Z</time></trkpt><trkpt lat="38.0154433" lon="15.764885"><ele>634.4</ele><time>2026-04-20T14:35:44.804Z</time></trkpt><trkpt lat="38.0155217" lon="15.7647967"><ele>633.8</ele><time>2026-04-20T14:35:45.803Z</time></trkpt><trkpt lat="38.0156" lon="15.7647117"><ele>633.2</ele><time>2026-04-20T14:35:46.805Z</time></trkpt><trkpt lat="38.01567" lon="15.7646317"><ele>632.6</ele><time>2026-04-20T14:35:47.805Z</time></trkpt><trkpt lat="38.0157333" lon="15.76456"><ele>632.0</ele><time>2026-04-20T14:35:48.804Z</time></trkpt><trkpt lat="38.01579" lon="15.7644883"><ele>636.6666666666666</ele><time>2026-04-20T14:35:49.804Z</time></trkpt><trkpt lat="38.0158467" lon="15.76443"><ele>641.3333333333333</ele><time>2026-04-20T14:35:50.805Z</time></trkpt><trkpt lat="38.015895" lon="15.764375"><ele>646.0</ele><time>2026-04-20T14:35:51.804Z</time></trkpt><trkpt lat="38.015975" lon="15.7642567"><ele>650.6666666666666</ele><time>2026-04-20T14:35:53.805Z</time></trkpt><trkpt lat="38.0159867" lon="15.7641067"><ele>655.3333333333334</ele><time>2026-04-20T14:35:55.804Z</time></trkpt><trkpt lat="38.0159583" lon="15.7640333"><ele>660.0</ele><time>2026-04-20T14:35:56.805Z</time></trkpt><trkpt lat="38.01588" lon="15.7639117"><ele>656.2</ele><time>2026-04-20T14:35:58.804Z</time></trkpt><trkpt lat="38.015765" lon="15.7638633"><ele>652.4</ele><time>2026-04-20T14:36:00.803Z</time></trkpt><trkpt lat="38.0157017" lon="15.7638667"><ele>648.5999999999999</ele><time>2026-04-20T14:36:01.803Z</time></trkpt><trkpt lat="38.015585" lon="15.76388"><ele>644.8</ele><time>2026-04-20T14:36:03.804Z</time></trkpt><trkpt lat="38.0154633" lon="15.7639067"><ele>641.0</ele><time>2026-04-20T14:36:05.804Z</time></trkpt><trkpt lat="38.0153983" lon="15.763925"><ele>641.0</ele><time>2026-04-20T14:36:06.805Z</time></trkpt><trkpt lat="38.0153217" lon="15.76392"><ele>641.0</ele><time>2026-04-20T14:36:07.804Z</time></trkpt><trkpt lat="38.0152383" lon="15.7638717"><ele>641.0</ele><time>2026-04-20T14:36:08.803Z</time></trkpt><trkpt lat="38.015145" lon="15.76383"><ele>641.0</ele><time>2026-04-20T14:36:09.805Z</time></trkpt><trkpt lat="38.0150617" lon="15.763775"><ele>641.0</ele><time>2026-04-20T14:36:10.806Z</time></trkpt><trkpt lat="38.0149883" lon="15.7637067"><ele>642.25</ele><time>2026-04-20T14:36:11.804Z</time></trkpt><trkpt lat="38.01494" lon="15.7636"><ele>643.5</ele><time>2026-04-20T14:36:12.803Z</time></trkpt><trkpt lat="38.0148917" lon="15.7634717"><ele>644.75</ele><time>2026-04-20T14:36:13.803Z</time></trkpt><trkpt lat="38.014845" lon="15.763325"><ele>646.0</ele><time>2026-04-20T14:36:14.804Z</time></trkpt><trkpt lat="38.0147867" lon="15.76318"><ele>646.0</ele><time>2026-04-20T14:36:15.804Z</time></trkpt><trkpt lat="38.014725" lon="15.7630483"><ele>646.0</ele><time>2026-04-20T14:36:16.804Z</time></trkpt><trkpt lat="38.01467" lon="15.7629317"><ele>646.0</ele><time>2026-04-20T14:36:17.804Z</time></trkpt><trkpt lat="38.0146267" lon="15.7628183"><ele>646.0</ele><time>2026-04-20T14:36:18.808Z</time></trkpt><trkpt lat="38.0146017" lon="15.762705"><ele>646.0</ele><time>2026-04-20T14:36:19.805Z</time></trkpt><trkpt lat="38.01459" lon="15.762595"><ele>648.8333333333334</ele><time>2026-04-20T14:36:20.804Z</time></trkpt><trkpt lat="38.0145683" lon="15.7625183"><ele>651.6666666666667</ele><time>2026-04-20T14:36:21.804Z</time></trkpt><trkpt lat="38.0145233" lon="15.7624233"><ele>654.5</ele><time>2026-04-20T14:36:23.804Z</time></trkpt><trkpt lat="38.0144283" lon="15.7624217"><ele>657.3333333333334</ele><time>2026-04-20T14:36:25.803Z</time></trkpt><trkpt lat="38.0143133" lon="15.7624317"><ele>660.1666666666666</ele><time>2026-04-20T14:36:27.807Z</time></trkpt><trkpt lat="38.014255" lon="15.762395"><ele>663.0</ele><time>2026-04-20T14:36:28.803Z</time></trkpt><trkpt lat="38.0141867" lon="15.7623433"><ele>658.5999999999999</ele><time>2026-04-20T14:36:29.805Z</time></trkpt><trkpt lat="38.01412" lon="15.76229"><ele>654.1999999999999</ele><time>2026-04-20T14:36:30.803Z</time></trkpt><trkpt lat="38.01407" lon="15.7621833"><ele>649.8</ele><time>2026-04-20T14:36:31.803Z</time></trkpt><trkpt lat="38.014015" lon="15.7620733"><ele>645.4</ele><time>2026-04-20T14:36:32.805Z</time></trkpt><trkpt lat="38.0139617" lon="15.7619667"><ele>641.0</ele><time>2026-04-20T14:36:33.804Z</time></trkpt><trkpt lat="38.0139133" lon="15.7618683"><ele>644.0</ele><time>2026-04-20T14:36:34.804Z</time></trkpt><trkpt lat="38.0138567" lon="15.7617867"><ele>647.0</ele><time>2026-04-20T14:36:35.804Z</time></trkpt><trkpt lat="38.0138" lon="15.761725"><ele>650.0</ele><time>2026-04-20T14:36:36.804Z</time></trkpt><trkpt lat="38.0137533" lon="15.7616667"><ele>653.0</ele><time>2026-04-20T14:36:37.805Z</time></trkpt><trkpt lat="38.0137033" lon="15.7616033"><ele>656.0</ele><time>2026-04-20T14:36:38.807Z</time></trkpt><trkpt lat="38.0136633" lon="15.7615283"><ele>659.0</ele><time>2026-04-20T14:36:39.803Z</time></trkpt><trkpt lat="38.0136167" lon="15.7614533"><ele>662.0</ele><time>2026-04-20T14:36:40.804Z</time></trkpt><trkpt lat="38.0135717" lon="15.76138"><ele>662.0</ele><time>2026-04-20T14:36:41.805Z</time></trkpt><trkpt lat="38.0135267" lon="15.7612967"><ele>662.0</ele><time>2026-04-20T14:36:42.805Z</time></trkpt><trkpt lat="38.0134833" lon="15.7612033"><ele>662.0</ele><time>2026-04-20T14:36:43.804Z</time></trkpt><trkpt lat="38.01345" lon="15.7611"><ele>662.0</ele><time>2026-04-20T14:36:44.806Z</time></trkpt><trkpt lat="38.013435" lon="15.761"><ele>662.0</ele><time>2026-04-20T14:36:45.804Z</time></trkpt><trkpt lat="38.0134567" lon="15.7609083"><ele>662.0</ele><time>2026-04-20T14:36:46.804Z</time></trkpt><trkpt lat="38.0135" lon="15.7608317"><ele>662.6666666666666</ele><time>2026-04-20T14:36:47.804Z</time></trkpt><trkpt lat="38.013575" lon="15.7607817"><ele>663.3333333333333</ele><time>2026-04-20T14:36:48.804Z</time></trkpt><trkpt lat="38.01366" lon="15.7607517"><ele>664.0</ele><time>2026-04-20T14:36:49.803Z</time></trkpt><trkpt lat="38.0137533" lon="15.7607317"><ele>664.6666666666666</ele><time>2026-04-20T14:36:50.803Z</time></trkpt><trkpt lat="38.0138417" lon="15.760725"><ele>665.3333333333334</ele><time>2026-04-20T14:36:51.803Z</time></trkpt><trkpt lat="38.01392" lon="15.76072"><ele>666.0</ele><time>2026-04-20T14:36:52.803Z</time></trkpt><trkpt lat="38.0139917" lon="15.76071"><ele>666.0</ele><time>2026-04-20T14:36:53.803Z</time></trkpt><trkpt lat="38.01408" lon="15.7606017"><ele>666.0</ele><time>2026-04-20T14:36:55.803Z</time></trkpt><trkpt lat="38.0141133" lon="15.7605233"><ele>666.0</ele><time>2026-04-20T14:36:56.806Z</time></trkpt><trkpt lat="38.0141267" lon="15.76043"><ele>666.0</ele><time>2026-04-20T14:36:57.803Z</time></trkpt><trkpt lat="38.014135" lon="15.7603217"><ele>666.0</ele><time>2026-04-20T14:36:58.803Z</time></trkpt><trkpt lat="38.01414" lon="15.7602133"><ele>666.0</ele><time>2026-04-20T14:36:59.804Z</time></trkpt><trkpt lat="38.01416" lon="15.7601167"><ele>669.0</ele><time>2026-04-20T14:37:00.802Z</time></trkpt><trkpt lat="38.0141783" lon="15.7600317"><ele>672.0</ele><time>2026-04-20T14:37:01.803Z</time></trkpt><trkpt lat="38.0142267" lon="15.759925"><ele>675.0</ele><time>2026-04-20T14:37:03.805Z</time></trkpt><trkpt lat="38.0142983" lon="15.75992"><ele>678.0</ele><time>2026-04-20T14:37:05.803Z</time></trkpt><trkpt lat="38.0143167" lon="15.7600333"><ele>681.0</ele><time>2026-04-20T14:37:07.802Z</time></trkpt><trkpt lat="38.014305" lon="15.7601167"><ele>684.0</ele><time>2026-04-20T14:37:08.803Z</time></trkpt><trkpt lat="38.0142883" lon="15.7602117"><ele>684.9999999999999</ele><time>2026-04-20T14:37:09.803Z</time></trkpt><trkpt lat="38.0142867" lon="15.7603067"><ele>686.0</ele><time>2026-04-20T14:37:10.805Z</time></trkpt><trkpt lat="38.014295" lon="15.7604017"><ele>687.0</ele><time>2026-04-20T14:37:11.804Z</time></trkpt><trkpt lat="38.0143133" lon="15.7605"><ele>688.0</ele><time>2026-04-20T14:37:12.804Z</time></trkpt><trkpt lat="38.014335" lon="15.76059"><ele>689.0</ele><time>2026-04-20T14:37:13.804Z</time></trkpt><trkpt lat="38.0143617" lon="15.7606683"><ele>689.9999999999999</ele><time>2026-04-20T14:37:14.803Z</time></trkpt><trkpt lat="38.014375" lon="15.7607533"><ele>691.0</ele><time>2026-04-20T14:37:15.802Z</time></trkpt><trkpt lat="38.01438" lon="15.760845"><ele>691.0</ele><time>2026-04-20T14:37:16.803Z</time></trkpt><trkpt lat="38.0143783" lon="15.760935"><ele>691.0</ele><time>2026-04-20T14:37:17.804Z</time></trkpt><trkpt lat="38.0144067" lon="15.761015"><ele>691.0</ele><time>2026-04-20T14:37:18.804Z</time></trkpt><trkpt lat="38.0144417" lon="15.76109"><ele>691.0</ele><time>2026-04-20T14:37:19.803Z</time></trkpt><trkpt lat="38.0144967" lon="15.7611433"><ele>691.0</ele><time>2026-04-20T14:37:20.804Z</time></trkpt><trkpt lat="38.0146017" lon="15.761195"><ele>691.0</ele><time>2026-04-20T14:37:22.803Z</time></trkpt><trkpt lat="38.0146717" lon="15.7611083"><ele>691.0</ele><time>2026-04-20T14:37:24.803Z</time></trkpt><trkpt lat="38.014685" lon="15.7609617"><ele>691.0</ele><time>2026-04-20T14:37:26.805Z</time></trkpt><trkpt lat="38.0147483" lon="15.7608333"><ele>691.0</ele><time>2026-04-20T14:37:28.804Z</time></trkpt><trkpt lat="38.0148333" lon="15.760725"><ele>691.0</ele><time>2026-04-20T14:37:30.804Z</time></trkpt><trkpt lat="38.0148683" lon="15.7605983"><ele>691.0</ele><time>2026-04-20T14:37:32.804Z</time></trkpt><trkpt lat="38.0148183" lon="15.7604867"><ele>691.0</ele><time>2026-04-20T14:37:34.803Z</time></trkpt><trkpt lat="38.0147817" lon="15.7603833"><ele>691.0</ele><time>2026-04-20T14:37:36.804Z</time></trkpt><trkpt lat="38.0148017" lon="15.7602767"><ele>691.0</ele><time>2026-04-20T14:37:38.804Z</time></trkpt><trkpt lat="38.0148517" lon="15.7602067"><ele>691.0</ele><time>2026-04-20T14:37:40.804Z</time></trkpt><trkpt lat="38.014945" lon="15.7601817"><ele>691.0</ele><time>2026-04-20T14:37:42.803Z</time></trkpt><trkpt lat="38.01504" lon="15.7601967"><ele>695.3333333333334</ele><time>2026-04-20T14:37:44.803Z</time></trkpt><trkpt lat="38.015115" lon="15.7602817"><ele>699.6666666666667</ele><time>2026-04-20T14:37:46.803Z</time></trkpt><trkpt lat="38.0151383" lon="15.7604417"><ele>704.0</ele><time>2026-04-20T14:37:48.802Z</time></trkpt><trkpt lat="38.0151517" lon="15.7605233"><ele>708.3333333333334</ele><time>2026-04-20T14:37:49.803Z</time></trkpt><trkpt lat="38.0151717" lon="15.760605"><ele>712.6666666666666</ele><time>2026-04-20T14:37:50.803Z</time></trkpt><trkpt lat="38.015195" lon="15.7606867"><ele>717.0</ele><time>2026-04-20T14:37:51.803Z</time></trkpt><trkpt lat="38.015215" lon="15.76077"><ele>717.0</ele><time>2026-04-20T14:37:52.803Z</time></trkpt><trkpt lat="38.015235" lon="15.7608467"><ele>717.0</ele><time>2026-04-20T14:37:53.803Z</time></trkpt><trkpt lat="38.015315" lon="15.7609417"><ele>717.0</ele><time>2026-04-20T14:37:55.803Z</time></trkpt><trkpt lat="38.01541" lon="15.760885"><ele>717.0</ele><time>2026-04-20T14:37:57.803Z</time></trkpt><trkpt lat="38.01544" lon="15.76081"><ele>717.0</ele><time>2026-04-20T14:37:58.803Z</time></trkpt><trkpt lat="38.0154617" lon="15.7606533"><ele>717.0</ele><time>2026-04-20T14:38:00.804Z</time></trkpt><trkpt lat="38.0154667" lon="15.7605633"><ele>717.0</ele><time>2026-04-20T14:38:01.804Z</time></trkpt><trkpt lat="38.01549" lon="15.7604867"><ele>717.0</ele><time>2026-04-20T14:38:02.804Z</time></trkpt><trkpt lat="38.01551" lon="15.76041"><ele>717.0</ele><time>2026-04-20T14:38:03.803Z</time></trkpt><trkpt lat="38.0155633" lon="15.7603483"><ele>717.0</ele><time>2026-04-20T14:38:04.803Z</time></trkpt><trkpt lat="38.0156317" lon="15.7602967"><ele>717.0</ele><time>2026-04-20T14:38:05.804Z</time></trkpt><trkpt lat="38.0157167" lon="15.7602617"><ele>717.0</ele><time>2026-04-20T14:38:06.803Z</time></trkpt><trkpt lat="38.0158067" lon="15.7602233"><ele>719.5</ele><time>2026-04-20T14:38:07.807Z</time></trkpt><trkpt lat="38.01591" lon="15.7601817"><ele>722.0</ele><time>2026-04-20T14:38:08.804Z</time></trkpt><trkpt lat="38.016025" lon="15.7601367"><ele>724.5</ele><time>2026-04-20T14:38:09.804Z</time></trkpt><trkpt lat="38.0161433" lon="15.7600983"><ele>727.0</ele><time>2026-04-20T14:38:10.803Z</time></trkpt><trkpt lat="38.0162617" lon="15.760055"><ele>727.0</ele><time>2026-04-20T14:38:11.803Z</time></trkpt><trkpt lat="38.0163717" lon="15.7600083"><ele>727.0</ele><time>2026-04-20T14:38:12.803Z</time></trkpt><trkpt lat="38.0164783" lon="15.75997"><ele>727.0</ele><time>2026-04-20T14:38:13.804Z</time></trkpt><trkpt lat="38.0165833" lon="15.7599383"><ele>727.0</ele><time>2026-04-20T14:38:14.804Z</time></trkpt><trkpt lat="38.01668" lon="15.7598817"><ele>727.0</ele><time>2026-04-20T14:38:15.803Z</time></trkpt><trkpt lat="38.016775" lon="15.75981"><ele>730.6</ele><time>2026-04-20T14:38:16.804Z</time></trkpt><trkpt lat="38.01686" lon="15.7597283"><ele>734.2</ele><time>2026-04-20T14:38:17.803Z</time></trkpt><trkpt lat="38.0169383" lon="15.7596383"><ele>737.8</ele><time>2026-04-20T14:38:18.803Z</time></trkpt><trkpt lat="38.0170233" lon="15.75957"><ele>741.4</ele><time>2026-04-20T14:38:19.804Z</time></trkpt><trkpt lat="38.01713" lon="15.75953"><ele>745.0</ele><time>2026-04-20T14:38:20.803Z</time></trkpt><trkpt lat="38.0172383" lon="15.7594917"><ele>745.0</ele><time>2026-04-20T14:38:21.804Z</time></trkpt><trkpt lat="38.0173433" lon="15.75946"><ele>745.0</ele><time>2026-04-20T14:38:22.803Z</time></trkpt><trkpt lat="38.0174467" lon="15.7594333"><ele>745.0</ele><time>2026-04-20T14:38:23.803Z</time></trkpt><trkpt lat="38.017545" lon="15.7594083"><ele>745.0</ele><time>2026-04-20T14:38:24.803Z</time></trkpt><trkpt lat="38.017645" lon="15.7593917"><ele>745.0</ele><time>2026-04-20T14:38:25.805Z</time></trkpt><trkpt lat="38.017735" lon="15.7593617"><ele>745.1666666666667</ele><time>2026-04-20T14:38:26.806Z</time></trkpt><trkpt lat="38.0178117" lon="15.7593233"><ele>745.3333333333334</ele><time>2026-04-20T14:38:27.802Z</time></trkpt><trkpt lat="38.01787" lon="15.7592617"><ele>745.5</ele><time>2026-04-20T14:38:28.806Z</time></trkpt><trkpt lat="38.0179667" lon="15.759265"><ele>745.6666666666666</ele><time>2026-04-20T14:38:30.804Z</time></trkpt><trkpt lat="38.0179617" lon="15.7593633"><ele>745.8333333333333</ele><time>2026-04-20T14:38:32.803Z</time></trkpt><trkpt lat="38.0178867" lon="15.7594567"><ele>746.0</ele><time>2026-04-20T14:38:34.805Z</time></trkpt><trkpt lat="38.0178383" lon="15.7595167"><ele>749.3333333333333</ele><time>2026-04-20T14:38:35.806Z</time></trkpt><trkpt lat="38.0177833" lon="15.7595883"><ele>752.6666666666666</ele><time>2026-04-20T14:38:36.804Z</time></trkpt><trkpt lat="38.01773" lon="15.75967"><ele>756.0</ele><time>2026-04-20T14:38:37.805Z</time></trkpt><trkpt lat="38.0176767" lon="15.75975"><ele>759.3333333333334</ele><time>2026-04-20T14:38:38.804Z</time></trkpt><trkpt lat="38.0176333" lon="15.7598183"><ele>762.6666666666667</ele><time>2026-04-20T14:38:39.803Z</time></trkpt><trkpt lat="38.0175883" lon="15.7598833"><ele>766.0</ele><time>2026-04-20T14:38:41.805Z</time></trkpt><trkpt lat="38.0175717" lon="15.7599717"><ele>766.0</ele><time>2026-04-20T14:38:50.805Z</time></trkpt><trkpt lat="38.0175383" lon="15.7601083"><ele>766.0</ele><time>2026-04-20T14:38:52.803Z</time></trkpt><trkpt lat="38.01751" lon="15.76019"><ele>766.0</ele><time>2026-04-20T14:38:53.803Z</time></trkpt><trkpt lat="38.01748" lon="15.7602783"><ele>766.0</ele><time>2026-04-20T14:38:54.805Z</time></trkpt><trkpt lat="38.0174517" lon="15.76037"><ele>766.0</ele><time>2026-04-20T14:38:55.804Z</time></trkpt><trkpt lat="38.01741" lon="15.760465"><ele>766.0</ele><time>2026-04-20T14:38:56.806Z</time></trkpt><trkpt lat="38.0173683" lon="15.76057"><ele>765.0</ele><time>2026-04-20T14:38:57.804Z</time></trkpt><trkpt lat="38.0173417" lon="15.7606817"><ele>764.0</ele><time>2026-04-20T14:38:58.802Z</time></trkpt><trkpt lat="38.017325" lon="15.7607967"><ele>763.0</ele><time>2026-04-20T14:38:59.803Z</time></trkpt><trkpt lat="38.0173183" lon="15.760915"><ele>762.0</ele><time>2026-04-20T14:39:00.804Z</time></trkpt><trkpt lat="38.0173233" lon="15.761035"><ele>761.0</ele><time>2026-04-20T14:39:01.804Z</time></trkpt><trkpt lat="38.017335" lon="15.7611617"><ele>760.8</ele><time>2026-04-20T14:39:02.804Z</time></trkpt><trkpt lat="38.01733" lon="15.761295"><ele>760.5999999999999</ele><time>2026-04-20T14:39:03.803Z</time></trkpt><trkpt lat="38.01733" lon="15.7614217"><ele>760.4</ele><time>2026-04-20T14:39:04.802Z</time></trkpt><trkpt lat="38.01734" lon="15.7615383"><ele>760.2</ele><time>2026-04-20T14:39:05.803Z</time></trkpt><trkpt lat="38.01736" lon="15.761655"><ele>760.0</ele><time>2026-04-20T14:39:06.804Z</time></trkpt><trkpt lat="38.0173967" lon="15.7617683"><ele>762.5</ele><time>2026-04-20T14:39:07.804Z</time></trkpt><trkpt lat="38.0174483" lon="15.76188"><ele>765.0</ele><time>2026-04-20T14:39:08.803Z</time></trkpt><trkpt lat="38.01749" lon="15.7619867"><ele>767.5</ele><time>2026-04-20T14:39:09.803Z</time></trkpt><trkpt lat="38.0175267" lon="15.762075"><ele>770.0</ele><time>2026-04-20T14:39:10.803Z</time></trkpt><trkpt lat="38.01756" lon="15.7621517"><ele>772.4999999999999</ele><time>2026-04-20T14:39:11.804Z</time></trkpt><trkpt lat="38.0176383" lon="15.7621917"><ele>775.0</ele><time>2026-04-20T14:39:13.804Z</time></trkpt><trkpt lat="38.01768" lon="15.7620783"><ele>774.9999999999999</ele><time>2026-04-20T14:39:15.804Z</time></trkpt><trkpt lat="38.0176933" lon="15.7619817"><ele>775.0</ele><time>2026-04-20T14:39:16.803Z</time></trkpt><trkpt lat="38.0177133" lon="15.761875"><ele>775.0</ele><time>2026-04-20T14:39:17.805Z</time></trkpt><trkpt lat="38.017735" lon="15.76177"><ele>775.0</ele><time>2026-04-20T14:39:18.806Z</time></trkpt><trkpt lat="38.0177583" lon="15.7616617"><ele>774.9999999999999</ele><time>2026-04-20T14:39:19.804Z</time></trkpt><trkpt lat="38.0177783" lon="15.76155"><ele>775.0</ele><time>2026-04-20T14:39:20.804Z</time></trkpt><trkpt lat="38.0178" lon="15.7614317"><ele>776.0</ele><time>2026-04-20T14:39:21.803Z</time></trkpt><trkpt lat="38.0178217" lon="15.7613083"><ele>777.0</ele><time>2026-04-20T14:39:22.804Z</time></trkpt><trkpt lat="38.0178417" lon="15.7611883"><ele>778.0</ele><time>2026-04-20T14:39:23.804Z</time></trkpt><trkpt lat="38.0178667" lon="15.7610733"><ele>779.0</ele><time>2026-04-20T14:39:24.804Z</time></trkpt><trkpt lat="38.017895" lon="15.76097"><ele>780.0</ele><time>2026-04-20T14:39:25.804Z</time></trkpt><trkpt lat="38.0179333" lon="15.7608833"><ele>780.0</ele><time>2026-04-20T14:39:26.803Z</time></trkpt><trkpt lat="38.0179883" lon="15.76082"><ele>780.0</ele><time>2026-04-20T14:39:27.804Z</time></trkpt><trkpt lat="38.0180617" lon="15.76078"><ele>780.0</ele><time>2026-04-20T14:39:28.804Z</time></trkpt><trkpt lat="38.0181617" lon="15.7607733"><ele>780.0</ele><time>2026-04-20T14:39:29.805Z</time></trkpt><trkpt lat="38.0182567" lon="15.7607533"><ele>780.0</ele><time>2026-04-20T14:39:30.804Z</time></trkpt><trkpt lat="38.01835" lon="15.7607267"><ele>780.0</ele><time>2026-04-20T14:39:31.804Z</time></trkpt><trkpt lat="38.0184267" lon="15.7606633"><ele>784.1666666666666</ele><time>2026-04-20T14:39:32.804Z</time></trkpt><trkpt lat="38.0184917" lon="15.76058"><ele>788.3333333333333</ele><time>2026-04-20T14:39:33.803Z</time></trkpt><trkpt lat="38.018555" lon="15.7605033"><ele>792.5</ele><time>2026-04-20T14:39:34.804Z</time></trkpt><trkpt lat="38.0186117" lon="15.7604233"><ele>796.6666666666666</ele><time>2026-04-20T14:39:35.805Z</time></trkpt><trkpt lat="38.0186667" lon="15.7603483"><ele>800.8333333333333</ele><time>2026-04-20T14:39:36.804Z</time></trkpt><trkpt lat="38.018725" lon="15.76028"><ele>805.0</ele><time>2026-04-20T14:39:37.804Z</time></trkpt><trkpt lat="38.0187867" lon="15.7602333"><ele>805.0</ele><time>2026-04-20T14:39:38.804Z</time></trkpt><trkpt lat="38.0188617" lon="15.760225"><ele>805.0</ele><time>2026-04-20T14:39:39.804Z</time></trkpt><trkpt lat="38.0189317" lon="15.76028"><ele>805.0</ele><time>2026-04-20T14:39:40.803Z</time></trkpt><trkpt lat="38.018985" lon="15.7603817"><ele>805.0</ele><time>2026-04-20T14:39:41.804Z</time></trkpt><trkpt lat="38.0190083" lon="15.7605133"><ele>805.0</ele><time>2026-04-20T14:39:42.805Z</time></trkpt><trkpt lat="38.0190133" lon="15.76064"><ele>805.0</ele><time>2026-04-20T14:39:43.804Z</time></trkpt><trkpt lat="38.0189583" lon="15.76079"><ele>805.0</ele><time>2026-04-20T14:39:44.806Z</time></trkpt><trkpt lat="38.0189183" lon="15.7609233"><ele>805.0</ele><time>2026-04-20T14:39:45.802Z</time></trkpt><trkpt lat="38.0188817" lon="15.76106"><ele>805.0</ele><time>2026-04-20T14:39:46.803Z</time></trkpt><trkpt lat="38.0188467" lon="15.7611917"><ele>806.4</ele><time>2026-04-20T14:39:47.803Z</time></trkpt><trkpt lat="38.0188167" lon="15.7613283"><ele>807.8</ele><time>2026-04-20T14:39:48.804Z</time></trkpt><trkpt lat="38.01878" lon="15.7614583"><ele>809.2</ele><time>2026-04-20T14:39:49.804Z</time></trkpt><trkpt lat="38.0187533" lon="15.7615833"><ele>810.6</ele><time>2026-04-20T14:39:50.804Z</time></trkpt><trkpt lat="38.0187367" lon="15.761695"><ele>812.0</ele><time>2026-04-20T14:39:51.804Z</time></trkpt><trkpt lat="38.0187283" lon="15.7617983"><ele>812.0</ele><time>2026-04-20T14:39:52.803Z</time></trkpt><trkpt lat="38.0187217" lon="15.7618883"><ele>812.0</ele><time>2026-04-20T14:39:53.804Z</time></trkpt><trkpt lat="38.0187683" lon="15.7619667"><ele>812.0</ele><time>2026-04-20T14:39:55.803Z</time></trkpt><trkpt lat="38.0188367" lon="15.7618867"><ele>812.0</ele><time>2026-04-20T14:39:57.804Z</time></trkpt><trkpt lat="38.0189083" lon="15.7617467"><ele>812.0</ele><time>2026-04-20T14:39:59.805Z</time></trkpt><trkpt lat="38.0189517" lon="15.76166"><ele>812.0000000000001</ele><time>2026-04-20T14:40:00.803Z</time></trkpt><trkpt lat="38.019005" lon="15.76158"><ele>812.0</ele><time>2026-04-20T14:40:01.805Z</time></trkpt><trkpt lat="38.019065" lon="15.7615033"><ele>812.0</ele><time>2026-04-20T14:40:02.804Z</time></trkpt><trkpt lat="38.0191217" lon="15.76143"><ele>812.0</ele><time>2026-04-20T14:40:03.804Z</time></trkpt><trkpt lat="38.01917" lon="15.7613567"><ele>812.0000000000001</ele><time>2026-04-20T14:40:04.807Z</time></trkpt><trkpt lat="38.0192433" lon="15.7612617"><ele>812.0</ele><time>2026-04-20T14:40:06.804Z</time></trkpt><trkpt lat="38.0193017" lon="15.7613467"><ele>817.4000000000001</ele><time>2026-04-20T14:40:09.804Z</time></trkpt><trkpt lat="38.0192783" lon="15.76151"><ele>822.8000000000001</ele><time>2026-04-20T14:40:11.803Z</time></trkpt><trkpt lat="38.01926" lon="15.7616083"><ele>828.2</ele><time>2026-04-20T14:40:12.804Z</time></trkpt><trkpt lat="38.0192417" lon="15.76171"><ele>833.6</ele><time>2026-04-20T14:40:13.803Z</time></trkpt><trkpt lat="38.0192233" lon="15.7618217"><ele>839.0</ele><time>2026-04-20T14:40:14.804Z</time></trkpt><trkpt lat="38.0192133" lon="15.7619417"><ele>839.4000000000001</ele><time>2026-04-20T14:40:15.804Z</time></trkpt><trkpt lat="38.0192167" lon="15.7620683"><ele>839.8</ele><time>2026-04-20T14:40:16.803Z</time></trkpt><trkpt lat="38.0192333" lon="15.7622"><ele>840.2</ele><time>2026-04-20T14:40:17.804Z</time></trkpt><trkpt lat="38.0192433" lon="15.7623233"><ele>840.5999999999999</ele><time>2026-04-20T14:40:18.804Z</time></trkpt><trkpt lat="38.0192533" lon="15.7624267"><ele>841.0</ele><time>2026-04-20T14:40:19.807Z</time></trkpt><trkpt lat="38.01926" lon="15.7625167"><ele>840.9999999999999</ele><time>2026-04-20T14:40:20.804Z</time></trkpt><trkpt lat="38.0193583" lon="15.7625633"><ele>841.0</ele><time>2026-04-20T14:40:22.804Z</time></trkpt><trkpt lat="38.0194133" lon="15.762515"><ele>841.0</ele><time>2026-04-20T14:40:23.803Z</time></trkpt><trkpt lat="38.01947" lon="15.76245"><ele>841.0</ele><time>2026-04-20T14:40:24.804Z</time></trkpt><trkpt lat="38.0195217" lon="15.7623617"><ele>840.9999999999999</ele><time>2026-04-20T14:40:25.803Z</time></trkpt><trkpt lat="38.01956" lon="15.7622567"><ele>841.0</ele><time>2026-04-20T14:40:26.805Z</time></trkpt><trkpt lat="38.019615" lon="15.7621817"><ele>840.9999999999999</ele><time>2026-04-20T14:40:27.804Z</time></trkpt><trkpt lat="38.0196633" lon="15.7621033"><ele>841.0</ele><time>2026-04-20T14:40:28.804Z</time></trkpt><trkpt lat="38.0197133" lon="15.7620317"><ele>841.0</ele><time>2026-04-20T14:40:29.804Z</time></trkpt><trkpt lat="38.0197617" lon="15.7619567"><ele>841.0</ele><time>2026-04-20T14:40:30.803Z</time></trkpt><trkpt lat="38.019825" lon="15.76191"><ele>840.9999999999999</ele><time>2026-04-20T14:40:31.805Z</time></trkpt><trkpt lat="38.01989" lon="15.7619017"><ele>841.0</ele><time>2026-04-20T14:40:32.803Z</time></trkpt><trkpt lat="38.0199917" lon="15.7619667"><ele>845.4</ele><time>2026-04-20T14:40:34.803Z</time></trkpt><trkpt lat="38.0200233" lon="15.7621167"><ele>849.8</ele><time>2026-04-20T14:40:36.803Z</time></trkpt><trkpt lat="38.0200117" lon="15.7622167"><ele>854.1999999999999</ele><time>2026-04-20T14:40:37.804Z</time></trkpt><trkpt lat="38.0200033" lon="15.762325"><ele>858.5999999999999</ele><time>2026-04-20T14:40:38.804Z</time></trkpt><trkpt lat="38.0199933" lon="15.7624417"><ele>863.0</ele><time>2026-04-20T14:40:39.802Z</time></trkpt><trkpt lat="38.020005" lon="15.7625717"><ele>863.0</ele><time>2026-04-20T14:40:40.804Z</time></trkpt><trkpt lat="38.0200017" lon="15.76271"><ele>863.0</ele><time>2026-04-20T14:40:41.804Z</time></trkpt><trkpt lat="38.019995" lon="15.76284"><ele>863.0</ele><time>2026-04-20T14:40:42.804Z</time></trkpt><trkpt lat="38.0199917" lon="15.7629667"><ele>863.0</ele><time>2026-04-20T14:40:43.803Z</time></trkpt><trkpt lat="38.01999" lon="15.7630817"><ele>863.0</ele><time>2026-04-20T14:40:44.805Z</time></trkpt><trkpt lat="38.0200033" lon="15.7631883"><ele>863.0000000000001</ele><time>2026-04-20T14:40:45.804Z</time></trkpt><trkpt lat="38.0200367" lon="15.763285"><ele>863.0</ele><time>2026-04-20T14:40:46.804Z</time></trkpt><trkpt lat="38.02009" lon="15.7633733"><ele>863.0</ele><time>2026-04-20T14:40:47.806Z</time></trkpt><trkpt lat="38.02016" lon="15.7634483"><ele>863.0</ele><time>2026-04-20T14:40:48.804Z</time></trkpt><trkpt lat="38.0202433" lon="15.7635033"><ele>863.0000000000001</ele><time>2026-04-20T14:40:49.804Z</time></trkpt><trkpt lat="38.02033" lon="15.76354"><ele>863.0</ele><time>2026-04-20T14:40:50.803Z</time></trkpt><trkpt lat="38.020405" lon="15.7635783"><ele>863.0000000000001</ele><time>2026-04-20T14:40:51.803Z</time></trkpt><trkpt lat="38.0204767" lon="15.7635883"><ele>863.0</ele><time>2026-04-20T14:40:52.804Z</time></trkpt><trkpt lat="38.0205433" lon="15.7635667"><ele>863.0</ele><time>2026-04-20T14:40:53.803Z</time></trkpt><trkpt lat="38.020595" lon="15.763505"><ele>863.0</ele><time>2026-04-20T14:40:54.804Z</time></trkpt><trkpt lat="38.0206317" lon="15.7634267"><ele>863.0</ele><time>2026-04-20T14:40:55.805Z</time></trkpt><trkpt lat="38.02065" lon="15.76333"><ele>863.0000000000001</ele><time>2026-04-20T14:40:56.805Z</time></trkpt><trkpt lat="38.0206533" lon="15.7632383"><ele>863.0</ele><time>2026-04-20T14:40:57.805Z</time></trkpt><trkpt lat="38.0206583" lon="15.7631483"><ele>863.0000000000001</ele><time>2026-04-20T14:40:58.805Z</time></trkpt><trkpt lat="38.0206817" lon="15.7630017"><ele>863.0</ele><time>2026-04-20T14:41:00.804Z</time></trkpt><trkpt lat="38.0207717" lon="15.76292"><ele>863.0</ele><time>2026-04-20T14:41:02.808Z</time></trkpt><trkpt lat="38.02084" lon="15.7629167"><ele>863.0</ele><time>2026-04-20T14:41:03.804Z</time></trkpt><trkpt lat="38.02091" lon="15.7629333"><ele>863.0000000000001</ele><time>2026-04-20T14:41:04.804Z</time></trkpt><trkpt lat="38.0209867" lon="15.7629567"><ele>863.0</ele><time>2026-04-20T14:41:05.804Z</time></trkpt><trkpt lat="38.0210717" lon="15.762975"><ele>866.5999999999999</ele><time>2026-04-20T14:41:06.804Z</time></trkpt><trkpt lat="38.0211617" lon="15.7629933"><ele>870.1999999999999</ele><time>2026-04-20T14:41:07.803Z</time></trkpt><trkpt lat="38.02126" lon="15.7629983"><ele>873.8</ele><time>2026-04-20T14:41:08.804Z</time></trkpt><trkpt lat="38.0213617" lon="15.7630117"><ele>877.4</ele><time>2026-04-20T14:41:09.803Z</time></trkpt><trkpt lat="38.0214667" lon="15.7630283"><ele>881.0</ele><time>2026-04-20T14:41:10.803Z</time></trkpt><trkpt lat="38.0215783" lon="15.7630367"><ele>882.5</ele><time>2026-04-20T14:41:11.803Z</time></trkpt><trkpt lat="38.0216933" lon="15.763045"><ele>884.0</ele><time>2026-04-20T14:41:12.805Z</time></trkpt><trkpt lat="38.0218133" lon="15.7630633"><ele>885.5</ele><time>2026-04-20T14:41:13.804Z</time></trkpt><trkpt lat="38.021935" lon="15.763085"><ele>887.0</ele><time>2026-04-20T14:41:14.805Z</time></trkpt><trkpt lat="38.0220567" lon="15.7631033"><ele>887.0</ele><time>2026-04-20T14:41:15.804Z</time></trkpt><trkpt lat="38.022175" lon="15.7631133"><ele>887.0</ele><time>2026-04-20T14:41:16.804Z</time></trkpt><trkpt lat="38.0222883" lon="15.7631133"><ele>887.0</ele><time>2026-04-20T14:41:17.804Z</time></trkpt><trkpt lat="38.022395" lon="15.7631267"><ele>887.0</ele><time>2026-04-20T14:41:18.805Z</time></trkpt><trkpt lat="38.0225" lon="15.7631433"><ele>887.0</ele><time>2026-04-20T14:41:19.803Z</time></trkpt><trkpt lat="38.0225967" lon="15.7631733"><ele>888.2</ele><time>2026-04-20T14:41:20.805Z</time></trkpt><trkpt lat="38.0226867" lon="15.763185"><ele>889.4000000000001</ele><time>2026-04-20T14:41:21.804Z</time></trkpt><trkpt lat="38.0227817" lon="15.7632117"><ele>890.5999999999999</ele><time>2026-04-20T14:41:22.805Z</time></trkpt><trkpt lat="38.0228833" lon="15.763255"><ele>891.8</ele><time>2026-04-20T14:41:23.806Z</time></trkpt><trkpt lat="38.02299" lon="15.7633117"><ele>893.0</ele><time>2026-04-20T14:41:24.804Z</time></trkpt><trkpt lat="38.0230933" lon="15.7633633"><ele>893.0</ele><time>2026-04-20T14:41:25.804Z</time></trkpt><trkpt lat="38.023195" lon="15.7634017"><ele>893.0</ele><time>2026-04-20T14:41:26.804Z</time></trkpt><trkpt lat="38.0233033" lon="15.7634167"><ele>893.0</ele><time>2026-04-20T14:41:27.805Z</time></trkpt><trkpt lat="38.0234133" lon="15.763435"><ele>893.0</ele><time>2026-04-20T14:41:28.805Z</time></trkpt><trkpt lat="38.02352" lon="15.7634467"><ele>893.0</ele><time>2026-04-20T14:41:29.805Z</time></trkpt><trkpt lat="38.02364" lon="15.76345"><ele>892.25</ele><time>2026-04-20T14:41:30.804Z</time></trkpt><trkpt lat="38.0237633" lon="15.76346"><ele>891.5</ele><time>2026-04-20T14:41:31.804Z</time></trkpt><trkpt lat="38.0238867" lon="15.7634583"><ele>890.75</ele><time>2026-04-20T14:41:32.806Z</time></trkpt><trkpt lat="38.024005" lon="15.7634567"><ele>890.0</ele><time>2026-04-20T14:41:33.804Z</time></trkpt><trkpt lat="38.0241183" lon="15.7634533"><ele>889.8</ele><time>2026-04-20T14:41:34.804Z</time></trkpt><trkpt lat="38.024225" lon="15.7634433"><ele>889.6</ele><time>2026-04-20T14:41:35.806Z</time></trkpt><trkpt lat="38.024325" lon="15.7634083"><ele>889.4000000000001</ele><time>2026-04-20T14:41:36.803Z</time></trkpt><trkpt lat="38.02442" lon="15.7633633"><ele>889.2</ele><time>2026-04-20T14:41:37.804Z</time></trkpt><trkpt lat="38.02451" lon="15.7633233"><ele>889.0</ele><time>2026-04-20T14:41:38.807Z</time></trkpt><trkpt lat="38.0245967" lon="15.7632833"><ele>888.9999999999999</ele><time>2026-04-20T14:41:39.803Z</time></trkpt><trkpt lat="38.0246783" lon="15.7632517"><ele>889.0</ele><time>2026-04-20T14:41:40.805Z</time></trkpt><trkpt lat="38.0247567" lon="15.763225"><ele>889.0</ele><time>2026-04-20T14:41:41.804Z</time></trkpt><trkpt lat="38.0248317" lon="15.7632"><ele>889.0</ele><time>2026-04-20T14:41:42.807Z</time></trkpt><trkpt lat="38.024905" lon="15.7631933"><ele>888.9999999999999</ele><time>2026-04-20T14:41:43.804Z</time></trkpt><trkpt lat="38.0249817" lon="15.7631917"><ele>889.0</ele><time>2026-04-20T14:41:44.806Z</time></trkpt><trkpt lat="38.0250617" lon="15.7632133"><ele>887.4000000000001</ele><time>2026-04-20T14:41:45.805Z</time></trkpt><trkpt lat="38.0251467" lon="15.7632383"><ele>885.8000000000001</ele><time>2026-04-20T14:41:46.804Z</time></trkpt><trkpt lat="38.0252367" lon="15.7632683"><ele>884.1999999999999</ele><time>2026-04-20T14:41:47.804Z</time></trkpt><trkpt lat="38.0253267" lon="15.7633317"><ele>882.5999999999999</ele><time>2026-04-20T14:41:48.804Z</time></trkpt><trkpt lat="38.0254033" lon="15.7634083"><ele>881.0</ele><time>2026-04-20T14:41:49.803Z</time></trkpt><trkpt lat="38.0254783" lon="15.76348"><ele>879.8333333333334</ele><time>2026-04-20T14:41:50.804Z</time></trkpt><trkpt lat="38.0255583" lon="15.763535"><ele>878.6666666666667</ele><time>2026-04-20T14:41:51.804Z</time></trkpt><trkpt lat="38.025635" lon="15.763565"><ele>877.5</ele><time>2026-04-20T14:41:52.807Z</time></trkpt><trkpt lat="38.025705" lon="15.7635767"><ele>876.3333333333333</ele><time>2026-04-20T14:41:53.804Z</time></trkpt><trkpt lat="38.0258017" lon="15.7635833"><ele>875.1666666666666</ele><time>2026-04-20T14:41:55.804Z</time></trkpt><trkpt lat="38.0258817" lon="15.7635517"><ele>874.0</ele><time>2026-04-20T14:41:57.805Z</time></trkpt><trkpt lat="38.0259733" lon="15.763555"><ele>874.0</ele><time>2026-04-20T14:41:59.804Z</time></trkpt><trkpt lat="38.026075" lon="15.7636533"><ele>874.0000000000001</ele><time>2026-04-20T14:42:01.804Z</time></trkpt><trkpt lat="38.0261367" lon="15.76371"><ele>874.0000000000001</ele><time>2026-04-20T14:42:02.803Z</time></trkpt><trkpt lat="38.0262" lon="15.76378"><ele>874.0</ele><time>2026-04-20T14:42:03.804Z</time></trkpt><trkpt lat="38.0262767" lon="15.76384"><ele>874.0</ele><time>2026-04-20T14:42:04.804Z</time></trkpt><trkpt lat="38.02635" lon="15.7639"><ele>873.9999999999999</ele><time>2026-04-20T14:42:05.804Z</time></trkpt><trkpt lat="38.02642" lon="15.76395"><ele>874.0</ele><time>2026-04-20T14:42:06.804Z</time></trkpt><trkpt lat="38.0264833" lon="15.7640067"><ele>874.0</ele><time>2026-04-20T14:42:07.804Z</time></trkpt><trkpt lat="38.026545" lon="15.7640767"><ele>874.0</ele><time>2026-04-20T14:42:08.805Z</time></trkpt><trkpt lat="38.0266133" lon="15.7641417"><ele>873.9999999999999</ele><time>2026-04-20T14:42:09.804Z</time></trkpt><trkpt lat="38.0266767" lon="15.76422"><ele>874.0</ele><time>2026-04-20T14:42:10.806Z</time></trkpt><trkpt lat="38.0267383" lon="15.7643183"><ele>875.8333333333333</ele><time>2026-04-20T14:42:11.803Z</time></trkpt><trkpt lat="38.0268033" lon="15.7644117"><ele>877.6666666666666</ele><time>2026-04-20T14:42:12.805Z</time></trkpt><trkpt lat="38.0268667" lon="15.7644917"><ele>879.5</ele><time>2026-04-20T14:42:13.804Z</time></trkpt><trkpt lat="38.0269317" lon="15.7645517"><ele>881.3333333333333</ele><time>2026-04-20T14:42:14.803Z</time></trkpt><trkpt lat="38.0270067" lon="15.764595"><ele>883.1666666666666</ele><time>2026-04-20T14:42:15.804Z</time></trkpt><trkpt lat="38.0270833" lon="15.7646183"><ele>885.0</ele><time>2026-04-20T14:42:16.804Z</time></trkpt><trkpt lat="38.02716" lon="15.7646233"><ele>885.0</ele><time>2026-04-20T14:42:17.804Z</time></trkpt><trkpt lat="38.0272317" lon="15.764645"><ele>885.0</ele><time>2026-04-20T14:42:18.804Z</time></trkpt><trkpt lat="38.0273017" lon="15.764655"><ele>885.0</ele><time>2026-04-20T14:42:19.804Z</time></trkpt><trkpt lat="38.0273717" lon="15.7646417"><ele>885.0</ele><time>2026-04-20T14:42:20.804Z</time></trkpt><trkpt lat="38.02744" lon="15.76464"><ele>885.0</ele><time>2026-04-20T14:42:21.804Z</time></trkpt><trkpt lat="38.0275183" lon="15.7646283"><ele>885.0</ele><time>2026-04-20T14:42:22.804Z</time></trkpt><trkpt lat="38.0276117" lon="15.76461"><ele>887.3333333333334</ele><time>2026-04-20T14:42:23.804Z</time></trkpt><trkpt lat="38.02771" lon="15.7645917"><ele>889.6666666666667</ele><time>2026-04-20T14:42:24.803Z</time></trkpt><trkpt lat="38.0278083" lon="15.7645933"><ele>892.0</ele><time>2026-04-20T14:42:25.804Z</time></trkpt><trkpt lat="38.0278983" lon="15.7646"><ele>894.3333333333334</ele><time>2026-04-20T14:42:26.804Z</time></trkpt><trkpt lat="38.02796" lon="15.7645733"><ele>896.6666666666667</ele><time>2026-04-20T14:42:27.804Z</time></trkpt><trkpt lat="38.0279667" lon="15.76448"><ele>899.0</ele><time>2026-04-20T14:42:29.805Z</time></trkpt><trkpt lat="38.0278567" lon="15.7644417"><ele>899.0000000000001</ele><time>2026-04-20T14:42:31.803Z</time></trkpt><trkpt lat="38.0277817" lon="15.764425"><ele>899.0</ele><time>2026-04-20T14:42:32.804Z</time></trkpt><trkpt lat="38.0277" lon="15.7644133"><ele>899.0</ele><time>2026-04-20T14:42:33.803Z</time></trkpt><trkpt lat="38.0276267" lon="15.7643783"><ele>899.0</ele><time>2026-04-20T14:42:34.805Z</time></trkpt><trkpt lat="38.0275517" lon="15.764365"><ele>899.0000000000001</ele><time>2026-04-20T14:42:35.804Z</time></trkpt><trkpt lat="38.0274733" lon="15.76433"><ele>899.0</ele><time>2026-04-20T14:42:36.804Z</time></trkpt><trkpt lat="38.0273933" lon="15.7642917"><ele>899.5000000000001</ele><time>2026-04-20T14:42:37.804Z</time></trkpt><trkpt lat="38.0273167" lon="15.7642517"><ele>900.0</ele><time>2026-04-20T14:42:38.806Z</time></trkpt><trkpt lat="38.0272467" lon="15.7642133"><ele>900.5</ele><time>2026-04-20T14:42:39.805Z</time></trkpt><trkpt lat="38.02718" lon="15.7641767"><ele>901.0</ele><time>2026-04-20T14:42:40.804Z</time></trkpt><trkpt lat="38.0271283" lon="15.764125"><ele>901.5000000000001</ele><time>2026-04-20T14:42:41.804Z</time></trkpt><trkpt lat="38.0270817" lon="15.764065"><ele>902.0</ele><time>2026-04-20T14:42:42.804Z</time></trkpt><trkpt lat="38.02706" lon="15.7639117"><ele>902.0000000000001</ele><time>2026-04-20T14:42:44.806Z</time></trkpt><trkpt lat="38.0270817" lon="15.7638317"><ele>902.0</ele><time>2026-04-20T14:42:45.804Z</time></trkpt><trkpt lat="38.0271117" lon="15.7637583"><ele>902.0</ele><time>2026-04-20T14:42:46.804Z</time></trkpt><trkpt lat="38.027215" lon="15.7637067"><ele>902.0</ele><time>2026-04-20T14:42:48.804Z</time></trkpt><trkpt lat="38.0272833" lon="15.7637467"><ele>902.0000000000001</ele><time>2026-04-20T14:42:49.804Z</time></trkpt><trkpt lat="38.0273567" lon="15.7637817"><ele>902.0</ele><time>2026-04-20T14:42:50.805Z</time></trkpt><trkpt lat="38.0274583" lon="15.76384"><ele>904.8</ele><time>2026-04-20T14:42:51.805Z</time></trkpt><trkpt lat="38.027555" lon="15.7638833"><ele>907.6</ele><time>2026-04-20T14:42:52.804Z</time></trkpt><trkpt lat="38.027645" lon="15.7639183"><ele>910.3999999999999</ele><time>2026-04-20T14:42:53.805Z</time></trkpt><trkpt lat="38.0277367" lon="15.7639417"><ele>913.1999999999999</ele><time>2026-04-20T14:42:54.804Z</time></trkpt><trkpt lat="38.027825" lon="15.7639833"><ele>916.0</ele><time>2026-04-20T14:42:55.805Z</time></trkpt><trkpt lat="38.0279183" lon="15.76401"><ele>916.0</ele><time>2026-04-20T14:42:56.804Z</time></trkpt><trkpt lat="38.028015" lon="15.7639883"><ele>915.9999999999999</ele><time>2026-04-20T14:42:57.804Z</time></trkpt><trkpt lat="38.02811" lon="15.7639817"><ele>915.9999999999999</ele><time>2026-04-20T14:42:58.805Z</time></trkpt><trkpt lat="38.0282033" lon="15.763925"><ele>916.0</ele><time>2026-04-20T14:42:59.804Z</time></trkpt><trkpt lat="38.0282917" lon="15.76393"><ele>916.0</ele><time>2026-04-20T14:43:00.805Z</time></trkpt><trkpt lat="38.0283783" lon="15.7639517"><ele>918.4999999999999</ele><time>2026-04-20T14:43:01.805Z</time></trkpt><trkpt lat="38.028455" lon="15.764"><ele>921.0</ele><time>2026-04-20T14:43:02.805Z</time></trkpt><trkpt lat="38.0285267" lon="15.7640517"><ele>923.5</ele><time>2026-04-20T14:43:03.804Z</time></trkpt><trkpt lat="38.0285967" lon="15.7641117"><ele>926.0</ele><time>2026-04-20T14:43:04.804Z</time></trkpt><trkpt lat="38.0286717" lon="15.7641733"><ele>928.4999999999999</ele><time>2026-04-20T14:43:05.803Z</time></trkpt><trkpt lat="38.0287617" lon="15.7642283"><ele>931.0</ele><time>2026-04-20T14:43:06.804Z</time></trkpt><trkpt lat="38.02885" lon="15.764275"><ele>930.9999999999999</ele><time>2026-04-20T14:43:07.804Z</time></trkpt><trkpt lat="38.0289283" lon="15.7643133"><ele>931.0</ele><time>2026-04-20T14:43:08.805Z</time></trkpt><trkpt lat="38.02902" lon="15.7643583"><ele>931.0</ele><time>2026-04-20T14:43:09.803Z</time></trkpt><trkpt lat="38.0290817" lon="15.7643833"><ele>931.0</ele><time>2026-04-20T14:43:10.804Z</time></trkpt><trkpt lat="38.0291583" lon="15.7644267"><ele>930.9999999999999</ele><time>2026-04-20T14:43:12.804Z</time></trkpt><trkpt lat="38.02921" lon="15.76452"><ele>931.0</ele><time>2026-04-20T14:43:14.805Z</time></trkpt><trkpt lat="38.02927" lon="15.7646333"><ele>930.5999999999999</ele><time>2026-04-20T14:43:16.805Z</time></trkpt><trkpt lat="38.0293067" lon="15.7647617"><ele>930.1999999999999</ele><time>2026-04-20T14:43:18.803Z</time></trkpt><trkpt lat="38.02933" lon="15.7649"><ele>929.8000000000001</ele><time>2026-04-20T14:43:20.805Z</time></trkpt><trkpt lat="38.0293667" lon="15.7650417"><ele>929.4000000000001</ele><time>2026-04-20T14:43:22.804Z</time></trkpt><trkpt lat="38.02945" lon="15.7651267"><ele>929.0</ele><time>2026-04-20T14:43:24.803Z</time></trkpt><trkpt lat="38.02954" lon="15.7651367"><ele>929.0000000000001</ele><time>2026-04-20T14:43:26.804Z</time></trkpt><trkpt lat="38.0296317" lon="15.7651833"><ele>929.0</ele><time>2026-04-20T14:43:28.804Z</time></trkpt><trkpt lat="38.02968" lon="15.765235"><ele>929.0</ele><time>2026-04-20T14:43:29.803Z</time></trkpt><trkpt lat="38.02973" lon="15.7652983"><ele>929.0</ele><time>2026-04-20T14:43:30.805Z</time></trkpt><trkpt lat="38.0297717" lon="15.765405"><ele>929.0000000000001</ele><time>2026-04-20T14:43:31.804Z</time></trkpt><trkpt lat="38.0298233" lon="15.765515"><ele>929.0</ele><time>2026-04-20T14:43:32.802Z</time></trkpt><trkpt lat="38.0298783" lon="15.7656267"><ele>927.5000000000001</ele><time>2026-04-20T14:43:33.804Z</time></trkpt><trkpt lat="38.0299417" lon="15.7657167"><ele>926.0</ele><time>2026-04-20T14:43:34.802Z</time></trkpt><trkpt lat="38.02999" lon="15.7658017"><ele>924.5</ele><time>2026-04-20T14:43:35.805Z</time></trkpt><trkpt lat="38.0300133" lon="15.7658817"><ele>923.0</ele><time>2026-04-20T14:43:36.803Z</time></trkpt><trkpt lat="38.0300083" lon="15.765965"><ele>921.5000000000001</ele><time>2026-04-20T14:43:37.803Z</time></trkpt><trkpt lat="38.0299883" lon="15.7660483"><ele>920.0</ele><time>2026-04-20T14:43:38.804Z</time></trkpt><trkpt lat="38.02999" lon="15.7661417"><ele>923.3333333333334</ele><time>2026-04-20T14:43:39.803Z</time></trkpt><trkpt lat="38.0299917" lon="15.7662383"><ele>926.6666666666667</ele><time>2026-04-20T14:43:40.804Z</time></trkpt><trkpt lat="38.03003" lon="15.7663267"><ele>930.0</ele><time>2026-04-20T14:43:41.803Z</time></trkpt><trkpt lat="38.03008" lon="15.7664117"><ele>933.3333333333333</ele><time>2026-04-20T14:43:42.802Z</time></trkpt><trkpt lat="38.0301183" lon="15.766505"><ele>936.6666666666666</ele><time>2026-04-20T14:43:43.802Z</time></trkpt><trkpt lat="38.0301583" lon="15.7666"><ele>940.0</ele><time>2026-04-20T14:43:44.803Z</time></trkpt><trkpt lat="38.0302067" lon="15.76668"><ele>939.9999999999999</ele><time>2026-04-20T14:43:45.803Z</time></trkpt><trkpt lat="38.0302083" lon="15.7667883"><ele>940.0</ele><time>2026-04-20T14:43:46.803Z</time></trkpt><trkpt lat="38.0302083" lon="15.766895"><ele>940.0</ele><time>2026-04-20T14:43:47.803Z</time></trkpt><trkpt lat="38.0302217" lon="15.7670067"><ele>940.0</ele><time>2026-04-20T14:43:48.804Z</time></trkpt><trkpt lat="38.0302333" lon="15.7671217"><ele>939.9999999999999</ele><time>2026-04-20T14:43:49.803Z</time></trkpt><trkpt lat="38.0302683" lon="15.7672317"><ele>940.0</ele><time>2026-04-20T14:43:50.804Z</time></trkpt><trkpt lat="38.0302967" lon="15.7673417"><ele>937.2</ele><time>2026-04-20T14:43:51.802Z</time></trkpt><trkpt lat="38.0303383" lon="15.767455"><ele>934.4</ele><time>2026-04-20T14:43:52.803Z</time></trkpt><trkpt lat="38.0303917" lon="15.7675683"><ele>931.5999999999999</ele><time>2026-04-20T14:43:53.804Z</time></trkpt><trkpt lat="38.0304583" lon="15.76766"><ele>928.8</ele><time>2026-04-20T14:43:54.803Z</time></trkpt><trkpt lat="38.0305283" lon="15.7677433"><ele>926.0</ele><time>2026-04-20T14:43:55.803Z</time></trkpt><trkpt lat="38.0305983" lon="15.76783"><ele>923.8333333333334</ele><time>2026-04-20T14:43:56.806Z</time></trkpt><trkpt lat="38.0306633" lon="15.7679117"><ele>921.6666666666667</ele><time>2026-04-20T14:43:57.803Z</time></trkpt><trkpt lat="38.0307333" lon="15.767985"><ele>919.5</ele><time>2026-04-20T14:43:58.803Z</time></trkpt><trkpt lat="38.0308" lon="15.7680617"><ele>917.3333333333333</ele><time>2026-04-20T14:43:59.805Z</time></trkpt><trkpt lat="38.0308633" lon="15.768125"><ele>915.1666666666666</ele><time>2026-04-20T14:44:00.804Z</time></trkpt><trkpt lat="38.0309217" lon="15.7681683"><ele>913.0</ele><time>2026-04-20T14:44:01.804Z</time></trkpt><trkpt lat="38.0309767" lon="15.768215"><ele>919.6666666666666</ele><time>2026-04-20T14:44:02.803Z</time></trkpt><trkpt lat="38.0310333" lon="15.768265"><ele>926.3333333333333</ele><time>2026-04-20T14:44:03.804Z</time></trkpt><trkpt lat="38.0310833" lon="15.7683233"><ele>933.0</ele><time>2026-04-20T14:44:04.804Z</time></trkpt><trkpt lat="38.031135" lon="15.7683867"><ele>939.6666666666667</ele><time>2026-04-20T14:44:05.803Z</time></trkpt><trkpt lat="38.031185" lon="15.768465"><ele>946.3333333333334</ele><time>2026-04-20T14:44:06.803Z</time></trkpt><trkpt lat="38.0312317" lon="15.7685617"><ele>953.0</ele><time>2026-04-20T14:44:07.803Z</time></trkpt><trkpt lat="38.0312883" lon="15.7686633"><ele>954.2</ele><time>2026-04-20T14:44:08.805Z</time></trkpt><trkpt lat="38.0313517" lon="15.7687583"><ele>955.4</ele><time>2026-04-20T14:44:09.803Z</time></trkpt><trkpt lat="38.0314233" lon="15.7688467"><ele>956.6000000000001</ele><time>2026-04-20T14:44:10.803Z</time></trkpt><trkpt lat="38.0315" lon="15.7689133"><ele>957.8000000000001</ele><time>2026-04-20T14:44:11.802Z</time></trkpt><trkpt lat="38.0315667" lon="15.7689867"><ele>959.0</ele><time>2026-04-20T14:44:12.804Z</time></trkpt><trkpt lat="38.03163" lon="15.7690633"><ele>961.6</ele><time>2026-04-20T14:44:13.804Z</time></trkpt><trkpt lat="38.0316983" lon="15.7691467"><ele>964.2</ele><time>2026-04-20T14:44:14.805Z</time></trkpt><trkpt lat="38.0317733" lon="15.7692267"><ele>966.8000000000001</ele><time>2026-04-20T14:44:15.803Z</time></trkpt><trkpt lat="38.0318433" lon="15.7692967"><ele>969.4000000000001</ele><time>2026-04-20T14:44:16.806Z</time></trkpt><trkpt lat="38.0319117" lon="15.7693867"><ele>972.0</ele><time>2026-04-20T14:44:17.804Z</time></trkpt><trkpt lat="38.0319867" lon="15.7694817"><ele>973.2</ele><time>2026-04-20T14:44:18.802Z</time></trkpt><trkpt lat="38.0320533" lon="15.769595"><ele>974.4000000000001</ele><time>2026-04-20T14:44:19.804Z</time></trkpt><trkpt lat="38.0321167" lon="15.76971"><ele>975.5999999999999</ele><time>2026-04-20T14:44:20.804Z</time></trkpt><trkpt lat="38.03218" lon="15.7698317"><ele>976.8</ele><time>2026-04-20T14:44:21.803Z</time></trkpt><trkpt lat="38.0322433" lon="15.7699483"><ele>978.0</ele><time>2026-04-20T14:44:22.803Z</time></trkpt><trkpt lat="38.0323117" lon="15.77007"><ele>979.5</ele><time>2026-04-20T14:44:23.802Z</time></trkpt><trkpt lat="38.0323733" lon="15.770195"><ele>981.0</ele><time>2026-04-20T14:44:24.806Z</time></trkpt><trkpt lat="38.0324367" lon="15.770315"><ele>982.5</ele><time>2026-04-20T14:44:25.803Z</time></trkpt><trkpt lat="38.0325133" lon="15.7704233"><ele>984.0</ele><time>2026-04-20T14:44:26.803Z</time></trkpt><trkpt lat="38.0325883" lon="15.7705383"><ele>984.0</ele><time>2026-04-20T14:44:27.804Z</time></trkpt><trkpt lat="38.0326533" lon="15.7706583"><ele>984.0</ele><time>2026-04-20T14:44:28.804Z</time></trkpt><trkpt lat="38.0327233" lon="15.770775"><ele>984.0</ele><time>2026-04-20T14:44:29.802Z</time></trkpt><trkpt lat="38.03279" lon="15.7708933"><ele>984.0</ele><time>2026-04-20T14:44:30.805Z</time></trkpt><trkpt lat="38.032855" lon="15.7710033"><ele>986.2</ele><time>2026-04-20T14:44:31.803Z</time></trkpt><trkpt lat="38.0329117" lon="15.7711083"><ele>988.4000000000001</ele><time>2026-04-20T14:44:32.804Z</time></trkpt><trkpt lat="38.03294" lon="15.77122"><ele>990.6</ele><time>2026-04-20T14:44:33.803Z</time></trkpt><trkpt lat="38.0329367" lon="15.77134"><ele>992.8</ele><time>2026-04-20T14:44:34.804Z</time></trkpt><trkpt lat="38.0329183" lon="15.77146"><ele>995.0</ele><time>2026-04-20T14:44:35.804Z</time></trkpt><trkpt lat="38.03289" lon="15.7715783"><ele>995.0</ele><time>2026-04-20T14:44:36.804Z</time></trkpt><trkpt lat="38.0328583" lon="15.7716983"><ele>995.0</ele><time>2026-04-20T14:44:37.803Z</time></trkpt><trkpt lat="38.0328433" lon="15.771815"><ele>995.0</ele><time>2026-04-20T14:44:38.804Z</time></trkpt><trkpt lat="38.0328317" lon="15.771925"><ele>995.0</ele><time>2026-04-20T14:44:39.802Z</time></trkpt><trkpt lat="38.03282" lon="15.7720167"><ele>995.0</ele><time>2026-04-20T14:44:40.802Z</time></trkpt><trkpt lat="38.032795" lon="15.7721517"><ele>995.0000000000001</ele><time>2026-04-20T14:44:42.804Z</time></trkpt><trkpt lat="38.032785" lon="15.7722367"><ele>995.0</ele><time>2026-04-20T14:44:44.804Z</time></trkpt><trkpt lat="38.0327983" lon="15.7723233"><ele>995.0</ele><time>2026-04-20T14:44:47.803Z</time></trkpt><trkpt lat="38.0327667" lon="15.772405"><ele>995.0</ele><time>2026-04-20T14:46:07.807Z</time></trkpt><trkpt lat="38.0327333" lon="15.77251"><ele>995.0000000000001</ele><time>2026-04-20T14:46:09.804Z</time></trkpt><trkpt lat="38.0327167" lon="15.77263"><ele>995.0</ele><time>2026-04-20T14:46:11.802Z</time></trkpt><trkpt lat="38.0326833" lon="15.7727433"><ele>994.4</ele><time>2026-04-20T14:46:13.804Z</time></trkpt><trkpt lat="38.0326417" lon="15.772845"><ele>993.8</ele><time>2026-04-20T14:46:15.803Z</time></trkpt><trkpt lat="38.0325783" lon="15.7729317"><ele>993.2</ele><time>2026-04-20T14:46:17.803Z</time></trkpt><trkpt lat="38.0325333" lon="15.7730267"><ele>992.6</ele><time>2026-04-20T14:46:19.804Z</time></trkpt><trkpt lat="38.0325183" lon="15.7731417"><ele>992.0</ele><time>2026-04-20T14:46:21.804Z</time></trkpt><trkpt lat="38.0325233" lon="15.7732533"><ele>992.0000000000001</ele><time>2026-04-20T14:46:23.805Z</time></trkpt><trkpt lat="38.0325483" lon="15.7733317"><ele>992.0</ele><time>2026-04-20T14:46:25.804Z</time></trkpt><trkpt lat="38.0324967" lon="15.7732817"><ele>992.0</ele><time>2026-04-20T14:46:34.804Z</time></trkpt><trkpt lat="38.0325033" lon="15.7731917"><ele>992.0</ele><time>2026-04-20T14:46:36.804Z</time></trkpt><trkpt lat="38.0325133" lon="15.7730633"><ele>992.0000000000001</ele><time>2026-04-20T14:46:38.807Z</time></trkpt><trkpt lat="38.0325617" lon="15.772925"><ele>992.0</ele><time>2026-04-20T14:46:40.804Z</time></trkpt><trkpt lat="38.032635" lon="15.772805"><ele>992.5000000000001</ele><time>2026-04-20T14:46:42.804Z</time></trkpt><trkpt lat="38.0326917" lon="15.77268"><ele>993.0</ele><time>2026-04-20T14:46:44.806Z</time></trkpt><trkpt lat="38.0327267" lon="15.7725667"><ele>993.5</ele><time>2026-04-20T14:46:46.803Z</time></trkpt><trkpt lat="38.0327467" lon="15.7724617"><ele>994.0</ele><time>2026-04-20T14:46:48.804Z</time></trkpt><trkpt lat="38.0327717" lon="15.77237"><ele>994.5000000000001</ele><time>2026-04-20T14:46:51.804Z</time></trkpt><trkpt lat="38.03278" lon="15.7724517"><ele>995.0</ele><time>2026-04-20T14:50:59.802Z</time></trkpt><trkpt lat="38.0327467" lon="15.7725367"><ele>995.0</ele><time>2026-04-20T14:51:01.803Z</time></trkpt><trkpt lat="38.0327167" lon="15.7726217"><ele>995.0</ele><time>2026-04-20T14:51:03.803Z</time></trkpt><trkpt lat="38.0326583" lon="15.7727667"><ele>995.0</ele><time>2026-04-20T14:51:05.804Z</time></trkpt><trkpt lat="38.0326117" lon="15.7728633"><ele>995.0</ele><time>2026-04-20T14:51:06.804Z</time></trkpt><trkpt lat="38.0325617" lon="15.7729583"><ele>995.0</ele><time>2026-04-20T14:51:07.803Z</time></trkpt><trkpt lat="38.0325183" lon="15.773055"><ele>994.5000000000001</ele><time>2026-04-20T14:51:08.803Z</time></trkpt><trkpt lat="38.032505" lon="15.773155"><ele>994.0</ele><time>2026-04-20T14:51:09.802Z</time></trkpt><trkpt lat="38.0325117" lon="15.7732467"><ele>993.5</ele><time>2026-04-20T14:51:10.803Z</time></trkpt><trkpt lat="38.0325317" lon="15.773335"><ele>993.0</ele><time>2026-04-20T14:51:11.803Z</time></trkpt><trkpt lat="38.03255" lon="15.773415"><ele>992.5000000000001</ele><time>2026-04-20T14:51:12.802Z</time></trkpt><trkpt lat="38.032575" lon="15.7735467"><ele>992.0</ele><time>2026-04-20T14:51:14.805Z</time></trkpt><trkpt lat="38.0326017" lon="15.7736767"><ele>991.2</ele><time>2026-04-20T14:51:16.804Z</time></trkpt><trkpt lat="38.0326283" lon="15.7737567"><ele>990.4000000000001</ele><time>2026-04-20T14:51:17.804Z</time></trkpt><trkpt lat="38.032645" lon="15.7738533"><ele>989.5999999999999</ele><time>2026-04-20T14:51:18.803Z</time></trkpt><trkpt lat="38.0326667" lon="15.7739667"><ele>988.8</ele><time>2026-04-20T14:51:19.802Z</time></trkpt><trkpt lat="38.0326883" lon="15.7740983"><ele>988.0</ele><time>2026-04-20T14:51:20.804Z</time></trkpt><trkpt lat="38.032705" lon="15.774245"><ele>989.25</ele><time>2026-04-20T14:51:21.804Z</time></trkpt><trkpt lat="38.0327367" lon="15.7744033"><ele>990.5</ele><time>2026-04-20T14:51:22.803Z</time></trkpt><trkpt lat="38.032765" lon="15.7745717"><ele>991.75</ele><time>2026-04-20T14:51:23.804Z</time></trkpt><trkpt lat="38.032785" lon="15.7747483"><ele>993.0</ele><time>2026-04-20T14:51:24.804Z</time></trkpt><trkpt lat="38.0327867" lon="15.7749317"><ele>993.0</ele><time>2026-04-20T14:51:25.804Z</time></trkpt><trkpt lat="38.0328133" lon="15.7751133"><ele>993.0</ele><time>2026-04-20T14:51:26.803Z</time></trkpt><trkpt lat="38.0328317" lon="15.7752933"><ele>993.0</ele><time>2026-04-20T14:51:27.805Z</time></trkpt><trkpt lat="38.0328483" lon="15.7754717"><ele>993.0</ele><time>2026-04-20T14:51:28.805Z</time></trkpt><trkpt lat="38.032865" lon="15.7756467"><ele>995.25</ele><time>2026-04-20T14:51:29.805Z</time></trkpt><trkpt lat="38.0328833" lon="15.775825"><ele>997.5</ele><time>2026-04-20T14:51:30.805Z</time></trkpt><trkpt lat="38.032905" lon="15.7760033"><ele>999.75</ele><time>2026-04-20T14:51:31.805Z</time></trkpt><trkpt lat="38.03293" lon="15.7761783"><ele>1002.0</ele><time>2026-04-20T14:51:32.807Z</time></trkpt><trkpt lat="38.0329617" lon="15.77635"><ele>1003.75</ele><time>2026-04-20T14:51:33.805Z</time></trkpt><trkpt lat="38.0330033" lon="15.776525"><ele>1005.5</ele><time>2026-04-20T14:51:34.803Z</time></trkpt><trkpt lat="38.0330483" lon="15.7767017"><ele>1007.25</ele><time>2026-04-20T14:51:35.806Z</time></trkpt><trkpt lat="38.0330817" lon="15.7768783"><ele>1009.0</ele><time>2026-04-20T14:51:36.804Z</time></trkpt><trkpt lat="38.0331033" lon="15.7770467"><ele>1009.25</ele><time>2026-04-20T14:51:37.803Z</time></trkpt><trkpt lat="38.0331083" lon="15.777225"><ele>1009.5</ele><time>2026-04-20T14:51:38.804Z</time></trkpt><trkpt lat="38.033105" lon="15.777405"><ele>1009.75</ele><time>2026-04-20T14:51:39.805Z</time></trkpt><trkpt lat="38.0330867" lon="15.7775933"><ele>1010.0</ele><time>2026-04-20T14:51:40.805Z</time></trkpt><trkpt lat="38.0330617" lon="15.7777867"><ele>1009.3333333333334</ele><time>2026-04-20T14:51:41.803Z</time></trkpt><trkpt lat="38.0330367" lon="15.7779833"><ele>1008.6666666666667</ele><time>2026-04-20T14:51:42.805Z</time></trkpt><trkpt lat="38.0330217" lon="15.778185"><ele>1008.0</ele><time>2026-04-20T14:51:43.805Z</time></trkpt><trkpt lat="38.0329933" lon="15.778385"><ele>1008.3333333333333</ele><time>2026-04-20T14:51:44.805Z</time></trkpt><trkpt lat="38.0329633" lon="15.778585"><ele>1008.6666666666666</ele><time>2026-04-20T14:51:45.804Z</time></trkpt><trkpt lat="38.0329333" lon="15.7787767"><ele>1009.0</ele><time>2026-04-20T14:51:46.804Z</time></trkpt><trkpt lat="38.032915" lon="15.7789567"><ele>1009.0</ele><time>2026-04-20T14:51:47.805Z</time></trkpt><trkpt lat="38.03289" lon="15.7791217"><ele>1009.0</ele><time>2026-04-20T14:51:48.803Z</time></trkpt><trkpt lat="38.0328667" lon="15.7792717"><ele>1009.0</ele><time>2026-04-20T14:51:49.804Z</time></trkpt><trkpt lat="38.0328533" lon="15.7794067"><ele>1009.0</ele><time>2026-04-20T14:51:50.803Z</time></trkpt><trkpt lat="38.0328133" lon="15.7795233"><ele>1009.8000000000001</ele><time>2026-04-20T14:51:51.803Z</time></trkpt><trkpt lat="38.032805" lon="15.7796367"><ele>1010.6000000000001</ele><time>2026-04-20T14:51:52.804Z</time></trkpt><trkpt lat="38.0328083" lon="15.7797533"><ele>1011.4</ele><time>2026-04-20T14:51:53.803Z</time></trkpt><trkpt lat="38.0328267" lon="15.7798717"><ele>1012.2</ele><time>2026-04-20T14:51:54.804Z</time></trkpt><trkpt lat="38.032855" lon="15.7799917"><ele>1013.0</ele><time>2026-04-20T14:51:55.804Z</time></trkpt><trkpt lat="38.0328867" lon="15.7801183"><ele>1013.2</ele><time>2026-04-20T14:51:56.804Z</time></trkpt><trkpt lat="38.0329067" lon="15.7802417"><ele>1013.4</ele><time>2026-04-20T14:51:57.804Z</time></trkpt><trkpt lat="38.0329117" lon="15.7803683"><ele>1013.6000000000001</ele><time>2026-04-20T14:51:58.804Z</time></trkpt><trkpt lat="38.0329033" lon="15.7804883"><ele>1013.8000000000001</ele><time>2026-04-20T14:51:59.804Z</time></trkpt><trkpt lat="38.0329017" lon="15.7806017"><ele>1014.0</ele><time>2026-04-20T14:52:00.804Z</time></trkpt><trkpt lat="38.0329217" lon="15.7807017"><ele>1014.0</ele><time>2026-04-20T14:52:01.803Z</time></trkpt><trkpt lat="38.0329533" lon="15.7808017"><ele>1014.0000000000001</ele><time>2026-04-20T14:52:02.805Z</time></trkpt><trkpt lat="38.0329867" lon="15.7809033"><ele>1014.0000000000001</ele><time>2026-04-20T14:52:03.803Z</time></trkpt><trkpt lat="38.033015" lon="15.7810183"><ele>1014.0</ele><time>2026-04-20T14:52:04.803Z</time></trkpt><trkpt lat="38.03304" lon="15.7811383"><ele>1014.0</ele><time>2026-04-20T14:52:05.805Z</time></trkpt><trkpt lat="38.0330617" lon="15.781255"><ele>1013.5</ele><time>2026-04-20T14:52:06.805Z</time></trkpt><trkpt lat="38.0330883" lon="15.781355"><ele>1013.0</ele><time>2026-04-20T14:52:07.805Z</time></trkpt><trkpt lat="38.0331267" lon="15.781445"><ele>1012.5</ele><time>2026-04-20T14:52:08.805Z</time></trkpt><trkpt lat="38.0331583" lon="15.7815383"><ele>1012.0</ele><time>2026-04-20T14:52:09.804Z</time></trkpt><trkpt lat="38.0332267" lon="15.7815933"><ele>1011.5</ele><time>2026-04-20T14:52:10.804Z</time></trkpt><trkpt lat="38.0333" lon="15.7816517"><ele>1011.0</ele><time>2026-04-20T14:52:11.803Z</time></trkpt><trkpt lat="38.0333867" lon="15.7816933"><ele>1010.0</ele><time>2026-04-20T14:52:12.804Z</time></trkpt><trkpt lat="38.0334717" lon="15.7817517"><ele>1008.9999999999999</ele><time>2026-04-20T14:52:13.803Z</time></trkpt><trkpt lat="38.0335517" lon="15.7818217"><ele>1007.9999999999999</ele><time>2026-04-20T14:52:14.804Z</time></trkpt><trkpt lat="38.03364" lon="15.781865"><ele>1007.0</ele><time>2026-04-20T14:52:15.805Z</time></trkpt><trkpt lat="38.03373" lon="15.7819083"><ele>1006.0</ele><time>2026-04-20T14:52:16.804Z</time></trkpt><trkpt lat="38.03382" lon="15.7819683"><ele>1003.1999999999999</ele><time>2026-04-20T14:52:17.804Z</time></trkpt><trkpt lat="38.03392" lon="15.7819967"><ele>1000.3999999999999</ele><time>2026-04-20T14:52:18.804Z</time></trkpt><trkpt lat="38.0340233" lon="15.7820333"><ele>997.6</ele><time>2026-04-20T14:52:19.803Z</time></trkpt><trkpt lat="38.034125" lon="15.7820717"><ele>994.8</ele><time>2026-04-20T14:52:20.803Z</time></trkpt><trkpt lat="38.03422" lon="15.7821317"><ele>992.0</ele><time>2026-04-20T14:52:21.803Z</time></trkpt><trkpt lat="38.03432" lon="15.7821817"><ele>992.0</ele><time>2026-04-20T14:52:22.804Z</time></trkpt><trkpt lat="38.034415" lon="15.78225"><ele>992.0</ele><time>2026-04-20T14:52:23.803Z</time></trkpt><trkpt lat="38.0345117" lon="15.7823233"><ele>992.0</ele><time>2026-04-20T14:52:24.802Z</time></trkpt><trkpt lat="38.0346083" lon="15.7824"><ele>992.0</ele><time>2026-04-20T14:52:25.803Z</time></trkpt><trkpt lat="38.0347017" lon="15.7824817"><ele>992.0</ele><time>2026-04-20T14:52:26.804Z</time></trkpt><trkpt lat="38.034795" lon="15.7825583"><ele>992.0000000000001</ele><time>2026-04-20T14:52:27.803Z</time></trkpt><trkpt lat="38.0348833" lon="15.78263"><ele>992.0</ele><time>2026-04-20T14:52:28.803Z</time></trkpt><trkpt lat="38.034965" lon="15.782695"><ele>992.0</ele><time>2026-04-20T14:52:29.804Z</time></trkpt><trkpt lat="38.0350367" lon="15.782755"><ele>992.0</ele><time>2026-04-20T14:52:30.804Z</time></trkpt><trkpt lat="38.035105" lon="15.7828067"><ele>992.0000000000001</ele><time>2026-04-20T14:52:31.803Z</time></trkpt><trkpt lat="38.0351667" lon="15.7828517"><ele>992.0</ele><time>2026-04-20T14:52:32.803Z</time></trkpt><trkpt lat="38.0352533" lon="15.7829333"><ele>988.8</ele><time>2026-04-20T14:52:34.803Z</time></trkpt><trkpt lat="38.0353417" lon="15.7830267"><ele>985.6</ele><time>2026-04-20T14:52:36.804Z</time></trkpt><trkpt lat="38.0354417" lon="15.7831367"><ele>982.3999999999999</ele><time>2026-04-20T14:52:38.805Z</time></trkpt><trkpt lat="38.0355033" lon="15.7832083"><ele>979.1999999999999</ele><time>2026-04-20T14:52:39.802Z</time></trkpt><trkpt lat="38.0355683" lon="15.7832933"><ele>976.0</ele><time>2026-04-20T14:52:40.803Z</time></trkpt><trkpt lat="38.0356517" lon="15.78337"><ele>976.0</ele><time>2026-04-20T14:52:41.802Z</time></trkpt><trkpt lat="38.03574" lon="15.78345"><ele>976.0</ele><time>2026-04-20T14:52:42.803Z</time></trkpt><trkpt lat="38.0358233" lon="15.7835433"><ele>976.0</ele><time>2026-04-20T14:52:43.803Z</time></trkpt><trkpt lat="38.0359133" lon="15.7836383"><ele>976.0</ele><time>2026-04-20T14:52:44.803Z</time></trkpt><trkpt lat="38.036" lon="15.7837383"><ele>977.0</ele><time>2026-04-20T14:52:45.803Z</time></trkpt><trkpt lat="38.036085" lon="15.7838417"><ele>978.0</ele><time>2026-04-20T14:52:46.804Z</time></trkpt><trkpt lat="38.03618" lon="15.7839267"><ele>979.0</ele><time>2026-04-20T14:52:47.803Z</time></trkpt><trkpt lat="38.0362783" lon="15.784005"><ele>980.0</ele><time>2026-04-20T14:52:48.804Z</time></trkpt><trkpt lat="38.0363767" lon="15.784075"><ele>980.0000000000001</ele><time>2026-04-20T14:52:49.802Z</time></trkpt><trkpt lat="38.03647" lon="15.7841383"><ele>980.0</ele><time>2026-04-20T14:52:50.804Z</time></trkpt><trkpt lat="38.0365583" lon="15.7841883"><ele>980.0</ele><time>2026-04-20T14:52:51.804Z</time></trkpt><trkpt lat="38.0366367" lon="15.7842267"><ele>980.0</ele><time>2026-04-20T14:52:52.805Z</time></trkpt><trkpt lat="38.03671" lon="15.78425"><ele>980.0000000000001</ele><time>2026-04-20T14:52:53.804Z</time></trkpt><trkpt lat="38.0367783" lon="15.784265"><ele>980.0</ele><time>2026-04-20T14:52:54.804Z</time></trkpt><trkpt lat="38.0368867" lon="15.784265"><ele>981.5000000000001</ele><time>2026-04-20T14:52:56.806Z</time></trkpt><trkpt lat="38.036975" lon="15.784285"><ele>983.0</ele><time>2026-04-20T14:52:58.805Z</time></trkpt><trkpt lat="38.037065" lon="15.78429"><ele>984.5</ele><time>2026-04-20T14:53:00.806Z</time></trkpt><trkpt lat="38.03715" lon="15.7842917"><ele>986.0</ele><time>2026-04-20T14:53:02.804Z</time></trkpt><trkpt lat="38.0372217" lon="15.784285"><ele>987.5000000000001</ele><time>2026-04-20T14:53:04.804Z</time></trkpt><trkpt lat="38.0373117" lon="15.7842683"><ele>989.0</ele><time>2026-04-20T14:53:06.803Z</time></trkpt><trkpt lat="38.0373783" lon="15.784265"><ele>989.0</ele><time>2026-04-20T14:53:07.803Z</time></trkpt><trkpt lat="38.0374533" lon="15.7842567"><ele>989.0000000000001</ele><time>2026-04-20T14:53:08.805Z</time></trkpt><trkpt lat="38.0375417" lon="15.784245"><ele>989.0000000000001</ele><time>2026-04-20T14:53:09.803Z</time></trkpt><trkpt lat="38.0376367" lon="15.784215"><ele>989.0</ele><time>2026-04-20T14:53:10.803Z</time></trkpt><trkpt lat="38.0377417" lon="15.7841917"><ele>989.0</ele><time>2026-04-20T14:53:11.804Z</time></trkpt><trkpt lat="38.0378467" lon="15.7841767"><ele>989.0</ele><time>2026-04-20T14:53:12.803Z</time></trkpt><trkpt lat="38.0379533" lon="15.7841583"><ele>989.0000000000001</ele><time>2026-04-20T14:53:13.802Z</time></trkpt><trkpt lat="38.0380583" lon="15.78415"><ele>989.0000000000001</ele><time>2026-04-20T14:53:14.804Z</time></trkpt><trkpt lat="38.03816" lon="15.784135"><ele>989.0</ele><time>2026-04-20T14:53:15.803Z</time></trkpt><trkpt lat="38.0382633" lon="15.7841283"><ele>989.0</ele><time>2026-04-20T14:53:16.803Z</time></trkpt><trkpt lat="38.038365" lon="15.7841183"><ele>989.4000000000001</ele><time>2026-04-20T14:53:17.804Z</time></trkpt><trkpt lat="38.0384667" lon="15.78411"><ele>989.8000000000001</ele><time>2026-04-20T14:53:18.803Z</time></trkpt><trkpt lat="38.0385733" lon="15.7841017"><ele>990.1999999999999</ele><time>2026-04-20T14:53:19.804Z</time></trkpt><trkpt lat="38.038685" lon="15.7840917"><ele>990.5999999999999</ele><time>2026-04-20T14:53:20.804Z</time></trkpt><trkpt lat="38.0388033" lon="15.7840917"><ele>991.0</ele><time>2026-04-20T14:53:21.802Z</time></trkpt><trkpt lat="38.0389183" lon="15.784085"><ele>991.0</ele><time>2026-04-20T14:53:22.804Z</time></trkpt><trkpt lat="38.03903" lon="15.7840733"><ele>991.0</ele><time>2026-04-20T14:53:23.804Z</time></trkpt><trkpt lat="38.0391433" lon="15.784045"><ele>991.0</ele><time>2026-04-20T14:53:24.804Z</time></trkpt><trkpt lat="38.0392583" lon="15.784005"><ele>991.0</ele><time>2026-04-20T14:53:25.804Z</time></trkpt><trkpt lat="38.0393783" lon="15.7839533"><ele>989.75</ele><time>2026-04-20T14:53:26.803Z</time></trkpt><trkpt lat="38.0395017" lon="15.783895"><ele>988.5</ele><time>2026-04-20T14:53:27.804Z</time></trkpt><trkpt lat="38.0396283" lon="15.78383"><ele>987.25</ele><time>2026-04-20T14:53:28.802Z</time></trkpt><trkpt lat="38.0397533" lon="15.78376"><ele>986.0</ele><time>2026-04-20T14:53:29.805Z</time></trkpt><trkpt lat="38.0398717" lon="15.7836883"><ele>986.25</ele><time>2026-04-20T14:53:30.803Z</time></trkpt><trkpt lat="38.0399783" lon="15.7836083"><ele>986.5</ele><time>2026-04-20T14:53:31.811Z</time></trkpt><trkpt lat="38.04008" lon="15.7835367"><ele>986.75</ele><time>2026-04-20T14:53:32.804Z</time></trkpt><trkpt lat="38.0401717" lon="15.783465"><ele>987.0</ele><time>2026-04-20T14:53:33.805Z</time></trkpt><trkpt lat="38.0402617" lon="15.7833967"><ele>987.0</ele><time>2026-04-20T14:53:34.803Z</time></trkpt><trkpt lat="38.0403383" lon="15.7833267"><ele>987.0</ele><time>2026-04-20T14:53:35.805Z</time></trkpt><trkpt lat="38.0404083" lon="15.7832583"><ele>987.0</ele><time>2026-04-20T14:53:36.803Z</time></trkpt><trkpt lat="38.0404717" lon="15.7831967"><ele>987.0</ele><time>2026-04-20T14:53:37.803Z</time></trkpt><trkpt lat="38.04053" lon="15.7831483"><ele>987.0</ele><time>2026-04-20T14:53:38.805Z</time></trkpt><trkpt lat="38.0406333" lon="15.783065"><ele>987.0</ele><time>2026-04-20T14:53:40.804Z</time></trkpt><trkpt lat="38.04074" lon="15.78297"><ele>987.0</ele><time>2026-04-20T14:53:42.803Z</time></trkpt><trkpt lat="38.0407967" lon="15.7829217"><ele>987.0</ele><time>2026-04-20T14:53:43.804Z</time></trkpt><trkpt lat="38.04086" lon="15.782875"><ele>987.0</ele><time>2026-04-20T14:53:44.804Z</time></trkpt><trkpt lat="38.0409283" lon="15.782825"><ele>987.0</ele><time>2026-04-20T14:53:45.804Z</time></trkpt><trkpt lat="38.041005" lon="15.78277"><ele>987.0</ele><time>2026-04-20T14:53:46.804Z</time></trkpt><trkpt lat="38.0410867" lon="15.78271"><ele>989.0</ele><time>2026-04-20T14:53:47.803Z</time></trkpt><trkpt lat="38.0411683" lon="15.7826267"><ele>991.0</ele><time>2026-04-20T14:53:48.803Z</time></trkpt><trkpt lat="38.04125" lon="15.78254"><ele>993.0</ele><time>2026-04-20T14:53:49.804Z</time></trkpt><trkpt lat="38.04134" lon="15.7824667"><ele>995.0</ele><time>2026-04-20T14:53:50.804Z</time></trkpt><trkpt lat="38.041435" lon="15.7824033"><ele>997.0</ele><time>2026-04-20T14:53:51.804Z</time></trkpt><trkpt lat="38.0415067" lon="15.7822967"><ele>997.0</ele><time>2026-04-20T14:53:52.804Z</time></trkpt><trkpt lat="38.041585" lon="15.7822233"><ele>997.0</ele><time>2026-04-20T14:53:53.803Z</time></trkpt><trkpt lat="38.041665" lon="15.7821533"><ele>997.0</ele><time>2026-04-20T14:53:54.803Z</time></trkpt><trkpt lat="38.0417417" lon="15.782085"><ele>997.0</ele><time>2026-04-20T14:53:55.805Z</time></trkpt><trkpt lat="38.0418183" lon="15.7820283"><ele>997.0</ele><time>2026-04-20T14:53:56.805Z</time></trkpt><trkpt lat="38.0418967" lon="15.78198"><ele>996.6666666666666</ele><time>2026-04-20T14:53:57.804Z</time></trkpt><trkpt lat="38.0419767" lon="15.78194"><ele>996.3333333333333</ele><time>2026-04-20T14:53:58.805Z</time></trkpt><trkpt lat="38.0420533" lon="15.7819033"><ele>996.0</ele><time>2026-04-20T14:53:59.805Z</time></trkpt><trkpt lat="38.0421383" lon="15.7818867"><ele>995.6666666666667</ele><time>2026-04-20T14:54:00.804Z</time></trkpt><trkpt lat="38.0422183" lon="15.7818583"><ele>995.3333333333334</ele><time>2026-04-20T14:54:01.803Z</time></trkpt><trkpt lat="38.042295" lon="15.7818283"><ele>995.0</ele><time>2026-04-20T14:54:02.804Z</time></trkpt><trkpt lat="38.0423667" lon="15.781805"><ele>995.4285714285714</ele><time>2026-04-20T14:54:03.803Z</time></trkpt><trkpt lat="38.0424317" lon="15.7817817"><ele>995.8571428571429</ele><time>2026-04-20T14:54:04.804Z</time></trkpt><trkpt lat="38.0424967" lon="15.78176"><ele>996.2857142857143</ele><time>2026-04-20T14:54:05.805Z</time></trkpt><trkpt lat="38.0425667" lon="15.7817483"><ele>996.7142857142858</ele><time>2026-04-20T14:54:06.804Z</time></trkpt><trkpt lat="38.0426383" lon="15.7817267"><ele>997.1428571428571</ele><time>2026-04-20T14:54:07.806Z</time></trkpt><trkpt lat="38.0427033" lon="15.7817"><ele>997.5714285714287</ele><time>2026-04-20T14:54:08.805Z</time></trkpt><trkpt lat="38.04277" lon="15.7816667"><ele>998.0000000000001</ele><time>2026-04-20T14:54:09.803Z</time></trkpt><trkpt lat="38.0428333" lon="15.78161"><ele>998.0000000000001</ele><time>2026-04-20T14:54:10.804Z</time></trkpt><trkpt lat="38.0428983" lon="15.7815733"><ele>998.0</ele><time>2026-04-20T14:54:11.805Z</time></trkpt><trkpt lat="38.0429617" lon="15.7815317"><ele>998.0000000000001</ele><time>2026-04-20T14:54:12.804Z</time></trkpt><trkpt lat="38.0430283" lon="15.781495"><ele>998.0000000000001</ele><time>2026-04-20T14:54:13.808Z</time></trkpt><trkpt lat="38.0431017" lon="15.7814867"><ele>998.0</ele><time>2026-04-20T14:54:14.805Z</time></trkpt><trkpt lat="38.04317" lon="15.7814467"><ele>998.0000000000001</ele><time>2026-04-20T14:54:15.803Z</time></trkpt><trkpt lat="38.0432417" lon="15.7814083"><ele>998.0000000000001</ele><time>2026-04-20T14:54:16.805Z</time></trkpt><trkpt lat="38.0433133" lon="15.78137"><ele>997.8333333333334</ele><time>2026-04-20T14:54:17.804Z</time></trkpt><trkpt lat="38.043385" lon="15.7813233"><ele>997.6666666666667</ele><time>2026-04-20T14:54:18.803Z</time></trkpt><trkpt lat="38.0434567" lon="15.7812767"><ele>997.5</ele><time>2026-04-20T14:54:19.804Z</time></trkpt><trkpt lat="38.0435267" lon="15.7812317"><ele>997.3333333333333</ele><time>2026-04-20T14:54:20.803Z</time></trkpt><trkpt lat="38.0436017" lon="15.7811917"><ele>997.1666666666666</ele><time>2026-04-20T14:54:21.804Z</time></trkpt><trkpt lat="38.04368" lon="15.78115"><ele>997.0</ele><time>2026-04-20T14:54:22.803Z</time></trkpt><trkpt lat="38.0437683" lon="15.7811183"><ele>997.0</ele><time>2026-04-20T14:54:23.805Z</time></trkpt><trkpt lat="38.0438717" lon="15.7811067"><ele>997.0</ele><time>2026-04-20T14:54:24.804Z</time></trkpt><trkpt lat="38.0439767" lon="15.7810917"><ele>997.0</ele><time>2026-04-20T14:54:25.802Z</time></trkpt><trkpt lat="38.0440817" lon="15.7810783"><ele>997.0</ele><time>2026-04-20T14:54:26.804Z</time></trkpt><trkpt lat="38.0441833" lon="15.7810767"><ele>997.0</ele><time>2026-04-20T14:54:27.804Z</time></trkpt><trkpt lat="38.0442817" lon="15.7810817"><ele>995.4999999999999</ele><time>2026-04-20T14:54:28.804Z</time></trkpt><trkpt lat="38.0443767" lon="15.7810967"><ele>994.0</ele><time>2026-04-20T14:54:29.804Z</time></trkpt><trkpt lat="38.044455" lon="15.7811317"><ele>992.5</ele><time>2026-04-20T14:54:30.804Z</time></trkpt><trkpt lat="38.0445167" lon="15.7811717"><ele>991.0</ele><time>2026-04-20T14:54:31.804Z</time></trkpt><trkpt lat="38.0445417" lon="15.781255"><ele>989.4999999999999</ele><time>2026-04-20T14:54:32.803Z</time></trkpt><trkpt lat="38.0445433" lon="15.7813467"><ele>988.0</ele><time>2026-04-20T14:54:33.804Z</time></trkpt><trkpt lat="38.0444967" lon="15.7814517"><ele>988.0</ele><time>2026-04-20T14:54:34.804Z</time></trkpt><trkpt lat="38.044425" lon="15.7815617"><ele>988.0</ele><time>2026-04-20T14:54:35.803Z</time></trkpt><trkpt lat="38.04435" lon="15.7816633"><ele>988.0</ele><time>2026-04-20T14:54:36.803Z</time></trkpt><trkpt lat="38.04427" lon="15.78175"><ele>988.0</ele><time>2026-04-20T14:54:37.802Z</time></trkpt><trkpt lat="38.044215" lon="15.781825"><ele>988.0</ele><time>2026-04-20T14:54:38.804Z</time></trkpt><trkpt lat="38.0442017" lon="15.781905"><ele>986.1666666666666</ele><time>2026-04-20T14:54:39.804Z</time></trkpt><trkpt lat="38.04422" lon="15.7819817"><ele>984.3333333333333</ele><time>2026-04-20T14:54:40.804Z</time></trkpt><trkpt lat="38.0442667" lon="15.78204"><ele>982.5</ele><time>2026-04-20T14:54:41.804Z</time></trkpt><trkpt lat="38.04434" lon="15.7820767"><ele>980.6666666666667</ele><time>2026-04-20T14:54:42.803Z</time></trkpt><trkpt lat="38.0444267" lon="15.7821"><ele>978.8333333333334</ele><time>2026-04-20T14:54:43.804Z</time></trkpt><trkpt lat="38.0445233" lon="15.7821117"><ele>977.0</ele><time>2026-04-20T14:54:44.805Z</time></trkpt><trkpt lat="38.04463" lon="15.7820983"><ele>977.0</ele><time>2026-04-20T14:54:45.804Z</time></trkpt><trkpt lat="38.0447333" lon="15.78209"><ele>977.0</ele><time>2026-04-20T14:54:46.803Z</time></trkpt><trkpt lat="38.0448367" lon="15.7820917"><ele>977.0</ele><time>2026-04-20T14:54:47.803Z</time></trkpt><trkpt lat="38.044935" lon="15.7820617"><ele>977.0</ele><time>2026-04-20T14:54:48.803Z</time></trkpt><trkpt lat="38.045035" lon="15.7820267"><ele>977.0</ele><time>2026-04-20T14:54:49.803Z</time></trkpt><trkpt lat="38.0451267" lon="15.7819667"><ele>977.5000000000001</ele><time>2026-04-20T14:54:50.803Z</time></trkpt><trkpt lat="38.0452083" lon="15.7818917"><ele>978.0</ele><time>2026-04-20T14:54:51.803Z</time></trkpt><trkpt lat="38.04527" lon="15.78181"><ele>978.5</ele><time>2026-04-20T14:54:52.804Z</time></trkpt><trkpt lat="38.04533" lon="15.7817433"><ele>979.0</ele><time>2026-04-20T14:54:53.805Z</time></trkpt><trkpt lat="38.0453917" lon="15.78168"><ele>979.5000000000001</ele><time>2026-04-20T14:54:54.803Z</time></trkpt><trkpt lat="38.04546" lon="15.781635"><ele>980.0</ele><time>2026-04-20T14:54:55.804Z</time></trkpt><trkpt lat="38.04553" lon="15.7815983"><ele>980.1666666666667</ele><time>2026-04-20T14:54:56.804Z</time></trkpt><trkpt lat="38.0456" lon="15.7815667"><ele>980.3333333333334</ele><time>2026-04-20T14:54:57.806Z</time></trkpt><trkpt lat="38.0456767" lon="15.78154"><ele>980.5</ele><time>2026-04-20T14:54:58.805Z</time></trkpt><trkpt lat="38.045765" lon="15.78152"><ele>980.6666666666667</ele><time>2026-04-20T14:54:59.805Z</time></trkpt><trkpt lat="38.0458583" lon="15.781495"><ele>980.8333333333334</ele><time>2026-04-20T14:55:00.804Z</time></trkpt><trkpt lat="38.045955" lon="15.78147"><ele>981.0</ele><time>2026-04-20T14:55:01.803Z</time></trkpt><trkpt lat="38.0460567" lon="15.7814483"><ele>979.75</ele><time>2026-04-20T14:55:02.806Z</time></trkpt><trkpt lat="38.046165" lon="15.7814367"><ele>978.5</ele><time>2026-04-20T14:55:03.804Z</time></trkpt><trkpt lat="38.046275" lon="15.7814383"><ele>977.25</ele><time>2026-04-20T14:55:04.806Z</time></trkpt><trkpt lat="38.0463867" lon="15.7814583"><ele>976.0</ele><time>2026-04-20T14:55:05.804Z</time></trkpt><trkpt lat="38.046505" lon="15.7814483"><ele>976.0</ele><time>2026-04-20T14:55:06.804Z</time></trkpt><trkpt lat="38.0466233" lon="15.7814633"><ele>976.0</ele><time>2026-04-20T14:55:07.804Z</time></trkpt><trkpt lat="38.0467417" lon="15.7814833"><ele>976.0</ele><time>2026-04-20T14:55:08.805Z</time></trkpt><trkpt lat="38.0468583" lon="15.781485"><ele>976.0</ele><time>2026-04-20T14:55:09.805Z</time></trkpt><trkpt lat="38.046975" lon="15.7814683"><ele>975.4</ele><time>2026-04-20T14:55:10.805Z</time></trkpt><trkpt lat="38.0470867" lon="15.7814433"><ele>974.8</ele><time>2026-04-20T14:55:11.803Z</time></trkpt><trkpt lat="38.0471917" lon="15.7814083"><ele>974.1999999999999</ele><time>2026-04-20T14:55:12.804Z</time></trkpt><trkpt lat="38.047275" lon="15.7813433"><ele>973.5999999999999</ele><time>2026-04-20T14:55:13.804Z</time></trkpt><trkpt lat="38.047335" lon="15.78126"><ele>973.0</ele><time>2026-04-20T14:55:14.804Z</time></trkpt><trkpt lat="38.04738" lon="15.781165"><ele>972.9999999999999</ele><time>2026-04-20T14:55:15.804Z</time></trkpt><trkpt lat="38.04742" lon="15.7810617"><ele>973.0</ele><time>2026-04-20T14:55:16.806Z</time></trkpt><trkpt lat="38.047445" lon="15.7809583"><ele>973.0</ele><time>2026-04-20T14:55:17.803Z</time></trkpt><trkpt lat="38.047475" lon="15.78087"><ele>973.0</ele><time>2026-04-20T14:55:18.804Z</time></trkpt><trkpt lat="38.04752" lon="15.7807967"><ele>972.9999999999999</ele><time>2026-04-20T14:55:19.805Z</time></trkpt><trkpt lat="38.0475767" lon="15.78075"><ele>973.0</ele><time>2026-04-20T14:55:20.804Z</time></trkpt><trkpt lat="38.0476867" lon="15.7807683"><ele>974.0</ele><time>2026-04-20T14:55:22.802Z</time></trkpt><trkpt lat="38.047765" lon="15.78087"><ele>975.0</ele><time>2026-04-20T14:55:24.803Z</time></trkpt><trkpt lat="38.0477817" lon="15.781015"><ele>976.0</ele><time>2026-04-20T14:55:26.889Z</time></trkpt><trkpt lat="38.0477667" lon="15.7811483"><ele>977.0</ele><time>2026-04-20T14:55:28.804Z</time></trkpt><trkpt lat="38.047755" lon="15.7812433"><ele>978.0</ele><time>2026-04-20T14:55:30.805Z</time></trkpt><trkpt lat="38.0477383" lon="15.7813433"><ele>978.4</ele><time>2026-04-20T14:55:33.804Z</time></trkpt><trkpt lat="38.04772" lon="15.7814767"><ele>978.8</ele><time>2026-04-20T14:55:42.804Z</time></trkpt><trkpt lat="38.0477167" lon="15.7815983"><ele>979.2</ele><time>2026-04-20T14:55:44.803Z</time></trkpt><trkpt lat="38.04774" lon="15.7817467"><ele>979.6</ele><time>2026-04-20T14:55:46.804Z</time></trkpt><trkpt lat="38.0477667" lon="15.7818233"><ele>980.0</ele><time>2026-04-20T14:55:47.803Z</time></trkpt><trkpt lat="38.0478017" lon="15.78191"><ele>980.3333333333334</ele><time>2026-04-20T14:55:48.804Z</time></trkpt><trkpt lat="38.04784" lon="15.7819933"><ele>980.6666666666667</ele><time>2026-04-20T14:55:49.805Z</time></trkpt><trkpt lat="38.047885" lon="15.78208"><ele>981.0</ele><time>2026-04-20T14:55:50.806Z</time></trkpt><trkpt lat="38.0479283" lon="15.782185"><ele>981.3333333333333</ele><time>2026-04-20T14:55:51.804Z</time></trkpt><trkpt lat="38.0479783" lon="15.7822767"><ele>981.6666666666666</ele><time>2026-04-20T14:55:52.805Z</time></trkpt><trkpt lat="38.048045" lon="15.78236"><ele>982.0</ele><time>2026-04-20T14:55:53.804Z</time></trkpt><trkpt lat="38.0481167" lon="15.782445"><ele>982.0</ele><time>2026-04-20T14:55:54.804Z</time></trkpt><trkpt lat="38.0481917" lon="15.7825333"><ele>982.0</ele><time>2026-04-20T14:55:55.804Z</time></trkpt><trkpt lat="38.0482667" lon="15.7826217"><ele>982.0</ele><time>2026-04-20T14:55:56.804Z</time></trkpt><trkpt lat="38.0483233" lon="15.7827333"><ele>982.0</ele><time>2026-04-20T14:55:57.804Z</time></trkpt><trkpt lat="38.0483867" lon="15.7828433"><ele>982.0</ele><time>2026-04-20T14:55:58.805Z</time></trkpt><trkpt lat="38.0484617" lon="15.7829417"><ele>984.0</ele><time>2026-04-20T14:55:59.804Z</time></trkpt><trkpt lat="38.0485467" lon="15.7830233"><ele>986.0</ele><time>2026-04-20T14:56:00.805Z</time></trkpt><trkpt lat="38.0486317" lon="15.783105"><ele>988.0</ele><time>2026-04-20T14:56:01.805Z</time></trkpt><trkpt lat="38.0487067" lon="15.7831933"><ele>990.0</ele><time>2026-04-20T14:56:02.804Z</time></trkpt><trkpt lat="38.048785" lon="15.783275"><ele>992.0</ele><time>2026-04-20T14:56:03.804Z</time></trkpt><trkpt lat="38.0488567" lon="15.7833617"><ele>992.0</ele><time>2026-04-20T14:56:04.805Z</time></trkpt><trkpt lat="38.0489317" lon="15.7834467"><ele>992.0</ele><time>2026-04-20T14:56:05.804Z</time></trkpt><trkpt lat="38.0489917" lon="15.783545"><ele>992.0</ele><time>2026-04-20T14:56:06.804Z</time></trkpt><trkpt lat="38.0490383" lon="15.7836567"><ele>992.0</ele><time>2026-04-20T14:56:07.805Z</time></trkpt><trkpt lat="38.049095" lon="15.783765"><ele>992.0</ele><time>2026-04-20T14:56:08.807Z</time></trkpt><trkpt lat="38.0491483" lon="15.78388"><ele>993.6</ele><time>2026-04-20T14:56:09.804Z</time></trkpt><trkpt lat="38.04922" lon="15.7839667"><ele>995.2</ele><time>2026-04-20T14:56:10.806Z</time></trkpt><trkpt lat="38.0493067" lon="15.7840317"><ele>996.8</ele><time>2026-04-20T14:56:11.806Z</time></trkpt><trkpt lat="38.0494133" lon="15.784075"><ele>998.4</ele><time>2026-04-20T14:56:12.805Z</time></trkpt><trkpt lat="38.0495217" lon="15.7841033"><ele>1000.0</ele><time>2026-04-20T14:56:13.803Z</time></trkpt><trkpt lat="38.0496383" lon="15.7841233"><ele>1000.0</ele><time>2026-04-20T14:56:14.807Z</time></trkpt><trkpt lat="38.0497533" lon="15.7841433"><ele>1000.0</ele><time>2026-04-20T14:56:15.804Z</time></trkpt><trkpt lat="38.0498783" lon="15.7841517"><ele>1000.0</ele><time>2026-04-20T14:56:16.804Z</time></trkpt><trkpt lat="38.0500017" lon="15.7841683"><ele>1000.0</ele><time>2026-04-20T14:56:17.806Z</time></trkpt><trkpt lat="38.0501267" lon="15.7841767"><ele>1001.75</ele><time>2026-04-20T14:56:18.804Z</time></trkpt><trkpt lat="38.0502517" lon="15.7841867"><ele>1003.5</ele><time>2026-04-20T14:56:19.805Z</time></trkpt><trkpt lat="38.0503733" lon="15.7842117"><ele>1005.25</ele><time>2026-04-20T14:56:20.807Z</time></trkpt><trkpt lat="38.0504933" lon="15.7842467"><ele>1007.0</ele><time>2026-04-20T14:56:21.804Z</time></trkpt><trkpt lat="38.0506133" lon="15.7843"><ele>1006.75</ele><time>2026-04-20T14:56:22.804Z</time></trkpt><trkpt lat="38.0507317" lon="15.7843467"><ele>1006.5</ele><time>2026-04-20T14:56:23.804Z</time></trkpt><trkpt lat="38.0508483" lon="15.7843767"><ele>1006.25</ele><time>2026-04-20T14:56:24.804Z</time></trkpt><trkpt lat="38.0509717" lon="15.7843883"><ele>1006.0</ele><time>2026-04-20T14:56:25.804Z</time></trkpt><trkpt lat="38.051095" lon="15.7843833"><ele>1007.5</ele><time>2026-04-20T14:56:26.805Z</time></trkpt><trkpt lat="38.05122" lon="15.7843883"><ele>1009.0</ele><time>2026-04-20T14:56:27.803Z</time></trkpt><trkpt lat="38.0513483" lon="15.7843883"><ele>1010.5</ele><time>2026-04-20T14:56:28.804Z</time></trkpt><trkpt lat="38.0514767" lon="15.78439"><ele>1012.0</ele><time>2026-04-20T14:56:29.803Z</time></trkpt><trkpt lat="38.0516133" lon="15.78439"><ele>1013.75</ele><time>2026-04-20T14:56:30.804Z</time></trkpt><trkpt lat="38.0517533" lon="15.7843883"><ele>1015.5</ele><time>2026-04-20T14:56:31.804Z</time></trkpt><trkpt lat="38.0518933" lon="15.7843833"><ele>1017.25</ele><time>2026-04-20T14:56:32.805Z</time></trkpt><trkpt lat="38.0520383" lon="15.7843833"><ele>1019.0</ele><time>2026-04-20T14:56:33.804Z</time></trkpt><trkpt lat="38.0521833" lon="15.784405"><ele>1019.0</ele><time>2026-04-20T14:56:34.803Z</time></trkpt><trkpt lat="38.0523283" lon="15.7844317"><ele>1019.0</ele><time>2026-04-20T14:56:35.804Z</time></trkpt><trkpt lat="38.0524717" lon="15.784465"><ele>1019.0</ele><time>2026-04-20T14:56:36.803Z</time></trkpt><trkpt lat="38.052615" lon="15.7844883"><ele>1019.0</ele><time>2026-04-20T14:56:37.804Z</time></trkpt><trkpt lat="38.0527517" lon="15.784515"><ele>1021.0</ele><time>2026-04-20T14:56:38.803Z</time></trkpt><trkpt lat="38.05288" lon="15.7845333"><ele>1023.0</ele><time>2026-04-20T14:56:39.804Z</time></trkpt><trkpt lat="38.0530067" lon="15.78454"><ele>1025.0</ele><time>2026-04-20T14:56:40.806Z</time></trkpt><trkpt lat="38.0531283" lon="15.7845517"><ele>1027.0</ele><time>2026-04-20T14:56:41.806Z</time></trkpt><trkpt lat="38.0532433" lon="15.78454"><ele>1028.6666666666665</ele><time>2026-04-20T14:56:42.806Z</time></trkpt><trkpt lat="38.0533483" lon="15.7845133"><ele>1030.3333333333333</ele><time>2026-04-20T14:56:43.804Z</time></trkpt><trkpt lat="38.0534417" lon="15.7844917"><ele>1032.0</ele><time>2026-04-20T14:56:44.804Z</time></trkpt><trkpt lat="38.053525" lon="15.7844833"><ele>1033.6666666666667</ele><time>2026-04-20T14:56:45.804Z</time></trkpt><trkpt lat="38.053605" lon="15.7844867"><ele>1035.3333333333335</ele><time>2026-04-20T14:56:46.804Z</time></trkpt><trkpt lat="38.0536867" lon="15.784505"><ele>1037.0</ele><time>2026-04-20T14:56:47.805Z</time></trkpt><trkpt lat="38.0537717" lon="15.7845283"><ele>1037.0</ele><time>2026-04-20T14:56:48.803Z</time></trkpt><trkpt lat="38.0538533" lon="15.7845667"><ele>1037.0</ele><time>2026-04-20T14:56:49.805Z</time></trkpt><trkpt lat="38.0539367" lon="15.78463"><ele>1037.0</ele><time>2026-04-20T14:56:50.803Z</time></trkpt><trkpt lat="38.054025" lon="15.7846883"><ele>1037.0</ele><time>2026-04-20T14:56:51.804Z</time></trkpt><trkpt lat="38.0541183" lon="15.7847383"><ele>1037.0</ele><time>2026-04-20T14:56:52.804Z</time></trkpt><trkpt lat="38.0542083" lon="15.784775"><ele>1038.0</ele><time>2026-04-20T14:56:53.804Z</time></trkpt><trkpt lat="38.0542883" lon="15.7848083"><ele>1039.0</ele><time>2026-04-20T14:56:54.803Z</time></trkpt><trkpt lat="38.0543583" lon="15.784845"><ele>1040.0</ele><time>2026-04-20T14:56:55.804Z</time></trkpt><trkpt lat="38.0544233" lon="15.7848683"><ele>1041.0</ele><time>2026-04-20T14:56:56.804Z</time></trkpt><trkpt lat="38.0544933" lon="15.7848833"><ele>1042.0</ele><time>2026-04-20T14:56:57.803Z</time></trkpt><trkpt lat="38.0545733" lon="15.7848983"><ele>1043.0</ele><time>2026-04-20T14:56:58.804Z</time></trkpt><trkpt lat="38.0546617" lon="15.78491"><ele>1043.0</ele><time>2026-04-20T14:56:59.803Z</time></trkpt><trkpt lat="38.0547617" lon="15.7849417"><ele>1043.0</ele><time>2026-04-20T14:57:00.805Z</time></trkpt><trkpt lat="38.054865" lon="15.7849833"><ele>1043.0</ele><time>2026-04-20T14:57:01.803Z</time></trkpt><trkpt lat="38.05497" lon="15.7850233"><ele>1043.0</ele><time>2026-04-20T14:57:02.807Z</time></trkpt><trkpt lat="38.0550783" lon="15.7850483"><ele>1043.0</ele><time>2026-04-20T14:57:03.806Z</time></trkpt><trkpt lat="38.0551917" lon="15.7850633"><ele>1042.75</ele><time>2026-04-20T14:57:04.805Z</time></trkpt><trkpt lat="38.0553083" lon="15.7850833"><ele>1042.5</ele><time>2026-04-20T14:57:05.805Z</time></trkpt><trkpt lat="38.05543" lon="15.78511"><ele>1042.25</ele><time>2026-04-20T14:57:06.806Z</time></trkpt><trkpt lat="38.0555533" lon="15.7851483"><ele>1042.0</ele><time>2026-04-20T14:57:07.804Z</time></trkpt><trkpt lat="38.05568" lon="15.785155"><ele>1037.6</ele><time>2026-04-20T14:57:08.804Z</time></trkpt><trkpt lat="38.0557917" lon="15.7851983"><ele>1033.2</ele><time>2026-04-20T14:57:09.804Z</time></trkpt><trkpt lat="38.0558883" lon="15.7852283"><ele>1028.8</ele><time>2026-04-20T14:57:10.805Z</time></trkpt><trkpt lat="38.0559733" lon="15.785245"><ele>1024.4</ele><time>2026-04-20T14:57:11.805Z</time></trkpt><trkpt lat="38.0560567" lon="15.7852433"><ele>1020.0</ele><time>2026-04-20T14:57:12.805Z</time></trkpt><trkpt lat="38.05615" lon="15.78523"><ele>1020.0</ele><time>2026-04-20T14:57:13.804Z</time></trkpt><trkpt lat="38.05625" lon="15.7852183"><ele>1020.0</ele><time>2026-04-20T14:57:14.804Z</time></trkpt><trkpt lat="38.0563533" lon="15.7852133"><ele>1020.0</ele><time>2026-04-20T14:57:15.804Z</time></trkpt><trkpt lat="38.0564583" lon="15.785205"><ele>1020.0</ele><time>2026-04-20T14:57:16.805Z</time></trkpt><trkpt lat="38.05656" lon="15.7851933"><ele>1020.0</ele><time>2026-04-20T14:57:17.804Z</time></trkpt><trkpt lat="38.05666" lon="15.785185"><ele>1019.5</ele><time>2026-04-20T14:57:18.804Z</time></trkpt><trkpt lat="38.0567633" lon="15.7852067"><ele>1019.0</ele><time>2026-04-20T14:57:19.805Z</time></trkpt><trkpt lat="38.0568683" lon="15.785255"><ele>1018.5</ele><time>2026-04-20T14:57:20.804Z</time></trkpt><trkpt lat="38.05698" lon="15.7853017"><ele>1018.0</ele><time>2026-04-20T14:57:21.803Z</time></trkpt><trkpt lat="38.0570967" lon="15.78532"><ele>1018.0</ele><time>2026-04-20T14:57:22.806Z</time></trkpt><trkpt lat="38.0572217" lon="15.7853267"><ele>1018.0</ele><time>2026-04-20T14:57:23.804Z</time></trkpt><trkpt lat="38.0573533" lon="15.7853367"><ele>1018.0</ele><time>2026-04-20T14:57:24.804Z</time></trkpt><trkpt lat="38.0574967" lon="15.7853433"><ele>1018.0</ele><time>2026-04-20T14:57:25.804Z</time></trkpt><trkpt lat="38.057645" lon="15.7853367"><ele>1020.6666666666666</ele><time>2026-04-20T14:57:26.805Z</time></trkpt><trkpt lat="38.0577983" lon="15.7853333"><ele>1023.3333333333333</ele><time>2026-04-20T14:57:27.804Z</time></trkpt><trkpt lat="38.0579533" lon="15.7853217"><ele>1026.0</ele><time>2026-04-20T14:57:28.804Z</time></trkpt><trkpt lat="38.0581133" lon="15.7853283"><ele>1028.0</ele><time>2026-04-20T14:57:29.804Z</time></trkpt><trkpt lat="38.0582867" lon="15.7853533"><ele>1030.0</ele><time>2026-04-20T14:57:30.804Z</time></trkpt><trkpt lat="38.0584717" lon="15.7853967"><ele>1032.0</ele><time>2026-04-20T14:57:31.803Z</time></trkpt><trkpt lat="38.0586467" lon="15.78544"><ele>1032.0</ele><time>2026-04-20T14:57:32.807Z</time></trkpt><trkpt lat="38.0588067" lon="15.7854833"><ele>1032.0</ele><time>2026-04-20T14:57:33.803Z</time></trkpt><trkpt lat="38.0589683" lon="15.7855167"><ele>1032.0</ele><time>2026-04-20T14:57:34.803Z</time></trkpt><trkpt lat="38.05913" lon="15.7855217"><ele>1035.3333333333333</ele><time>2026-04-20T14:57:35.805Z</time></trkpt><trkpt lat="38.0592917" lon="15.785485"><ele>1038.6666666666665</ele><time>2026-04-20T14:57:36.806Z</time></trkpt><trkpt lat="38.0594433" lon="15.7854533"><ele>1042.0</ele><time>2026-04-20T14:57:37.803Z</time></trkpt><trkpt lat="38.0595833" lon="15.7854317"><ele>1042.0</ele><time>2026-04-20T14:57:38.805Z</time></trkpt><trkpt lat="38.0597117" lon="15.7853817"><ele>1042.0</ele><time>2026-04-20T14:57:39.804Z</time></trkpt><trkpt lat="38.059835" lon="15.7853517"><ele>1042.0</ele><time>2026-04-20T14:57:40.804Z</time></trkpt><trkpt lat="38.0599483" lon="15.7853217"><ele>1042.0</ele><time>2026-04-20T14:57:41.804Z</time></trkpt><trkpt lat="38.0600533" lon="15.7853217"><ele>1043.8</ele><time>2026-04-20T14:57:42.804Z</time></trkpt><trkpt lat="38.0601433" lon="15.7853317"><ele>1045.6</ele><time>2026-04-20T14:57:43.808Z</time></trkpt><trkpt lat="38.0602217" lon="15.7853733"><ele>1047.3999999999999</ele><time>2026-04-20T14:57:44.804Z</time></trkpt><trkpt lat="38.0602983" lon="15.7854367"><ele>1049.2</ele><time>2026-04-20T14:57:45.804Z</time></trkpt><trkpt lat="38.0603733" lon="15.7855117"><ele>1051.0</ele><time>2026-04-20T14:57:46.804Z</time></trkpt><trkpt lat="38.06045" lon="15.78559"><ele>1051.0</ele><time>2026-04-20T14:57:47.803Z</time></trkpt><trkpt lat="38.0605333" lon="15.7856733"><ele>1051.0</ele><time>2026-04-20T14:57:48.804Z</time></trkpt><trkpt lat="38.0606183" lon="15.7857633"><ele>1051.0</ele><time>2026-04-20T14:57:49.803Z</time></trkpt><trkpt lat="38.0606967" lon="15.785855"><ele>1051.0</ele><time>2026-04-20T14:57:50.806Z</time></trkpt><trkpt lat="38.0607767" lon="15.7859483"><ele>1051.0</ele><time>2026-04-20T14:57:51.805Z</time></trkpt><trkpt lat="38.06084" lon="15.78606"><ele>1052.0</ele><time>2026-04-20T14:57:52.804Z</time></trkpt><trkpt lat="38.0609" lon="15.7861783"><ele>1053.0</ele><time>2026-04-20T14:57:53.803Z</time></trkpt><trkpt lat="38.0609617" lon="15.786295"><ele>1054.0</ele><time>2026-04-20T14:57:54.804Z</time></trkpt><trkpt lat="38.0610233" lon="15.7864083"><ele>1055.0</ele><time>2026-04-20T14:57:55.804Z</time></trkpt><trkpt lat="38.061075" lon="15.7865283"><ele>1056.0</ele><time>2026-04-20T14:57:56.807Z</time></trkpt><trkpt lat="38.0611117" lon="15.7866533"><ele>1056.0</ele><time>2026-04-20T14:57:57.805Z</time></trkpt><trkpt lat="38.061125" lon="15.786785"><ele>1056.0</ele><time>2026-04-20T14:57:58.806Z</time></trkpt><trkpt lat="38.0611267" lon="15.78692"><ele>1056.0</ele><time>2026-04-20T14:57:59.807Z</time></trkpt><trkpt lat="38.061125" lon="15.7870583"><ele>1056.0</ele><time>2026-04-20T14:58:00.805Z</time></trkpt><trkpt lat="38.0611233" lon="15.7871983"><ele>1056.0</ele><time>2026-04-20T14:58:01.805Z</time></trkpt><trkpt lat="38.06112" lon="15.7873383"><ele>1056.8</ele><time>2026-04-20T14:58:02.805Z</time></trkpt><trkpt lat="38.06112" lon="15.7874817"><ele>1057.6</ele><time>2026-04-20T14:58:03.805Z</time></trkpt><trkpt lat="38.0611083" lon="15.7876167"><ele>1058.4</ele><time>2026-04-20T14:58:04.804Z</time></trkpt><trkpt lat="38.06112" lon="15.78775"><ele>1059.2</ele><time>2026-04-20T14:58:05.805Z</time></trkpt><trkpt lat="38.06112" lon="15.7878767"><ele>1060.0</ele><time>2026-04-20T14:58:06.805Z</time></trkpt><trkpt lat="38.0611183" lon="15.7880117"><ele>1060.0</ele><time>2026-04-20T14:58:07.804Z</time></trkpt><trkpt lat="38.061115" lon="15.788155"><ele>1060.0</ele><time>2026-04-20T14:58:08.805Z</time></trkpt><trkpt lat="38.0611083" lon="15.788315"><ele>1060.0</ele><time>2026-04-20T14:58:09.809Z</time></trkpt><trkpt lat="38.061105" lon="15.788485"><ele>1060.0</ele><time>2026-04-20T14:58:10.805Z</time></trkpt><trkpt lat="38.061105" lon="15.7886533"><ele>1067.5</ele><time>2026-04-20T14:58:11.804Z</time></trkpt><trkpt lat="38.0611133" lon="15.7888033"><ele>1075.0</ele><time>2026-04-20T14:58:12.804Z</time></trkpt><trkpt lat="38.0595833" lon="15.7854317"><ele>1069.0</ele><time>2026-04-20T14:57:38.805Z</time></trkpt><trkpt lat="38.0597117" lon="15.7853817"><ele>1063.0</ele><time>2026-04-20T14:57:39.804Z</time></trkpt><trkpt lat="38.059835" lon="15.7853517"><ele>1057.0</ele><time>2026-04-20T14:57:40.804Z</time></trkpt><trkpt lat="38.0599483" lon="15.7853217"><ele>1051.0</ele><time>2026-04-20T14:57:41.804Z</time></trkpt><trkpt lat="38.0600533" lon="15.7853217"><ele>1051.0</ele><time>2026-04-20T14:57:42.804Z</time></trkpt><trkpt lat="38.0601433" lon="15.7853317"><ele>1051.0</ele><time>2026-04-20T14:57:43.808Z</time></trkpt><trkpt lat="38.0602217" lon="15.7853733"><ele>1051.0</ele><time>2026-04-20T14:57:44.804Z</time></trkpt><trkpt lat="38.0602983" lon="15.7854367"><ele>1051.0</ele><time>2026-04-20T14:57:45.804Z</time></trkpt><trkpt lat="38.0603733" lon="15.7855117"><ele>1051.0</ele><time>2026-04-20T14:57:46.804Z</time></trkpt><trkpt lat="38.06045" lon="15.78559"><ele>1051.0</ele><time>2026-04-20T14:57:47.803Z</time></trkpt><trkpt lat="38.0605333" lon="15.7856733"><ele>1051.0</ele><time>2026-04-20T14:57:48.804Z</time></trkpt><trkpt lat="38.0606183" lon="15.7857633"><ele>1051.0</ele><time>2026-04-20T14:57:49.803Z</time></trkpt><trkpt lat="38.0606967" lon="15.785855"><ele>1051.0</ele><time>2026-04-20T14:57:50.806Z</time></trkpt><trkpt lat="38.0607767" lon="15.7859483"><ele>1051.0</ele><time>2026-04-20T14:57:51.805Z</time></trkpt><trkpt lat="38.06084" lon="15.78606"><ele>1052.0</ele><time>2026-04-20T14:57:52.804Z</time></trkpt><trkpt lat="38.0609" lon="15.7861783"><ele>1053.0</ele><time>2026-04-20T14:57:53.803Z</time></trkpt><trkpt lat="38.0609617" lon="15.786295"><ele>1054.0</ele><time>2026-04-20T14:57:54.804Z</time></trkpt><trkpt lat="38.0610233" lon="15.7864083"><ele>1055.0</ele><time>2026-04-20T14:57:55.804Z</time></trkpt><trkpt lat="38.061075" lon="15.7865283"><ele>1056.0</ele><time>2026-04-20T14:57:56.807Z</time></trkpt><trkpt lat="38.0611117" lon="15.7866533"><ele>1056.0</ele><time>2026-04-20T14:57:57.805Z</time></trkpt><trkpt lat="38.061125" lon="15.786785"><ele>1056.0</ele><time>2026-04-20T14:57:58.806Z</time></trkpt><trkpt lat="38.0611267" lon="15.78692"><ele>1056.0</ele><time>2026-04-20T14:57:59.807Z</time></trkpt><trkpt lat="38.061125" lon="15.7870583"><ele>1056.0</ele><time>2026-04-20T14:58:00.805Z</time></trkpt><trkpt lat="38.0611233" lon="15.7871983"><ele>1056.0</ele><time>2026-04-20T14:58:01.805Z</time></trkpt><trkpt lat="38.06112" lon="15.7873383"><ele>1056.8</ele><time>2026-04-20T14:58:02.805Z</time></trkpt><trkpt lat="38.06112" lon="15.7874817"><ele>1057.6</ele><time>2026-04-20T14:58:03.805Z</time></trkpt><trkpt lat="38.0611083" lon="15.7876167"><ele>1058.4</ele><time>2026-04-20T14:58:04.804Z</time></trkpt><trkpt lat="38.06112" lon="15.78775"><ele>1059.2</ele><time>2026-04-20T14:58:05.805Z</time></trkpt><trkpt lat="38.06112" lon="15.7878767"><ele>1060.0</ele><time>2026-04-20T14:58:06.805Z</time></trkpt><trkpt lat="38.0611183" lon="15.7880117"><ele>1060.0</ele><time>2026-04-20T14:58:07.804Z</time></trkpt><trkpt lat="38.061115" lon="15.788155"><ele>1060.0</ele><time>2026-04-20T14:58:08.805Z</time></trkpt><trkpt lat="38.0611083" lon="15.788315"><ele>1060.0</ele><time>2026-04-20T14:58:09.809Z</time></trkpt><trkpt lat="38.061105" lon="15.788485"><ele>1060.0</ele><time>2026-04-20T14:58:10.805Z</time></trkpt><trkpt lat="38.061105" lon="15.7886533"><ele>1063.0</ele><time>2026-04-20T14:58:11.804Z</time></trkpt><trkpt lat="38.0611133" lon="15.7888033"><ele>1066.0</ele><time>2026-04-20T14:58:12.804Z</time></trkpt><trkpt lat="38.0611167" lon="15.7889333"><ele>1069.0</ele><time>2026-04-20T14:58:13.805Z</time></trkpt><trkpt lat="38.0611017" lon="15.7890383"><ele>1072.0</ele><time>2026-04-20T14:58:14.805Z</time></trkpt><trkpt lat="38.0610633" lon="15.7891217"><ele>1075.0</ele><time>2026-04-20T14:58:15.804Z</time></trkpt><trkpt lat="38.0610017" lon="15.7891667"><ele>1075.0</ele><time>2026-04-20T14:58:16.804Z</time></trkpt><trkpt lat="38.06092" lon="15.78916"><ele>1075.0</ele><time>2026-04-20T14:58:17.803Z</time></trkpt><trkpt lat="38.0608283" lon="15.7891083"><ele>1075.0</ele><time>2026-04-20T14:58:18.804Z</time></trkpt><trkpt lat="38.060735" lon="15.789"><ele>1075.0</ele><time>2026-04-20T14:58:19.804Z</time></trkpt><trkpt lat="38.060635" lon="15.788925"><ele>1075.0</ele><time>2026-04-20T14:58:20.805Z</time></trkpt><trkpt lat="38.06053" lon="15.7888983"><ele>1073.75</ele><time>2026-04-20T14:58:21.804Z</time></trkpt><trkpt lat="38.0604233" lon="15.78892"><ele>1072.5</ele><time>2026-04-20T14:58:22.805Z</time></trkpt><trkpt lat="38.0603167" lon="15.7889833"><ele>1071.25</ele><time>2026-04-20T14:58:23.805Z</time></trkpt><trkpt lat="38.0602217" lon="15.7890917"><ele>1070.0</ele><time>2026-04-20T14:58:24.805Z</time></trkpt><trkpt lat="38.0601433" lon="15.789215"><ele>1070.0</ele><time>2026-04-20T14:58:25.803Z</time></trkpt><trkpt lat="38.0600717" lon="15.78934"><ele>1070.0</ele><time>2026-04-20T14:58:26.805Z</time></trkpt><trkpt lat="38.060005" lon="15.7894783"><ele>1070.0</ele><time>2026-04-20T14:58:27.805Z</time></trkpt><trkpt lat="38.0599367" lon="15.7896167"><ele>1070.0</ele><time>2026-04-20T14:58:28.804Z</time></trkpt><trkpt lat="38.059865" lon="15.7897517"><ele>1072.0</ele><time>2026-04-20T14:58:29.807Z</time></trkpt><trkpt lat="38.059795" lon="15.7898933"><ele>1074.0</ele><time>2026-04-20T14:58:30.806Z</time></trkpt><trkpt lat="38.059725" lon="15.7900417"><ele>1076.0</ele><time>2026-04-20T14:58:31.804Z</time></trkpt><trkpt lat="38.0596483" lon="15.790195"><ele>1078.0</ele><time>2026-04-20T14:58:32.804Z</time></trkpt><trkpt lat="38.0595717" lon="15.790355"><ele>1078.0</ele><time>2026-04-20T14:58:33.804Z</time></trkpt><trkpt lat="38.05949" lon="15.7905183"><ele>1078.0</ele><time>2026-04-20T14:58:34.803Z</time></trkpt><trkpt lat="38.059405" lon="15.7906883"><ele>1078.0</ele><time>2026-04-20T14:58:35.805Z</time></trkpt><trkpt lat="38.05932" lon="15.790865"><ele>1081.3333333333333</ele><time>2026-04-20T14:58:36.804Z</time></trkpt><trkpt lat="38.0592333" lon="15.79104"><ele>1084.6666666666667</ele><time>2026-04-20T14:58:37.804Z</time></trkpt><trkpt lat="38.05915" lon="15.7912133"><ele>1088.0</ele><time>2026-04-20T14:58:38.804Z</time></trkpt><trkpt lat="38.0590683" lon="15.79139"><ele>1083.25</ele><time>2026-04-20T14:58:39.804Z</time></trkpt><trkpt lat="38.0589917" lon="15.7915667"><ele>1078.5</ele><time>2026-04-20T14:58:40.804Z</time></trkpt><trkpt lat="38.0589183" lon="15.7917333"><ele>1073.75</ele><time>2026-04-20T14:58:41.804Z</time></trkpt><trkpt lat="38.05885" lon="15.7918817"><ele>1069.0</ele><time>2026-04-20T14:58:42.803Z</time></trkpt><trkpt lat="38.0587983" lon="15.7920167"><ele>1069.0</ele><time>2026-04-20T14:58:43.803Z</time></trkpt><trkpt lat="38.05874" lon="15.7921317"><ele>1069.0</ele><time>2026-04-20T14:58:44.808Z</time></trkpt><trkpt lat="38.0587017" lon="15.7922433"><ele>1069.0</ele><time>2026-04-20T14:58:45.803Z</time></trkpt><trkpt lat="38.0587017" lon="15.7923633"><ele>1069.0</ele><time>2026-04-20T14:58:46.804Z</time></trkpt><trkpt lat="38.05873" lon="15.7924883"><ele>1069.0</ele><time>2026-04-20T14:58:47.803Z</time></trkpt><trkpt lat="38.0587817" lon="15.7926183"><ele>1064.5</ele><time>2026-04-20T14:58:48.803Z</time></trkpt><trkpt lat="38.0588367" lon="15.792755"><ele>1060.0</ele><time>2026-04-20T14:58:49.803Z</time></trkpt><trkpt lat="38.0588817" lon="15.7929133"><ele>1055.5</ele><time>2026-04-20T14:58:50.804Z</time></trkpt><trkpt lat="38.0589483" lon="15.7930533"><ele>1051.0</ele><time>2026-04-20T14:58:51.802Z</time></trkpt><trkpt lat="38.058995" lon="15.7932067"><ele>1051.0</ele><time>2026-04-20T14:58:52.803Z</time></trkpt><trkpt lat="38.059055" lon="15.7933433"><ele>1051.0</ele><time>2026-04-20T14:58:53.803Z</time></trkpt><trkpt lat="38.0591067" lon="15.7934983"><ele>1051.0</ele><time>2026-04-20T14:58:54.803Z</time></trkpt><trkpt lat="38.0591767" lon="15.793635"><ele>1051.0</ele><time>2026-04-20T14:58:55.803Z</time></trkpt><trkpt lat="38.0592417" lon="15.7937717"><ele>1058.5</ele><time>2026-04-20T14:58:56.804Z</time></trkpt><trkpt lat="38.05931" lon="15.7939167"><ele>1066.0</ele><time>2026-04-20T14:58:57.803Z</time></trkpt><trkpt lat="38.05939" lon="15.7940317"><ele>1073.5</ele><time>2026-04-20T14:58:58.803Z</time></trkpt><trkpt lat="38.0594383" lon="15.794215"><ele>1081.0</ele><time>2026-04-20T14:58:59.804Z</time></trkpt><trkpt lat="38.0595" lon="15.794345"><ele>1081.0</ele><time>2026-04-20T14:59:00.805Z</time></trkpt><trkpt lat="38.0595583" lon="15.794495"><ele>1081.0</ele><time>2026-04-20T14:59:01.804Z</time></trkpt><trkpt lat="38.0596183" lon="15.79464"><ele>1081.0</ele><time>2026-04-20T14:59:02.804Z</time></trkpt><trkpt lat="38.0596633" lon="15.7947983"><ele>1081.0</ele><time>2026-04-20T14:59:03.803Z</time></trkpt><trkpt lat="38.0597133" lon="15.79493"><ele>1081.0</ele><time>2026-04-20T14:59:04.804Z</time></trkpt><trkpt lat="38.0597617" lon="15.7950467"><ele>1081.0</ele><time>2026-04-20T14:59:05.804Z</time></trkpt><trkpt lat="38.05981" lon="15.795155"><ele>1081.0</ele><time>2026-04-20T14:59:06.805Z</time></trkpt><trkpt lat="38.05985" lon="15.7952633"><ele>1081.0</ele><time>2026-04-20T14:59:07.803Z</time></trkpt><trkpt lat="38.0598567" lon="15.7953767"><ele>1081.0</ele><time>2026-04-20T14:59:08.805Z</time></trkpt><trkpt lat="38.059835" lon="15.7954817"><ele>1083.8333333333333</ele><time>2026-04-20T14:59:09.803Z</time></trkpt><trkpt lat="38.059795" lon="15.79557"><ele>1086.6666666666665</ele><time>2026-04-20T14:59:10.802Z</time></trkpt><trkpt lat="38.0597367" lon="15.7956517"><ele>1089.5</ele><time>2026-04-20T14:59:11.803Z</time></trkpt><trkpt lat="38.0596667" lon="15.795715"><ele>1092.3333333333333</ele><time>2026-04-20T14:59:12.802Z</time></trkpt><trkpt lat="38.05959" lon="15.7957767"><ele>1095.1666666666667</ele><time>2026-04-20T14:59:13.804Z</time></trkpt><trkpt lat="38.05952" lon="15.795865"><ele>1098.0</ele><time>2026-04-20T14:59:14.804Z</time></trkpt><trkpt lat="38.0594583" lon="15.7959717"><ele>1100.75</ele><time>2026-04-20T14:59:15.803Z</time></trkpt><trkpt lat="38.0594" lon="15.7960967"><ele>1103.5</ele><time>2026-04-20T14:59:16.803Z</time></trkpt><trkpt lat="38.0593617" lon="15.7962417"><ele>1106.25</ele><time>2026-04-20T14:59:17.803Z</time></trkpt><trkpt lat="38.0593333" lon="15.7963983"><ele>1109.0</ele><time>2026-04-20T14:59:18.804Z</time></trkpt><trkpt lat="38.0593083" lon="15.7965633"><ele>1109.0</ele><time>2026-04-20T14:59:19.803Z</time></trkpt><trkpt lat="38.0592817" lon="15.7967317"><ele>1109.0</ele><time>2026-04-20T14:59:20.804Z</time></trkpt><trkpt lat="38.0592567" lon="15.7969067"><ele>1109.0</ele><time>2026-04-20T14:59:21.804Z</time></trkpt><trkpt lat="38.05923" lon="15.797085"><ele>1109.0</ele><time>2026-04-20T14:59:22.803Z</time></trkpt><trkpt lat="38.0592067" lon="15.7972683"><ele>1109.25</ele><time>2026-04-20T14:59:23.803Z</time></trkpt><trkpt lat="38.0591783" lon="15.79745"><ele>1109.5</ele><time>2026-04-20T14:59:24.805Z</time></trkpt><trkpt lat="38.0591533" lon="15.7976317"><ele>1109.75</ele><time>2026-04-20T14:59:25.804Z</time></trkpt><trkpt lat="38.059125" lon="15.79781"><ele>1110.0</ele><time>2026-04-20T14:59:26.804Z</time></trkpt><trkpt lat="38.059095" lon="15.797985"><ele>1107.5</ele><time>2026-04-20T14:59:27.804Z</time></trkpt><trkpt lat="38.0590667" lon="15.798155"><ele>1105.0</ele><time>2026-04-20T14:59:28.803Z</time></trkpt><trkpt lat="38.0590483" lon="15.7983133"><ele>1102.5</ele><time>2026-04-20T14:59:29.802Z</time></trkpt><trkpt lat="38.0590383" lon="15.7984617"><ele>1100.0</ele><time>2026-04-20T14:59:30.805Z</time></trkpt><trkpt lat="38.0590217" lon="15.7985967"><ele>1096.75</ele><time>2026-04-20T14:59:31.888Z</time></trkpt><trkpt lat="38.0590233" lon="15.798735"><ele>1093.5</ele><time>2026-04-20T14:59:32.804Z</time></trkpt><trkpt lat="38.0590367" lon="15.7988733"><ele>1090.25</ele><time>2026-04-20T14:59:33.806Z</time></trkpt><trkpt lat="38.0590667" lon="15.7990167"><ele>1087.0</ele><time>2026-04-20T14:59:34.803Z</time></trkpt><trkpt lat="38.0591067" lon="15.7991617"><ele>1091.8</ele><time>2026-04-20T14:59:35.803Z</time></trkpt><trkpt lat="38.0591283" lon="15.7993"><ele>1096.6</ele><time>2026-04-20T14:59:36.802Z</time></trkpt><trkpt lat="38.0591433" lon="15.7994267"><ele>1101.3999999999999</ele><time>2026-04-20T14:59:37.803Z</time></trkpt><trkpt lat="38.059155" lon="15.799545"><ele>1106.2</ele><time>2026-04-20T14:59:38.803Z</time></trkpt><trkpt lat="38.0591583" lon="15.7996583"><ele>1111.0</ele><time>2026-04-20T14:59:39.803Z</time></trkpt><trkpt lat="38.0591567" lon="15.7997733"><ele>1111.0</ele><time>2026-04-20T14:59:40.804Z</time></trkpt><trkpt lat="38.0591533" lon="15.7998867"><ele>1111.0</ele><time>2026-04-20T14:59:41.802Z</time></trkpt><trkpt lat="38.059145" lon="15.8000017"><ele>1111.0</ele><time>2026-04-20T14:59:42.804Z</time></trkpt><trkpt lat="38.059135" lon="15.8001083"><ele>1111.0</ele><time>2026-04-20T14:59:43.804Z</time></trkpt><trkpt lat="38.0591267" lon="15.8002033"><ele>1111.0</ele><time>2026-04-20T14:59:44.803Z</time></trkpt><trkpt lat="38.0591167" lon="15.8002917"><ele>1111.0</ele><time>2026-04-20T14:59:45.803Z</time></trkpt><trkpt lat="38.0591067" lon="15.80038"><ele>1110.4285714285716</ele><time>2026-04-20T14:59:46.803Z</time></trkpt><trkpt lat="38.0591017" lon="15.8004717"><ele>1109.857142857143</ele><time>2026-04-20T14:59:47.803Z</time></trkpt><trkpt lat="38.0591017" lon="15.8005667"><ele>1109.2857142857142</ele><time>2026-04-20T14:59:48.803Z</time></trkpt><trkpt lat="38.059095" lon="15.8006633"><ele>1108.7142857142858</ele><time>2026-04-20T14:59:49.803Z</time></trkpt><trkpt lat="38.0590867" lon="15.8007633"><ele>1108.142857142857</ele><time>2026-04-20T14:59:50.803Z</time></trkpt><trkpt lat="38.05907" lon="15.80086"><ele>1107.5714285714287</ele><time>2026-04-20T14:59:51.803Z</time></trkpt><trkpt lat="38.0590433" lon="15.80094"><ele>1107.0</ele><time>2026-04-20T14:59:52.803Z</time></trkpt><trkpt lat="38.05902" lon="15.801015"><ele>1108.6666666666667</ele><time>2026-04-20T14:59:53.802Z</time></trkpt><trkpt lat="38.0589833" lon="15.8010867"><ele>1110.3333333333333</ele><time>2026-04-20T14:59:54.803Z</time></trkpt><trkpt lat="38.05893" lon="15.8011467"><ele>1112.0</ele><time>2026-04-20T14:59:55.803Z</time></trkpt><trkpt lat="38.058865" lon="15.8012083"><ele>1113.6666666666665</ele><time>2026-04-20T14:59:56.812Z</time></trkpt><trkpt lat="38.0588117" lon="15.801295"><ele>1115.3333333333333</ele><time>2026-04-20T14:59:57.803Z</time></trkpt><trkpt lat="38.0587433" lon="15.8013817"><ele>1117.0</ele><time>2026-04-20T14:59:58.804Z</time></trkpt><trkpt lat="38.0586617" lon="15.801465"><ele>1117.0</ele><time>2026-04-20T14:59:59.805Z</time></trkpt><trkpt lat="38.0585783" lon="15.8015617"><ele>1117.0</ele><time>2026-04-20T15:00:00.803Z</time></trkpt><trkpt lat="38.0584917" lon="15.8016633"><ele>1117.0</ele><time>2026-04-20T15:00:01.804Z</time></trkpt><trkpt lat="38.0583917" lon="15.80177"><ele>1117.0</ele><time>2026-04-20T15:00:02.805Z</time></trkpt><trkpt lat="38.0582883" lon="15.8018817"><ele>1116.5</ele><time>2026-04-20T15:00:03.804Z</time></trkpt><trkpt lat="38.0581883" lon="15.8020117"><ele>1116.0</ele><time>2026-04-20T15:00:04.803Z</time></trkpt><trkpt lat="38.0580767" lon="15.802135"><ele>1115.5</ele><time>2026-04-20T15:00:05.805Z</time></trkpt><trkpt lat="38.0579567" lon="15.8022533"><ele>1115.0</ele><time>2026-04-20T15:00:06.804Z</time></trkpt><trkpt lat="38.05784" lon="15.8023783"><ele>1115.0</ele><time>2026-04-20T15:00:07.803Z</time></trkpt><trkpt lat="38.0577283" lon="15.8025067"><ele>1115.0</ele><time>2026-04-20T15:00:08.805Z</time></trkpt><trkpt lat="38.0576167" lon="15.802635"><ele>1115.0</ele><time>2026-04-20T15:00:09.803Z</time></trkpt><trkpt lat="38.05751" lon="15.8027633"><ele>1115.0</ele><time>2026-04-20T15:00:10.805Z</time></trkpt><trkpt lat="38.0574067" lon="15.80288"><ele>1114.75</ele><time>2026-04-20T15:00:11.802Z</time></trkpt><trkpt lat="38.057305" lon="15.802985"><ele>1114.5</ele><time>2026-04-20T15:00:12.803Z</time></trkpt><trkpt lat="38.05721" lon="15.803095"><ele>1114.25</ele><time>2026-04-20T15:00:13.804Z</time></trkpt><trkpt lat="38.0571367" lon="15.8032133"><ele>1114.0</ele><time>2026-04-20T15:00:14.805Z</time></trkpt><trkpt lat="38.057075" lon="15.8033233"><ele>1114.0</ele><time>2026-04-20T15:00:15.803Z</time></trkpt><trkpt lat="38.0570183" lon="15.8034467"><ele>1114.0</ele><time>2026-04-20T15:00:16.802Z</time></trkpt><trkpt lat="38.0569683" lon="15.8035767"><ele>1114.0</ele><time>2026-04-20T15:00:17.803Z</time></trkpt><trkpt lat="38.0569317" lon="15.803705"><ele>1114.0</ele><time>2026-04-20T15:00:18.804Z</time></trkpt><trkpt lat="38.056895" lon="15.8038117"><ele>1114.0</ele><time>2026-04-20T15:00:19.804Z</time></trkpt><trkpt lat="38.05687" lon="15.8039117"><ele>1114.0</ele><time>2026-04-20T15:00:20.803Z</time></trkpt><trkpt lat="38.0568467" lon="15.8040083"><ele>1114.0</ele><time>2026-04-20T15:00:21.804Z</time></trkpt><trkpt lat="38.0568283" lon="15.804105"><ele>1114.0</ele><time>2026-04-20T15:00:22.803Z</time></trkpt><trkpt lat="38.05681" lon="15.8041933"><ele>1114.0</ele><time>2026-04-20T15:00:23.803Z</time></trkpt><trkpt lat="38.0567917" lon="15.8042783"><ele>1114.0</ele><time>2026-04-20T15:00:24.805Z</time></trkpt><trkpt lat="38.05678" lon="15.8043767"><ele>1114.0</ele><time>2026-04-20T15:00:25.804Z</time></trkpt><trkpt lat="38.0567517" lon="15.8044817"><ele>1115.4</ele><time>2026-04-20T15:00:26.806Z</time></trkpt><trkpt lat="38.0567433" lon="15.8045933"><ele>1116.8000000000002</ele><time>2026-04-20T15:00:27.803Z</time></trkpt><trkpt lat="38.0567233" lon="15.804715"><ele>1118.1999999999998</ele><time>2026-04-20T15:00:28.804Z</time></trkpt><trkpt lat="38.0566983" lon="15.8048433"><ele>1119.6</ele><time>2026-04-20T15:00:29.804Z</time></trkpt><trkpt lat="38.0566733" lon="15.8049833"><ele>1121.0</ele><time>2026-04-20T15:00:30.804Z</time></trkpt><trkpt lat="38.0566517" lon="15.8051367"><ele>1119.0</ele><time>2026-04-20T15:00:31.889Z</time></trkpt><trkpt lat="38.056615" lon="15.8052867"><ele>1117.0</ele><time>2026-04-20T15:00:32.807Z</time></trkpt><trkpt lat="38.0566017" lon="15.8054367"><ele>1115.0</ele><time>2026-04-20T15:00:33.803Z</time></trkpt><trkpt lat="38.0565733" lon="15.80558"><ele>1113.0</ele><time>2026-04-20T15:00:34.803Z</time></trkpt><trkpt lat="38.056585" lon="15.805725"><ele>1113.0</ele><time>2026-04-20T15:00:35.804Z</time></trkpt><trkpt lat="38.0566133" lon="15.8058717"><ele>1113.0</ele><time>2026-04-20T15:00:36.803Z</time></trkpt><trkpt lat="38.0566433" lon="15.80602"><ele>1113.0</ele><time>2026-04-20T15:00:37.805Z</time></trkpt><trkpt lat="38.0566683" lon="15.80617"><ele>1113.0</ele><time>2026-04-20T15:00:38.803Z</time></trkpt><trkpt lat="38.0566883" lon="15.8063133"><ele>1116.5</ele><time>2026-04-20T15:00:39.804Z</time></trkpt><trkpt lat="38.0566933" lon="15.80646"><ele>1120.0</ele><time>2026-04-20T15:00:40.804Z</time></trkpt><trkpt lat="38.056675" lon="15.8066033"><ele>1123.5</ele><time>2026-04-20T15:00:41.803Z</time></trkpt><trkpt lat="38.0566467" lon="15.806745"><ele>1127.0</ele><time>2026-04-20T15:00:42.804Z</time></trkpt><trkpt lat="38.056635" lon="15.8068967"><ele>1127.5</ele><time>2026-04-20T15:00:43.803Z</time></trkpt><trkpt lat="38.0566567" lon="15.80706"><ele>1128.0</ele><time>2026-04-20T15:00:44.804Z</time></trkpt><trkpt lat="38.0566833" lon="15.8072283"><ele>1128.5</ele><time>2026-04-20T15:00:45.803Z</time></trkpt><trkpt lat="38.0566933" lon="15.8073983"><ele>1129.0</ele><time>2026-04-20T15:00:46.802Z</time></trkpt><trkpt lat="38.0566867" lon="15.80757"><ele>1129.2</ele><time>2026-04-20T15:00:47.804Z</time></trkpt><trkpt lat="38.05668" lon="15.8077333"><ele>1129.4</ele><time>2026-04-20T15:00:48.805Z</time></trkpt><trkpt lat="38.0566693" lon="15.8078837"><ele>1129.6</ele><time>2026-04-20T15:00:49.804Z</time></trkpt><trkpt lat="38.0566566" lon="15.8080145"><ele>1129.8</ele><time>2026-04-20T15:00:50.804Z</time></trkpt><trkpt lat="38.0566477" lon="15.808123"><ele>1130.0</ele><time>2026-04-20T15:00:51.802Z</time></trkpt><trkpt lat="38.0566408" lon="15.8082159"><ele>1130.0</ele><time>2026-04-20T15:00:52.803Z</time></trkpt><trkpt lat="38.0566246" lon="15.8083588"><ele>1130.0</ele><time>2026-04-20T15:00:54.803Z</time></trkpt><trkpt lat="38.0566405" lon="15.8084454"><ele>1130.0</ele><time>2026-04-20T15:00:56.804Z</time></trkpt><trkpt lat="38.0567121" lon="15.8084503"><ele>1130.0</ele><time>2026-04-20T15:00:59.803Z</time></trkpt><trkpt lat="38.0567575" lon="15.8083666"><ele>1130.0</ele><time>2026-04-20T15:01:02.803Z</time></trkpt></trkseg><trkseg><trkpt lat="38.071742" lon="15.8222981"><ele>1198.0</ele><time>2026-04-20T15:52:47.376Z</time></trkpt><trkpt lat="38.0718173" lon="15.8221928"><ele>1198.0</ele><time>2026-04-20T15:52:52.871Z</time></trkpt><trkpt lat="38.0718424" lon="15.8221125"><ele>1198.0</ele><time>2026-04-20T15:52:54.805Z</time></trkpt><trkpt lat="38.0719156" lon="15.822084"><ele>1198.0</ele><time>2026-04-20T15:53:00.898Z</time></trkpt><trkpt lat="38.0719793" lon="15.822097"><ele>1198.0</ele><time>2026-04-20T15:53:04.859Z</time></trkpt><trkpt lat="38.0720393" lon="15.8221215"><ele>1198.0</ele><time>2026-04-20T15:53:12.887Z</time></trkpt><trkpt lat="38.0718969" lon="15.8221849"><ele>1198.0</ele><time>2026-04-20T15:53:23.886Z</time></trkpt><trkpt lat="38.0718127" lon="15.8221978"><ele>1198.0</ele><time>2026-04-20T15:53:25.816Z</time></trkpt><trkpt lat="38.0717267" lon="15.8221621"><ele>1198.0</ele><time>2026-04-20T15:53:28.865Z</time></trkpt><trkpt lat="38.0716539" lon="15.8221321"><ele>1198.0</ele><time>2026-04-20T15:53:30.896Z</time></trkpt><trkpt lat="38.0715693" lon="15.8220925"><ele>1198.0</ele><time>2026-04-20T15:53:33.843Z</time></trkpt><trkpt lat="38.0715203" lon="15.8221525"><ele>1198.0</ele><time>2026-04-20T15:55:17.89Z</time></trkpt><trkpt lat="38.07146" lon="15.8221957"><ele>1198.0</ele><time>2026-04-20T15:57:07.883Z</time></trkpt><trkpt lat="38.0715235" lon="15.8222341"><ele>1198.0</ele><time>2026-04-20T15:57:09.803Z</time></trkpt><trkpt lat="38.0717464" lon="15.8222308"><ele>1198.0</ele><time>2026-04-20T15:57:15.803Z</time></trkpt><trkpt lat="38.0717483" lon="15.8220683"><ele>1198.0</ele><time>2026-04-20T15:57:17.804Z</time></trkpt><trkpt lat="38.07172" lon="15.8219967"><ele>1198.0</ele><time>2026-04-20T15:57:18.804Z</time></trkpt><trkpt lat="38.0716417" lon="15.821845"><ele>1198.0</ele><time>2026-04-20T15:57:20.804Z</time></trkpt><trkpt lat="38.071595" lon="15.8217667"><ele>1198.0</ele><time>2026-04-20T15:57:21.803Z</time></trkpt><trkpt lat="38.071535" lon="15.8216817"><ele>1198.0</ele><time>2026-04-20T15:57:22.802Z</time></trkpt><trkpt lat="38.0714683" lon="15.8215883"><ele>1198.0</ele><time>2026-04-20T15:57:23.804Z</time></trkpt><trkpt lat="38.0714" lon="15.8214883"><ele>1196.2</ele><time>2026-04-20T15:57:24.803Z</time></trkpt><trkpt lat="38.0713283" lon="15.82134"><ele>1194.4</ele><time>2026-04-20T15:57:25.803Z</time></trkpt><trkpt lat="38.0712867" lon="15.8212183"><ele>1192.6000000000001</ele><time>2026-04-20T15:57:26.803Z</time></trkpt><trkpt lat="38.0712517" lon="15.8211017"><ele>1190.8</ele><time>2026-04-20T15:57:27.804Z</time></trkpt><trkpt lat="38.071225" lon="15.82098"><ele>1189.0</ele><time>2026-04-20T15:57:28.803Z</time></trkpt><trkpt lat="38.0711917" lon="15.8208467"><ele>1188.4</ele><time>2026-04-20T15:57:29.804Z</time></trkpt><trkpt lat="38.0711667" lon="15.82072"><ele>1187.8000000000002</ele><time>2026-04-20T15:57:30.803Z</time></trkpt><trkpt lat="38.0711383" lon="15.82059"><ele>1187.1999999999998</ele><time>2026-04-20T15:57:31.804Z</time></trkpt><trkpt lat="38.0711133" lon="15.8204617"><ele>1186.6</ele><time>2026-04-20T15:57:32.803Z</time></trkpt><trkpt lat="38.0710917" lon="15.8203367"><ele>1186.0</ele><time>2026-04-20T15:57:33.804Z</time></trkpt><trkpt lat="38.0710733" lon="15.82023"><ele>1186.0</ele><time>2026-04-20T15:57:34.802Z</time></trkpt><trkpt lat="38.07106" lon="15.8201167"><ele>1186.0</ele><time>2026-04-20T15:57:35.804Z</time></trkpt><trkpt lat="38.0710517" lon="15.8199983"><ele>1186.0</ele><time>2026-04-20T15:57:36.804Z</time></trkpt><trkpt lat="38.0710433" lon="15.8198833"><ele>1186.0</ele><time>2026-04-20T15:57:37.804Z</time></trkpt><trkpt lat="38.071025" lon="15.81977"><ele>1186.0</ele><time>2026-04-20T15:57:38.804Z</time></trkpt><trkpt lat="38.0710067" lon="15.81965"><ele>1186.0</ele><time>2026-04-20T15:57:39.803Z</time></trkpt><trkpt lat="38.0709817" lon="15.81953"><ele>1186.0</ele><time>2026-04-20T15:57:40.803Z</time></trkpt><trkpt lat="38.0709517" lon="15.819415"><ele>1186.0</ele><time>2026-04-20T15:57:41.804Z</time></trkpt><trkpt lat="38.0709217" lon="15.819295"><ele>1186.0</ele><time>2026-04-20T15:57:42.804Z</time></trkpt><trkpt lat="38.0708917" lon="15.819175"><ele>1186.0</ele><time>2026-04-20T15:57:43.803Z</time></trkpt><trkpt lat="38.07086" lon="15.8190533"><ele>1185.2</ele><time>2026-04-20T15:57:44.804Z</time></trkpt><trkpt lat="38.07083" lon="15.81893"><ele>1184.3999999999999</ele><time>2026-04-20T15:57:45.802Z</time></trkpt><trkpt lat="38.0708017" lon="15.8188017"><ele>1183.6</ele><time>2026-04-20T15:57:46.804Z</time></trkpt><trkpt lat="38.0707783" lon="15.8186717"><ele>1182.8</ele><time>2026-04-20T15:57:47.803Z</time></trkpt><trkpt lat="38.0707567" lon="15.8185333"><ele>1182.0</ele><time>2026-04-20T15:57:48.803Z</time></trkpt><trkpt lat="38.07073" lon="15.8183867"><ele>1181.75</ele><time>2026-04-20T15:57:49.804Z</time></trkpt><trkpt lat="38.0706967" lon="15.8182433"><ele>1181.5</ele><time>2026-04-20T15:57:50.804Z</time></trkpt><trkpt lat="38.0706617" lon="15.8181017"><ele>1181.25</ele><time>2026-04-20T15:57:51.803Z</time></trkpt><trkpt lat="38.0706233" lon="15.81796"><ele>1181.0</ele><time>2026-04-20T15:57:52.804Z</time></trkpt><trkpt lat="38.0705883" lon="15.81782"><ele>1181.0</ele><time>2026-04-20T15:57:53.803Z</time></trkpt><trkpt lat="38.0705533" lon="15.8176783"><ele>1181.0</ele><time>2026-04-20T15:57:54.803Z</time></trkpt><trkpt lat="38.070515" lon="15.8175333"><ele>1181.0</ele><time>2026-04-20T15:57:55.803Z</time></trkpt><trkpt lat="38.0704783" lon="15.81739"><ele>1181.0</ele><time>2026-04-20T15:57:56.805Z</time></trkpt><trkpt lat="38.070445" lon="15.817245"><ele>1180.25</ele><time>2026-04-20T15:57:57.803Z</time></trkpt><trkpt lat="38.0704133" lon="15.8170967"><ele>1179.5</ele><time>2026-04-20T15:57:58.804Z</time></trkpt><trkpt lat="38.070385" lon="15.816945"><ele>1178.75</ele><time>2026-04-20T15:57:59.804Z</time></trkpt><trkpt lat="38.0703617" lon="15.8167983"><ele>1178.0</ele><time>2026-04-20T15:58:00.804Z</time></trkpt><trkpt lat="38.0703517" lon="15.8166483"><ele>1177.25</ele><time>2026-04-20T15:58:01.806Z</time></trkpt><trkpt lat="38.0703633" lon="15.8164917"><ele>1176.5</ele><time>2026-04-20T15:58:02.804Z</time></trkpt><trkpt lat="38.0703917" lon="15.8163383"><ele>1175.75</ele><time>2026-04-20T15:58:03.803Z</time></trkpt><trkpt lat="38.07043" lon="15.8161967"><ele>1175.0</ele><time>2026-04-20T15:58:04.803Z</time></trkpt><trkpt lat="38.07047" lon="15.81606"><ele>1175.0</ele><time>2026-04-20T15:58:05.803Z</time></trkpt><trkpt lat="38.07051" lon="15.81593"><ele>1175.0</ele><time>2026-04-20T15:58:06.803Z</time></trkpt><trkpt lat="38.0705467" lon="15.8158"><ele>1175.0</ele><time>2026-04-20T15:58:07.804Z</time></trkpt><trkpt lat="38.0705767" lon="15.8156717"><ele>1175.0</ele><time>2026-04-20T15:58:08.803Z</time></trkpt><trkpt lat="38.0705967" lon="15.815545"><ele>1175.0</ele><time>2026-04-20T15:58:09.803Z</time></trkpt><trkpt lat="38.0706083" lon="15.8154233"><ele>1175.0</ele><time>2026-04-20T15:58:10.804Z</time></trkpt><trkpt lat="38.070615" lon="15.8153083"><ele>1175.0</ele><time>2026-04-20T15:58:11.804Z</time></trkpt><trkpt lat="38.0706183" lon="15.8151917"><ele>1175.0</ele><time>2026-04-20T15:58:12.803Z</time></trkpt><trkpt lat="38.0706233" lon="15.815085"><ele>1175.0</ele><time>2026-04-20T15:58:13.803Z</time></trkpt><trkpt lat="38.0706267" lon="15.81498"><ele>1175.0</ele><time>2026-04-20T15:58:14.804Z</time></trkpt><trkpt lat="38.0706317" lon="15.8148733"><ele>1175.0</ele><time>2026-04-20T15:58:15.803Z</time></trkpt><trkpt lat="38.070635" lon="15.8147633"><ele>1174.6</ele><time>2026-04-20T15:58:16.803Z</time></trkpt><trkpt lat="38.07064" lon="15.81465"><ele>1174.2</ele><time>2026-04-20T15:58:17.802Z</time></trkpt><trkpt lat="38.0706417" lon="15.8145383"><ele>1173.8</ele><time>2026-04-20T15:58:18.804Z</time></trkpt><trkpt lat="38.0706467" lon="15.8144233"><ele>1173.4</ele><time>2026-04-20T15:58:19.804Z</time></trkpt><trkpt lat="38.0706483" lon="15.8143067"><ele>1173.0</ele><time>2026-04-20T15:58:20.804Z</time></trkpt><trkpt lat="38.0706517" lon="15.81419"><ele>1172.8</ele><time>2026-04-20T15:58:21.803Z</time></trkpt><trkpt lat="38.0706533" lon="15.8140767"><ele>1172.6</ele><time>2026-04-20T15:58:22.805Z</time></trkpt><trkpt lat="38.0706583" lon="15.8139633"><ele>1172.4</ele><time>2026-04-20T15:58:23.804Z</time></trkpt><trkpt lat="38.0706617" lon="15.8138483"><ele>1172.2</ele><time>2026-04-20T15:58:24.804Z</time></trkpt><trkpt lat="38.0706633" lon="15.81373"><ele>1172.0</ele><time>2026-04-20T15:58:25.804Z</time></trkpt><trkpt lat="38.07067" lon="15.8136133"><ele>1172.0</ele><time>2026-04-20T15:58:26.804Z</time></trkpt><trkpt lat="38.0706867" lon="15.8135017"><ele>1172.0</ele><time>2026-04-20T15:58:27.804Z</time></trkpt><trkpt lat="38.0707133" lon="15.8133933"><ele>1172.0</ele><time>2026-04-20T15:58:28.803Z</time></trkpt><trkpt lat="38.0707433" lon="15.8132833"><ele>1172.0</ele><time>2026-04-20T15:58:29.804Z</time></trkpt><trkpt lat="38.0707783" lon="15.8131733"><ele>1172.0</ele><time>2026-04-20T15:58:30.803Z</time></trkpt><trkpt lat="38.0708267" lon="15.8130667"><ele>1170.5</ele><time>2026-04-20T15:58:31.804Z</time></trkpt><trkpt lat="38.070835" lon="15.812935"><ele>1169.0</ele><time>2026-04-20T15:58:32.804Z</time></trkpt><trkpt lat="38.0708267" lon="15.8127883"><ele>1167.5</ele><time>2026-04-20T15:58:33.804Z</time></trkpt><trkpt lat="38.07082" lon="15.8126367"><ele>1166.0</ele><time>2026-04-20T15:58:34.803Z</time></trkpt><trkpt lat="38.0708183" lon="15.8124817"><ele>1165.5</ele><time>2026-04-20T15:58:35.805Z</time></trkpt><trkpt lat="38.07081" lon="15.8123217"><ele>1165.0</ele><time>2026-04-20T15:58:36.803Z</time></trkpt><trkpt lat="38.0708133" lon="15.812155"><ele>1164.5</ele><time>2026-04-20T15:58:37.804Z</time></trkpt><trkpt lat="38.0708083" lon="15.811985"><ele>1164.0</ele><time>2026-04-20T15:58:38.804Z</time></trkpt><trkpt lat="38.070805" lon="15.81181"><ele>1163.75</ele><time>2026-04-20T15:58:39.804Z</time></trkpt><trkpt lat="38.0708067" lon="15.8116317"><ele>1163.5</ele><time>2026-04-20T15:58:40.804Z</time></trkpt><trkpt lat="38.0708083" lon="15.81145"><ele>1163.25</ele><time>2026-04-20T15:58:41.803Z</time></trkpt><trkpt lat="38.07081" lon="15.811265"><ele>1163.0</ele><time>2026-04-20T15:58:42.804Z</time></trkpt><trkpt lat="38.0708117" lon="15.8110767"><ele>1162.25</ele><time>2026-04-20T15:58:43.804Z</time></trkpt><trkpt lat="38.0708083" lon="15.8108867"><ele>1161.5</ele><time>2026-04-20T15:58:44.803Z</time></trkpt><trkpt lat="38.070805" lon="15.8106967"><ele>1160.75</ele><time>2026-04-20T15:58:45.804Z</time></trkpt><trkpt lat="38.070805" lon="15.8105067"><ele>1160.0</ele><time>2026-04-20T15:58:46.804Z</time></trkpt><trkpt lat="38.07081" lon="15.8103217"><ele>1159.0</ele><time>2026-04-20T15:58:47.806Z</time></trkpt><trkpt lat="38.0708083" lon="15.81014"><ele>1158.0</ele><time>2026-04-20T15:58:48.803Z</time></trkpt><trkpt lat="38.0708033" lon="15.8099583"><ele>1157.0</ele><time>2026-04-20T15:58:49.805Z</time></trkpt><trkpt lat="38.0708067" lon="15.8097817"><ele>1156.0</ele><time>2026-04-20T15:58:50.804Z</time></trkpt><trkpt lat="38.0708017" lon="15.8096033"><ele>1156.0</ele><time>2026-04-20T15:58:51.803Z</time></trkpt><trkpt lat="38.0708217" lon="15.809425"><ele>1156.0</ele><time>2026-04-20T15:58:52.803Z</time></trkpt><trkpt lat="38.0708533" lon="15.8092433"><ele>1156.0</ele><time>2026-04-20T15:58:53.804Z</time></trkpt><trkpt lat="38.0708833" lon="15.8090583"><ele>1156.0</ele><time>2026-04-20T15:58:54.804Z</time></trkpt><trkpt lat="38.0709133" lon="15.80887"><ele>1155.3333333333333</ele><time>2026-04-20T15:58:55.804Z</time></trkpt><trkpt lat="38.0709433" lon="15.8086833"><ele>1154.6666666666667</ele><time>2026-04-20T15:58:56.804Z</time></trkpt><trkpt lat="38.0709783" lon="15.808495"><ele>1154.0</ele><time>2026-04-20T15:58:57.804Z</time></trkpt><trkpt lat="38.07101" lon="15.8082983"><ele>1152.0</ele><time>2026-04-20T15:58:58.803Z</time></trkpt><trkpt lat="38.0710383" lon="15.8080967"><ele>1150.0</ele><time>2026-04-20T15:58:59.806Z</time></trkpt><trkpt lat="38.07108" lon="15.8078933"><ele>1148.0</ele><time>2026-04-20T15:59:00.804Z</time></trkpt><trkpt lat="38.0711483" lon="15.8077033"><ele>1146.3333333333335</ele><time>2026-04-20T15:59:01.803Z</time></trkpt><trkpt lat="38.0712433" lon="15.8075367"><ele>1144.6666666666667</ele><time>2026-04-20T15:59:02.803Z</time></trkpt><trkpt lat="38.0713017" lon="15.8073617"><ele>1143.0</ele><time>2026-04-20T15:59:03.804Z</time></trkpt><trkpt lat="38.07134" lon="15.8071733"><ele>1143.0</ele><time>2026-04-20T15:59:04.805Z</time></trkpt><trkpt lat="38.071375" lon="15.8069817"><ele>1143.0</ele><time>2026-04-20T15:59:05.804Z</time></trkpt><trkpt lat="38.0713883" lon="15.8067883"><ele>1143.0</ele><time>2026-04-20T15:59:06.803Z</time></trkpt><trkpt lat="38.0713917" lon="15.8065917"><ele>1142.0</ele><time>2026-04-20T15:59:07.803Z</time></trkpt><trkpt lat="38.0714017" lon="15.806395"><ele>1141.0</ele><time>2026-04-20T15:59:08.805Z</time></trkpt><trkpt lat="38.07141" lon="15.8062"><ele>1140.0</ele><time>2026-04-20T15:59:09.804Z</time></trkpt><trkpt lat="38.0714217" lon="15.8060083"><ele>1140.5</ele><time>2026-04-20T15:59:10.803Z</time></trkpt><trkpt lat="38.0714333" lon="15.805815"><ele>1141.0</ele><time>2026-04-20T15:59:11.804Z</time></trkpt><trkpt lat="38.0714433" lon="15.8056283"><ele>1141.5</ele><time>2026-04-20T15:59:12.804Z</time></trkpt><trkpt lat="38.0714533" lon="15.8054483"><ele>1142.0</ele><time>2026-04-20T15:59:13.804Z</time></trkpt><trkpt lat="38.0714617" lon="15.805275"><ele>1142.25</ele><time>2026-04-20T15:59:14.804Z</time></trkpt><trkpt lat="38.0714767" lon="15.8051"><ele>1142.5</ele><time>2026-04-20T15:59:15.804Z</time></trkpt><trkpt lat="38.0714983" lon="15.8049283"><ele>1142.75</ele><time>2026-04-20T15:59:16.803Z</time></trkpt><trkpt lat="38.0715233" lon="15.8047617"><ele>1143.0</ele><time>2026-04-20T15:59:17.804Z</time></trkpt><trkpt lat="38.0715483" lon="15.8046"><ele>1143.0</ele><time>2026-04-20T15:59:18.803Z</time></trkpt><trkpt lat="38.0715767" lon="15.8044433"><ele>1143.0</ele><time>2026-04-20T15:59:19.804Z</time></trkpt><trkpt lat="38.071605" lon="15.80428"><ele>1143.0</ele><time>2026-04-20T15:59:20.804Z</time></trkpt><trkpt lat="38.0716333" lon="15.8041183"><ele>1143.0</ele><time>2026-04-20T15:59:21.803Z</time></trkpt><trkpt lat="38.0716683" lon="15.80396"><ele>1142.75</ele><time>2026-04-20T15:59:22.804Z</time></trkpt><trkpt lat="38.0717017" lon="15.8038"><ele>1142.5</ele><time>2026-04-20T15:59:23.884Z</time></trkpt><trkpt lat="38.0717317" lon="15.80364"><ele>1142.25</ele><time>2026-04-20T15:59:24.804Z</time></trkpt><trkpt lat="38.0717583" lon="15.8034833"><ele>1142.0</ele><time>2026-04-20T15:59:25.803Z</time></trkpt><trkpt lat="38.071785" lon="15.8033283"><ele>1141.75</ele><time>2026-04-20T15:59:26.804Z</time></trkpt><trkpt lat="38.0718067" lon="15.803175"><ele>1141.5</ele><time>2026-04-20T15:59:27.804Z</time></trkpt><trkpt lat="38.071815" lon="15.803015"><ele>1141.25</ele><time>2026-04-20T15:59:28.803Z</time></trkpt><trkpt lat="38.0717967" lon="15.802855"><ele>1141.0</ele><time>2026-04-20T15:59:29.804Z</time></trkpt><trkpt lat="38.0717717" lon="15.8026933"><ele>1140.5</ele><time>2026-04-20T15:59:30.804Z</time></trkpt><trkpt lat="38.0717467" lon="15.8025233"><ele>1140.0</ele><time>2026-04-20T15:59:31.804Z</time></trkpt><trkpt lat="38.0717233" lon="15.8023517"><ele>1139.5</ele><time>2026-04-20T15:59:32.803Z</time></trkpt><trkpt lat="38.0716967" lon="15.8021767"><ele>1139.0</ele><time>2026-04-20T15:59:33.805Z</time></trkpt><trkpt lat="38.071665" lon="15.8019983"><ele>1138.25</ele><time>2026-04-20T15:59:34.804Z</time></trkpt><trkpt lat="38.0716367" lon="15.8018133"><ele>1137.5</ele><time>2026-04-20T15:59:35.804Z</time></trkpt><trkpt lat="38.0716133" lon="15.8016267"><ele>1136.75</ele><time>2026-04-20T15:59:36.807Z</time></trkpt><trkpt lat="38.07158" lon="15.8014467"><ele>1136.0</ele><time>2026-04-20T15:59:37.804Z</time></trkpt><trkpt lat="38.0715383" lon="15.8012683"><ele>1135.75</ele><time>2026-04-20T15:59:38.804Z</time></trkpt><trkpt lat="38.0715067" lon="15.8010867"><ele>1135.5</ele><time>2026-04-20T15:59:39.804Z</time></trkpt><trkpt lat="38.0714717" lon="15.8009083"><ele>1135.25</ele><time>2026-04-20T15:59:40.804Z</time></trkpt><trkpt lat="38.0714333" lon="15.800735"><ele>1135.0</ele><time>2026-04-20T15:59:41.804Z</time></trkpt><trkpt lat="38.0713917" lon="15.8005667"><ele>1134.0</ele><time>2026-04-20T15:59:42.804Z</time></trkpt><trkpt lat="38.07136" lon="15.8004017"><ele>1133.0</ele><time>2026-04-20T15:59:43.804Z</time></trkpt><trkpt lat="38.0713317" lon="15.80024"><ele>1132.0</ele><time>2026-04-20T15:59:44.803Z</time></trkpt><trkpt lat="38.0712933" lon="15.8000783"><ele>1131.0</ele><time>2026-04-20T15:59:45.803Z</time></trkpt><trkpt lat="38.0712583" lon="15.7999183"><ele>1131.0</ele><time>2026-04-20T15:59:46.803Z</time></trkpt><trkpt lat="38.0712217" lon="15.7997583"><ele>1131.0</ele><time>2026-04-20T15:59:47.804Z</time></trkpt><trkpt lat="38.07118" lon="15.7996"><ele>1131.0</ele><time>2026-04-20T15:59:48.803Z</time></trkpt><trkpt lat="38.071145" lon="15.7994433"><ele>1131.0</ele><time>2026-04-20T15:59:49.804Z</time></trkpt><trkpt lat="38.0711117" lon="15.799295"><ele>1131.2</ele><time>2026-04-20T15:59:50.804Z</time></trkpt><trkpt lat="38.0710817" lon="15.7991517"><ele>1131.3999999999999</ele><time>2026-04-20T15:59:51.803Z</time></trkpt><trkpt lat="38.0710517" lon="15.7990167"><ele>1131.6</ele><time>2026-04-20T15:59:52.804Z</time></trkpt><trkpt lat="38.071025" lon="15.7988817"><ele>1131.8</ele><time>2026-04-20T15:59:53.804Z</time></trkpt><trkpt lat="38.0709917" lon="15.7987517"><ele>1132.0</ele><time>2026-04-20T15:59:54.805Z</time></trkpt><trkpt lat="38.0709633" lon="15.7986233"><ele>1131.8</ele><time>2026-04-20T15:59:55.804Z</time></trkpt><trkpt lat="38.0709367" lon="15.7984983"><ele>1131.6</ele><time>2026-04-20T15:59:56.805Z</time></trkpt><trkpt lat="38.0709117" lon="15.7983667"><ele>1131.3999999999999</ele><time>2026-04-20T15:59:57.804Z</time></trkpt><trkpt lat="38.07089" lon="15.7982317"><ele>1131.2</ele><time>2026-04-20T15:59:58.807Z</time></trkpt><trkpt lat="38.0708683" lon="15.7980883"><ele>1131.0</ele><time>2026-04-20T15:59:59.803Z</time></trkpt><trkpt lat="38.0708433" lon="15.79794"><ele>1131.0</ele><time>2026-04-20T16:00:00.806Z</time></trkpt><trkpt lat="38.070815" lon="15.7977867"><ele>1131.0</ele><time>2026-04-20T16:00:01.804Z</time></trkpt><trkpt lat="38.0707867" lon="15.7976317"><ele>1131.0</ele><time>2026-04-20T16:00:02.803Z</time></trkpt><trkpt lat="38.07076" lon="15.7974767"><ele>1131.0</ele><time>2026-04-20T16:00:03.804Z</time></trkpt><trkpt lat="38.0707317" lon="15.79733"><ele>1129.3999999999999</ele><time>2026-04-20T16:00:04.803Z</time></trkpt><trkpt lat="38.070705" lon="15.7971867"><ele>1127.8</ele><time>2026-04-20T16:00:05.803Z</time></trkpt><trkpt lat="38.0706833" lon="15.7970467"><ele>1126.1999999999998</ele><time>2026-04-20T16:00:06.803Z</time></trkpt><trkpt lat="38.0706583" lon="15.79691"><ele>1124.6</ele><time>2026-04-20T16:00:07.804Z</time></trkpt><trkpt lat="38.0706133" lon="15.7967933"><ele>1123.0</ele><time>2026-04-20T16:00:08.804Z</time></trkpt><trkpt lat="38.0705367" lon="15.7967133"><ele>1122.25</ele><time>2026-04-20T16:00:09.804Z</time></trkpt><trkpt lat="38.0704417" lon="15.7966467"><ele>1121.5</ele><time>2026-04-20T16:00:10.804Z</time></trkpt><trkpt lat="38.0703517" lon="15.7965667"><ele>1120.75</ele><time>2026-04-20T16:00:11.803Z</time></trkpt><trkpt lat="38.0702483" lon="15.7964883"><ele>1120.0</ele><time>2026-04-20T16:00:12.803Z</time></trkpt><trkpt lat="38.0701533" lon="15.7963983"><ele>1120.0</ele><time>2026-04-20T16:00:13.805Z</time></trkpt><trkpt lat="38.0700483" lon="15.7963417"><ele>1120.0</ele><time>2026-04-20T16:00:14.803Z</time></trkpt><trkpt lat="38.0699317" lon="15.7963383"><ele>1120.0</ele><time>2026-04-20T16:00:15.803Z</time></trkpt><trkpt lat="38.0698083" lon="15.7963667"><ele>1120.0</ele><time>2026-04-20T16:00:16.805Z</time></trkpt><trkpt lat="38.069685" lon="15.79639"><ele>1119.5</ele><time>2026-04-20T16:00:17.805Z</time></trkpt><trkpt lat="38.0695617" lon="15.796425"><ele>1119.0</ele><time>2026-04-20T16:00:18.804Z</time></trkpt><trkpt lat="38.0694383" lon="15.79645"><ele>1118.5</ele><time>2026-04-20T16:00:19.804Z</time></trkpt><trkpt lat="38.0693183" lon="15.7964767"><ele>1118.0</ele><time>2026-04-20T16:00:20.804Z</time></trkpt><trkpt lat="38.0692033" lon="15.7965033"><ele>1117.6</ele><time>2026-04-20T16:00:21.803Z</time></trkpt><trkpt lat="38.0690983" lon="15.7965367"><ele>1117.1999999999998</ele><time>2026-04-20T16:00:22.804Z</time></trkpt><trkpt lat="38.068995" lon="15.7965667"><ele>1116.8</ele><time>2026-04-20T16:00:23.804Z</time></trkpt><trkpt lat="38.0688983" lon="15.7965617"><ele>1116.3999999999999</ele><time>2026-04-20T16:00:24.804Z</time></trkpt><trkpt lat="38.0688167" lon="15.79651"><ele>1116.0</ele><time>2026-04-20T16:00:25.804Z</time></trkpt><trkpt lat="38.0687617" lon="15.7964083"><ele>1116.0</ele><time>2026-04-20T16:00:26.805Z</time></trkpt><trkpt lat="38.06872" lon="15.7962867"><ele>1116.0</ele><time>2026-04-20T16:00:27.804Z</time></trkpt><trkpt lat="38.0686733" lon="15.7961633"><ele>1116.0</ele><time>2026-04-20T16:00:28.803Z</time></trkpt><trkpt lat="38.0686167" lon="15.796045"><ele>1116.0</ele><time>2026-04-20T16:00:29.803Z</time></trkpt><trkpt lat="38.0685517" lon="15.7959317"><ele>1116.0</ele><time>2026-04-20T16:00:30.804Z</time></trkpt><trkpt lat="38.068495" lon="15.7958033"><ele>1115.75</ele><time>2026-04-20T16:00:31.806Z</time></trkpt><trkpt lat="38.0684383" lon="15.7956717"><ele>1115.5</ele><time>2026-04-20T16:00:32.804Z</time></trkpt><trkpt lat="38.0683817" lon="15.7955333"><ele>1115.25</ele><time>2026-04-20T16:00:33.804Z</time></trkpt><trkpt lat="38.06832" lon="15.79539"><ele>1115.0</ele><time>2026-04-20T16:00:34.803Z</time></trkpt><trkpt lat="38.0682617" lon="15.7952417"><ele>1114.25</ele><time>2026-04-20T16:00:35.805Z</time></trkpt><trkpt lat="38.0682033" lon="15.79509"><ele>1113.5</ele><time>2026-04-20T16:00:36.803Z</time></trkpt><trkpt lat="38.068145" lon="15.7949317"><ele>1112.75</ele><time>2026-04-20T16:00:37.805Z</time></trkpt><trkpt lat="38.068085" lon="15.794775"><ele>1112.0</ele><time>2026-04-20T16:00:38.804Z</time></trkpt><trkpt lat="38.0680233" lon="15.7946117"><ele>1112.0</ele><time>2026-04-20T16:00:39.804Z</time></trkpt><trkpt lat="38.0679583" lon="15.7944517"><ele>1112.0</ele><time>2026-04-20T16:00:40.804Z</time></trkpt><trkpt lat="38.0678883" lon="15.79429"><ele>1112.0</ele><time>2026-04-20T16:00:41.804Z</time></trkpt><trkpt lat="38.0678183" lon="15.794125"><ele>1112.0</ele><time>2026-04-20T16:00:42.804Z</time></trkpt><trkpt lat="38.0677467" lon="15.7939533"><ele>1110.6666666666667</ele><time>2026-04-20T16:00:43.803Z</time></trkpt><trkpt lat="38.0676717" lon="15.793775"><ele>1109.3333333333333</ele><time>2026-04-20T16:00:44.804Z</time></trkpt><trkpt lat="38.0675917" lon="15.7935983"><ele>1108.0</ele><time>2026-04-20T16:00:45.803Z</time></trkpt><trkpt lat="38.067505" lon="15.793425"><ele>1108.0</ele><time>2026-04-20T16:00:46.804Z</time></trkpt><trkpt lat="38.06741" lon="15.7932483"><ele>1108.0</ele><time>2026-04-20T16:00:47.803Z</time></trkpt><trkpt lat="38.06732" lon="15.793065"><ele>1108.0</ele><time>2026-04-20T16:00:48.804Z</time></trkpt><trkpt lat="38.0672317" lon="15.7928667"><ele>1108.3333333333333</ele><time>2026-04-20T16:00:49.808Z</time></trkpt><trkpt lat="38.0671433" lon="15.7926483"><ele>1108.6666666666667</ele><time>2026-04-20T16:00:50.804Z</time></trkpt><trkpt lat="38.0670633" lon="15.7924117"><ele>1109.0</ele><time>2026-04-20T16:00:51.803Z</time></trkpt><trkpt lat="38.06699" lon="15.7921783"><ele>1109.0</ele><time>2026-04-20T16:00:52.804Z</time></trkpt><trkpt lat="38.06692" lon="15.79196"><ele>1109.0</ele><time>2026-04-20T16:00:53.805Z</time></trkpt><trkpt lat="38.066855" lon="15.7917667"><ele>1109.0</ele><time>2026-04-20T16:00:54.804Z</time></trkpt><trkpt lat="38.0667917" lon="15.79159"><ele>1108.75</ele><time>2026-04-20T16:00:55.804Z</time></trkpt><trkpt lat="38.0667583" lon="15.7914183"><ele>1108.5</ele><time>2026-04-20T16:00:56.805Z</time></trkpt><trkpt lat="38.0667417" lon="15.791245"><ele>1108.25</ele><time>2026-04-20T16:00:57.804Z</time></trkpt><trkpt lat="38.066735" lon="15.7910667"><ele>1108.0</ele><time>2026-04-20T16:00:58.804Z</time></trkpt><trkpt lat="38.066735" lon="15.7908783"><ele>1107.3333333333333</ele><time>2026-04-20T16:00:59.804Z</time></trkpt><trkpt lat="38.0667367" lon="15.7906833"><ele>1106.6666666666667</ele><time>2026-04-20T16:01:00.805Z</time></trkpt><trkpt lat="38.066745" lon="15.790475"><ele>1106.0</ele><time>2026-04-20T16:01:01.805Z</time></trkpt><trkpt lat="38.066755" lon="15.7902683"><ele>1105.75</ele><time>2026-04-20T16:01:02.807Z</time></trkpt><trkpt lat="38.0667633" lon="15.79007"><ele>1105.5</ele><time>2026-04-20T16:01:03.805Z</time></trkpt><trkpt lat="38.0667717" lon="15.789885"><ele>1105.25</ele><time>2026-04-20T16:01:04.807Z</time></trkpt><trkpt lat="38.06677" lon="15.7897217"><ele>1105.0</ele><time>2026-04-20T16:01:05.804Z</time></trkpt><trkpt lat="38.06677" lon="15.7895817"><ele>1105.0</ele><time>2026-04-20T16:01:06.804Z</time></trkpt><trkpt lat="38.06677" lon="15.7894667"><ele>1105.0</ele><time>2026-04-20T16:01:07.804Z</time></trkpt><trkpt lat="38.0667733" lon="15.7893667"><ele>1105.0</ele><time>2026-04-20T16:01:08.804Z</time></trkpt><trkpt lat="38.0667983" lon="15.7892867"><ele>1105.0</ele><time>2026-04-20T16:01:09.807Z</time></trkpt><trkpt lat="38.0668983" lon="15.78919"><ele>1105.0</ele><time>2026-04-20T16:01:11.803Z</time></trkpt><trkpt lat="38.0669717" lon="15.78917"><ele>1105.0</ele><time>2026-04-20T16:01:12.804Z</time></trkpt><trkpt lat="38.0670533" lon="15.7891517"><ele>1104.25</ele><time>2026-04-20T16:01:13.805Z</time></trkpt><trkpt lat="38.0672267" lon="15.7890883"><ele>1103.5</ele><time>2026-04-20T16:01:15.804Z</time></trkpt><trkpt lat="38.0673167" lon="15.7890417"><ele>1102.75</ele><time>2026-04-20T16:01:16.804Z</time></trkpt><trkpt lat="38.0674083" lon="15.78901"><ele>1102.0</ele><time>2026-04-20T16:01:17.805Z</time></trkpt><trkpt lat="38.0674983" lon="15.7889683"><ele>1101.6</ele><time>2026-04-20T16:01:18.803Z</time></trkpt><trkpt lat="38.0675867" lon="15.788915"><ele>1101.2</ele><time>2026-04-20T16:01:19.804Z</time></trkpt><trkpt lat="38.067675" lon="15.7888617"><ele>1100.8</ele><time>2026-04-20T16:01:20.806Z</time></trkpt><trkpt lat="38.0677633" lon="15.7888133"><ele>1100.4</ele><time>2026-04-20T16:01:21.804Z</time></trkpt><trkpt lat="38.0678517" lon="15.78877"><ele>1100.0</ele><time>2026-04-20T16:01:22.804Z</time></trkpt><trkpt lat="38.067945" lon="15.7887433"><ele>1100.0</ele><time>2026-04-20T16:01:23.804Z</time></trkpt><trkpt lat="38.06804" lon="15.78873"><ele>1100.0</ele><time>2026-04-20T16:01:24.804Z</time></trkpt><trkpt lat="38.0681333" lon="15.788705"><ele>1100.0</ele><time>2026-04-20T16:01:25.804Z</time></trkpt><trkpt lat="38.0682217" lon="15.7886717"><ele>1100.0</ele><time>2026-04-20T16:01:26.805Z</time></trkpt><trkpt lat="38.0683133" lon="15.7886317"><ele>1100.0</ele><time>2026-04-20T16:01:27.804Z</time></trkpt><trkpt lat="38.0684017" lon="15.78859"><ele>1099.5</ele><time>2026-04-20T16:01:28.804Z</time></trkpt><trkpt lat="38.0684833" lon="15.7885483"><ele>1099.0</ele><time>2026-04-20T16:01:29.808Z</time></trkpt><trkpt lat="38.06856" lon="15.78851"><ele>1098.5</ele><time>2026-04-20T16:01:30.805Z</time></trkpt><trkpt lat="38.0686333" lon="15.7884783"><ele>1098.0</ele><time>2026-04-20T16:01:31.804Z</time></trkpt><trkpt lat="38.0687083" lon="15.7884533"><ele>1097.5</ele><time>2026-04-20T16:01:32.804Z</time></trkpt><trkpt lat="38.0687783" lon="15.78843"><ele>1097.0</ele><time>2026-04-20T16:01:33.805Z</time></trkpt><trkpt lat="38.0688517" lon="15.7884017"><ele>1096.0</ele><time>2026-04-20T16:01:34.805Z</time></trkpt><trkpt lat="38.06892" lon="15.7883683"><ele>1095.0</ele><time>2026-04-20T16:01:35.804Z</time></trkpt><trkpt lat="38.0689833" lon="15.78833"><ele>1094.0</ele><time>2026-04-20T16:01:36.804Z</time></trkpt><trkpt lat="38.06904" lon="15.7882917"><ele>1093.0</ele><time>2026-04-20T16:01:37.804Z</time></trkpt><trkpt lat="38.0691483" lon="15.7882317"><ele>1092.0</ele><time>2026-04-20T16:01:39.804Z</time></trkpt><trkpt lat="38.0692683" lon="15.788185"><ele>1091.1666666666667</ele><time>2026-04-20T16:01:41.805Z</time></trkpt><trkpt lat="38.0693317" lon="15.7881567"><ele>1090.3333333333333</ele><time>2026-04-20T16:01:42.804Z</time></trkpt><trkpt lat="38.0693933" lon="15.7881267"><ele>1089.5</ele><time>2026-04-20T16:01:43.804Z</time></trkpt><trkpt lat="38.0695183" lon="15.7881283"><ele>1088.6666666666665</ele><time>2026-04-20T16:01:45.805Z</time></trkpt><trkpt lat="38.0695817" lon="15.7881033"><ele>1087.8333333333333</ele><time>2026-04-20T16:01:46.804Z</time></trkpt><trkpt lat="38.0696417" lon="15.788055"><ele>1087.0</ele><time>2026-04-20T16:01:47.805Z</time></trkpt><trkpt lat="38.0697017" lon="15.7880117"><ele>1087.0</ele><time>2026-04-20T16:01:48.805Z</time></trkpt><trkpt lat="38.0697633" lon="15.787965"><ele>1087.0</ele><time>2026-04-20T16:01:49.804Z</time></trkpt><trkpt lat="38.06983" lon="15.7879283"><ele>1087.0</ele><time>2026-04-20T16:01:50.805Z</time></trkpt><trkpt lat="38.0699033" lon="15.78789"><ele>1087.0</ele><time>2026-04-20T16:01:51.804Z</time></trkpt><trkpt lat="38.0699833" lon="15.7878717"><ele>1087.0</ele><time>2026-04-20T16:01:52.804Z</time></trkpt><trkpt lat="38.0700633" lon="15.7878483"><ele>1087.0</ele><time>2026-04-20T16:01:53.804Z</time></trkpt><trkpt lat="38.0701467" lon="15.7878183"><ele>1087.0</ele><time>2026-04-20T16:01:54.803Z</time></trkpt><trkpt lat="38.0702333" lon="15.7877833"><ele>1087.0</ele><time>2026-04-20T16:01:55.805Z</time></trkpt><trkpt lat="38.07031" lon="15.787725"><ele>1087.0</ele><time>2026-04-20T16:01:56.805Z</time></trkpt><trkpt lat="38.0703783" lon="15.7876483"><ele>1087.0</ele><time>2026-04-20T16:01:57.804Z</time></trkpt><trkpt lat="38.0704333" lon="15.7875467"><ele>1087.0</ele><time>2026-04-20T16:01:58.806Z</time></trkpt><trkpt lat="38.070475" lon="15.7874317"><ele>1087.0</ele><time>2026-04-20T16:01:59.807Z</time></trkpt><trkpt lat="38.0705167" lon="15.787315"><ele>1087.0</ele><time>2026-04-20T16:02:00.807Z</time></trkpt><trkpt lat="38.0705567" lon="15.7871967"><ele>1087.0</ele><time>2026-04-20T16:02:01.805Z</time></trkpt><trkpt lat="38.0706" lon="15.78707"><ele>1087.0</ele><time>2026-04-20T16:02:02.805Z</time></trkpt><trkpt lat="38.0706467" lon="15.7869517"><ele>1087.0</ele><time>2026-04-20T16:02:03.803Z</time></trkpt><trkpt lat="38.0706667" lon="15.786835"><ele>1086.8333333333333</ele><time>2026-04-20T16:02:04.81Z</time></trkpt><trkpt lat="38.0707" lon="15.7867417"><ele>1086.6666666666665</ele><time>2026-04-20T16:02:05.804Z</time></trkpt><trkpt lat="38.0707567" lon="15.78667"><ele>1086.5</ele><time>2026-04-20T16:02:06.805Z</time></trkpt><trkpt lat="38.070815" lon="15.7866033"><ele>1086.3333333333333</ele><time>2026-04-20T16:02:07.804Z</time></trkpt><trkpt lat="38.0708933" lon="15.7865583"><ele>1086.1666666666667</ele><time>2026-04-20T16:02:08.804Z</time></trkpt><trkpt lat="38.0709917" lon="15.7865317"><ele>1086.0</ele><time>2026-04-20T16:02:09.804Z</time></trkpt><trkpt lat="38.0710967" lon="15.7865"><ele>1086.0</ele><time>2026-04-20T16:02:10.809Z</time></trkpt><trkpt lat="38.0712183" lon="15.786465"><ele>1086.0</ele><time>2026-04-20T16:02:11.804Z</time></trkpt><trkpt lat="38.07135" lon="15.7864333"><ele>1086.0</ele><time>2026-04-20T16:02:12.806Z</time></trkpt><trkpt lat="38.071485" lon="15.7864"><ele>1086.0</ele><time>2026-04-20T16:02:13.804Z</time></trkpt><trkpt lat="38.0716217" lon="15.7863567"><ele>1086.75</ele><time>2026-04-20T16:02:14.804Z</time></trkpt><trkpt lat="38.0717617" lon="15.7863083"><ele>1087.5</ele><time>2026-04-20T16:02:15.804Z</time></trkpt><trkpt lat="38.071905" lon="15.7862633"><ele>1088.25</ele><time>2026-04-20T16:02:16.804Z</time></trkpt><trkpt lat="38.0720483" lon="15.78622"><ele>1089.0</ele><time>2026-04-20T16:02:17.804Z</time></trkpt><trkpt lat="38.07219" lon="15.7861767"><ele>1089.0</ele><time>2026-04-20T16:02:18.804Z</time></trkpt><trkpt lat="38.0723317" lon="15.7861367"><ele>1089.0</ele><time>2026-04-20T16:02:19.804Z</time></trkpt><trkpt lat="38.0724717" lon="15.786095"><ele>1089.0</ele><time>2026-04-20T16:02:20.805Z</time></trkpt><trkpt lat="38.07261" lon="15.78605"><ele>1089.0</ele><time>2026-04-20T16:02:21.804Z</time></trkpt><trkpt lat="38.07275" lon="15.7860117"><ele>1088.5</ele><time>2026-04-20T16:02:22.889Z</time></trkpt><trkpt lat="38.0728883" lon="15.7859667"><ele>1088.0</ele><time>2026-04-20T16:02:23.806Z</time></trkpt><trkpt lat="38.073025" lon="15.78592"><ele>1087.5</ele><time>2026-04-20T16:02:24.805Z</time></trkpt><trkpt lat="38.0731583" lon="15.785875"><ele>1087.0</ele><time>2026-04-20T16:02:25.805Z</time></trkpt><trkpt lat="38.0732867" lon="15.7858333"><ele>1087.0</ele><time>2026-04-20T16:02:26.805Z</time></trkpt><trkpt lat="38.07341" lon="15.7857933"><ele>1087.0</ele><time>2026-04-20T16:02:27.803Z</time></trkpt><trkpt lat="38.07353" lon="15.78575"><ele>1087.0</ele><time>2026-04-20T16:02:28.809Z</time></trkpt><trkpt lat="38.07365" lon="15.7857117"><ele>1087.0</ele><time>2026-04-20T16:02:29.804Z</time></trkpt><trkpt lat="38.0737733" lon="15.7856717"><ele>1087.0</ele><time>2026-04-20T16:02:30.805Z</time></trkpt><trkpt lat="38.0738967" lon="15.785625"><ele>1087.0</ele><time>2026-04-20T16:02:31.803Z</time></trkpt><trkpt lat="38.074015" lon="15.7855767"><ele>1087.0</ele><time>2026-04-20T16:02:32.803Z</time></trkpt><trkpt lat="38.07413" lon="15.7855233"><ele>1087.0</ele><time>2026-04-20T16:02:33.804Z</time></trkpt><trkpt lat="38.0742433" lon="15.785465"><ele>1085.75</ele><time>2026-04-20T16:02:34.804Z</time></trkpt><trkpt lat="38.0743433" lon="15.7853817"><ele>1084.5</ele><time>2026-04-20T16:02:35.804Z</time></trkpt><trkpt lat="38.074445" lon="15.7852917"><ele>1083.25</ele><time>2026-04-20T16:02:36.804Z</time></trkpt><trkpt lat="38.0745417" lon="15.7851917"><ele>1082.0</ele><time>2026-04-20T16:02:37.804Z</time></trkpt><trkpt lat="38.0746283" lon="15.7850783"><ele>1082.0</ele><time>2026-04-20T16:02:38.805Z</time></trkpt><trkpt lat="38.0747283" lon="15.7849867"><ele>1082.0</ele><time>2026-04-20T16:02:39.804Z</time></trkpt><trkpt lat="38.0748467" lon="15.78493"><ele>1082.0</ele><time>2026-04-20T16:02:40.803Z</time></trkpt><trkpt lat="38.0749817" lon="15.7849067"><ele>1082.0</ele><time>2026-04-20T16:02:41.803Z</time></trkpt><trkpt lat="38.0751133" lon="15.7849183"><ele>1080.0</ele><time>2026-04-20T16:02:42.804Z</time></trkpt><trkpt lat="38.0752433" lon="15.78494"><ele>1078.0</ele><time>2026-04-20T16:02:43.805Z</time></trkpt><trkpt lat="38.0753717" lon="15.7849467"><ele>1076.0</ele><time>2026-04-20T16:02:44.803Z</time></trkpt><trkpt lat="38.0755" lon="15.7849217"><ele>1074.0</ele><time>2026-04-20T16:02:45.804Z</time></trkpt><trkpt lat="38.0756217" lon="15.7848867"><ele>1074.0</ele><time>2026-04-20T16:02:46.804Z</time></trkpt><trkpt lat="38.0757417" lon="15.7848433"><ele>1074.0</ele><time>2026-04-20T16:02:47.805Z</time></trkpt><trkpt lat="38.07585" lon="15.7847783"><ele>1074.0</ele><time>2026-04-20T16:02:48.803Z</time></trkpt><trkpt lat="38.0759517" lon="15.7847283"><ele>1074.0</ele><time>2026-04-20T16:02:49.804Z</time></trkpt><trkpt lat="38.0760533" lon="15.784695"><ele>1073.2</ele><time>2026-04-20T16:02:50.804Z</time></trkpt><trkpt lat="38.076155" lon="15.7846833"><ele>1072.4</ele><time>2026-04-20T16:02:51.804Z</time></trkpt><trkpt lat="38.0762517" lon="15.7846983"><ele>1071.6</ele><time>2026-04-20T16:02:52.803Z</time></trkpt><trkpt lat="38.07634" lon="15.78477"><ele>1070.8</ele><time>2026-04-20T16:02:53.803Z</time></trkpt><trkpt lat="38.07641" lon="15.7848967"><ele>1070.0</ele><time>2026-04-20T16:02:54.804Z</time></trkpt><trkpt lat="38.07649" lon="15.785005"><ele>1065.75</ele><time>2026-04-20T16:02:55.805Z</time></trkpt><trkpt lat="38.076605" lon="15.78505"><ele>1061.5</ele><time>2026-04-20T16:02:56.804Z</time></trkpt><trkpt lat="38.0767333" lon="15.7850533"><ele>1057.25</ele><time>2026-04-20T16:02:57.804Z</time></trkpt><trkpt lat="38.0768583" lon="15.7850317"><ele>1053.0</ele><time>2026-04-20T16:02:58.804Z</time></trkpt><trkpt lat="38.0769717" lon="15.7850117"><ele>1053.0</ele><time>2026-04-20T16:02:59.803Z</time></trkpt><trkpt lat="38.0770767" lon="15.784965"><ele>1053.0</ele><time>2026-04-20T16:03:00.803Z</time></trkpt><trkpt lat="38.0771717" lon="15.784945"><ele>1053.0</ele><time>2026-04-20T16:03:01.803Z</time></trkpt><trkpt lat="38.07725" lon="15.7849767"><ele>1053.0</ele><time>2026-04-20T16:03:02.804Z</time></trkpt><trkpt lat="38.0773017" lon="15.7850583"><ele>1053.0</ele><time>2026-04-20T16:03:03.804Z</time></trkpt><trkpt lat="38.077325" lon="15.7851583"><ele>1052.0</ele><time>2026-04-20T16:03:04.804Z</time></trkpt><trkpt lat="38.0773033" lon="15.78528"><ele>1051.0</ele><time>2026-04-20T16:03:05.804Z</time></trkpt><trkpt lat="38.0772833" lon="15.7853883"><ele>1050.0</ele><time>2026-04-20T16:03:06.805Z</time></trkpt><trkpt lat="38.07729" lon="15.7854717"><ele>1049.0</ele><time>2026-04-20T16:03:07.804Z</time></trkpt><trkpt lat="38.0773883" lon="15.7855183"><ele>1048.0</ele><time>2026-04-20T16:03:09.805Z</time></trkpt><trkpt lat="38.0774467" lon="15.7854583"><ele>1047.0</ele><time>2026-04-20T16:03:10.805Z</time></trkpt><trkpt lat="38.0774983" lon="15.785355"><ele>1042.75</ele><time>2026-04-20T16:03:11.807Z</time></trkpt><trkpt lat="38.0775333" lon="15.7852167"><ele>1038.5</ele><time>2026-04-20T16:03:12.805Z</time></trkpt><trkpt lat="38.0775583" lon="15.78507"><ele>1034.25</ele><time>2026-04-20T16:03:13.806Z</time></trkpt><trkpt lat="38.0775633" lon="15.7849267"><ele>1030.0</ele><time>2026-04-20T16:03:14.805Z</time></trkpt><trkpt lat="38.07755" lon="15.7847783"><ele>1030.0</ele><time>2026-04-20T16:03:15.805Z</time></trkpt><trkpt lat="38.0775083" lon="15.7846383"><ele>1030.0</ele><time>2026-04-20T16:03:16.804Z</time></trkpt><trkpt lat="38.0774417" lon="15.7845167"><ele>1030.0</ele><time>2026-04-20T16:03:17.804Z</time></trkpt><trkpt lat="38.0773533" lon="15.7844217"><ele>1030.0</ele><time>2026-04-20T16:03:18.809Z</time></trkpt><trkpt lat="38.0772567" lon="15.7843633"><ele>1030.1666666666665</ele><time>2026-04-20T16:03:19.804Z</time></trkpt><trkpt lat="38.0771517" lon="15.7843517"><ele>1030.3333333333333</ele><time>2026-04-20T16:03:20.804Z</time></trkpt><trkpt lat="38.0770567" lon="15.7843317"><ele>1030.5</ele><time>2026-04-20T16:03:21.805Z</time></trkpt><trkpt lat="38.0769817" lon="15.7842783"><ele>1030.6666666666667</ele><time>2026-04-20T16:03:22.805Z</time></trkpt><trkpt lat="38.076925" lon="15.7841933"><ele>1030.8333333333335</ele><time>2026-04-20T16:03:23.805Z</time></trkpt><trkpt lat="38.0768783" lon="15.784125"><ele>1031.0</ele><time>2026-04-20T16:03:24.804Z</time></trkpt><trkpt lat="38.0768767" lon="15.7840383"><ele>1031.0</ele><time>2026-04-20T16:03:25.806Z</time></trkpt><trkpt lat="38.076995" lon="15.7839883"><ele>1031.0</ele><time>2026-04-20T16:03:27.804Z</time></trkpt><trkpt lat="38.0770617" lon="15.7840217"><ele>1031.0</ele><time>2026-04-20T16:03:28.805Z</time></trkpt><trkpt lat="38.0771967" lon="15.7840517"><ele>1031.0</ele><time>2026-04-20T16:03:30.804Z</time></trkpt><trkpt lat="38.0772983" lon="15.7840517"><ele>1031.0</ele><time>2026-04-20T16:03:31.804Z</time></trkpt><trkpt lat="38.07741" lon="15.7840667"><ele>1024.5</ele><time>2026-04-20T16:03:32.805Z</time></trkpt><trkpt lat="38.077525" lon="15.7841017"><ele>1018.0</ele><time>2026-04-20T16:03:33.804Z</time></trkpt><trkpt lat="38.077635" lon="15.7841467"><ele>1011.5</ele><time>2026-04-20T16:03:34.805Z</time></trkpt><trkpt lat="38.077735" lon="15.7842083"><ele>1005.0</ele><time>2026-04-20T16:03:35.805Z</time></trkpt><trkpt lat="38.0778217" lon="15.78429"><ele>1010.0</ele><time>2026-04-20T16:03:36.805Z</time></trkpt><trkpt lat="38.0778917" lon="15.7843967"><ele>1015.0</ele><time>2026-04-20T16:03:37.805Z</time></trkpt><trkpt lat="38.0779417" lon="15.7845233"><ele>1020.0</ele><time>2026-04-20T16:03:38.806Z</time></trkpt><trkpt lat="38.077985" lon="15.7846467"><ele>1025.0</ele><time>2026-04-20T16:03:39.804Z</time></trkpt><trkpt lat="38.0779983" lon="15.7847633"><ele>1030.0</ele><time>2026-04-20T16:03:40.804Z</time></trkpt><trkpt lat="38.0780167" lon="15.784855"><ele>1030.0</ele><time>2026-04-20T16:03:41.805Z</time></trkpt><trkpt lat="38.0781017" lon="15.784925"><ele>1030.0</ele><time>2026-04-20T16:03:43.806Z</time></trkpt><trkpt lat="38.07816" lon="15.7848333"><ele>1030.0</ele><time>2026-04-20T16:03:45.805Z</time></trkpt><trkpt lat="38.0781683" lon="15.7847517"><ele>1030.0</ele><time>2026-04-20T16:03:46.805Z</time></trkpt><trkpt lat="38.078165" lon="15.7846417"><ele>1030.0</ele><time>2026-04-20T16:03:47.804Z</time></trkpt><trkpt lat="38.0781467" lon="15.7845083"><ele>1030.0</ele><time>2026-04-20T16:03:48.805Z</time></trkpt><trkpt lat="38.0781333" lon="15.784375"><ele>1030.0</ele><time>2026-04-20T16:03:49.804Z</time></trkpt><trkpt lat="38.0781083" lon="15.78426"><ele>1030.0</ele><time>2026-04-20T16:03:50.805Z</time></trkpt><trkpt lat="38.0781117" lon="15.7841683"><ele>1030.0</ele><time>2026-04-20T16:03:51.804Z</time></trkpt><trkpt lat="38.0781833" lon="15.784085"><ele>1030.0</ele><time>2026-04-20T16:03:53.803Z</time></trkpt><trkpt lat="38.0782633" lon="15.784235"><ele>1020.2</ele><time>2026-04-20T16:03:55.805Z</time></trkpt><trkpt lat="38.0782717" lon="15.7843783"><ele>1010.4</ele><time>2026-04-20T16:03:56.805Z</time></trkpt><trkpt lat="38.07827" lon="15.7845067"><ele>1000.5999999999999</ele><time>2026-04-20T16:03:57.805Z</time></trkpt><trkpt lat="38.0782817" lon="15.7845967"><ele>990.8</ele><time>2026-04-20T16:03:58.804Z</time></trkpt><trkpt lat="38.0783683" lon="15.78462"><ele>981.0</ele><time>2026-04-20T16:04:00.804Z</time></trkpt><trkpt lat="38.0784383" lon="15.78451"><ele>981.0</ele><time>2026-04-20T16:04:02.805Z</time></trkpt><trkpt lat="38.078465" lon="15.7844083"><ele>981.0</ele><time>2026-04-20T16:04:03.804Z</time></trkpt><trkpt lat="38.0784817" lon="15.7842567"><ele>981.0</ele><time>2026-04-20T16:04:04.804Z</time></trkpt><trkpt lat="38.0784683" lon="15.7840667"><ele>981.0</ele><time>2026-04-20T16:04:05.804Z</time></trkpt><trkpt lat="38.0784483" lon="15.7838833"><ele>978.25</ele><time>2026-04-20T16:04:06.804Z</time></trkpt><trkpt lat="38.0784117" lon="15.78373"><ele>975.5</ele><time>2026-04-20T16:04:07.804Z</time></trkpt><trkpt lat="38.078355" lon="15.7836017"><ele>972.75</ele><time>2026-04-20T16:04:08.804Z</time></trkpt><trkpt lat="38.07825" lon="15.783515"><ele>970.0</ele><time>2026-04-20T16:04:09.803Z</time></trkpt><trkpt lat="38.078115" lon="15.7834483"><ele>969.25</ele><time>2026-04-20T16:04:10.804Z</time></trkpt><trkpt lat="38.0779717" lon="15.7833767"><ele>968.5</ele><time>2026-04-20T16:04:11.804Z</time></trkpt><trkpt lat="38.07783" lon="15.7833217"><ele>967.75</ele><time>2026-04-20T16:04:12.805Z</time></trkpt><trkpt lat="38.0776967" lon="15.7832767"><ele>967.0</ele><time>2026-04-20T16:04:13.804Z</time></trkpt><trkpt lat="38.077585" lon="15.7831983"><ele>967.0</ele><time>2026-04-20T16:04:14.805Z</time></trkpt><trkpt lat="38.0774983" lon="15.7830783"><ele>967.0</ele><time>2026-04-20T16:04:15.804Z</time></trkpt><trkpt lat="38.0774" lon="15.783085"><ele>967.0</ele><time>2026-04-20T16:04:16.804Z</time></trkpt><trkpt lat="38.0772933" lon="15.783075"><ele>967.0</ele><time>2026-04-20T16:04:17.804Z</time></trkpt><trkpt lat="38.077195" lon="15.783005"><ele>967.0</ele><time>2026-04-20T16:04:18.805Z</time></trkpt><trkpt lat="38.077065" lon="15.78296"><ele>968.2</ele><time>2026-04-20T16:04:19.805Z</time></trkpt><trkpt lat="38.0769383" lon="15.7829383"><ele>969.4000000000001</ele><time>2026-04-20T16:04:20.805Z</time></trkpt><trkpt lat="38.0768433" lon="15.7828767"><ele>970.5999999999999</ele><time>2026-04-20T16:04:21.803Z</time></trkpt><trkpt lat="38.0767867" lon="15.782775"><ele>971.8</ele><time>2026-04-20T16:04:22.804Z</time></trkpt><trkpt lat="38.0767783" lon="15.7826417"><ele>973.0</ele><time>2026-04-20T16:04:23.804Z</time></trkpt><trkpt lat="38.0768067" lon="15.7824833"><ele>973.0</ele><time>2026-04-20T16:04:24.804Z</time></trkpt><trkpt lat="38.0768033" lon="15.782315"><ele>973.0</ele><time>2026-04-20T16:04:25.804Z</time></trkpt><trkpt lat="38.0768583" lon="15.7821483"><ele>973.0</ele><time>2026-04-20T16:04:26.803Z</time></trkpt><trkpt lat="38.076905" lon="15.782005"><ele>973.0</ele><time>2026-04-20T16:04:27.805Z</time></trkpt><trkpt lat="38.0769433" lon="15.7818867"><ele>971.5999999999999</ele><time>2026-04-20T16:04:28.804Z</time></trkpt><trkpt lat="38.0769783" lon="15.7817733"><ele>970.1999999999999</ele><time>2026-04-20T16:04:29.804Z</time></trkpt><trkpt lat="38.0770467" lon="15.7816483"><ele>968.8</ele><time>2026-04-20T16:04:30.806Z</time></trkpt><trkpt lat="38.077115" lon="15.7815317"><ele>967.4</ele><time>2026-04-20T16:04:31.805Z</time></trkpt><trkpt lat="38.077165" lon="15.7814217"><ele>966.0</ele><time>2026-04-20T16:04:32.805Z</time></trkpt><trkpt lat="38.077195" lon="15.7813083"><ele>966.0</ele><time>2026-04-20T16:04:33.804Z</time></trkpt><trkpt lat="38.0772" lon="15.7811767"><ele>966.0</ele><time>2026-04-20T16:04:34.803Z</time></trkpt><trkpt lat="38.0771817" lon="15.7810217"><ele>966.0</ele><time>2026-04-20T16:04:35.804Z</time></trkpt><trkpt lat="38.0771617" lon="15.78085"><ele>966.0</ele><time>2026-04-20T16:04:36.804Z</time></trkpt><trkpt lat="38.0771467" lon="15.7806717"><ele>964.25</ele><time>2026-04-20T16:04:37.804Z</time></trkpt><trkpt lat="38.0771383" lon="15.7804917"><ele>962.5</ele><time>2026-04-20T16:04:38.804Z</time></trkpt><trkpt lat="38.0771117" lon="15.78031"><ele>960.75</ele><time>2026-04-20T16:04:39.803Z</time></trkpt><trkpt lat="38.0770567" lon="15.7801333"><ele>959.0</ele><time>2026-04-20T16:04:40.804Z</time></trkpt><trkpt lat="38.0769883" lon="15.7799667"><ele>953.6666666666667</ele><time>2026-04-20T16:04:41.804Z</time></trkpt><trkpt lat="38.07692" lon="15.7797883"><ele>948.3333333333333</ele><time>2026-04-20T16:04:42.804Z</time></trkpt><trkpt lat="38.0768617" lon="15.7795933"><ele>943.0</ele><time>2026-04-20T16:04:43.803Z</time></trkpt><trkpt lat="38.0768233" lon="15.7793867"><ele>938.0</ele><time>2026-04-20T16:04:44.803Z</time></trkpt><trkpt lat="38.07679" lon="15.77917"><ele>933.0</ele><time>2026-04-20T16:04:45.804Z</time></trkpt><trkpt lat="38.0767633" lon="15.77895"><ele>928.0</ele><time>2026-04-20T16:04:46.803Z</time></trkpt><trkpt lat="38.0767567" lon="15.7787417"><ele>928.0</ele><time>2026-04-20T16:04:47.804Z</time></trkpt><trkpt lat="38.07677" lon="15.77854"><ele>928.0</ele><time>2026-04-20T16:04:48.803Z</time></trkpt><trkpt lat="38.0767867" lon="15.7783617"><ele>928.0</ele><time>2026-04-20T16:04:49.805Z</time></trkpt><trkpt lat="38.0767633" lon="15.77819"><ele>928.0</ele><time>2026-04-20T16:04:50.805Z</time></trkpt><trkpt lat="38.07679" lon="15.7780283"><ele>924.5</ele><time>2026-04-20T16:04:51.804Z</time></trkpt><trkpt lat="38.07683" lon="15.7778617"><ele>921.0</ele><time>2026-04-20T16:04:52.804Z</time></trkpt><trkpt lat="38.076875" lon="15.7776833"><ele>917.5</ele><time>2026-04-20T16:04:53.804Z</time></trkpt><trkpt lat="38.0769333" lon="15.7774917"><ele>914.0</ele><time>2026-04-20T16:04:54.888Z</time></trkpt><trkpt lat="38.0769933" lon="15.7773067"><ele>910.25</ele><time>2026-04-20T16:04:55.805Z</time></trkpt><trkpt lat="38.0770533" lon="15.7771383"><ele>906.5</ele><time>2026-04-20T16:04:56.805Z</time></trkpt><trkpt lat="38.0771217" lon="15.776995"><ele>902.75</ele><time>2026-04-20T16:04:57.804Z</time></trkpt><trkpt lat="38.07719" lon="15.776865"><ele>899.0</ele><time>2026-04-20T16:04:58.804Z</time></trkpt><trkpt lat="38.07725" lon="15.7767367"><ele>898.8000000000001</ele><time>2026-04-20T16:04:59.805Z</time></trkpt><trkpt lat="38.0772867" lon="15.776605"><ele>898.6000000000001</ele><time>2026-04-20T16:05:00.805Z</time></trkpt><trkpt lat="38.077315" lon="15.7764717"><ele>898.4</ele><time>2026-04-20T16:05:01.804Z</time></trkpt><trkpt lat="38.07735" lon="15.77635"><ele>898.2</ele><time>2026-04-20T16:05:02.805Z</time></trkpt><trkpt lat="38.0774167" lon="15.7762417"><ele>898.0</ele><time>2026-04-20T16:05:03.804Z</time></trkpt><trkpt lat="38.0775083" lon="15.7761333"><ele>899.25</ele><time>2026-04-20T16:05:04.805Z</time></trkpt><trkpt lat="38.0776033" lon="15.7760083"><ele>900.5</ele><time>2026-04-20T16:05:05.805Z</time></trkpt><trkpt lat="38.077695" lon="15.77588"><ele>901.75</ele><time>2026-04-20T16:05:06.804Z</time></trkpt><trkpt lat="38.07778" lon="15.7757517"><ele>903.0</ele><time>2026-04-20T16:05:07.805Z</time></trkpt><trkpt lat="38.07785" lon="15.7756167"><ele>903.0</ele><time>2026-04-20T16:05:08.806Z</time></trkpt><trkpt lat="38.07791" lon="15.7755033"><ele>903.0</ele><time>2026-04-20T16:05:09.804Z</time></trkpt><trkpt lat="38.077965" lon="15.7754183"><ele>903.0</ele><time>2026-04-20T16:05:10.806Z</time></trkpt><trkpt lat="38.0780067" lon="15.77535"><ele>903.0</ele><time>2026-04-20T16:05:11.805Z</time></trkpt><trkpt lat="38.0780367" lon="15.77526"><ele>903.0</ele><time>2026-04-20T16:05:13.805Z</time></trkpt><trkpt lat="38.0780283" lon="15.7751583"><ele>903.0</ele><time>2026-04-20T16:05:24.806Z</time></trkpt><trkpt lat="38.07801" lon="15.7749767"><ele>900.5</ele><time>2026-04-20T16:05:26.804Z</time></trkpt><trkpt lat="38.078" lon="15.7748717"><ele>898.0</ele><time>2026-04-20T16:05:27.804Z</time></trkpt><trkpt lat="38.0779617" lon="15.7747767"><ele>895.5</ele><time>2026-04-20T16:05:28.804Z</time></trkpt><trkpt lat="38.0779033" lon="15.7747233"><ele>893.0</ele><time>2026-04-20T16:05:29.807Z</time></trkpt><trkpt lat="38.0778233" lon="15.7746967"><ele>890.5</ele><time>2026-04-20T16:05:30.805Z</time></trkpt><trkpt lat="38.0777317" lon="15.7747033"><ele>888.0</ele><time>2026-04-20T16:05:31.805Z</time></trkpt><trkpt lat="38.077645" lon="15.77471"><ele>888.0</ele><time>2026-04-20T16:05:32.806Z</time></trkpt><trkpt lat="38.07758" lon="15.7746967"><ele>888.0</ele><time>2026-04-20T16:05:33.806Z</time></trkpt><trkpt lat="38.0775467" lon="15.7745833"><ele>888.0</ele><time>2026-04-20T16:05:35.806Z</time></trkpt><trkpt lat="38.07761" lon="15.7745417"><ele>888.0</ele><time>2026-04-20T16:05:36.806Z</time></trkpt><trkpt lat="38.0776883" lon="15.7745383"><ele>888.0</ele><time>2026-04-20T16:05:37.806Z</time></trkpt><trkpt lat="38.0777667" lon="15.7745317"><ele>888.0</ele><time>2026-04-20T16:05:38.806Z</time></trkpt><trkpt lat="38.077855" lon="15.7745317"><ele>888.0</ele><time>2026-04-20T16:05:39.804Z</time></trkpt><trkpt lat="38.0779633" lon="15.7745767"><ele>888.0</ele><time>2026-04-20T16:05:40.804Z</time></trkpt><trkpt lat="38.0780717" lon="15.7746183"><ele>888.0</ele><time>2026-04-20T16:05:41.804Z</time></trkpt><trkpt lat="38.0781767" lon="15.77463"><ele>888.0</ele><time>2026-04-20T16:05:42.806Z</time></trkpt><trkpt lat="38.0782683" lon="15.7746467"><ele>888.0</ele><time>2026-04-20T16:05:43.803Z</time></trkpt><trkpt lat="38.0783317" lon="15.7747167"><ele>883.0</ele><time>2026-04-20T16:05:44.806Z</time></trkpt><trkpt lat="38.078375" lon="15.77483"><ele>878.0</ele><time>2026-04-20T16:05:45.805Z</time></trkpt><trkpt lat="38.0783917" lon="15.7749783"><ele>873.0</ele><time>2026-04-20T16:05:46.804Z</time></trkpt><trkpt lat="38.0784233" lon="15.7751283"><ele>868.0</ele><time>2026-04-20T16:05:47.805Z</time></trkpt><trkpt lat="38.0784417" lon="15.775285"><ele>867.0</ele><time>2026-04-20T16:05:48.805Z</time></trkpt><trkpt lat="38.0784267" lon="15.7754417"><ele>866.0</ele><time>2026-04-20T16:05:49.805Z</time></trkpt><trkpt lat="38.0783717" lon="15.775585"><ele>865.0</ele><time>2026-04-20T16:05:50.804Z</time></trkpt><trkpt lat="38.0783017" lon="15.775755"><ele>864.0</ele><time>2026-04-20T16:05:51.807Z</time></trkpt><trkpt lat="38.0782367" lon="15.7759417"><ele>875.3333333333333</ele><time>2026-04-20T16:05:52.803Z</time></trkpt><trkpt lat="38.07818" lon="15.7761367"><ele>886.6666666666666</ele><time>2026-04-20T16:05:53.803Z</time></trkpt><trkpt lat="38.0781317" lon="15.7763233"><ele>898.0</ele><time>2026-04-20T16:05:54.803Z</time></trkpt><trkpt lat="38.0781033" lon="15.7765067"><ele>898.0</ele><time>2026-04-20T16:05:55.802Z</time></trkpt><trkpt lat="38.07809" lon="15.7766933"><ele>898.0</ele><time>2026-04-20T16:05:56.804Z</time></trkpt><trkpt lat="38.0780867" lon="15.776875"><ele>898.0</ele><time>2026-04-20T16:05:57.804Z</time></trkpt><trkpt lat="38.0780783" lon="15.77705"><ele>898.0</ele><time>2026-04-20T16:05:58.803Z</time></trkpt><trkpt lat="38.0780683" lon="15.777215"><ele>894.75</ele><time>2026-04-20T16:05:59.805Z</time></trkpt><trkpt lat="38.07808" lon="15.77738"><ele>891.5</ele><time>2026-04-20T16:06:00.803Z</time></trkpt><trkpt lat="38.0781183" lon="15.7775467"><ele>888.25</ele><time>2026-04-20T16:06:01.804Z</time></trkpt><trkpt lat="38.07818" lon="15.7777117"><ele>885.0</ele><time>2026-04-20T16:06:02.803Z</time></trkpt><trkpt lat="38.07825" lon="15.7778717"><ele>876.75</ele><time>2026-04-20T16:06:03.802Z</time></trkpt><trkpt lat="38.0783083" lon="15.7780267"><ele>868.5</ele><time>2026-04-20T16:06:04.802Z</time></trkpt><trkpt lat="38.0783733" lon="15.778165"><ele>860.25</ele><time>2026-04-20T16:06:05.804Z</time></trkpt><trkpt lat="38.0784133" lon="15.7782933"><ele>852.0</ele><time>2026-04-20T16:06:06.803Z</time></trkpt><trkpt lat="38.0784167" lon="15.778425"><ele>852.0</ele><time>2026-04-20T16:06:07.804Z</time></trkpt><trkpt lat="38.0784583" lon="15.7784917"><ele>852.0</ele><time>2026-04-20T16:06:08.803Z</time></trkpt><trkpt lat="38.0785483" lon="15.7784483"><ele>852.0</ele><time>2026-04-20T16:06:10.803Z</time></trkpt><trkpt lat="38.0785583" lon="15.7783567"><ele>852.0</ele><time>2026-04-20T16:06:11.803Z</time></trkpt><trkpt lat="38.0785433" lon="15.7781933"><ele>852.0</ele><time>2026-04-20T16:06:12.804Z</time></trkpt><trkpt lat="38.0785533" lon="15.778025"><ele>852.0</ele><time>2026-04-20T16:06:13.804Z</time></trkpt><trkpt lat="38.0785717" lon="15.7778317"><ele>852.0</ele><time>2026-04-20T16:06:14.804Z</time></trkpt><trkpt lat="38.078555" lon="15.7776383"><ele>852.0</ele><time>2026-04-20T16:06:15.805Z</time></trkpt><trkpt lat="38.0785467" lon="15.7774583"><ele>852.0</ele><time>2026-04-20T16:06:16.803Z</time></trkpt><trkpt lat="38.0785683" lon="15.7772883"><ele>850.75</ele><time>2026-04-20T16:06:17.803Z</time></trkpt><trkpt lat="38.078605" lon="15.7771283"><ele>849.5</ele><time>2026-04-20T16:06:18.805Z</time></trkpt><trkpt lat="38.0786483" lon="15.7769783"><ele>848.25</ele><time>2026-04-20T16:06:19.804Z</time></trkpt><trkpt lat="38.07871" lon="15.7768383"><ele>847.0</ele><time>2026-04-20T16:06:20.802Z</time></trkpt><trkpt lat="38.0787767" lon="15.7767067"><ele>847.0</ele><time>2026-04-20T16:06:21.804Z</time></trkpt><trkpt lat="38.078845" lon="15.7765767"><ele>847.0</ele><time>2026-04-20T16:06:22.803Z</time></trkpt><trkpt lat="38.0788867" lon="15.7764483"><ele>847.0</ele><time>2026-04-20T16:06:23.802Z</time></trkpt><trkpt lat="38.0789017" lon="15.77633"><ele>847.0</ele><time>2026-04-20T16:06:24.804Z</time></trkpt><trkpt lat="38.0789367" lon="15.776255"><ele>847.0</ele><time>2026-04-20T16:06:25.803Z</time></trkpt><trkpt lat="38.0790483" lon="15.77622"><ele>847.0</ele><time>2026-04-20T16:06:27.804Z</time></trkpt><trkpt lat="38.0790917" lon="15.7763"><ele>847.0</ele><time>2026-04-20T16:06:28.802Z</time></trkpt><trkpt lat="38.0791" lon="15.7764317"><ele>847.0</ele><time>2026-04-20T16:06:29.802Z</time></trkpt><trkpt lat="38.0790883" lon="15.7765783"><ele>847.0</ele><time>2026-04-20T16:06:30.804Z</time></trkpt><trkpt lat="38.07909" lon="15.7767467"><ele>847.0</ele><time>2026-04-20T16:06:31.803Z</time></trkpt><trkpt lat="38.0790983" lon="15.7769383"><ele>835.6666666666666</ele><time>2026-04-20T16:06:32.803Z</time></trkpt><trkpt lat="38.079145" lon="15.777145"><ele>824.3333333333333</ele><time>2026-04-20T16:06:33.804Z</time></trkpt><trkpt lat="38.0792317" lon="15.7773483"><ele>813.0</ele><time>2026-04-20T16:06:34.803Z</time></trkpt><trkpt lat="38.07933" lon="15.7775367"><ele>815.3333333333333</ele><time>2026-04-20T16:06:35.803Z</time></trkpt><trkpt lat="38.0794417" lon="15.77771"><ele>817.6666666666666</ele><time>2026-04-20T16:06:36.803Z</time></trkpt><trkpt lat="38.079515" lon="15.7778933"><ele>820.0</ele><time>2026-04-20T16:06:37.803Z</time></trkpt><trkpt lat="38.0795817" lon="15.77806"><ele>820.0</ele><time>2026-04-20T16:06:38.804Z</time></trkpt><trkpt lat="38.0796233" lon="15.7782083"><ele>820.0</ele><time>2026-04-20T16:06:39.804Z</time></trkpt><trkpt lat="38.0796417" lon="15.7783367"><ele>820.0</ele><time>2026-04-20T16:06:40.805Z</time></trkpt><trkpt lat="38.0796717" lon="15.7784217"><ele>820.0</ele><time>2026-04-20T16:06:41.804Z</time></trkpt><trkpt lat="38.0797717" lon="15.778445"><ele>820.0</ele><time>2026-04-20T16:06:43.803Z</time></trkpt><trkpt lat="38.0798067" lon="15.77831"><ele>820.0</ele><time>2026-04-20T16:06:45.804Z</time></trkpt><trkpt lat="38.0797767" lon="15.7781583"><ele>820.0</ele><time>2026-04-20T16:06:46.805Z</time></trkpt><trkpt lat="38.0797867" lon="15.7780133"><ele>820.0</ele><time>2026-04-20T16:06:47.802Z</time></trkpt><trkpt lat="38.07982" lon="15.7778617"><ele>820.0</ele><time>2026-04-20T16:06:48.803Z</time></trkpt><trkpt lat="38.0798017" lon="15.777735"><ele>818.6</ele><time>2026-04-20T16:06:49.803Z</time></trkpt><trkpt lat="38.0797517" lon="15.77763"><ele>817.2</ele><time>2026-04-20T16:06:50.804Z</time></trkpt><trkpt lat="38.0796617" lon="15.7775667"><ele>815.8</ele><time>2026-04-20T16:06:51.803Z</time></trkpt><trkpt lat="38.0795833" lon="15.7774933"><ele>814.4</ele><time>2026-04-20T16:06:52.803Z</time></trkpt><trkpt lat="38.0795367" lon="15.777385"><ele>813.0</ele><time>2026-04-20T16:06:53.804Z</time></trkpt><trkpt lat="38.07953" lon="15.7772467"><ele>813.0</ele><time>2026-04-20T16:06:54.804Z</time></trkpt><trkpt lat="38.0795567" lon="15.7770983"><ele>813.0</ele><time>2026-04-20T16:06:55.805Z</time></trkpt><trkpt lat="38.079595" lon="15.7769467"><ele>813.0</ele><time>2026-04-20T16:06:56.803Z</time></trkpt><trkpt lat="38.079625" lon="15.776785"><ele>813.0</ele><time>2026-04-20T16:06:57.802Z</time></trkpt><trkpt lat="38.0796367" lon="15.776615"><ele>813.5</ele><time>2026-04-20T16:06:58.803Z</time></trkpt><trkpt lat="38.0796417" lon="15.776435"><ele>814.0</ele><time>2026-04-20T16:06:59.802Z</time></trkpt><trkpt lat="38.0796517" lon="15.7762567"><ele>814.5</ele><time>2026-04-20T16:07:00.803Z</time></trkpt><trkpt lat="38.0796567" lon="15.7760833"><ele>815.0</ele><time>2026-04-20T16:07:01.803Z</time></trkpt><trkpt lat="38.0796467" lon="15.7759283"><ele>815.6</ele><time>2026-04-20T16:07:02.802Z</time></trkpt><trkpt lat="38.0796133" lon="15.7758017"><ele>816.2</ele><time>2026-04-20T16:07:03.803Z</time></trkpt><trkpt lat="38.0795817" lon="15.77569"><ele>816.8</ele><time>2026-04-20T16:07:04.803Z</time></trkpt><trkpt lat="38.0796" lon="15.7756067"><ele>817.4</ele><time>2026-04-20T16:07:05.804Z</time></trkpt><trkpt lat="38.0797133" lon="15.7756033"><ele>818.0</ele><time>2026-04-20T16:07:07.804Z</time></trkpt><trkpt lat="38.0797383" lon="15.7757433"><ele>818.0</ele><time>2026-04-20T16:07:08.804Z</time></trkpt><trkpt lat="38.079755" lon="15.7758717"><ele>818.0</ele><time>2026-04-20T16:07:09.803Z</time></trkpt><trkpt lat="38.0798017" lon="15.7759683"><ele>818.0</ele><time>2026-04-20T16:07:10.803Z</time></trkpt><trkpt lat="38.0798667" lon="15.776055"><ele>818.0</ele><time>2026-04-20T16:07:11.802Z</time></trkpt><trkpt lat="38.07993" lon="15.7761433"><ele>818.0</ele><time>2026-04-20T16:07:12.804Z</time></trkpt><trkpt lat="38.0799833" lon="15.776225"><ele>809.5999999999999</ele><time>2026-04-20T16:07:13.808Z</time></trkpt><trkpt lat="38.080035" lon="15.7762817"><ele>801.1999999999999</ele><time>2026-04-20T16:07:14.804Z</time></trkpt><trkpt lat="38.0801467" lon="15.7762567"><ele>792.8</ele><time>2026-04-20T16:07:16.805Z</time></trkpt><trkpt lat="38.08016" lon="15.7761583"><ele>784.4</ele><time>2026-04-20T16:07:17.803Z</time></trkpt><trkpt lat="38.08013" lon="15.7760283"><ele>776.0</ele><time>2026-04-20T16:07:18.802Z</time></trkpt><trkpt lat="38.08009" lon="15.7758917"><ele>774.4</ele><time>2026-04-20T16:07:19.803Z</time></trkpt><trkpt lat="38.08008" lon="15.7757467"><ele>772.8</ele><time>2026-04-20T16:07:20.804Z</time></trkpt><trkpt lat="38.0800867" lon="15.7756033"><ele>771.1999999999999</ele><time>2026-04-20T16:07:21.803Z</time></trkpt><trkpt lat="38.0801117" lon="15.7754717"><ele>769.5999999999999</ele><time>2026-04-20T16:07:22.804Z</time></trkpt><trkpt lat="38.0801617" lon="15.7753533"><ele>768.0</ele><time>2026-04-20T16:07:23.803Z</time></trkpt><trkpt lat="38.0802083" lon="15.7752433"><ele>767.1666666666666</ele><time>2026-04-20T16:07:24.802Z</time></trkpt><trkpt lat="38.08022" lon="15.7751317"><ele>766.3333333333334</ele><time>2026-04-20T16:07:25.804Z</time></trkpt><trkpt lat="38.0802167" lon="15.7750233"><ele>765.5</ele><time>2026-04-20T16:07:26.804Z</time></trkpt><trkpt lat="38.0801983" lon="15.774915"><ele>764.6666666666667</ele><time>2026-04-20T16:07:27.803Z</time></trkpt><trkpt lat="38.0801717" lon="15.7748067"><ele>763.8333333333334</ele><time>2026-04-20T16:07:28.803Z</time></trkpt><trkpt lat="38.0801283" lon="15.7746983"><ele>763.0</ele><time>2026-04-20T16:07:29.804Z</time></trkpt><trkpt lat="38.080065" lon="15.7745983"><ele>763.0</ele><time>2026-04-20T16:07:30.804Z</time></trkpt><trkpt lat="38.0800033" lon="15.7744917"><ele>763.0</ele><time>2026-04-20T16:07:31.804Z</time></trkpt><trkpt lat="38.0799717" lon="15.7743667"><ele>763.0</ele><time>2026-04-20T16:07:32.804Z</time></trkpt><trkpt lat="38.0799583" lon="15.7742317"><ele>763.0</ele><time>2026-04-20T16:07:33.803Z</time></trkpt><trkpt lat="38.0799367" lon="15.774095"><ele>763.0</ele><time>2026-04-20T16:07:34.803Z</time></trkpt><trkpt lat="38.0799167" lon="15.7739567"><ele>763.5</ele><time>2026-04-20T16:07:35.803Z</time></trkpt><trkpt lat="38.0798733" lon="15.7738217"><ele>764.0</ele><time>2026-04-20T16:07:36.804Z</time></trkpt><trkpt lat="38.0798033" lon="15.7736967"><ele>764.5</ele><time>2026-04-20T16:07:37.804Z</time></trkpt><trkpt lat="38.0797217" lon="15.7735783"><ele>765.0</ele><time>2026-04-20T16:07:38.804Z</time></trkpt><trkpt lat="38.0796617" lon="15.7734433"><ele>765.0</ele><time>2026-04-20T16:07:39.802Z</time></trkpt><trkpt lat="38.0796033" lon="15.77331"><ele>765.0</ele><time>2026-04-20T16:07:40.802Z</time></trkpt><trkpt lat="38.07953" lon="15.7731917"><ele>765.0</ele><time>2026-04-20T16:07:41.804Z</time></trkpt><trkpt lat="38.0794733" lon="15.7730683"><ele>765.0</ele><time>2026-04-20T16:07:42.804Z</time></trkpt><trkpt lat="38.0794567" lon="15.7729317"><ele>765.0</ele><time>2026-04-20T16:07:43.803Z</time></trkpt><trkpt lat="38.079435" lon="15.772805"><ele>765.0</ele><time>2026-04-20T16:07:44.802Z</time></trkpt><trkpt lat="38.0794017" lon="15.77269"><ele>765.0</ele><time>2026-04-20T16:07:45.803Z</time></trkpt><trkpt lat="38.0793517" lon="15.77259"><ele>765.0</ele><time>2026-04-20T16:07:46.804Z</time></trkpt><trkpt lat="38.079295" lon="15.7724933"><ele>765.0</ele><time>2026-04-20T16:07:47.804Z</time></trkpt><trkpt lat="38.0792233" lon="15.772415"><ele>764.8</ele><time>2026-04-20T16:07:48.805Z</time></trkpt><trkpt lat="38.0791383" lon="15.7723567"><ele>764.6</ele><time>2026-04-20T16:07:49.804Z</time></trkpt><trkpt lat="38.0790583" lon="15.7722967"><ele>764.4000000000001</ele><time>2026-04-20T16:07:50.804Z</time></trkpt><trkpt lat="38.0789767" lon="15.772235"><ele>764.2</ele><time>2026-04-20T16:07:51.803Z</time></trkpt><trkpt lat="38.078915" lon="15.7721483"><ele>764.0</ele><time>2026-04-20T16:07:52.803Z</time></trkpt><trkpt lat="38.07888" lon="15.7720433"><ele>764.0</ele><time>2026-04-20T16:07:53.803Z</time></trkpt><trkpt lat="38.0788617" lon="15.771935"><ele>764.0</ele><time>2026-04-20T16:07:54.804Z</time></trkpt><trkpt lat="38.07885" lon="15.7718333"><ele>764.0</ele><time>2026-04-20T16:07:55.804Z</time></trkpt><trkpt lat="38.0788417" lon="15.7717383"><ele>764.0</ele><time>2026-04-20T16:07:56.804Z</time></trkpt><trkpt lat="38.078825" lon="15.7716517"><ele>764.0</ele><time>2026-04-20T16:07:57.803Z</time></trkpt><trkpt lat="38.078795" lon="15.77157"><ele>764.0</ele><time>2026-04-20T16:07:58.803Z</time></trkpt><trkpt lat="38.078735" lon="15.7715133"><ele>759.6</ele><time>2026-04-20T16:07:59.804Z</time></trkpt><trkpt lat="38.0786833" lon="15.7714633"><ele>755.2</ele><time>2026-04-20T16:08:00.804Z</time></trkpt><trkpt lat="38.078635" lon="15.77134"><ele>750.8000000000001</ele><time>2026-04-20T16:08:02.804Z</time></trkpt><trkpt lat="38.078695" lon="15.771225"><ele>746.4000000000001</ele><time>2026-04-20T16:08:04.804Z</time></trkpt><trkpt lat="38.0788183" lon="15.7712733"><ele>742.0</ele><time>2026-04-20T16:08:06.804Z</time></trkpt><trkpt lat="38.0788817" lon="15.7713433"><ele>742.0</ele><time>2026-04-20T16:08:07.803Z</time></trkpt><trkpt lat="38.0789517" lon="15.7714517"><ele>742.0</ele><time>2026-04-20T16:08:08.804Z</time></trkpt><trkpt lat="38.0790283" lon="15.7715483"><ele>742.0</ele><time>2026-04-20T16:08:09.804Z</time></trkpt><trkpt lat="38.079115" lon="15.7716467"><ele>742.0</ele><time>2026-04-20T16:08:10.804Z</time></trkpt><trkpt lat="38.0792117" lon="15.77174"><ele>740.5</ele><time>2026-04-20T16:08:11.804Z</time></trkpt><trkpt lat="38.079315" lon="15.771835"><ele>739.0</ele><time>2026-04-20T16:08:12.805Z</time></trkpt><trkpt lat="38.0794183" lon="15.7719233"><ele>737.5</ele><time>2026-04-20T16:08:13.804Z</time></trkpt><trkpt lat="38.0795117" lon="15.7720133"><ele>736.0</ele><time>2026-04-20T16:08:14.803Z</time></trkpt><trkpt lat="38.07959" lon="15.77211"><ele>736.0</ele><time>2026-04-20T16:08:15.804Z</time></trkpt><trkpt lat="38.079675" lon="15.77219"><ele>736.0</ele><time>2026-04-20T16:08:16.803Z</time></trkpt><trkpt lat="38.0797533" lon="15.772265"><ele>736.0</ele><time>2026-04-20T16:08:17.802Z</time></trkpt><trkpt lat="38.0798117" lon="15.772355"><ele>736.0</ele><time>2026-04-20T16:08:18.803Z</time></trkpt><trkpt lat="38.0798633" lon="15.772455"><ele>736.0</ele><time>2026-04-20T16:08:19.803Z</time></trkpt><trkpt lat="38.0799167" lon="15.7725583"><ele>733.5999999999999</ele><time>2026-04-20T16:08:20.804Z</time></trkpt><trkpt lat="38.0799733" lon="15.7726617"><ele>731.2</ele><time>2026-04-20T16:08:21.804Z</time></trkpt><trkpt lat="38.0800317" lon="15.7727633"><ele>728.8</ele><time>2026-04-20T16:08:22.803Z</time></trkpt><trkpt lat="38.0801033" lon="15.7728517"><ele>726.4000000000001</ele><time>2026-04-20T16:08:23.802Z</time></trkpt><trkpt lat="38.0801767" lon="15.772935"><ele>724.0</ele><time>2026-04-20T16:08:24.803Z</time></trkpt><trkpt lat="38.0802417" lon="15.7730267"><ele>724.0</ele><time>2026-04-20T16:08:25.802Z</time></trkpt><trkpt lat="38.0802983" lon="15.77312"><ele>724.0</ele><time>2026-04-20T16:08:26.804Z</time></trkpt><trkpt lat="38.0803517" lon="15.7732067"><ele>724.0</ele><time>2026-04-20T16:08:27.806Z</time></trkpt><trkpt lat="38.0804" lon="15.77328"><ele>724.0</ele><time>2026-04-20T16:08:28.803Z</time></trkpt><trkpt lat="38.080465" lon="15.7733133"><ele>724.0</ele><time>2026-04-20T16:08:29.804Z</time></trkpt><trkpt lat="38.0805467" lon="15.7732983"><ele>724.0</ele><time>2026-04-20T16:08:30.804Z</time></trkpt><trkpt lat="38.08063" lon="15.77328"><ele>724.0</ele><time>2026-04-20T16:08:31.802Z</time></trkpt><trkpt lat="38.0807183" lon="15.7732683"><ele>724.0</ele><time>2026-04-20T16:08:32.805Z</time></trkpt><trkpt lat="38.0808117" lon="15.7732467"><ele>724.0</ele><time>2026-04-20T16:08:33.805Z</time></trkpt><trkpt lat="38.0809017" lon="15.77323"><ele>724.0</ele><time>2026-04-20T16:08:34.804Z</time></trkpt><trkpt lat="38.08099" lon="15.7732167"><ele>724.0</ele><time>2026-04-20T16:08:35.807Z</time></trkpt><trkpt lat="38.0810717" lon="15.7732217"><ele>724.0</ele><time>2026-04-20T16:08:36.805Z</time></trkpt><trkpt lat="38.081145" lon="15.7732383"><ele>722.5</ele><time>2026-04-20T16:08:37.804Z</time></trkpt><trkpt lat="38.0812083" lon="15.773275"><ele>721.0</ele><time>2026-04-20T16:08:38.803Z</time></trkpt><trkpt lat="38.0812533" lon="15.7733433"><ele>719.5</ele><time>2026-04-20T16:08:39.803Z</time></trkpt><trkpt lat="38.0812967" lon="15.7734133"><ele>718.0</ele><time>2026-04-20T16:08:40.803Z</time></trkpt><trkpt lat="38.0813317" lon="15.7735"><ele>716.5</ele><time>2026-04-20T16:08:41.803Z</time></trkpt><trkpt lat="38.0813433" lon="15.7736067"><ele>715.0</ele><time>2026-04-20T16:08:42.804Z</time></trkpt><trkpt lat="38.0813483" lon="15.7737167"><ele>715.0</ele><time>2026-04-20T16:08:43.805Z</time></trkpt><trkpt lat="38.0813533" lon="15.773825"><ele>715.0</ele><time>2026-04-20T16:08:44.803Z</time></trkpt><trkpt lat="38.0813683" lon="15.77393"><ele>715.0</ele><time>2026-04-20T16:08:45.804Z</time></trkpt><trkpt lat="38.0813833" lon="15.774025"><ele>715.0</ele><time>2026-04-20T16:08:46.803Z</time></trkpt><trkpt lat="38.0814083" lon="15.7741067"><ele>715.0</ele><time>2026-04-20T16:08:47.806Z</time></trkpt><trkpt lat="38.081455" lon="15.7741717"><ele>715.0</ele><time>2026-04-20T16:08:48.804Z</time></trkpt><trkpt lat="38.0815133" lon="15.7742267"><ele>715.0</ele><time>2026-04-20T16:08:49.803Z</time></trkpt><trkpt lat="38.0815733" lon="15.774285"><ele>715.0</ele><time>2026-04-20T16:08:50.804Z</time></trkpt><trkpt lat="38.0816333" lon="15.774355"><ele>715.0</ele><time>2026-04-20T16:08:51.804Z</time></trkpt><trkpt lat="38.0816983" lon="15.7744283"><ele>715.0</ele><time>2026-04-20T16:08:52.803Z</time></trkpt><trkpt lat="38.0817667" lon="15.7745"><ele>715.0</ele><time>2026-04-20T16:08:53.803Z</time></trkpt><trkpt lat="38.08182" lon="15.7745867"><ele>715.0</ele><time>2026-04-20T16:08:54.803Z</time></trkpt><trkpt lat="38.0818633" lon="15.7746783"><ele>715.5714285714286</ele><time>2026-04-20T16:08:55.803Z</time></trkpt><trkpt lat="38.0818883" lon="15.7747767"><ele>716.1428571428571</ele><time>2026-04-20T16:08:56.804Z</time></trkpt><trkpt lat="38.08189" lon="15.774875"><ele>716.7142857142857</ele><time>2026-04-20T16:08:57.804Z</time></trkpt><trkpt lat="38.0819" lon="15.7749583"><ele>717.2857142857142</ele><time>2026-04-20T16:08:58.804Z</time></trkpt><trkpt lat="38.081915" lon="15.7750433"><ele>717.8571428571429</ele><time>2026-04-20T16:08:59.804Z</time></trkpt><trkpt lat="38.0819317" lon="15.7751283"><ele>718.4285714285713</ele><time>2026-04-20T16:09:00.804Z</time></trkpt><trkpt lat="38.08197" lon="15.7751967"><ele>719.0</ele><time>2026-04-20T16:09:01.803Z</time></trkpt><trkpt lat="38.0820817" lon="15.7752967"><ele>719.0</ele><time>2026-04-20T16:09:03.804Z</time></trkpt><trkpt lat="38.082135" lon="15.7753783"><ele>719.0</ele><time>2026-04-20T16:09:04.804Z</time></trkpt><trkpt lat="38.0822483" lon="15.77544"><ele>719.0</ele><time>2026-04-20T16:09:05.804Z</time></trkpt><trkpt lat="38.08235" lon="15.7755267"><ele>719.0</ele><time>2026-04-20T16:09:06.804Z</time></trkpt><trkpt lat="38.08245" lon="15.7756183"><ele>717.25</ele><time>2026-04-20T16:09:07.803Z</time></trkpt><trkpt lat="38.0825433" lon="15.7757167"><ele>715.5</ele><time>2026-04-20T16:09:08.803Z</time></trkpt><trkpt lat="38.08262" lon="15.7758317"><ele>713.75</ele><time>2026-04-20T16:09:09.803Z</time></trkpt><trkpt lat="38.0826883" lon="15.7759683"><ele>712.0</ele><time>2026-04-20T16:09:10.803Z</time></trkpt><trkpt lat="38.08275" lon="15.77612"><ele>712.0</ele><time>2026-04-20T16:09:11.804Z</time></trkpt><trkpt lat="38.0828033" lon="15.776275"><ele>712.0</ele><time>2026-04-20T16:09:12.803Z</time></trkpt><trkpt lat="38.0828517" lon="15.77643"><ele>712.0</ele><time>2026-04-20T16:09:13.804Z</time></trkpt><trkpt lat="38.082895" lon="15.7765733"><ele>712.0</ele><time>2026-04-20T16:09:14.804Z</time></trkpt><trkpt lat="38.082945" lon="15.7766883"><ele>712.0</ele><time>2026-04-20T16:09:15.803Z</time></trkpt><trkpt lat="38.0830017" lon="15.7767533"><ele>712.0</ele><time>2026-04-20T16:09:16.802Z</time></trkpt><trkpt lat="38.0831233" lon="15.7767183"><ele>712.0</ele><time>2026-04-20T16:09:18.804Z</time></trkpt><trkpt lat="38.0831417" lon="15.7766283"><ele>712.0</ele><time>2026-04-20T16:09:19.803Z</time></trkpt><trkpt lat="38.0831233" lon="15.7765217"><ele>712.0</ele><time>2026-04-20T16:09:20.804Z</time></trkpt><trkpt lat="38.0830733" lon="15.7764017"><ele>712.0</ele><time>2026-04-20T16:09:21.804Z</time></trkpt><trkpt lat="38.0830033" lon="15.7762733"><ele>712.0</ele><time>2026-04-20T16:09:22.804Z</time></trkpt><trkpt lat="38.0829517" lon="15.77613"><ele>712.0</ele><time>2026-04-20T16:09:23.803Z</time></trkpt><trkpt lat="38.0829" lon="15.77599"><ele>712.0</ele><time>2026-04-20T16:09:24.804Z</time></trkpt><trkpt lat="38.082855" lon="15.7758517"><ele>708.0</ele><time>2026-04-20T16:09:25.806Z</time></trkpt><trkpt lat="38.082805" lon="15.7757183"><ele>704.0</ele><time>2026-04-20T16:09:26.804Z</time></trkpt><trkpt lat="38.08274" lon="15.7755933"><ele>700.0</ele><time>2026-04-20T16:09:27.804Z</time></trkpt><trkpt lat="38.08266" lon="15.7754683"><ele>696.0</ele><time>2026-04-20T16:09:28.804Z</time></trkpt><trkpt lat="38.0825683" lon="15.7753533"><ele>696.0</ele><time>2026-04-20T16:09:29.804Z</time></trkpt><trkpt lat="38.0824833" lon="15.775235"><ele>696.0</ele><time>2026-04-20T16:09:30.804Z</time></trkpt><trkpt lat="38.082405" lon="15.7751117"><ele>696.0</ele><time>2026-04-20T16:09:31.803Z</time></trkpt><trkpt lat="38.082345" lon="15.7749767"><ele>696.0</ele><time>2026-04-20T16:09:32.804Z</time></trkpt><trkpt lat="38.082315" lon="15.77482"><ele>695.0</ele><time>2026-04-20T16:09:33.804Z</time></trkpt><trkpt lat="38.0823033" lon="15.77466"><ele>694.0</ele><time>2026-04-20T16:09:34.804Z</time></trkpt><trkpt lat="38.0822783" lon="15.774505"><ele>693.0</ele><time>2026-04-20T16:09:35.804Z</time></trkpt><trkpt lat="38.082215" lon="15.7743717"><ele>692.0</ele><time>2026-04-20T16:09:36.803Z</time></trkpt><trkpt lat="38.0821567" lon="15.7742483"><ele>692.0</ele><time>2026-04-20T16:09:37.805Z</time></trkpt><trkpt lat="38.082085" lon="15.7741433"><ele>692.0</ele><time>2026-04-20T16:09:38.804Z</time></trkpt><trkpt lat="38.082015" lon="15.7740467"><ele>692.0</ele><time>2026-04-20T16:09:39.804Z</time></trkpt><trkpt lat="38.0819633" lon="15.7739533"><ele>692.0</ele><time>2026-04-20T16:09:40.804Z</time></trkpt><trkpt lat="38.0819267" lon="15.77386"><ele>692.0</ele><time>2026-04-20T16:09:41.804Z</time></trkpt><trkpt lat="38.0819283" lon="15.7737683"><ele>692.0</ele><time>2026-04-20T16:09:42.804Z</time></trkpt><trkpt lat="38.08195" lon="15.7736733"><ele>692.0</ele><time>2026-04-20T16:09:43.804Z</time></trkpt><trkpt lat="38.0819717" lon="15.773585"><ele>692.0</ele><time>2026-04-20T16:09:44.804Z</time></trkpt><trkpt lat="38.0819967" lon="15.773495"><ele>692.0</ele><time>2026-04-20T16:09:45.803Z</time></trkpt><trkpt lat="38.082005" lon="15.7733967"><ele>692.0</ele><time>2026-04-20T16:09:46.803Z</time></trkpt><trkpt lat="38.0819983" lon="15.7732933"><ele>692.0</ele><time>2026-04-20T16:09:47.803Z</time></trkpt><trkpt lat="38.0819767" lon="15.7731867"><ele>689.6666666666666</ele><time>2026-04-20T16:09:48.804Z</time></trkpt><trkpt lat="38.0819433" lon="15.7730817"><ele>687.3333333333333</ele><time>2026-04-20T16:09:49.804Z</time></trkpt><trkpt lat="38.0819017" lon="15.772985"><ele>685.0</ele><time>2026-04-20T16:09:50.804Z</time></trkpt><trkpt lat="38.0818567" lon="15.7728917"><ele>682.6666666666666</ele><time>2026-04-20T16:09:51.804Z</time></trkpt><trkpt lat="38.081805" lon="15.7728033"><ele>680.3333333333334</ele><time>2026-04-20T16:09:52.804Z</time></trkpt><trkpt lat="38.08174" lon="15.7727267"><ele>678.0</ele><time>2026-04-20T16:09:53.804Z</time></trkpt><trkpt lat="38.0817083" lon="15.7726383"><ele>674.5</ele><time>2026-04-20T16:09:54.803Z</time></trkpt><trkpt lat="38.0817117" lon="15.7725483"><ele>671.0</ele><time>2026-04-20T16:09:55.803Z</time></trkpt><trkpt lat="38.0817483" lon="15.7724767"><ele>667.5</ele><time>2026-04-20T16:09:56.804Z</time></trkpt><trkpt lat="38.0818117" lon="15.7724483"><ele>664.0</ele><time>2026-04-20T16:09:57.804Z</time></trkpt><trkpt lat="38.08189" lon="15.7724767"><ele>660.5</ele><time>2026-04-20T16:09:58.804Z</time></trkpt><trkpt lat="38.08195" lon="15.77257"><ele>657.0</ele><time>2026-04-20T16:09:59.804Z</time></trkpt><trkpt lat="38.0820033" lon="15.7726733"><ele>661.2</ele><time>2026-04-20T16:10:00.805Z</time></trkpt><trkpt lat="38.0820533" lon="15.7727833"><ele>665.4000000000001</ele><time>2026-04-20T16:10:01.804Z</time></trkpt><trkpt lat="38.082085" lon="15.7729067"><ele>669.5999999999999</ele><time>2026-04-20T16:10:02.804Z</time></trkpt><trkpt lat="38.0821183" lon="15.7730217"><ele>673.8</ele><time>2026-04-20T16:10:03.804Z</time></trkpt><trkpt lat="38.0821417" lon="15.773135"><ele>678.0</ele><time>2026-04-20T16:10:04.804Z</time></trkpt><trkpt lat="38.0821683" lon="15.7732333"><ele>678.0</ele><time>2026-04-20T16:10:05.804Z</time></trkpt><trkpt lat="38.0822117" lon="15.7733067"><ele>678.0</ele><time>2026-04-20T16:10:06.803Z</time></trkpt><trkpt lat="38.0822583" lon="15.7733667"><ele>678.0</ele><time>2026-04-20T16:10:07.803Z</time></trkpt><trkpt lat="38.082375" lon="15.773365"><ele>678.0</ele><time>2026-04-20T16:10:09.804Z</time></trkpt><trkpt lat="38.0824283" lon="15.7733133"><ele>678.0</ele><time>2026-04-20T16:10:10.803Z</time></trkpt><trkpt lat="38.0824633" lon="15.7732417"><ele>678.0</ele><time>2026-04-20T16:10:11.804Z</time></trkpt><trkpt lat="38.0824733" lon="15.7731517"><ele>678.0</ele><time>2026-04-20T16:10:12.803Z</time></trkpt><trkpt lat="38.0824533" lon="15.7730517"><ele>678.0</ele><time>2026-04-20T16:10:13.803Z</time></trkpt><trkpt lat="38.0824117" lon="15.7729517"><ele>678.0</ele><time>2026-04-20T16:10:14.803Z</time></trkpt><trkpt lat="38.0823467" lon="15.772845"><ele>678.0</ele><time>2026-04-20T16:10:15.804Z</time></trkpt><trkpt lat="38.0822783" lon="15.7727333"><ele>678.0</ele><time>2026-04-20T16:10:16.804Z</time></trkpt><trkpt lat="38.0822083" lon="15.7726233"><ele>673.8</ele><time>2026-04-20T16:10:17.804Z</time></trkpt><trkpt lat="38.0821433" lon="15.77251"><ele>669.5999999999999</ele><time>2026-04-20T16:10:18.804Z</time></trkpt><trkpt lat="38.0820874" lon="15.772392"><ele>665.4000000000001</ele><time>2026-04-20T16:10:19.803Z</time></trkpt><trkpt lat="38.0820221" lon="15.7722892"><ele>661.2</ele><time>2026-04-20T16:10:20.803Z</time></trkpt><trkpt lat="38.0819318" lon="15.7722185"><ele>657.0</ele><time>2026-04-20T16:10:21.803Z</time></trkpt><trkpt lat="38.0818291" lon="15.7721655"><ele>657.0</ele><time>2026-04-20T16:10:22.803Z</time></trkpt><trkpt lat="38.0817207" lon="15.7721232"><ele>657.0</ele><time>2026-04-20T16:10:23.804Z</time></trkpt><trkpt lat="38.081617" lon="15.7720734"><ele>657.0</ele><time>2026-04-20T16:10:24.804Z</time></trkpt><trkpt lat="38.0815153" lon="15.7720113"><ele>657.0</ele><time>2026-04-20T16:10:25.803Z</time></trkpt><trkpt lat="38.0814177" lon="15.7719263"><ele>656.0</ele><time>2026-04-20T16:10:26.804Z</time></trkpt><trkpt lat="38.0813269" lon="15.7718133"><ele>655.0</ele><time>2026-04-20T16:10:27.803Z</time></trkpt><trkpt lat="38.0812339" lon="15.7716932"><ele>654.0</ele><time>2026-04-20T16:10:28.804Z</time></trkpt><trkpt lat="38.081136" lon="15.771577"><ele>653.0</ele><time>2026-04-20T16:10:29.804Z</time></trkpt><trkpt lat="38.0810286" lon="15.771477"><ele>653.0</ele><time>2026-04-20T16:10:30.804Z</time></trkpt><trkpt lat="38.0809137" lon="15.771388"><ele>653.0</ele><time>2026-04-20T16:10:31.804Z</time></trkpt><trkpt lat="38.0807999" lon="15.7712952"><ele>653.0</ele><time>2026-04-20T16:10:32.804Z</time></trkpt><trkpt lat="38.0806991" lon="15.7711821"><ele>653.0</ele><time>2026-04-20T16:10:33.804Z</time></trkpt><trkpt lat="38.0806071" lon="15.7710589"><ele>652.25</ele><time>2026-04-20T16:10:34.803Z</time></trkpt><trkpt lat="38.0805178" lon="15.770933"><ele>651.5</ele><time>2026-04-20T16:10:35.803Z</time></trkpt><trkpt lat="38.0804297" lon="15.7708057"><ele>650.75</ele><time>2026-04-20T16:10:36.803Z</time></trkpt><trkpt lat="38.0803342" lon="15.7706863"><ele>650.0</ele><time>2026-04-20T16:10:37.804Z</time></trkpt><trkpt lat="38.0802431" lon="15.7705637"><ele>650.0</ele><time>2026-04-20T16:10:38.803Z</time></trkpt><trkpt lat="38.0801548" lon="15.77044"><ele>650.0</ele><time>2026-04-20T16:10:39.803Z</time></trkpt><trkpt lat="38.0800705" lon="15.7703162"><ele>650.0</ele><time>2026-04-20T16:10:40.803Z</time></trkpt><trkpt lat="38.0799847" lon="15.7702062"><ele>650.0</ele><time>2026-04-20T16:10:41.804Z</time></trkpt><trkpt lat="38.079904" lon="15.7701106"><ele>650.3333333333333</ele><time>2026-04-20T16:10:42.804Z</time></trkpt><trkpt lat="38.0798356" lon="15.770014"><ele>650.6666666666666</ele><time>2026-04-20T16:10:43.804Z</time></trkpt><trkpt lat="38.0798033" lon="15.7699087"><ele>651.0</ele><time>2026-04-20T16:10:44.803Z</time></trkpt><trkpt lat="38.0798102" lon="15.7698047"><ele>651.3333333333334</ele><time>2026-04-20T16:10:45.803Z</time></trkpt><trkpt lat="38.0798732" lon="15.769739"><ele>651.6666666666667</ele><time>2026-04-20T16:10:46.804Z</time></trkpt><trkpt lat="38.0799657" lon="15.7697299"><ele>652.0</ele><time>2026-04-20T16:10:47.806Z</time></trkpt><trkpt lat="38.080061" lon="15.769781"><ele>646.0</ele><time>2026-04-20T16:10:48.804Z</time></trkpt><trkpt lat="38.0801517" lon="15.7698724"><ele>640.0</ele><time>2026-04-20T16:10:49.804Z</time></trkpt><trkpt lat="38.0802502" lon="15.7699599"><ele>634.0</ele><time>2026-04-20T16:10:50.804Z</time></trkpt><trkpt lat="38.0803539" lon="15.7700413"><ele>628.0</ele><time>2026-04-20T16:10:51.804Z</time></trkpt><trkpt lat="38.0804533" lon="15.7701362"><ele>626.25</ele><time>2026-04-20T16:10:52.804Z</time></trkpt><trkpt lat="38.0805568" lon="15.7702352"><ele>624.5</ele><time>2026-04-20T16:10:53.803Z</time></trkpt><trkpt lat="38.0806661" lon="15.7703285"><ele>622.75</ele><time>2026-04-20T16:10:54.804Z</time></trkpt><trkpt lat="38.0807776" lon="15.7704176"><ele>621.0</ele><time>2026-04-20T16:10:55.804Z</time></trkpt><trkpt lat="38.0808838" lon="15.7705168"><ele>621.0</ele><time>2026-04-20T16:10:56.804Z</time></trkpt><trkpt lat="38.0809985" lon="15.770604"><ele>621.0</ele><time>2026-04-20T16:10:57.803Z</time></trkpt><trkpt lat="38.0811193" lon="15.7706872"><ele>621.0</ele><time>2026-04-20T16:10:58.806Z</time></trkpt><trkpt lat="38.0812443" lon="15.7707739"><ele>621.0</ele><time>2026-04-20T16:10:59.805Z</time></trkpt><trkpt lat="38.0813713" lon="15.7708596"><ele>621.0</ele><time>2026-04-20T16:11:00.805Z</time></trkpt><trkpt lat="38.0814999" lon="15.7709511"><ele>621.0</ele><time>2026-04-20T16:11:01.804Z</time></trkpt><trkpt lat="38.0816318" lon="15.7710448"><ele>621.0</ele><time>2026-04-20T16:11:02.804Z</time></trkpt><trkpt lat="38.0817655" lon="15.771141"><ele>624.0</ele><time>2026-04-20T16:11:03.804Z</time></trkpt><trkpt lat="38.081901" lon="15.7712369"><ele>627.0</ele><time>2026-04-20T16:11:04.804Z</time></trkpt><trkpt lat="38.0820379" lon="15.7713277"><ele>630.0</ele><time>2026-04-20T16:11:05.804Z</time></trkpt><trkpt lat="38.0821776" lon="15.7714094"><ele>630.0</ele><time>2026-04-20T16:11:06.806Z</time></trkpt><trkpt lat="38.0823194" lon="15.771476"><ele>630.0</ele><time>2026-04-20T16:11:07.804Z</time></trkpt><trkpt lat="38.0824658" lon="15.7715238"><ele>630.0</ele><time>2026-04-20T16:11:08.806Z</time></trkpt><trkpt lat="38.0826124" lon="15.7715451"><ele>622.75</ele><time>2026-04-20T16:11:09.804Z</time></trkpt><trkpt lat="38.082752" lon="15.7715553"><ele>615.5</ele><time>2026-04-20T16:11:10.802Z</time></trkpt><trkpt lat="38.0828804" lon="15.7715735"><ele>608.25</ele><time>2026-04-20T16:11:11.809Z</time></trkpt><trkpt lat="38.0829958" lon="15.7716096"><ele>601.0</ele><time>2026-04-20T16:11:12.805Z</time></trkpt><trkpt lat="38.0831047" lon="15.7716734"><ele>601.0</ele><time>2026-04-20T16:11:13.805Z</time></trkpt><trkpt lat="38.0832093" lon="15.7717655"><ele>601.0</ele><time>2026-04-20T16:11:14.806Z</time></trkpt><trkpt lat="38.0833094" lon="15.771872"><ele>601.0</ele><time>2026-04-20T16:11:15.804Z</time></trkpt><trkpt lat="38.0834049" lon="15.7719826"><ele>601.0</ele><time>2026-04-20T16:11:16.804Z</time></trkpt><trkpt lat="38.0834925" lon="15.7720916"><ele>601.4</ele><time>2026-04-20T16:11:17.804Z</time></trkpt><trkpt lat="38.0835612" lon="15.7721981"><ele>601.8</ele><time>2026-04-20T16:11:18.803Z</time></trkpt><trkpt lat="38.0836089" lon="15.7723076"><ele>602.1999999999999</ele><time>2026-04-20T16:11:19.805Z</time></trkpt><trkpt lat="38.083611" lon="15.7724328"><ele>602.6</ele><time>2026-04-20T16:11:20.804Z</time></trkpt><trkpt lat="38.0835804" lon="15.7725682"><ele>603.0</ele><time>2026-04-20T16:11:21.804Z</time></trkpt><trkpt lat="38.0835462" lon="15.7727083"><ele>603.4</ele><time>2026-04-20T16:11:22.806Z</time></trkpt><trkpt lat="38.0835161" lon="15.7728453"><ele>603.8</ele><time>2026-04-20T16:11:23.804Z</time></trkpt><trkpt lat="38.0834832" lon="15.7729784"><ele>604.2</ele><time>2026-04-20T16:11:24.805Z</time></trkpt><trkpt lat="38.0834577" lon="15.7731075"><ele>604.6</ele><time>2026-04-20T16:11:25.803Z</time></trkpt><trkpt lat="38.0834555" lon="15.773237"><ele>605.0</ele><time>2026-04-20T16:11:26.805Z</time></trkpt><trkpt lat="38.0834825" lon="15.7733692"><ele>605.0</ele><time>2026-04-20T16:11:27.804Z</time></trkpt><trkpt lat="38.0835123" lon="15.7734956"><ele>605.0</ele><time>2026-04-20T16:11:28.804Z</time></trkpt><trkpt lat="38.0835336" lon="15.7736203"><ele>605.0</ele><time>2026-04-20T16:11:29.806Z</time></trkpt><trkpt lat="38.083554" lon="15.773739"><ele>605.0</ele><time>2026-04-20T16:11:30.805Z</time></trkpt><trkpt lat="38.0835825" lon="15.7738542"><ele>605.0</ele><time>2026-04-20T16:11:31.806Z</time></trkpt><trkpt lat="38.0836165" lon="15.7739638"><ele>606.6</ele><time>2026-04-20T16:11:32.804Z</time></trkpt><trkpt lat="38.0836593" lon="15.7740665"><ele>608.2</ele><time>2026-04-20T16:11:33.804Z</time></trkpt><trkpt lat="38.0837175" lon="15.7741436"><ele>609.8</ele><time>2026-04-20T16:11:34.805Z</time></trkpt><trkpt lat="38.0837924" lon="15.774177"><ele>611.4</ele><time>2026-04-20T16:11:35.804Z</time></trkpt><trkpt lat="38.0838946" lon="15.7741667"><ele>613.0</ele><time>2026-04-20T16:11:36.805Z</time></trkpt><trkpt lat="38.083997" lon="15.7741597"><ele>613.0</ele><time>2026-04-20T16:11:37.804Z</time></trkpt><trkpt lat="38.0840928" lon="15.7741652"><ele>613.0</ele><time>2026-04-20T16:11:38.805Z</time></trkpt><trkpt lat="38.0841851" lon="15.774191"><ele>613.0</ele><time>2026-04-20T16:11:39.805Z</time></trkpt><trkpt lat="38.084265" lon="15.7742527"><ele>613.0</ele><time>2026-04-20T16:11:40.803Z</time></trkpt><trkpt lat="38.0843324" lon="15.7743408"><ele>613.0</ele><time>2026-04-20T16:11:41.804Z</time></trkpt><trkpt lat="38.0843972" lon="15.7744265"><ele>612.1666666666667</ele><time>2026-04-20T16:11:42.805Z</time></trkpt><trkpt lat="38.0844567" lon="15.7745102"><ele>611.3333333333334</ele><time>2026-04-20T16:11:43.804Z</time></trkpt><trkpt lat="38.0845134" lon="15.7745802"><ele>610.5</ele><time>2026-04-20T16:11:44.805Z</time></trkpt><trkpt lat="38.0845749" lon="15.7746345"><ele>609.6666666666666</ele><time>2026-04-20T16:11:45.805Z</time></trkpt><trkpt lat="38.0846429" lon="15.7746622"><ele>608.8333333333333</ele><time>2026-04-20T16:11:46.803Z</time></trkpt><trkpt lat="38.0847164" lon="15.7746524"><ele>608.0</ele><time>2026-04-20T16:11:47.805Z</time></trkpt><trkpt lat="38.0847952" lon="15.7746169"><ele>608.0</ele><time>2026-04-20T16:11:48.804Z</time></trkpt><trkpt lat="38.0848744" lon="15.7745722"><ele>608.0</ele><time>2026-04-20T16:11:49.804Z</time></trkpt><trkpt lat="38.0849505" lon="15.7745238"><ele>608.0</ele><time>2026-04-20T16:11:50.805Z</time></trkpt><trkpt lat="38.0850268" lon="15.7744754"><ele>608.0</ele><time>2026-04-20T16:11:51.805Z</time></trkpt><trkpt lat="38.0851008" lon="15.7744277"><ele>608.0</ele><time>2026-04-20T16:11:52.804Z</time></trkpt><trkpt lat="38.0851758" lon="15.7743768"><ele>608.0</ele><time>2026-04-20T16:11:53.804Z</time></trkpt><trkpt lat="38.0852586" lon="15.7743348"><ele>599.8</ele><time>2026-04-20T16:11:54.804Z</time></trkpt><trkpt lat="38.0853418" lon="15.7742777"><ele>591.5999999999999</ele><time>2026-04-20T16:11:55.805Z</time></trkpt><trkpt lat="38.0854143" lon="15.7741915"><ele>583.4000000000001</ele><time>2026-04-20T16:11:56.806Z</time></trkpt><trkpt lat="38.0854802" lon="15.7740877"><ele>575.2</ele><time>2026-04-20T16:11:57.805Z</time></trkpt><trkpt lat="38.0855364" lon="15.7739709"><ele>567.0</ele><time>2026-04-20T16:11:58.804Z</time></trkpt><trkpt lat="38.0855835" lon="15.7738493"><ele>567.0</ele><time>2026-04-20T16:11:59.806Z</time></trkpt><trkpt lat="38.0856264" lon="15.7737253"><ele>567.0</ele><time>2026-04-20T16:12:00.806Z</time></trkpt><trkpt lat="38.0856571" lon="15.7735952"><ele>567.0</ele><time>2026-04-20T16:12:01.805Z</time></trkpt><trkpt lat="38.0856731" lon="15.7734671"><ele>567.0</ele><time>2026-04-20T16:12:02.805Z</time></trkpt><trkpt lat="38.0856692" lon="15.7733491"><ele>567.0</ele><time>2026-04-20T16:12:03.805Z</time></trkpt><trkpt lat="38.0856304" lon="15.773246"><ele>567.0</ele><time>2026-04-20T16:12:04.805Z</time></trkpt><trkpt lat="38.0855705" lon="15.773158"><ele>567.0</ele><time>2026-04-20T16:12:05.805Z</time></trkpt><trkpt lat="38.0854934" lon="15.7730967"><ele>567.0</ele><time>2026-04-20T16:12:06.804Z</time></trkpt><trkpt lat="38.0854109" lon="15.7730627"><ele>567.0</ele><time>2026-04-20T16:12:07.804Z</time></trkpt><trkpt lat="38.0853358" lon="15.7730349"><ele>567.0</ele><time>2026-04-20T16:12:08.805Z</time></trkpt><trkpt lat="38.0852702" lon="15.7730088"><ele>567.0</ele><time>2026-04-20T16:12:09.804Z</time></trkpt><trkpt lat="38.0852113" lon="15.7729204"><ele>567.0</ele><time>2026-04-20T16:12:11.804Z</time></trkpt><trkpt lat="38.0852411" lon="15.7727818"><ele>567.0</ele><time>2026-04-20T16:12:13.804Z</time></trkpt><trkpt lat="38.0852767" lon="15.7726837"><ele>567.0</ele><time>2026-04-20T16:12:14.804Z</time></trkpt><trkpt lat="38.0853096" lon="15.7725788"><ele>567.0</ele><time>2026-04-20T16:12:15.803Z</time></trkpt><trkpt lat="38.0853328" lon="15.7724716"><ele>567.0</ele><time>2026-04-20T16:12:16.803Z</time></trkpt><trkpt lat="38.0853549" lon="15.7723707"><ele>566.6666666666666</ele><time>2026-04-20T16:12:17.804Z</time></trkpt><trkpt lat="38.0853662" lon="15.7722773"><ele>566.3333333333334</ele><time>2026-04-20T16:12:18.803Z</time></trkpt><trkpt lat="38.0853683" lon="15.77219"><ele>566.0</ele><time>2026-04-20T16:12:19.805Z</time></trkpt><trkpt lat="38.0853783" lon="15.7720983"><ele>565.6666666666667</ele><time>2026-04-20T16:12:20.804Z</time></trkpt><trkpt lat="38.0853917" lon="15.772"><ele>565.3333333333334</ele><time>2026-04-20T16:12:21.804Z</time></trkpt><trkpt lat="38.0854017" lon="15.7718883"><ele>565.0</ele><time>2026-04-20T16:12:22.804Z</time></trkpt><trkpt lat="38.0854067" lon="15.7717667"><ele>565.0</ele><time>2026-04-20T16:12:23.804Z</time></trkpt><trkpt lat="38.08543" lon="15.7716483"><ele>565.0</ele><time>2026-04-20T16:12:24.805Z</time></trkpt><trkpt lat="38.0854617" lon="15.7715367"><ele>565.0</ele><time>2026-04-20T16:12:25.805Z</time></trkpt><trkpt lat="38.0854933" lon="15.7714267"><ele>565.0</ele><time>2026-04-20T16:12:26.804Z</time></trkpt><trkpt lat="38.08553" lon="15.7713217"><ele>565.0</ele><time>2026-04-20T16:12:27.803Z</time></trkpt><trkpt lat="38.0855567" lon="15.771215"><ele>565.0</ele><time>2026-04-20T16:12:28.806Z</time></trkpt><trkpt lat="38.0855533" lon="15.7710983"><ele>565.0</ele><time>2026-04-20T16:12:29.805Z</time></trkpt><trkpt lat="38.085555" lon="15.7709867"><ele>565.0</ele><time>2026-04-20T16:12:30.806Z</time></trkpt><trkpt lat="38.08553" lon="15.77088"><ele>565.0</ele><time>2026-04-20T16:12:31.803Z</time></trkpt><trkpt lat="38.0854817" lon="15.7707883"><ele>565.0</ele><time>2026-04-20T16:12:32.806Z</time></trkpt><trkpt lat="38.085415" lon="15.77071"><ele>565.0</ele><time>2026-04-20T16:12:33.803Z</time></trkpt><trkpt lat="38.08534" lon="15.7706417"><ele>567.3333333333334</ele><time>2026-04-20T16:12:34.805Z</time></trkpt><trkpt lat="38.08529" lon="15.7705517"><ele>569.6666666666667</ele><time>2026-04-20T16:12:35.804Z</time></trkpt><trkpt lat="38.0852483" lon="15.7704633"><ele>572.0</ele><time>2026-04-20T16:12:36.804Z</time></trkpt><trkpt lat="38.0852283" lon="15.7703733"><ele>574.3333333333334</ele><time>2026-04-20T16:12:37.803Z</time></trkpt><trkpt lat="38.085215" lon="15.7702767"><ele>576.6666666666666</ele><time>2026-04-20T16:12:38.805Z</time></trkpt><trkpt lat="38.085205" lon="15.7701683"><ele>579.0</ele><time>2026-04-20T16:12:39.803Z</time></trkpt><trkpt lat="38.0852167" lon="15.7700567"><ele>582.2</ele><time>2026-04-20T16:12:40.804Z</time></trkpt><trkpt lat="38.0852533" lon="15.7699517"><ele>585.4</ele><time>2026-04-20T16:12:41.804Z</time></trkpt><trkpt lat="38.0853267" lon="15.7698633"><ele>588.6</ele><time>2026-04-20T16:12:42.804Z</time></trkpt><trkpt lat="38.0854017" lon="15.7697717"><ele>591.8</ele><time>2026-04-20T16:12:43.804Z</time></trkpt><trkpt lat="38.0854933" lon="15.76967"><ele>595.0</ele><time>2026-04-20T16:12:44.804Z</time></trkpt><trkpt lat="38.08559" lon="15.7695717"><ele>595.0</ele><time>2026-04-20T16:12:45.805Z</time></trkpt><trkpt lat="38.0856833" lon="15.769495"><ele>595.0</ele><time>2026-04-20T16:12:46.804Z</time></trkpt><trkpt lat="38.0857367" lon="15.769405"><ele>595.0</ele><time>2026-04-20T16:12:47.804Z</time></trkpt><trkpt lat="38.0857667" lon="15.7693183"><ele>595.0</ele><time>2026-04-20T16:12:48.804Z</time></trkpt><trkpt lat="38.085755" lon="15.7692367"><ele>595.0</ele><time>2026-04-20T16:12:49.803Z</time></trkpt><trkpt lat="38.085685" lon="15.7691367"><ele>595.0</ele><time>2026-04-20T16:12:51.804Z</time></trkpt><trkpt lat="38.0856117" lon="15.7691017"><ele>596.3333333333334</ele><time>2026-04-20T16:12:52.805Z</time></trkpt><trkpt lat="38.085525" lon="15.769065"><ele>597.6666666666667</ele><time>2026-04-20T16:12:53.804Z</time></trkpt><trkpt lat="38.0854617" lon="15.7690067"><ele>599.0</ele><time>2026-04-20T16:12:54.803Z</time></trkpt><trkpt lat="38.0854267" lon="15.76893"><ele>600.3333333333334</ele><time>2026-04-20T16:12:55.804Z</time></trkpt><trkpt lat="38.0854117" lon="15.7688417"><ele>601.6666666666666</ele><time>2026-04-20T16:12:56.803Z</time></trkpt><trkpt lat="38.08541" lon="15.7687483"><ele>603.0</ele><time>2026-04-20T16:12:57.804Z</time></trkpt><trkpt lat="38.0854117" lon="15.7686433"><ele>603.0</ele><time>2026-04-20T16:12:58.804Z</time></trkpt><trkpt lat="38.0854367" lon="15.768535"><ele>603.0</ele><time>2026-04-20T16:12:59.804Z</time></trkpt><trkpt lat="38.0854717" lon="15.7684333"><ele>603.0</ele><time>2026-04-20T16:13:00.804Z</time></trkpt><trkpt lat="38.0855017" lon="15.7683333"><ele>603.0</ele><time>2026-04-20T16:13:01.803Z</time></trkpt><trkpt lat="38.0855217" lon="15.768235"><ele>603.0</ele><time>2026-04-20T16:13:02.807Z</time></trkpt><trkpt lat="38.085545" lon="15.7681467"><ele>603.0</ele><time>2026-04-20T16:13:03.804Z</time></trkpt><trkpt lat="38.08557" lon="15.768065"><ele>604.7142857142858</ele><time>2026-04-20T16:13:04.805Z</time></trkpt><trkpt lat="38.0855933" lon="15.76798"><ele>606.4285714285713</ele><time>2026-04-20T16:13:05.805Z</time></trkpt><trkpt lat="38.0856083" lon="15.7679"><ele>608.1428571428571</ele><time>2026-04-20T16:13:06.804Z</time></trkpt><trkpt lat="38.0855633" lon="15.767815"><ele>609.8571428571429</ele><time>2026-04-20T16:13:07.806Z</time></trkpt><trkpt lat="38.08555" lon="15.7677317"><ele>611.5714285714287</ele><time>2026-04-20T16:13:08.806Z</time></trkpt><trkpt lat="38.085555" lon="15.7676417"><ele>613.2857142857142</ele><time>2026-04-20T16:13:09.804Z</time></trkpt><trkpt lat="38.085565" lon="15.7675617"><ele>615.0</ele><time>2026-04-20T16:13:10.809Z</time></trkpt><trkpt lat="38.085565" lon="15.7674717"><ele>618.4285714285714</ele><time>2026-04-20T16:13:11.805Z</time></trkpt><trkpt lat="38.0855617" lon="15.7673783"><ele>621.8571428571429</ele><time>2026-04-20T16:13:12.804Z</time></trkpt><trkpt lat="38.085535" lon="15.7672967"><ele>625.2857142857143</ele><time>2026-04-20T16:13:13.804Z</time></trkpt><trkpt lat="38.08551" lon="15.7672167"><ele>628.7142857142858</ele><time>2026-04-20T16:13:14.804Z</time></trkpt><trkpt lat="38.085465" lon="15.7671483"><ele>632.1428571428571</ele><time>2026-04-20T16:13:15.804Z</time></trkpt><trkpt lat="38.0854083" lon="15.7671"><ele>635.5714285714287</ele><time>2026-04-20T16:13:16.804Z</time></trkpt><trkpt lat="38.085345" lon="15.7670917"><ele>639.0</ele><time>2026-04-20T16:13:17.804Z</time></trkpt><trkpt lat="38.0852817" lon="15.7671217"><ele>639.0</ele><time>2026-04-20T16:13:18.804Z</time></trkpt><trkpt lat="38.0852133" lon="15.7671467"><ele>639.0</ele><time>2026-04-20T16:13:19.804Z</time></trkpt><trkpt lat="38.0851433" lon="15.7671733"><ele>639.0</ele><time>2026-04-20T16:13:20.805Z</time></trkpt><trkpt lat="38.085065" lon="15.7672017"><ele>639.0</ele><time>2026-04-20T16:13:21.805Z</time></trkpt><trkpt lat="38.08498" lon="15.7672317"><ele>639.0</ele><time>2026-04-20T16:13:22.804Z</time></trkpt><trkpt lat="38.0849" lon="15.76727"><ele>639.0</ele><time>2026-04-20T16:13:23.804Z</time></trkpt><trkpt lat="38.08483" lon="15.7673217"><ele>638.6666666666666</ele><time>2026-04-20T16:13:24.804Z</time></trkpt><trkpt lat="38.0847633" lon="15.7673667"><ele>638.3333333333334</ele><time>2026-04-20T16:13:25.804Z</time></trkpt><trkpt lat="38.0847" lon="15.7674217"><ele>638.0</ele><time>2026-04-20T16:13:26.807Z</time></trkpt><trkpt lat="38.084635" lon="15.7674483"><ele>637.6666666666667</ele><time>2026-04-20T16:13:27.804Z</time></trkpt><trkpt lat="38.0845633" lon="15.7674517"><ele>637.3333333333334</ele><time>2026-04-20T16:13:28.803Z</time></trkpt><trkpt lat="38.0844933" lon="15.7674267"><ele>637.0</ele><time>2026-04-20T16:13:29.804Z</time></trkpt><trkpt lat="38.0844167" lon="15.7673783"><ele>637.0</ele><time>2026-04-20T16:13:30.804Z</time></trkpt><trkpt lat="38.0843467" lon="15.7673"><ele>637.0</ele><time>2026-04-20T16:13:31.804Z</time></trkpt><trkpt lat="38.084285" lon="15.7672067"><ele>637.0</ele><time>2026-04-20T16:13:32.804Z</time></trkpt><trkpt lat="38.0842333" lon="15.7671117"><ele>637.0</ele><time>2026-04-20T16:13:33.803Z</time></trkpt><trkpt lat="38.084175" lon="15.76702"><ele>637.0</ele><time>2026-04-20T16:13:34.804Z</time></trkpt><trkpt lat="38.08412" lon="15.766925"><ele>633.5</ele><time>2026-04-20T16:13:35.804Z</time></trkpt><trkpt lat="38.0840617" lon="15.7668333"><ele>630.0</ele><time>2026-04-20T16:13:36.804Z</time></trkpt><trkpt lat="38.0840083" lon="15.7667483"><ele>626.5</ele><time>2026-04-20T16:13:37.804Z</time></trkpt><trkpt lat="38.0839483" lon="15.7666767"><ele>623.0</ele><time>2026-04-20T16:13:38.804Z</time></trkpt><trkpt lat="38.0838967" lon="15.7666"><ele>619.5</ele><time>2026-04-20T16:13:39.804Z</time></trkpt><trkpt lat="38.08385" lon="15.7665183"><ele>616.0</ele><time>2026-04-20T16:13:40.805Z</time></trkpt><trkpt lat="38.0838167" lon="15.7664317"><ele>616.0</ele><time>2026-04-20T16:13:41.804Z</time></trkpt><trkpt lat="38.0838017" lon="15.766335"><ele>616.0</ele><time>2026-04-20T16:13:42.803Z</time></trkpt><trkpt lat="38.0838017" lon="15.7662333"><ele>616.0</ele><time>2026-04-20T16:13:43.804Z</time></trkpt><trkpt lat="38.083795" lon="15.76613"><ele>616.0</ele><time>2026-04-20T16:13:44.809Z</time></trkpt><trkpt lat="38.0838017" lon="15.766015"><ele>616.0</ele><time>2026-04-20T16:13:45.804Z</time></trkpt><trkpt lat="38.083795" lon="15.7659133"><ele>616.0</ele><time>2026-04-20T16:13:46.804Z</time></trkpt><trkpt lat="38.0837567" lon="15.765825"><ele>617.8333333333334</ele><time>2026-04-20T16:13:47.803Z</time></trkpt><trkpt lat="38.0837" lon="15.76575"><ele>619.6666666666667</ele><time>2026-04-20T16:13:48.805Z</time></trkpt><trkpt lat="38.0836283" lon="15.765685"><ele>621.5</ele><time>2026-04-20T16:13:49.803Z</time></trkpt><trkpt lat="38.083555" lon="15.7656267"><ele>623.3333333333334</ele><time>2026-04-20T16:13:50.804Z</time></trkpt><trkpt lat="38.0834817" lon="15.7655817"><ele>625.1666666666666</ele><time>2026-04-20T16:13:51.804Z</time></trkpt><trkpt lat="38.08341" lon="15.7655467"><ele>627.0</ele><time>2026-04-20T16:13:52.803Z</time></trkpt><trkpt lat="38.0833967" lon="15.765405"><ele>627.0</ele><time>2026-04-20T16:13:54.804Z</time></trkpt><trkpt lat="38.0834483" lon="15.76527"><ele>627.0</ele><time>2026-04-20T16:13:56.805Z</time></trkpt><trkpt lat="38.0834867" lon="15.765195"><ele>627.0</ele><time>2026-04-20T16:13:57.805Z</time></trkpt><trkpt lat="38.0835183" lon="15.7651067"><ele>627.0</ele><time>2026-04-20T16:13:58.805Z</time></trkpt><trkpt lat="38.0835483" lon="15.7650083"><ele>627.0</ele><time>2026-04-20T16:13:59.805Z</time></trkpt><trkpt lat="38.083585" lon="15.764905"><ele>627.0</ele><time>2026-04-20T16:14:00.806Z</time></trkpt><trkpt lat="38.08362" lon="15.764805"><ele>627.6</ele><time>2026-04-20T16:14:01.805Z</time></trkpt><trkpt lat="38.0836533" lon="15.7646983"><ele>628.2</ele><time>2026-04-20T16:14:02.806Z</time></trkpt><trkpt lat="38.0836833" lon="15.7645833"><ele>628.8</ele><time>2026-04-20T16:14:03.804Z</time></trkpt><trkpt lat="38.0837017" lon="15.7644617"><ele>629.4</ele><time>2026-04-20T16:14:04.805Z</time></trkpt><trkpt lat="38.08371" lon="15.7643317"><ele>630.0</ele><time>2026-04-20T16:14:05.805Z</time></trkpt><trkpt lat="38.0837133" lon="15.7642"><ele>630.0</ele><time>2026-04-20T16:14:06.805Z</time></trkpt><trkpt lat="38.0836867" lon="15.7640683"><ele>630.0</ele><time>2026-04-20T16:14:07.805Z</time></trkpt><trkpt lat="38.0837217" lon="15.7639567"><ele>630.0</ele><time>2026-04-20T16:14:08.806Z</time></trkpt><trkpt lat="38.0837517" lon="15.7638533"><ele>630.0</ele><time>2026-04-20T16:14:09.804Z</time></trkpt><trkpt lat="38.083805" lon="15.7637567"><ele>630.0</ele><time>2026-04-20T16:14:10.804Z</time></trkpt><trkpt lat="38.083845" lon="15.763655"><ele>630.0</ele><time>2026-04-20T16:14:11.803Z</time></trkpt><trkpt lat="38.0838683" lon="15.76355"><ele>630.0</ele><time>2026-04-20T16:14:12.805Z</time></trkpt><trkpt lat="38.0838767" lon="15.76344"><ele>630.0</ele><time>2026-04-20T16:14:13.803Z</time></trkpt><trkpt lat="38.0838667" lon="15.76333"><ele>630.0</ele><time>2026-04-20T16:14:14.806Z</time></trkpt><trkpt lat="38.0838517" lon="15.7632267"><ele>630.0</ele><time>2026-04-20T16:14:15.805Z</time></trkpt><trkpt lat="38.0838217" lon="15.763125"><ele>630.0</ele><time>2026-04-20T16:14:16.805Z</time></trkpt><trkpt lat="38.0837867" lon="15.7630333"><ele>630.5</ele><time>2026-04-20T16:14:17.805Z</time></trkpt><trkpt lat="38.0837367" lon="15.7629467"><ele>631.0</ele><time>2026-04-20T16:14:18.805Z</time></trkpt><trkpt lat="38.0836767" lon="15.762865"><ele>631.5</ele><time>2026-04-20T16:14:19.806Z</time></trkpt><trkpt lat="38.0836133" lon="15.7627967"><ele>632.0</ele><time>2026-04-20T16:14:20.806Z</time></trkpt><trkpt lat="38.083555" lon="15.7627467"><ele>632.5</ele><time>2026-04-20T16:14:21.806Z</time></trkpt><trkpt lat="38.0834617" lon="15.7627033"><ele>633.0</ele><time>2026-04-20T16:14:23.805Z</time></trkpt><trkpt lat="38.08341" lon="15.7626567"><ele>630.8</ele><time>2026-04-20T16:14:25.806Z</time></trkpt><trkpt lat="38.0833667" lon="15.762545"><ele>628.5999999999999</ele><time>2026-04-20T16:14:28.804Z</time></trkpt><trkpt lat="38.0833333" lon="15.76244"><ele>626.4000000000001</ele><time>2026-04-20T16:14:30.804Z</time></trkpt><trkpt lat="38.0832867" lon="15.7622883"><ele>624.2</ele><time>2026-04-20T16:14:32.805Z</time></trkpt><trkpt lat="38.083255" lon="15.762195"><ele>622.0</ele><time>2026-04-20T16:14:33.804Z</time></trkpt><trkpt lat="38.0832167" lon="15.762095"><ele>622.0</ele><time>2026-04-20T16:14:34.804Z</time></trkpt><trkpt lat="38.083185" lon="15.7619867"><ele>622.0</ele><time>2026-04-20T16:14:35.803Z</time></trkpt><trkpt lat="38.0831483" lon="15.761885"><ele>622.0</ele><time>2026-04-20T16:14:36.804Z</time></trkpt><trkpt lat="38.0830983" lon="15.761785"><ele>622.0</ele><time>2026-04-20T16:14:37.804Z</time></trkpt><trkpt lat="38.083045" lon="15.76168"><ele>622.0</ele><time>2026-04-20T16:14:38.805Z</time></trkpt><trkpt lat="38.0830067" lon="15.76157"><ele>625.5</ele><time>2026-04-20T16:14:39.804Z</time></trkpt><trkpt lat="38.0829967" lon="15.761465"><ele>629.0</ele><time>2026-04-20T16:14:40.805Z</time></trkpt><trkpt lat="38.0829767" lon="15.76134"><ele>632.5</ele><time>2026-04-20T16:14:42.803Z</time></trkpt><trkpt lat="38.0829083" lon="15.7612567"><ele>636.0</ele><time>2026-04-20T16:14:44.804Z</time></trkpt><trkpt lat="38.0828383" lon="15.761225"><ele>639.5</ele><time>2026-04-20T16:14:45.804Z</time></trkpt><trkpt lat="38.0827667" lon="15.7611933"><ele>643.0</ele><time>2026-04-20T16:14:46.804Z</time></trkpt><trkpt lat="38.0826817" lon="15.761165"><ele>643.0</ele><time>2026-04-20T16:14:47.803Z</time></trkpt><trkpt lat="38.082595" lon="15.7611333"><ele>643.0</ele><time>2026-04-20T16:14:48.804Z</time></trkpt><trkpt lat="38.08251" lon="15.761105"><ele>643.0</ele><time>2026-04-20T16:14:49.805Z</time></trkpt><trkpt lat="38.0824317" lon="15.76107"><ele>643.0</ele><time>2026-04-20T16:14:50.805Z</time></trkpt><trkpt lat="38.082355" lon="15.7610483"><ele>643.0</ele><time>2026-04-20T16:14:51.803Z</time></trkpt><trkpt lat="38.0822817" lon="15.7610233"><ele>643.0</ele><time>2026-04-20T16:14:52.805Z</time></trkpt><trkpt lat="38.0822267" lon="15.7609583"><ele>639.8571428571428</ele><time>2026-04-20T16:14:53.804Z</time></trkpt><trkpt lat="38.0821867" lon="15.76088"><ele>636.7142857142858</ele><time>2026-04-20T16:14:54.806Z</time></trkpt><trkpt lat="38.0821583" lon="15.7607983"><ele>633.5714285714286</ele><time>2026-04-20T16:14:55.804Z</time></trkpt><trkpt lat="38.08214" lon="15.7607167"><ele>630.4285714285713</ele><time>2026-04-20T16:14:56.805Z</time></trkpt><trkpt lat="38.0821567" lon="15.760635"><ele>627.2857142857142</ele><time>2026-04-20T16:14:57.804Z</time></trkpt><trkpt lat="38.0822" lon="15.7605633"><ele>624.1428571428571</ele><time>2026-04-20T16:14:58.803Z</time></trkpt><trkpt lat="38.0822717" lon="15.76052"><ele>621.0</ele><time>2026-04-20T16:14:59.804Z</time></trkpt><trkpt lat="38.0823317" lon="15.7604683"><ele>620.9999999999999</ele><time>2026-04-20T16:15:00.804Z</time></trkpt><trkpt lat="38.0823983" lon="15.760415"><ele>621.0</ele><time>2026-04-20T16:15:01.804Z</time></trkpt><trkpt lat="38.0824617" lon="15.76036"><ele>621.0</ele><time>2026-04-20T16:15:02.806Z</time></trkpt><trkpt lat="38.08251" lon="15.7602883"><ele>621.0</ele><time>2026-04-20T16:15:03.804Z</time></trkpt><trkpt lat="38.082555" lon="15.7602183"><ele>621.0</ele><time>2026-04-20T16:15:04.806Z</time></trkpt><trkpt lat="38.08258" lon="15.7601383"><ele>620.9999999999999</ele><time>2026-04-20T16:15:05.805Z</time></trkpt><trkpt lat="38.08257" lon="15.760055"><ele>621.0</ele><time>2026-04-20T16:15:06.806Z</time></trkpt><trkpt lat="38.0825317" lon="15.7599733"><ele>623.1666666666666</ele><time>2026-04-20T16:15:07.806Z</time></trkpt><trkpt lat="38.08246" lon="15.75991"><ele>625.3333333333334</ele><time>2026-04-20T16:15:08.805Z</time></trkpt><trkpt lat="38.0823783" lon="15.7598583"><ele>627.5</ele><time>2026-04-20T16:15:09.805Z</time></trkpt><trkpt lat="38.082295" lon="15.759815"><ele>629.6666666666667</ele><time>2026-04-20T16:15:10.805Z</time></trkpt><trkpt lat="38.0822017" lon="15.759795"><ele>631.8333333333334</ele><time>2026-04-20T16:15:11.805Z</time></trkpt><trkpt lat="38.0821217" lon="15.7597683"><ele>634.0</ele><time>2026-04-20T16:15:12.809Z</time></trkpt><trkpt lat="38.0820533" lon="15.7597067"><ele>634.0</ele><time>2026-04-20T16:15:13.804Z</time></trkpt><trkpt lat="38.0819833" lon="15.75963"><ele>634.0</ele><time>2026-04-20T16:15:14.805Z</time></trkpt><trkpt lat="38.081905" lon="15.7595517"><ele>634.0</ele><time>2026-04-20T16:15:15.804Z</time></trkpt><trkpt lat="38.0818183" lon="15.7594983"><ele>634.0</ele><time>2026-04-20T16:15:16.805Z</time></trkpt><trkpt lat="38.081725" lon="15.759455"><ele>634.0</ele><time>2026-04-20T16:15:17.805Z</time></trkpt><trkpt lat="38.08163" lon="15.7594117"><ele>633.6</ele><time>2026-04-20T16:15:18.806Z</time></trkpt><trkpt lat="38.0815367" lon="15.7593633"><ele>633.2</ele><time>2026-04-20T16:15:19.806Z</time></trkpt><trkpt lat="38.08145" lon="15.7592967"><ele>632.8000000000001</ele><time>2026-04-20T16:15:20.804Z</time></trkpt><trkpt lat="38.0813633" lon="15.7592283"><ele>632.4</ele><time>2026-04-20T16:15:21.804Z</time></trkpt><trkpt lat="38.0812883" lon="15.7591317"><ele>632.0</ele><time>2026-04-20T16:15:22.805Z</time></trkpt><trkpt lat="38.0812117" lon="15.7590417"><ele>632.0</ele><time>2026-04-20T16:15:23.804Z</time></trkpt><trkpt lat="38.081135" lon="15.75896"><ele>632.0</ele><time>2026-04-20T16:15:24.804Z</time></trkpt><trkpt lat="38.0810683" lon="15.7588833"><ele>632.0</ele><time>2026-04-20T16:15:25.803Z</time></trkpt><trkpt lat="38.0810117" lon="15.7588067"><ele>632.0</ele><time>2026-04-20T16:15:26.804Z</time></trkpt><trkpt lat="38.08099" lon="15.7587067"><ele>632.0</ele><time>2026-04-20T16:15:27.803Z</time></trkpt><trkpt lat="38.0809867" lon="15.758595"><ele>632.0</ele><time>2026-04-20T16:15:28.805Z</time></trkpt><trkpt lat="38.080985" lon="15.7584733"><ele>636.0</ele><time>2026-04-20T16:15:29.805Z</time></trkpt><trkpt lat="38.0809783" lon="15.7583467"><ele>640.0</ele><time>2026-04-20T16:15:30.806Z</time></trkpt><trkpt lat="38.080985" lon="15.758225"><ele>644.0</ele><time>2026-04-20T16:15:31.806Z</time></trkpt><trkpt lat="38.0809883" lon="15.7581167"><ele>648.0</ele><time>2026-04-20T16:15:32.806Z</time></trkpt><trkpt lat="38.0809467" lon="15.758035"><ele>652.0</ele><time>2026-04-20T16:15:33.804Z</time></trkpt><trkpt lat="38.0808867" lon="15.7579683"><ele>656.0</ele><time>2026-04-20T16:15:34.804Z</time></trkpt><trkpt lat="38.08082" lon="15.7579033"><ele>652.0</ele><time>2026-04-20T16:15:35.804Z</time></trkpt><trkpt lat="38.0807367" lon="15.7578633"><ele>648.0</ele><time>2026-04-20T16:15:36.805Z</time></trkpt><trkpt lat="38.0806483" lon="15.7578417"><ele>644.0</ele><time>2026-04-20T16:15:37.804Z</time></trkpt><trkpt lat="38.08057" lon="15.757815"><ele>640.0</ele><time>2026-04-20T16:15:38.804Z</time></trkpt><trkpt lat="38.0804967" lon="15.7577917"><ele>636.0</ele><time>2026-04-20T16:15:39.804Z</time></trkpt><trkpt lat="38.0804417" lon="15.7577433"><ele>632.0</ele><time>2026-04-20T16:15:40.803Z</time></trkpt><trkpt lat="38.0804033" lon="15.7576783"><ele>632.0</ele><time>2026-04-20T16:15:41.804Z</time></trkpt><trkpt lat="38.08038" lon="15.7575967"><ele>632.0</ele><time>2026-04-20T16:15:42.805Z</time></trkpt><trkpt lat="38.08036" lon="15.7575083"><ele>632.0</ele><time>2026-04-20T16:15:43.805Z</time></trkpt><trkpt lat="38.0803267" lon="15.7574283"><ele>632.0</ele><time>2026-04-20T16:15:44.805Z</time></trkpt><trkpt lat="38.0802767" lon="15.7573517"><ele>632.0</ele><time>2026-04-20T16:15:45.804Z</time></trkpt><trkpt lat="38.0802217" lon="15.7572733"><ele>632.0</ele><time>2026-04-20T16:15:46.806Z</time></trkpt><trkpt lat="38.0801617" lon="15.75719"><ele>632.0</ele><time>2026-04-20T16:15:47.806Z</time></trkpt><trkpt lat="38.0800933" lon="15.757105"><ele>632.0</ele><time>2026-04-20T16:15:48.806Z</time></trkpt><trkpt lat="38.0800233" lon="15.7570167"><ele>632.0</ele><time>2026-04-20T16:15:49.805Z</time></trkpt><trkpt lat="38.0799467" lon="15.7569267"><ele>632.0</ele><time>2026-04-20T16:15:50.806Z</time></trkpt><trkpt lat="38.0798583" lon="15.7568333"><ele>632.0</ele><time>2026-04-20T16:15:51.804Z</time></trkpt><trkpt lat="38.07977" lon="15.75673"><ele>628.0</ele><time>2026-04-20T16:15:52.806Z</time></trkpt><trkpt lat="38.0796883" lon="15.7566217"><ele>624.0</ele><time>2026-04-20T16:15:53.806Z</time></trkpt><trkpt lat="38.0796033" lon="15.7565233"><ele>620.0</ele><time>2026-04-20T16:15:54.806Z</time></trkpt><trkpt lat="38.0795283" lon="15.7564267"><ele>616.0</ele><time>2026-04-20T16:15:55.804Z</time></trkpt><trkpt lat="38.0794717" lon="15.756325"><ele>612.0</ele><time>2026-04-20T16:15:56.806Z</time></trkpt><trkpt lat="38.0794267" lon="15.7562267"><ele>612.0</ele><time>2026-04-20T16:15:57.805Z</time></trkpt><trkpt lat="38.07941" lon="15.7561317"><ele>612.0</ele><time>2026-04-20T16:15:58.803Z</time></trkpt><trkpt lat="38.079475" lon="15.7560367"><ele>612.0</ele><time>2026-04-20T16:16:00.807Z</time></trkpt><trkpt lat="38.0795933" lon="15.7560283"><ele>612.0</ele><time>2026-04-20T16:16:02.805Z</time></trkpt><trkpt lat="38.07967" lon="15.75603"><ele>612.0</ele><time>2026-04-20T16:16:03.804Z</time></trkpt><trkpt lat="38.079755" lon="15.7560583"><ele>612.0</ele><time>2026-04-20T16:16:04.806Z</time></trkpt><trkpt lat="38.0798483" lon="15.7560933"><ele>612.0</ele><time>2026-04-20T16:16:05.804Z</time></trkpt><trkpt lat="38.0799517" lon="15.7561217"><ele>612.0</ele><time>2026-04-20T16:16:06.805Z</time></trkpt><trkpt lat="38.0800617" lon="15.7561483"><ele>612.0</ele><time>2026-04-20T16:16:07.805Z</time></trkpt><trkpt lat="38.080165" lon="15.7561883"><ele>612.0</ele><time>2026-04-20T16:16:08.806Z</time></trkpt><trkpt lat="38.0802667" lon="15.756215"><ele>616.2</ele><time>2026-04-20T16:16:09.804Z</time></trkpt><trkpt lat="38.08036" lon="15.7562083"><ele>620.4000000000001</ele><time>2026-04-20T16:16:10.804Z</time></trkpt><trkpt lat="38.080445" lon="15.756165"><ele>624.5999999999999</ele><time>2026-04-20T16:16:11.805Z</time></trkpt><trkpt lat="38.0805283" lon="15.7560983"><ele>628.8</ele><time>2026-04-20T16:16:12.804Z</time></trkpt><trkpt lat="38.080615" lon="15.756005"><ele>633.0</ele><time>2026-04-20T16:16:13.805Z</time></trkpt><trkpt lat="38.0807033" lon="15.7559033"><ele>636.0</ele><time>2026-04-20T16:16:14.806Z</time></trkpt><trkpt lat="38.0807867" lon="15.7557783"><ele>639.0</ele><time>2026-04-20T16:16:15.804Z</time></trkpt><trkpt lat="38.08089" lon="15.755675"><ele>642.0</ele><time>2026-04-20T16:16:16.804Z</time></trkpt><trkpt lat="38.0809833" lon="15.7555533"><ele>645.0</ele><time>2026-04-20T16:16:17.805Z</time></trkpt><trkpt lat="38.0810517" lon="15.7554033"><ele>645.0</ele><time>2026-04-20T16:16:18.804Z</time></trkpt><trkpt lat="38.0811217" lon="15.75525"><ele>645.0</ele><time>2026-04-20T16:16:19.803Z</time></trkpt><trkpt lat="38.0811883" lon="15.7551033"><ele>645.0</ele><time>2026-04-20T16:16:20.804Z</time></trkpt><trkpt lat="38.0812567" lon="15.7549583"><ele>645.0</ele><time>2026-04-20T16:16:21.803Z</time></trkpt><trkpt lat="38.0813283" lon="15.754815"><ele>638.0</ele><time>2026-04-20T16:16:22.802Z</time></trkpt><trkpt lat="38.0814" lon="15.7546733"><ele>631.0</ele><time>2026-04-20T16:16:23.804Z</time></trkpt><trkpt lat="38.0814667" lon="15.7545267"><ele>624.0</ele><time>2026-04-20T16:16:24.802Z</time></trkpt><trkpt lat="38.0815217" lon="15.7543817"><ele>617.0</ele><time>2026-04-20T16:16:25.803Z</time></trkpt><trkpt lat="38.081555" lon="15.7542267"><ele>619.25</ele><time>2026-04-20T16:16:26.803Z</time></trkpt><trkpt lat="38.0816067" lon="15.7540883"><ele>621.5</ele><time>2026-04-20T16:16:27.804Z</time></trkpt><trkpt lat="38.0816817" lon="15.75397"><ele>623.75</ele><time>2026-04-20T16:16:28.806Z</time></trkpt><trkpt lat="38.0817483" lon="15.7538533"><ele>626.0</ele><time>2026-04-20T16:16:29.803Z</time></trkpt><trkpt lat="38.08181" lon="15.7537283"><ele>626.0</ele><time>2026-04-20T16:16:30.803Z</time></trkpt><trkpt lat="38.0818783" lon="15.7536083"><ele>626.0</ele><time>2026-04-20T16:16:31.803Z</time></trkpt><trkpt lat="38.08195" lon="15.7534883"><ele>626.0</ele><time>2026-04-20T16:16:32.802Z</time></trkpt><trkpt lat="38.08202" lon="15.7533633"><ele>626.0</ele><time>2026-04-20T16:16:33.803Z</time></trkpt><trkpt lat="38.082085" lon="15.753235"><ele>621.0</ele><time>2026-04-20T16:16:34.802Z</time></trkpt><trkpt lat="38.0821433" lon="15.7531033"><ele>616.0</ele><time>2026-04-20T16:16:35.803Z</time></trkpt><trkpt lat="38.082215" lon="15.7529867"><ele>611.0</ele><time>2026-04-20T16:16:36.802Z</time></trkpt><trkpt lat="38.0822817" lon="15.7528767"><ele>606.0</ele><time>2026-04-20T16:16:37.804Z</time></trkpt><trkpt lat="38.08235" lon="15.7527733"><ele>607.0</ele><time>2026-04-20T16:16:38.802Z</time></trkpt><trkpt lat="38.0824083" lon="15.752665"><ele>608.0</ele><time>2026-04-20T16:16:39.803Z</time></trkpt><trkpt lat="38.082475" lon="15.7525667"><ele>609.0</ele><time>2026-04-20T16:16:40.803Z</time></trkpt><trkpt lat="38.082545" lon="15.7524783"><ele>610.0</ele><time>2026-04-20T16:16:41.802Z</time></trkpt><trkpt lat="38.08263" lon="15.7524033"><ele>611.0</ele><time>2026-04-20T16:16:42.802Z</time></trkpt><trkpt lat="38.08272" lon="15.7523317"><ele>611.0</ele><time>2026-04-20T16:16:43.803Z</time></trkpt><trkpt lat="38.082815" lon="15.7522683"><ele>611.0</ele><time>2026-04-20T16:16:44.804Z</time></trkpt><trkpt lat="38.0829067" lon="15.7521967"><ele>611.0</ele><time>2026-04-20T16:16:45.803Z</time></trkpt><trkpt lat="38.0830083" lon="15.7521367"><ele>611.0</ele><time>2026-04-20T16:16:46.803Z</time></trkpt><trkpt lat="38.0831083" lon="15.7520667"><ele>611.0</ele><time>2026-04-20T16:16:47.803Z</time></trkpt><trkpt lat="38.0832067" lon="15.7519933"><ele>608.5</ele><time>2026-04-20T16:16:48.805Z</time></trkpt><trkpt lat="38.0832933" lon="15.7518983"><ele>606.0</ele><time>2026-04-20T16:16:49.804Z</time></trkpt><trkpt lat="38.0833667" lon="15.7517867"><ele>603.5</ele><time>2026-04-20T16:16:50.806Z</time></trkpt><trkpt lat="38.0834217" lon="15.751655"><ele>601.0</ele><time>2026-04-20T16:16:51.805Z</time></trkpt><trkpt lat="38.083485" lon="15.7515317"><ele>601.0</ele><time>2026-04-20T16:16:52.804Z</time></trkpt><trkpt lat="38.083555" lon="15.7514167"><ele>601.0</ele><time>2026-04-20T16:16:53.803Z</time></trkpt><trkpt lat="38.083615" lon="15.7513"><ele>601.0</ele><time>2026-04-20T16:16:54.804Z</time></trkpt><trkpt lat="38.08367" lon="15.7511933"><ele>601.0</ele><time>2026-04-20T16:16:55.803Z</time></trkpt><trkpt lat="38.0837067" lon="15.7510967"><ele>601.0</ele><time>2026-04-20T16:16:56.804Z</time></trkpt><trkpt lat="38.0836917" lon="15.751015"><ele>601.0</ele><time>2026-04-20T16:16:57.804Z</time></trkpt><trkpt lat="38.0835733" lon="15.7510017"><ele>601.0</ele><time>2026-04-20T16:16:59.803Z</time></trkpt><trkpt lat="38.0835233" lon="15.751075"><ele>601.0</ele><time>2026-04-20T16:17:00.804Z</time></trkpt><trkpt lat="38.083485" lon="15.7511583"><ele>601.0</ele><time>2026-04-20T16:17:01.803Z</time></trkpt><trkpt lat="38.0834483" lon="15.75124"><ele>601.0</ele><time>2026-04-20T16:17:02.804Z</time></trkpt><trkpt lat="38.0834117" lon="15.7513283"><ele>601.0</ele><time>2026-04-20T16:17:03.805Z</time></trkpt><trkpt lat="38.0833617" lon="15.751415"><ele>601.0</ele><time>2026-04-20T16:17:04.802Z</time></trkpt><trkpt lat="38.083305" lon="15.7514883"><ele>601.0</ele><time>2026-04-20T16:17:05.802Z</time></trkpt><trkpt lat="38.0832333" lon="15.7515433"><ele>601.0</ele><time>2026-04-20T16:17:06.804Z</time></trkpt><trkpt lat="38.083155" lon="15.751585"><ele>601.0</ele><time>2026-04-20T16:17:07.802Z</time></trkpt><trkpt lat="38.0830683" lon="15.7516167"><ele>601.0</ele><time>2026-04-20T16:17:08.804Z</time></trkpt><trkpt lat="38.0829733" lon="15.7516483"><ele>601.0</ele><time>2026-04-20T16:17:09.803Z</time></trkpt><trkpt lat="38.0828717" lon="15.75169"><ele>603.5</ele><time>2026-04-20T16:17:10.803Z</time></trkpt><trkpt lat="38.0827683" lon="15.7517433"><ele>606.0</ele><time>2026-04-20T16:17:11.803Z</time></trkpt><trkpt lat="38.0826617" lon="15.7518"><ele>608.5</ele><time>2026-04-20T16:17:12.803Z</time></trkpt><trkpt lat="38.0825567" lon="15.751865"><ele>611.0</ele><time>2026-04-20T16:17:13.804Z</time></trkpt><trkpt lat="38.0824517" lon="15.7519317"><ele>603.0</ele><time>2026-04-20T16:17:14.804Z</time></trkpt><trkpt lat="38.0823483" lon="15.752"><ele>595.0</ele><time>2026-04-20T16:17:15.803Z</time></trkpt><trkpt lat="38.082245" lon="15.752065"><ele>587.0</ele><time>2026-04-20T16:17:16.802Z</time></trkpt><trkpt lat="38.0821467" lon="15.75215"><ele>579.0</ele><time>2026-04-20T16:17:17.805Z</time></trkpt><trkpt lat="38.0820583" lon="15.7522433"><ele>579.0</ele><time>2026-04-20T16:17:18.804Z</time></trkpt><trkpt lat="38.0819767" lon="15.752325"><ele>579.0</ele><time>2026-04-20T16:17:19.805Z</time></trkpt><trkpt lat="38.081905" lon="15.7523817"><ele>579.0</ele><time>2026-04-20T16:17:20.805Z</time></trkpt><trkpt lat="38.081835" lon="15.752405"><ele>579.0</ele><time>2026-04-20T16:17:21.805Z</time></trkpt><trkpt lat="38.08177" lon="15.7523767"><ele>579.0</ele><time>2026-04-20T16:17:22.805Z</time></trkpt><trkpt lat="38.081745" lon="15.7522883"><ele>579.0</ele><time>2026-04-20T16:17:23.805Z</time></trkpt><trkpt lat="38.0817683" lon="15.7521367"><ele>579.0</ele><time>2026-04-20T16:17:25.806Z</time></trkpt><trkpt lat="38.081825" lon="15.7520583"><ele>579.0</ele><time>2026-04-20T16:17:26.805Z</time></trkpt><trkpt lat="38.0819067" lon="15.751975"><ele>579.0</ele><time>2026-04-20T16:17:27.804Z</time></trkpt><trkpt lat="38.0819933" lon="15.7518883"><ele>579.0</ele><time>2026-04-20T16:17:28.806Z</time></trkpt><trkpt lat="38.082075" lon="15.7517817"><ele>579.0</ele><time>2026-04-20T16:17:29.804Z</time></trkpt><trkpt lat="38.0821567" lon="15.75166"><ele>579.75</ele><time>2026-04-20T16:17:30.805Z</time></trkpt><trkpt lat="38.0822333" lon="15.7515267"><ele>580.5</ele><time>2026-04-20T16:17:31.802Z</time></trkpt><trkpt lat="38.0823183" lon="15.7514017"><ele>581.25</ele><time>2026-04-20T16:17:32.804Z</time></trkpt><trkpt lat="38.082405" lon="15.7512767"><ele>582.0</ele><time>2026-04-20T16:17:33.804Z</time></trkpt><trkpt lat="38.0824883" lon="15.7511467"><ele>578.0</ele><time>2026-04-20T16:17:34.802Z</time></trkpt><trkpt lat="38.0825667" lon="15.7510183"><ele>574.0</ele><time>2026-04-20T16:17:35.803Z</time></trkpt><trkpt lat="38.082645" lon="15.75089"><ele>570.0</ele><time>2026-04-20T16:17:36.807Z</time></trkpt><trkpt lat="38.08272" lon="15.7507617"><ele>566.0</ele><time>2026-04-20T16:17:37.804Z</time></trkpt><trkpt lat="38.0827917" lon="15.7506317"><ele>566.0</ele><time>2026-04-20T16:17:38.806Z</time></trkpt><trkpt lat="38.0828667" lon="15.75051"><ele>566.0</ele><time>2026-04-20T16:17:39.803Z</time></trkpt><trkpt lat="38.0829283" lon="15.75038"><ele>566.0</ele><time>2026-04-20T16:17:40.802Z</time></trkpt><trkpt lat="38.0829883" lon="15.7502517"><ele>566.0</ele><time>2026-04-20T16:17:41.803Z</time></trkpt><trkpt lat="38.08305" lon="15.75013"><ele>565.0</ele><time>2026-04-20T16:17:42.804Z</time></trkpt><trkpt lat="38.0831017" lon="15.75001"><ele>564.0</ele><time>2026-04-20T16:17:43.803Z</time></trkpt><trkpt lat="38.08317" lon="15.749915"><ele>563.0</ele><time>2026-04-20T16:17:44.804Z</time></trkpt><trkpt lat="38.0832417" lon="15.74984"><ele>562.0</ele><time>2026-04-20T16:17:45.803Z</time></trkpt><trkpt lat="38.0832917" lon="15.7497617"><ele>561.0</ele><time>2026-04-20T16:17:46.806Z</time></trkpt><trkpt lat="38.0832517" lon="15.7496317"><ele>558.1666666666666</ele><time>2026-04-20T16:17:48.805Z</time></trkpt><trkpt lat="38.083185" lon="15.7496317"><ele>555.3333333333334</ele><time>2026-04-20T16:17:49.803Z</time></trkpt><trkpt lat="38.0831283" lon="15.7496767"><ele>552.5</ele><time>2026-04-20T16:17:50.804Z</time></trkpt><trkpt lat="38.083095" lon="15.7497817"><ele>549.6666666666667</ele><time>2026-04-20T16:17:51.804Z</time></trkpt><trkpt lat="38.0830617" lon="15.7498933"><ele>546.8333333333334</ele><time>2026-04-20T16:17:52.803Z</time></trkpt><trkpt lat="38.0829983" lon="15.749985"><ele>544.0</ele><time>2026-04-20T16:17:53.805Z</time></trkpt><trkpt lat="38.08291" lon="15.750065"><ele>544.0</ele><time>2026-04-20T16:17:54.805Z</time></trkpt><trkpt lat="38.082815" lon="15.7501383"><ele>544.0</ele><time>2026-04-20T16:17:55.804Z</time></trkpt><trkpt lat="38.082715" lon="15.75021"><ele>544.0</ele><time>2026-04-20T16:17:56.804Z</time></trkpt><trkpt lat="38.0826167" lon="15.7502833"><ele>544.0</ele><time>2026-04-20T16:17:57.803Z</time></trkpt><trkpt lat="38.082525" lon="15.7503633"><ele>542.0</ele><time>2026-04-20T16:17:58.803Z</time></trkpt><trkpt lat="38.08245" lon="15.7504483"><ele>540.0</ele><time>2026-04-20T16:17:59.805Z</time></trkpt><trkpt lat="38.082375" lon="15.7504983"><ele>538.0</ele><time>2026-04-20T16:18:00.805Z</time></trkpt><trkpt lat="38.0822933" lon="15.75049"><ele>536.0</ele><time>2026-04-20T16:18:01.804Z</time></trkpt><trkpt lat="38.0822183" lon="15.7504467"><ele>534.0</ele><time>2026-04-20T16:18:02.804Z</time></trkpt><trkpt lat="38.08216" lon="15.7503567"><ele>532.0</ele><time>2026-04-20T16:18:03.804Z</time></trkpt><trkpt lat="38.0821" lon="15.750275"><ele>532.0</ele><time>2026-04-20T16:18:04.804Z</time></trkpt><trkpt lat="38.0820217" lon="15.7502583"><ele>532.0</ele><time>2026-04-20T16:18:05.804Z</time></trkpt><trkpt lat="38.0819417" lon="15.7502533"><ele>532.0</ele><time>2026-04-20T16:18:06.803Z</time></trkpt><trkpt lat="38.0818717" lon="15.7502833"><ele>532.0</ele><time>2026-04-20T16:18:07.803Z</time></trkpt><trkpt lat="38.0818333" lon="15.7503683"><ele>532.0</ele><time>2026-04-20T16:18:08.804Z</time></trkpt><trkpt lat="38.081825" lon="15.7504817"><ele>532.0</ele><time>2026-04-20T16:18:09.804Z</time></trkpt><trkpt lat="38.0818333" lon="15.7506033"><ele>532.0</ele><time>2026-04-20T16:18:10.803Z</time></trkpt><trkpt lat="38.0818667" lon="15.7507233"><ele>532.0</ele><time>2026-04-20T16:18:11.804Z</time></trkpt><trkpt lat="38.0819117" lon="15.7508383"><ele>532.0</ele><time>2026-04-20T16:18:12.805Z</time></trkpt><trkpt lat="38.0819083" lon="15.7509483"><ele>532.0</ele><time>2026-04-20T16:18:13.805Z</time></trkpt><trkpt lat="38.081885" lon="15.751055"><ele>532.0</ele><time>2026-04-20T16:18:14.804Z</time></trkpt><trkpt lat="38.0818633" lon="15.7511567"><ele>537.0</ele><time>2026-04-20T16:18:15.808Z</time></trkpt><trkpt lat="38.0818133" lon="15.7512567"><ele>542.0</ele><time>2026-04-20T16:18:16.804Z</time></trkpt><trkpt lat="38.08175" lon="15.75134"><ele>547.0</ele><time>2026-04-20T16:18:17.803Z</time></trkpt><trkpt lat="38.0816733" lon="15.7514"><ele>552.0</ele><time>2026-04-20T16:18:18.806Z</time></trkpt><trkpt lat="38.0815917" lon="15.7514533"><ele>557.0</ele><time>2026-04-20T16:18:19.806Z</time></trkpt><trkpt lat="38.0815" lon="15.7515067"><ele>546.8000000000001</ele><time>2026-04-20T16:18:20.805Z</time></trkpt><trkpt lat="38.0814517" lon="15.7515917"><ele>536.6</ele><time>2026-04-20T16:18:21.804Z</time></trkpt><trkpt lat="38.0814267" lon="15.7516983"><ele>526.4000000000001</ele><time>2026-04-20T16:18:22.802Z</time></trkpt><trkpt lat="38.08137" lon="15.75176"><ele>516.2</ele><time>2026-04-20T16:18:23.803Z</time></trkpt><trkpt lat="38.0812733" lon="15.75178"><ele>506.0</ele><time>2026-04-20T16:18:25.805Z</time></trkpt><trkpt lat="38.0812333" lon="15.7516483"><ele>506.0</ele><time>2026-04-20T16:18:27.804Z</time></trkpt><trkpt lat="38.0813017" lon="15.7515683"><ele>506.0</ele><time>2026-04-20T16:18:28.805Z</time></trkpt><trkpt lat="38.081405" lon="15.7515117"><ele>506.0</ele><time>2026-04-20T16:18:29.806Z</time></trkpt><trkpt lat="38.0814933" lon="15.7514483"><ele>506.0</ele><time>2026-04-20T16:18:30.805Z</time></trkpt><trkpt lat="38.081585" lon="15.7513917"><ele>506.0</ele><time>2026-04-20T16:18:31.802Z</time></trkpt><trkpt lat="38.0816683" lon="15.751325"><ele>511.20000000000005</ele><time>2026-04-20T16:18:32.805Z</time></trkpt><trkpt lat="38.08173" lon="15.7512333"><ele>516.4000000000001</ele><time>2026-04-20T16:18:33.805Z</time></trkpt><trkpt lat="38.08178" lon="15.751135"><ele>521.6</ele><time>2026-04-20T16:18:34.802Z</time></trkpt><trkpt lat="38.081815" lon="15.7510267"><ele>526.8000000000001</ele><time>2026-04-20T16:18:35.808Z</time></trkpt><trkpt lat="38.08181" lon="15.7509083"><ele>532.0</ele><time>2026-04-20T16:18:36.805Z</time></trkpt><trkpt lat="38.0817683" lon="15.7507967"><ele>532.0</ele><time>2026-04-20T16:18:37.805Z</time></trkpt><trkpt lat="38.0816883" lon="15.7506883"><ele>532.0</ele><time>2026-04-20T16:18:38.804Z</time></trkpt><trkpt lat="38.0816217" lon="15.7505783"><ele>532.0</ele><time>2026-04-20T16:18:39.804Z</time></trkpt><trkpt lat="38.081575" lon="15.7504633"><ele>532.0</ele><time>2026-04-20T16:18:40.803Z</time></trkpt><trkpt lat="38.081565" lon="15.7503467"><ele>532.0</ele><time>2026-04-20T16:18:41.804Z</time></trkpt><trkpt lat="38.0815867" lon="15.7502217"><ele>529.2</ele><time>2026-04-20T16:18:42.808Z</time></trkpt><trkpt lat="38.0816" lon="15.7500933"><ele>526.4000000000001</ele><time>2026-04-20T16:18:43.805Z</time></trkpt><trkpt lat="38.0816083" lon="15.749965"><ele>523.5999999999999</ele><time>2026-04-20T16:18:44.804Z</time></trkpt><trkpt lat="38.0816233" lon="15.74985"><ele>520.8</ele><time>2026-04-20T16:18:45.804Z</time></trkpt><trkpt lat="38.0816533" lon="15.749755"><ele>518.0</ele><time>2026-04-20T16:18:46.805Z</time></trkpt><trkpt lat="38.0817183" lon="15.7496933"><ele>518.0</ele><time>2026-04-20T16:18:47.804Z</time></trkpt><trkpt lat="38.0818067" lon="15.74968"><ele>518.0</ele><time>2026-04-20T16:18:48.806Z</time></trkpt><trkpt lat="38.0819083" lon="15.7496833"><ele>518.0</ele><time>2026-04-20T16:18:49.805Z</time></trkpt><trkpt lat="38.0820133" lon="15.749715"><ele>518.0</ele><time>2026-04-20T16:18:50.805Z</time></trkpt><trkpt lat="38.08212" lon="15.7497433"><ele>518.0</ele><time>2026-04-20T16:18:51.804Z</time></trkpt><trkpt lat="38.0822217" lon="15.7497467"><ele>518.0</ele><time>2026-04-20T16:18:52.803Z</time></trkpt><trkpt lat="38.08232" lon="15.74971"><ele>518.0</ele><time>2026-04-20T16:18:53.805Z</time></trkpt><trkpt lat="38.0824033" lon="15.74962"><ele>518.0</ele><time>2026-04-20T16:18:54.805Z</time></trkpt><trkpt lat="38.0824867" lon="15.749545"><ele>518.0</ele><time>2026-04-20T16:18:55.804Z</time></trkpt><trkpt lat="38.0825633" lon="15.749445"><ele>518.0</ele><time>2026-04-20T16:18:56.805Z</time></trkpt><trkpt lat="38.0826117" lon="15.7493217"><ele>515.4</ele><time>2026-04-20T16:18:57.803Z</time></trkpt><trkpt lat="38.0826417" lon="15.7491883"><ele>512.8</ele><time>2026-04-20T16:18:58.803Z</time></trkpt><trkpt lat="38.08269" lon="15.7490733"><ele>510.2</ele><time>2026-04-20T16:18:59.805Z</time></trkpt><trkpt lat="38.0827683" lon="15.7489833"><ele>507.6</ele><time>2026-04-20T16:19:00.805Z</time></trkpt><trkpt lat="38.0828333" lon="15.7488867"><ele>505.0</ele><time>2026-04-20T16:19:01.805Z</time></trkpt><trkpt lat="38.0829167" lon="15.748825"><ele>505.0</ele><time>2026-04-20T16:19:02.805Z</time></trkpt><trkpt lat="38.083015" lon="15.748785"><ele>505.0</ele><time>2026-04-20T16:19:03.805Z</time></trkpt><trkpt lat="38.083125" lon="15.7487783"><ele>505.0</ele><time>2026-04-20T16:19:04.803Z</time></trkpt><trkpt lat="38.0832333" lon="15.7487467"><ele>505.0</ele><time>2026-04-20T16:19:05.805Z</time></trkpt><trkpt lat="38.0833433" lon="15.7487217"><ele>505.0</ele><time>2026-04-20T16:19:06.804Z</time></trkpt><trkpt lat="38.0834483" lon="15.7486883"><ele>509.4</ele><time>2026-04-20T16:19:07.805Z</time></trkpt><trkpt lat="38.0835417" lon="15.7486283"><ele>513.8</ele><time>2026-04-20T16:19:08.805Z</time></trkpt><trkpt lat="38.0836433" lon="15.7485783"><ele>518.2</ele><time>2026-04-20T16:19:09.806Z</time></trkpt><trkpt lat="38.0837567" lon="15.748575"><ele>522.6</ele><time>2026-04-20T16:19:10.803Z</time></trkpt><trkpt lat="38.0838717" lon="15.7485817"><ele>527.0</ele><time>2026-04-20T16:19:11.805Z</time></trkpt><trkpt lat="38.0839833" lon="15.74859"><ele>527.0</ele><time>2026-04-20T16:19:12.803Z</time></trkpt><trkpt lat="38.0840817" lon="15.748575"><ele>527.0</ele><time>2026-04-20T16:19:13.806Z</time></trkpt><trkpt lat="38.0841617" lon="15.7485233"><ele>527.0</ele><time>2026-04-20T16:19:14.805Z</time></trkpt><trkpt lat="38.0842217" lon="15.7484467"><ele>527.0</ele><time>2026-04-20T16:19:15.807Z</time></trkpt><trkpt lat="38.0842583" lon="15.748345"><ele>527.0</ele><time>2026-04-20T16:19:16.808Z</time></trkpt><trkpt lat="38.0842783" lon="15.748235"><ele>520.25</ele><time>2026-04-20T16:19:17.805Z</time></trkpt><trkpt lat="38.08428" lon="15.748105"><ele>513.5</ele><time>2026-04-20T16:19:18.804Z</time></trkpt><trkpt lat="38.0842883" lon="15.7479617"><ele>506.75</ele><time>2026-04-20T16:19:19.805Z</time></trkpt><trkpt lat="38.0842933" lon="15.7478"><ele>500.0</ele><time>2026-04-20T16:19:20.806Z</time></trkpt><trkpt lat="38.08427" lon="15.74764"><ele>500.0</ele><time>2026-04-20T16:19:21.805Z</time></trkpt><trkpt lat="38.084215" lon="15.747475"><ele>500.0</ele><time>2026-04-20T16:19:22.805Z</time></trkpt><trkpt lat="38.0841617" lon="15.7473133"><ele>500.0</ele><time>2026-04-20T16:19:23.805Z</time></trkpt><trkpt lat="38.0841333" lon="15.7471367"><ele>500.0</ele><time>2026-04-20T16:19:24.804Z</time></trkpt><trkpt lat="38.0840883" lon="15.746975"><ele>498.5</ele><time>2026-04-20T16:19:25.805Z</time></trkpt><trkpt lat="38.08401" lon="15.74685"><ele>497.0</ele><time>2026-04-20T16:19:26.805Z</time></trkpt><trkpt lat="38.0839283" lon="15.7467383"><ele>495.5</ele><time>2026-04-20T16:19:27.804Z</time></trkpt><trkpt lat="38.0838367" lon="15.7466583"><ele>494.0</ele><time>2026-04-20T16:19:28.803Z</time></trkpt><trkpt lat="38.0837317" lon="15.7466317"><ele>494.0</ele><time>2026-04-20T16:19:29.804Z</time></trkpt><trkpt lat="38.0836233" lon="15.7466567"><ele>494.0</ele><time>2026-04-20T16:19:30.803Z</time></trkpt><trkpt lat="38.0835217" lon="15.7467"><ele>494.0</ele><time>2026-04-20T16:19:31.803Z</time></trkpt><trkpt lat="38.08343" lon="15.7467283"><ele>494.0</ele><time>2026-04-20T16:19:32.806Z</time></trkpt><trkpt lat="38.0833483" lon="15.7467017"><ele>494.0</ele><time>2026-04-20T16:19:33.803Z</time></trkpt><trkpt lat="38.0832817" lon="15.74663"><ele>492.0</ele><time>2026-04-20T16:19:34.802Z</time></trkpt><trkpt lat="38.083225" lon="15.7465333"><ele>490.0</ele><time>2026-04-20T16:19:35.804Z</time></trkpt><trkpt lat="38.0831817" lon="15.7464033"><ele>488.0</ele><time>2026-04-20T16:19:36.805Z</time></trkpt><trkpt lat="38.0831417" lon="15.74626"><ele>486.0</ele><time>2026-04-20T16:19:37.805Z</time></trkpt><trkpt lat="38.0830867" lon="15.7461567"><ele>484.0</ele><time>2026-04-20T16:19:38.804Z</time></trkpt><trkpt lat="38.083" lon="15.7460917"><ele>484.0</ele><time>2026-04-20T16:19:39.802Z</time></trkpt><trkpt lat="38.0829033" lon="15.7460817"><ele>484.0</ele><time>2026-04-20T16:19:40.803Z</time></trkpt><trkpt lat="38.0828133" lon="15.7461117"><ele>484.0</ele><time>2026-04-20T16:19:41.804Z</time></trkpt><trkpt lat="38.0827383" lon="15.746135"><ele>484.0</ele><time>2026-04-20T16:19:42.803Z</time></trkpt><trkpt lat="38.082635" lon="15.7461333"><ele>484.0</ele><time>2026-04-20T16:19:44.804Z</time></trkpt><trkpt lat="38.0826" lon="15.7460283"><ele>485.5</ele><time>2026-04-20T16:19:47.803Z</time></trkpt><trkpt lat="38.0826733" lon="15.7458933"><ele>487.0</ele><time>2026-04-20T16:19:49.802Z</time></trkpt><trkpt lat="38.0827533" lon="15.74578"><ele>488.5</ele><time>2026-04-20T16:19:50.805Z</time></trkpt><trkpt lat="38.0828567" lon="15.7456417"><ele>490.0</ele><time>2026-04-20T16:19:51.804Z</time></trkpt><trkpt lat="38.08298" lon="15.74548"><ele>490.0</ele><time>2026-04-20T16:19:52.802Z</time></trkpt><trkpt lat="38.0831033" lon="15.7453267"><ele>490.0</ele><time>2026-04-20T16:19:53.805Z</time></trkpt><trkpt lat="38.0832067" lon="15.7452067"><ele>490.0</ele><time>2026-04-20T16:19:54.806Z</time></trkpt><trkpt lat="38.0832817" lon="15.7451033"><ele>490.0</ele><time>2026-04-20T16:19:55.811Z</time></trkpt><trkpt lat="38.0833167" lon="15.7449983"><ele>495.6</ele><time>2026-04-20T16:19:56.805Z</time></trkpt><trkpt lat="38.0833283" lon="15.7448883"><ele>501.2</ele><time>2026-04-20T16:19:57.804Z</time></trkpt><trkpt lat="38.0833217" lon="15.7447733"><ele>506.79999999999995</ele><time>2026-04-20T16:19:58.803Z</time></trkpt><trkpt lat="38.0833067" lon="15.74466"><ele>512.4</ele><time>2026-04-20T16:19:59.803Z</time></trkpt><trkpt lat="38.0832933" lon="15.74453"><ele>518.0</ele><time>2026-04-20T16:20:00.803Z</time></trkpt><trkpt lat="38.0832817" lon="15.7443833"><ele>516.0</ele><time>2026-04-20T16:20:01.803Z</time></trkpt><trkpt lat="38.0832867" lon="15.7442233"><ele>514.0</ele><time>2026-04-20T16:20:02.803Z</time></trkpt><trkpt lat="38.0833067" lon="15.7440633"><ele>512.0</ele><time>2026-04-20T16:20:03.804Z</time></trkpt><trkpt lat="38.08333" lon="15.7439017"><ele>510.0</ele><time>2026-04-20T16:20:04.804Z</time></trkpt><trkpt lat="38.0833617" lon="15.74374"><ele>510.0</ele><time>2026-04-20T16:20:05.804Z</time></trkpt><trkpt lat="38.0833933" lon="15.7435833"><ele>510.0</ele><time>2026-04-20T16:20:06.804Z</time></trkpt><trkpt lat="38.0834267" lon="15.7434433"><ele>510.0</ele><time>2026-04-20T16:20:07.804Z</time></trkpt><trkpt lat="38.0834433" lon="15.7433217"><ele>510.0</ele><time>2026-04-20T16:20:08.804Z</time></trkpt><trkpt lat="38.08343" lon="15.7432133"><ele>510.0</ele><time>2026-04-20T16:20:09.804Z</time></trkpt><trkpt lat="38.0833933" lon="15.7431133"><ele>509.0</ele><time>2026-04-20T16:20:10.802Z</time></trkpt><trkpt lat="38.0833483" lon="15.743015"><ele>508.0</ele><time>2026-04-20T16:20:11.804Z</time></trkpt><trkpt lat="38.083295" lon="15.7429"><ele>507.0</ele><time>2026-04-20T16:20:12.804Z</time></trkpt><trkpt lat="38.08325" lon="15.742775"><ele>506.0</ele><time>2026-04-20T16:20:13.804Z</time></trkpt><trkpt lat="38.08324" lon="15.742635"><ele>505.0</ele><time>2026-04-20T16:20:14.804Z</time></trkpt><trkpt lat="38.0832417" lon="15.7424967"><ele>504.4</ele><time>2026-04-20T16:20:15.804Z</time></trkpt><trkpt lat="38.083235" lon="15.7423633"><ele>503.8</ele><time>2026-04-20T16:20:16.803Z</time></trkpt><trkpt lat="38.0832333" lon="15.742235"><ele>503.20000000000005</ele><time>2026-04-20T16:20:17.804Z</time></trkpt><trkpt lat="38.0832533" lon="15.7421133"><ele>502.6</ele><time>2026-04-20T16:20:18.803Z</time></trkpt><trkpt lat="38.0832983" lon="15.74201"><ele>502.0</ele><time>2026-04-20T16:20:19.804Z</time></trkpt><trkpt lat="38.0833783" lon="15.7419317"><ele>499.20000000000005</ele><time>2026-04-20T16:20:20.805Z</time></trkpt><trkpt lat="38.0834617" lon="15.7418533"><ele>496.40000000000003</ele><time>2026-04-20T16:20:21.804Z</time></trkpt><trkpt lat="38.0835433" lon="15.74177"><ele>493.59999999999997</ele><time>2026-04-20T16:20:22.804Z</time></trkpt><trkpt lat="38.0836233" lon="15.7416917"><ele>490.79999999999995</ele><time>2026-04-20T16:20:23.806Z</time></trkpt><trkpt lat="38.08368" lon="15.7416"><ele>488.0</ele><time>2026-04-20T16:20:24.806Z</time></trkpt><trkpt lat="38.0837083" lon="15.741495"><ele>487.99999999999994</ele><time>2026-04-20T16:20:25.807Z</time></trkpt><trkpt lat="38.0837383" lon="15.7414017"><ele>488.0</ele><time>2026-04-20T16:20:26.806Z</time></trkpt><trkpt lat="38.0837467" lon="15.7412967"><ele>488.0</ele><time>2026-04-20T16:20:27.805Z</time></trkpt><trkpt lat="38.0837533" lon="15.741195"><ele>488.0</ele><time>2026-04-20T16:20:28.804Z</time></trkpt><trkpt lat="38.0837867" lon="15.7411217"><ele>487.99999999999994</ele><time>2026-04-20T16:20:29.805Z</time></trkpt><trkpt lat="38.0838367" lon="15.7410633"><ele>488.0</ele><time>2026-04-20T16:20:30.804Z</time></trkpt><trkpt lat="38.0839067" lon="15.7410317"><ele>487.59999999999997</ele><time>2026-04-20T16:20:31.805Z</time></trkpt><trkpt lat="38.0839867" lon="15.741"><ele>487.19999999999993</ele><time>2026-04-20T16:20:32.804Z</time></trkpt><trkpt lat="38.0840767" lon="15.74097"><ele>486.8</ele><time>2026-04-20T16:20:33.803Z</time></trkpt><trkpt lat="38.0841733" lon="15.74093"><ele>486.4</ele><time>2026-04-20T16:20:34.804Z</time></trkpt><trkpt lat="38.0842667" lon="15.7408733"><ele>486.0</ele><time>2026-04-20T16:20:35.804Z</time></trkpt><trkpt lat="38.08436" lon="15.740795"><ele>486.0</ele><time>2026-04-20T16:20:36.803Z</time></trkpt><trkpt lat="38.0844517" lon="15.7407133"><ele>486.0</ele><time>2026-04-20T16:20:37.802Z</time></trkpt><trkpt lat="38.0845433" lon="15.7406333"><ele>486.0</ele><time>2026-04-20T16:20:38.804Z</time></trkpt><trkpt lat="38.0846367" lon="15.7405567"><ele>486.0</ele><time>2026-04-20T16:20:39.805Z</time></trkpt><trkpt lat="38.0847333" lon="15.7404867"><ele>486.0</ele><time>2026-04-20T16:20:40.806Z</time></trkpt><trkpt lat="38.08483" lon="15.7404267"><ele>486.0</ele><time>2026-04-20T16:20:41.804Z</time></trkpt><trkpt lat="38.0849183" lon="15.7403667"><ele>486.0</ele><time>2026-04-20T16:20:42.805Z</time></trkpt><trkpt lat="38.084975" lon="15.7402817"><ele>486.0</ele><time>2026-04-20T16:20:43.806Z</time></trkpt><trkpt lat="38.084995" lon="15.7401783"><ele>486.0</ele><time>2026-04-20T16:20:44.805Z</time></trkpt><trkpt lat="38.0850017" lon="15.74007"><ele>486.0</ele><time>2026-04-20T16:20:45.805Z</time></trkpt><trkpt lat="38.0850117" lon="15.7399717"><ele>486.0</ele><time>2026-04-20T16:20:46.804Z</time></trkpt><trkpt lat="38.085035" lon="15.7398783"><ele>485.6</ele><time>2026-04-20T16:20:47.802Z</time></trkpt><trkpt lat="38.0850933" lon="15.7398167"><ele>485.20000000000005</ele><time>2026-04-20T16:20:48.805Z</time></trkpt><trkpt lat="38.0851767" lon="15.73978"><ele>484.79999999999995</ele><time>2026-04-20T16:20:49.803Z</time></trkpt><trkpt lat="38.0852717" lon="15.7397533"><ele>484.4</ele><time>2026-04-20T16:20:50.805Z</time></trkpt><trkpt lat="38.085375" lon="15.73971"><ele>484.0</ele><time>2026-04-20T16:20:51.804Z</time></trkpt><trkpt lat="38.0854783" lon="15.7396533"><ele>484.0</ele><time>2026-04-20T16:20:52.803Z</time></trkpt><trkpt lat="38.0855667" lon="15.7395733"><ele>484.0</ele><time>2026-04-20T16:20:53.805Z</time></trkpt><trkpt lat="38.08564" lon="15.73948"><ele>484.0</ele><time>2026-04-20T16:20:54.806Z</time></trkpt><trkpt lat="38.0856783" lon="15.739375"><ele>484.0</ele><time>2026-04-20T16:20:55.803Z</time></trkpt><trkpt lat="38.0856767" lon="15.7392767"><ele>484.0</ele><time>2026-04-20T16:20:56.804Z</time></trkpt><trkpt lat="38.08563" lon="15.7391967"><ele>479.6666666666667</ele><time>2026-04-20T16:20:57.804Z</time></trkpt><trkpt lat="38.08555" lon="15.7391517"><ele>475.33333333333337</ele><time>2026-04-20T16:20:58.804Z</time></trkpt><trkpt lat="38.0854817" lon="15.7390917"><ele>471.0</ele><time>2026-04-20T16:20:59.803Z</time></trkpt><trkpt lat="38.0854383" lon="15.7390017"><ele>466.66666666666663</ele><time>2026-04-20T16:21:00.804Z</time></trkpt><trkpt lat="38.0854183" lon="15.738895"><ele>462.3333333333333</ele><time>2026-04-20T16:21:01.803Z</time></trkpt><trkpt lat="38.085385" lon="15.7387783"><ele>458.0</ele><time>2026-04-20T16:21:02.804Z</time></trkpt><trkpt lat="38.0853683" lon="15.7386417"><ele>455.79999999999995</ele><time>2026-04-20T16:21:03.804Z</time></trkpt><trkpt lat="38.08538" lon="15.738495"><ele>453.59999999999997</ele><time>2026-04-20T16:21:04.805Z</time></trkpt><trkpt lat="38.085385" lon="15.73835"><ele>451.40000000000003</ele><time>2026-04-20T16:21:05.804Z</time></trkpt><trkpt lat="38.0853633" lon="15.738215"><ele>449.20000000000005</ele><time>2026-04-20T16:21:06.808Z</time></trkpt><trkpt lat="38.0853217" lon="15.7380883"><ele>447.0</ele><time>2026-04-20T16:21:07.804Z</time></trkpt><trkpt lat="38.0852933" lon="15.7379667"><ele>447.0</ele><time>2026-04-20T16:21:08.804Z</time></trkpt><trkpt lat="38.0852933" lon="15.7378483"><ele>447.00000000000006</ele><time>2026-04-20T16:21:09.804Z</time></trkpt><trkpt lat="38.08532" lon="15.73774"><ele>447.00000000000006</ele><time>2026-04-20T16:21:10.804Z</time></trkpt><trkpt lat="38.085365" lon="15.7376433"><ele>447.0</ele><time>2026-04-20T16:21:11.805Z</time></trkpt><trkpt lat="38.0854283" lon="15.7375567"><ele>447.0</ele><time>2026-04-20T16:21:12.804Z</time></trkpt><trkpt lat="38.0854883" lon="15.7374717"><ele>445.8333333333333</ele><time>2026-04-20T16:21:13.805Z</time></trkpt><trkpt lat="38.0855683" lon="15.7374033"><ele>444.66666666666663</ele><time>2026-04-20T16:21:14.803Z</time></trkpt><trkpt lat="38.0855983" lon="15.7373017"><ele>443.5</ele><time>2026-04-20T16:21:15.804Z</time></trkpt><trkpt lat="38.0855933" lon="15.7372017"><ele>442.3333333333333</ele><time>2026-04-20T16:21:16.804Z</time></trkpt><trkpt lat="38.08556" lon="15.7371083"><ele>441.16666666666663</ele><time>2026-04-20T16:21:17.803Z</time></trkpt><trkpt lat="38.0855317" lon="15.737015"><ele>440.0</ele><time>2026-04-20T16:21:18.805Z</time></trkpt><trkpt lat="38.0855433" lon="15.7369217"><ele>437.71428571428567</ele><time>2026-04-20T16:21:19.804Z</time></trkpt><trkpt lat="38.0855683" lon="15.7368317"><ele>435.42857142857144</ele><time>2026-04-20T16:21:20.804Z</time></trkpt><trkpt lat="38.085585" lon="15.73674"><ele>433.1428571428571</ele><time>2026-04-20T16:21:21.804Z</time></trkpt><trkpt lat="38.0855883" lon="15.7366517"><ele>430.85714285714283</ele><time>2026-04-20T16:21:22.804Z</time></trkpt><trkpt lat="38.08558" lon="15.7365633"><ele>428.57142857142856</ele><time>2026-04-20T16:21:23.804Z</time></trkpt><trkpt lat="38.0855583" lon="15.73648"><ele>426.2857142857143</ele><time>2026-04-20T16:21:24.804Z</time></trkpt><trkpt lat="38.0855433" lon="15.7363933"><ele>424.0</ele><time>2026-04-20T16:21:25.803Z</time></trkpt><trkpt lat="38.08554" lon="15.7363"><ele>424.0</ele><time>2026-04-20T16:21:26.804Z</time></trkpt><trkpt lat="38.0855583" lon="15.7361983"><ele>424.0</ele><time>2026-04-20T16:21:27.804Z</time></trkpt><trkpt lat="38.0855867" lon="15.7360933"><ele>424.0</ele><time>2026-04-20T16:21:28.803Z</time></trkpt><trkpt lat="38.0856233" lon="15.7359817"><ele>424.0</ele><time>2026-04-20T16:21:29.804Z</time></trkpt><trkpt lat="38.0856467" lon="15.7358633"><ele>424.0</ele><time>2026-04-20T16:21:30.804Z</time></trkpt><trkpt lat="38.0856683" lon="15.735745"><ele>421.50000000000006</ele><time>2026-04-20T16:21:31.804Z</time></trkpt><trkpt lat="38.0856917" lon="15.7356367"><ele>419.0</ele><time>2026-04-20T16:21:32.805Z</time></trkpt><trkpt lat="38.0857317" lon="15.73555"><ele>416.5</ele><time>2026-04-20T16:21:33.803Z</time></trkpt><trkpt lat="38.0857917" lon="15.7355033"><ele>414.0</ele><time>2026-04-20T16:21:34.803Z</time></trkpt><trkpt lat="38.0858683" lon="15.73553"><ele>411.50000000000006</ele><time>2026-04-20T16:21:35.804Z</time></trkpt><trkpt lat="38.085955" lon="15.7356383"><ele>409.0</ele><time>2026-04-20T16:21:36.803Z</time></trkpt><trkpt lat="38.08604" lon="15.7356817"><ele>419.75</ele><time>2026-04-20T16:21:37.804Z</time></trkpt><trkpt lat="38.08614" lon="15.7357117"><ele>430.5</ele><time>2026-04-20T16:21:38.805Z</time></trkpt><trkpt lat="38.0862567" lon="15.73575"><ele>441.25</ele><time>2026-04-20T16:21:39.886Z</time></trkpt><trkpt lat="38.0863817" lon="15.7357617"><ele>452.0</ele><time>2026-04-20T16:21:40.804Z</time></trkpt><trkpt lat="38.0865117" lon="15.73577"><ele>452.0</ele><time>2026-04-20T16:21:41.805Z</time></trkpt><trkpt lat="38.086645" lon="15.73577"><ele>452.0</ele><time>2026-04-20T16:21:42.807Z</time></trkpt><trkpt lat="38.0867767" lon="15.7357767"><ele>452.0</ele><time>2026-04-20T16:21:43.803Z</time></trkpt><trkpt lat="38.0869083" lon="15.7357783"><ele>452.0</ele><time>2026-04-20T16:21:44.803Z</time></trkpt><trkpt lat="38.087035" lon="15.7357633"><ele>452.0</ele><time>2026-04-20T16:21:45.804Z</time></trkpt><trkpt lat="38.0871583" lon="15.7357333"><ele>452.0</ele><time>2026-04-20T16:21:46.804Z</time></trkpt><trkpt lat="38.08728" lon="15.7357133"><ele>452.0</ele><time>2026-04-20T16:21:47.806Z</time></trkpt><trkpt lat="38.08739" lon="15.7357083"><ele>452.0</ele><time>2026-04-20T16:21:48.805Z</time></trkpt><trkpt lat="38.0874833" lon="15.7356883"><ele>452.20000000000005</ele><time>2026-04-20T16:21:49.805Z</time></trkpt><trkpt lat="38.0875583" lon="15.7356267"><ele>452.40000000000003</ele><time>2026-04-20T16:21:50.805Z</time></trkpt><trkpt lat="38.0876133" lon="15.7355333"><ele>452.59999999999997</ele><time>2026-04-20T16:21:51.804Z</time></trkpt><trkpt lat="38.0876317" lon="15.7354233"><ele>452.79999999999995</ele><time>2026-04-20T16:21:52.804Z</time></trkpt><trkpt lat="38.0876083" lon="15.735305"><ele>453.0</ele><time>2026-04-20T16:21:53.806Z</time></trkpt><trkpt lat="38.0875417" lon="15.7351817"><ele>453.0</ele><time>2026-04-20T16:21:54.804Z</time></trkpt><trkpt lat="38.08745" lon="15.73506"><ele>453.0</ele><time>2026-04-20T16:21:55.803Z</time></trkpt><trkpt lat="38.08734" lon="15.734935"><ele>453.0</ele><time>2026-04-20T16:21:56.805Z</time></trkpt><trkpt lat="38.08723" lon="15.734805"><ele>453.0</ele><time>2026-04-20T16:21:57.804Z</time></trkpt><trkpt lat="38.087125" lon="15.734675"><ele>446.25</ele><time>2026-04-20T16:21:58.803Z</time></trkpt><trkpt lat="38.0870217" lon="15.73454"><ele>439.5</ele><time>2026-04-20T16:21:59.804Z</time></trkpt><trkpt lat="38.086935" lon="15.7344067"><ele>432.75</ele><time>2026-04-20T16:22:00.804Z</time></trkpt><trkpt lat="38.0868417" lon="15.7342967"><ele>426.0</ele><time>2026-04-20T16:22:01.803Z</time></trkpt><trkpt lat="38.0867783" lon="15.7341617"><ele>425.5</ele><time>2026-04-20T16:22:02.804Z</time></trkpt><trkpt lat="38.0867333" lon="15.7339917"><ele>425.0</ele><time>2026-04-20T16:22:03.803Z</time></trkpt><trkpt lat="38.0866283" lon="15.733895"><ele>424.5</ele><time>2026-04-20T16:22:04.803Z</time></trkpt><trkpt lat="38.0865267" lon="15.73379"><ele>424.0</ele><time>2026-04-20T16:22:05.805Z</time></trkpt><trkpt lat="38.086455" lon="15.73366"><ele>416.2</ele><time>2026-04-20T16:22:06.804Z</time></trkpt><trkpt lat="38.08639" lon="15.7335383"><ele>408.4</ele><time>2026-04-20T16:22:07.804Z</time></trkpt><trkpt lat="38.086355" lon="15.733415"><ele>400.6</ele><time>2026-04-20T16:22:08.805Z</time></trkpt><trkpt lat="38.0863583" lon="15.7332867"><ele>392.8</ele><time>2026-04-20T16:22:09.805Z</time></trkpt><trkpt lat="38.0864267" lon="15.73316"><ele>385.0</ele><time>2026-04-20T16:22:10.804Z</time></trkpt><trkpt lat="38.08644" lon="15.7330417"><ele>385.0</ele><time>2026-04-20T16:22:11.805Z</time></trkpt><trkpt lat="38.0864133" lon="15.7329283"><ele>385.0</ele><time>2026-04-20T16:22:12.805Z</time></trkpt><trkpt lat="38.08634" lon="15.7328267"><ele>385.0</ele><time>2026-04-20T16:22:13.805Z</time></trkpt><trkpt lat="38.0862683" lon="15.7327117"><ele>385.0</ele><time>2026-04-20T16:22:14.804Z</time></trkpt><trkpt lat="38.0862067" lon="15.7325883"><ele>385.0</ele><time>2026-04-20T16:22:15.804Z</time></trkpt><trkpt lat="38.086165" lon="15.7324433"><ele>386.5</ele><time>2026-04-20T16:22:16.804Z</time></trkpt><trkpt lat="38.0861433" lon="15.73228"><ele>388.0</ele><time>2026-04-20T16:22:17.805Z</time></trkpt><trkpt lat="38.0861" lon="15.7321383"><ele>389.5</ele><time>2026-04-20T16:22:18.804Z</time></trkpt><trkpt lat="38.0860283" lon="15.7320333"><ele>391.0</ele><time>2026-04-20T16:22:19.804Z</time></trkpt><trkpt lat="38.0859217" lon="15.7319583"><ele>395.75</ele><time>2026-04-20T16:22:20.804Z</time></trkpt><trkpt lat="38.0858167" lon="15.7318683"><ele>400.5</ele><time>2026-04-20T16:22:21.805Z</time></trkpt><trkpt lat="38.08572" lon="15.73176"><ele>405.25</ele><time>2026-04-20T16:22:22.804Z</time></trkpt><trkpt lat="38.0856167" lon="15.7316817"><ele>410.0</ele><time>2026-04-20T16:22:23.805Z</time></trkpt><trkpt lat="38.0855217" lon="15.7316033"><ele>401.8</ele><time>2026-04-20T16:22:24.804Z</time></trkpt><trkpt lat="38.0854467" lon="15.7315033"><ele>393.6</ele><time>2026-04-20T16:22:25.804Z</time></trkpt><trkpt lat="38.0854033" lon="15.7313733"><ele>385.4</ele><time>2026-04-20T16:22:26.805Z</time></trkpt><trkpt lat="38.085375" lon="15.7312383"><ele>377.2</ele><time>2026-04-20T16:22:27.805Z</time></trkpt><trkpt lat="38.0853483" lon="15.731115"><ele>369.0</ele><time>2026-04-20T16:22:28.807Z</time></trkpt><trkpt lat="38.0853667" lon="15.7310033"><ele>369.0</ele><time>2026-04-20T16:22:29.805Z</time></trkpt><trkpt lat="38.0854367" lon="15.7309017"><ele>369.0</ele><time>2026-04-20T16:22:30.805Z</time></trkpt><trkpt lat="38.0855383" lon="15.7308"><ele>369.0</ele><time>2026-04-20T16:22:31.803Z</time></trkpt><trkpt lat="38.085645" lon="15.7306883"><ele>369.0</ele><time>2026-04-20T16:22:32.805Z</time></trkpt><trkpt lat="38.0857517" lon="15.7305883"><ele>370.0</ele><time>2026-04-20T16:22:33.803Z</time></trkpt><trkpt lat="38.0858433" lon="15.7304933"><ele>371.0</ele><time>2026-04-20T16:22:34.803Z</time></trkpt><trkpt lat="38.0859267" lon="15.7304067"><ele>372.0</ele><time>2026-04-20T16:22:35.804Z</time></trkpt><trkpt lat="38.0860117" lon="15.7303333"><ele>373.0</ele><time>2026-04-20T16:22:36.804Z</time></trkpt><trkpt lat="38.086095" lon="15.73026"><ele>374.0</ele><time>2026-04-20T16:22:37.803Z</time></trkpt><trkpt lat="38.0861767" lon="15.7301867"><ele>374.0</ele><time>2026-04-20T16:22:38.803Z</time></trkpt><trkpt lat="38.086255" lon="15.7301117"><ele>374.0</ele><time>2026-04-20T16:22:39.803Z</time></trkpt><trkpt lat="38.0863483" lon="15.730055"><ele>374.0</ele><time>2026-04-20T16:22:40.804Z</time></trkpt><trkpt lat="38.08644" lon="15.729995"><ele>374.0</ele><time>2026-04-20T16:22:41.804Z</time></trkpt><trkpt lat="38.086525" lon="15.7299433"><ele>374.0</ele><time>2026-04-20T16:22:42.805Z</time></trkpt><trkpt lat="38.0865833" lon="15.7298717"><ele>369.5</ele><time>2026-04-20T16:22:43.804Z</time></trkpt><trkpt lat="38.0866183" lon="15.729795"><ele>365.0</ele><time>2026-04-20T16:22:44.805Z</time></trkpt><trkpt lat="38.086635" lon="15.7296983"><ele>360.5</ele><time>2026-04-20T16:22:45.806Z</time></trkpt><trkpt lat="38.0866467" lon="15.7295967"><ele>356.0</ele><time>2026-04-20T16:22:46.804Z</time></trkpt><trkpt lat="38.0866217" lon="15.7294767"><ele>351.5</ele><time>2026-04-20T16:22:47.804Z</time></trkpt><trkpt lat="38.0865767" lon="15.729355"><ele>347.0</ele><time>2026-04-20T16:22:48.803Z</time></trkpt><trkpt lat="38.0865283" lon="15.7292383"><ele>347.0</ele><time>2026-04-20T16:22:49.803Z</time></trkpt><trkpt lat="38.08651" lon="15.72912"><ele>347.0</ele><time>2026-04-20T16:22:50.805Z</time></trkpt><trkpt lat="38.0865317" lon="15.7290067"><ele>347.0</ele><time>2026-04-20T16:22:51.804Z</time></trkpt><trkpt lat="38.08658" lon="15.7289083"><ele>347.0</ele><time>2026-04-20T16:22:52.805Z</time></trkpt><trkpt lat="38.0866333" lon="15.7288167"><ele>347.0</ele><time>2026-04-20T16:22:53.803Z</time></trkpt><trkpt lat="38.086695" lon="15.7287317"><ele>355.5</ele><time>2026-04-20T16:22:54.804Z</time></trkpt><trkpt lat="38.0867867" lon="15.7286867"><ele>364.0</ele><time>2026-04-20T16:22:55.804Z</time></trkpt><trkpt lat="38.086895" lon="15.7286567"><ele>372.5</ele><time>2026-04-20T16:22:56.805Z</time></trkpt><trkpt lat="38.0870117" lon="15.7286183"><ele>381.0</ele><time>2026-04-20T16:22:57.804Z</time></trkpt><trkpt lat="38.08713" lon="15.7285667"><ele>379.0</ele><time>2026-04-20T16:22:58.803Z</time></trkpt><trkpt lat="38.0872467" lon="15.7285233"><ele>377.0</ele><time>2026-04-20T16:22:59.804Z</time></trkpt><trkpt lat="38.087355" lon="15.728485"><ele>375.0</ele><time>2026-04-20T16:23:00.804Z</time></trkpt><trkpt lat="38.0874583" lon="15.7284617"><ele>373.0</ele><time>2026-04-20T16:23:01.804Z</time></trkpt><trkpt lat="38.08756" lon="15.7284783"><ele>371.0</ele><time>2026-04-20T16:23:02.804Z</time></trkpt><trkpt lat="38.0876533" lon="15.7285417"><ele>371.0</ele><time>2026-04-20T16:23:03.804Z</time></trkpt><trkpt lat="38.0877317" lon="15.7285767"><ele>371.0</ele><time>2026-04-20T16:23:04.804Z</time></trkpt><trkpt lat="38.087795" lon="15.7285667"><ele>371.0</ele><time>2026-04-20T16:23:05.804Z</time></trkpt><trkpt lat="38.087845" lon="15.728515"><ele>371.0</ele><time>2026-04-20T16:23:06.804Z</time></trkpt><trkpt lat="38.087855" lon="15.72838"><ele>371.0</ele><time>2026-04-20T16:23:08.804Z</time></trkpt><trkpt lat="38.087795" lon="15.72832"><ele>371.0</ele><time>2026-04-20T16:23:09.803Z</time></trkpt><trkpt lat="38.0877017" lon="15.7282767"><ele>371.0</ele><time>2026-04-20T16:23:10.804Z</time></trkpt><trkpt lat="38.0875933" lon="15.7282317"><ele>371.0</ele><time>2026-04-20T16:23:11.804Z</time></trkpt><trkpt lat="38.08746" lon="15.728225"><ele>371.0</ele><time>2026-04-20T16:23:12.803Z</time></trkpt><trkpt lat="38.0873317" lon="15.72822"><ele>371.0</ele><time>2026-04-20T16:23:13.804Z</time></trkpt><trkpt lat="38.0872067" lon="15.7282"><ele>369.8</ele><time>2026-04-20T16:23:14.805Z</time></trkpt><trkpt lat="38.08709" lon="15.7281733"><ele>368.6</ele><time>2026-04-20T16:23:15.803Z</time></trkpt><trkpt lat="38.0869783" lon="15.7281417"><ele>367.4</ele><time>2026-04-20T16:23:16.804Z</time></trkpt><trkpt lat="38.0868833" lon="15.728085"><ele>366.2</ele><time>2026-04-20T16:23:17.804Z</time></trkpt><trkpt lat="38.086795" lon="15.72806"><ele>365.0</ele><time>2026-04-20T16:23:18.803Z</time></trkpt><trkpt lat="38.0867117" lon="15.7280817"><ele>365.0</ele><time>2026-04-20T16:23:19.804Z</time></trkpt><trkpt lat="38.086635" lon="15.728115"><ele>365.0</ele><time>2026-04-20T16:23:20.804Z</time></trkpt><trkpt lat="38.0865617" lon="15.72816"><ele>365.0</ele><time>2026-04-20T16:23:21.803Z</time></trkpt><trkpt lat="38.086495" lon="15.72822"><ele>365.0</ele><time>2026-04-20T16:23:22.803Z</time></trkpt><trkpt lat="38.086455" lon="15.7283033"><ele>365.0</ele><time>2026-04-20T16:23:23.804Z</time></trkpt><trkpt lat="38.0863667" lon="15.7283683"><ele>365.0</ele><time>2026-04-20T16:23:25.805Z</time></trkpt><trkpt lat="38.0863567" lon="15.7282467"><ele>365.0</ele><time>2026-04-20T16:23:28.804Z</time></trkpt><trkpt lat="38.086415" lon="15.7281183"><ele>365.0</ele><time>2026-04-20T16:23:30.804Z</time></trkpt><trkpt lat="38.0864617" lon="15.7280517"><ele>365.0</ele><time>2026-04-20T16:23:31.803Z</time></trkpt><trkpt lat="38.0865317" lon="15.7280083"><ele>365.0</ele><time>2026-04-20T16:23:32.804Z</time></trkpt><trkpt lat="38.0866183" lon="15.7279933"><ele>365.0</ele><time>2026-04-20T16:23:33.804Z</time></trkpt><trkpt lat="38.0867083" lon="15.72798"><ele>365.0</ele><time>2026-04-20T16:23:34.804Z</time></trkpt><trkpt lat="38.0868117" lon="15.7279517"><ele>365.0</ele><time>2026-04-20T16:23:35.804Z</time></trkpt><trkpt lat="38.0869217" lon="15.7279167"><ele>365.0</ele><time>2026-04-20T16:23:36.805Z</time></trkpt><trkpt lat="38.08703" lon="15.72786"><ele>365.0</ele><time>2026-04-20T16:23:37.804Z</time></trkpt><trkpt lat="38.0871433" lon="15.727815"><ele>365.0</ele><time>2026-04-20T16:23:38.804Z</time></trkpt><trkpt lat="38.087255" lon="15.7278017"><ele>365.0</ele><time>2026-04-20T16:23:39.805Z</time></trkpt><trkpt lat="38.0873617" lon="15.7278083"><ele>365.0</ele><time>2026-04-20T16:23:40.804Z</time></trkpt><trkpt lat="38.0874583" lon="15.7278317"><ele>365.0</ele><time>2026-04-20T16:23:41.804Z</time></trkpt><trkpt lat="38.0875417" lon="15.7278567"><ele>365.0</ele><time>2026-04-20T16:23:42.803Z</time></trkpt><trkpt lat="38.0876183" lon="15.7278733"><ele>365.0</ele><time>2026-04-20T16:23:43.804Z</time></trkpt><trkpt lat="38.087685" lon="15.7278483"><ele>365.0</ele><time>2026-04-20T16:23:44.805Z</time></trkpt><trkpt lat="38.0877483" lon="15.7278083"><ele>366.2</ele><time>2026-04-20T16:23:45.804Z</time></trkpt><trkpt lat="38.0878017" lon="15.7277467"><ele>367.4</ele><time>2026-04-20T16:23:46.804Z</time></trkpt><trkpt lat="38.0879067" lon="15.727715"><ele>368.6</ele><time>2026-04-20T16:23:48.803Z</time></trkpt><trkpt lat="38.0880317" lon="15.7277617"><ele>369.8</ele><time>2026-04-20T16:23:50.803Z</time></trkpt><trkpt lat="38.0881" lon="15.7278067"><ele>371.0</ele><time>2026-04-20T16:23:51.803Z</time></trkpt><trkpt lat="38.0881567" lon="15.7278667"><ele>371.0</ele><time>2026-04-20T16:23:52.804Z</time></trkpt><trkpt lat="38.0881967" lon="15.7279467"><ele>371.0</ele><time>2026-04-20T16:23:53.804Z</time></trkpt><trkpt lat="38.0882333" lon="15.7280317"><ele>371.0</ele><time>2026-04-20T16:23:54.804Z</time></trkpt><trkpt lat="38.08828" lon="15.728115"><ele>371.0</ele><time>2026-04-20T16:23:55.805Z</time></trkpt><trkpt lat="38.0883283" lon="15.7281767"><ele>371.0</ele><time>2026-04-20T16:23:56.805Z</time></trkpt><trkpt lat="38.0884467" lon="15.7281983"><ele>371.0</ele><time>2026-04-20T16:23:58.804Z</time></trkpt><trkpt lat="38.0884933" lon="15.7281417"><ele>370.6</ele><time>2026-04-20T16:23:59.805Z</time></trkpt><trkpt lat="38.0885167" lon="15.7280383"><ele>370.20000000000005</ele><time>2026-04-20T16:24:00.805Z</time></trkpt><trkpt lat="38.08851" lon="15.727915"><ele>369.79999999999995</ele><time>2026-04-20T16:24:01.804Z</time></trkpt><trkpt lat="38.0885133" lon="15.727795"><ele>369.4</ele><time>2026-04-20T16:24:02.804Z</time></trkpt><trkpt lat="38.088535" lon="15.7276683"><ele>369.0</ele><time>2026-04-20T16:24:03.805Z</time></trkpt><trkpt lat="38.088535" lon="15.7275417"><ele>365.0</ele><time>2026-04-20T16:24:04.805Z</time></trkpt><trkpt lat="38.0885633" lon="15.7274383"><ele>361.0</ele><time>2026-04-20T16:24:05.805Z</time></trkpt><trkpt lat="38.0886217" lon="15.7273617"><ele>357.0</ele><time>2026-04-20T16:24:06.804Z</time></trkpt><trkpt lat="38.0886867" lon="15.727295"><ele>353.0</ele><time>2026-04-20T16:24:07.805Z</time></trkpt><trkpt lat="38.0887683" lon="15.7272567"><ele>349.0</ele><time>2026-04-20T16:24:08.804Z</time></trkpt><trkpt lat="38.0888683" lon="15.7272467"><ele>345.0</ele><time>2026-04-20T16:24:09.803Z</time></trkpt><trkpt lat="38.08897" lon="15.72725"><ele>345.0</ele><time>2026-04-20T16:24:10.804Z</time></trkpt><trkpt lat="38.08907" lon="15.72724"><ele>345.0</ele><time>2026-04-20T16:24:11.804Z</time></trkpt><trkpt lat="38.0891567" lon="15.7272817"><ele>345.0</ele><time>2026-04-20T16:24:12.804Z</time></trkpt><trkpt lat="38.0892317" lon="15.727355"><ele>345.0</ele><time>2026-04-20T16:24:13.805Z</time></trkpt><trkpt lat="38.0893267" lon="15.7273283"><ele>345.0</ele><time>2026-04-20T16:24:15.804Z</time></trkpt><trkpt lat="38.0892667" lon="15.72725"><ele>345.0</ele><time>2026-04-20T16:24:17.805Z</time></trkpt><trkpt lat="38.0891867" lon="15.7272433"><ele>345.0</ele><time>2026-04-20T16:24:18.804Z</time></trkpt><trkpt lat="38.089105" lon="15.7272233"><ele>345.0</ele><time>2026-04-20T16:24:19.805Z</time></trkpt><trkpt lat="38.0890167" lon="15.727195"><ele>345.0</ele><time>2026-04-20T16:24:20.805Z</time></trkpt><trkpt lat="38.0889383" lon="15.7271333"><ele>345.0</ele><time>2026-04-20T16:24:21.804Z</time></trkpt><trkpt lat="38.0888717" lon="15.7270467"><ele>345.0</ele><time>2026-04-20T16:24:22.803Z</time></trkpt><trkpt lat="38.0888167" lon="15.726935"><ele>343.0</ele><time>2026-04-20T16:24:23.804Z</time></trkpt><trkpt lat="38.0887483" lon="15.7268383"><ele>341.0</ele><time>2026-04-20T16:24:24.804Z</time></trkpt><trkpt lat="38.0886717" lon="15.7267567"><ele>339.0</ele><time>2026-04-20T16:24:25.804Z</time></trkpt><trkpt lat="38.08858" lon="15.7267017"><ele>337.0</ele><time>2026-04-20T16:24:26.804Z</time></trkpt><trkpt lat="38.0884883" lon="15.7266317"><ele>335.0</ele><time>2026-04-20T16:24:27.804Z</time></trkpt><trkpt lat="38.0884133" lon="15.7265367"><ele>335.0</ele><time>2026-04-20T16:24:28.804Z</time></trkpt><trkpt lat="38.0883617" lon="15.726415"><ele>335.0</ele><time>2026-04-20T16:24:29.805Z</time></trkpt><trkpt lat="38.0883283" lon="15.7262767"><ele>335.0</ele><time>2026-04-20T16:24:30.805Z</time></trkpt><trkpt lat="38.0883083" lon="15.7261267"><ele>335.0</ele><time>2026-04-20T16:24:31.805Z</time></trkpt><trkpt lat="38.0882817" lon="15.72598"><ele>325.0</ele><time>2026-04-20T16:24:32.805Z</time></trkpt><trkpt lat="38.0882583" lon="15.7258317"><ele>315.0</ele><time>2026-04-20T16:24:33.804Z</time></trkpt><trkpt lat="38.08823" lon="15.7256933"><ele>305.0</ele><time>2026-04-20T16:24:34.804Z</time></trkpt><trkpt lat="38.0882183" lon="15.7255567"><ele>295.0</ele><time>2026-04-20T16:24:35.804Z</time></trkpt><trkpt lat="38.0882483" lon="15.7254083"><ele>295.0</ele><time>2026-04-20T16:24:36.805Z</time></trkpt><trkpt lat="38.0882183" lon="15.72529"><ele>295.0</ele><time>2026-04-20T16:24:37.804Z</time></trkpt><trkpt lat="38.08816" lon="15.72519"><ele>295.0</ele><time>2026-04-20T16:24:38.805Z</time></trkpt><trkpt lat="38.0880817" lon="15.7251017"><ele>295.0</ele><time>2026-04-20T16:24:39.804Z</time></trkpt><trkpt lat="38.0880017" lon="15.725"><ele>295.0</ele><time>2026-04-20T16:24:40.805Z</time></trkpt><trkpt lat="38.0879433" lon="15.72489"><ele>295.16666666666663</ele><time>2026-04-20T16:24:41.804Z</time></trkpt><trkpt lat="38.0878883" lon="15.7247983"><ele>295.3333333333333</ele><time>2026-04-20T16:24:42.805Z</time></trkpt><trkpt lat="38.087865" lon="15.7247033"><ele>295.5</ele><time>2026-04-20T16:24:43.804Z</time></trkpt><trkpt lat="38.0878767" lon="15.7246183"><ele>295.6666666666667</ele><time>2026-04-20T16:24:44.803Z</time></trkpt><trkpt lat="38.0879167" lon="15.7245383"><ele>295.83333333333337</ele><time>2026-04-20T16:24:45.804Z</time></trkpt><trkpt lat="38.087975" lon="15.7244683"><ele>296.0</ele><time>2026-04-20T16:24:46.804Z</time></trkpt><trkpt lat="38.08806" lon="15.7244017"><ele>296.2</ele><time>2026-04-20T16:24:47.803Z</time></trkpt><trkpt lat="38.0881467" lon="15.7243333"><ele>296.40000000000003</ele><time>2026-04-20T16:24:48.803Z</time></trkpt><trkpt lat="38.0882233" lon="15.7242617"><ele>296.6</ele><time>2026-04-20T16:24:49.803Z</time></trkpt><trkpt lat="38.0882833" lon="15.724185"><ele>296.8</ele><time>2026-04-20T16:24:50.803Z</time></trkpt><trkpt lat="38.0883033" lon="15.7240833"><ele>297.0</ele><time>2026-04-20T16:24:51.802Z</time></trkpt><trkpt lat="38.0883" lon="15.7239733"><ele>297.0</ele><time>2026-04-20T16:24:52.803Z</time></trkpt><trkpt lat="38.0882817" lon="15.7238533"><ele>297.0</ele><time>2026-04-20T16:24:53.802Z</time></trkpt><trkpt lat="38.0882767" lon="15.723725"><ele>297.0</ele><time>2026-04-20T16:24:54.803Z</time></trkpt><trkpt lat="38.088255" lon="15.7235933"><ele>297.0</ele><time>2026-04-20T16:24:55.804Z</time></trkpt><trkpt lat="38.0882317" lon="15.7234617"><ele>297.0</ele><time>2026-04-20T16:24:56.803Z</time></trkpt><trkpt lat="38.08822" lon="15.7233267"><ele>299.2</ele><time>2026-04-20T16:24:57.803Z</time></trkpt><trkpt lat="38.08823" lon="15.7231917"><ele>301.4</ele><time>2026-04-20T16:24:58.803Z</time></trkpt><trkpt lat="38.08825" lon="15.72306"><ele>303.6</ele><time>2026-04-20T16:24:59.803Z</time></trkpt><trkpt lat="38.08828" lon="15.7229383"><ele>305.8</ele><time>2026-04-20T16:25:00.803Z</time></trkpt><trkpt lat="38.08833" lon="15.7228417"><ele>308.0</ele><time>2026-04-20T16:25:01.803Z</time></trkpt><trkpt lat="38.0884083" lon="15.7227883"><ele>308.0</ele><time>2026-04-20T16:25:02.803Z</time></trkpt><trkpt lat="38.0885117" lon="15.722775"><ele>308.0</ele><time>2026-04-20T16:25:03.803Z</time></trkpt><trkpt lat="38.0886133" lon="15.722735"><ele>308.0</ele><time>2026-04-20T16:25:04.803Z</time></trkpt><trkpt lat="38.0887017" lon="15.72265"><ele>308.0</ele><time>2026-04-20T16:25:05.803Z</time></trkpt><trkpt lat="38.0887783" lon="15.7225433"><ele>308.0</ele><time>2026-04-20T16:25:06.802Z</time></trkpt><trkpt lat="38.0888417" lon="15.7224183"><ele>302.25</ele><time>2026-04-20T16:25:07.803Z</time></trkpt><trkpt lat="38.0889017" lon="15.7222883"><ele>296.5</ele><time>2026-04-20T16:25:08.804Z</time></trkpt><trkpt lat="38.088945" lon="15.72215"><ele>290.75</ele><time>2026-04-20T16:25:09.803Z</time></trkpt><trkpt lat="38.0889317" lon="15.7220017"><ele>285.0</ele><time>2026-04-20T16:25:10.802Z</time></trkpt><trkpt lat="38.0888733" lon="15.7218583"><ele>281.75</ele><time>2026-04-20T16:25:11.803Z</time></trkpt><trkpt lat="38.0888033" lon="15.7217333"><ele>278.5</ele><time>2026-04-20T16:25:12.802Z</time></trkpt><trkpt lat="38.08874" lon="15.72161"><ele>275.25</ele><time>2026-04-20T16:25:13.803Z</time></trkpt><trkpt lat="38.0886983" lon="15.721475"><ele>272.0</ele><time>2026-04-20T16:25:14.802Z</time></trkpt><trkpt lat="38.08868" lon="15.72133"><ele>272.0</ele><time>2026-04-20T16:25:15.803Z</time></trkpt><trkpt lat="38.0886683" lon="15.7211833"><ele>272.0</ele><time>2026-04-20T16:25:16.802Z</time></trkpt><trkpt lat="38.08865" lon="15.72104"><ele>272.0</ele><time>2026-04-20T16:25:17.803Z</time></trkpt><trkpt lat="38.0886367" lon="15.7209067"><ele>272.0</ele><time>2026-04-20T16:25:18.803Z</time></trkpt><trkpt lat="38.088585" lon="15.7207833"><ele>272.0</ele><time>2026-04-20T16:25:19.804Z</time></trkpt><trkpt lat="38.08859" lon="15.7206683"><ele>272.2</ele><time>2026-04-20T16:25:20.804Z</time></trkpt><trkpt lat="38.08862" lon="15.7205517"><ele>272.4</ele><time>2026-04-20T16:25:21.802Z</time></trkpt><trkpt lat="38.0886567" lon="15.7204483"><ele>272.6</ele><time>2026-04-20T16:25:22.804Z</time></trkpt><trkpt lat="38.0886317" lon="15.7203333"><ele>272.8</ele><time>2026-04-20T16:25:24.803Z</time></trkpt><trkpt lat="38.0885483" lon="15.7203367"><ele>273.0</ele><time>2026-04-20T16:25:26.802Z</time></trkpt><trkpt lat="38.08848" lon="15.7204283"><ele>273.0</ele><time>2026-04-20T16:25:28.803Z</time></trkpt><trkpt lat="38.08846" lon="15.7205233"><ele>273.0</ele><time>2026-04-20T16:25:29.803Z</time></trkpt><trkpt lat="38.08845" lon="15.72062"><ele>273.0</ele><time>2026-04-20T16:25:30.802Z</time></trkpt><trkpt lat="38.0884483" lon="15.7207117"><ele>273.0</ele><time>2026-04-20T16:25:31.804Z</time></trkpt><trkpt lat="38.0883833" lon="15.7207833"><ele>273.0</ele><time>2026-04-20T16:25:33.802Z</time></trkpt><trkpt lat="38.08838" lon="15.7205883"><ele>273.0</ele><time>2026-04-20T16:25:35.803Z</time></trkpt><trkpt lat="38.0884133" lon="15.7204667"><ele>273.0</ele><time>2026-04-20T16:25:36.803Z</time></trkpt><trkpt lat="38.088435" lon="15.7203667"><ele>273.0</ele><time>2026-04-20T16:25:37.803Z</time></trkpt><trkpt lat="38.0884967" lon="15.7202867"><ele>273.0</ele><time>2026-04-20T16:25:38.804Z</time></trkpt><trkpt lat="38.08855" lon="15.7202133"><ele>273.0</ele><time>2026-04-20T16:25:39.803Z</time></trkpt><trkpt lat="38.08858" lon="15.720135"><ele>273.0</ele><time>2026-04-20T16:25:40.802Z</time></trkpt><trkpt lat="38.0886117" lon="15.7200633"><ele>272.0</ele><time>2026-04-20T16:25:41.803Z</time></trkpt><trkpt lat="38.0886267" lon="15.7199183"><ele>271.0</ele><time>2026-04-20T16:25:43.802Z</time></trkpt><trkpt lat="38.0885783" lon="15.71985"><ele>270.0</ele><time>2026-04-20T16:25:44.805Z</time></trkpt><trkpt lat="38.0885083" lon="15.7197867"><ele>269.0</ele><time>2026-04-20T16:25:45.803Z</time></trkpt><trkpt lat="38.08844" lon="15.7197117"><ele>268.0</ele><time>2026-04-20T16:25:46.804Z</time></trkpt><trkpt lat="38.0883933" lon="15.7196033"><ele>268.0</ele><time>2026-04-20T16:25:47.805Z</time></trkpt><trkpt lat="38.0883517" lon="15.7194767"><ele>268.0</ele><time>2026-04-20T16:25:48.804Z</time></trkpt><trkpt lat="38.0883233" lon="15.7193417"><ele>268.0</ele><time>2026-04-20T16:25:49.804Z</time></trkpt><trkpt lat="38.0882817" lon="15.719215"><ele>268.0</ele><time>2026-04-20T16:25:50.805Z</time></trkpt><trkpt lat="38.0882483" lon="15.7190833"><ele>268.0</ele><time>2026-04-20T16:25:51.804Z</time></trkpt><trkpt lat="38.088195" lon="15.7189667"><ele>266.4</ele><time>2026-04-20T16:25:52.803Z</time></trkpt><trkpt lat="38.0881317" lon="15.718865"><ele>264.8</ele><time>2026-04-20T16:25:53.804Z</time></trkpt><trkpt lat="38.088085" lon="15.7187567"><ele>263.2</ele><time>2026-04-20T16:25:54.804Z</time></trkpt><trkpt lat="38.0880567" lon="15.718645"><ele>261.6</ele><time>2026-04-20T16:25:55.803Z</time></trkpt><trkpt lat="38.0880267" lon="15.71854"><ele>260.0</ele><time>2026-04-20T16:25:56.803Z</time></trkpt><trkpt lat="38.088" lon="15.7184317"><ele>260.0</ele><time>2026-04-20T16:25:57.803Z</time></trkpt><trkpt lat="38.0879917" lon="15.7183233"><ele>260.0</ele><time>2026-04-20T16:25:58.802Z</time></trkpt><trkpt lat="38.08799" lon="15.7182183"><ele>260.0</ele><time>2026-04-20T16:25:59.803Z</time></trkpt><trkpt lat="38.0879933" lon="15.718115"><ele>260.0</ele><time>2026-04-20T16:26:00.803Z</time></trkpt><trkpt lat="38.0879833" lon="15.7180033"><ele>260.0</ele><time>2026-04-20T16:26:01.803Z</time></trkpt><trkpt lat="38.08798" lon="15.717895"><ele>260.0</ele><time>2026-04-20T16:26:02.804Z</time></trkpt><trkpt lat="38.0879967" lon="15.7177783"><ele>258.8</ele><time>2026-04-20T16:26:03.804Z</time></trkpt><trkpt lat="38.0880067" lon="15.7176633"><ele>257.6</ele><time>2026-04-20T16:26:04.803Z</time></trkpt><trkpt lat="38.088015" lon="15.7175483"><ele>256.4</ele><time>2026-04-20T16:26:05.803Z</time></trkpt><trkpt lat="38.0880267" lon="15.71743"><ele>255.2</ele><time>2026-04-20T16:26:06.802Z</time></trkpt><trkpt lat="38.088035" lon="15.717315"><ele>254.0</ele><time>2026-04-20T16:26:07.803Z</time></trkpt><trkpt lat="38.0880567" lon="15.7172067"><ele>254.00000000000003</ele><time>2026-04-20T16:26:08.805Z</time></trkpt><trkpt lat="38.0880783" lon="15.7170983"><ele>254.0</ele><time>2026-04-20T16:26:09.804Z</time></trkpt><trkpt lat="38.0881017" lon="15.716995"><ele>254.0</ele><time>2026-04-20T16:26:10.803Z</time></trkpt><trkpt lat="38.0881117" lon="15.7168917"><ele>254.0</ele><time>2026-04-20T16:26:11.803Z</time></trkpt><trkpt lat="38.08813" lon="15.7167883"><ele>254.00000000000003</ele><time>2026-04-20T16:26:12.803Z</time></trkpt><trkpt lat="38.0881533" lon="15.7166833"><ele>254.0</ele><time>2026-04-20T16:26:13.803Z</time></trkpt><trkpt lat="38.0881633" lon="15.7165817"><ele>251.75</ele><time>2026-04-20T16:26:14.804Z</time></trkpt><trkpt lat="38.0881617" lon="15.7164817"><ele>249.5</ele><time>2026-04-20T16:26:15.803Z</time></trkpt><trkpt lat="38.08818" lon="15.7163967"><ele>247.25</ele><time>2026-04-20T16:26:16.802Z</time></trkpt><trkpt lat="38.0882517" lon="15.71627"><ele>245.0</ele><time>2026-04-20T16:26:18.804Z</time></trkpt><trkpt lat="38.088455" lon="15.7162933"><ele>248.8</ele><time>2026-04-20T16:26:22.803Z</time></trkpt><trkpt lat="38.0885417" lon="15.716375"><ele>252.6</ele><time>2026-04-20T16:26:24.804Z</time></trkpt><trkpt lat="38.0886233" lon="15.7164633"><ele>256.4</ele><time>2026-04-20T16:26:26.805Z</time></trkpt><trkpt lat="38.0887233" lon="15.7165567"><ele>260.2</ele><time>2026-04-20T16:26:28.803Z</time></trkpt><trkpt lat="38.08877" lon="15.716625"><ele>264.0</ele><time>2026-04-20T16:26:29.804Z</time></trkpt><trkpt lat="38.08882" lon="15.716695"><ele>264.0</ele><time>2026-04-20T16:26:30.803Z</time></trkpt><trkpt lat="38.08887" lon="15.7167667"><ele>264.0</ele><time>2026-04-20T16:26:31.803Z</time></trkpt><trkpt lat="38.088915" lon="15.71684"><ele>264.0</ele><time>2026-04-20T16:26:32.811Z</time></trkpt><trkpt lat="38.0889567" lon="15.7169083"><ele>264.0</ele><time>2026-04-20T16:26:33.804Z</time></trkpt><trkpt lat="38.0889983" lon="15.7169733"><ele>264.0</ele><time>2026-04-20T16:26:34.802Z</time></trkpt><trkpt lat="38.0890317" lon="15.7170433"><ele>264.0</ele><time>2026-04-20T16:26:35.804Z</time></trkpt><trkpt lat="38.08905" lon="15.7171217"><ele>264.0</ele><time>2026-04-20T16:26:36.806Z</time></trkpt><trkpt lat="38.0890717" lon="15.7172"><ele>263.4</ele><time>2026-04-20T16:26:37.805Z</time></trkpt><trkpt lat="38.0891033" lon="15.7172733"><ele>262.79999999999995</ele><time>2026-04-20T16:26:38.804Z</time></trkpt><trkpt lat="38.0891633" lon="15.7174117"><ele>262.20000000000005</ele><time>2026-04-20T16:26:40.803Z</time></trkpt><trkpt lat="38.0892467" lon="15.7174967"><ele>261.6</ele><time>2026-04-20T16:26:42.803Z</time></trkpt><trkpt lat="38.0893483" lon="15.7174933"><ele>261.0</ele><time>2026-04-20T16:26:44.805Z</time></trkpt><trkpt lat="38.0894083" lon="15.7174633"><ele>261.0</ele><time>2026-04-20T16:26:45.803Z</time></trkpt><trkpt lat="38.0894717" lon="15.7174383"><ele>261.0</ele><time>2026-04-20T16:26:46.804Z</time></trkpt><trkpt lat="38.08953" lon="15.7173967"><ele>261.0</ele><time>2026-04-20T16:26:47.804Z</time></trkpt><trkpt lat="38.0895883" lon="15.71736"><ele>261.0</ele><time>2026-04-20T16:26:48.803Z</time></trkpt><trkpt lat="38.0896933" lon="15.7173033"><ele>261.0</ele><time>2026-04-20T16:26:50.804Z</time></trkpt><trkpt lat="38.0897833" lon="15.7172517"><ele>261.0</ele><time>2026-04-20T16:26:52.804Z</time></trkpt><trkpt lat="38.089875" lon="15.7171583"><ele>259.40000000000003</ele><time>2026-04-20T16:26:54.803Z</time></trkpt><trkpt lat="38.0899383" lon="15.7170183"><ele>257.8</ele><time>2026-04-20T16:26:56.804Z</time></trkpt><trkpt lat="38.0899467" lon="15.716935"><ele>256.20000000000005</ele><time>2026-04-20T16:26:57.803Z</time></trkpt><trkpt lat="38.0899233" lon="15.7168317"><ele>254.60000000000002</ele><time>2026-04-20T16:26:58.803Z</time></trkpt><trkpt lat="38.0898817" lon="15.716725"><ele>253.0</ele><time>2026-04-20T16:26:59.804Z</time></trkpt><trkpt lat="38.0898583" lon="15.7166233"><ele>252.33333333333331</ele><time>2026-04-20T16:27:00.804Z</time></trkpt><trkpt lat="38.0898217" lon="15.7165417"><ele>251.66666666666666</ele><time>2026-04-20T16:27:01.803Z</time></trkpt><trkpt lat="38.089795" lon="15.7163933"><ele>251.0</ele><time>2026-04-20T16:27:03.804Z</time></trkpt><trkpt lat="38.0897883" lon="15.7163117"><ele>250.33333333333331</ele><time>2026-04-20T16:27:04.802Z</time></trkpt><trkpt lat="38.0897467" lon="15.7162267"><ele>249.66666666666666</ele><time>2026-04-20T16:27:05.803Z</time></trkpt><trkpt lat="38.0897" lon="15.716105"><ele>249.0</ele><time>2026-04-20T16:27:06.802Z</time></trkpt><trkpt lat="38.0896033" lon="15.71594"><ele>246.66666666666669</ele><time>2026-04-20T16:27:07.805Z</time></trkpt><trkpt lat="38.0895017" lon="15.715755"><ele>244.33333333333334</ele><time>2026-04-20T16:27:08.804Z</time></trkpt><trkpt lat="38.08941" lon="15.7155633"><ele>242.0</ele><time>2026-04-20T16:27:09.803Z</time></trkpt><trkpt lat="38.0893133" lon="15.7153983"><ele>243.25</ele><time>2026-04-20T16:27:10.803Z</time></trkpt><trkpt lat="38.089235" lon="15.7152267"><ele>244.5</ele><time>2026-04-20T16:27:11.803Z</time></trkpt><trkpt lat="38.08923" lon="15.71502"><ele>245.75</ele><time>2026-04-20T16:27:12.804Z</time></trkpt><trkpt lat="38.089175" lon="15.7148717"><ele>247.0</ele><time>2026-04-20T16:27:13.803Z</time></trkpt><trkpt lat="38.089075" lon="15.7147467"><ele>241.66666666666666</ele><time>2026-04-20T16:27:14.804Z</time></trkpt><trkpt lat="38.089015" lon="15.714575"><ele>236.33333333333331</ele><time>2026-04-20T16:27:15.803Z</time></trkpt><trkpt lat="38.0889667" lon="15.7143683"><ele>231.0</ele><time>2026-04-20T16:27:16.804Z</time></trkpt><trkpt lat="38.088825" lon="15.7142667"><ele>230.66666666666669</ele><time>2026-04-20T16:27:17.804Z</time></trkpt><trkpt lat="38.0887" lon="15.7141183"><ele>230.33333333333334</ele><time>2026-04-20T16:27:18.804Z</time></trkpt><trkpt lat="38.0886533" lon="15.7139183"><ele>230.0</ele><time>2026-04-20T16:27:19.804Z</time></trkpt><trkpt lat="38.0885783" lon="15.71376"><ele>230.0</ele><time>2026-04-20T16:27:20.803Z</time></trkpt><trkpt lat="38.088525" lon="15.7136217"><ele>230.0</ele><time>2026-04-20T16:27:21.803Z</time></trkpt><trkpt lat="38.088525" lon="15.7134967"><ele>230.0</ele><time>2026-04-20T16:27:22.804Z</time></trkpt><trkpt lat="38.0885567" lon="15.7133833"><ele>230.0</ele><time>2026-04-20T16:27:23.803Z</time></trkpt><trkpt lat="38.088665" lon="15.7133083"><ele>230.0</ele><time>2026-04-20T16:27:24.804Z</time></trkpt><trkpt lat="38.0887967" lon="15.7132317"><ele>229.6</ele><time>2026-04-20T16:27:25.803Z</time></trkpt><trkpt lat="38.0889017" lon="15.7131433"><ele>229.2</ele><time>2026-04-20T16:27:26.804Z</time></trkpt><trkpt lat="38.0889817" lon="15.7130533"><ele>228.8</ele><time>2026-04-20T16:27:27.804Z</time></trkpt><trkpt lat="38.0890167" lon="15.7129367"><ele>228.4</ele><time>2026-04-20T16:27:28.802Z</time></trkpt><trkpt lat="38.0889967" lon="15.712805"><ele>228.0</ele><time>2026-04-20T16:27:29.803Z</time></trkpt><trkpt lat="38.0889633" lon="15.7126733"><ele>227.25</ele><time>2026-04-20T16:27:30.803Z</time></trkpt><trkpt lat="38.088965" lon="15.71254"><ele>226.5</ele><time>2026-04-20T16:27:31.802Z</time></trkpt><trkpt lat="38.0889967" lon="15.7123967"><ele>225.75</ele><time>2026-04-20T16:27:32.806Z</time></trkpt><trkpt lat="38.0890483" lon="15.71224"><ele>225.0</ele><time>2026-04-20T16:27:33.803Z</time></trkpt><trkpt lat="38.0890867" lon="15.7120733"><ele>229.0</ele><time>2026-04-20T16:27:34.803Z</time></trkpt><trkpt lat="38.0891383" lon="15.7118917"><ele>233.0</ele><time>2026-04-20T16:27:35.805Z</time></trkpt><trkpt lat="38.0891683" lon="15.7116867"><ele>237.0</ele><time>2026-04-20T16:27:36.804Z</time></trkpt><trkpt lat="38.089185" lon="15.7114533"><ele>237.0</ele><time>2026-04-20T16:27:37.804Z</time></trkpt><trkpt lat="38.08919" lon="15.7111983"><ele>237.0</ele><time>2026-04-20T16:27:38.804Z</time></trkpt><trkpt lat="38.0891867" lon="15.7109367"><ele>237.0</ele><time>2026-04-20T16:27:39.803Z</time></trkpt><trkpt lat="38.08917" lon="15.71068"><ele>234.33333333333331</ele><time>2026-04-20T16:27:40.803Z</time></trkpt><trkpt lat="38.089165" lon="15.7104317"><ele>231.66666666666666</ele><time>2026-04-20T16:27:41.803Z</time></trkpt><trkpt lat="38.089175" lon="15.7101833"><ele>229.0</ele><time>2026-04-20T16:27:42.804Z</time></trkpt><trkpt lat="38.0891633" lon="15.7099367"><ele>224.5</ele><time>2026-04-20T16:27:43.805Z</time></trkpt><trkpt lat="38.0891467" lon="15.709685"><ele>220.0</ele><time>2026-04-20T16:27:44.805Z</time></trkpt><trkpt lat="38.0891333" lon="15.70915"><ele>219.33333333333331</ele><time>2026-04-20T16:27:46.806Z</time></trkpt><trkpt lat="38.089125" lon="15.7088783"><ele>218.66666666666669</ele><time>2026-04-20T16:27:47.805Z</time></trkpt><trkpt lat="38.0891217" lon="15.7086117"><ele>218.0</ele><time>2026-04-20T16:27:48.805Z</time></trkpt><trkpt lat="38.0891217" lon="15.7083417"><ele>221.33333333333334</ele><time>2026-04-20T16:27:49.804Z</time></trkpt><trkpt lat="38.0891283" lon="15.7080817"><ele>224.66666666666669</ele><time>2026-04-20T16:27:50.804Z</time></trkpt><trkpt lat="38.0891283" lon="15.707845"><ele>228.0</ele><time>2026-04-20T16:27:51.805Z</time></trkpt><trkpt lat="38.0891233" lon="15.7076333"><ele>229.0</ele><time>2026-04-20T16:27:52.804Z</time></trkpt><trkpt lat="38.0891167" lon="15.7074417"><ele>230.0</ele><time>2026-04-20T16:27:53.805Z</time></trkpt><trkpt lat="38.08908" lon="15.70727"><ele>231.0</ele><time>2026-04-20T16:27:54.802Z</time></trkpt><trkpt lat="38.0889717" lon="15.7071367"><ele>232.0</ele><time>2026-04-20T16:27:55.804Z</time></trkpt><trkpt lat="38.08885" lon="15.7070083"><ele>227.0</ele><time>2026-04-20T16:27:56.803Z</time></trkpt><trkpt lat="38.088765" lon="15.7068617"><ele>222.0</ele><time>2026-04-20T16:27:57.803Z</time></trkpt><trkpt lat="38.0887083" lon="15.7066967"><ele>217.0</ele><time>2026-04-20T16:27:58.803Z</time></trkpt><trkpt lat="38.088675" lon="15.706505"><ele>212.0</ele><time>2026-04-20T16:27:59.804Z</time></trkpt><trkpt lat="38.0886467" lon="15.7062967"><ele>212.0</ele><time>2026-04-20T16:28:00.805Z</time></trkpt><trkpt lat="38.0886233" lon="15.706095"><ele>212.0</ele><time>2026-04-20T16:28:01.805Z</time></trkpt><trkpt lat="38.08861" lon="15.70592"><ele>212.0</ele><time>2026-04-20T16:28:02.802Z</time></trkpt><trkpt lat="38.0886217" lon="15.7057817"><ele>212.0</ele><time>2026-04-20T16:28:03.802Z</time></trkpt><trkpt lat="38.088695" lon="15.705675"><ele>211.0</ele><time>2026-04-20T16:28:04.804Z</time></trkpt><trkpt lat="38.0887983" lon="15.7055733"><ele>210.0</ele><time>2026-04-20T16:28:05.803Z</time></trkpt><trkpt lat="38.0888417" lon="15.7054517"><ele>209.0</ele><time>2026-04-20T16:28:06.804Z</time></trkpt><trkpt lat="38.0888833" lon="15.7053117"><ele>208.0</ele><time>2026-04-20T16:28:07.804Z</time></trkpt><trkpt lat="38.0888983" lon="15.7051317"><ele>207.33333333333331</ele><time>2026-04-20T16:28:08.804Z</time></trkpt><trkpt lat="38.0888383" lon="15.70488"><ele>206.66666666666669</ele><time>2026-04-20T16:28:09.802Z</time></trkpt><trkpt lat="38.088815" lon="15.704615"><ele>206.0</ele><time>2026-04-20T16:28:10.803Z</time></trkpt><trkpt lat="38.08876" lon="15.7043017"><ele>205.5</ele><time>2026-04-20T16:28:11.803Z</time></trkpt><trkpt lat="38.0886983" lon="15.7039783"><ele>205.0</ele><time>2026-04-20T16:28:12.804Z</time></trkpt><trkpt lat="38.0886383" lon="15.7036583"><ele>204.5</ele><time>2026-04-20T16:28:13.804Z</time></trkpt><trkpt lat="38.0885867" lon="15.7033567"><ele>204.0</ele><time>2026-04-20T16:28:14.804Z</time></trkpt><trkpt lat="38.088545" lon="15.7030783"><ele>204.0</ele><time>2026-04-20T16:28:15.803Z</time></trkpt><trkpt lat="38.0885183" lon="15.70281"><ele>204.0</ele><time>2026-04-20T16:28:16.805Z</time></trkpt><trkpt lat="38.0885167" lon="15.7025483"><ele>204.0</ele><time>2026-04-20T16:28:17.805Z</time></trkpt><trkpt lat="38.0885433" lon="15.7023067"><ele>202.0</ele><time>2026-04-20T16:28:18.804Z</time></trkpt><trkpt lat="38.08858" lon="15.7020883"><ele>200.0</ele><time>2026-04-20T16:28:19.804Z</time></trkpt><trkpt lat="38.0886117" lon="15.7018817"><ele>198.0</ele><time>2026-04-20T16:28:20.804Z</time></trkpt><trkpt lat="38.0886217" lon="15.701665"><ele>198.0</ele><time>2026-04-20T16:28:21.804Z</time></trkpt><trkpt lat="38.0886083" lon="15.7014317"><ele>198.0</ele><time>2026-04-20T16:28:22.804Z</time></trkpt><trkpt lat="38.0885917" lon="15.7012"><ele>198.0</ele><time>2026-04-20T16:28:23.804Z</time></trkpt><trkpt lat="38.08858" lon="15.7009617"><ele>198.0</ele><time>2026-04-20T16:28:24.803Z</time></trkpt><trkpt lat="38.08857" lon="15.7007133"><ele>198.0</ele><time>2026-04-20T16:28:25.804Z</time></trkpt><trkpt lat="38.0885567" lon="15.7004783"><ele>198.0</ele><time>2026-04-20T16:28:26.804Z</time></trkpt><trkpt lat="38.0885517" lon="15.7002617"><ele>196.75</ele><time>2026-04-20T16:28:27.804Z</time></trkpt><trkpt lat="38.0885533" lon="15.700065"><ele>195.5</ele><time>2026-04-20T16:28:28.805Z</time></trkpt><trkpt lat="38.088565" lon="15.69988"><ele>194.25</ele><time>2026-04-20T16:28:29.803Z</time></trkpt><trkpt lat="38.088585" lon="15.69971"><ele>193.0</ele><time>2026-04-20T16:28:30.804Z</time></trkpt><trkpt lat="38.0886117" lon="15.6995483"><ele>192.0</ele><time>2026-04-20T16:28:31.804Z</time></trkpt><trkpt lat="38.0886433" lon="15.6993933"><ele>191.0</ele><time>2026-04-20T16:28:32.804Z</time></trkpt><trkpt lat="38.08868" lon="15.6992433"><ele>190.0</ele><time>2026-04-20T16:28:33.803Z</time></trkpt><trkpt lat="38.0887233" lon="15.6990983"><ele>189.0</ele><time>2026-04-20T16:28:34.804Z</time></trkpt><trkpt lat="38.08878" lon="15.6989567"><ele>189.0</ele><time>2026-04-20T16:28:35.803Z</time></trkpt><trkpt lat="38.0888483" lon="15.6988217"><ele>189.0</ele><time>2026-04-20T16:28:36.807Z</time></trkpt><trkpt lat="38.0889017" lon="15.6987"><ele>189.0</ele><time>2026-04-20T16:28:37.804Z</time></trkpt><trkpt lat="38.0889383" lon="15.69859"><ele>189.0</ele><time>2026-04-20T16:28:38.805Z</time></trkpt><trkpt lat="38.0889117" lon="15.6984733"><ele>189.0</ele><time>2026-04-20T16:28:39.803Z</time></trkpt><trkpt lat="38.0888183" lon="15.698385"><ele>189.0</ele><time>2026-04-20T16:28:40.804Z</time></trkpt><trkpt lat="38.0887183" lon="15.6983117"><ele>189.0</ele><time>2026-04-20T16:28:41.804Z</time></trkpt><trkpt lat="38.088635" lon="15.6982267"><ele>189.0</ele><time>2026-04-20T16:28:42.804Z</time></trkpt><trkpt lat="38.0885617" lon="15.698135"><ele>189.0</ele><time>2026-04-20T16:28:43.804Z</time></trkpt><trkpt lat="38.088515" lon="15.6980133"><ele>189.0</ele><time>2026-04-20T16:28:44.805Z</time></trkpt><trkpt lat="38.08847" lon="15.697865"><ele>190.33333333333331</ele><time>2026-04-20T16:28:45.804Z</time></trkpt><trkpt lat="38.0884567" lon="15.697675"><ele>191.66666666666666</ele><time>2026-04-20T16:28:46.803Z</time></trkpt><trkpt lat="38.088405" lon="15.69746"><ele>193.0</ele><time>2026-04-20T16:28:47.803Z</time></trkpt><trkpt lat="38.0883267" lon="15.6972467"><ele>193.0</ele><time>2026-04-20T16:28:48.804Z</time></trkpt><trkpt lat="38.0882617" lon="15.6970517"><ele>193.0</ele><time>2026-04-20T16:28:49.804Z</time></trkpt><trkpt lat="38.0882083" lon="15.6968867"><ele>193.0</ele><time>2026-04-20T16:28:50.806Z</time></trkpt><trkpt lat="38.0881683" lon="15.6967283"><ele>193.0</ele><time>2026-04-20T16:28:51.803Z</time></trkpt><trkpt lat="38.0882183" lon="15.696545"><ele>189.0</ele><time>2026-04-20T16:28:52.803Z</time></trkpt><trkpt lat="38.0882367" lon="15.696365"><ele>185.0</ele><time>2026-04-20T16:28:53.804Z</time></trkpt><trkpt lat="38.088255" lon="15.69621"><ele>181.0</ele><time>2026-04-20T16:28:54.804Z</time></trkpt><trkpt lat="38.08825" lon="15.696075"><ele>177.0</ele><time>2026-04-20T16:28:55.804Z</time></trkpt><trkpt lat="38.0882083" lon="15.6959533"><ele>176.8</ele><time>2026-04-20T16:28:56.805Z</time></trkpt><trkpt lat="38.0881483" lon="15.69585"><ele>176.6</ele><time>2026-04-20T16:28:57.804Z</time></trkpt><trkpt lat="38.0880817" lon="15.6957567"><ele>176.4</ele><time>2026-04-20T16:28:58.804Z</time></trkpt><trkpt lat="38.0880267" lon="15.6956533"><ele>176.20000000000002</ele><time>2026-04-20T16:28:59.804Z</time></trkpt><trkpt lat="38.0880117" lon="15.6955367"><ele>176.0</ele><time>2026-04-20T16:29:00.804Z</time></trkpt><trkpt lat="38.08803" lon="15.6954167"><ele>176.0</ele><time>2026-04-20T16:29:01.804Z</time></trkpt><trkpt lat="38.08805" lon="15.6952983"><ele>176.0</ele><time>2026-04-20T16:29:02.803Z</time></trkpt><trkpt lat="38.0880367" lon="15.6951817"><ele>176.0</ele><time>2026-04-20T16:29:03.804Z</time></trkpt><trkpt lat="38.0879867" lon="15.6950533"><ele>176.0</ele><time>2026-04-20T16:29:04.804Z</time></trkpt><trkpt lat="38.087915" lon="15.69492"><ele>176.0</ele><time>2026-04-20T16:29:05.804Z</time></trkpt><trkpt lat="38.0878367" lon="15.6947917"><ele>176.20000000000002</ele><time>2026-04-20T16:29:06.804Z</time></trkpt><trkpt lat="38.0877667" lon="15.6946733"><ele>176.4</ele><time>2026-04-20T16:29:07.804Z</time></trkpt><trkpt lat="38.0877083" lon="15.6945567"><ele>176.6</ele><time>2026-04-20T16:29:08.804Z</time></trkpt><trkpt lat="38.087665" lon="15.694445"><ele>176.8</ele><time>2026-04-20T16:29:09.803Z</time></trkpt><trkpt lat="38.08768" lon="15.6943183"><ele>177.0</ele><time>2026-04-20T16:29:10.804Z</time></trkpt><trkpt lat="38.0877317" lon="15.6941883"><ele>177.5</ele><time>2026-04-20T16:29:11.805Z</time></trkpt><trkpt lat="38.08781" lon="15.6940567"><ele>178.0</ele><time>2026-04-20T16:29:12.805Z</time></trkpt><trkpt lat="38.0878633" lon="15.69392"><ele>178.5</ele><time>2026-04-20T16:29:13.803Z</time></trkpt><trkpt lat="38.0879033" lon="15.69378"><ele>179.0</ele><time>2026-04-20T16:29:14.804Z</time></trkpt><trkpt lat="38.0878767" lon="15.6936233"><ele>179.0</ele><time>2026-04-20T16:29:15.804Z</time></trkpt><trkpt lat="38.087835" lon="15.6934667"><ele>179.0</ele><time>2026-04-20T16:29:16.804Z</time></trkpt><trkpt lat="38.087795" lon="15.6933017"><ele>179.0</ele><time>2026-04-20T16:29:17.804Z</time></trkpt><trkpt lat="38.087705" lon="15.6931683"><ele>179.0</ele><time>2026-04-20T16:29:18.804Z</time></trkpt><trkpt lat="38.087625" lon="15.6930367"><ele>179.0</ele><time>2026-04-20T16:29:19.804Z</time></trkpt><trkpt lat="38.0875933" lon="15.692885"><ele>179.0</ele><time>2026-04-20T16:29:20.804Z</time></trkpt><trkpt lat="38.087565" lon="15.6927467"><ele>179.0</ele><time>2026-04-20T16:29:21.802Z</time></trkpt><trkpt lat="38.0875667" lon="15.69262"><ele>179.0</ele><time>2026-04-20T16:29:22.804Z</time></trkpt><trkpt lat="38.08761" lon="15.6925133"><ele>179.0</ele><time>2026-04-20T16:29:23.805Z</time></trkpt><trkpt lat="38.0876983" lon="15.692425"><ele>177.6</ele><time>2026-04-20T16:29:24.803Z</time></trkpt><trkpt lat="38.08777" lon="15.6923317"><ele>176.2</ele><time>2026-04-20T16:29:25.805Z</time></trkpt><trkpt lat="38.087855" lon="15.6922567"><ele>174.79999999999998</ele><time>2026-04-20T16:29:26.804Z</time></trkpt><trkpt lat="38.087955" lon="15.692235"><ele>173.39999999999998</ele><time>2026-04-20T16:29:27.803Z</time></trkpt><trkpt lat="38.0880767" lon="15.6922617"><ele>172.0</ele><time>2026-04-20T16:29:28.802Z</time></trkpt><trkpt lat="38.0881933" lon="15.692215"><ele>179.75</ele><time>2026-04-20T16:29:29.804Z</time></trkpt><trkpt lat="38.0883217" lon="15.69214"><ele>187.5</ele><time>2026-04-20T16:29:30.804Z</time></trkpt><trkpt lat="38.0884567" lon="15.692055"><ele>195.25</ele><time>2026-04-20T16:29:31.804Z</time></trkpt><trkpt lat="38.088595" lon="15.69205"><ele>203.0</ele><time>2026-04-20T16:29:32.804Z</time></trkpt><trkpt lat="38.0886983" lon="15.6919967"><ele>197.60000000000002</ele><time>2026-04-20T16:29:33.804Z</time></trkpt><trkpt lat="38.088765" lon="15.6919083"><ele>192.20000000000002</ele><time>2026-04-20T16:29:34.804Z</time></trkpt><trkpt lat="38.088795" lon="15.6918"><ele>186.8</ele><time>2026-04-20T16:29:35.805Z</time></trkpt><trkpt lat="38.0887733" lon="15.6916717"><ele>181.4</ele><time>2026-04-20T16:29:36.804Z</time></trkpt><trkpt lat="38.088695" lon="15.691545"><ele>176.0</ele><time>2026-04-20T16:29:37.803Z</time></trkpt><trkpt lat="38.0885933" lon="15.6914267"><ele>176.0</ele><time>2026-04-20T16:29:38.806Z</time></trkpt><trkpt lat="38.0884883" lon="15.6913217"><ele>176.0</ele><time>2026-04-20T16:29:39.803Z</time></trkpt><trkpt lat="38.088395" lon="15.691205"><ele>176.0</ele><time>2026-04-20T16:29:40.805Z</time></trkpt><trkpt lat="38.08832" lon="15.6910917"><ele>176.0</ele><time>2026-04-20T16:29:41.803Z</time></trkpt><trkpt lat="38.0882633" lon="15.6909767"><ele>176.0</ele><time>2026-04-20T16:29:42.804Z</time></trkpt><trkpt lat="38.08825" lon="15.690845"><ele>176.0</ele><time>2026-04-20T16:29:43.804Z</time></trkpt><trkpt lat="38.0882817" lon="15.69068"><ele>176.0</ele><time>2026-04-20T16:29:44.805Z</time></trkpt><trkpt lat="38.0882983" lon="15.6905"><ele>176.0</ele><time>2026-04-20T16:29:45.806Z</time></trkpt><trkpt lat="38.0883183" lon="15.6903133"><ele>175.0</ele><time>2026-04-20T16:29:46.804Z</time></trkpt><trkpt lat="38.0883317" lon="15.690125"><ele>174.0</ele><time>2026-04-20T16:29:47.804Z</time></trkpt><trkpt lat="38.0883483" lon="15.6899383"><ele>173.0</ele><time>2026-04-20T16:29:48.805Z</time></trkpt><trkpt lat="38.0883633" lon="15.6897667"><ele>172.0</ele><time>2026-04-20T16:29:49.805Z</time></trkpt><trkpt lat="38.0883667" lon="15.6896033"><ele>172.0</ele><time>2026-04-20T16:29:50.805Z</time></trkpt><trkpt lat="38.088385" lon="15.68945"><ele>172.0</ele><time>2026-04-20T16:29:51.805Z</time></trkpt><trkpt lat="38.08843" lon="15.6893133"><ele>172.0</ele><time>2026-04-20T16:29:52.805Z</time></trkpt><trkpt lat="38.08852" lon="15.6892033"><ele>172.0</ele><time>2026-04-20T16:29:53.805Z</time></trkpt><trkpt lat="38.08863" lon="15.68911"><ele>168.75</ele><time>2026-04-20T16:29:54.804Z</time></trkpt><trkpt lat="38.0886967" lon="15.6889733"><ele>165.5</ele><time>2026-04-20T16:29:55.805Z</time></trkpt><trkpt lat="38.08875" lon="15.6888267"><ele>162.25</ele><time>2026-04-20T16:29:56.804Z</time></trkpt><trkpt lat="38.0888217" lon="15.688715"><ele>159.0</ele><time>2026-04-20T16:29:57.803Z</time></trkpt><trkpt lat="38.088925" lon="15.6886417"><ele>156.5</ele><time>2026-04-20T16:29:58.806Z</time></trkpt><trkpt lat="38.0890367" lon="15.68857"><ele>154.0</ele><time>2026-04-20T16:29:59.804Z</time></trkpt><trkpt lat="38.08914" lon="15.6885"><ele>151.5</ele><time>2026-04-20T16:30:00.804Z</time></trkpt><trkpt lat="38.0892333" lon="15.6884233"><ele>149.0</ele><time>2026-04-20T16:30:01.805Z</time></trkpt><trkpt lat="38.08929" lon="15.6882917"><ele>149.75</ele><time>2026-04-20T16:30:02.805Z</time></trkpt><trkpt lat="38.089335" lon="15.6881317"><ele>150.5</ele><time>2026-04-20T16:30:03.805Z</time></trkpt><trkpt lat="38.0893733" lon="15.6879717"><ele>151.25</ele><time>2026-04-20T16:30:04.804Z</time></trkpt><trkpt lat="38.08942" lon="15.687825"><ele>152.0</ele><time>2026-04-20T16:30:05.804Z</time></trkpt><trkpt lat="38.0894467" lon="15.6876683"><ele>152.0</ele><time>2026-04-20T16:30:06.805Z</time></trkpt><trkpt lat="38.0894783" lon="15.6875133"><ele>152.0</ele><time>2026-04-20T16:30:07.804Z</time></trkpt><trkpt lat="38.0895083" lon="15.6873717"><ele>152.0</ele><time>2026-04-20T16:30:08.806Z</time></trkpt><trkpt lat="38.08954" lon="15.687255"><ele>152.0</ele><time>2026-04-20T16:30:09.806Z</time></trkpt><trkpt lat="38.0895933" lon="15.6871733"><ele>152.0</ele><time>2026-04-20T16:30:10.804Z</time></trkpt><trkpt lat="38.089675" lon="15.6871283"><ele>152.0</ele><time>2026-04-20T16:30:11.803Z</time></trkpt><trkpt lat="38.0897883" lon="15.687105"><ele>152.0</ele><time>2026-04-20T16:30:12.802Z</time></trkpt><trkpt lat="38.0899083" lon="15.687075"><ele>152.0</ele><time>2026-04-20T16:30:13.807Z</time></trkpt><trkpt lat="38.0900267" lon="15.6870383"><ele>152.0</ele><time>2026-04-20T16:30:14.804Z</time></trkpt><trkpt lat="38.090135" lon="15.6869917"><ele>151.79999999999998</ele><time>2026-04-20T16:30:15.803Z</time></trkpt><trkpt lat="38.0902317" lon="15.6869333"><ele>151.6</ele><time>2026-04-20T16:30:16.803Z</time></trkpt><trkpt lat="38.090315" lon="15.6868517"><ele>151.39999999999998</ele><time>2026-04-20T16:30:17.804Z</time></trkpt><trkpt lat="38.0903817" lon="15.6867467"><ele>151.2</ele><time>2026-04-20T16:30:18.804Z</time></trkpt><trkpt lat="38.0904467" lon="15.686635"><ele>151.0</ele><time>2026-04-20T16:30:19.803Z</time></trkpt><trkpt lat="38.09052" lon="15.6865317"><ele>151.0</ele><time>2026-04-20T16:30:20.804Z</time></trkpt><trkpt lat="38.0905967" lon="15.6864567"><ele>151.0</ele><time>2026-04-20T16:30:21.804Z</time></trkpt><trkpt lat="38.0906683" lon="15.6864"><ele>151.0</ele><time>2026-04-20T16:30:22.804Z</time></trkpt><trkpt lat="38.090735" lon="15.6863583"><ele>151.0</ele><time>2026-04-20T16:30:23.803Z</time></trkpt><trkpt lat="38.0908417" lon="15.686285"><ele>151.0</ele><time>2026-04-20T16:30:25.803Z</time></trkpt><trkpt lat="38.0909483" lon="15.6862033"><ele>150.85714285714286</ele><time>2026-04-20T16:30:27.803Z</time></trkpt><trkpt lat="38.0910017" lon="15.68615"><ele>150.71428571428572</ele><time>2026-04-20T16:30:28.804Z</time></trkpt><trkpt lat="38.0910617" lon="15.6860933"><ele>150.57142857142856</ele><time>2026-04-20T16:30:29.804Z</time></trkpt><trkpt lat="38.0911167" lon="15.6860333"><ele>150.42857142857144</ele><time>2026-04-20T16:30:30.803Z</time></trkpt><trkpt lat="38.09117" lon="15.6859683"><ele>150.28571428571428</ele><time>2026-04-20T16:30:31.804Z</time></trkpt><trkpt lat="38.0912217" lon="15.6858983"><ele>150.14285714285714</ele><time>2026-04-20T16:30:32.804Z</time></trkpt><trkpt lat="38.0912667" lon="15.6858267"><ele>150.0</ele><time>2026-04-20T16:30:33.804Z</time></trkpt><trkpt lat="38.0913033" lon="15.6857433"><ele>150.0</ele><time>2026-04-20T16:30:34.804Z</time></trkpt><trkpt lat="38.09133" lon="15.6856517"><ele>150.0</ele><time>2026-04-20T16:30:35.803Z</time></trkpt><trkpt lat="38.0913383" lon="15.6855467"><ele>150.0</ele><time>2026-04-20T16:30:36.805Z</time></trkpt><trkpt lat="38.091355" lon="15.685435"><ele>150.0</ele><time>2026-04-20T16:30:37.803Z</time></trkpt><trkpt lat="38.0913933" lon="15.6853333"><ele>150.0</ele><time>2026-04-20T16:30:38.805Z</time></trkpt><trkpt lat="38.0914383" lon="15.6852333"><ele>150.0</ele><time>2026-04-20T16:30:39.805Z</time></trkpt><trkpt lat="38.0914867" lon="15.6851233"><ele>151.4</ele><time>2026-04-20T16:30:40.804Z</time></trkpt><trkpt lat="38.0915467" lon="15.68502"><ele>152.8</ele><time>2026-04-20T16:30:41.804Z</time></trkpt><trkpt lat="38.0916383" lon="15.68494"><ele>154.2</ele><time>2026-04-20T16:30:42.803Z</time></trkpt><trkpt lat="38.0917183" lon="15.6848567"><ele>155.6</ele><time>2026-04-20T16:30:43.802Z</time></trkpt><trkpt lat="38.0917967" lon="15.6847683"><ele>157.0</ele><time>2026-04-20T16:30:44.804Z</time></trkpt><trkpt lat="38.0918767" lon="15.68467"><ele>157.0</ele><time>2026-04-20T16:30:45.804Z</time></trkpt><trkpt lat="38.0919717" lon="15.6845867"><ele>157.0</ele><time>2026-04-20T16:30:46.804Z</time></trkpt><trkpt lat="38.0920667" lon="15.6844967"><ele>157.0</ele><time>2026-04-20T16:30:47.804Z</time></trkpt><trkpt lat="38.09214" lon="15.6843867"><ele>157.0</ele><time>2026-04-20T16:30:48.804Z</time></trkpt><trkpt lat="38.0922083" lon="15.6842717"><ele>156.6</ele><time>2026-04-20T16:30:49.803Z</time></trkpt><trkpt lat="38.0922683" lon="15.6841567"><ele>156.2</ele><time>2026-04-20T16:30:50.804Z</time></trkpt><trkpt lat="38.092315" lon="15.6840367"><ele>155.8</ele><time>2026-04-20T16:30:51.803Z</time></trkpt><trkpt lat="38.09237" lon="15.6839317"><ele>155.4</ele><time>2026-04-20T16:30:52.803Z</time></trkpt><trkpt lat="38.09243" lon="15.68383"><ele>155.0</ele><time>2026-04-20T16:30:53.804Z</time></trkpt><trkpt lat="38.0924967" lon="15.68374"><ele>155.0</ele><time>2026-04-20T16:30:54.803Z</time></trkpt><trkpt lat="38.0925733" lon="15.683675"><ele>155.0</ele><time>2026-04-20T16:30:55.804Z</time></trkpt><trkpt lat="38.09266" lon="15.6836433"><ele>155.0</ele><time>2026-04-20T16:30:56.804Z</time></trkpt><trkpt lat="38.0927533" lon="15.6836467"><ele>155.0</ele><time>2026-04-20T16:30:57.804Z</time></trkpt><trkpt lat="38.092845" lon="15.68368"><ele>155.0</ele><time>2026-04-20T16:30:58.802Z</time></trkpt><trkpt lat="38.092925" lon="15.6837317"><ele>155.0</ele><time>2026-04-20T16:30:59.804Z</time></trkpt><trkpt lat="38.0929933" lon="15.6838"><ele>155.0</ele><time>2026-04-20T16:31:00.804Z</time></trkpt><trkpt lat="38.0930517" lon="15.6838833"><ele>155.0</ele><time>2026-04-20T16:31:01.805Z</time></trkpt><trkpt lat="38.093105" lon="15.6839717"><ele>155.0</ele><time>2026-04-20T16:31:02.804Z</time></trkpt><trkpt lat="38.093155" lon="15.6840633"><ele>155.0</ele><time>2026-04-20T16:31:03.804Z</time></trkpt><trkpt lat="38.0932117" lon="15.6841617"><ele>155.0</ele><time>2026-04-20T16:31:04.803Z</time></trkpt><trkpt lat="38.093265" lon="15.68426"><ele>154.66666666666666</ele><time>2026-04-20T16:31:05.804Z</time></trkpt><trkpt lat="38.09332" lon="15.6843567"><ele>154.33333333333331</ele><time>2026-04-20T16:31:06.804Z</time></trkpt><trkpt lat="38.093375" lon="15.6844317"><ele>154.0</ele><time>2026-04-20T16:31:07.804Z</time></trkpt><trkpt lat="38.0934333" lon="15.6844867"><ele>153.66666666666666</ele><time>2026-04-20T16:31:08.804Z</time></trkpt><trkpt lat="38.0935167" lon="15.6844867"><ele>153.33333333333334</ele><time>2026-04-20T16:31:09.804Z</time></trkpt><trkpt lat="38.0936017" lon="15.6844367"><ele>153.0</ele><time>2026-04-20T16:31:10.803Z</time></trkpt><trkpt lat="38.0936717" lon="15.6843467"><ele>153.0</ele><time>2026-04-20T16:31:11.802Z</time></trkpt><trkpt lat="38.093705" lon="15.6841783"><ele>153.0</ele><time>2026-04-20T16:31:12.805Z</time></trkpt><trkpt lat="38.0937333" lon="15.68401"><ele>153.0</ele><time>2026-04-20T16:31:13.806Z</time></trkpt><trkpt lat="38.09377" lon="15.6838467"><ele>153.0</ele><time>2026-04-20T16:31:14.804Z</time></trkpt><trkpt lat="38.093785" lon="15.6836833"><ele>151.0</ele><time>2026-04-20T16:31:15.804Z</time></trkpt><trkpt lat="38.0937467" lon="15.6835167"><ele>149.0</ele><time>2026-04-20T16:31:16.805Z</time></trkpt><trkpt lat="38.09367" lon="15.6833433"><ele>147.0</ele><time>2026-04-20T16:31:17.805Z</time></trkpt><trkpt lat="38.0936383" lon="15.68315"><ele>145.0</ele><time>2026-04-20T16:31:18.805Z</time></trkpt><trkpt lat="38.0936033" lon="15.6829717"><ele>145.0</ele><time>2026-04-20T16:31:19.805Z</time></trkpt><trkpt lat="38.0935333" lon="15.68284"><ele>145.0</ele><time>2026-04-20T16:31:20.805Z</time></trkpt><trkpt lat="38.0935167" lon="15.6827183"><ele>145.0</ele><time>2026-04-20T16:31:21.804Z</time></trkpt><trkpt lat="38.09351" lon="15.6826183"><ele>145.0</ele><time>2026-04-20T16:31:22.806Z</time></trkpt><trkpt lat="38.0935633" lon="15.6825417"><ele>145.0</ele><time>2026-04-20T16:31:23.806Z</time></trkpt><trkpt lat="38.09363" lon="15.68247"><ele>144.0</ele><time>2026-04-20T16:31:24.804Z</time></trkpt><trkpt lat="38.093685" lon="15.68238"><ele>143.0</ele><time>2026-04-20T16:31:25.802Z</time></trkpt><trkpt lat="38.0937383" lon="15.68228"><ele>142.0</ele><time>2026-04-20T16:31:26.806Z</time></trkpt><trkpt lat="38.0938" lon="15.6821833"><ele>141.0</ele><time>2026-04-20T16:31:27.804Z</time></trkpt><trkpt lat="38.093885" lon="15.6821617"><ele>140.0</ele><time>2026-04-20T16:31:28.803Z</time></trkpt><trkpt lat="38.093975" lon="15.6821917"><ele>144.6</ele><time>2026-04-20T16:31:29.804Z</time></trkpt><trkpt lat="38.0940883" lon="15.68227"><ele>149.2</ele><time>2026-04-20T16:31:30.804Z</time></trkpt><trkpt lat="38.0941717" lon="15.6822533"><ele>153.8</ele><time>2026-04-20T16:31:31.804Z</time></trkpt><trkpt lat="38.0942567" lon="15.6822167"><ele>158.4</ele><time>2026-04-20T16:31:32.804Z</time></trkpt><trkpt lat="38.0943" lon="15.6821167"><ele>163.0</ele><time>2026-04-20T16:31:33.805Z</time></trkpt><trkpt lat="38.0943117" lon="15.6819783"><ele>157.8</ele><time>2026-04-20T16:31:34.804Z</time></trkpt><trkpt lat="38.0943433" lon="15.68186"><ele>152.60000000000002</ele><time>2026-04-20T16:31:35.804Z</time></trkpt><trkpt lat="38.0944117" lon="15.6817817"><ele>147.39999999999998</ele><time>2026-04-20T16:31:36.804Z</time></trkpt><trkpt lat="38.0944867" lon="15.6816983"><ele>142.2</ele><time>2026-04-20T16:31:37.803Z</time></trkpt><trkpt lat="38.0945833" lon="15.6816267"><ele>137.0</ele><time>2026-04-20T16:31:38.804Z</time></trkpt><trkpt lat="38.094645" lon="15.6815217"><ele>137.0</ele><time>2026-04-20T16:31:39.805Z</time></trkpt><trkpt lat="38.0946833" lon="15.6814033"><ele>137.0</ele><time>2026-04-20T16:31:40.804Z</time></trkpt><trkpt lat="38.0946833" lon="15.68126"><ele>137.0</ele><time>2026-04-20T16:31:41.806Z</time></trkpt><trkpt lat="38.09467" lon="15.681115"><ele>137.0</ele><time>2026-04-20T16:31:42.804Z</time></trkpt><trkpt lat="38.0946683" lon="15.6809883"><ele>137.0</ele><time>2026-04-20T16:31:43.803Z</time></trkpt><trkpt lat="38.094685" lon="15.6808817"><ele>136.0</ele><time>2026-04-20T16:31:44.805Z</time></trkpt><trkpt lat="38.0947383" lon="15.680795"><ele>135.0</ele><time>2026-04-20T16:31:45.804Z</time></trkpt><trkpt lat="38.0948133" lon="15.6807183"><ele>134.0</ele><time>2026-04-20T16:31:46.804Z</time></trkpt><trkpt lat="38.0949" lon="15.68065"><ele>133.0</ele><time>2026-04-20T16:31:47.804Z</time></trkpt><trkpt lat="38.0949867" lon="15.6805867"><ele>132.0</ele><time>2026-04-20T16:31:48.804Z</time></trkpt><trkpt lat="38.0950617" lon="15.6805267"><ele>132.6</ele><time>2026-04-20T16:31:49.804Z</time></trkpt><trkpt lat="38.095125" lon="15.680455"><ele>133.2</ele><time>2026-04-20T16:31:50.804Z</time></trkpt><trkpt lat="38.0951833" lon="15.6803633"><ele>133.8</ele><time>2026-04-20T16:31:51.805Z</time></trkpt><trkpt lat="38.0952433" lon="15.6802533"><ele>134.4</ele><time>2026-04-20T16:31:52.804Z</time></trkpt><trkpt lat="38.0953033" lon="15.68014"><ele>135.0</ele><time>2026-04-20T16:31:53.804Z</time></trkpt><trkpt lat="38.095355" lon="15.6800167"><ele>135.0</ele><time>2026-04-20T16:31:54.805Z</time></trkpt><trkpt lat="38.0953933" lon="15.679875"><ele>135.0</ele><time>2026-04-20T16:31:55.805Z</time></trkpt><trkpt lat="38.0954133" lon="15.679725"><ele>135.0</ele><time>2026-04-20T16:31:56.805Z</time></trkpt><trkpt lat="38.095425" lon="15.679565"><ele>135.0</ele><time>2026-04-20T16:31:57.804Z</time></trkpt><trkpt lat="38.09544" lon="15.6794083"><ele>134.0</ele><time>2026-04-20T16:31:58.804Z</time></trkpt><trkpt lat="38.09545" lon="15.6792683"><ele>133.0</ele><time>2026-04-20T16:31:59.805Z</time></trkpt><trkpt lat="38.0954667" lon="15.6791417"><ele>132.0</ele><time>2026-04-20T16:32:00.805Z</time></trkpt><trkpt lat="38.0955117" lon="15.679035"><ele>131.0</ele><time>2026-04-20T16:32:01.804Z</time></trkpt><trkpt lat="38.095595" lon="15.6789567"><ele>130.0</ele><time>2026-04-20T16:32:02.804Z</time></trkpt><trkpt lat="38.09569" lon="15.67887"><ele>132.5</ele><time>2026-04-20T16:32:03.804Z</time></trkpt><trkpt lat="38.09579" lon="15.6787667"><ele>135.0</ele><time>2026-04-20T16:32:04.804Z</time></trkpt><trkpt lat="38.095885" lon="15.6786533"><ele>137.5</ele><time>2026-04-20T16:32:05.803Z</time></trkpt><trkpt lat="38.0959767" lon="15.6785317"><ele>140.0</ele><time>2026-04-20T16:32:06.804Z</time></trkpt><trkpt lat="38.0960617" lon="15.6784067"><ele>140.0</ele><time>2026-04-20T16:32:07.804Z</time></trkpt><trkpt lat="38.09614" lon="15.6782833"><ele>140.0</ele><time>2026-04-20T16:32:08.803Z</time></trkpt><trkpt lat="38.0962067" lon="15.67817"><ele>140.0</ele><time>2026-04-20T16:32:09.803Z</time></trkpt><trkpt lat="38.0962617" lon="15.6780583"><ele>140.0</ele><time>2026-04-20T16:32:10.804Z</time></trkpt><trkpt lat="38.09631" lon="15.6779483"><ele>140.0</ele><time>2026-04-20T16:32:11.804Z</time></trkpt><trkpt lat="38.096365" lon="15.6778383"><ele>140.75</ele><time>2026-04-20T16:32:12.805Z</time></trkpt><trkpt lat="38.0964317" lon="15.6777283"><ele>141.5</ele><time>2026-04-20T16:32:13.805Z</time></trkpt><trkpt lat="38.0965217" lon="15.677625"><ele>142.25</ele><time>2026-04-20T16:32:14.805Z</time></trkpt><trkpt lat="38.0966183" lon="15.67752"><ele>143.0</ele><time>2026-04-20T16:32:15.804Z</time></trkpt><trkpt lat="38.0967117" lon="15.6774217"><ele>143.0</ele><time>2026-04-20T16:32:16.804Z</time></trkpt><trkpt lat="38.0967967" lon="15.6773333"><ele>143.0</ele><time>2026-04-20T16:32:17.804Z</time></trkpt><trkpt lat="38.0968717" lon="15.6772433"><ele>143.0</ele><time>2026-04-20T16:32:18.806Z</time></trkpt><trkpt lat="38.0969333" lon="15.677145"><ele>143.0</ele><time>2026-04-20T16:32:19.805Z</time></trkpt><trkpt lat="38.09698" lon="15.6770217"><ele>143.0</ele><time>2026-04-20T16:32:20.804Z</time></trkpt><trkpt lat="38.09702" lon="15.676875"><ele>140.25</ele><time>2026-04-20T16:32:21.804Z</time></trkpt><trkpt lat="38.0970633" lon="15.6767233"><ele>137.5</ele><time>2026-04-20T16:32:22.805Z</time></trkpt><trkpt lat="38.0971133" lon="15.6765667"><ele>134.75</ele><time>2026-04-20T16:32:23.805Z</time></trkpt><trkpt lat="38.0971067" lon="15.6764083"><ele>132.0</ele><time>2026-04-20T16:32:24.804Z</time></trkpt><trkpt lat="38.097105" lon="15.6762467"><ele>130.5</ele><time>2026-04-20T16:32:25.803Z</time></trkpt><trkpt lat="38.0971017" lon="15.67609"><ele>129.0</ele><time>2026-04-20T16:32:26.804Z</time></trkpt><trkpt lat="38.0970917" lon="15.675935"><ele>127.5</ele><time>2026-04-20T16:32:27.804Z</time></trkpt><trkpt lat="38.0971033" lon="15.6757733"><ele>126.0</ele><time>2026-04-20T16:32:28.804Z</time></trkpt><trkpt lat="38.0970933" lon="15.6756283"><ele>126.0</ele><time>2026-04-20T16:32:29.805Z</time></trkpt><trkpt lat="38.097125" lon="15.6754933"><ele>126.0</ele><time>2026-04-20T16:32:30.805Z</time></trkpt><trkpt lat="38.09717" lon="15.6753717"><ele>126.0</ele><time>2026-04-20T16:32:31.804Z</time></trkpt><trkpt lat="38.09722" lon="15.6752633"><ele>126.0</ele><time>2026-04-20T16:32:32.805Z</time></trkpt><trkpt lat="38.097265" lon="15.675165"><ele>126.0</ele><time>2026-04-20T16:32:33.804Z</time></trkpt><trkpt lat="38.0973033" lon="15.6750817"><ele>124.8</ele><time>2026-04-20T16:32:34.804Z</time></trkpt><trkpt lat="38.0973583" lon="15.6749683"><ele>123.6</ele><time>2026-04-20T16:32:36.802Z</time></trkpt><trkpt lat="38.097395" lon="15.674875"><ele>122.4</ele><time>2026-04-20T16:32:39.803Z</time></trkpt><trkpt lat="38.097415" lon="15.67477"><ele>121.2</ele><time>2026-04-20T16:32:41.802Z</time></trkpt><trkpt lat="38.0974467" lon="15.67463"><ele>120.0</ele><time>2026-04-20T16:32:43.802Z</time></trkpt><trkpt lat="38.0974517" lon="15.6745483"><ele>122.0</ele><time>2026-04-20T16:32:44.803Z</time></trkpt><trkpt lat="38.09746" lon="15.674405"><ele>124.0</ele><time>2026-04-20T16:32:46.803Z</time></trkpt><trkpt lat="38.0974783" lon="15.6742767"><ele>126.0</ele><time>2026-04-20T16:32:48.804Z</time></trkpt><trkpt lat="38.0974983" lon="15.6741433"><ele>128.0</ele><time>2026-04-20T16:32:50.804Z</time></trkpt><trkpt lat="38.097515" lon="15.6740117"><ele>130.0</ele><time>2026-04-20T16:32:52.803Z</time></trkpt><trkpt lat="38.0975333" lon="15.6738833"><ele>130.0</ele><time>2026-04-20T16:32:54.802Z</time></trkpt><trkpt lat="38.0975533" lon="15.6737683"><ele>130.0</ele><time>2026-04-20T16:32:56.803Z</time></trkpt><trkpt lat="38.09757" lon="15.6736667"><ele>130.0</ele><time>2026-04-20T16:32:58.803Z</time></trkpt><trkpt lat="38.0975833" lon="15.673565"><ele>130.0</ele><time>2026-04-20T16:33:00.803Z</time></trkpt><trkpt lat="38.0976" lon="15.6734533"><ele>130.0</ele><time>2026-04-20T16:33:02.804Z</time></trkpt><trkpt lat="38.0976233" lon="15.6733267"><ele>130.0</ele><time>2026-04-20T16:33:04.803Z</time></trkpt><trkpt lat="38.097655" lon="15.67319"><ele>130.00000000000003</ele><time>2026-04-20T16:33:06.803Z</time></trkpt><trkpt lat="38.097665" lon="15.673105"><ele>130.0</ele><time>2026-04-20T16:33:07.803Z</time></trkpt><trkpt lat="38.0976783" lon="15.6730183"><ele>130.0</ele><time>2026-04-20T16:33:08.804Z</time></trkpt><trkpt lat="38.09769" lon="15.6729333"><ele>130.0</ele><time>2026-04-20T16:33:09.803Z</time></trkpt><trkpt lat="38.0977083" lon="15.6728483"><ele>130.0</ele><time>2026-04-20T16:33:10.804Z</time></trkpt><trkpt lat="38.0977" lon="15.6727617"><ele>130.00000000000003</ele><time>2026-04-20T16:33:11.804Z</time></trkpt><trkpt lat="38.097675" lon="15.6726717"><ele>130.0</ele><time>2026-04-20T16:33:12.806Z</time></trkpt><trkpt lat="38.0976467" lon="15.6725717"><ele>130.4</ele><time>2026-04-20T16:33:13.803Z</time></trkpt><trkpt lat="38.0976183" lon="15.6724667"><ele>130.8</ele><time>2026-04-20T16:33:14.804Z</time></trkpt><trkpt lat="38.0975833" lon="15.67236"><ele>131.2</ele><time>2026-04-20T16:33:15.804Z</time></trkpt><trkpt lat="38.09755" lon="15.67225"><ele>131.6</ele><time>2026-04-20T16:33:16.803Z</time></trkpt><trkpt lat="38.0975167" lon="15.6721383"><ele>132.0</ele><time>2026-04-20T16:33:17.802Z</time></trkpt><trkpt lat="38.0974767" lon="15.6720317"><ele>132.2</ele><time>2026-04-20T16:33:18.804Z</time></trkpt><trkpt lat="38.0974367" lon="15.67192"><ele>132.39999999999998</ele><time>2026-04-20T16:33:19.804Z</time></trkpt><trkpt lat="38.0974117" lon="15.6717933"><ele>132.60000000000002</ele><time>2026-04-20T16:33:20.803Z</time></trkpt><trkpt lat="38.0973767" lon="15.6716717"><ele>132.8</ele><time>2026-04-20T16:33:21.802Z</time></trkpt><trkpt lat="38.0973367" lon="15.671555"><ele>133.0</ele><time>2026-04-20T16:33:22.803Z</time></trkpt><trkpt lat="38.0973" lon="15.6714383"><ele>130.6</ele><time>2026-04-20T16:33:23.803Z</time></trkpt><trkpt lat="38.0972617" lon="15.67132"><ele>128.20000000000002</ele><time>2026-04-20T16:33:24.803Z</time></trkpt><trkpt lat="38.0972133" lon="15.6711967"><ele>125.8</ele><time>2026-04-20T16:33:25.803Z</time></trkpt><trkpt lat="38.0971683" lon="15.6710717"><ele>123.4</ele><time>2026-04-20T16:33:26.804Z</time></trkpt><trkpt lat="38.0971367" lon="15.67094"><ele>121.0</ele><time>2026-04-20T16:33:27.804Z</time></trkpt><trkpt lat="38.09711" lon="15.6708067"><ele>121.0</ele><time>2026-04-20T16:33:28.803Z</time></trkpt><trkpt lat="38.0970767" lon="15.6706833"><ele>121.0</ele><time>2026-04-20T16:33:29.804Z</time></trkpt><trkpt lat="38.0970633" lon="15.6705533"><ele>121.0</ele><time>2026-04-20T16:33:30.804Z</time></trkpt><trkpt lat="38.0970033" lon="15.670445"><ele>121.0</ele><time>2026-04-20T16:33:31.802Z</time></trkpt><trkpt lat="38.0970533" lon="15.67032"><ele>121.0</ele><time>2026-04-20T16:33:32.805Z</time></trkpt><trkpt lat="38.097035" lon="15.6702133"><ele>121.66666666666667</ele><time>2026-04-20T16:33:33.803Z</time></trkpt><trkpt lat="38.0970117" lon="15.6701133"><ele>122.33333333333334</ele><time>2026-04-20T16:33:34.803Z</time></trkpt><trkpt lat="38.096995" lon="15.6700117"><ele>123.0</ele><time>2026-04-20T16:33:35.805Z</time></trkpt><trkpt lat="38.0969733" lon="15.669915"><ele>123.66666666666666</ele><time>2026-04-20T16:33:36.803Z</time></trkpt><trkpt lat="38.0969583" lon="15.669815"><ele>124.33333333333333</ele><time>2026-04-20T16:33:37.806Z</time></trkpt><trkpt lat="38.09694" lon="15.66972"><ele>125.0</ele><time>2026-04-20T16:33:38.804Z</time></trkpt><trkpt lat="38.09692" lon="15.66962"><ele>125.0</ele><time>2026-04-20T16:33:39.803Z</time></trkpt><trkpt lat="38.0969017" lon="15.6695133"><ele>125.0</ele><time>2026-04-20T16:33:40.803Z</time></trkpt><trkpt lat="38.096875" lon="15.6693983"><ele>125.0</ele><time>2026-04-20T16:33:41.803Z</time></trkpt><trkpt lat="38.096855" lon="15.66928"><ele>125.0</ele><time>2026-04-20T16:33:42.804Z</time></trkpt><trkpt lat="38.0968317" lon="15.6691567"><ele>125.0</ele><time>2026-04-20T16:33:43.804Z</time></trkpt><trkpt lat="38.09681" lon="15.6690333"><ele>124.83333333333333</ele><time>2026-04-20T16:33:44.803Z</time></trkpt><trkpt lat="38.0967983" lon="15.6689117"><ele>124.66666666666666</ele><time>2026-04-20T16:33:45.804Z</time></trkpt><trkpt lat="38.0967733" lon="15.668795"><ele>124.5</ele><time>2026-04-20T16:33:46.805Z</time></trkpt><trkpt lat="38.09675" lon="15.6686883"><ele>124.33333333333334</ele><time>2026-04-20T16:33:47.803Z</time></trkpt><trkpt lat="38.0967283" lon="15.6685883"><ele>124.16666666666667</ele><time>2026-04-20T16:33:48.803Z</time></trkpt><trkpt lat="38.0967117" lon="15.6684867"><ele>124.0</ele><time>2026-04-20T16:33:49.808Z</time></trkpt><trkpt lat="38.0966783" lon="15.66839"><ele>123.66666666666667</ele><time>2026-04-20T16:33:50.804Z</time></trkpt><trkpt lat="38.0966567" lon="15.6682817"><ele>123.33333333333334</ele><time>2026-04-20T16:33:51.805Z</time></trkpt><trkpt lat="38.0966317" lon="15.6681717"><ele>123.0</ele><time>2026-04-20T16:33:52.806Z</time></trkpt><trkpt lat="38.09661" lon="15.668065"><ele>122.66666666666666</ele><time>2026-04-20T16:33:53.804Z</time></trkpt><trkpt lat="38.09659" lon="15.6679617"><ele>122.33333333333333</ele><time>2026-04-20T16:33:54.803Z</time></trkpt><trkpt lat="38.0965733" lon="15.667855"><ele>122.0</ele><time>2026-04-20T16:33:55.804Z</time></trkpt><trkpt lat="38.096555" lon="15.6677467"><ele>120.99999999999999</ele><time>2026-04-20T16:33:56.804Z</time></trkpt><trkpt lat="38.0965383" lon="15.6676417"><ele>120.0</ele><time>2026-04-20T16:33:57.806Z</time></trkpt><trkpt lat="38.09652" lon="15.6675433"><ele>118.99999999999999</ele><time>2026-04-20T16:33:58.804Z</time></trkpt><trkpt lat="38.0965067" lon="15.6674533"><ele>117.99999999999999</ele><time>2026-04-20T16:33:59.804Z</time></trkpt><trkpt lat="38.0964917" lon="15.6673717"><ele>117.0</ele><time>2026-04-20T16:34:00.804Z</time></trkpt><trkpt lat="38.0964783" lon="15.66729"><ele>115.99999999999999</ele><time>2026-04-20T16:34:01.804Z</time></trkpt><trkpt lat="38.0964633" lon="15.6672117"><ele>114.99999999999999</ele><time>2026-04-20T16:34:02.804Z</time></trkpt><trkpt lat="38.0964483" lon="15.6671283"><ele>115.00000000000001</ele><time>2026-04-20T16:34:03.804Z</time></trkpt><trkpt lat="38.0964233" lon="15.6670433"><ele>115.0</ele><time>2026-04-20T16:34:04.804Z</time></trkpt><trkpt lat="38.0964017" lon="15.6669483"><ele>115.0</ele><time>2026-04-20T16:34:05.804Z</time></trkpt><trkpt lat="38.0963833" lon="15.666845"><ele>115.0</ele><time>2026-04-20T16:34:06.802Z</time></trkpt><trkpt lat="38.0963633" lon="15.666735"><ele>115.00000000000001</ele><time>2026-04-20T16:34:07.803Z</time></trkpt><trkpt lat="38.0963383" lon="15.66662"><ele>115.0</ele><time>2026-04-20T16:34:08.804Z</time></trkpt><trkpt lat="38.0963117" lon="15.6665017"><ele>115.50000000000001</ele><time>2026-04-20T16:34:09.803Z</time></trkpt><trkpt lat="38.0962867" lon="15.666385"><ele>116.0</ele><time>2026-04-20T16:34:10.805Z</time></trkpt><trkpt lat="38.0962633" lon="15.666275"><ele>116.5</ele><time>2026-04-20T16:34:11.802Z</time></trkpt><trkpt lat="38.0962417" lon="15.6661667"><ele>117.0</ele><time>2026-04-20T16:34:12.805Z</time></trkpt><trkpt lat="38.0962267" lon="15.6660633"><ele>117.50000000000001</ele><time>2026-04-20T16:34:13.804Z</time></trkpt><trkpt lat="38.0961983" lon="15.6659683"><ele>118.0</ele><time>2026-04-20T16:34:14.805Z</time></trkpt><trkpt lat="38.0961783" lon="15.66585"><ele>118.0</ele><time>2026-04-20T16:34:15.805Z</time></trkpt><trkpt lat="38.0961517" lon="15.6657117"><ele>118.0</ele><time>2026-04-20T16:34:16.803Z</time></trkpt><trkpt lat="38.0961217" lon="15.6655617"><ele>118.0</ele><time>2026-04-20T16:34:17.805Z</time></trkpt><trkpt lat="38.0961033" lon="15.6654117"><ele>118.0</ele><time>2026-04-20T16:34:18.805Z</time></trkpt><trkpt lat="38.0960767" lon="15.6652683"><ele>118.0</ele><time>2026-04-20T16:34:19.804Z</time></trkpt><trkpt lat="38.0960483" lon="15.6651333"><ele>118.00000000000001</ele><time>2026-04-20T16:34:20.804Z</time></trkpt><trkpt lat="38.0960217" lon="15.6650067"><ele>118.00000000000001</ele><time>2026-04-20T16:34:21.804Z</time></trkpt><trkpt lat="38.0960017" lon="15.6648817"><ele>118.0</ele><time>2026-04-20T16:34:22.805Z</time></trkpt><trkpt lat="38.0959717" lon="15.6647533"><ele>118.0</ele><time>2026-04-20T16:34:23.803Z</time></trkpt><trkpt lat="38.09594" lon="15.6646117"><ele>118.0</ele><time>2026-04-20T16:34:24.803Z</time></trkpt><trkpt lat="38.0959017" lon="15.664455"><ele>118.0</ele><time>2026-04-20T16:34:25.803Z</time></trkpt><trkpt lat="38.0958633" lon="15.66428"><ele>118.0</ele><time>2026-04-20T16:34:26.805Z</time></trkpt><trkpt lat="38.0958183" lon="15.664095"><ele>118.0</ele><time>2026-04-20T16:34:27.803Z</time></trkpt><trkpt lat="38.0958017" lon="15.66389"><ele>118.66666666666667</ele><time>2026-04-20T16:34:28.803Z</time></trkpt><trkpt lat="38.095775" lon="15.6636867"><ele>119.33333333333334</ele><time>2026-04-20T16:34:29.804Z</time></trkpt><trkpt lat="38.09575" lon="15.6634917"><ele>120.0</ele><time>2026-04-20T16:34:30.805Z</time></trkpt><trkpt lat="38.0957117" lon="15.663315"><ele>118.25</ele><time>2026-04-20T16:34:31.806Z</time></trkpt><trkpt lat="38.09568" lon="15.6631417"><ele>116.5</ele><time>2026-04-20T16:34:32.806Z</time></trkpt><trkpt lat="38.09565" lon="15.662965"><ele>114.75</ele><time>2026-04-20T16:34:33.804Z</time></trkpt><trkpt lat="38.0956117" lon="15.6628067"><ele>113.0</ele><time>2026-04-20T16:34:34.805Z</time></trkpt><trkpt lat="38.09558" lon="15.6626733"><ele>113.0</ele><time>2026-04-20T16:34:35.804Z</time></trkpt><trkpt lat="38.0955533" lon="15.6625767"><ele>113.00000000000001</ele><time>2026-04-20T16:34:36.804Z</time></trkpt><trkpt lat="38.0955133" lon="15.6624733"><ele>113.00000000000001</ele><time>2026-04-20T16:34:38.806Z</time></trkpt><trkpt lat="38.0954233" lon="15.6624017"><ele>113.0</ele><time>2026-04-20T16:34:59.804Z</time></trkpt><trkpt lat="38.095345" lon="15.6622733"><ele>113.0</ele><time>2026-04-20T16:35:01.804Z</time></trkpt><trkpt lat="38.0953" lon="15.6622133"><ele>113.0</ele><time>2026-04-20T16:35:02.805Z</time></trkpt><trkpt lat="38.0952317" lon="15.6620983"><ele>113.00000000000001</ele><time>2026-04-20T16:35:04.804Z</time></trkpt><trkpt lat="38.0951483" lon="15.6620067"><ele>113.00000000000001</ele><time>2026-04-20T16:35:06.804Z</time></trkpt><trkpt lat="38.095085" lon="15.661915"><ele>113.0</ele><time>2026-04-20T16:35:08.803Z</time></trkpt><trkpt lat="38.095035" lon="15.6618517"><ele>113.0</ele><time>2026-04-20T16:35:11.804Z</time></trkpt><trkpt lat="38.0949717" lon="15.6617633"><ele>111.4</ele><time>2026-04-20T16:35:21.804Z</time></trkpt><trkpt lat="38.0948983" lon="15.661675"><ele>109.80000000000001</ele><time>2026-04-20T16:35:23.805Z</time></trkpt><trkpt lat="38.0948133" lon="15.6615617"><ele>108.2</ele><time>2026-04-20T16:35:25.805Z</time></trkpt><trkpt lat="38.0947367" lon="15.6614383"><ele>106.6</ele><time>2026-04-20T16:35:27.804Z</time></trkpt><trkpt lat="38.0946733" lon="15.661355"><ele>105.0</ele><time>2026-04-20T16:35:29.804Z</time></trkpt><trkpt lat="38.0946383" lon="15.6612883"><ele>105.0</ele><time>2026-04-20T16:35:34.805Z</time></trkpt><trkpt lat="38.094605" lon="15.6612117"><ele>105.0</ele><time>2026-04-20T16:35:36.806Z</time></trkpt><trkpt lat="38.0945717" lon="15.6611283"><ele>105.0</ele><time>2026-04-20T16:35:38.805Z</time></trkpt><trkpt lat="38.09452" lon="15.6610717"><ele>105.0</ele><time>2026-04-20T16:35:40.804Z</time></trkpt><trkpt lat="38.0944617" lon="15.66098"><ele>105.0</ele><time>2026-04-20T16:35:42.805Z</time></trkpt><trkpt lat="38.0944233" lon="15.6608217"><ele>105.0</ele><time>2026-04-20T16:35:44.805Z</time></trkpt><trkpt lat="38.0944083" lon="15.660725"><ele>104.6</ele><time>2026-04-20T16:35:45.804Z</time></trkpt><trkpt lat="38.0943967" lon="15.66063"><ele>104.2</ele><time>2026-04-20T16:35:46.804Z</time></trkpt><trkpt lat="38.094385" lon="15.660545"><ele>103.80000000000001</ele><time>2026-04-20T16:35:47.803Z</time></trkpt><trkpt lat="38.0943683" lon="15.660405"><ele>103.4</ele><time>2026-04-20T16:35:49.805Z</time></trkpt><trkpt lat="38.0943567" lon="15.6602633"><ele>103.0</ele><time>2026-04-20T16:35:51.805Z</time></trkpt><trkpt lat="38.094345" lon="15.6601383"><ele>102.83333333333334</ele><time>2026-04-20T16:35:53.803Z</time></trkpt><trkpt lat="38.0943283" lon="15.6600467"><ele>102.66666666666667</ele><time>2026-04-20T16:35:55.805Z</time></trkpt><trkpt lat="38.09433" lon="15.6599433"><ele>102.5</ele><time>2026-04-20T16:36:03.804Z</time></trkpt><trkpt lat="38.0943383" lon="15.6598633"><ele>102.33333333333334</ele><time>2026-04-20T16:36:09.804Z</time></trkpt><trkpt lat="38.0943783" lon="15.65976"><ele>102.16666666666667</ele><time>2026-04-20T16:36:18.805Z</time></trkpt><trkpt lat="38.0943917" lon="15.6596633"><ele>102.0</ele><time>2026-04-20T16:36:21.804Z</time></trkpt><trkpt lat="38.0943583" lon="15.6595883"><ele>102.0</ele><time>2026-04-20T16:36:24.804Z</time></trkpt><trkpt lat="38.0942817" lon="15.6595333"><ele>102.0</ele><time>2026-04-20T16:36:26.805Z</time></trkpt><trkpt lat="38.094165" lon="15.659605"><ele>102.0</ele><time>2026-04-20T16:36:28.804Z</time></trkpt><trkpt lat="38.0940967" lon="15.6596967"><ele>102.0</ele><time>2026-04-20T16:36:29.806Z</time></trkpt><trkpt lat="38.09401" lon="15.65978"><ele>102.0</ele><time>2026-04-20T16:36:30.805Z</time></trkpt><trkpt lat="38.0939083" lon="15.65984"><ele>101.5</ele><time>2026-04-20T16:36:31.804Z</time></trkpt><trkpt lat="38.0937867" lon="15.65989"><ele>101.0</ele><time>2026-04-20T16:36:32.805Z</time></trkpt><trkpt lat="38.0936533" lon="15.6599467"><ele>100.5</ele><time>2026-04-20T16:36:33.807Z</time></trkpt><trkpt lat="38.0935067" lon="15.6600217"><ele>100.0</ele><time>2026-04-20T16:36:34.804Z</time></trkpt><trkpt lat="38.09335" lon="15.6600967"><ele>100.0</ele><time>2026-04-20T16:36:35.804Z</time></trkpt><trkpt lat="38.09319" lon="15.6601667"><ele>100.0</ele><time>2026-04-20T16:36:36.804Z</time></trkpt><trkpt lat="38.0930433" lon="15.660235"><ele>100.0</ele><time>2026-04-20T16:36:37.804Z</time></trkpt><trkpt lat="38.0929033" lon="15.6602967"><ele>100.0</ele><time>2026-04-20T16:36:38.803Z</time></trkpt><trkpt lat="38.0927733" lon="15.660355"><ele>100.0</ele><time>2026-04-20T16:36:39.803Z</time></trkpt><trkpt lat="38.0926633" lon="15.6604117"><ele>100.0</ele><time>2026-04-20T16:36:40.804Z</time></trkpt><trkpt lat="38.0925617" lon="15.660455"><ele>100.0</ele><time>2026-04-20T16:36:41.803Z</time></trkpt><trkpt lat="38.0924633" lon="15.6604567"><ele>99.0</ele><time>2026-04-20T16:36:42.804Z</time></trkpt><trkpt lat="38.09238" lon="15.6604133"><ele>98.0</ele><time>2026-04-20T16:36:43.804Z</time></trkpt><trkpt lat="38.0923117" lon="15.66034"><ele>97.0</ele><time>2026-04-20T16:36:44.804Z</time></trkpt><trkpt lat="38.092275" lon="15.660225"><ele>96.0</ele><time>2026-04-20T16:36:45.804Z</time></trkpt><trkpt lat="38.0922867" lon="15.6600983"><ele>95.0</ele><time>2026-04-20T16:36:46.804Z</time></trkpt><trkpt lat="38.0923233" lon="15.6599817"><ele>95.0</ele><time>2026-04-20T16:36:47.804Z</time></trkpt><trkpt lat="38.0923833" lon="15.6598883"><ele>95.0</ele><time>2026-04-20T16:36:48.804Z</time></trkpt><trkpt lat="38.0924767" lon="15.6598283"><ele>95.0</ele><time>2026-04-20T16:36:49.804Z</time></trkpt><trkpt lat="38.0925917" lon="15.6597867"><ele>95.0</ele><time>2026-04-20T16:36:50.803Z</time></trkpt><trkpt lat="38.0927383" lon="15.6597383"><ele>96.0</ele><time>2026-04-20T16:36:51.804Z</time></trkpt><trkpt lat="38.0929183" lon="15.6596767"><ele>97.0</ele><time>2026-04-20T16:36:52.804Z</time></trkpt><trkpt lat="38.09312" lon="15.65957"><ele>98.0</ele><time>2026-04-20T16:36:53.804Z</time></trkpt><trkpt lat="38.0933617" lon="15.6594983"><ele>98.5</ele><time>2026-04-20T16:36:54.805Z</time></trkpt><trkpt lat="38.0936333" lon="15.6594033"><ele>99.0</ele><time>2026-04-20T16:36:55.803Z</time></trkpt><trkpt lat="38.0939217" lon="15.659285"><ele>99.5</ele><time>2026-04-20T16:36:56.804Z</time></trkpt><trkpt lat="38.09423" lon="15.6591617"><ele>100.0</ele><time>2026-04-20T16:36:57.804Z</time></trkpt><trkpt lat="38.0945583" lon="15.6590767"><ele>100.0</ele><time>2026-04-20T16:36:58.804Z</time></trkpt><trkpt lat="38.094895" lon="15.65901"><ele>100.0</ele><time>2026-04-20T16:36:59.803Z</time></trkpt><trkpt lat="38.0952517" lon="15.6589867"><ele>99.5</ele><time>2026-04-20T16:37:00.805Z</time></trkpt><trkpt lat="38.095625" lon="15.6589767"><ele>99.0</ele><time>2026-04-20T16:37:01.804Z</time></trkpt><trkpt lat="38.0959967" lon="15.65904"><ele>99.0</ele><time>2026-04-20T16:37:02.803Z</time></trkpt><trkpt lat="38.0963467" lon="15.6591233"><ele>99.0</ele><time>2026-04-20T16:37:03.803Z</time></trkpt><trkpt lat="38.096685" lon="15.6592267"><ele>97.5</ele><time>2026-04-20T16:37:04.804Z</time></trkpt><trkpt lat="38.097025" lon="15.6593083"><ele>96.0</ele><time>2026-04-20T16:37:05.804Z</time></trkpt><trkpt lat="38.097345" lon="15.6594083"><ele>97.5</ele><time>2026-04-20T16:37:06.804Z</time></trkpt><trkpt lat="38.097635" lon="15.6594833"><ele>99.0</ele><time>2026-04-20T16:37:07.804Z</time></trkpt><trkpt lat="38.0978933" lon="15.6595483"><ele>99.0</ele><time>2026-04-20T16:37:08.805Z</time></trkpt><trkpt lat="38.098115" lon="15.659605"><ele>99.0</ele><time>2026-04-20T16:37:09.805Z</time></trkpt><trkpt lat="38.0983083" lon="15.6596467"><ele>99.0</ele><time>2026-04-20T16:37:10.803Z</time></trkpt><trkpt lat="38.0984767" lon="15.659675"><ele>96.6</ele><time>2026-04-20T16:37:11.805Z</time></trkpt><trkpt lat="38.0986183" lon="15.65969"><ele>94.2</ele><time>2026-04-20T16:37:12.805Z</time></trkpt><trkpt lat="38.09873" lon="15.6597"><ele>91.8</ele><time>2026-04-20T16:37:13.803Z</time></trkpt><trkpt lat="38.0988233" lon="15.65973"><ele>89.39999999999999</ele><time>2026-04-20T16:37:14.804Z</time></trkpt><trkpt lat="38.098905" lon="15.6597683"><ele>87.0</ele><time>2026-04-20T16:37:15.803Z</time></trkpt><trkpt lat="38.09898" lon="15.6598133"><ele>87.0</ele><time>2026-04-20T16:37:16.803Z</time></trkpt><trkpt lat="38.099055" lon="15.65989"><ele>87.0</ele><time>2026-04-20T16:37:17.807Z</time></trkpt><trkpt lat="38.0991067" lon="15.6600117"><ele>87.0</ele><time>2026-04-20T16:37:18.804Z</time></trkpt><trkpt lat="38.0991433" lon="15.6601467"><ele>87.0</ele><time>2026-04-20T16:37:19.803Z</time></trkpt><trkpt lat="38.0991483" lon="15.6602983"><ele>87.0</ele><time>2026-04-20T16:37:20.803Z</time></trkpt><trkpt lat="38.099165" lon="15.66044"><ele>86.0</ele><time>2026-04-20T16:37:21.804Z</time></trkpt><trkpt lat="38.0992" lon="15.6605633"><ele>85.0</ele><time>2026-04-20T16:37:22.805Z</time></trkpt><trkpt lat="38.0992483" lon="15.6606767"><ele>84.0</ele><time>2026-04-20T16:37:23.803Z</time></trkpt><trkpt lat="38.0993233" lon="15.6607767"><ele>83.0</ele><time>2026-04-20T16:37:24.804Z</time></trkpt><trkpt lat="38.0994233" lon="15.6608567"><ele>82.0</ele><time>2026-04-20T16:37:25.804Z</time></trkpt><trkpt lat="38.0995383" lon="15.6609117"><ele>82.0</ele><time>2026-04-20T16:37:26.804Z</time></trkpt><trkpt lat="38.0996683" lon="15.6609217"><ele>82.0</ele><time>2026-04-20T16:37:27.804Z</time></trkpt><trkpt lat="38.099805" lon="15.6609"><ele>82.0</ele><time>2026-04-20T16:37:28.805Z</time></trkpt><trkpt lat="38.099935" lon="15.66086"><ele>82.0</ele><time>2026-04-20T16:37:29.804Z</time></trkpt><trkpt lat="38.10006" lon="15.6608117"><ele>80.0</ele><time>2026-04-20T16:37:30.804Z</time></trkpt><trkpt lat="38.1001717" lon="15.6607433"><ele>78.0</ele><time>2026-04-20T16:37:31.805Z</time></trkpt><trkpt lat="38.1002617" lon="15.6606467"><ele>76.0</ele><time>2026-04-20T16:37:32.804Z</time></trkpt><trkpt lat="38.1003217" lon="15.6605133"><ele>74.0</ele><time>2026-04-20T16:37:33.804Z</time></trkpt><trkpt lat="38.1003367" lon="15.66035"><ele>72.66666666666667</ele><time>2026-04-20T16:37:34.803Z</time></trkpt><trkpt lat="38.1003333" lon="15.6601633"><ele>71.33333333333333</ele><time>2026-04-20T16:37:35.806Z</time></trkpt><trkpt lat="38.100295" lon="15.6599533"><ele>70.0</ele><time>2026-04-20T16:37:36.804Z</time></trkpt><trkpt lat="38.1002683" lon="15.65974"><ele>70.0</ele><time>2026-04-20T16:37:37.804Z</time></trkpt><trkpt lat="38.1002383" lon="15.6594917"><ele>70.0</ele><time>2026-04-20T16:37:38.804Z</time></trkpt><trkpt lat="38.100215" lon="15.659185"><ele>70.0</ele><time>2026-04-20T16:37:39.804Z</time></trkpt><trkpt lat="38.10019" lon="15.6588483"><ele>66.0</ele><time>2026-04-20T16:37:40.804Z</time></trkpt><trkpt lat="38.1001567" lon="15.6585117"><ele>62.0</ele><time>2026-04-20T16:37:41.806Z</time></trkpt><trkpt lat="38.1001467" lon="15.658205"><ele>62.0</ele><time>2026-04-20T16:37:42.804Z</time></trkpt><trkpt lat="38.100145" lon="15.6579317"><ele>62.0</ele><time>2026-04-20T16:37:43.805Z</time></trkpt><trkpt lat="38.10017" lon="15.6576717"><ele>62.0</ele><time>2026-04-20T16:37:44.805Z</time></trkpt><trkpt lat="38.1002233" lon="15.6574183"><ele>62.0</ele><time>2026-04-20T16:37:45.804Z</time></trkpt><trkpt lat="38.1002983" lon="15.6571733"><ele>62.0</ele><time>2026-04-20T16:37:46.804Z</time></trkpt><trkpt lat="38.1003517" lon="15.65692"><ele>62.0</ele><time>2026-04-20T16:37:47.804Z</time></trkpt><trkpt lat="38.1003783" lon="15.6566417"><ele>62.0</ele><time>2026-04-20T16:37:48.803Z</time></trkpt><trkpt lat="38.1004033" lon="15.6563283"><ele>62.0</ele><time>2026-04-20T16:37:49.805Z</time></trkpt><trkpt lat="38.1004633" lon="15.6559867"><ele>60.0</ele><time>2026-04-20T16:37:50.805Z</time></trkpt><trkpt lat="38.10053" lon="15.655615"><ele>58.0</ele><time>2026-04-20T16:37:51.804Z</time></trkpt><trkpt lat="38.100615" lon="15.655225"><ele>56.5</ele><time>2026-04-20T16:37:52.804Z</time></trkpt><trkpt lat="38.1007" lon="15.6548183"><ele>55.0</ele><time>2026-04-20T16:37:53.806Z</time></trkpt><trkpt lat="38.10076" lon="15.6544117"><ele>55.0</ele><time>2026-04-20T16:37:54.803Z</time></trkpt><trkpt lat="38.1008367" lon="15.654035"><ele>55.0</ele><time>2026-04-20T16:37:55.804Z</time></trkpt><trkpt lat="38.1009017" lon="15.653675"><ele>51.0</ele><time>2026-04-20T16:37:56.804Z</time></trkpt><trkpt lat="38.1009667" lon="15.6533317"><ele>47.0</ele><time>2026-04-20T16:37:57.805Z</time></trkpt><trkpt lat="38.1010283" lon="15.653005"><ele>46.0</ele><time>2026-04-20T16:37:58.803Z</time></trkpt><trkpt lat="38.1011" lon="15.6526817"><ele>45.0</ele><time>2026-04-20T16:37:59.805Z</time></trkpt><trkpt lat="38.1011383" lon="15.6523417"><ele>45.0</ele><time>2026-04-20T16:38:00.804Z</time></trkpt><trkpt lat="38.1011917" lon="15.65199"><ele>45.0</ele><time>2026-04-20T16:38:01.805Z</time></trkpt><trkpt lat="38.101275" lon="15.651645"><ele>44.5</ele><time>2026-04-20T16:38:02.804Z</time></trkpt><trkpt lat="38.1013333" lon="15.6513067"><ele>44.0</ele><time>2026-04-20T16:38:03.803Z</time></trkpt><trkpt lat="38.1013917" lon="15.6509833"><ele>42.5</ele><time>2026-04-20T16:38:04.803Z</time></trkpt><trkpt lat="38.1014483" lon="15.6506617"><ele>41.0</ele><time>2026-04-20T16:38:05.804Z</time></trkpt><trkpt lat="38.1015067" lon="15.65034"><ele>41.5</ele><time>2026-04-20T16:38:06.806Z</time></trkpt><trkpt lat="38.101565" lon="15.65003"><ele>42.0</ele><time>2026-04-20T16:38:07.805Z</time></trkpt><trkpt lat="38.1016217" lon="15.6497367"><ele>43.0</ele><time>2026-04-20T16:38:08.804Z</time></trkpt><trkpt lat="38.1016667" lon="15.6494533"><ele>44.0</ele><time>2026-04-20T16:38:09.804Z</time></trkpt><trkpt lat="38.1016967" lon="15.6491633"><ele>44.0</ele><time>2026-04-20T16:38:10.804Z</time></trkpt><trkpt lat="38.101715" lon="15.64886"><ele>44.0</ele><time>2026-04-20T16:38:11.804Z</time></trkpt><trkpt lat="38.1017283" lon="15.6485367"><ele>43.5</ele><time>2026-04-20T16:38:12.803Z</time></trkpt><trkpt lat="38.1017417" lon="15.6481967"><ele>43.0</ele><time>2026-04-20T16:38:13.805Z</time></trkpt><trkpt lat="38.10176" lon="15.6478467"><ele>41.0</ele><time>2026-04-20T16:38:14.805Z</time></trkpt><trkpt lat="38.1017783" lon="15.6475017"><ele>39.0</ele><time>2026-04-20T16:38:15.803Z</time></trkpt><trkpt lat="38.101795" lon="15.6471717"><ele>38.0</ele><time>2026-04-20T16:38:16.803Z</time></trkpt><trkpt lat="38.1018017" lon="15.6468533"><ele>37.0</ele><time>2026-04-20T16:38:17.803Z</time></trkpt><trkpt lat="38.1018" lon="15.64654"><ele>37.0</ele><time>2026-04-20T16:38:18.803Z</time></trkpt><trkpt lat="38.1017983" lon="15.646235"><ele>37.0</ele><time>2026-04-20T16:38:19.804Z</time></trkpt><trkpt lat="38.1018033" lon="15.645955"><ele>36.0</ele><time>2026-04-20T16:38:20.804Z</time></trkpt><trkpt lat="38.1018133" lon="15.6456983"><ele>35.0</ele><time>2026-04-20T16:38:21.803Z</time></trkpt><trkpt lat="38.101825" lon="15.6454667"><ele>34.0</ele><time>2026-04-20T16:38:22.803Z</time></trkpt><trkpt lat="38.1018367" lon="15.6452583"><ele>34.0</ele><time>2026-04-20T16:38:23.804Z</time></trkpt><trkpt lat="38.1018417" lon="15.6450633"><ele>34.0</ele><time>2026-04-20T16:38:24.804Z</time></trkpt><trkpt lat="38.1018333" lon="15.64485"><ele>34.0</ele><time>2026-04-20T16:38:25.804Z</time></trkpt><trkpt lat="38.10181" lon="15.6445917"><ele>34.5</ele><time>2026-04-20T16:38:26.805Z</time></trkpt><trkpt lat="38.1017767" lon="15.64429"><ele>35.0</ele><time>2026-04-20T16:38:27.804Z</time></trkpt><trkpt lat="38.1017433" lon="15.6439567"><ele>32.0</ele><time>2026-04-20T16:38:28.804Z</time></trkpt><trkpt lat="38.1017083" lon="15.643615"><ele>29.0</ele><time>2026-04-20T16:38:29.805Z</time></trkpt><trkpt lat="38.101675" lon="15.6432967"><ele>29.0</ele><time>2026-04-20T16:38:30.804Z</time></trkpt><trkpt lat="38.101645" lon="15.6430117"><ele>29.0</ele><time>2026-04-20T16:38:31.803Z</time></trkpt><trkpt lat="38.1016183" lon="15.64276"><ele>29.0</ele><time>2026-04-20T16:38:32.804Z</time></trkpt><trkpt lat="38.1016" lon="15.6425383"><ele>29.2</ele><time>2026-04-20T16:38:33.804Z</time></trkpt><trkpt lat="38.1015867" lon="15.6423617"><ele>29.4</ele><time>2026-04-20T16:38:34.804Z</time></trkpt><trkpt lat="38.1015833" lon="15.6422267"><ele>29.6</ele><time>2026-04-20T16:38:35.803Z</time></trkpt><trkpt lat="38.1015917" lon="15.6421283"><ele>29.8</ele><time>2026-04-20T16:38:36.803Z</time></trkpt><trkpt lat="38.1016167" lon="15.6420517"><ele>30.0</ele><time>2026-04-20T16:38:37.805Z</time></trkpt><trkpt lat="38.1017033" lon="15.6419817"><ele>30.0</ele><time>2026-04-20T16:38:39.805Z</time></trkpt><trkpt lat="38.101825" lon="15.64197"><ele>30.0</ele><time>2026-04-20T16:38:41.805Z</time></trkpt><trkpt lat="38.1019283" lon="15.64195"><ele>30.0</ele><time>2026-04-20T16:38:43.803Z</time></trkpt><trkpt lat="38.1020167" lon="15.6419267"><ele>30.0</ele><time>2026-04-20T16:38:45.804Z</time></trkpt><trkpt lat="38.1020983" lon="15.6419083"><ele>30.0</ele><time>2026-04-20T16:38:47.804Z</time></trkpt><trkpt lat="38.1021817" lon="15.6419117"><ele>29.666666666666668</ele><time>2026-04-20T16:38:50.805Z</time></trkpt><trkpt lat="38.1022" lon="15.641825"><ele>29.333333333333336</ele><time>2026-04-20T16:38:53.803Z</time></trkpt><trkpt lat="38.1021733" lon="15.641735"><ele>29.0</ele><time>2026-04-20T16:38:55.805Z</time></trkpt><trkpt lat="38.10211" lon="15.6416567"><ele>28.666666666666668</ele><time>2026-04-20T16:38:57.804Z</time></trkpt><trkpt lat="38.1020533" lon="15.641585"><ele>28.333333333333336</ele><time>2026-04-20T16:38:59.804Z</time></trkpt><trkpt lat="38.1019983" lon="15.6415183"><ele>28.0</ele><time>2026-04-20T16:39:03.805Z</time></trkpt><trkpt lat="38.1020633" lon="15.64142"><ele>28.000000000000004</ele><time>2026-04-20T16:39:06.803Z</time></trkpt><trkpt lat="38.1021317" lon="15.6413317"><ele>28.0</ele><time>2026-04-20T16:39:08.804Z</time></trkpt><trkpt lat="38.1021867" lon="15.6412633"><ele>28.0</ele><time>2026-04-20T16:39:10.803Z</time></trkpt><trkpt lat="38.102255" lon="15.6411833"><ele>28.0</ele><time>2026-04-20T16:39:13.806Z</time></trkpt><trkpt lat="38.1022967" lon="15.64111"><ele>28.000000000000004</ele><time>2026-04-20T16:39:15.805Z</time></trkpt><trkpt lat="38.1023533" lon="15.6410417"><ele>28.0</ele><time>2026-04-20T16:39:18.805Z</time></trkpt><trkpt lat="38.1023967" lon="15.64097"><ele>27.166666666666668</ele><time>2026-04-20T16:39:22.804Z</time></trkpt><trkpt lat="38.1024433" lon="15.640895"><ele>26.333333333333336</ele><time>2026-04-20T16:39:25.804Z</time></trkpt><trkpt lat="38.102495" lon="15.640825"><ele>25.5</ele><time>2026-04-20T16:39:27.803Z</time></trkpt><trkpt lat="38.10256" lon="15.6407433"><ele>24.666666666666668</ele><time>2026-04-20T16:39:30.805Z</time></trkpt><trkpt lat="38.102625" lon="15.6406717"><ele>23.833333333333336</ele><time>2026-04-20T16:39:33.803Z</time></trkpt><trkpt lat="38.102685" lon="15.6405867"><ele>23.0</ele><time>2026-04-20T16:39:36.805Z</time></trkpt><trkpt lat="38.102755" lon="15.6405017"><ele>23.0</ele><time>2026-04-20T16:39:38.805Z</time></trkpt><trkpt lat="38.1028283" lon="15.640395"><ele>23.0</ele><time>2026-04-20T16:39:40.805Z</time></trkpt><trkpt lat="38.1028883" lon="15.64031"><ele>23.0</ele><time>2026-04-20T16:39:42.806Z</time></trkpt><trkpt lat="38.1029333" lon="15.6402533"><ele>23.0</ele><time>2026-04-20T16:39:44.805Z</time></trkpt><trkpt lat="38.1029883" lon="15.6401667"><ele>23.0</ele><time>2026-04-20T16:39:48.805Z</time></trkpt><trkpt lat="38.103045" lon="15.640085"><ele>23.0</ele><time>2026-04-20T16:39:50.806Z</time></trkpt><trkpt lat="38.1031117" lon="15.6399967"><ele>22.333333333333336</ele><time>2026-04-20T16:39:52.805Z</time></trkpt><trkpt lat="38.1031717" lon="15.6399217"><ele>21.666666666666668</ele><time>2026-04-20T16:39:54.807Z</time></trkpt><trkpt lat="38.1032217" lon="15.6398517"><ele>21.0</ele><time>2026-04-20T16:39:56.806Z</time></trkpt><trkpt lat="38.1032767" lon="15.6397783"><ele>20.333333333333332</ele><time>2026-04-20T16:39:58.807Z</time></trkpt><trkpt lat="38.1033433" lon="15.6396917"><ele>19.666666666666664</ele><time>2026-04-20T16:40:00.805Z</time></trkpt><trkpt lat="38.103395" lon="15.6396233"><ele>19.0</ele><time>2026-04-20T16:40:02.805Z</time></trkpt><trkpt lat="38.1034467" lon="15.6395517"><ele>19.0</ele><time>2026-04-20T16:40:05.802Z</time></trkpt><trkpt lat="38.1034933" lon="15.63949"><ele>19.0</ele><time>2026-04-20T16:40:09.803Z</time></trkpt><trkpt lat="38.1035433" lon="15.6394183"><ele>19.0</ele><time>2026-04-20T16:40:19.804Z</time></trkpt><trkpt lat="38.1036083" lon="15.639335"><ele>19.0</ele><time>2026-04-20T16:40:30.802Z</time></trkpt><trkpt lat="38.1036583" lon="15.6392417"><ele>19.0</ele><time>2026-04-20T16:40:32.805Z</time></trkpt><trkpt lat="38.1037233" lon="15.6391183"><ele>19.0</ele><time>2026-04-20T16:40:34.804Z</time></trkpt><trkpt lat="38.1037883" lon="15.6389917"><ele>19.0</ele><time>2026-04-20T16:40:36.803Z</time></trkpt><trkpt lat="38.10384" lon="15.638895"><ele>19.0</ele><time>2026-04-20T16:40:38.804Z</time></trkpt><trkpt lat="38.1038867" lon="15.6388083"><ele>19.0</ele><time>2026-04-20T16:40:41.803Z</time></trkpt><trkpt lat="38.1039317" lon="15.6387383"><ele>19.0</ele><time>2026-04-20T16:40:44.803Z</time></trkpt><trkpt lat="38.1039833" lon="15.63866"><ele>19.0</ele><time>2026-04-20T16:40:47.804Z</time></trkpt><trkpt lat="38.1040417" lon="15.638575"><ele>19.0</ele><time>2026-04-20T16:40:50.806Z</time></trkpt><trkpt lat="38.1041" lon="15.63848"><ele>18.428571428571427</ele><time>2026-04-20T16:40:53.804Z</time></trkpt><trkpt lat="38.1041417" lon="15.6384133"><ele>17.857142857142858</ele><time>2026-04-20T16:40:55.803Z</time></trkpt><trkpt lat="38.10416" lon="15.6383367"><ele>17.285714285714285</ele><time>2026-04-20T16:41:00.804Z</time></trkpt><trkpt lat="38.1041883" lon="15.638265"><ele>16.714285714285715</ele><time>2026-04-20T16:41:08.802Z</time></trkpt><trkpt lat="38.1042333" lon="15.6382017"><ele>16.142857142857142</ele><time>2026-04-20T16:41:11.803Z</time></trkpt><trkpt lat="38.1042" lon="15.638275"><ele>15.571428571428573</ele><time>2026-04-20T16:41:26.805Z</time></trkpt><trkpt lat="38.1042167" lon="15.6381967"><ele>15.0</ele><time>2026-04-20T16:43:22.803Z</time></trkpt><trkpt lat="38.1042592" lon="15.6380783"><ele>15.0</ele><time>2026-04-20T16:45:41.848Z</time></trkpt><trkpt lat="38.1042165" lon="15.6381673"><ele>15.0</ele><time>2026-04-20T16:46:51.874Z</time></trkpt><trkpt lat="38.1041662" lon="15.6382458"><ele>15.0</ele><time>2026-04-20T16:48:43.873Z</time></trkpt><trkpt lat="38.1042162" lon="15.6381527"><ele>15.0</ele><time>2026-04-20T16:49:33.849Z</time></trkpt><trkpt lat="38.1041783" lon="15.638231"><ele>15.0</ele><time>2026-04-20T16:50:45.833Z</time></trkpt><trkpt lat="38.1042172" lon="15.6381509"><ele>15.0</ele><time>2026-04-20T17:00:33.809Z</time></trkpt><trkpt lat="38.1041743" lon="15.6382154"><ele>15.0</ele><time>2026-04-20T17:02:28.868Z</time></trkpt></trkseg></trk></gpx>